<?xml version='1.0' encoding='UTF-8'?><gpx version="1.1" creator="JPX - https://github.com/jenetics/jpx" xmlns="http://www.topografix.com/GPX/1/1"><trk><trkseg><trkpt lat="46.1201539" lon="13.5248077"><ele>155.0</ele><time>2026-05-03T08:05:57.127Z</time></trkpt><trkpt lat="46.1201685" lon="13.5249224"><ele>155.0</ele><time>2026-05-03T08:05:58.125Z</time></trkpt><trkpt lat="46.1201782" lon="13.5250294"><ele>155.0</ele><time>2026-05-03T08:05:59.134Z</time></trkpt><trkpt lat="46.1201928" lon="13.5251512"><ele>155.0</ele><time>2026-05-03T08:06:00.126Z</time></trkpt><trkpt lat="46.1202108" lon="13.5253048"><ele>155.0</ele><time>2026-05-03T08:06:01.126Z</time></trkpt><trkpt lat="46.1202315" lon="13.5254648"><ele>155.5</ele><time>2026-05-03T08:06:02.124Z</time></trkpt><trkpt lat="46.1202503" lon="13.5256282"><ele>156.0</ele><time>2026-05-03T08:06:03.116Z</time></trkpt><trkpt lat="46.1202808" lon="13.5257913"><ele>156.5</ele><time>2026-05-03T08:06:04.128Z</time></trkpt><trkpt lat="46.1203253" lon="13.5259511"><ele>157.0</ele><time>2026-05-03T08:06:05.122Z</time></trkpt><trkpt lat="46.1203899" lon="13.5260821"><ele>157.0</ele><time>2026-05-03T08:06:06.115Z</time></trkpt><trkpt lat="46.120454" lon="13.5262009"><ele>157.0</ele><time>2026-05-03T08:06:07.109Z</time></trkpt><trkpt lat="46.1205037" lon="13.5263268"><ele>157.0</ele><time>2026-05-03T08:06:08.113Z</time></trkpt><trkpt lat="46.120526" lon="13.5264659"><ele>157.0</ele><time>2026-05-03T08:06:09.123Z</time></trkpt><trkpt lat="46.1205172" lon="13.5266149"><ele>157.0</ele><time>2026-05-03T08:06:10.132Z</time></trkpt><trkpt lat="46.1204832" lon="13.5267688"><ele>158.0</ele><time>2026-05-03T08:06:11.127Z</time></trkpt><trkpt lat="46.1204447" lon="13.5269362"><ele>159.0</ele><time>2026-05-03T08:06:12.115Z</time></trkpt><trkpt lat="46.1204017" lon="13.5271152"><ele>160.0</ele><time>2026-05-03T08:06:13.113Z</time></trkpt><trkpt lat="46.120364" lon="13.5273093"><ele>161.0</ele><time>2026-05-03T08:06:14.126Z</time></trkpt><trkpt lat="46.1203379" lon="13.5275102"><ele>161.0</ele><time>2026-05-03T08:06:15.113Z</time></trkpt><trkpt lat="46.1203217" lon="13.5277115"><ele>161.0</ele><time>2026-05-03T08:06:16.116Z</time></trkpt><trkpt lat="46.1203159" lon="13.5279097"><ele>161.0</ele><time>2026-05-03T08:06:17.131Z</time></trkpt><trkpt lat="46.1203178" lon="13.5281081"><ele>161.0</ele><time>2026-05-03T08:06:18.122Z</time></trkpt><trkpt lat="46.1203352" lon="13.5282977"><ele>161.20000000000002</ele><time>2026-05-03T08:06:19.12Z</time></trkpt><trkpt lat="46.1203606" lon="13.5284741"><ele>161.4</ele><time>2026-05-03T08:06:20.131Z</time></trkpt><trkpt lat="46.1203852" lon="13.5286334"><ele>161.6</ele><time>2026-05-03T08:06:21.121Z</time></trkpt><trkpt lat="46.1204027" lon="13.5287835"><ele>161.8</ele><time>2026-05-03T08:06:22.131Z</time></trkpt><trkpt lat="46.1203946" lon="13.5289072"><ele>162.0</ele><time>2026-05-03T08:06:23.122Z</time></trkpt><trkpt lat="46.1203579" lon="13.5290026"><ele>161.6</ele><time>2026-05-03T08:06:24.126Z</time></trkpt><trkpt lat="46.1202936" lon="13.5290736"><ele>161.2</ele><time>2026-05-03T08:06:25.108Z</time></trkpt><trkpt lat="46.1202214" lon="13.5291454"><ele>160.8</ele><time>2026-05-03T08:06:26.108Z</time></trkpt><trkpt lat="46.1201619" lon="13.5292183"><ele>160.4</ele><time>2026-05-03T08:06:27.112Z</time></trkpt><trkpt lat="46.1201049" lon="13.5293408"><ele>160.0</ele><time>2026-05-03T08:06:29.117Z</time></trkpt><trkpt lat="46.1200999" lon="13.5295427"><ele>160.6</ele><time>2026-05-03T08:06:31.116Z</time></trkpt><trkpt lat="46.1200695" lon="13.5296726"><ele>161.2</ele><time>2026-05-03T08:06:32.12Z</time></trkpt><trkpt lat="46.1200212" lon="13.5297999"><ele>161.8</ele><time>2026-05-03T08:06:33.117Z</time></trkpt><trkpt lat="46.1199608" lon="13.5299271"><ele>162.4</ele><time>2026-05-03T08:06:34.125Z</time></trkpt><trkpt lat="46.1198831" lon="13.5300364"><ele>163.0</ele><time>2026-05-03T08:06:35.129Z</time></trkpt><trkpt lat="46.1197828" lon="13.5300966"><ele>163.8</ele><time>2026-05-03T08:06:36.113Z</time></trkpt><trkpt lat="46.1196845" lon="13.530124"><ele>164.60000000000002</ele><time>2026-05-03T08:06:37.115Z</time></trkpt><trkpt lat="46.1195953" lon="13.5301271"><ele>165.39999999999998</ele><time>2026-05-03T08:06:38.132Z</time></trkpt><trkpt lat="46.1195086" lon="13.5301198"><ele>166.2</ele><time>2026-05-03T08:06:39.104Z</time></trkpt><trkpt lat="46.1194114" lon="13.5301213"><ele>167.0</ele><time>2026-05-03T08:06:40.122Z</time></trkpt><trkpt lat="46.1193088" lon="13.5301475"><ele>167.0</ele><time>2026-05-03T08:06:41.147Z</time></trkpt><trkpt lat="46.1192095" lon="13.5301841"><ele>167.0</ele><time>2026-05-03T08:06:42.121Z</time></trkpt><trkpt lat="46.1191176" lon="13.5302188"><ele>167.0</ele><time>2026-05-03T08:06:43.126Z</time></trkpt><trkpt lat="46.1190481" lon="13.5302497"><ele>167.0</ele><time>2026-05-03T08:06:44.117Z</time></trkpt><trkpt lat="46.1189523" lon="13.530225"><ele>167.0</ele><time>2026-05-03T08:06:46.124Z</time></trkpt><trkpt lat="46.1189374" lon="13.5300648"><ele>167.2</ele><time>2026-05-03T08:06:48.111Z</time></trkpt><trkpt lat="46.118943" lon="13.529943"><ele>167.39999999999998</ele><time>2026-05-03T08:06:49.108Z</time></trkpt><trkpt lat="46.1189423" lon="13.5298057"><ele>167.60000000000002</ele><time>2026-05-03T08:06:50.107Z</time></trkpt><trkpt lat="46.1189378" lon="13.5296451"><ele>167.8</ele><time>2026-05-03T08:06:51.111Z</time></trkpt><trkpt lat="46.1189392" lon="13.5294815"><ele>168.0</ele><time>2026-05-03T08:06:52.118Z</time></trkpt><trkpt lat="46.118953" lon="13.529323"><ele>167.4</ele><time>2026-05-03T08:06:53.117Z</time></trkpt><trkpt lat="46.118974" lon="13.5291699"><ele>166.8</ele><time>2026-05-03T08:06:54.144Z</time></trkpt><trkpt lat="46.1190037" lon="13.5290173"><ele>166.2</ele><time>2026-05-03T08:06:55.123Z</time></trkpt><trkpt lat="46.1190247" lon="13.5288616"><ele>165.6</ele><time>2026-05-03T08:06:56.117Z</time></trkpt><trkpt lat="46.119023" lon="13.5287055"><ele>165.0</ele><time>2026-05-03T08:06:57.118Z</time></trkpt><trkpt lat="46.1189935" lon="13.5285399"><ele>164.25</ele><time>2026-05-03T08:06:58.108Z</time></trkpt><trkpt lat="46.1189576" lon="13.5283625"><ele>163.5</ele><time>2026-05-03T08:06:59.117Z</time></trkpt><trkpt lat="46.1189265" lon="13.5281756"><ele>162.75</ele><time>2026-05-03T08:07:00.124Z</time></trkpt><trkpt lat="46.118904" lon="13.5279883"><ele>162.0</ele><time>2026-05-03T08:07:01.133Z</time></trkpt><trkpt lat="46.1188773" lon="13.5278064"><ele>161.25</ele><time>2026-05-03T08:07:02.123Z</time></trkpt><trkpt lat="46.1188392" lon="13.5276378"><ele>160.5</ele><time>2026-05-03T08:07:03.123Z</time></trkpt><trkpt lat="46.1187938" lon="13.5274897"><ele>159.75</ele><time>2026-05-03T08:07:04.116Z</time></trkpt><trkpt lat="46.1187436" lon="13.5273542"><ele>159.0</ele><time>2026-05-03T08:07:05.126Z</time></trkpt><trkpt lat="46.1186766" lon="13.5272249"><ele>159.0</ele><time>2026-05-03T08:07:06.124Z</time></trkpt><trkpt lat="46.1186016" lon="13.5270943"><ele>159.0</ele><time>2026-05-03T08:07:07.119Z</time></trkpt><trkpt lat="46.1185203" lon="13.5269585"><ele>159.0</ele><time>2026-05-03T08:07:08.124Z</time></trkpt><trkpt lat="46.1184376" lon="13.5268166"><ele>159.0</ele><time>2026-05-03T08:07:09.13Z</time></trkpt><trkpt lat="46.1183528" lon="13.5266681"><ele>158.75</ele><time>2026-05-03T08:07:10.125Z</time></trkpt><trkpt lat="46.1182709" lon="13.5265076"><ele>158.5</ele><time>2026-05-03T08:07:11.137Z</time></trkpt><trkpt lat="46.1181892" lon="13.5263445"><ele>158.25</ele><time>2026-05-03T08:07:12.132Z</time></trkpt><trkpt lat="46.1181048" lon="13.5261902"><ele>158.0</ele><time>2026-05-03T08:07:13.119Z</time></trkpt><trkpt lat="46.1180148" lon="13.5260356"><ele>158.75</ele><time>2026-05-03T08:07:14.13Z</time></trkpt><trkpt lat="46.1179292" lon="13.5258801"><ele>159.5</ele><time>2026-05-03T08:07:15.113Z</time></trkpt><trkpt lat="46.1178532" lon="13.5257219"><ele>160.25</ele><time>2026-05-03T08:07:16.118Z</time></trkpt><trkpt lat="46.117791" lon="13.5255566"><ele>161.0</ele><time>2026-05-03T08:07:17.113Z</time></trkpt><trkpt lat="46.1177322" lon="13.5253805"><ele>161.0</ele><time>2026-05-03T08:07:18.117Z</time></trkpt><trkpt lat="46.1176701" lon="13.5251934"><ele>161.0</ele><time>2026-05-03T08:07:19.131Z</time></trkpt><trkpt lat="46.1176071" lon="13.5250132"><ele>161.0</ele><time>2026-05-03T08:07:20.137Z</time></trkpt><trkpt lat="46.1175477" lon="13.52485"><ele>161.0</ele><time>2026-05-03T08:07:21.119Z</time></trkpt><trkpt lat="46.117489" lon="13.5246877"><ele>159.25</ele><time>2026-05-03T08:07:22.117Z</time></trkpt><trkpt lat="46.1174314" lon="13.5245213"><ele>157.5</ele><time>2026-05-03T08:07:23.146Z</time></trkpt><trkpt lat="46.1173741" lon="13.524351"><ele>155.75</ele><time>2026-05-03T08:07:24.125Z</time></trkpt><trkpt lat="46.1172958" lon="13.5241827"><ele>154.0</ele><time>2026-05-03T08:07:25.118Z</time></trkpt><trkpt lat="46.1171899" lon="13.524024"><ele>154.0</ele><time>2026-05-03T08:07:26.126Z</time></trkpt><trkpt lat="46.1170767" lon="13.5238706"><ele>154.0</ele><time>2026-05-03T08:07:27.122Z</time></trkpt><trkpt lat="46.1169712" lon="13.523715"><ele>154.0</ele><time>2026-05-03T08:07:28.132Z</time></trkpt><trkpt lat="46.116877" lon="13.5235465"><ele>153.33333333333334</ele><time>2026-05-03T08:07:29.122Z</time></trkpt><trkpt lat="46.1167901" lon="13.5233614"><ele>152.66666666666666</ele><time>2026-05-03T08:07:30.115Z</time></trkpt><trkpt lat="46.1167074" lon="13.5231724"><ele>152.0</ele><time>2026-05-03T08:07:31.133Z</time></trkpt><trkpt lat="46.1166272" lon="13.5229835"><ele>151.75</ele><time>2026-05-03T08:07:32.137Z</time></trkpt><trkpt lat="46.1165518" lon="13.5227948"><ele>151.5</ele><time>2026-05-03T08:07:33.136Z</time></trkpt><trkpt lat="46.1164932" lon="13.5226111"><ele>151.25</ele><time>2026-05-03T08:07:34.139Z</time></trkpt><trkpt lat="46.1164541" lon="13.522444"><ele>151.0</ele><time>2026-05-03T08:07:35.129Z</time></trkpt><trkpt lat="46.1164335" lon="13.5222989"><ele>151.0</ele><time>2026-05-03T08:07:36.123Z</time></trkpt><trkpt lat="46.1164296" lon="13.5221855"><ele>151.0</ele><time>2026-05-03T08:07:37.132Z</time></trkpt><trkpt lat="46.1164467" lon="13.5220863"><ele>151.0</ele><time>2026-05-03T08:07:38.134Z</time></trkpt><trkpt lat="46.1164906" lon="13.5219962"><ele>151.0</ele><time>2026-05-03T08:07:39.137Z</time></trkpt><trkpt lat="46.1165659" lon="13.5219126"><ele>151.0</ele><time>2026-05-03T08:07:40.119Z</time></trkpt><trkpt lat="46.1166651" lon="13.5218397"><ele>151.0</ele><time>2026-05-03T08:07:41.129Z</time></trkpt><trkpt lat="46.1167757" lon="13.5217848"><ele>151.25</ele><time>2026-05-03T08:07:42.132Z</time></trkpt><trkpt lat="46.1169065" lon="13.521771"><ele>151.5</ele><time>2026-05-03T08:07:43.115Z</time></trkpt><trkpt lat="46.1170409" lon="13.5217691"><ele>151.75</ele><time>2026-05-03T08:07:44.119Z</time></trkpt><trkpt lat="46.1171798" lon="13.5217965"><ele>152.0</ele><time>2026-05-03T08:07:45.125Z</time></trkpt><trkpt lat="46.1173216" lon="13.5218298"><ele>152.2</ele><time>2026-05-03T08:07:46.118Z</time></trkpt><trkpt lat="46.1174641" lon="13.5218418"><ele>152.39999999999998</ele><time>2026-05-03T08:07:47.127Z</time></trkpt><trkpt lat="46.1175925" lon="13.5218367"><ele>152.60000000000002</ele><time>2026-05-03T08:07:48.116Z</time></trkpt><trkpt lat="46.1176874" lon="13.5218227"><ele>152.8</ele><time>2026-05-03T08:07:49.125Z</time></trkpt><trkpt lat="46.1177651" lon="13.5218158"><ele>153.0</ele><time>2026-05-03T08:07:50.124Z</time></trkpt><trkpt lat="46.1178368" lon="13.5218136"><ele>153.0</ele><time>2026-05-03T08:07:51.131Z</time></trkpt><trkpt lat="46.1179499" lon="13.5218"><ele>153.0</ele><time>2026-05-03T08:07:53.149Z</time></trkpt><trkpt lat="46.1180393" lon="13.521782"><ele>153.0</ele><time>2026-05-03T08:07:55.151Z</time></trkpt><trkpt lat="46.1179163" lon="13.5218219"><ele>153.0</ele><time>2026-05-03T08:08:02.132Z</time></trkpt><trkpt lat="46.1178285" lon="13.521827"><ele>153.0</ele><time>2026-05-03T08:08:03.134Z</time></trkpt><trkpt lat="46.1177258" lon="13.5218323"><ele>153.0</ele><time>2026-05-03T08:08:04.141Z</time></trkpt><trkpt lat="46.1176099" lon="13.5218359"><ele>153.0</ele><time>2026-05-03T08:08:05.127Z</time></trkpt><trkpt lat="46.117486" lon="13.5218396"><ele>153.0</ele><time>2026-05-03T08:08:06.123Z</time></trkpt><trkpt lat="46.1173658" lon="13.5218425"><ele>153.0</ele><time>2026-05-03T08:08:07.115Z</time></trkpt><trkpt lat="46.1172618" lon="13.5218301"><ele>152.83333333333334</ele><time>2026-05-03T08:08:08.121Z</time></trkpt><trkpt lat="46.1171716" lon="13.5218126"><ele>152.66666666666666</ele><time>2026-05-03T08:08:09.121Z</time></trkpt><trkpt lat="46.1170948" lon="13.5217974"><ele>152.5</ele><time>2026-05-03T08:08:10.128Z</time></trkpt><trkpt lat="46.1170305" lon="13.5217806"><ele>152.33333333333331</ele><time>2026-05-03T08:08:11.13Z</time></trkpt><trkpt lat="46.1169432" lon="13.5217376"><ele>152.16666666666666</ele><time>2026-05-03T08:08:13.116Z</time></trkpt><trkpt lat="46.1169013" lon="13.5216299"><ele>152.0</ele><time>2026-05-03T08:08:15.104Z</time></trkpt><trkpt lat="46.116915" lon="13.5214803"><ele>152.0</ele><time>2026-05-03T08:08:17.118Z</time></trkpt><trkpt lat="46.1169752" lon="13.5213389"><ele>152.0</ele><time>2026-05-03T08:08:19.118Z</time></trkpt><trkpt lat="46.1170503" lon="13.5212103"><ele>152.0</ele><time>2026-05-03T08:08:21.128Z</time></trkpt><trkpt lat="46.1171009" lon="13.5211338"><ele>152.0</ele><time>2026-05-03T08:08:22.121Z</time></trkpt><trkpt lat="46.1171588" lon="13.5210515"><ele>152.0</ele><time>2026-05-03T08:08:23.121Z</time></trkpt><trkpt lat="46.1172165" lon="13.5209643"><ele>152.14285714285714</ele><time>2026-05-03T08:08:24.137Z</time></trkpt><trkpt lat="46.1172675" lon="13.5208895"><ele>152.2857142857143</ele><time>2026-05-03T08:08:25.116Z</time></trkpt><trkpt lat="46.1173204" lon="13.5208372"><ele>152.42857142857144</ele><time>2026-05-03T08:08:26.113Z</time></trkpt><trkpt lat="46.1173827" lon="13.5208042"><ele>152.57142857142856</ele><time>2026-05-03T08:08:27.116Z</time></trkpt><trkpt lat="46.117449" lon="13.520781"><ele>152.71428571428572</ele><time>2026-05-03T08:08:28.112Z</time></trkpt><trkpt lat="46.1175213" lon="13.5207664"><ele>152.85714285714286</ele><time>2026-05-03T08:08:29.116Z</time></trkpt><trkpt lat="46.1175905" lon="13.5207503"><ele>153.0</ele><time>2026-05-03T08:08:30.132Z</time></trkpt><trkpt lat="46.1176592" lon="13.5206862"><ele>153.0</ele><time>2026-05-03T08:08:32.132Z</time></trkpt><trkpt lat="46.1176103" lon="13.5205459"><ele>153.0</ele><time>2026-05-03T08:08:34.141Z</time></trkpt><trkpt lat="46.1175187" lon="13.5203963"><ele>153.0</ele><time>2026-05-03T08:08:36.112Z</time></trkpt><trkpt lat="46.1174647" lon="13.5202874"><ele>153.0</ele><time>2026-05-03T08:08:37.126Z</time></trkpt><trkpt lat="46.1174299" lon="13.5201587"><ele>153.0</ele><time>2026-05-03T08:08:38.127Z</time></trkpt><trkpt lat="46.1173985" lon="13.5200257"><ele>152.83333333333334</ele><time>2026-05-03T08:08:39.14Z</time></trkpt><trkpt lat="46.1173673" lon="13.5198961"><ele>152.66666666666666</ele><time>2026-05-03T08:08:40.132Z</time></trkpt><trkpt lat="46.1173317" lon="13.5197879"><ele>152.5</ele><time>2026-05-03T08:08:41.113Z</time></trkpt><trkpt lat="46.117288" lon="13.5196979"><ele>152.33333333333331</ele><time>2026-05-03T08:08:42.124Z</time></trkpt><trkpt lat="46.1172292" lon="13.5196237"><ele>152.16666666666666</ele><time>2026-05-03T08:08:43.109Z</time></trkpt><trkpt lat="46.1171629" lon="13.519554"><ele>152.0</ele><time>2026-05-03T08:08:44.141Z</time></trkpt><trkpt lat="46.1170845" lon="13.5194842"><ele>152.4</ele><time>2026-05-03T08:08:45.132Z</time></trkpt><trkpt lat="46.1169916" lon="13.5193925"><ele>152.79999999999998</ele><time>2026-05-03T08:08:46.112Z</time></trkpt><trkpt lat="46.1168978" lon="13.5192977"><ele>153.2</ele><time>2026-05-03T08:08:47.119Z</time></trkpt><trkpt lat="46.1168033" lon="13.5192047"><ele>153.6</ele><time>2026-05-03T08:08:48.117Z</time></trkpt><trkpt lat="46.1167129" lon="13.5191233"><ele>154.0</ele><time>2026-05-03T08:08:49.121Z</time></trkpt><trkpt lat="46.1166197" lon="13.5190398"><ele>153.4</ele><time>2026-05-03T08:08:50.122Z</time></trkpt><trkpt lat="46.1165268" lon="13.5189595"><ele>152.8</ele><time>2026-05-03T08:08:51.123Z</time></trkpt><trkpt lat="46.1164338" lon="13.5188723"><ele>152.2</ele><time>2026-05-03T08:08:52.13Z</time></trkpt><trkpt lat="46.1163509" lon="13.5187734"><ele>151.6</ele><time>2026-05-03T08:08:53.12Z</time></trkpt><trkpt lat="46.1162683" lon="13.5186701"><ele>151.0</ele><time>2026-05-03T08:08:54.14Z</time></trkpt><trkpt lat="46.1161908" lon="13.5185753"><ele>151.0</ele><time>2026-05-03T08:08:55.132Z</time></trkpt><trkpt lat="46.1161083" lon="13.5184949"><ele>151.0</ele><time>2026-05-03T08:08:56.124Z</time></trkpt><trkpt lat="46.116017" lon="13.5184294"><ele>151.0</ele><time>2026-05-03T08:08:57.122Z</time></trkpt><trkpt lat="46.1159226" lon="13.5183715"><ele>151.0</ele><time>2026-05-03T08:08:58.132Z</time></trkpt><trkpt lat="46.115831" lon="13.5183083"><ele>151.0</ele><time>2026-05-03T08:08:59.124Z</time></trkpt><trkpt lat="46.1157409" lon="13.5182352"><ele>151.0</ele><time>2026-05-03T08:09:00.125Z</time></trkpt><trkpt lat="46.1156604" lon="13.518168"><ele>151.0</ele><time>2026-05-03T08:09:01.111Z</time></trkpt><trkpt lat="46.1155811" lon="13.5181017"><ele>151.0</ele><time>2026-05-03T08:09:02.104Z</time></trkpt><trkpt lat="46.1155151" lon="13.518033"><ele>151.0</ele><time>2026-05-03T08:09:03.124Z</time></trkpt><trkpt lat="46.115453" lon="13.5179559"><ele>151.0</ele><time>2026-05-03T08:09:04.116Z</time></trkpt><trkpt lat="46.1153895" lon="13.5178701"><ele>151.0</ele><time>2026-05-03T08:09:05.138Z</time></trkpt><trkpt lat="46.115331" lon="13.5177673"><ele>151.2</ele><time>2026-05-03T08:09:06.117Z</time></trkpt><trkpt lat="46.1152664" lon="13.5176544"><ele>151.39999999999998</ele><time>2026-05-03T08:09:07.129Z</time></trkpt><trkpt lat="46.1152066" lon="13.5175483"><ele>151.6</ele><time>2026-05-03T08:09:08.108Z</time></trkpt><trkpt lat="46.1151453" lon="13.5174346"><ele>151.79999999999998</ele><time>2026-05-03T08:09:09.113Z</time></trkpt><trkpt lat="46.1150827" lon="13.5173356"><ele>152.0</ele><time>2026-05-03T08:09:10.123Z</time></trkpt><trkpt lat="46.115022" lon="13.5172305"><ele>152.0</ele><time>2026-05-03T08:09:11.129Z</time></trkpt><trkpt lat="46.1149546" lon="13.5171264"><ele>152.0</ele><time>2026-05-03T08:09:12.147Z</time></trkpt><trkpt lat="46.1148891" lon="13.5170113"><ele>152.0</ele><time>2026-05-03T08:09:13.109Z</time></trkpt><trkpt lat="46.1148267" lon="13.5168997"><ele>152.0</ele><time>2026-05-03T08:09:14.136Z</time></trkpt><trkpt lat="46.1147657" lon="13.5167882"><ele>152.0</ele><time>2026-05-03T08:09:15.119Z</time></trkpt><trkpt lat="46.1147059" lon="13.5166807"><ele>156.0</ele><time>2026-05-03T08:09:16.13Z</time></trkpt><trkpt lat="46.1146587" lon="13.5165697"><ele>160.0</ele><time>2026-05-03T08:09:17.141Z</time></trkpt><trkpt lat="46.1146172" lon="13.5164535"><ele>164.0</ele><time>2026-05-03T08:09:18.114Z</time></trkpt><trkpt lat="46.1145772" lon="13.5163239"><ele>168.0</ele><time>2026-05-03T08:09:19.122Z</time></trkpt><trkpt lat="46.1145432" lon="13.5161898"><ele>172.0</ele><time>2026-05-03T08:09:20.112Z</time></trkpt><trkpt lat="46.114515" lon="13.5160652"><ele>172.0</ele><time>2026-05-03T08:09:21.105Z</time></trkpt><trkpt lat="46.1144806" lon="13.5159476"><ele>172.0</ele><time>2026-05-03T08:09:22.119Z</time></trkpt><trkpt lat="46.1144563" lon="13.5158469"><ele>172.0</ele><time>2026-05-03T08:09:23.106Z</time></trkpt><trkpt lat="46.1144399" lon="13.515748"><ele>172.0</ele><time>2026-05-03T08:09:24.113Z</time></trkpt><trkpt lat="46.1144355" lon="13.5156064"><ele>172.0</ele><time>2026-05-03T08:09:25.116Z</time></trkpt><trkpt lat="46.1144332" lon="13.5154647"><ele>172.0</ele><time>2026-05-03T08:09:26.098Z</time></trkpt><trkpt lat="46.114426" lon="13.5153084"><ele>171.39999999999998</ele><time>2026-05-03T08:09:27.107Z</time></trkpt><trkpt lat="46.1144229" lon="13.5151566"><ele>170.79999999999998</ele><time>2026-05-03T08:09:28.108Z</time></trkpt><trkpt lat="46.1144114" lon="13.5150058"><ele>170.2</ele><time>2026-05-03T08:09:29.103Z</time></trkpt><trkpt lat="46.1143995" lon="13.5148646"><ele>169.6</ele><time>2026-05-03T08:09:30.121Z</time></trkpt><trkpt lat="46.1143867" lon="13.5147282"><ele>169.0</ele><time>2026-05-03T08:09:31.108Z</time></trkpt><trkpt lat="46.1143796" lon="13.51461"><ele>168.33333333333334</ele><time>2026-05-03T08:09:32.108Z</time></trkpt><trkpt lat="46.1143718" lon="13.5144986"><ele>167.66666666666669</ele><time>2026-05-03T08:09:33.114Z</time></trkpt><trkpt lat="46.1143545" lon="13.5143792"><ele>167.0</ele><time>2026-05-03T08:09:34.1Z</time></trkpt><trkpt lat="46.1143295" lon="13.5142637"><ele>166.33333333333334</ele><time>2026-05-03T08:09:35.108Z</time></trkpt><trkpt lat="46.1143046" lon="13.5141378"><ele>165.66666666666666</ele><time>2026-05-03T08:09:36.1Z</time></trkpt><trkpt lat="46.1142846" lon="13.5140095"><ele>165.0</ele><time>2026-05-03T08:09:37.101Z</time></trkpt><trkpt lat="46.1142631" lon="13.5138874"><ele>165.0</ele><time>2026-05-03T08:09:38.109Z</time></trkpt><trkpt lat="46.1142342" lon="13.5137629"><ele>165.0</ele><time>2026-05-03T08:09:39.099Z</time></trkpt><trkpt lat="46.1141978" lon="13.5136305"><ele>165.0</ele><time>2026-05-03T08:09:40.106Z</time></trkpt><trkpt lat="46.1141506" lon="13.5134811"><ele>165.0</ele><time>2026-05-03T08:09:41.109Z</time></trkpt><trkpt lat="46.1141032" lon="13.5133172"><ele>165.0</ele><time>2026-05-03T08:09:42.095Z</time></trkpt><trkpt lat="46.1140647" lon="13.513153"><ele>167.75</ele><time>2026-05-03T08:09:43.111Z</time></trkpt><trkpt lat="46.1140354" lon="13.5129776"><ele>170.5</ele><time>2026-05-03T08:09:44.094Z</time></trkpt><trkpt lat="46.114018" lon="13.5128057"><ele>173.25</ele><time>2026-05-03T08:09:45.105Z</time></trkpt><trkpt lat="46.1140055" lon="13.5126468"><ele>176.0</ele><time>2026-05-03T08:09:46.1Z</time></trkpt><trkpt lat="46.113976" lon="13.5125"><ele>176.0</ele><time>2026-05-03T08:09:47.097Z</time></trkpt><trkpt lat="46.1139496" lon="13.5123509"><ele>176.0</ele><time>2026-05-03T08:09:48.112Z</time></trkpt><trkpt lat="46.1139173" lon="13.5121975"><ele>176.0</ele><time>2026-05-03T08:09:49.097Z</time></trkpt><trkpt lat="46.113884" lon="13.5120508"><ele>176.0</ele><time>2026-05-03T08:09:50.099Z</time></trkpt><trkpt lat="46.1138543" lon="13.5119217"><ele>176.0</ele><time>2026-05-03T08:09:51.093Z</time></trkpt><trkpt lat="46.1138217" lon="13.5118009"><ele>173.4</ele><time>2026-05-03T08:09:52.098Z</time></trkpt><trkpt lat="46.113809" lon="13.5116831"><ele>170.8</ele><time>2026-05-03T08:09:53.1Z</time></trkpt><trkpt lat="46.1138112" lon="13.5115518"><ele>168.20000000000002</ele><time>2026-05-03T08:09:54.105Z</time></trkpt><trkpt lat="46.1138146" lon="13.5114003"><ele>165.60000000000002</ele><time>2026-05-03T08:09:55.108Z</time></trkpt><trkpt lat="46.1138282" lon="13.5112382"><ele>163.0</ele><time>2026-05-03T08:09:56.105Z</time></trkpt><trkpt lat="46.1138338" lon="13.5110516"><ele>163.0</ele><time>2026-05-03T08:09:57.113Z</time></trkpt><trkpt lat="46.1138332" lon="13.5108668"><ele>163.0</ele><time>2026-05-03T08:09:58.11Z</time></trkpt><trkpt lat="46.1138257" lon="13.5106807"><ele>163.0</ele><time>2026-05-03T08:09:59.117Z</time></trkpt><trkpt lat="46.1138124" lon="13.510499"><ele>163.0</ele><time>2026-05-03T08:10:00.106Z</time></trkpt><trkpt lat="46.1137932" lon="13.5103164"><ele>163.0</ele><time>2026-05-03T08:10:01.112Z</time></trkpt><trkpt lat="46.1137768" lon="13.5101322"><ele>163.0</ele><time>2026-05-03T08:10:02.11Z</time></trkpt><trkpt lat="46.1137618" lon="13.509957"><ele>163.0</ele><time>2026-05-03T08:10:03.112Z</time></trkpt><trkpt lat="46.113752" lon="13.5098031"><ele>163.0</ele><time>2026-05-03T08:10:04.112Z</time></trkpt><trkpt lat="46.1137396" lon="13.5096751"><ele>163.0</ele><time>2026-05-03T08:10:05.108Z</time></trkpt><trkpt lat="46.1137298" lon="13.5095644"><ele>162.0</ele><time>2026-05-03T08:10:06.115Z</time></trkpt><trkpt lat="46.1137271" lon="13.5094723"><ele>161.0</ele><time>2026-05-03T08:10:07.108Z</time></trkpt><trkpt lat="46.1137885" lon="13.5093176"><ele>160.0</ele><time>2026-05-03T08:10:09.102Z</time></trkpt><trkpt lat="46.1138936" lon="13.5092325"><ele>159.0</ele><time>2026-05-03T08:10:11.11Z</time></trkpt><trkpt lat="46.1139365" lon="13.5091293"><ele>158.0</ele><time>2026-05-03T08:10:13.1Z</time></trkpt><trkpt lat="46.1138843" lon="13.5089982"><ele>158.0</ele><time>2026-05-03T08:10:15.112Z</time></trkpt><trkpt lat="46.1138428" lon="13.5089203"><ele>158.0</ele><time>2026-05-03T08:10:16.124Z</time></trkpt><trkpt lat="46.1137852" lon="13.5088256"><ele>158.0</ele><time>2026-05-03T08:10:17.109Z</time></trkpt><trkpt lat="46.1137115" lon="13.5087232"><ele>158.0</ele><time>2026-05-03T08:10:18.103Z</time></trkpt><trkpt lat="46.1136289" lon="13.5086015"><ele>158.0</ele><time>2026-05-03T08:10:19.111Z</time></trkpt><trkpt lat="46.1135513" lon="13.5084774"><ele>157.25</ele><time>2026-05-03T08:10:20.118Z</time></trkpt><trkpt lat="46.1134771" lon="13.5083563"><ele>156.5</ele><time>2026-05-03T08:10:21.107Z</time></trkpt><trkpt lat="46.1134027" lon="13.5082208"><ele>155.75</ele><time>2026-05-03T08:10:22.111Z</time></trkpt><trkpt lat="46.1133417" lon="13.5080779"><ele>155.0</ele><time>2026-05-03T08:10:23.117Z</time></trkpt><trkpt lat="46.1132935" lon="13.5079126"><ele>155.0</ele><time>2026-05-03T08:10:24.098Z</time></trkpt><trkpt lat="46.1132594" lon="13.5077384"><ele>155.0</ele><time>2026-05-03T08:10:25.108Z</time></trkpt><trkpt lat="46.1132215" lon="13.5075771"><ele>155.0</ele><time>2026-05-03T08:10:26.106Z</time></trkpt><trkpt lat="46.1131797" lon="13.5074613"><ele>155.0</ele><time>2026-05-03T08:10:27.105Z</time></trkpt><trkpt lat="46.1131282" lon="13.5073624"><ele>155.0</ele><time>2026-05-03T08:10:28.117Z</time></trkpt><trkpt lat="46.1130789" lon="13.5072407"><ele>159.0</ele><time>2026-05-03T08:10:29.111Z</time></trkpt><trkpt lat="46.1130286" lon="13.5070995"><ele>163.0</ele><time>2026-05-03T08:10:30.118Z</time></trkpt><trkpt lat="46.1129719" lon="13.5069785"><ele>167.0</ele><time>2026-05-03T08:10:31.11Z</time></trkpt><trkpt lat="46.1129079" lon="13.50688"><ele>171.0</ele><time>2026-05-03T08:10:32.109Z</time></trkpt><trkpt lat="46.1128435" lon="13.5068051"><ele>175.0</ele><time>2026-05-03T08:10:33.116Z</time></trkpt><trkpt lat="46.1127756" lon="13.5067338"><ele>175.0</ele><time>2026-05-03T08:10:34.117Z</time></trkpt><trkpt lat="46.1127019" lon="13.5066547"><ele>175.0</ele><time>2026-05-03T08:10:35.124Z</time></trkpt><trkpt lat="46.1126238" lon="13.5065446"><ele>175.0</ele><time>2026-05-03T08:10:36.114Z</time></trkpt><trkpt lat="46.1125513" lon="13.5064217"><ele>175.0</ele><time>2026-05-03T08:10:37.119Z</time></trkpt><trkpt lat="46.1124752" lon="13.5062921"><ele>175.0</ele><time>2026-05-03T08:10:38.107Z</time></trkpt><trkpt lat="46.1123905" lon="13.506159"><ele>172.0</ele><time>2026-05-03T08:10:39.108Z</time></trkpt><trkpt lat="46.1123032" lon="13.5060213"><ele>169.0</ele><time>2026-05-03T08:10:40.108Z</time></trkpt><trkpt lat="46.1122159" lon="13.5058862"><ele>166.0</ele><time>2026-05-03T08:10:41.108Z</time></trkpt><trkpt lat="46.1121233" lon="13.5057566"><ele>163.0</ele><time>2026-05-03T08:10:42.112Z</time></trkpt><trkpt lat="46.1120338" lon="13.5056153"><ele>163.0</ele><time>2026-05-03T08:10:43.106Z</time></trkpt><trkpt lat="46.1119484" lon="13.5054859"><ele>163.0</ele><time>2026-05-03T08:10:44.115Z</time></trkpt><trkpt lat="46.1118771" lon="13.5053693"><ele>163.0</ele><time>2026-05-03T08:10:45.116Z</time></trkpt><trkpt lat="46.1118232" lon="13.5052492"><ele>163.0</ele><time>2026-05-03T08:10:46.116Z</time></trkpt><trkpt lat="46.1118025" lon="13.5051207"><ele>163.0</ele><time>2026-05-03T08:10:47.11Z</time></trkpt><trkpt lat="46.1118151" lon="13.5049734"><ele>159.75</ele><time>2026-05-03T08:10:48.107Z</time></trkpt><trkpt lat="46.1118583" lon="13.5048171"><ele>156.5</ele><time>2026-05-03T08:10:49.109Z</time></trkpt><trkpt lat="46.1119149" lon="13.5046503"><ele>153.25</ele><time>2026-05-03T08:10:50.106Z</time></trkpt><trkpt lat="46.1119806" lon="13.5044688"><ele>150.0</ele><time>2026-05-03T08:10:51.11Z</time></trkpt><trkpt lat="46.1120429" lon="13.5042779"><ele>150.0</ele><time>2026-05-03T08:10:52.103Z</time></trkpt><trkpt lat="46.1120994" lon="13.5040988"><ele>150.0</ele><time>2026-05-03T08:10:53.123Z</time></trkpt><trkpt lat="46.1121525" lon="13.5039297"><ele>150.0</ele><time>2026-05-03T08:10:54.112Z</time></trkpt><trkpt lat="46.1122" lon="13.5037702"><ele>150.0</ele><time>2026-05-03T08:10:55.1Z</time></trkpt><trkpt lat="46.1122328" lon="13.5036181"><ele>150.0</ele><time>2026-05-03T08:10:56.116Z</time></trkpt><trkpt lat="46.1122454" lon="13.5034727"><ele>150.0</ele><time>2026-05-03T08:10:57.119Z</time></trkpt><trkpt lat="46.1122467" lon="13.503348"><ele>150.0</ele><time>2026-05-03T08:10:58.112Z</time></trkpt><trkpt lat="46.1122589" lon="13.5032501"><ele>150.0</ele><time>2026-05-03T08:10:59.105Z</time></trkpt><trkpt lat="46.1123245" lon="13.5031354"><ele>150.0</ele><time>2026-05-03T08:11:01.113Z</time></trkpt><trkpt lat="46.1123864" lon="13.5031148"><ele>150.0</ele><time>2026-05-03T08:11:02.105Z</time></trkpt><trkpt lat="46.1124559" lon="13.5030994"><ele>150.0</ele><time>2026-05-03T08:11:03.108Z</time></trkpt><trkpt lat="46.1125284" lon="13.5030769"><ele>150.0</ele><time>2026-05-03T08:11:04.125Z</time></trkpt><trkpt lat="46.1126132" lon="13.5030452"><ele>150.0</ele><time>2026-05-03T08:11:05.108Z</time></trkpt><trkpt lat="46.1127085" lon="13.502996"><ele>150.0</ele><time>2026-05-03T08:11:06.113Z</time></trkpt><trkpt lat="46.1128016" lon="13.5029266"><ele>150.0</ele><time>2026-05-03T08:11:07.11Z</time></trkpt><trkpt lat="46.112894" lon="13.502832"><ele>154.5</ele><time>2026-05-03T08:11:08.101Z</time></trkpt><trkpt lat="46.112979" lon="13.5027243"><ele>159.0</ele><time>2026-05-03T08:11:09.116Z</time></trkpt><trkpt lat="46.1130663" lon="13.5026159"><ele>163.5</ele><time>2026-05-03T08:11:10.11Z</time></trkpt><trkpt lat="46.1131486" lon="13.5024911"><ele>168.0</ele><time>2026-05-03T08:11:11.104Z</time></trkpt><trkpt lat="46.1132179" lon="13.5023602"><ele>165.25</ele><time>2026-05-03T08:11:12.118Z</time></trkpt><trkpt lat="46.1132757" lon="13.5022181"><ele>162.5</ele><time>2026-05-03T08:11:13.116Z</time></trkpt><trkpt lat="46.1133257" lon="13.5020665"><ele>159.75</ele><time>2026-05-03T08:11:14.116Z</time></trkpt><trkpt lat="46.1133671" lon="13.5019124"><ele>157.0</ele><time>2026-05-03T08:11:15.118Z</time></trkpt><trkpt lat="46.1134171" lon="13.5017619"><ele>157.0</ele><time>2026-05-03T08:11:16.102Z</time></trkpt><trkpt lat="46.1134761" lon="13.5016081"><ele>157.0</ele><time>2026-05-03T08:11:17.109Z</time></trkpt><trkpt lat="46.1135364" lon="13.5014464"><ele>157.0</ele><time>2026-05-03T08:11:18.12Z</time></trkpt><trkpt lat="46.1135994" lon="13.5012862"><ele>157.0</ele><time>2026-05-03T08:11:19.109Z</time></trkpt><trkpt lat="46.1136575" lon="13.5011268"><ele>155.5</ele><time>2026-05-03T08:11:20.109Z</time></trkpt><trkpt lat="46.1137021" lon="13.5009664"><ele>154.0</ele><time>2026-05-03T08:11:21.108Z</time></trkpt><trkpt lat="46.1137388" lon="13.5007967"><ele>152.5</ele><time>2026-05-03T08:11:22.108Z</time></trkpt><trkpt lat="46.1137704" lon="13.5006123"><ele>151.0</ele><time>2026-05-03T08:11:23.119Z</time></trkpt><trkpt lat="46.1137973" lon="13.5004287"><ele>149.25</ele><time>2026-05-03T08:11:24.111Z</time></trkpt><trkpt lat="46.1138217" lon="13.5002289"><ele>147.5</ele><time>2026-05-03T08:11:25.107Z</time></trkpt><trkpt lat="46.1138439" lon="13.5000236"><ele>145.75</ele><time>2026-05-03T08:11:26.106Z</time></trkpt><trkpt lat="46.1138657" lon="13.4998129"><ele>144.0</ele><time>2026-05-03T08:11:27.105Z</time></trkpt><trkpt lat="46.1138873" lon="13.4995921"><ele>143.33333333333334</ele><time>2026-05-03T08:11:28.108Z</time></trkpt><trkpt lat="46.1139113" lon="13.4993652"><ele>142.66666666666669</ele><time>2026-05-03T08:11:29.103Z</time></trkpt><trkpt lat="46.1139355" lon="13.4991319"><ele>142.0</ele><time>2026-05-03T08:11:30.109Z</time></trkpt><trkpt lat="46.1139589" lon="13.4988955"><ele>141.33333333333334</ele><time>2026-05-03T08:11:31.117Z</time></trkpt><trkpt lat="46.1139849" lon="13.4986514"><ele>140.66666666666666</ele><time>2026-05-03T08:11:32.115Z</time></trkpt><trkpt lat="46.1140112" lon="13.4984071"><ele>140.0</ele><time>2026-05-03T08:11:33.115Z</time></trkpt><trkpt lat="46.1140382" lon="13.4981641"><ele>140.0</ele><time>2026-05-03T08:11:34.129Z</time></trkpt><trkpt lat="46.114066" lon="13.4979202"><ele>140.0</ele><time>2026-05-03T08:11:35.108Z</time></trkpt><trkpt lat="46.1140908" lon="13.4976715"><ele>140.0</ele><time>2026-05-03T08:11:36.12Z</time></trkpt><trkpt lat="46.114114" lon="13.4974171"><ele>140.33333333333331</ele><time>2026-05-03T08:11:37.107Z</time></trkpt><trkpt lat="46.1141387" lon="13.4971571"><ele>140.66666666666666</ele><time>2026-05-03T08:11:38.116Z</time></trkpt><trkpt lat="46.1141631" lon="13.496893"><ele>141.0</ele><time>2026-05-03T08:11:39.113Z</time></trkpt><trkpt lat="46.1141916" lon="13.4966305"><ele>141.0</ele><time>2026-05-03T08:11:40.123Z</time></trkpt><trkpt lat="46.1142184" lon="13.4963744"><ele>141.0</ele><time>2026-05-03T08:11:41.102Z</time></trkpt><trkpt lat="46.1142468" lon="13.4961347"><ele>141.0</ele><time>2026-05-03T08:11:42.109Z</time></trkpt><trkpt lat="46.1142728" lon="13.495902"><ele>141.0</ele><time>2026-05-03T08:11:43.111Z</time></trkpt><trkpt lat="46.1142983" lon="13.4956783"><ele>141.0</ele><time>2026-05-03T08:11:44.112Z</time></trkpt><trkpt lat="46.114319" lon="13.4954585"><ele>141.0</ele><time>2026-05-03T08:11:45.11Z</time></trkpt><trkpt lat="46.1143295" lon="13.4952422"><ele>140.5</ele><time>2026-05-03T08:11:46.117Z</time></trkpt><trkpt lat="46.1143307" lon="13.4950281"><ele>140.0</ele><time>2026-05-03T08:11:47.111Z</time></trkpt><trkpt lat="46.1143195" lon="13.4948253"><ele>139.5</ele><time>2026-05-03T08:11:48.112Z</time></trkpt><trkpt lat="46.114308" lon="13.4946299"><ele>139.0</ele><time>2026-05-03T08:11:49.113Z</time></trkpt><trkpt lat="46.1142915" lon="13.4944466"><ele>138.75</ele><time>2026-05-03T08:11:50.121Z</time></trkpt><trkpt lat="46.1142687" lon="13.4942692"><ele>138.5</ele><time>2026-05-03T08:11:51.119Z</time></trkpt><trkpt lat="46.1142331" lon="13.4940862"><ele>138.25</ele><time>2026-05-03T08:11:52.113Z</time></trkpt><trkpt lat="46.1141774" lon="13.4938864"><ele>138.0</ele><time>2026-05-03T08:11:53.109Z</time></trkpt><trkpt lat="46.1141196" lon="13.4936705"><ele>138.0</ele><time>2026-05-03T08:11:54.131Z</time></trkpt><trkpt lat="46.1140596" lon="13.4934489"><ele>138.0</ele><time>2026-05-03T08:11:55.113Z</time></trkpt><trkpt lat="46.1139965" lon="13.4932337"><ele>138.0</ele><time>2026-05-03T08:11:56.113Z</time></trkpt><trkpt lat="46.113932" lon="13.493021"><ele>138.0</ele><time>2026-05-03T08:11:57.108Z</time></trkpt><trkpt lat="46.1138721" lon="13.4928187"><ele>138.0</ele><time>2026-05-03T08:11:58.125Z</time></trkpt><trkpt lat="46.1138178" lon="13.4926098"><ele>138.0</ele><time>2026-05-03T08:11:59.12Z</time></trkpt><trkpt lat="46.1137648" lon="13.4924103"><ele>138.0</ele><time>2026-05-03T08:12:00.116Z</time></trkpt><trkpt lat="46.1137134" lon="13.4922288"><ele>138.0</ele><time>2026-05-03T08:12:01.121Z</time></trkpt><trkpt lat="46.1136738" lon="13.4920855"><ele>138.0</ele><time>2026-05-03T08:12:02.128Z</time></trkpt><trkpt lat="46.113643" lon="13.4919874"><ele>138.0</ele><time>2026-05-03T08:12:03.115Z</time></trkpt><trkpt lat="46.1136066" lon="13.4919106"><ele>138.0</ele><time>2026-05-03T08:12:04.132Z</time></trkpt><trkpt lat="46.1135557" lon="13.4918511"><ele>138.0</ele><time>2026-05-03T08:12:05.135Z</time></trkpt><trkpt lat="46.1134837" lon="13.4918107"><ele>138.0</ele><time>2026-05-03T08:12:06.114Z</time></trkpt><trkpt lat="46.1133972" lon="13.4917848"><ele>138.0</ele><time>2026-05-03T08:12:07.127Z</time></trkpt><trkpt lat="46.1133069" lon="13.491768"><ele>138.0</ele><time>2026-05-03T08:12:08.125Z</time></trkpt><trkpt lat="46.1132252" lon="13.4917533"><ele>138.0</ele><time>2026-05-03T08:12:09.117Z</time></trkpt><trkpt lat="46.1131499" lon="13.4917597"><ele>138.0</ele><time>2026-05-03T08:12:10.123Z</time></trkpt><trkpt lat="46.1130843" lon="13.4917726"><ele>138.0</ele><time>2026-05-03T08:12:11.12Z</time></trkpt><trkpt lat="46.112974" lon="13.4917074"><ele>141.83333333333334</ele><time>2026-05-03T08:12:13.124Z</time></trkpt><trkpt lat="46.1129317" lon="13.4916349"><ele>145.66666666666666</ele><time>2026-05-03T08:12:14.103Z</time></trkpt><trkpt lat="46.1128921" lon="13.4915424"><ele>149.5</ele><time>2026-05-03T08:12:15.122Z</time></trkpt><trkpt lat="46.1128591" lon="13.4914498"><ele>153.33333333333331</ele><time>2026-05-03T08:12:16.116Z</time></trkpt><trkpt lat="46.1128279" lon="13.4913596"><ele>157.16666666666666</ele><time>2026-05-03T08:12:17.112Z</time></trkpt><trkpt lat="46.1127901" lon="13.4912122"><ele>161.0</ele><time>2026-05-03T08:12:19.129Z</time></trkpt><trkpt lat="46.1127803" lon="13.4910404"><ele>162.5</ele><time>2026-05-03T08:12:21.097Z</time></trkpt><trkpt lat="46.1127898" lon="13.4909359"><ele>164.0</ele><time>2026-05-03T08:12:22.116Z</time></trkpt><trkpt lat="46.1128014" lon="13.4908098"><ele>165.5</ele><time>2026-05-03T08:12:23.105Z</time></trkpt><trkpt lat="46.112813" lon="13.4906853"><ele>167.0</ele><time>2026-05-03T08:12:24.097Z</time></trkpt><trkpt lat="46.1128227" lon="13.4905569"><ele>168.5</ele><time>2026-05-03T08:12:25.096Z</time></trkpt><trkpt lat="46.1128341" lon="13.4904339"><ele>170.0</ele><time>2026-05-03T08:12:26.108Z</time></trkpt><trkpt lat="46.1128437" lon="13.4903134"><ele>171.2</ele><time>2026-05-03T08:12:27.098Z</time></trkpt><trkpt lat="46.1128468" lon="13.4901945"><ele>172.4</ele><time>2026-05-03T08:12:28.109Z</time></trkpt><trkpt lat="46.1128526" lon="13.4900718"><ele>173.60000000000002</ele><time>2026-05-03T08:12:29.104Z</time></trkpt><trkpt lat="46.1128749" lon="13.4899424"><ele>174.8</ele><time>2026-05-03T08:12:30.104Z</time></trkpt><trkpt lat="46.1128979" lon="13.4897957"><ele>176.0</ele><time>2026-05-03T08:12:31.102Z</time></trkpt><trkpt lat="46.1129178" lon="13.4896516"><ele>176.60000000000002</ele><time>2026-05-03T08:12:32.094Z</time></trkpt><trkpt lat="46.112933" lon="13.489506"><ele>177.2</ele><time>2026-05-03T08:12:33.113Z</time></trkpt><trkpt lat="46.1129404" lon="13.4893598"><ele>177.8</ele><time>2026-05-03T08:12:34.091Z</time></trkpt><trkpt lat="46.1129413" lon="13.4892191"><ele>178.39999999999998</ele><time>2026-05-03T08:12:35.11Z</time></trkpt><trkpt lat="46.1129309" lon="13.4890826"><ele>179.0</ele><time>2026-05-03T08:12:36.098Z</time></trkpt><trkpt lat="46.112911" lon="13.4889369"><ele>179.0</ele><time>2026-05-03T08:12:37.11Z</time></trkpt><trkpt lat="46.1129009" lon="13.4888089"><ele>179.0</ele><time>2026-05-03T08:12:38.1Z</time></trkpt><trkpt lat="46.1128844" lon="13.4886984"><ele>179.0</ele><time>2026-05-03T08:12:39.102Z</time></trkpt><trkpt lat="46.1128456" lon="13.488611"><ele>179.0</ele><time>2026-05-03T08:12:40.111Z</time></trkpt><trkpt lat="46.1127887" lon="13.4885447"><ele>179.0</ele><time>2026-05-03T08:12:41.117Z</time></trkpt><trkpt lat="46.1127263" lon="13.488468"><ele>179.0</ele><time>2026-05-03T08:12:42.109Z</time></trkpt><trkpt lat="46.1126648" lon="13.4883836"><ele>176.79999999999998</ele><time>2026-05-03T08:12:43.109Z</time></trkpt><trkpt lat="46.1125842" lon="13.4883053"><ele>174.6</ele><time>2026-05-03T08:12:44.109Z</time></trkpt><trkpt lat="46.1125042" lon="13.488223"><ele>172.4</ele><time>2026-05-03T08:12:45.108Z</time></trkpt><trkpt lat="46.1124191" lon="13.4881391"><ele>170.2</ele><time>2026-05-03T08:12:46.111Z</time></trkpt><trkpt lat="46.1123274" lon="13.4880759"><ele>168.0</ele><time>2026-05-03T08:12:47.11Z</time></trkpt><trkpt lat="46.1122301" lon="13.4880245"><ele>170.16666666666666</ele><time>2026-05-03T08:12:48.1Z</time></trkpt><trkpt lat="46.1121349" lon="13.4879809"><ele>172.33333333333334</ele><time>2026-05-03T08:12:49.111Z</time></trkpt><trkpt lat="46.1120457" lon="13.487922"><ele>174.5</ele><time>2026-05-03T08:12:50.103Z</time></trkpt><trkpt lat="46.1119659" lon="13.4878713"><ele>176.66666666666669</ele><time>2026-05-03T08:12:51.106Z</time></trkpt><trkpt lat="46.1118978" lon="13.4878291"><ele>178.83333333333334</ele><time>2026-05-03T08:12:52.1Z</time></trkpt><trkpt lat="46.1118367" lon="13.4877925"><ele>181.0</ele><time>2026-05-03T08:12:53.117Z</time></trkpt><trkpt lat="46.1117774" lon="13.4877367"><ele>181.0</ele><time>2026-05-03T08:12:54.12Z</time></trkpt><trkpt lat="46.1117313" lon="13.4876637"><ele>181.0</ele><time>2026-05-03T08:12:55.109Z</time></trkpt><trkpt lat="46.1116942" lon="13.487579"><ele>181.0</ele><time>2026-05-03T08:12:56.11Z</time></trkpt><trkpt lat="46.1116483" lon="13.4875051"><ele>181.0</ele><time>2026-05-03T08:12:57.108Z</time></trkpt><trkpt lat="46.1115415" lon="13.4874335"><ele>181.0</ele><time>2026-05-03T08:12:59.12Z</time></trkpt><trkpt lat="46.1114726" lon="13.4874165"><ele>181.0</ele><time>2026-05-03T08:13:00.107Z</time></trkpt><trkpt lat="46.111399" lon="13.4873984"><ele>181.0</ele><time>2026-05-03T08:13:01.106Z</time></trkpt><trkpt lat="46.1113158" lon="13.4873469"><ele>181.0</ele><time>2026-05-03T08:13:02.109Z</time></trkpt><trkpt lat="46.111216" lon="13.4872513"><ele>181.0</ele><time>2026-05-03T08:13:03.108Z</time></trkpt><trkpt lat="46.1111017" lon="13.4871494"><ele>181.0</ele><time>2026-05-03T08:13:04.111Z</time></trkpt><trkpt lat="46.1109932" lon="13.4870642"><ele>181.0</ele><time>2026-05-03T08:13:05.111Z</time></trkpt><trkpt lat="46.1108958" lon="13.4869917"><ele>181.0</ele><time>2026-05-03T08:13:06.103Z</time></trkpt><trkpt lat="46.1108087" lon="13.4869218"><ele>181.0</ele><time>2026-05-03T08:13:07.118Z</time></trkpt><trkpt lat="46.1107261" lon="13.4868542"><ele>181.0</ele><time>2026-05-03T08:13:08.121Z</time></trkpt><trkpt lat="46.1106602" lon="13.4867936"><ele>181.0</ele><time>2026-05-03T08:13:09.104Z</time></trkpt><trkpt lat="46.1105982" lon="13.4867196"><ele>184.71428571428572</ele><time>2026-05-03T08:13:10.112Z</time></trkpt><trkpt lat="46.1105458" lon="13.4866321"><ele>188.42857142857142</ele><time>2026-05-03T08:13:11.124Z</time></trkpt><trkpt lat="46.1105005" lon="13.4865459"><ele>192.14285714285717</ele><time>2026-05-03T08:13:12.101Z</time></trkpt><trkpt lat="46.110443" lon="13.4864783"><ele>195.85714285714286</ele><time>2026-05-03T08:13:13.1Z</time></trkpt><trkpt lat="46.1103751" lon="13.4864305"><ele>199.57142857142858</ele><time>2026-05-03T08:13:14.094Z</time></trkpt><trkpt lat="46.1103078" lon="13.4863983"><ele>203.2857142857143</ele><time>2026-05-03T08:13:15.103Z</time></trkpt><trkpt lat="46.1102459" lon="13.4863515"><ele>207.0</ele><time>2026-05-03T08:13:16.096Z</time></trkpt><trkpt lat="46.1101917" lon="13.4862964"><ele>207.0</ele><time>2026-05-03T08:13:17.098Z</time></trkpt><trkpt lat="46.1101395" lon="13.4862254"><ele>207.0</ele><time>2026-05-03T08:13:18.101Z</time></trkpt><trkpt lat="46.1100926" lon="13.4861497"><ele>207.0</ele><time>2026-05-03T08:13:19.095Z</time></trkpt><trkpt lat="46.1100126" lon="13.4861421"><ele>207.0</ele><time>2026-05-03T08:13:21.093Z</time></trkpt><trkpt lat="46.1099911" lon="13.4862898"><ele>207.0</ele><time>2026-05-03T08:13:23.093Z</time></trkpt><trkpt lat="46.1099879" lon="13.4864606"><ele>207.0</ele><time>2026-05-03T08:13:25.094Z</time></trkpt><trkpt lat="46.109984" lon="13.4865649"><ele>207.0</ele><time>2026-05-03T08:13:26.102Z</time></trkpt><trkpt lat="46.1099853" lon="13.4866707"><ele>207.0</ele><time>2026-05-03T08:13:27.098Z</time></trkpt><trkpt lat="46.1099968" lon="13.4867708"><ele>207.0</ele><time>2026-05-03T08:13:28.093Z</time></trkpt><trkpt lat="46.110016" lon="13.4868804"><ele>207.0</ele><time>2026-05-03T08:13:29.107Z</time></trkpt><trkpt lat="46.1100397" lon="13.4869942"><ele>207.0</ele><time>2026-05-03T08:13:30.11Z</time></trkpt><trkpt lat="46.1100661" lon="13.4871211"><ele>207.0</ele><time>2026-05-03T08:13:31.092Z</time></trkpt><trkpt lat="46.1100967" lon="13.4872456"><ele>208.66666666666666</ele><time>2026-05-03T08:13:32.106Z</time></trkpt><trkpt lat="46.1101328" lon="13.4873773"><ele>210.33333333333331</ele><time>2026-05-03T08:13:33.108Z</time></trkpt><trkpt lat="46.1101572" lon="13.487509"><ele>212.0</ele><time>2026-05-03T08:13:34.094Z</time></trkpt><trkpt lat="46.1101797" lon="13.4876341"><ele>213.66666666666666</ele><time>2026-05-03T08:13:35.104Z</time></trkpt><trkpt lat="46.1102021" lon="13.4877418"><ele>215.33333333333331</ele><time>2026-05-03T08:13:36.102Z</time></trkpt><trkpt lat="46.1102404" lon="13.4878189"><ele>217.0</ele><time>2026-05-03T08:13:37.105Z</time></trkpt><trkpt lat="46.1102929" lon="13.4878874"><ele>220.33333333333331</ele><time>2026-05-03T08:13:38.106Z</time></trkpt><trkpt lat="46.1103531" lon="13.4879804"><ele>223.66666666666666</ele><time>2026-05-03T08:13:39.105Z</time></trkpt><trkpt lat="46.1103912" lon="13.4880746"><ele>227.0</ele><time>2026-05-03T08:13:40.099Z</time></trkpt><trkpt lat="46.1104316" lon="13.4881789"><ele>230.33333333333331</ele><time>2026-05-03T08:13:41.105Z</time></trkpt><trkpt lat="46.1104621" lon="13.4882893"><ele>233.66666666666666</ele><time>2026-05-03T08:13:42.101Z</time></trkpt><trkpt lat="46.1104977" lon="13.48841"><ele>237.0</ele><time>2026-05-03T08:13:43.103Z</time></trkpt><trkpt lat="46.110535" lon="13.4885333"><ele>237.0</ele><time>2026-05-03T08:13:44.105Z</time></trkpt><trkpt lat="46.1105867" lon="13.4886623"><ele>237.0</ele><time>2026-05-03T08:13:45.095Z</time></trkpt><trkpt lat="46.1106364" lon="13.4887919"><ele>237.0</ele><time>2026-05-03T08:13:46.097Z</time></trkpt><trkpt lat="46.1106805" lon="13.4889214"><ele>237.0</ele><time>2026-05-03T08:13:47.095Z</time></trkpt><trkpt lat="46.1107196" lon="13.4890355"><ele>237.0</ele><time>2026-05-03T08:13:48.101Z</time></trkpt><trkpt lat="46.11076" lon="13.4891202"><ele>238.6</ele><time>2026-05-03T08:13:49.105Z</time></trkpt><trkpt lat="46.1108543" lon="13.4892416"><ele>240.2</ele><time>2026-05-03T08:13:51.103Z</time></trkpt><trkpt lat="46.110949" lon="13.4893456"><ele>241.8</ele><time>2026-05-03T08:13:53.108Z</time></trkpt><trkpt lat="46.1110096" lon="13.4894686"><ele>243.4</ele><time>2026-05-03T08:13:55.106Z</time></trkpt><trkpt lat="46.1110265" lon="13.4895572"><ele>245.0</ele><time>2026-05-03T08:13:56.106Z</time></trkpt><trkpt lat="46.1110455" lon="13.4896619"><ele>245.0</ele><time>2026-05-03T08:13:57.11Z</time></trkpt><trkpt lat="46.1110661" lon="13.4897554"><ele>245.0</ele><time>2026-05-03T08:13:58.109Z</time></trkpt><trkpt lat="46.1110856" lon="13.4898554"><ele>245.0</ele><time>2026-05-03T08:13:59.112Z</time></trkpt><trkpt lat="46.1111096" lon="13.4899594"><ele>245.0</ele><time>2026-05-03T08:14:00.124Z</time></trkpt><trkpt lat="46.1111454" lon="13.4900611"><ele>245.0</ele><time>2026-05-03T08:14:01.109Z</time></trkpt><trkpt lat="46.1111818" lon="13.4901495"><ele>245.0</ele><time>2026-05-03T08:14:02.119Z</time></trkpt><trkpt lat="46.1112124" lon="13.4902331"><ele>245.0</ele><time>2026-05-03T08:14:03.122Z</time></trkpt><trkpt lat="46.1112222" lon="13.490396"><ele>246.71428571428572</ele><time>2026-05-03T08:14:05.109Z</time></trkpt><trkpt lat="46.1112123" lon="13.4904872"><ele>248.42857142857144</ele><time>2026-05-03T08:14:06.11Z</time></trkpt><trkpt lat="46.111197" lon="13.4905836"><ele>250.14285714285714</ele><time>2026-05-03T08:14:07.125Z</time></trkpt><trkpt lat="46.1111839" lon="13.4906857"><ele>251.85714285714286</ele><time>2026-05-03T08:14:08.116Z</time></trkpt><trkpt lat="46.1111669" lon="13.4907847"><ele>253.57142857142858</ele><time>2026-05-03T08:14:09.107Z</time></trkpt><trkpt lat="46.1111485" lon="13.4908859"><ele>255.28571428571428</ele><time>2026-05-03T08:14:10.107Z</time></trkpt><trkpt lat="46.111127" lon="13.4909834"><ele>257.0</ele><time>2026-05-03T08:14:11.114Z</time></trkpt><trkpt lat="46.1111081" lon="13.491099"><ele>257.0</ele><time>2026-05-03T08:14:12.118Z</time></trkpt><trkpt lat="46.1110877" lon="13.4912239"><ele>257.0</ele><time>2026-05-03T08:14:13.119Z</time></trkpt><trkpt lat="46.1110644" lon="13.4913476"><ele>257.0</ele><time>2026-05-03T08:14:14.114Z</time></trkpt><trkpt lat="46.1110317" lon="13.4914722"><ele>257.0</ele><time>2026-05-03T08:14:15.113Z</time></trkpt><trkpt lat="46.1109879" lon="13.4916059"><ele>257.0</ele><time>2026-05-03T08:14:16.11Z</time></trkpt><trkpt lat="46.110934" lon="13.4917489"><ele>256.6</ele><time>2026-05-03T08:14:17.106Z</time></trkpt><trkpt lat="46.1108783" lon="13.4918953"><ele>256.2</ele><time>2026-05-03T08:14:18.109Z</time></trkpt><trkpt lat="46.1108242" lon="13.4920387"><ele>255.8</ele><time>2026-05-03T08:14:19.109Z</time></trkpt><trkpt lat="46.1107726" lon="13.4921836"><ele>255.4</ele><time>2026-05-03T08:14:20.111Z</time></trkpt><trkpt lat="46.1107256" lon="13.4923132"><ele>255.0</ele><time>2026-05-03T08:14:21.11Z</time></trkpt><trkpt lat="46.1106783" lon="13.4924297"><ele>259.6</ele><time>2026-05-03T08:14:22.109Z</time></trkpt><trkpt lat="46.1106444" lon="13.4925449"><ele>264.2</ele><time>2026-05-03T08:14:23.128Z</time></trkpt><trkpt lat="46.1106084" lon="13.4926799"><ele>268.8</ele><time>2026-05-03T08:14:24.13Z</time></trkpt><trkpt lat="46.1105712" lon="13.4928188"><ele>273.4</ele><time>2026-05-03T08:14:25.122Z</time></trkpt><trkpt lat="46.1105259" lon="13.4929512"><ele>278.0</ele><time>2026-05-03T08:14:26.113Z</time></trkpt><trkpt lat="46.1104989" lon="13.4930672"><ele>278.0</ele><time>2026-05-03T08:14:27.106Z</time></trkpt><trkpt lat="46.110477" lon="13.4931582"><ele>278.0</ele><time>2026-05-03T08:14:28.117Z</time></trkpt><trkpt lat="46.110434" lon="13.4932274"><ele>278.0</ele><time>2026-05-03T08:14:29.125Z</time></trkpt><trkpt lat="46.1103819" lon="13.4932813"><ele>278.0</ele><time>2026-05-03T08:14:30.11Z</time></trkpt><trkpt lat="46.1103187" lon="13.493326"><ele>278.0</ele><time>2026-05-03T08:14:31.104Z</time></trkpt><trkpt lat="46.1102495" lon="13.4933697"><ele>278.0</ele><time>2026-05-03T08:14:32.113Z</time></trkpt><trkpt lat="46.1101768" lon="13.4934098"><ele>278.0</ele><time>2026-05-03T08:14:33.117Z</time></trkpt><trkpt lat="46.110096" lon="13.4934417"><ele>278.0</ele><time>2026-05-03T08:14:34.111Z</time></trkpt><trkpt lat="46.1100101" lon="13.4934697"><ele>278.0</ele><time>2026-05-03T08:14:35.129Z</time></trkpt><trkpt lat="46.1099177" lon="13.4934867"><ele>278.0</ele><time>2026-05-03T08:14:36.12Z</time></trkpt><trkpt lat="46.1098168" lon="13.4934911"><ele>278.0</ele><time>2026-05-03T08:14:37.129Z</time></trkpt><trkpt lat="46.1097129" lon="13.4934922"><ele>278.0</ele><time>2026-05-03T08:14:38.111Z</time></trkpt><trkpt lat="46.1096103" lon="13.4934994"><ele>279.33333333333337</ele><time>2026-05-03T08:14:39.113Z</time></trkpt><trkpt lat="46.109516" lon="13.4935123"><ele>280.6666666666667</ele><time>2026-05-03T08:14:40.117Z</time></trkpt><trkpt lat="46.1094344" lon="13.4935199"><ele>282.0</ele><time>2026-05-03T08:14:41.134Z</time></trkpt><trkpt lat="46.1093515" lon="13.4935288"><ele>283.3333333333333</ele><time>2026-05-03T08:14:42.121Z</time></trkpt><trkpt lat="46.109276" lon="13.4935286"><ele>284.66666666666663</ele><time>2026-05-03T08:14:43.123Z</time></trkpt><trkpt lat="46.1091965" lon="13.4935248"><ele>286.0</ele><time>2026-05-03T08:14:44.115Z</time></trkpt><trkpt lat="46.1091337" lon="13.493513"><ele>286.0</ele><time>2026-05-03T08:14:45.123Z</time></trkpt><trkpt lat="46.1090776" lon="13.4934643"><ele>286.0</ele><time>2026-05-03T08:14:48.133Z</time></trkpt><trkpt lat="46.1091309" lon="13.4934093"><ele>286.0</ele><time>2026-05-03T08:15:03.128Z</time></trkpt><trkpt lat="46.1092156" lon="13.4934025"><ele>286.0</ele><time>2026-05-03T08:15:07.113Z</time></trkpt><trkpt lat="46.109339" lon="13.4933786"><ele>286.0</ele><time>2026-05-03T08:15:09.127Z</time></trkpt><trkpt lat="46.1094119" lon="13.4933513"><ele>286.0</ele><time>2026-05-03T08:15:10.129Z</time></trkpt><trkpt lat="46.1094807" lon="13.4933174"><ele>286.0</ele><time>2026-05-03T08:15:11.137Z</time></trkpt><trkpt lat="46.1095466" lon="13.4932832"><ele>286.0</ele><time>2026-05-03T08:15:12.118Z</time></trkpt><trkpt lat="46.1095993" lon="13.4932272"><ele>286.0</ele><time>2026-05-03T08:15:13.126Z</time></trkpt><trkpt lat="46.1096514" lon="13.4931591"><ele>286.0</ele><time>2026-05-03T08:15:14.124Z</time></trkpt><trkpt lat="46.1097211" lon="13.4930445"><ele>286.0</ele><time>2026-05-03T08:15:15.127Z</time></trkpt><trkpt lat="46.1097869" lon="13.4929239"><ele>286.0</ele><time>2026-05-03T08:15:16.129Z</time></trkpt><trkpt lat="46.1098279" lon="13.4927894"><ele>287.6</ele><time>2026-05-03T08:15:17.12Z</time></trkpt><trkpt lat="46.1098548" lon="13.4926561"><ele>289.20000000000005</ele><time>2026-05-03T08:15:18.121Z</time></trkpt><trkpt lat="46.1098816" lon="13.492517"><ele>290.79999999999995</ele><time>2026-05-03T08:15:19.112Z</time></trkpt><trkpt lat="46.1099005" lon="13.4923794"><ele>292.4</ele><time>2026-05-03T08:15:20.115Z</time></trkpt><trkpt lat="46.1099156" lon="13.4922484"><ele>294.0</ele><time>2026-05-03T08:15:21.108Z</time></trkpt><trkpt lat="46.1099182" lon="13.4921317"><ele>294.3333333333333</ele><time>2026-05-03T08:15:22.115Z</time></trkpt><trkpt lat="46.1099098" lon="13.4920259"><ele>294.6666666666667</ele><time>2026-05-03T08:15:23.114Z</time></trkpt><trkpt lat="46.109894" lon="13.4919138"><ele>295.0</ele><time>2026-05-03T08:15:24.12Z</time></trkpt><trkpt lat="46.1098707" lon="13.49179"><ele>295.33333333333337</ele><time>2026-05-03T08:15:25.128Z</time></trkpt><trkpt lat="46.1098439" lon="13.4916705"><ele>295.6666666666667</ele><time>2026-05-03T08:15:26.134Z</time></trkpt><trkpt lat="46.1098131" lon="13.4915816"><ele>296.0</ele><time>2026-05-03T08:15:27.141Z</time></trkpt><trkpt lat="46.1097205" lon="13.491459"><ele>299.2</ele><time>2026-05-03T08:15:29.128Z</time></trkpt><trkpt lat="46.1095971" lon="13.4913772"><ele>302.40000000000003</ele><time>2026-05-03T08:15:31.133Z</time></trkpt><trkpt lat="46.1095218" lon="13.4913566"><ele>305.6</ele><time>2026-05-03T08:15:32.106Z</time></trkpt><trkpt lat="46.1094405" lon="13.4913186"><ele>308.8</ele><time>2026-05-03T08:15:33.134Z</time></trkpt><trkpt lat="46.1093518" lon="13.4912444"><ele>312.0</ele><time>2026-05-03T08:15:34.126Z</time></trkpt><trkpt lat="46.1092661" lon="13.4911554"><ele>312.2</ele><time>2026-05-03T08:15:35.124Z</time></trkpt><trkpt lat="46.1091928" lon="13.4910733"><ele>312.4</ele><time>2026-05-03T08:15:36.118Z</time></trkpt><trkpt lat="46.1091353" lon="13.4909797"><ele>312.6</ele><time>2026-05-03T08:15:37.121Z</time></trkpt><trkpt lat="46.1090939" lon="13.490865"><ele>312.8</ele><time>2026-05-03T08:15:38.127Z</time></trkpt><trkpt lat="46.109063" lon="13.4907192"><ele>313.0</ele><time>2026-05-03T08:15:39.11Z</time></trkpt><trkpt lat="46.1090435" lon="13.4905481"><ele>316.5</ele><time>2026-05-03T08:15:40.113Z</time></trkpt><trkpt lat="46.1090218" lon="13.4903727"><ele>320.0</ele><time>2026-05-03T08:15:41.112Z</time></trkpt><trkpt lat="46.1090001" lon="13.4901947"><ele>323.5</ele><time>2026-05-03T08:15:42.114Z</time></trkpt><trkpt lat="46.1089883" lon="13.4900309"><ele>327.0</ele><time>2026-05-03T08:15:43.119Z</time></trkpt><trkpt lat="46.1089713" lon="13.4898968"><ele>327.0</ele><time>2026-05-03T08:15:44.131Z</time></trkpt><trkpt lat="46.108948" lon="13.4897778"><ele>327.0</ele><time>2026-05-03T08:15:45.116Z</time></trkpt><trkpt lat="46.1089137" lon="13.489678"><ele>327.0</ele><time>2026-05-03T08:15:46.117Z</time></trkpt><trkpt lat="46.1088659" lon="13.489604"><ele>327.0</ele><time>2026-05-03T08:15:47.114Z</time></trkpt><trkpt lat="46.1088082" lon="13.4895299"><ele>327.0</ele><time>2026-05-03T08:15:48.106Z</time></trkpt><trkpt lat="46.1087285" lon="13.4894596"><ele>327.0</ele><time>2026-05-03T08:15:49.108Z</time></trkpt><trkpt lat="46.1086294" lon="13.4893873"><ele>322.8</ele><time>2026-05-03T08:15:50.105Z</time></trkpt><trkpt lat="46.1085261" lon="13.4893186"><ele>318.6</ele><time>2026-05-03T08:15:51.112Z</time></trkpt><trkpt lat="46.1084268" lon="13.4892517"><ele>314.40000000000003</ele><time>2026-05-03T08:15:52.107Z</time></trkpt><trkpt lat="46.1083389" lon="13.4891895"><ele>310.20000000000005</ele><time>2026-05-03T08:15:53.103Z</time></trkpt><trkpt lat="46.1082637" lon="13.4891314"><ele>306.0</ele><time>2026-05-03T08:15:54.111Z</time></trkpt><trkpt lat="46.1082147" lon="13.4890622"><ele>304.25</ele><time>2026-05-03T08:15:55.111Z</time></trkpt><trkpt lat="46.1081757" lon="13.488887"><ele>302.5</ele><time>2026-05-03T08:15:57.09Z</time></trkpt><trkpt lat="46.1081937" lon="13.4887515"><ele>300.75</ele><time>2026-05-03T08:15:58.094Z</time></trkpt><trkpt lat="46.1082296" lon="13.4885841"><ele>299.0</ele><time>2026-05-03T08:15:59.11Z</time></trkpt><trkpt lat="46.1082644" lon="13.4884123"><ele>299.0</ele><time>2026-05-03T08:16:00.093Z</time></trkpt><trkpt lat="46.1082914" lon="13.4882363"><ele>299.0</ele><time>2026-05-03T08:16:01.099Z</time></trkpt><trkpt lat="46.108305" lon="13.4880598"><ele>299.0</ele><time>2026-05-03T08:16:02.101Z</time></trkpt><trkpt lat="46.108324" lon="13.4878867"><ele>299.0</ele><time>2026-05-03T08:16:03.098Z</time></trkpt><trkpt lat="46.1083377" lon="13.4877169"><ele>299.59999999999997</ele><time>2026-05-03T08:16:04.102Z</time></trkpt><trkpt lat="46.1083509" lon="13.4875681"><ele>300.2</ele><time>2026-05-03T08:16:05.103Z</time></trkpt><trkpt lat="46.1083614" lon="13.4874167"><ele>300.79999999999995</ele><time>2026-05-03T08:16:06.093Z</time></trkpt><trkpt lat="46.1083512" lon="13.487259"><ele>301.4</ele><time>2026-05-03T08:16:07.097Z</time></trkpt><trkpt lat="46.1083217" lon="13.4871036"><ele>302.0</ele><time>2026-05-03T08:16:08.104Z</time></trkpt><trkpt lat="46.1082962" lon="13.4869369"><ele>300.25</ele><time>2026-05-03T08:16:09.096Z</time></trkpt><trkpt lat="46.10827" lon="13.4867617"><ele>298.5</ele><time>2026-05-03T08:16:10.093Z</time></trkpt><trkpt lat="46.1082488" lon="13.4865767"><ele>296.75</ele><time>2026-05-03T08:16:11.096Z</time></trkpt><trkpt lat="46.1082334" lon="13.4863849"><ele>295.0</ele><time>2026-05-03T08:16:12.117Z</time></trkpt><trkpt lat="46.1082186" lon="13.4862162"><ele>300.8333333333333</ele><time>2026-05-03T08:16:13.111Z</time></trkpt><trkpt lat="46.1081997" lon="13.4860784"><ele>306.66666666666663</ele><time>2026-05-03T08:16:14.114Z</time></trkpt><trkpt lat="46.1081813" lon="13.4859528"><ele>312.5</ele><time>2026-05-03T08:16:15.102Z</time></trkpt><trkpt lat="46.108162" lon="13.4858413"><ele>318.3333333333333</ele><time>2026-05-03T08:16:16.113Z</time></trkpt><trkpt lat="46.108128" lon="13.4857375"><ele>324.1666666666667</ele><time>2026-05-03T08:16:17.116Z</time></trkpt><trkpt lat="46.1080974" lon="13.4856106"><ele>330.0</ele><time>2026-05-03T08:16:18.108Z</time></trkpt><trkpt lat="46.1080545" lon="13.4854489"><ele>330.0</ele><time>2026-05-03T08:16:19.112Z</time></trkpt><trkpt lat="46.108004" lon="13.4852766"><ele>330.0</ele><time>2026-05-03T08:16:20.106Z</time></trkpt><trkpt lat="46.1079591" lon="13.4851021"><ele>330.0</ele><time>2026-05-03T08:16:21.1Z</time></trkpt><trkpt lat="46.1079157" lon="13.4849326"><ele>330.0</ele><time>2026-05-03T08:16:22.116Z</time></trkpt><trkpt lat="46.1078722" lon="13.4847807"><ele>330.0</ele><time>2026-05-03T08:16:23.111Z</time></trkpt><trkpt lat="46.1078388" lon="13.4846381"><ele>330.0</ele><time>2026-05-03T08:16:24.105Z</time></trkpt><trkpt lat="46.1078192" lon="13.4845026"><ele>330.0</ele><time>2026-05-03T08:16:25.106Z</time></trkpt><trkpt lat="46.1078105" lon="13.4843513"><ele>330.0</ele><time>2026-05-03T08:16:26.107Z</time></trkpt><trkpt lat="46.107813" lon="13.4841865"><ele>330.0</ele><time>2026-05-03T08:16:27.107Z</time></trkpt><trkpt lat="46.1078236" lon="13.4840274"><ele>331.4</ele><time>2026-05-03T08:16:28.105Z</time></trkpt><trkpt lat="46.1078382" lon="13.483887"><ele>332.8</ele><time>2026-05-03T08:16:29.098Z</time></trkpt><trkpt lat="46.1078716" lon="13.4837589"><ele>334.20000000000005</ele><time>2026-05-03T08:16:30.102Z</time></trkpt><trkpt lat="46.1079242" lon="13.4836247"><ele>335.6</ele><time>2026-05-03T08:16:31.099Z</time></trkpt><trkpt lat="46.1079798" lon="13.4834811"><ele>337.0</ele><time>2026-05-03T08:16:32.103Z</time></trkpt><trkpt lat="46.1080266" lon="13.4833365"><ele>337.0</ele><time>2026-05-03T08:16:33.086Z</time></trkpt><trkpt lat="46.1080575" lon="13.4831919"><ele>337.0</ele><time>2026-05-03T08:16:34.093Z</time></trkpt><trkpt lat="46.1080719" lon="13.4830257"><ele>337.0</ele><time>2026-05-03T08:16:35.095Z</time></trkpt><trkpt lat="46.1080692" lon="13.4828518"><ele>337.0</ele><time>2026-05-03T08:16:36.091Z</time></trkpt><trkpt lat="46.108069" lon="13.4827006"><ele>337.0</ele><time>2026-05-03T08:16:37.093Z</time></trkpt><trkpt lat="46.1080739" lon="13.482583"><ele>337.0</ele><time>2026-05-03T08:16:38.093Z</time></trkpt><trkpt lat="46.1080757" lon="13.482471"><ele>337.0</ele><time>2026-05-03T08:16:39.092Z</time></trkpt><trkpt lat="46.1080658" lon="13.4823635"><ele>337.0</ele><time>2026-05-03T08:16:40.096Z</time></trkpt><trkpt lat="46.1080373" lon="13.4822671"><ele>337.0</ele><time>2026-05-03T08:16:41.094Z</time></trkpt><trkpt lat="46.1079874" lon="13.4821699"><ele>337.0</ele><time>2026-05-03T08:16:42.092Z</time></trkpt><trkpt lat="46.1079229" lon="13.4820582"><ele>337.0</ele><time>2026-05-03T08:16:43.094Z</time></trkpt><trkpt lat="46.1078583" lon="13.4819411"><ele>333.40000000000003</ele><time>2026-05-03T08:16:44.106Z</time></trkpt><trkpt lat="46.1077861" lon="13.4818269"><ele>329.8</ele><time>2026-05-03T08:16:45.119Z</time></trkpt><trkpt lat="46.1077247" lon="13.4817157"><ele>326.2</ele><time>2026-05-03T08:16:46.111Z</time></trkpt><trkpt lat="46.1076725" lon="13.4816118"><ele>322.6</ele><time>2026-05-03T08:16:47.127Z</time></trkpt><trkpt lat="46.1076144" lon="13.4815024"><ele>319.0</ele><time>2026-05-03T08:16:48.109Z</time></trkpt><trkpt lat="46.1075727" lon="13.4813708"><ele>318.4</ele><time>2026-05-03T08:16:49.117Z</time></trkpt><trkpt lat="46.1075421" lon="13.4812309"><ele>317.79999999999995</ele><time>2026-05-03T08:16:50.111Z</time></trkpt><trkpt lat="46.1075092" lon="13.4810907"><ele>317.20000000000005</ele><time>2026-05-03T08:16:51.103Z</time></trkpt><trkpt lat="46.1074794" lon="13.4809318"><ele>316.6</ele><time>2026-05-03T08:16:52.11Z</time></trkpt><trkpt lat="46.1074445" lon="13.4807704"><ele>316.0</ele><time>2026-05-03T08:16:53.104Z</time></trkpt><trkpt lat="46.1074095" lon="13.4806105"><ele>316.0</ele><time>2026-05-03T08:16:54.121Z</time></trkpt><trkpt lat="46.1073779" lon="13.4804552"><ele>316.0</ele><time>2026-05-03T08:16:55.111Z</time></trkpt><trkpt lat="46.1073473" lon="13.4803109"><ele>316.0</ele><time>2026-05-03T08:16:56.113Z</time></trkpt><trkpt lat="46.1073198" lon="13.480197"><ele>316.0</ele><time>2026-05-03T08:16:57.11Z</time></trkpt><trkpt lat="46.1072693" lon="13.4800691"><ele>316.0</ele><time>2026-05-03T08:16:59.117Z</time></trkpt><trkpt lat="46.1072085" lon="13.4799865"><ele>311.3333333333333</ele><time>2026-05-03T08:17:01.107Z</time></trkpt><trkpt lat="46.107141" lon="13.4799589"><ele>306.66666666666663</ele><time>2026-05-03T08:17:03.106Z</time></trkpt><trkpt lat="46.1070355" lon="13.4799551"><ele>302.0</ele><time>2026-05-03T08:17:05.111Z</time></trkpt><trkpt lat="46.1069435" lon="13.4799667"><ele>297.3333333333333</ele><time>2026-05-03T08:17:15.107Z</time></trkpt><trkpt lat="46.1068357" lon="13.479993"><ele>292.6666666666667</ele><time>2026-05-03T08:17:17.111Z</time></trkpt><trkpt lat="46.1067732" lon="13.4800131"><ele>288.0</ele><time>2026-05-03T08:17:18.105Z</time></trkpt><trkpt lat="46.1066972" lon="13.4800273"><ele>288.0</ele><time>2026-05-03T08:17:19.116Z</time></trkpt><trkpt lat="46.1066125" lon="13.4800456"><ele>288.0</ele><time>2026-05-03T08:17:20.111Z</time></trkpt><trkpt lat="46.1065166" lon="13.4800777"><ele>288.0</ele><time>2026-05-03T08:17:21.105Z</time></trkpt><trkpt lat="46.1064197" lon="13.4801253"><ele>288.0</ele><time>2026-05-03T08:17:22.12Z</time></trkpt><trkpt lat="46.106317" lon="13.4802001"><ele>288.0</ele><time>2026-05-03T08:17:23.106Z</time></trkpt><trkpt lat="46.1062147" lon="13.4802907"><ele>290.5</ele><time>2026-05-03T08:17:24.103Z</time></trkpt><trkpt lat="46.1061079" lon="13.4803822"><ele>293.0</ele><time>2026-05-03T08:17:25.105Z</time></trkpt><trkpt lat="46.1059954" lon="13.4804835"><ele>295.5</ele><time>2026-05-03T08:17:26.103Z</time></trkpt><trkpt lat="46.1058776" lon="13.4805885"><ele>298.0</ele><time>2026-05-03T08:17:27.107Z</time></trkpt><trkpt lat="46.1057685" lon="13.480697"><ele>300.2</ele><time>2026-05-03T08:17:28.111Z</time></trkpt><trkpt lat="46.1056743" lon="13.4807981"><ele>302.4</ele><time>2026-05-03T08:17:29.105Z</time></trkpt><trkpt lat="46.1055928" lon="13.4808929"><ele>304.59999999999997</ele><time>2026-05-03T08:17:30.103Z</time></trkpt><trkpt lat="46.1055291" lon="13.4809675"><ele>306.8</ele><time>2026-05-03T08:17:31.105Z</time></trkpt><trkpt lat="46.105432" lon="13.4810537"><ele>309.0</ele><time>2026-05-03T08:17:33.105Z</time></trkpt><trkpt lat="46.1053587" lon="13.4810172"><ele>309.0</ele><time>2026-05-03T08:17:35.101Z</time></trkpt><trkpt lat="46.1053223" lon="13.4808235"><ele>309.0</ele><time>2026-05-03T08:17:37.11Z</time></trkpt><trkpt lat="46.1053294" lon="13.4806924"><ele>309.0</ele><time>2026-05-03T08:17:38.1Z</time></trkpt><trkpt lat="46.1053454" lon="13.4805233"><ele>309.0</ele><time>2026-05-03T08:17:39.094Z</time></trkpt><trkpt lat="46.1053613" lon="13.4803393"><ele>305.4</ele><time>2026-05-03T08:17:40.101Z</time></trkpt><trkpt lat="46.1053674" lon="13.4801617"><ele>301.79999999999995</ele><time>2026-05-03T08:17:41.101Z</time></trkpt><trkpt lat="46.1053651" lon="13.4799895"><ele>298.20000000000005</ele><time>2026-05-03T08:17:42.102Z</time></trkpt><trkpt lat="46.1053544" lon="13.4798376"><ele>294.6</ele><time>2026-05-03T08:17:43.104Z</time></trkpt><trkpt lat="46.1053385" lon="13.4797157"><ele>291.0</ele><time>2026-05-03T08:17:44.115Z</time></trkpt><trkpt lat="46.1053191" lon="13.4796103"><ele>286.8</ele><time>2026-05-03T08:17:45.107Z</time></trkpt><trkpt lat="46.1052943" lon="13.4795191"><ele>282.6</ele><time>2026-05-03T08:17:46.116Z</time></trkpt><trkpt lat="46.105234" lon="13.4794581"><ele>278.4</ele><time>2026-05-03T08:17:47.111Z</time></trkpt><trkpt lat="46.1051568" lon="13.4794124"><ele>274.2</ele><time>2026-05-03T08:17:48.103Z</time></trkpt><trkpt lat="46.1050592" lon="13.479365"><ele>270.0</ele><time>2026-05-03T08:17:49.107Z</time></trkpt><trkpt lat="46.1049378" lon="13.4793156"><ele>270.4</ele><time>2026-05-03T08:17:50.107Z</time></trkpt><trkpt lat="46.1048216" lon="13.4792636"><ele>270.8</ele><time>2026-05-03T08:17:51.119Z</time></trkpt><trkpt lat="46.1047248" lon="13.4792189"><ele>271.2</ele><time>2026-05-03T08:17:52.113Z</time></trkpt><trkpt lat="46.1046514" lon="13.4791788"><ele>271.6</ele><time>2026-05-03T08:17:53.11Z</time></trkpt><trkpt lat="46.1045808" lon="13.4790464"><ele>272.0</ele><time>2026-05-03T08:17:55.107Z</time></trkpt><trkpt lat="46.1045858" lon="13.478934"><ele>269.25</ele><time>2026-05-03T08:17:56.104Z</time></trkpt><trkpt lat="46.1045735" lon="13.478761"><ele>266.5</ele><time>2026-05-03T08:17:57.118Z</time></trkpt><trkpt lat="46.104542" lon="13.4785564"><ele>263.75</ele><time>2026-05-03T08:17:58.103Z</time></trkpt><trkpt lat="46.1044947" lon="13.478343"><ele>261.0</ele><time>2026-05-03T08:17:59.112Z</time></trkpt><trkpt lat="46.1044375" lon="13.4781445"><ele>261.0</ele><time>2026-05-03T08:18:00.104Z</time></trkpt><trkpt lat="46.1043926" lon="13.4779507"><ele>261.0</ele><time>2026-05-03T08:18:01.116Z</time></trkpt><trkpt lat="46.1043583" lon="13.4777793"><ele>261.0</ele><time>2026-05-03T08:18:02.109Z</time></trkpt><trkpt lat="46.104327" lon="13.4776358"><ele>261.0</ele><time>2026-05-03T08:18:03.114Z</time></trkpt><trkpt lat="46.104293" lon="13.4775479"><ele>261.0</ele><time>2026-05-03T08:18:04.109Z</time></trkpt><trkpt lat="46.1041772" lon="13.4774931"><ele>258.5</ele><time>2026-05-03T08:18:06.104Z</time></trkpt><trkpt lat="46.1041106" lon="13.4775104"><ele>256.0</ele><time>2026-05-03T08:18:07.108Z</time></trkpt><trkpt lat="46.103997" lon="13.4775679"><ele>253.5</ele><time>2026-05-03T08:18:09.111Z</time></trkpt><trkpt lat="46.1038845" lon="13.4776337"><ele>251.0</ele><time>2026-05-03T08:18:11.127Z</time></trkpt><trkpt lat="46.1038245" lon="13.4776796"><ele>248.5</ele><time>2026-05-03T08:18:12.112Z</time></trkpt><trkpt lat="46.1037678" lon="13.47774"><ele>246.0</ele><time>2026-05-03T08:18:13.116Z</time></trkpt><trkpt lat="46.1037107" lon="13.4778197"><ele>243.4</ele><time>2026-05-03T08:18:14.111Z</time></trkpt><trkpt lat="46.1036641" lon="13.477925"><ele>240.8</ele><time>2026-05-03T08:18:15.113Z</time></trkpt><trkpt lat="46.1036185" lon="13.4780374"><ele>238.20000000000002</ele><time>2026-05-03T08:18:16.102Z</time></trkpt><trkpt lat="46.103568" lon="13.4781628"><ele>235.60000000000002</ele><time>2026-05-03T08:18:17.107Z</time></trkpt><trkpt lat="46.1035147" lon="13.4783016"><ele>233.0</ele><time>2026-05-03T08:18:18.11Z</time></trkpt><trkpt lat="46.1034576" lon="13.4784476"><ele>233.0</ele><time>2026-05-03T08:18:19.092Z</time></trkpt><trkpt lat="46.1033967" lon="13.4785888"><ele>233.0</ele><time>2026-05-03T08:18:20.104Z</time></trkpt><trkpt lat="46.1033327" lon="13.4787279"><ele>233.0</ele><time>2026-05-03T08:18:21.106Z</time></trkpt><trkpt lat="46.1032764" lon="13.4788877"><ele>233.0</ele><time>2026-05-03T08:18:22.116Z</time></trkpt><trkpt lat="46.1032236" lon="13.4790801"><ele>231.0</ele><time>2026-05-03T08:18:23.111Z</time></trkpt><trkpt lat="46.1031668" lon="13.4792881"><ele>229.0</ele><time>2026-05-03T08:18:24.105Z</time></trkpt><trkpt lat="46.1030986" lon="13.479472"><ele>227.0</ele><time>2026-05-03T08:18:25.117Z</time></trkpt><trkpt lat="46.1030183" lon="13.4796447"><ele>225.0</ele><time>2026-05-03T08:18:26.103Z</time></trkpt><trkpt lat="46.1029195" lon="13.47981"><ele>225.0</ele><time>2026-05-03T08:18:27.118Z</time></trkpt><trkpt lat="46.1028066" lon="13.4799587"><ele>225.0</ele><time>2026-05-03T08:18:28.097Z</time></trkpt><trkpt lat="46.102696" lon="13.4800816"><ele>225.0</ele><time>2026-05-03T08:18:29.118Z</time></trkpt><trkpt lat="46.1025764" lon="13.4801815"><ele>225.0</ele><time>2026-05-03T08:18:30.101Z</time></trkpt><trkpt lat="46.1024481" lon="13.4802695"><ele>220.75</ele><time>2026-05-03T08:18:31.112Z</time></trkpt><trkpt lat="46.1023138" lon="13.4803645"><ele>216.5</ele><time>2026-05-03T08:18:32.103Z</time></trkpt><trkpt lat="46.1021872" lon="13.4804732"><ele>212.25</ele><time>2026-05-03T08:18:33.109Z</time></trkpt><trkpt lat="46.1020796" lon="13.4805975"><ele>208.0</ele><time>2026-05-03T08:18:34.102Z</time></trkpt><trkpt lat="46.1019834" lon="13.4807377"><ele>208.0</ele><time>2026-05-03T08:18:35.114Z</time></trkpt><trkpt lat="46.1018976" lon="13.4808922"><ele>208.0</ele><time>2026-05-03T08:18:36.096Z</time></trkpt><trkpt lat="46.1018228" lon="13.4810566"><ele>208.0</ele><time>2026-05-03T08:18:37.108Z</time></trkpt><trkpt lat="46.1017535" lon="13.4812247"><ele>208.0</ele><time>2026-05-03T08:18:38.106Z</time></trkpt><trkpt lat="46.1017073" lon="13.4813875"><ele>207.83333333333331</ele><time>2026-05-03T08:18:39.1Z</time></trkpt><trkpt lat="46.1016741" lon="13.4815075"><ele>207.66666666666666</ele><time>2026-05-03T08:18:40.109Z</time></trkpt><trkpt lat="46.101639" lon="13.481585"><ele>207.5</ele><time>2026-05-03T08:18:41.101Z</time></trkpt><trkpt lat="46.1015701" lon="13.4816079"><ele>207.33333333333331</ele><time>2026-05-03T08:18:42.101Z</time></trkpt><trkpt lat="46.1014889" lon="13.4815692"><ele>207.16666666666666</ele><time>2026-05-03T08:18:43.114Z</time></trkpt><trkpt lat="46.1013986" lon="13.4815207"><ele>207.0</ele><time>2026-05-03T08:18:44.101Z</time></trkpt><trkpt lat="46.1013177" lon="13.4815244"><ele>207.0</ele><time>2026-05-03T08:18:45.114Z</time></trkpt><trkpt lat="46.1012493" lon="13.4816059"><ele>207.0</ele><time>2026-05-03T08:18:46.086Z</time></trkpt><trkpt lat="46.1011804" lon="13.4817061"><ele>207.0</ele><time>2026-05-03T08:18:47.097Z</time></trkpt><trkpt lat="46.1011025" lon="13.4817862"><ele>207.0</ele><time>2026-05-03T08:18:48.095Z</time></trkpt><trkpt lat="46.1010103" lon="13.481832"><ele>207.0</ele><time>2026-05-03T08:18:49.101Z</time></trkpt><trkpt lat="46.1009144" lon="13.4818402"><ele>207.0</ele><time>2026-05-03T08:18:50.099Z</time></trkpt><trkpt lat="46.1008239" lon="13.4818153"><ele>207.0</ele><time>2026-05-03T08:18:51.093Z</time></trkpt><trkpt lat="46.1007309" lon="13.4817595"><ele>207.0</ele><time>2026-05-03T08:18:52.093Z</time></trkpt><trkpt lat="46.1006251" lon="13.4816791"><ele>207.0</ele><time>2026-05-03T08:18:53.1Z</time></trkpt><trkpt lat="46.100524" lon="13.4815919"><ele>207.0</ele><time>2026-05-03T08:18:54.094Z</time></trkpt><trkpt lat="46.100427" lon="13.4814847"><ele>205.5</ele><time>2026-05-03T08:18:55.115Z</time></trkpt><trkpt lat="46.1003441" lon="13.4813437"><ele>204.0</ele><time>2026-05-03T08:18:56.104Z</time></trkpt><trkpt lat="46.1002677" lon="13.4811963"><ele>202.5</ele><time>2026-05-03T08:18:57.106Z</time></trkpt><trkpt lat="46.1001907" lon="13.4810803"><ele>201.0</ele><time>2026-05-03T08:18:58.106Z</time></trkpt><trkpt lat="46.100115" lon="13.4810013"><ele>197.0</ele><time>2026-05-03T08:18:59.101Z</time></trkpt><trkpt lat="46.1000361" lon="13.480974"><ele>193.0</ele><time>2026-05-03T08:19:00.114Z</time></trkpt><trkpt lat="46.0999383" lon="13.4810255"><ele>189.0</ele><time>2026-05-03T08:19:01.097Z</time></trkpt><trkpt lat="46.0998538" lon="13.4811439"><ele>185.0</ele><time>2026-05-03T08:19:02.109Z</time></trkpt><trkpt lat="46.099786" lon="13.4812743"><ele>181.0</ele><time>2026-05-03T08:19:03.108Z</time></trkpt><trkpt lat="46.0997321" lon="13.4813731"><ele>180.0</ele><time>2026-05-03T08:19:04.103Z</time></trkpt><trkpt lat="46.0996689" lon="13.4814205"><ele>179.0</ele><time>2026-05-03T08:19:05.115Z</time></trkpt><trkpt lat="46.0995977" lon="13.481431"><ele>178.0</ele><time>2026-05-03T08:19:06.108Z</time></trkpt><trkpt lat="46.0995253" lon="13.4813656"><ele>177.0</ele><time>2026-05-03T08:19:08.103Z</time></trkpt><trkpt lat="46.0995376" lon="13.481264"><ele>176.0</ele><time>2026-05-03T08:19:09.111Z</time></trkpt><trkpt lat="46.0995905" lon="13.4811738"><ele>175.0</ele><time>2026-05-03T08:19:10.102Z</time></trkpt><trkpt lat="46.0996699" lon="13.4810781"><ele>174.0</ele><time>2026-05-03T08:19:11.105Z</time></trkpt><trkpt lat="46.0997468" lon="13.4809693"><ele>173.0</ele><time>2026-05-03T08:19:12.092Z</time></trkpt><trkpt lat="46.0998016" lon="13.4808325"><ele>172.0</ele><time>2026-05-03T08:19:13.111Z</time></trkpt><trkpt lat="46.0998529" lon="13.4806945"><ele>171.0</ele><time>2026-05-03T08:19:14.108Z</time></trkpt><trkpt lat="46.0998934" lon="13.4805808"><ele>170.0</ele><time>2026-05-03T08:19:15.108Z</time></trkpt><trkpt lat="46.0999449" lon="13.4805128"><ele>171.83333333333331</ele><time>2026-05-03T08:19:16.12Z</time></trkpt><trkpt lat="46.1000247" lon="13.4805085"><ele>173.66666666666666</ele><time>2026-05-03T08:19:17.098Z</time></trkpt><trkpt lat="46.1001082" lon="13.480548"><ele>175.5</ele><time>2026-05-03T08:19:18.091Z</time></trkpt><trkpt lat="46.1001795" lon="13.4806309"><ele>177.33333333333334</ele><time>2026-05-03T08:19:19.098Z</time></trkpt><trkpt lat="46.1002361" lon="13.4807274"><ele>179.16666666666669</ele><time>2026-05-03T08:19:20.097Z</time></trkpt><trkpt lat="46.1002961" lon="13.4808261"><ele>181.0</ele><time>2026-05-03T08:19:21.098Z</time></trkpt><trkpt lat="46.1003701" lon="13.4809023"><ele>181.0</ele><time>2026-05-03T08:19:22.105Z</time></trkpt><trkpt lat="46.1004657" lon="13.4809703"><ele>181.0</ele><time>2026-05-03T08:19:23.098Z</time></trkpt><trkpt lat="46.1005739" lon="13.481037"><ele>181.0</ele><time>2026-05-03T08:19:24.092Z</time></trkpt><trkpt lat="46.100649" lon="13.4810662"><ele>181.0</ele><time>2026-05-03T08:19:25.091Z</time></trkpt><trkpt lat="46.1007381" lon="13.4809926"><ele>181.0</ele><time>2026-05-03T08:19:27.098Z</time></trkpt><trkpt lat="46.1007683" lon="13.480894"><ele>181.25</ele><time>2026-05-03T08:19:28.094Z</time></trkpt><trkpt lat="46.1007956" lon="13.4807541"><ele>181.5</ele><time>2026-05-03T08:19:29.116Z</time></trkpt><trkpt lat="46.1008308" lon="13.480597"><ele>181.75</ele><time>2026-05-03T08:19:30.09Z</time></trkpt><trkpt lat="46.1008759" lon="13.4804173"><ele>182.0</ele><time>2026-05-03T08:19:31.107Z</time></trkpt><trkpt lat="46.1009207" lon="13.4802419"><ele>177.75</ele><time>2026-05-03T08:19:32.094Z</time></trkpt><trkpt lat="46.1009688" lon="13.4800517"><ele>173.5</ele><time>2026-05-03T08:19:33.098Z</time></trkpt><trkpt lat="46.1010105" lon="13.479858"><ele>169.25</ele><time>2026-05-03T08:19:34.107Z</time></trkpt><trkpt lat="46.101039" lon="13.47967"><ele>165.0</ele><time>2026-05-03T08:19:35.104Z</time></trkpt><trkpt lat="46.1010644" lon="13.4795"><ele>164.16666666666666</ele><time>2026-05-03T08:19:36.099Z</time></trkpt><trkpt lat="46.101103" lon="13.4793641"><ele>163.33333333333334</ele><time>2026-05-03T08:19:37.1Z</time></trkpt><trkpt lat="46.1011491" lon="13.4792705"><ele>162.5</ele><time>2026-05-03T08:19:38.107Z</time></trkpt><trkpt lat="46.1012144" lon="13.4792112"><ele>161.66666666666669</ele><time>2026-05-03T08:19:39.095Z</time></trkpt><trkpt lat="46.1012956" lon="13.4791567"><ele>160.83333333333334</ele><time>2026-05-03T08:19:40.098Z</time></trkpt><trkpt lat="46.1013739" lon="13.479101"><ele>160.0</ele><time>2026-05-03T08:19:41.091Z</time></trkpt><trkpt lat="46.1014608" lon="13.4790392"><ele>160.0</ele><time>2026-05-03T08:19:42.097Z</time></trkpt><trkpt lat="46.1015407" lon="13.4789486"><ele>160.0</ele><time>2026-05-03T08:19:43.093Z</time></trkpt><trkpt lat="46.1016083" lon="13.4788492"><ele>160.0</ele><time>2026-05-03T08:19:44.101Z</time></trkpt><trkpt lat="46.1016601" lon="13.4787458"><ele>160.0</ele><time>2026-05-03T08:19:45.116Z</time></trkpt><trkpt lat="46.1017134" lon="13.4786345"><ele>160.0</ele><time>2026-05-03T08:19:46.111Z</time></trkpt><trkpt lat="46.101751" lon="13.478513"><ele>159.8</ele><time>2026-05-03T08:19:47.103Z</time></trkpt><trkpt lat="46.101776" lon="13.4783679"><ele>159.6</ele><time>2026-05-03T08:19:48.104Z</time></trkpt><trkpt lat="46.1017929" lon="13.4782098"><ele>159.4</ele><time>2026-05-03T08:19:49.105Z</time></trkpt><trkpt lat="46.1018152" lon="13.4780508"><ele>159.2</ele><time>2026-05-03T08:19:50.097Z</time></trkpt><trkpt lat="46.101831" lon="13.4778893"><ele>159.0</ele><time>2026-05-03T08:19:51.114Z</time></trkpt><trkpt lat="46.1018356" lon="13.477718"><ele>159.0</ele><time>2026-05-03T08:19:52.096Z</time></trkpt><trkpt lat="46.1018337" lon="13.477538"><ele>159.0</ele><time>2026-05-03T08:19:53.104Z</time></trkpt><trkpt lat="46.1018363" lon="13.4773596"><ele>159.0</ele><time>2026-05-03T08:19:54.109Z</time></trkpt><trkpt lat="46.1018491" lon="13.4771824"><ele>159.0</ele><time>2026-05-03T08:19:55.1Z</time></trkpt><trkpt lat="46.1018594" lon="13.4770099"><ele>159.0</ele><time>2026-05-03T08:19:56.102Z</time></trkpt><trkpt lat="46.1018613" lon="13.4768465"><ele>159.0</ele><time>2026-05-03T08:19:57.109Z</time></trkpt><trkpt lat="46.1018556" lon="13.4766961"><ele>159.0</ele><time>2026-05-03T08:19:58.1Z</time></trkpt><trkpt lat="46.1018454" lon="13.476539"><ele>159.0</ele><time>2026-05-03T08:19:59.103Z</time></trkpt><trkpt lat="46.1018418" lon="13.476386"><ele>159.0</ele><time>2026-05-03T08:20:00.105Z</time></trkpt><trkpt lat="46.1018541" lon="13.4762418"><ele>159.0</ele><time>2026-05-03T08:20:01.118Z</time></trkpt><trkpt lat="46.1018688" lon="13.4761058"><ele>159.0</ele><time>2026-05-03T08:20:02.121Z</time></trkpt><trkpt lat="46.101868" lon="13.4759686"><ele>159.0</ele><time>2026-05-03T08:20:03.122Z</time></trkpt><trkpt lat="46.1018531" lon="13.4758249"><ele>159.0</ele><time>2026-05-03T08:20:04.108Z</time></trkpt><trkpt lat="46.1018368" lon="13.4756903"><ele>159.0</ele><time>2026-05-03T08:20:05.11Z</time></trkpt><trkpt lat="46.101822" lon="13.4755786"><ele>159.0</ele><time>2026-05-03T08:20:06.108Z</time></trkpt><trkpt lat="46.101813" lon="13.4754759"><ele>159.0</ele><time>2026-05-03T08:20:07.103Z</time></trkpt><trkpt lat="46.1018049" lon="13.4753381"><ele>159.0</ele><time>2026-05-03T08:20:09.111Z</time></trkpt><trkpt lat="46.1017552" lon="13.4752483"><ele>159.0</ele><time>2026-05-03T08:20:11.099Z</time></trkpt><trkpt lat="46.1016461" lon="13.4751505"><ele>159.0</ele><time>2026-05-03T08:20:13.093Z</time></trkpt><trkpt lat="46.1015862" lon="13.475075"><ele>157.5</ele><time>2026-05-03T08:20:14.108Z</time></trkpt><trkpt lat="46.101517" lon="13.4749837"><ele>156.0</ele><time>2026-05-03T08:20:15.111Z</time></trkpt><trkpt lat="46.1014255" lon="13.4748749"><ele>154.5</ele><time>2026-05-03T08:20:16.106Z</time></trkpt><trkpt lat="46.1013114" lon="13.474756"><ele>153.0</ele><time>2026-05-03T08:20:17.104Z</time></trkpt><trkpt lat="46.1011778" lon="13.4746446"><ele>153.25</ele><time>2026-05-03T08:20:18.118Z</time></trkpt><trkpt lat="46.1010438" lon="13.4745431"><ele>153.5</ele><time>2026-05-03T08:20:19.105Z</time></trkpt><trkpt lat="46.100916" lon="13.4744444"><ele>153.75</ele><time>2026-05-03T08:20:20.118Z</time></trkpt><trkpt lat="46.1007965" lon="13.4743619"><ele>154.0</ele><time>2026-05-03T08:20:21.104Z</time></trkpt><trkpt lat="46.1006774" lon="13.4742918"><ele>153.5</ele><time>2026-05-03T08:20:22.107Z</time></trkpt><trkpt lat="46.1005637" lon="13.4742305"><ele>153.0</ele><time>2026-05-03T08:20:23.105Z</time></trkpt><trkpt lat="46.100455" lon="13.4741741"><ele>152.5</ele><time>2026-05-03T08:20:24.12Z</time></trkpt><trkpt lat="46.100355" lon="13.4741306"><ele>152.0</ele><time>2026-05-03T08:20:25.12Z</time></trkpt><trkpt lat="46.1002506" lon="13.4740833"><ele>152.0</ele><time>2026-05-03T08:20:26.11Z</time></trkpt><trkpt lat="46.1001495" lon="13.4740445"><ele>152.0</ele><time>2026-05-03T08:20:27.112Z</time></trkpt><trkpt lat="46.100047" lon="13.4740172"><ele>152.0</ele><time>2026-05-03T08:20:28.106Z</time></trkpt><trkpt lat="46.0999347" lon="13.4739873"><ele>152.0</ele><time>2026-05-03T08:20:29.105Z</time></trkpt><trkpt lat="46.0998083" lon="13.4739398"><ele>151.5</ele><time>2026-05-03T08:20:30.109Z</time></trkpt><trkpt lat="46.0996881" lon="13.4739133"><ele>151.0</ele><time>2026-05-03T08:20:31.096Z</time></trkpt><trkpt lat="46.0995685" lon="13.4738795"><ele>150.5</ele><time>2026-05-03T08:20:32.105Z</time></trkpt><trkpt lat="46.0994612" lon="13.4738359"><ele>150.0</ele><time>2026-05-03T08:20:33.101Z</time></trkpt><trkpt lat="46.0993601" lon="13.4737535"><ele>150.0</ele><time>2026-05-03T08:20:34.115Z</time></trkpt><trkpt lat="46.0992794" lon="13.4736271"><ele>150.0</ele><time>2026-05-03T08:20:35.103Z</time></trkpt><trkpt lat="46.0992232" lon="13.4734541"><ele>150.0</ele><time>2026-05-03T08:20:36.104Z</time></trkpt><trkpt lat="46.0991913" lon="13.473257"><ele>150.0</ele><time>2026-05-03T08:20:37.106Z</time></trkpt><trkpt lat="46.099185" lon="13.4730501"><ele>149.75</ele><time>2026-05-03T08:20:38.108Z</time></trkpt><trkpt lat="46.0991893" lon="13.472834"><ele>149.5</ele><time>2026-05-03T08:20:39.108Z</time></trkpt><trkpt lat="46.0991999" lon="13.4726243"><ele>149.25</ele><time>2026-05-03T08:20:40.106Z</time></trkpt><trkpt lat="46.0992015" lon="13.472424"><ele>149.0</ele><time>2026-05-03T08:20:41.104Z</time></trkpt><trkpt lat="46.099181" lon="13.4722357"><ele>148.33333333333331</ele><time>2026-05-03T08:20:42.108Z</time></trkpt><trkpt lat="46.0991154" lon="13.4720615"><ele>147.66666666666666</ele><time>2026-05-03T08:20:43.112Z</time></trkpt><trkpt lat="46.0990317" lon="13.4718761"><ele>147.0</ele><time>2026-05-03T08:20:44.111Z</time></trkpt><trkpt lat="46.0989409" lon="13.471671"><ele>147.0</ele><time>2026-05-03T08:20:45.116Z</time></trkpt><trkpt lat="46.0988515" lon="13.4714389"><ele>147.0</ele><time>2026-05-03T08:20:46.107Z</time></trkpt><trkpt lat="46.0987703" lon="13.4711988"><ele>147.0</ele><time>2026-05-03T08:20:47.11Z</time></trkpt><trkpt lat="46.0987003" lon="13.4709534"><ele>146.66666666666666</ele><time>2026-05-03T08:20:48.117Z</time></trkpt><trkpt lat="46.0986391" lon="13.4707019"><ele>146.33333333333331</ele><time>2026-05-03T08:20:49.113Z</time></trkpt><trkpt lat="46.0985851" lon="13.47045"><ele>146.0</ele><time>2026-05-03T08:20:50.108Z</time></trkpt><trkpt lat="46.0985328" lon="13.4702048"><ele>146.0</ele><time>2026-05-03T08:20:51.109Z</time></trkpt><trkpt lat="46.0984839" lon="13.4699626"><ele>146.0</ele><time>2026-05-03T08:20:52.105Z</time></trkpt><trkpt lat="46.0984644" lon="13.4697359"><ele>146.0</ele><time>2026-05-03T08:20:53.104Z</time></trkpt><trkpt lat="46.0984821" lon="13.4695161"><ele>145.33333333333331</ele><time>2026-05-03T08:20:54.107Z</time></trkpt><trkpt lat="46.098527" lon="13.469285"><ele>144.66666666666666</ele><time>2026-05-03T08:20:55.107Z</time></trkpt><trkpt lat="46.098587" lon="13.4690494"><ele>144.0</ele><time>2026-05-03T08:20:56.107Z</time></trkpt><trkpt lat="46.0986524" lon="13.4688123"><ele>144.66666666666666</ele><time>2026-05-03T08:20:57.114Z</time></trkpt><trkpt lat="46.0987207" lon="13.4685661"><ele>145.33333333333331</ele><time>2026-05-03T08:20:58.111Z</time></trkpt><trkpt lat="46.0987844" lon="13.4683132"><ele>146.0</ele><time>2026-05-03T08:20:59.119Z</time></trkpt><trkpt lat="46.0988484" lon="13.4680594"><ele>145.33333333333331</ele><time>2026-05-03T08:21:00.109Z</time></trkpt><trkpt lat="46.0989121" lon="13.467805"><ele>144.66666666666666</ele><time>2026-05-03T08:21:01.101Z</time></trkpt><trkpt lat="46.0989752" lon="13.4675549"><ele>144.0</ele><time>2026-05-03T08:21:02.11Z</time></trkpt><trkpt lat="46.0990408" lon="13.4673"><ele>144.33333333333334</ele><time>2026-05-03T08:21:03.11Z</time></trkpt><trkpt lat="46.0991094" lon="13.4670519"><ele>144.66666666666669</ele><time>2026-05-03T08:21:04.124Z</time></trkpt><trkpt lat="46.099176" lon="13.4668009"><ele>145.0</ele><time>2026-05-03T08:21:05.107Z</time></trkpt><trkpt lat="46.0992438" lon="13.4665516"><ele>145.0</ele><time>2026-05-03T08:21:06.109Z</time></trkpt><trkpt lat="46.0993102" lon="13.4663008"><ele>145.0</ele><time>2026-05-03T08:21:07.113Z</time></trkpt><trkpt lat="46.0993767" lon="13.4660515"><ele>145.0</ele><time>2026-05-03T08:21:08.104Z</time></trkpt><trkpt lat="46.0994413" lon="13.4657988"><ele>144.66666666666669</ele><time>2026-05-03T08:21:09.111Z</time></trkpt><trkpt lat="46.0994985" lon="13.4655515"><ele>144.33333333333334</ele><time>2026-05-03T08:21:10.106Z</time></trkpt><trkpt lat="46.0995491" lon="13.4653084"><ele>144.0</ele><time>2026-05-03T08:21:11.108Z</time></trkpt><trkpt lat="46.0995945" lon="13.4650661"><ele>144.0</ele><time>2026-05-03T08:21:12.113Z</time></trkpt><trkpt lat="46.0996391" lon="13.4648251"><ele>144.0</ele><time>2026-05-03T08:21:13.117Z</time></trkpt><trkpt lat="46.0996816" lon="13.4646033"><ele>144.0</ele><time>2026-05-03T08:21:14.109Z</time></trkpt><trkpt lat="46.0997174" lon="13.4643998"><ele>144.2</ele><time>2026-05-03T08:21:15.128Z</time></trkpt><trkpt lat="46.099741" lon="13.4642121"><ele>144.4</ele><time>2026-05-03T08:21:16.118Z</time></trkpt><trkpt lat="46.0997594" lon="13.4640387"><ele>144.6</ele><time>2026-05-03T08:21:17.118Z</time></trkpt><trkpt lat="46.0997763" lon="13.4638991"><ele>144.8</ele><time>2026-05-03T08:21:18.129Z</time></trkpt><trkpt lat="46.0997971" lon="13.4637969"><ele>145.0</ele><time>2026-05-03T08:21:19.111Z</time></trkpt><trkpt lat="46.0998035" lon="13.4636196"><ele>145.5</ele><time>2026-05-03T08:21:21.129Z</time></trkpt><trkpt lat="46.0997767" lon="13.4635058"><ele>146.0</ele><time>2026-05-03T08:21:22.122Z</time></trkpt><trkpt lat="46.099724" lon="13.4633779"><ele>146.5</ele><time>2026-05-03T08:21:23.113Z</time></trkpt><trkpt lat="46.0996551" lon="13.4632307"><ele>147.0</ele><time>2026-05-03T08:21:24.116Z</time></trkpt><trkpt lat="46.0995786" lon="13.4630525"><ele>146.66666666666666</ele><time>2026-05-03T08:21:25.115Z</time></trkpt><trkpt lat="46.0995008" lon="13.4628624"><ele>146.33333333333331</ele><time>2026-05-03T08:21:26.104Z</time></trkpt><trkpt lat="46.0994133" lon="13.4626613"><ele>146.0</ele><time>2026-05-03T08:21:27.119Z</time></trkpt><trkpt lat="46.0993218" lon="13.4624361"><ele>146.0</ele><time>2026-05-03T08:21:28.127Z</time></trkpt><trkpt lat="46.0992309" lon="13.4622131"><ele>146.0</ele><time>2026-05-03T08:21:29.109Z</time></trkpt><trkpt lat="46.0991512" lon="13.4619777"><ele>146.0</ele><time>2026-05-03T08:21:30.108Z</time></trkpt><trkpt lat="46.0990752" lon="13.4617258"><ele>145.66666666666666</ele><time>2026-05-03T08:21:31.109Z</time></trkpt><trkpt lat="46.0990017" lon="13.4614687"><ele>145.33333333333334</ele><time>2026-05-03T08:21:32.121Z</time></trkpt><trkpt lat="46.0989239" lon="13.4612061"><ele>145.0</ele><time>2026-05-03T08:21:33.116Z</time></trkpt><trkpt lat="46.0988461" lon="13.4609474"><ele>144.66666666666669</ele><time>2026-05-03T08:21:34.108Z</time></trkpt><trkpt lat="46.0987686" lon="13.4606815"><ele>144.33333333333334</ele><time>2026-05-03T08:21:35.119Z</time></trkpt><trkpt lat="46.0986874" lon="13.4603989"><ele>144.0</ele><time>2026-05-03T08:21:36.109Z</time></trkpt><trkpt lat="46.0986102" lon="13.4601172"><ele>143.66666666666666</ele><time>2026-05-03T08:21:37.106Z</time></trkpt><trkpt lat="46.0985332" lon="13.4598301"><ele>143.33333333333331</ele><time>2026-05-03T08:21:38.106Z</time></trkpt><trkpt lat="46.0984612" lon="13.4595317"><ele>143.0</ele><time>2026-05-03T08:21:39.111Z</time></trkpt><trkpt lat="46.0983909" lon="13.4592212"><ele>142.5</ele><time>2026-05-03T08:21:40.113Z</time></trkpt><trkpt lat="46.0983197" lon="13.4589094"><ele>142.0</ele><time>2026-05-03T08:21:41.115Z</time></trkpt><trkpt lat="46.0982453" lon="13.458598"><ele>141.0</ele><time>2026-05-03T08:21:42.118Z</time></trkpt><trkpt lat="46.09817" lon="13.4582831"><ele>140.0</ele><time>2026-05-03T08:21:43.109Z</time></trkpt><trkpt lat="46.0980956" lon="13.4579694"><ele>140.0</ele><time>2026-05-03T08:21:44.114Z</time></trkpt><trkpt lat="46.0980186" lon="13.4576516"><ele>140.0</ele><time>2026-05-03T08:21:45.113Z</time></trkpt><trkpt lat="46.0979394" lon="13.4573335"><ele>140.5</ele><time>2026-05-03T08:21:46.111Z</time></trkpt><trkpt lat="46.0978577" lon="13.457021"><ele>141.0</ele><time>2026-05-03T08:21:47.116Z</time></trkpt><trkpt lat="46.0977717" lon="13.4567136"><ele>141.0</ele><time>2026-05-03T08:21:48.111Z</time></trkpt><trkpt lat="46.0976704" lon="13.4564133"><ele>141.0</ele><time>2026-05-03T08:21:49.109Z</time></trkpt><trkpt lat="46.0975632" lon="13.4561214"><ele>141.0</ele><time>2026-05-03T08:21:50.11Z</time></trkpt><trkpt lat="46.0974537" lon="13.4558301"><ele>141.0</ele><time>2026-05-03T08:21:51.112Z</time></trkpt><trkpt lat="46.0973469" lon="13.4555389"><ele>141.5</ele><time>2026-05-03T08:21:52.123Z</time></trkpt><trkpt lat="46.0972411" lon="13.4552501"><ele>142.0</ele><time>2026-05-03T08:21:53.11Z</time></trkpt><trkpt lat="46.0971302" lon="13.4549704"><ele>142.0</ele><time>2026-05-03T08:21:54.114Z</time></trkpt><trkpt lat="46.0970121" lon="13.4546932"><ele>142.0</ele><time>2026-05-03T08:21:55.108Z</time></trkpt><trkpt lat="46.0968876" lon="13.4544188"><ele>141.0</ele><time>2026-05-03T08:21:56.111Z</time></trkpt><trkpt lat="46.0967595" lon="13.454151"><ele>140.0</ele><time>2026-05-03T08:21:57.109Z</time></trkpt><trkpt lat="46.0966306" lon="13.4538856"><ele>140.0</ele><time>2026-05-03T08:21:58.113Z</time></trkpt><trkpt lat="46.0965011" lon="13.4536292"><ele>140.0</ele><time>2026-05-03T08:21:59.118Z</time></trkpt><trkpt lat="46.0963707" lon="13.4533721"><ele>140.0</ele><time>2026-05-03T08:22:00.118Z</time></trkpt><trkpt lat="46.0962337" lon="13.4531286"><ele>140.33333333333331</ele><time>2026-05-03T08:22:01.117Z</time></trkpt><trkpt lat="46.0960922" lon="13.4529001"><ele>140.66666666666666</ele><time>2026-05-03T08:22:02.115Z</time></trkpt><trkpt lat="46.095944" lon="13.4526795"><ele>141.0</ele><time>2026-05-03T08:22:03.123Z</time></trkpt><trkpt lat="46.0958017" lon="13.4524622"><ele>140.33333333333334</ele><time>2026-05-03T08:22:04.12Z</time></trkpt><trkpt lat="46.0956659" lon="13.452239"><ele>139.66666666666669</ele><time>2026-05-03T08:22:05.107Z</time></trkpt><trkpt lat="46.0955357" lon="13.4520125"><ele>139.0</ele><time>2026-05-03T08:22:06.131Z</time></trkpt><trkpt lat="46.0954135" lon="13.451783"><ele>139.0</ele><time>2026-05-03T08:22:07.119Z</time></trkpt><trkpt lat="46.0952859" lon="13.4515695"><ele>139.0</ele><time>2026-05-03T08:22:08.118Z</time></trkpt><trkpt lat="46.0951534" lon="13.4513594"><ele>139.0</ele><time>2026-05-03T08:22:09.121Z</time></trkpt><trkpt lat="46.0950102" lon="13.4511769"><ele>138.33333333333334</ele><time>2026-05-03T08:22:10.119Z</time></trkpt><trkpt lat="46.0948625" lon="13.4509899"><ele>137.66666666666666</ele><time>2026-05-03T08:22:11.107Z</time></trkpt><trkpt lat="46.094712" lon="13.4508075"><ele>137.0</ele><time>2026-05-03T08:22:12.11Z</time></trkpt><trkpt lat="46.0945615" lon="13.4506282"><ele>137.33333333333331</ele><time>2026-05-03T08:22:13.124Z</time></trkpt><trkpt lat="46.0944109" lon="13.4504429"><ele>137.66666666666666</ele><time>2026-05-03T08:22:14.128Z</time></trkpt><trkpt lat="46.0942527" lon="13.4502591"><ele>138.0</ele><time>2026-05-03T08:22:15.113Z</time></trkpt><trkpt lat="46.0940899" lon="13.4500703"><ele>137.0</ele><time>2026-05-03T08:22:16.125Z</time></trkpt><trkpt lat="46.0939324" lon="13.4498809"><ele>136.0</ele><time>2026-05-03T08:22:17.12Z</time></trkpt><trkpt lat="46.0937754" lon="13.4496792"><ele>135.0</ele><time>2026-05-03T08:22:18.112Z</time></trkpt><trkpt lat="46.0936231" lon="13.4494563"><ele>133.66666666666666</ele><time>2026-05-03T08:22:19.102Z</time></trkpt><trkpt lat="46.093492" lon="13.4492086"><ele>132.33333333333331</ele><time>2026-05-03T08:22:20.105Z</time></trkpt><trkpt lat="46.0933652" lon="13.4489449"><ele>131.0</ele><time>2026-05-03T08:22:21.11Z</time></trkpt><trkpt lat="46.0932462" lon="13.4486771"><ele>134.0</ele><time>2026-05-03T08:22:22.109Z</time></trkpt><trkpt lat="46.0931277" lon="13.4484228"><ele>137.0</ele><time>2026-05-03T08:22:23.11Z</time></trkpt><trkpt lat="46.0930081" lon="13.4481713"><ele>140.0</ele><time>2026-05-03T08:22:24.113Z</time></trkpt><trkpt lat="46.0928872" lon="13.4479311"><ele>140.0</ele><time>2026-05-03T08:22:25.111Z</time></trkpt><trkpt lat="46.0927722" lon="13.4477104"><ele>140.0</ele><time>2026-05-03T08:22:26.119Z</time></trkpt><trkpt lat="46.092668" lon="13.4475105"><ele>140.0</ele><time>2026-05-03T08:22:27.109Z</time></trkpt><trkpt lat="46.0925644" lon="13.4473251"><ele>140.0</ele><time>2026-05-03T08:22:28.115Z</time></trkpt><trkpt lat="46.0924736" lon="13.4471536"><ele>140.0</ele><time>2026-05-03T08:22:29.114Z</time></trkpt><trkpt lat="46.092387" lon="13.4470015"><ele>140.0</ele><time>2026-05-03T08:22:30.115Z</time></trkpt><trkpt lat="46.0923061" lon="13.4468765"><ele>140.0</ele><time>2026-05-03T08:22:31.121Z</time></trkpt><trkpt lat="46.0922207" lon="13.4467926"><ele>140.4</ele><time>2026-05-03T08:22:32.107Z</time></trkpt><trkpt lat="46.0921328" lon="13.4467356"><ele>140.8</ele><time>2026-05-03T08:22:33.115Z</time></trkpt><trkpt lat="46.0920536" lon="13.4466847"><ele>141.2</ele><time>2026-05-03T08:22:34.11Z</time></trkpt><trkpt lat="46.0919879" lon="13.4466483"><ele>141.6</ele><time>2026-05-03T08:22:35.106Z</time></trkpt><trkpt lat="46.0918927" lon="13.4466837"><ele>142.0</ele><time>2026-05-03T08:22:37.116Z</time></trkpt><trkpt lat="46.0918743" lon="13.4468444"><ele>142.0</ele><time>2026-05-03T08:22:39.108Z</time></trkpt><trkpt lat="46.0918931" lon="13.4469572"><ele>142.0</ele><time>2026-05-03T08:22:40.118Z</time></trkpt><trkpt lat="46.091934" lon="13.4470933"><ele>142.0</ele><time>2026-05-03T08:22:41.115Z</time></trkpt><trkpt lat="46.091962" lon="13.4472185"><ele>142.0</ele><time>2026-05-03T08:22:42.114Z</time></trkpt><trkpt lat="46.0919909" lon="13.4473197"><ele>142.0</ele><time>2026-05-03T08:22:43.132Z</time></trkpt><trkpt lat="46.0920247" lon="13.4474098"><ele>142.0</ele><time>2026-05-03T08:22:44.115Z</time></trkpt><trkpt lat="46.0920689" lon="13.4475331"><ele>142.0</ele><time>2026-05-03T08:22:46.106Z</time></trkpt><trkpt lat="46.092093" lon="13.4476352"><ele>142.0</ele><time>2026-05-03T08:22:48.11Z</time></trkpt><trkpt lat="46.0920639" lon="13.4474739"><ele>142.0</ele><time>2026-05-03T08:22:52.114Z</time></trkpt><trkpt lat="46.0920199" lon="13.4473755"><ele>142.0</ele><time>2026-05-03T08:22:53.098Z</time></trkpt><trkpt lat="46.0919787" lon="13.4472585"><ele>142.0</ele><time>2026-05-03T08:22:54.109Z</time></trkpt><trkpt lat="46.0919617" lon="13.4471399"><ele>142.0</ele><time>2026-05-03T08:22:55.118Z</time></trkpt><trkpt lat="46.0919435" lon="13.4470428"><ele>142.0</ele><time>2026-05-03T08:22:56.113Z</time></trkpt><trkpt lat="46.0919358" lon="13.4468666"><ele>142.0</ele><time>2026-05-03T08:22:58.116Z</time></trkpt><trkpt lat="46.0919429" lon="13.4467065"><ele>142.0</ele><time>2026-05-03T08:23:00.126Z</time></trkpt><trkpt lat="46.091898" lon="13.4466297"><ele>142.0</ele><time>2026-05-03T08:23:06.128Z</time></trkpt><trkpt lat="46.0917849" lon="13.446631"><ele>142.0</ele><time>2026-05-03T08:23:08.121Z</time></trkpt><trkpt lat="46.0917392" lon="13.4467147"><ele>142.0</ele><time>2026-05-03T08:23:09.101Z</time></trkpt><trkpt lat="46.0917177" lon="13.4468289"><ele>142.0</ele><time>2026-05-03T08:23:10.108Z</time></trkpt><trkpt lat="46.0916857" lon="13.4469536"><ele>142.0</ele><time>2026-05-03T08:23:11.104Z</time></trkpt><trkpt lat="46.0916103" lon="13.4471057"><ele>142.0</ele><time>2026-05-03T08:23:12.108Z</time></trkpt><trkpt lat="46.0915187" lon="13.4472356"><ele>142.0</ele><time>2026-05-03T08:23:13.114Z</time></trkpt><trkpt lat="46.0914187" lon="13.4473692"><ele>142.0</ele><time>2026-05-03T08:23:14.102Z</time></trkpt><trkpt lat="46.0913123" lon="13.4474971"><ele>142.0</ele><time>2026-05-03T08:23:15.11Z</time></trkpt><trkpt lat="46.091205" lon="13.4476411"><ele>142.0</ele><time>2026-05-03T08:23:16.114Z</time></trkpt><trkpt lat="46.0911093" lon="13.4478036"><ele>142.0</ele><time>2026-05-03T08:23:17.121Z</time></trkpt><trkpt lat="46.0910352" lon="13.4479925"><ele>142.0</ele><time>2026-05-03T08:23:18.114Z</time></trkpt><trkpt lat="46.0909544" lon="13.4481918"><ele>142.0</ele><time>2026-05-03T08:23:19.104Z</time></trkpt><trkpt lat="46.0908694" lon="13.4483911"><ele>142.0</ele><time>2026-05-03T08:23:20.12Z</time></trkpt><trkpt lat="46.0907664" lon="13.4485848"><ele>142.0</ele><time>2026-05-03T08:23:21.111Z</time></trkpt><trkpt lat="46.0906459" lon="13.4487755"><ele>142.0</ele><time>2026-05-03T08:23:22.116Z</time></trkpt><trkpt lat="46.0905212" lon="13.4489627"><ele>142.0</ele><time>2026-05-03T08:23:23.111Z</time></trkpt><trkpt lat="46.0903879" lon="13.449143"><ele>142.0</ele><time>2026-05-03T08:23:24.115Z</time></trkpt><trkpt lat="46.0902543" lon="13.4493231"><ele>142.0</ele><time>2026-05-03T08:23:25.1Z</time></trkpt><trkpt lat="46.0901283" lon="13.4495062"><ele>142.0</ele><time>2026-05-03T08:23:26.115Z</time></trkpt><trkpt lat="46.0900056" lon="13.4496756"><ele>141.33333333333334</ele><time>2026-05-03T08:23:27.106Z</time></trkpt><trkpt lat="46.089885" lon="13.4498364"><ele>140.66666666666666</ele><time>2026-05-03T08:23:28.117Z</time></trkpt><trkpt lat="46.0897735" lon="13.4499937"><ele>140.0</ele><time>2026-05-03T08:23:29.101Z</time></trkpt><trkpt lat="46.0896488" lon="13.4501343"><ele>140.0</ele><time>2026-05-03T08:23:30.111Z</time></trkpt><trkpt lat="46.0895062" lon="13.4502556"><ele>140.0</ele><time>2026-05-03T08:23:31.11Z</time></trkpt><trkpt lat="46.0893453" lon="13.4503623"><ele>140.0</ele><time>2026-05-03T08:23:32.107Z</time></trkpt><trkpt lat="46.089187" lon="13.4504694"><ele>140.66666666666666</ele><time>2026-05-03T08:23:33.119Z</time></trkpt><trkpt lat="46.0890339" lon="13.4505699"><ele>141.33333333333334</ele><time>2026-05-03T08:23:34.117Z</time></trkpt><trkpt lat="46.0888931" lon="13.4506716"><ele>142.0</ele><time>2026-05-03T08:23:35.11Z</time></trkpt><trkpt lat="46.0887601" lon="13.45076"><ele>142.0</ele><time>2026-05-03T08:23:36.107Z</time></trkpt><trkpt lat="46.0886433" lon="13.4508553"><ele>142.0</ele><time>2026-05-03T08:23:37.108Z</time></trkpt><trkpt lat="46.0885467" lon="13.4509733"><ele>142.0</ele><time>2026-05-03T08:23:38.118Z</time></trkpt><trkpt lat="46.0884703" lon="13.4510987"><ele>142.0</ele><time>2026-05-03T08:23:39.121Z</time></trkpt><trkpt lat="46.0884055" lon="13.4512092"><ele>142.0</ele><time>2026-05-03T08:23:40.108Z</time></trkpt><trkpt lat="46.0883283" lon="13.4512678"><ele>142.0</ele><time>2026-05-03T08:23:41.117Z</time></trkpt><trkpt lat="46.0882295" lon="13.4512723"><ele>142.0</ele><time>2026-05-03T08:23:42.115Z</time></trkpt><trkpt lat="46.0881115" lon="13.4512543"><ele>142.0</ele><time>2026-05-03T08:23:43.115Z</time></trkpt><trkpt lat="46.0879924" lon="13.4512294"><ele>142.0</ele><time>2026-05-03T08:23:44.11Z</time></trkpt><trkpt lat="46.0878555" lon="13.4512286"><ele>142.0</ele><time>2026-05-03T08:23:45.101Z</time></trkpt><trkpt lat="46.0877105" lon="13.4512609"><ele>142.0</ele><time>2026-05-03T08:23:46.113Z</time></trkpt><trkpt lat="46.0875563" lon="13.4513163"><ele>142.0</ele><time>2026-05-03T08:23:47.112Z</time></trkpt><trkpt lat="46.0873959" lon="13.4513772"><ele>143.66666666666669</ele><time>2026-05-03T08:23:48.11Z</time></trkpt><trkpt lat="46.0872309" lon="13.4514447"><ele>145.33333333333334</ele><time>2026-05-03T08:23:49.112Z</time></trkpt><trkpt lat="46.0870761" lon="13.4515072"><ele>147.0</ele><time>2026-05-03T08:23:50.113Z</time></trkpt><trkpt lat="46.0869357" lon="13.4515803"><ele>147.0</ele><time>2026-05-03T08:23:51.122Z</time></trkpt><trkpt lat="46.0868098" lon="13.4516635"><ele>147.0</ele><time>2026-05-03T08:23:52.116Z</time></trkpt><trkpt lat="46.0866946" lon="13.4517427"><ele>147.0</ele><time>2026-05-03T08:23:53.114Z</time></trkpt><trkpt lat="46.0865904" lon="13.4518168"><ele>147.0</ele><time>2026-05-03T08:23:54.107Z</time></trkpt><trkpt lat="46.0864747" lon="13.4518792"><ele>145.66666666666666</ele><time>2026-05-03T08:23:55.109Z</time></trkpt><trkpt lat="46.0863386" lon="13.4519462"><ele>144.33333333333331</ele><time>2026-05-03T08:23:56.116Z</time></trkpt><trkpt lat="46.0861886" lon="13.4520237"><ele>143.0</ele><time>2026-05-03T08:23:57.1Z</time></trkpt><trkpt lat="46.0860262" lon="13.452109"><ele>142.33333333333331</ele><time>2026-05-03T08:23:58.112Z</time></trkpt><trkpt lat="46.0858597" lon="13.4521938"><ele>141.66666666666666</ele><time>2026-05-03T08:23:59.109Z</time></trkpt><trkpt lat="46.085693" lon="13.4522778"><ele>141.0</ele><time>2026-05-03T08:24:00.116Z</time></trkpt><trkpt lat="46.0855242" lon="13.4523661"><ele>141.0</ele><time>2026-05-03T08:24:01.098Z</time></trkpt><trkpt lat="46.0853529" lon="13.4524554"><ele>141.0</ele><time>2026-05-03T08:24:02.11Z</time></trkpt><trkpt lat="46.0851791" lon="13.4525476"><ele>141.0</ele><time>2026-05-03T08:24:03.114Z</time></trkpt><trkpt lat="46.0850034" lon="13.4526364"><ele>140.33333333333334</ele><time>2026-05-03T08:24:04.115Z</time></trkpt><trkpt lat="46.0848243" lon="13.4527208"><ele>139.66666666666669</ele><time>2026-05-03T08:24:05.109Z</time></trkpt><trkpt lat="46.0846471" lon="13.4528027"><ele>139.0</ele><time>2026-05-03T08:24:06.114Z</time></trkpt><trkpt lat="46.0844741" lon="13.4528809"><ele>139.0</ele><time>2026-05-03T08:24:07.119Z</time></trkpt><trkpt lat="46.0843093" lon="13.4529462"><ele>139.0</ele><time>2026-05-03T08:24:08.121Z</time></trkpt><trkpt lat="46.0841499" lon="13.4529889"><ele>139.0</ele><time>2026-05-03T08:24:09.115Z</time></trkpt><trkpt lat="46.0839869" lon="13.4530118"><ele>140.33333333333334</ele><time>2026-05-03T08:24:10.127Z</time></trkpt><trkpt lat="46.0838134" lon="13.4530237"><ele>141.66666666666666</ele><time>2026-05-03T08:24:11.115Z</time></trkpt><trkpt lat="46.0836382" lon="13.4530494"><ele>143.0</ele><time>2026-05-03T08:24:12.117Z</time></trkpt><trkpt lat="46.083465" lon="13.453098"><ele>143.0</ele><time>2026-05-03T08:24:13.119Z</time></trkpt><trkpt lat="46.0832918" lon="13.4531672"><ele>143.0</ele><time>2026-05-03T08:24:14.101Z</time></trkpt><trkpt lat="46.0831269" lon="13.4532464"><ele>143.0</ele><time>2026-05-03T08:24:15.108Z</time></trkpt><trkpt lat="46.0829641" lon="13.4533243"><ele>144.33333333333331</ele><time>2026-05-03T08:24:16.106Z</time></trkpt><trkpt lat="46.0828025" lon="13.4533905"><ele>145.66666666666666</ele><time>2026-05-03T08:24:17.101Z</time></trkpt><trkpt lat="46.0826576" lon="13.4534355"><ele>147.0</ele><time>2026-05-03T08:24:18.111Z</time></trkpt><trkpt lat="46.0825043" lon="13.4534401"><ele>147.5</ele><time>2026-05-03T08:24:19.108Z</time></trkpt><trkpt lat="46.0823622" lon="13.4533954"><ele>148.0</ele><time>2026-05-03T08:24:20.115Z</time></trkpt><trkpt lat="46.0822169" lon="13.4533066"><ele>148.5</ele><time>2026-05-03T08:24:21.11Z</time></trkpt><trkpt lat="46.0820946" lon="13.4532087"><ele>149.0</ele><time>2026-05-03T08:24:22.102Z</time></trkpt><trkpt lat="46.0819776" lon="13.4531106"><ele>149.0</ele><time>2026-05-03T08:24:23.109Z</time></trkpt><trkpt lat="46.0818627" lon="13.4530099"><ele>149.0</ele><time>2026-05-03T08:24:24.109Z</time></trkpt><trkpt lat="46.0817437" lon="13.4529013"><ele>149.0</ele><time>2026-05-03T08:24:25.12Z</time></trkpt><trkpt lat="46.0816139" lon="13.452808"><ele>149.0</ele><time>2026-05-03T08:24:26.104Z</time></trkpt><trkpt lat="46.0814767" lon="13.4527544"><ele>147.25</ele><time>2026-05-03T08:24:27.112Z</time></trkpt><trkpt lat="46.0813426" lon="13.4527346"><ele>145.5</ele><time>2026-05-03T08:24:28.105Z</time></trkpt><trkpt lat="46.081221" lon="13.4527662"><ele>143.75</ele><time>2026-05-03T08:24:29.106Z</time></trkpt><trkpt lat="46.0811082" lon="13.4528667"><ele>142.0</ele><time>2026-05-03T08:24:30.12Z</time></trkpt><trkpt lat="46.0809905" lon="13.452997"><ele>142.0</ele><time>2026-05-03T08:24:31.121Z</time></trkpt><trkpt lat="46.0808786" lon="13.4531454"><ele>142.0</ele><time>2026-05-03T08:24:32.124Z</time></trkpt><trkpt lat="46.0807631" lon="13.4532863"><ele>142.0</ele><time>2026-05-03T08:24:33.112Z</time></trkpt><trkpt lat="46.0806576" lon="13.4534056"><ele>142.0</ele><time>2026-05-03T08:24:34.099Z</time></trkpt><trkpt lat="46.0805728" lon="13.4535055"><ele>141.5</ele><time>2026-05-03T08:24:35.1Z</time></trkpt><trkpt lat="46.0805014" lon="13.4535671"><ele>141.0</ele><time>2026-05-03T08:24:36.113Z</time></trkpt><trkpt lat="46.080429" lon="13.4535814"><ele>140.5</ele><time>2026-05-03T08:24:37.116Z</time></trkpt><trkpt lat="46.080367" lon="13.4535395"><ele>140.0</ele><time>2026-05-03T08:24:38.107Z</time></trkpt><trkpt lat="46.0803157" lon="13.4534458"><ele>139.5</ele><time>2026-05-03T08:24:39.109Z</time></trkpt><trkpt lat="46.0802852" lon="13.4533027"><ele>139.0</ele><time>2026-05-03T08:24:40.118Z</time></trkpt><trkpt lat="46.0802563" lon="13.453126"><ele>139.0</ele><time>2026-05-03T08:24:41.127Z</time></trkpt><trkpt lat="46.0802225" lon="13.4529251"><ele>139.0</ele><time>2026-05-03T08:24:42.113Z</time></trkpt><trkpt lat="46.0801898" lon="13.452715"><ele>139.0</ele><time>2026-05-03T08:24:43.113Z</time></trkpt><trkpt lat="46.0801598" lon="13.4525007"><ele>139.0</ele><time>2026-05-03T08:24:44.115Z</time></trkpt><trkpt lat="46.0801439" lon="13.4522971"><ele>139.5</ele><time>2026-05-03T08:24:45.106Z</time></trkpt><trkpt lat="46.0801238" lon="13.4521039"><ele>140.0</ele><time>2026-05-03T08:24:46.124Z</time></trkpt><trkpt lat="46.0800694" lon="13.4519235"><ele>140.5</ele><time>2026-05-03T08:24:47.112Z</time></trkpt><trkpt lat="46.0799855" lon="13.4517507"><ele>141.0</ele><time>2026-05-03T08:24:48.108Z</time></trkpt><trkpt lat="46.0798886" lon="13.4516"><ele>142.66666666666666</ele><time>2026-05-03T08:24:49.112Z</time></trkpt><trkpt lat="46.0798099" lon="13.4514755"><ele>144.33333333333334</ele><time>2026-05-03T08:24:50.111Z</time></trkpt><trkpt lat="46.0797528" lon="13.4513795"><ele>146.0</ele><time>2026-05-03T08:24:51.123Z</time></trkpt><trkpt lat="46.079706" lon="13.451303"><ele>147.66666666666669</ele><time>2026-05-03T08:24:52.115Z</time></trkpt><trkpt lat="46.0796414" lon="13.4512436"><ele>149.33333333333334</ele><time>2026-05-03T08:24:54.113Z</time></trkpt><trkpt lat="46.0795615" lon="13.4512874"><ele>151.0</ele><time>2026-05-03T08:24:56.112Z</time></trkpt><trkpt lat="46.07951" lon="13.4513743"><ele>151.0</ele><time>2026-05-03T08:24:57.11Z</time></trkpt><trkpt lat="46.0794523" lon="13.4514771"><ele>151.0</ele><time>2026-05-03T08:24:58.125Z</time></trkpt><trkpt lat="46.0793926" lon="13.4516142"><ele>151.0</ele><time>2026-05-03T08:24:59.13Z</time></trkpt><trkpt lat="46.0793213" lon="13.4517921"><ele>151.0</ele><time>2026-05-03T08:25:00.1Z</time></trkpt><trkpt lat="46.0792438" lon="13.4519703"><ele>149.66666666666669</ele><time>2026-05-03T08:25:01.111Z</time></trkpt><trkpt lat="46.0791637" lon="13.4521635"><ele>148.33333333333334</ele><time>2026-05-03T08:25:02.116Z</time></trkpt><trkpt lat="46.0790752" lon="13.452381"><ele>147.0</ele><time>2026-05-03T08:25:03.116Z</time></trkpt><trkpt lat="46.0789835" lon="13.4525978"><ele>148.33333333333334</ele><time>2026-05-03T08:25:04.111Z</time></trkpt><trkpt lat="46.0788929" lon="13.452794"><ele>149.66666666666669</ele><time>2026-05-03T08:25:05.108Z</time></trkpt><trkpt lat="46.0787971" lon="13.4529813"><ele>151.0</ele><time>2026-05-03T08:25:06.109Z</time></trkpt><trkpt lat="46.0786891" lon="13.4531663"><ele>151.0</ele><time>2026-05-03T08:25:07.116Z</time></trkpt><trkpt lat="46.078572" lon="13.4533469"><ele>151.0</ele><time>2026-05-03T08:25:08.105Z</time></trkpt><trkpt lat="46.0784446" lon="13.453537"><ele>151.0</ele><time>2026-05-03T08:25:09.118Z</time></trkpt><trkpt lat="46.0783128" lon="13.4537287"><ele>155.66666666666669</ele><time>2026-05-03T08:25:10.118Z</time></trkpt><trkpt lat="46.0781806" lon="13.4539283"><ele>160.33333333333334</ele><time>2026-05-03T08:25:11.126Z</time></trkpt><trkpt lat="46.0780454" lon="13.4541353"><ele>165.0</ele><time>2026-05-03T08:25:12.105Z</time></trkpt><trkpt lat="46.0779045" lon="13.4543453"><ele>165.0</ele><time>2026-05-03T08:25:13.109Z</time></trkpt><trkpt lat="46.0777596" lon="13.4545567"><ele>165.0</ele><time>2026-05-03T08:25:14.1Z</time></trkpt><trkpt lat="46.077618" lon="13.454759"><ele>165.0</ele><time>2026-05-03T08:25:15.115Z</time></trkpt><trkpt lat="46.0774848" lon="13.4549332"><ele>161.0</ele><time>2026-05-03T08:25:16.105Z</time></trkpt><trkpt lat="46.0773369" lon="13.4550805"><ele>157.0</ele><time>2026-05-03T08:25:17.109Z</time></trkpt><trkpt lat="46.0771837" lon="13.4552116"><ele>153.0</ele><time>2026-05-03T08:25:18.107Z</time></trkpt><trkpt lat="46.0770212" lon="13.4553295"><ele>153.0</ele><time>2026-05-03T08:25:19.099Z</time></trkpt><trkpt lat="46.0768521" lon="13.4554477"><ele>153.0</ele><time>2026-05-03T08:25:20.108Z</time></trkpt><trkpt lat="46.0766809" lon="13.4555833"><ele>153.0</ele><time>2026-05-03T08:25:21.113Z</time></trkpt><trkpt lat="46.076508" lon="13.4557278"><ele>151.33333333333334</ele><time>2026-05-03T08:25:22.107Z</time></trkpt><trkpt lat="46.0763344" lon="13.4558782"><ele>149.66666666666669</ele><time>2026-05-03T08:25:23.104Z</time></trkpt><trkpt lat="46.0761605" lon="13.4560377"><ele>148.0</ele><time>2026-05-03T08:25:24.102Z</time></trkpt><trkpt lat="46.075983" lon="13.4561965"><ele>146.66666666666669</ele><time>2026-05-03T08:25:25.108Z</time></trkpt><trkpt lat="46.075805" lon="13.4563602"><ele>145.33333333333334</ele><time>2026-05-03T08:25:26.097Z</time></trkpt><trkpt lat="46.0756288" lon="13.4565282"><ele>144.0</ele><time>2026-05-03T08:25:27.106Z</time></trkpt><trkpt lat="46.0754592" lon="13.4567106"><ele>143.33333333333334</ele><time>2026-05-03T08:25:28.102Z</time></trkpt><trkpt lat="46.0752934" lon="13.456918"><ele>142.66666666666669</ele><time>2026-05-03T08:25:29.11Z</time></trkpt><trkpt lat="46.0751254" lon="13.4571217"><ele>142.0</ele><time>2026-05-03T08:25:30.122Z</time></trkpt><trkpt lat="46.0749536" lon="13.4573273"><ele>140.33333333333334</ele><time>2026-05-03T08:25:31.105Z</time></trkpt><trkpt lat="46.074788" lon="13.4575289"><ele>138.66666666666666</ele><time>2026-05-03T08:25:32.1Z</time></trkpt><trkpt lat="46.0746188" lon="13.4577311"><ele>137.0</ele><time>2026-05-03T08:25:33.099Z</time></trkpt><trkpt lat="46.0744488" lon="13.4579303"><ele>137.66666666666666</ele><time>2026-05-03T08:25:34.1Z</time></trkpt><trkpt lat="46.0742798" lon="13.4581325"><ele>138.33333333333334</ele><time>2026-05-03T08:25:35.107Z</time></trkpt><trkpt lat="46.0741116" lon="13.4583359"><ele>139.0</ele><time>2026-05-03T08:25:36.108Z</time></trkpt><trkpt lat="46.0739402" lon="13.4585464"><ele>136.0</ele><time>2026-05-03T08:25:37.105Z</time></trkpt><trkpt lat="46.0737712" lon="13.4587601"><ele>133.0</ele><time>2026-05-03T08:25:38.097Z</time></trkpt><trkpt lat="46.0736001" lon="13.4589761"><ele>133.0</ele><time>2026-05-03T08:25:39.121Z</time></trkpt><trkpt lat="46.0734312" lon="13.4591968"><ele>133.0</ele><time>2026-05-03T08:25:40.1Z</time></trkpt><trkpt lat="46.0732633" lon="13.4594205"><ele>132.0</ele><time>2026-05-03T08:25:41.117Z</time></trkpt><trkpt lat="46.0730963" lon="13.4596492"><ele>131.0</ele><time>2026-05-03T08:25:42.113Z</time></trkpt><trkpt lat="46.0729264" lon="13.4598754"><ele>131.0</ele><time>2026-05-03T08:25:43.112Z</time></trkpt><trkpt lat="46.0727576" lon="13.4601008"><ele>131.0</ele><time>2026-05-03T08:25:44.099Z</time></trkpt><trkpt lat="46.0725943" lon="13.4603235"><ele>131.33333333333331</ele><time>2026-05-03T08:25:45.123Z</time></trkpt><trkpt lat="46.0724322" lon="13.4605385"><ele>131.66666666666666</ele><time>2026-05-03T08:25:46.112Z</time></trkpt><trkpt lat="46.0722742" lon="13.4607492"><ele>132.0</ele><time>2026-05-03T08:25:47.101Z</time></trkpt><trkpt lat="46.0721186" lon="13.4609595"><ele>132.0</ele><time>2026-05-03T08:25:48.099Z</time></trkpt><trkpt lat="46.0719633" lon="13.4611619"><ele>132.0</ele><time>2026-05-03T08:25:49.115Z</time></trkpt><trkpt lat="46.0718123" lon="13.4613653"><ele>132.0</ele><time>2026-05-03T08:25:50.109Z</time></trkpt><trkpt lat="46.0716664" lon="13.4615647"><ele>132.0</ele><time>2026-05-03T08:25:51.116Z</time></trkpt><trkpt lat="46.0715213" lon="13.4617666"><ele>132.0</ele><time>2026-05-03T08:25:52.108Z</time></trkpt><trkpt lat="46.0713804" lon="13.4619571"><ele>132.0</ele><time>2026-05-03T08:25:53.111Z</time></trkpt><trkpt lat="46.0712491" lon="13.4621399"><ele>131.75</ele><time>2026-05-03T08:25:54.104Z</time></trkpt><trkpt lat="46.0711282" lon="13.4623004"><ele>131.5</ele><time>2026-05-03T08:25:55.103Z</time></trkpt><trkpt lat="46.0710198" lon="13.4624449"><ele>131.25</ele><time>2026-05-03T08:25:56.108Z</time></trkpt><trkpt lat="46.0709207" lon="13.4625758"><ele>131.0</ele><time>2026-05-03T08:25:57.126Z</time></trkpt><trkpt lat="46.0708364" lon="13.4627027"><ele>130.5</ele><time>2026-05-03T08:25:58.112Z</time></trkpt><trkpt lat="46.0707715" lon="13.4628395"><ele>130.0</ele><time>2026-05-03T08:25:59.106Z</time></trkpt><trkpt lat="46.070718" lon="13.4629757"><ele>129.5</ele><time>2026-05-03T08:26:00.112Z</time></trkpt><trkpt lat="46.0706593" lon="13.4631377"><ele>129.0</ele><time>2026-05-03T08:26:01.116Z</time></trkpt><trkpt lat="46.0705847" lon="13.4632838"><ele>128.75</ele><time>2026-05-03T08:26:02.126Z</time></trkpt><trkpt lat="46.0705084" lon="13.4634347"><ele>128.5</ele><time>2026-05-03T08:26:03.116Z</time></trkpt><trkpt lat="46.0704455" lon="13.4636006"><ele>128.25</ele><time>2026-05-03T08:26:04.105Z</time></trkpt><trkpt lat="46.0703993" lon="13.4637744"><ele>128.0</ele><time>2026-05-03T08:26:05.108Z</time></trkpt><trkpt lat="46.070382" lon="13.4639687"><ele>128.0</ele><time>2026-05-03T08:26:06.114Z</time></trkpt><trkpt lat="46.0703966" lon="13.4641785"><ele>128.0</ele><time>2026-05-03T08:26:07.113Z</time></trkpt><trkpt lat="46.0704278" lon="13.4643997"><ele>128.0</ele><time>2026-05-03T08:26:08.11Z</time></trkpt><trkpt lat="46.0704613" lon="13.464602"><ele>128.0</ele><time>2026-05-03T08:26:09.129Z</time></trkpt><trkpt lat="46.0704886" lon="13.4647874"><ele>127.60000000000001</ele><time>2026-05-03T08:26:10.108Z</time></trkpt><trkpt lat="46.0705075" lon="13.4649533"><ele>127.20000000000002</ele><time>2026-05-03T08:26:11.127Z</time></trkpt><trkpt lat="46.0705" lon="13.4650941"><ele>126.8</ele><time>2026-05-03T08:26:12.106Z</time></trkpt><trkpt lat="46.0704739" lon="13.4652301"><ele>126.4</ele><time>2026-05-03T08:26:13.106Z</time></trkpt><trkpt lat="46.0704229" lon="13.4653756"><ele>126.0</ele><time>2026-05-03T08:26:14.108Z</time></trkpt><trkpt lat="46.0703642" lon="13.4655463"><ele>125.66666666666666</ele><time>2026-05-03T08:26:15.111Z</time></trkpt><trkpt lat="46.070295" lon="13.46575"><ele>125.33333333333333</ele><time>2026-05-03T08:26:16.123Z</time></trkpt><trkpt lat="46.0702303" lon="13.4659633"><ele>125.0</ele><time>2026-05-03T08:26:17.111Z</time></trkpt><trkpt lat="46.0701605" lon="13.4661808"><ele>125.0</ele><time>2026-05-03T08:26:18.102Z</time></trkpt><trkpt lat="46.0700917" lon="13.46639"><ele>125.0</ele><time>2026-05-03T08:26:19.106Z</time></trkpt><trkpt lat="46.0700324" lon="13.4665778"><ele>125.0</ele><time>2026-05-03T08:26:20.109Z</time></trkpt><trkpt lat="46.0699882" lon="13.4667302"><ele>125.0</ele><time>2026-05-03T08:26:21.108Z</time></trkpt><trkpt lat="46.0699345" lon="13.4668218"><ele>125.0</ele><time>2026-05-03T08:26:22.113Z</time></trkpt><trkpt lat="46.0698642" lon="13.4668559"><ele>125.0</ele><time>2026-05-03T08:26:23.112Z</time></trkpt><trkpt lat="46.0697622" lon="13.4668554"><ele>125.0</ele><time>2026-05-03T08:26:24.111Z</time></trkpt><trkpt lat="46.069648" lon="13.4668258"><ele>125.0</ele><time>2026-05-03T08:26:25.1Z</time></trkpt><trkpt lat="46.0695208" lon="13.4668017"><ele>125.0</ele><time>2026-05-03T08:26:26.107Z</time></trkpt><trkpt lat="46.0693891" lon="13.4667934"><ele>125.0</ele><time>2026-05-03T08:26:27.119Z</time></trkpt><trkpt lat="46.0692558" lon="13.4667799"><ele>125.0</ele><time>2026-05-03T08:26:28.104Z</time></trkpt><trkpt lat="46.069126" lon="13.4667859"><ele>125.0</ele><time>2026-05-03T08:26:29.115Z</time></trkpt><trkpt lat="46.0690014" lon="13.4668196"><ele>125.0</ele><time>2026-05-03T08:26:30.117Z</time></trkpt><trkpt lat="46.0688846" lon="13.4669203"><ele>126.66666666666666</ele><time>2026-05-03T08:26:31.106Z</time></trkpt><trkpt lat="46.0687823" lon="13.4670737"><ele>128.33333333333334</ele><time>2026-05-03T08:26:32.106Z</time></trkpt><trkpt lat="46.0686731" lon="13.4672436"><ele>130.0</ele><time>2026-05-03T08:26:33.105Z</time></trkpt><trkpt lat="46.0685694" lon="13.467439"><ele>130.0</ele><time>2026-05-03T08:26:34.098Z</time></trkpt><trkpt lat="46.0684682" lon="13.4676469"><ele>130.0</ele><time>2026-05-03T08:26:35.109Z</time></trkpt><trkpt lat="46.0683625" lon="13.467859"><ele>130.0</ele><time>2026-05-03T08:26:36.109Z</time></trkpt><trkpt lat="46.0682588" lon="13.4680772"><ele>132.33333333333334</ele><time>2026-05-03T08:26:37.106Z</time></trkpt><trkpt lat="46.0681537" lon="13.4682932"><ele>134.66666666666666</ele><time>2026-05-03T08:26:38.104Z</time></trkpt><trkpt lat="46.0680466" lon="13.4685069"><ele>137.0</ele><time>2026-05-03T08:26:39.109Z</time></trkpt><trkpt lat="46.0679377" lon="13.4687153"><ele>135.66666666666666</ele><time>2026-05-03T08:26:40.105Z</time></trkpt><trkpt lat="46.0678318" lon="13.4689239"><ele>134.33333333333334</ele><time>2026-05-03T08:26:41.099Z</time></trkpt><trkpt lat="46.0677325" lon="13.4691305"><ele>133.0</ele><time>2026-05-03T08:26:42.105Z</time></trkpt><trkpt lat="46.0676449" lon="13.4693317"><ele>133.0</ele><time>2026-05-03T08:26:43.107Z</time></trkpt><trkpt lat="46.0675633" lon="13.4695372"><ele>133.0</ele><time>2026-05-03T08:26:44.1Z</time></trkpt><trkpt lat="46.0674906" lon="13.469757"><ele>133.0</ele><time>2026-05-03T08:26:45.106Z</time></trkpt><trkpt lat="46.0674152" lon="13.4699694"><ele>132.25</ele><time>2026-05-03T08:26:46.105Z</time></trkpt><trkpt lat="46.0673445" lon="13.4701657"><ele>131.5</ele><time>2026-05-03T08:26:47.105Z</time></trkpt><trkpt lat="46.0672741" lon="13.4703388"><ele>130.75</ele><time>2026-05-03T08:26:48.101Z</time></trkpt><trkpt lat="46.0671892" lon="13.4704854"><ele>130.0</ele><time>2026-05-03T08:26:49.104Z</time></trkpt><trkpt lat="46.0670814" lon="13.470621"><ele>130.0</ele><time>2026-05-03T08:26:50.113Z</time></trkpt><trkpt lat="46.0669625" lon="13.4707598"><ele>130.0</ele><time>2026-05-03T08:26:51.103Z</time></trkpt><trkpt lat="46.0668465" lon="13.4709224"><ele>130.0</ele><time>2026-05-03T08:26:52.104Z</time></trkpt><trkpt lat="46.0667349" lon="13.4711173"><ele>127.66666666666667</ele><time>2026-05-03T08:26:53.102Z</time></trkpt><trkpt lat="46.0666308" lon="13.4713218"><ele>125.33333333333334</ele><time>2026-05-03T08:26:54.104Z</time></trkpt><trkpt lat="46.0665316" lon="13.4715348"><ele>123.0</ele><time>2026-05-03T08:26:55.1Z</time></trkpt><trkpt lat="46.0664269" lon="13.4717444"><ele>123.0</ele><time>2026-05-03T08:26:56.116Z</time></trkpt><trkpt lat="46.0663183" lon="13.4719494"><ele>123.0</ele><time>2026-05-03T08:26:57.097Z</time></trkpt><trkpt lat="46.0662102" lon="13.4721518"><ele>123.0</ele><time>2026-05-03T08:26:58.098Z</time></trkpt><trkpt lat="46.0661023" lon="13.4723554"><ele>124.33333333333334</ele><time>2026-05-03T08:26:59.099Z</time></trkpt><trkpt lat="46.0659962" lon="13.4725533"><ele>125.66666666666667</ele><time>2026-05-03T08:27:00.104Z</time></trkpt><trkpt lat="46.0658971" lon="13.472745"><ele>127.0</ele><time>2026-05-03T08:27:01.105Z</time></trkpt><trkpt lat="46.0658047" lon="13.4729269"><ele>126.5</ele><time>2026-05-03T08:27:02.108Z</time></trkpt><trkpt lat="46.0657105" lon="13.4731113"><ele>126.0</ele><time>2026-05-03T08:27:03.116Z</time></trkpt><trkpt lat="46.0656141" lon="13.4732826"><ele>125.5</ele><time>2026-05-03T08:27:04.107Z</time></trkpt><trkpt lat="46.0655225" lon="13.473424"><ele>125.0</ele><time>2026-05-03T08:27:05.104Z</time></trkpt><trkpt lat="46.0654445" lon="13.4735299"><ele>124.99999999999999</ele><time>2026-05-03T08:27:06.098Z</time></trkpt><trkpt lat="46.065381" lon="13.473596"><ele>125.0</ele><time>2026-05-03T08:27:07.107Z</time></trkpt><trkpt lat="46.0652878" lon="13.4736265"><ele>125.0</ele><time>2026-05-03T08:27:09.115Z</time></trkpt><trkpt lat="46.0652104" lon="13.4735472"><ele>125.0</ele><time>2026-05-03T08:27:11.121Z</time></trkpt><trkpt lat="46.0651721" lon="13.4734718"><ele>124.99999999999999</ele><time>2026-05-03T08:27:12.102Z</time></trkpt><trkpt lat="46.0651352" lon="13.4733724"><ele>125.0</ele><time>2026-05-03T08:27:13.108Z</time></trkpt><trkpt lat="46.0651013" lon="13.4732509"><ele>125.0</ele><time>2026-05-03T08:27:14.106Z</time></trkpt><trkpt lat="46.0650579" lon="13.4731157"><ele>125.0</ele><time>2026-05-03T08:27:15.124Z</time></trkpt><trkpt lat="46.0650097" lon="13.4729704"><ele>125.0</ele><time>2026-05-03T08:27:16.101Z</time></trkpt><trkpt lat="46.0649644" lon="13.4728087"><ele>125.0</ele><time>2026-05-03T08:27:17.108Z</time></trkpt><trkpt lat="46.0649306" lon="13.4726358"><ele>124.5</ele><time>2026-05-03T08:27:18.11Z</time></trkpt><trkpt lat="46.0649014" lon="13.4724568"><ele>124.0</ele><time>2026-05-03T08:27:19.11Z</time></trkpt><trkpt lat="46.0648673" lon="13.4722693"><ele>123.5</ele><time>2026-05-03T08:27:20.105Z</time></trkpt><trkpt lat="46.0648358" lon="13.4720801"><ele>123.0</ele><time>2026-05-03T08:27:21.1Z</time></trkpt><trkpt lat="46.0648059" lon="13.471894"><ele>124.25</ele><time>2026-05-03T08:27:22.11Z</time></trkpt><trkpt lat="46.0647815" lon="13.4717071"><ele>125.5</ele><time>2026-05-03T08:27:23.11Z</time></trkpt><trkpt lat="46.0647673" lon="13.4715241"><ele>126.75</ele><time>2026-05-03T08:27:24.112Z</time></trkpt><trkpt lat="46.0647657" lon="13.4713325"><ele>128.0</ele><time>2026-05-03T08:27:25.111Z</time></trkpt><trkpt lat="46.0647716" lon="13.4711342"><ele>128.75</ele><time>2026-05-03T08:27:26.108Z</time></trkpt><trkpt lat="46.0647817" lon="13.4709339"><ele>129.5</ele><time>2026-05-03T08:27:27.107Z</time></trkpt><trkpt lat="46.0647939" lon="13.4707431"><ele>130.25</ele><time>2026-05-03T08:27:28.134Z</time></trkpt><trkpt lat="46.0648081" lon="13.4705656"><ele>131.0</ele><time>2026-05-03T08:27:29.11Z</time></trkpt><trkpt lat="46.0648312" lon="13.4704014"><ele>131.0</ele><time>2026-05-03T08:27:30.127Z</time></trkpt><trkpt lat="46.0648612" lon="13.4702347"><ele>131.0</ele><time>2026-05-03T08:27:31.11Z</time></trkpt><trkpt lat="46.0648905" lon="13.4700674"><ele>131.0</ele><time>2026-05-03T08:27:32.115Z</time></trkpt><trkpt lat="46.0649252" lon="13.4699046"><ele>131.0</ele><time>2026-05-03T08:27:33.118Z</time></trkpt><trkpt lat="46.0649627" lon="13.4697482"><ele>130.2</ele><time>2026-05-03T08:27:34.123Z</time></trkpt><trkpt lat="46.0649953" lon="13.4695973"><ele>129.39999999999998</ele><time>2026-05-03T08:27:35.118Z</time></trkpt><trkpt lat="46.0650017" lon="13.4694652"><ele>128.6</ele><time>2026-05-03T08:27:36.125Z</time></trkpt><trkpt lat="46.0649897" lon="13.4693377"><ele>127.8</ele><time>2026-05-03T08:27:37.122Z</time></trkpt><trkpt lat="46.0649652" lon="13.4692094"><ele>127.0</ele><time>2026-05-03T08:27:38.119Z</time></trkpt><trkpt lat="46.0649312" lon="13.4690671"><ele>126.39999999999999</ele><time>2026-05-03T08:27:39.125Z</time></trkpt><trkpt lat="46.0649004" lon="13.4689152"><ele>125.79999999999998</ele><time>2026-05-03T08:27:40.122Z</time></trkpt><trkpt lat="46.0648659" lon="13.4687852"><ele>125.2</ele><time>2026-05-03T08:27:41.131Z</time></trkpt><trkpt lat="46.0648355" lon="13.4686956"><ele>124.6</ele><time>2026-05-03T08:27:42.12Z</time></trkpt><trkpt lat="46.0647162" lon="13.4685925"><ele>124.0</ele><time>2026-05-03T08:27:44.112Z</time></trkpt><trkpt lat="46.0646225" lon="13.4685916"><ele>124.00000000000001</ele><time>2026-05-03T08:27:45.111Z</time></trkpt><trkpt lat="46.0645287" lon="13.468594"><ele>124.0</ele><time>2026-05-03T08:27:46.108Z</time></trkpt><trkpt lat="46.0644559" lon="13.4685834"><ele>124.0</ele><time>2026-05-03T08:27:47.106Z</time></trkpt><trkpt lat="46.0643983" lon="13.4685303"><ele>124.0</ele><time>2026-05-03T08:27:48.109Z</time></trkpt><trkpt lat="46.0643272" lon="13.4684267"><ele>124.00000000000001</ele><time>2026-05-03T08:27:49.099Z</time></trkpt><trkpt lat="46.0642509" lon="13.4683162"><ele>124.0</ele><time>2026-05-03T08:27:50.105Z</time></trkpt><trkpt lat="46.0641784" lon="13.4682049"><ele>124.00000000000001</ele><time>2026-05-03T08:27:51.113Z</time></trkpt><trkpt lat="46.0641231" lon="13.4680793"><ele>124.0</ele><time>2026-05-03T08:27:52.111Z</time></trkpt><trkpt lat="46.0640832" lon="13.4679615"><ele>124.0</ele><time>2026-05-03T08:27:53.112Z</time></trkpt><trkpt lat="46.0640436" lon="13.4678499"><ele>124.0</ele><time>2026-05-03T08:27:54.112Z</time></trkpt><trkpt lat="46.0639927" lon="13.4677616"><ele>124.00000000000001</ele><time>2026-05-03T08:27:55.133Z</time></trkpt><trkpt lat="46.0639284" lon="13.4676933"><ele>124.0</ele><time>2026-05-03T08:27:56.124Z</time></trkpt><trkpt lat="46.0638524" lon="13.4676171"><ele>123.6</ele><time>2026-05-03T08:27:57.125Z</time></trkpt><trkpt lat="46.0637695" lon="13.467543"><ele>123.2</ele><time>2026-05-03T08:27:58.118Z</time></trkpt><trkpt lat="46.0636867" lon="13.4674848"><ele>122.79999999999998</ele><time>2026-05-03T08:27:59.124Z</time></trkpt><trkpt lat="46.0635823" lon="13.4674278"><ele>122.39999999999999</ele><time>2026-05-03T08:28:00.124Z</time></trkpt><trkpt lat="46.063474" lon="13.4673787"><ele>122.0</ele><time>2026-05-03T08:28:01.117Z</time></trkpt><trkpt lat="46.0633631" lon="13.4673372"><ele>122.19999999999999</ele><time>2026-05-03T08:28:02.114Z</time></trkpt><trkpt lat="46.0632688" lon="13.4672893"><ele>122.39999999999999</ele><time>2026-05-03T08:28:03.114Z</time></trkpt><trkpt lat="46.0631814" lon="13.4672212"><ele>122.60000000000001</ele><time>2026-05-03T08:28:04.123Z</time></trkpt><trkpt lat="46.0630953" lon="13.4671331"><ele>122.80000000000001</ele><time>2026-05-03T08:28:05.122Z</time></trkpt><trkpt lat="46.063006" lon="13.4670311"><ele>123.0</ele><time>2026-05-03T08:28:06.113Z</time></trkpt><trkpt lat="46.0629145" lon="13.4669416"><ele>123.0</ele><time>2026-05-03T08:28:07.119Z</time></trkpt><trkpt lat="46.0628258" lon="13.4668693"><ele>123.00000000000001</ele><time>2026-05-03T08:28:08.116Z</time></trkpt><trkpt lat="46.0627256" lon="13.4668224"><ele>123.00000000000001</ele><time>2026-05-03T08:28:09.121Z</time></trkpt><trkpt lat="46.0626146" lon="13.4667841"><ele>123.0</ele><time>2026-05-03T08:28:10.109Z</time></trkpt><trkpt lat="46.0625022" lon="13.4667406"><ele>123.0</ele><time>2026-05-03T08:28:11.126Z</time></trkpt><trkpt lat="46.0623983" lon="13.4666751"><ele>122.2</ele><time>2026-05-03T08:28:12.116Z</time></trkpt><trkpt lat="46.0623079" lon="13.466594"><ele>121.4</ele><time>2026-05-03T08:28:13.116Z</time></trkpt><trkpt lat="46.0622247" lon="13.466504"><ele>120.60000000000001</ele><time>2026-05-03T08:28:14.12Z</time></trkpt><trkpt lat="46.0621455" lon="13.4664294"><ele>119.80000000000001</ele><time>2026-05-03T08:28:15.125Z</time></trkpt><trkpt lat="46.0620625" lon="13.4663912"><ele>119.0</ele><time>2026-05-03T08:28:16.125Z</time></trkpt><trkpt lat="46.06197" lon="13.4663633"><ele>119.0</ele><time>2026-05-03T08:28:17.119Z</time></trkpt><trkpt lat="46.0618593" lon="13.4663309"><ele>119.0</ele><time>2026-05-03T08:28:18.127Z</time></trkpt><trkpt lat="46.0617498" lon="13.4662944"><ele>119.0</ele><time>2026-05-03T08:28:19.111Z</time></trkpt><trkpt lat="46.0616485" lon="13.4662584"><ele>119.0</ele><time>2026-05-03T08:28:20.109Z</time></trkpt><trkpt lat="46.0615583" lon="13.4662296"><ele>119.0</ele><time>2026-05-03T08:28:21.111Z</time></trkpt><trkpt lat="46.0614772" lon="13.4662178"><ele>118.99999999999999</ele><time>2026-05-03T08:28:22.106Z</time></trkpt><trkpt lat="46.0613999" lon="13.4662125"><ele>119.0</ele><time>2026-05-03T08:28:23.127Z</time></trkpt><trkpt lat="46.0613149" lon="13.4662102"><ele>119.0</ele><time>2026-05-03T08:28:24.128Z</time></trkpt><trkpt lat="46.0612305" lon="13.4662081"><ele>119.0</ele><time>2026-05-03T08:28:25.121Z</time></trkpt><trkpt lat="46.0611521" lon="13.4662018"><ele>118.99999999999999</ele><time>2026-05-03T08:28:26.117Z</time></trkpt><trkpt lat="46.061078" lon="13.4661735"><ele>119.0</ele><time>2026-05-03T08:28:27.118Z</time></trkpt><trkpt lat="46.0610093" lon="13.4661179"><ele>119.0</ele><time>2026-05-03T08:28:28.123Z</time></trkpt><trkpt lat="46.0609436" lon="13.4660379"><ele>119.0</ele><time>2026-05-03T08:28:29.114Z</time></trkpt><trkpt lat="46.060887" lon="13.4659262"><ele>119.0</ele><time>2026-05-03T08:28:30.107Z</time></trkpt><trkpt lat="46.0608312" lon="13.4657925"><ele>119.0</ele><time>2026-05-03T08:28:31.115Z</time></trkpt><trkpt lat="46.0607907" lon="13.4656489"><ele>119.0</ele><time>2026-05-03T08:28:32.134Z</time></trkpt><trkpt lat="46.060758" lon="13.4654962"><ele>118.2</ele><time>2026-05-03T08:28:33.115Z</time></trkpt><trkpt lat="46.0607259" lon="13.4653358"><ele>117.4</ele><time>2026-05-03T08:28:34.113Z</time></trkpt><trkpt lat="46.0606914" lon="13.4651746"><ele>116.6</ele><time>2026-05-03T08:28:35.104Z</time></trkpt><trkpt lat="46.0606477" lon="13.4650307"><ele>115.8</ele><time>2026-05-03T08:28:36.112Z</time></trkpt><trkpt lat="46.0605877" lon="13.4649182"><ele>115.0</ele><time>2026-05-03T08:28:37.113Z</time></trkpt><trkpt lat="46.0605092" lon="13.4648152"><ele>115.0</ele><time>2026-05-03T08:28:38.11Z</time></trkpt><trkpt lat="46.0604122" lon="13.4647122"><ele>115.0</ele><time>2026-05-03T08:28:39.118Z</time></trkpt><trkpt lat="46.0603026" lon="13.4646172"><ele>115.0</ele><time>2026-05-03T08:28:40.111Z</time></trkpt><trkpt lat="46.0602023" lon="13.4645118"><ele>115.0</ele><time>2026-05-03T08:28:41.113Z</time></trkpt><trkpt lat="46.0601175" lon="13.464394"><ele>115.0</ele><time>2026-05-03T08:28:42.107Z</time></trkpt><trkpt lat="46.0600459" lon="13.4642422"><ele>115.0</ele><time>2026-05-03T08:28:43.116Z</time></trkpt><trkpt lat="46.059971" lon="13.4640788"><ele>115.0</ele><time>2026-05-03T08:28:44.122Z</time></trkpt><trkpt lat="46.059894" lon="13.4639118"><ele>115.0</ele><time>2026-05-03T08:28:45.116Z</time></trkpt><trkpt lat="46.0598117" lon="13.4637425"><ele>115.0</ele><time>2026-05-03T08:28:46.126Z</time></trkpt><trkpt lat="46.0597226" lon="13.4635807"><ele>115.0</ele><time>2026-05-03T08:28:47.104Z</time></trkpt><trkpt lat="46.0596311" lon="13.4634195"><ele>115.0</ele><time>2026-05-03T08:28:48.117Z</time></trkpt><trkpt lat="46.0595487" lon="13.4632523"><ele>115.0</ele><time>2026-05-03T08:28:49.116Z</time></trkpt><trkpt lat="46.0594773" lon="13.4630872"><ele>115.0</ele><time>2026-05-03T08:28:50.111Z</time></trkpt><trkpt lat="46.0594133" lon="13.4629518"><ele>115.0</ele><time>2026-05-03T08:28:51.114Z</time></trkpt><trkpt lat="46.0593512" lon="13.4628266"><ele>115.0</ele><time>2026-05-03T08:28:52.112Z</time></trkpt><trkpt lat="46.0592811" lon="13.4627049"><ele>115.0</ele><time>2026-05-03T08:28:53.115Z</time></trkpt><trkpt lat="46.0591992" lon="13.4625986"><ele>115.0</ele><time>2026-05-03T08:28:54.106Z</time></trkpt><trkpt lat="46.0591104" lon="13.4625"><ele>115.0</ele><time>2026-05-03T08:28:55.114Z</time></trkpt><trkpt lat="46.0590256" lon="13.4623904"><ele>115.0</ele><time>2026-05-03T08:28:56.131Z</time></trkpt><trkpt lat="46.0589575" lon="13.4622698"><ele>115.0</ele><time>2026-05-03T08:28:57.132Z</time></trkpt><trkpt lat="46.0588986" lon="13.462114"><ele>115.0</ele><time>2026-05-03T08:28:58.113Z</time></trkpt><trkpt lat="46.0588351" lon="13.4619692"><ele>115.0</ele><time>2026-05-03T08:28:59.102Z</time></trkpt><trkpt lat="46.0587723" lon="13.461844"><ele>115.0</ele><time>2026-05-03T08:29:00.114Z</time></trkpt><trkpt lat="46.0587077" lon="13.4617475"><ele>115.0</ele><time>2026-05-03T08:29:01.117Z</time></trkpt><trkpt lat="46.0586387" lon="13.4616769"><ele>115.0</ele><time>2026-05-03T08:29:02.129Z</time></trkpt><trkpt lat="46.0585499" lon="13.4616205"><ele>115.0</ele><time>2026-05-03T08:29:03.118Z</time></trkpt><trkpt lat="46.0584415" lon="13.4615745"><ele>115.0</ele><time>2026-05-03T08:29:04.132Z</time></trkpt><trkpt lat="46.0583292" lon="13.4615232"><ele>115.0</ele><time>2026-05-03T08:29:05.12Z</time></trkpt><trkpt lat="46.0582053" lon="13.4614562"><ele>115.0</ele><time>2026-05-03T08:29:06.115Z</time></trkpt><trkpt lat="46.0580765" lon="13.4613736"><ele>115.0</ele><time>2026-05-03T08:29:07.113Z</time></trkpt><trkpt lat="46.0579642" lon="13.46129"><ele>114.8</ele><time>2026-05-03T08:29:08.112Z</time></trkpt><trkpt lat="46.0578655" lon="13.4612204"><ele>114.6</ele><time>2026-05-03T08:29:09.124Z</time></trkpt><trkpt lat="46.0577816" lon="13.4611441"><ele>114.4</ele><time>2026-05-03T08:29:10.122Z</time></trkpt><trkpt lat="46.057713" lon="13.4610458"><ele>114.2</ele><time>2026-05-03T08:29:11.121Z</time></trkpt><trkpt lat="46.0576518" lon="13.4609184"><ele>114.0</ele><time>2026-05-03T08:29:12.114Z</time></trkpt><trkpt lat="46.0576052" lon="13.460774"><ele>114.0</ele><time>2026-05-03T08:29:13.116Z</time></trkpt><trkpt lat="46.0575691" lon="13.4606213"><ele>114.0</ele><time>2026-05-03T08:29:14.11Z</time></trkpt><trkpt lat="46.0575357" lon="13.4604805"><ele>114.0</ele><time>2026-05-03T08:29:15.109Z</time></trkpt><trkpt lat="46.0575062" lon="13.4603698"><ele>114.0</ele><time>2026-05-03T08:29:16.112Z</time></trkpt><trkpt lat="46.0575046" lon="13.4601836"><ele>114.0</ele><time>2026-05-03T08:29:18.117Z</time></trkpt><trkpt lat="46.0575305" lon="13.4600588"><ele>114.0</ele><time>2026-05-03T08:29:19.119Z</time></trkpt><trkpt lat="46.0575522" lon="13.4599132"><ele>114.0</ele><time>2026-05-03T08:29:20.111Z</time></trkpt><trkpt lat="46.0575625" lon="13.4597641"><ele>114.0</ele><time>2026-05-03T08:29:21.121Z</time></trkpt><trkpt lat="46.0575517" lon="13.4596112"><ele>114.0</ele><time>2026-05-03T08:29:22.113Z</time></trkpt><trkpt lat="46.0575356" lon="13.4594439"><ele>114.0</ele><time>2026-05-03T08:29:23.101Z</time></trkpt><trkpt lat="46.0575184" lon="13.4592646"><ele>114.0</ele><time>2026-05-03T08:29:24.104Z</time></trkpt><trkpt lat="46.0575152" lon="13.4590783"><ele>114.0</ele><time>2026-05-03T08:29:25.121Z</time></trkpt><trkpt lat="46.0575162" lon="13.4588857"><ele>114.0</ele><time>2026-05-03T08:29:26.105Z</time></trkpt><trkpt lat="46.0575247" lon="13.4587078"><ele>114.0</ele><time>2026-05-03T08:29:27.118Z</time></trkpt><trkpt lat="46.0575313" lon="13.4585399"><ele>114.2</ele><time>2026-05-03T08:29:28.114Z</time></trkpt><trkpt lat="46.057535" lon="13.4583735"><ele>114.4</ele><time>2026-05-03T08:29:29.11Z</time></trkpt><trkpt lat="46.05754" lon="13.4582139"><ele>114.6</ele><time>2026-05-03T08:29:30.128Z</time></trkpt><trkpt lat="46.057544" lon="13.4580725"><ele>114.8</ele><time>2026-05-03T08:29:31.118Z</time></trkpt><trkpt lat="46.0575439" lon="13.4579438"><ele>115.0</ele><time>2026-05-03T08:29:32.13Z</time></trkpt><trkpt lat="46.0575417" lon="13.4578256"><ele>115.4</ele><time>2026-05-03T08:29:33.118Z</time></trkpt><trkpt lat="46.0575406" lon="13.4577209"><ele>115.8</ele><time>2026-05-03T08:29:34.117Z</time></trkpt><trkpt lat="46.0575233" lon="13.4576028"><ele>116.19999999999999</ele><time>2026-05-03T08:29:36.127Z</time></trkpt><trkpt lat="46.0574399" lon="13.4575895"><ele>116.6</ele><time>2026-05-03T08:29:49.109Z</time></trkpt><trkpt lat="46.0573416" lon="13.4577245"><ele>117.0</ele><time>2026-05-03T08:29:51.117Z</time></trkpt><trkpt lat="46.057268" lon="13.4578098"><ele>117.25</ele><time>2026-05-03T08:29:52.114Z</time></trkpt><trkpt lat="46.0571673" lon="13.4578981"><ele>117.5</ele><time>2026-05-03T08:29:53.124Z</time></trkpt><trkpt lat="46.057052" lon="13.4579945"><ele>117.75</ele><time>2026-05-03T08:29:54.119Z</time></trkpt><trkpt lat="46.0569337" lon="13.4580947"><ele>118.0</ele><time>2026-05-03T08:29:55.109Z</time></trkpt><trkpt lat="46.0568106" lon="13.4582016"><ele>117.5</ele><time>2026-05-03T08:29:56.111Z</time></trkpt><trkpt lat="46.0566914" lon="13.4583077"><ele>117.0</ele><time>2026-05-03T08:29:57.108Z</time></trkpt><trkpt lat="46.0565752" lon="13.4584111"><ele>116.5</ele><time>2026-05-03T08:29:58.112Z</time></trkpt><trkpt lat="46.0564711" lon="13.4585004"><ele>116.0</ele><time>2026-05-03T08:29:59.119Z</time></trkpt><trkpt lat="46.0563683" lon="13.4585912"><ele>115.5</ele><time>2026-05-03T08:30:00.104Z</time></trkpt><trkpt lat="46.0562648" lon="13.4586809"><ele>115.0</ele><time>2026-05-03T08:30:01.109Z</time></trkpt><trkpt lat="46.0561629" lon="13.4587746"><ele>114.5</ele><time>2026-05-03T08:30:02.115Z</time></trkpt><trkpt lat="46.0560576" lon="13.4588727"><ele>114.0</ele><time>2026-05-03T08:30:03.11Z</time></trkpt><trkpt lat="46.0559501" lon="13.4589741"><ele>114.0</ele><time>2026-05-03T08:30:04.117Z</time></trkpt><trkpt lat="46.0558419" lon="13.4590756"><ele>114.0</ele><time>2026-05-03T08:30:05.11Z</time></trkpt><trkpt lat="46.0557298" lon="13.459173"><ele>114.0</ele><time>2026-05-03T08:30:06.123Z</time></trkpt><trkpt lat="46.0556137" lon="13.4592762"><ele>114.0</ele><time>2026-05-03T08:30:07.115Z</time></trkpt><trkpt lat="46.0555001" lon="13.4593795"><ele>113.75</ele><time>2026-05-03T08:30:08.12Z</time></trkpt><trkpt lat="46.0553858" lon="13.4594796"><ele>113.5</ele><time>2026-05-03T08:30:09.116Z</time></trkpt><trkpt lat="46.0552752" lon="13.4595773"><ele>113.25</ele><time>2026-05-03T08:30:10.113Z</time></trkpt><trkpt lat="46.0551695" lon="13.4596733"><ele>113.0</ele><time>2026-05-03T08:30:11.11Z</time></trkpt><trkpt lat="46.0550639" lon="13.4597656"><ele>113.0</ele><time>2026-05-03T08:30:12.106Z</time></trkpt><trkpt lat="46.054954" lon="13.4598685"><ele>113.0</ele><time>2026-05-03T08:30:13.108Z</time></trkpt><trkpt lat="46.0548438" lon="13.4599737"><ele>113.0</ele><time>2026-05-03T08:30:14.113Z</time></trkpt><trkpt lat="46.0547305" lon="13.4600756"><ele>113.0</ele><time>2026-05-03T08:30:15.117Z</time></trkpt><trkpt lat="46.0546156" lon="13.4601805"><ele>113.0</ele><time>2026-05-03T08:30:16.105Z</time></trkpt><trkpt lat="46.0545069" lon="13.4602929"><ele>113.0</ele><time>2026-05-03T08:30:17.108Z</time></trkpt><trkpt lat="46.0544064" lon="13.4604102"><ele>113.0</ele><time>2026-05-03T08:30:18.115Z</time></trkpt><trkpt lat="46.0543208" lon="13.4605356"><ele>113.0</ele><time>2026-05-03T08:30:19.103Z</time></trkpt><trkpt lat="46.0542363" lon="13.460666"><ele>113.0</ele><time>2026-05-03T08:30:20.112Z</time></trkpt><trkpt lat="46.0541588" lon="13.4607983"><ele>113.0</ele><time>2026-05-03T08:30:21.101Z</time></trkpt><trkpt lat="46.0540845" lon="13.4609351"><ele>113.0</ele><time>2026-05-03T08:30:22.119Z</time></trkpt><trkpt lat="46.0540093" lon="13.4610752"><ele>113.0</ele><time>2026-05-03T08:30:23.101Z</time></trkpt><trkpt lat="46.0539309" lon="13.4612189"><ele>113.5</ele><time>2026-05-03T08:30:24.113Z</time></trkpt><trkpt lat="46.0538519" lon="13.4613627"><ele>114.0</ele><time>2026-05-03T08:30:25.107Z</time></trkpt><trkpt lat="46.0537734" lon="13.4615056"><ele>114.5</ele><time>2026-05-03T08:30:26.114Z</time></trkpt><trkpt lat="46.0537002" lon="13.4616242"><ele>115.0</ele><time>2026-05-03T08:30:27.11Z</time></trkpt><trkpt lat="46.0536408" lon="13.4617261"><ele>115.0</ele><time>2026-05-03T08:30:28.113Z</time></trkpt><trkpt lat="46.0535967" lon="13.4617972"><ele>115.0</ele><time>2026-05-03T08:30:29.111Z</time></trkpt><trkpt lat="46.0535379" lon="13.4618848"><ele>115.0</ele><time>2026-05-03T08:30:32.116Z</time></trkpt><trkpt lat="46.0534678" lon="13.4619594"><ele>115.0</ele><time>2026-05-03T08:30:35.111Z</time></trkpt><trkpt lat="46.053373" lon="13.4619957"><ele>115.0</ele><time>2026-05-03T08:30:38.107Z</time></trkpt><trkpt lat="46.0532596" lon="13.4620199"><ele>114.66666666666667</ele><time>2026-05-03T08:30:40.121Z</time></trkpt><trkpt lat="46.0531941" lon="13.4620122"><ele>114.33333333333334</ele><time>2026-05-03T08:30:41.121Z</time></trkpt><trkpt lat="46.0531314" lon="13.4619975"><ele>114.0</ele><time>2026-05-03T08:30:42.113Z</time></trkpt><trkpt lat="46.053014" lon="13.4619734"><ele>113.66666666666666</ele><time>2026-05-03T08:30:44.114Z</time></trkpt><trkpt lat="46.0529511" lon="13.4619545"><ele>113.33333333333333</ele><time>2026-05-03T08:30:45.108Z</time></trkpt><trkpt lat="46.0528739" lon="13.4619405"><ele>113.0</ele><time>2026-05-03T08:30:46.117Z</time></trkpt><trkpt lat="46.0527838" lon="13.461925"><ele>113.0</ele><time>2026-05-03T08:30:47.106Z</time></trkpt><trkpt lat="46.052691" lon="13.461909"><ele>113.00000000000001</ele><time>2026-05-03T08:30:48.113Z</time></trkpt><trkpt lat="46.052596" lon="13.4618914"><ele>113.00000000000001</ele><time>2026-05-03T08:30:49.105Z</time></trkpt><trkpt lat="46.0524904" lon="13.4618749"><ele>113.0</ele><time>2026-05-03T08:30:50.101Z</time></trkpt><trkpt lat="46.0523786" lon="13.4618563"><ele>113.0</ele><time>2026-05-03T08:30:51.116Z</time></trkpt><trkpt lat="46.0522634" lon="13.4618445"><ele>114.0</ele><time>2026-05-03T08:30:52.121Z</time></trkpt><trkpt lat="46.0521442" lon="13.4618436"><ele>115.0</ele><time>2026-05-03T08:30:53.107Z</time></trkpt><trkpt lat="46.0520269" lon="13.4618588"><ele>116.0</ele><time>2026-05-03T08:30:54.123Z</time></trkpt><trkpt lat="46.0519097" lon="13.4618938"><ele>117.0</ele><time>2026-05-03T08:30:55.113Z</time></trkpt><trkpt lat="46.0517939" lon="13.4619443"><ele>117.0</ele><time>2026-05-03T08:30:56.12Z</time></trkpt><trkpt lat="46.051682" lon="13.4619964"><ele>116.99999999999999</ele><time>2026-05-03T08:30:57.115Z</time></trkpt><trkpt lat="46.0515828" lon="13.462049"><ele>116.99999999999999</ele><time>2026-05-03T08:30:58.109Z</time></trkpt><trkpt lat="46.0514924" lon="13.4620995"><ele>117.0</ele><time>2026-05-03T08:30:59.114Z</time></trkpt><trkpt lat="46.0514073" lon="13.4621483"><ele>117.0</ele><time>2026-05-03T08:31:00.103Z</time></trkpt><trkpt lat="46.0513326" lon="13.4621944"><ele>116.16666666666667</ele><time>2026-05-03T08:31:01.109Z</time></trkpt><trkpt lat="46.0512535" lon="13.4622988"><ele>115.33333333333334</ele><time>2026-05-03T08:31:03.138Z</time></trkpt><trkpt lat="46.0512542" lon="13.4624549"><ele>114.5</ele><time>2026-05-03T08:31:05.112Z</time></trkpt><trkpt lat="46.0512475" lon="13.4625494"><ele>113.66666666666667</ele><time>2026-05-03T08:31:06.116Z</time></trkpt><trkpt lat="46.0512313" lon="13.4626468"><ele>112.83333333333334</ele><time>2026-05-03T08:31:07.111Z</time></trkpt><trkpt lat="46.0512065" lon="13.4627442"><ele>112.0</ele><time>2026-05-03T08:31:08.115Z</time></trkpt><trkpt lat="46.0511783" lon="13.4628493"><ele>112.25</ele><time>2026-05-03T08:31:09.131Z</time></trkpt><trkpt lat="46.0511404" lon="13.4629841"><ele>112.5</ele><time>2026-05-03T08:31:10.114Z</time></trkpt><trkpt lat="46.0511024" lon="13.4631451"><ele>112.75</ele><time>2026-05-03T08:31:11.115Z</time></trkpt><trkpt lat="46.0510689" lon="13.46332"><ele>113.0</ele><time>2026-05-03T08:31:12.127Z</time></trkpt><trkpt lat="46.0510451" lon="13.4635034"><ele>113.0</ele><time>2026-05-03T08:31:13.116Z</time></trkpt><trkpt lat="46.0510311" lon="13.4636721"><ele>113.00000000000001</ele><time>2026-05-03T08:31:14.109Z</time></trkpt><trkpt lat="46.0510296" lon="13.4638207"><ele>113.00000000000001</ele><time>2026-05-03T08:31:15.115Z</time></trkpt><trkpt lat="46.0510355" lon="13.4639645"><ele>113.0</ele><time>2026-05-03T08:31:16.119Z</time></trkpt><trkpt lat="46.0510693" lon="13.4641054"><ele>113.0</ele><time>2026-05-03T08:31:17.126Z</time></trkpt><trkpt lat="46.0511331" lon="13.4642624"><ele>115.25</ele><time>2026-05-03T08:31:18.11Z</time></trkpt><trkpt lat="46.051197" lon="13.4644405"><ele>117.5</ele><time>2026-05-03T08:31:19.102Z</time></trkpt><trkpt lat="46.051255" lon="13.464622"><ele>119.75</ele><time>2026-05-03T08:31:20.114Z</time></trkpt><trkpt lat="46.0513038" lon="13.4648141"><ele>122.0</ele><time>2026-05-03T08:31:21.114Z</time></trkpt><trkpt lat="46.0513538" lon="13.4650146"><ele>123.66666666666666</ele><time>2026-05-03T08:31:22.118Z</time></trkpt><trkpt lat="46.0514124" lon="13.4652161"><ele>125.33333333333334</ele><time>2026-05-03T08:31:23.096Z</time></trkpt><trkpt lat="46.0514745" lon="13.4654103"><ele>127.0</ele><time>2026-05-03T08:31:24.102Z</time></trkpt><trkpt lat="46.0515352" lon="13.4656082"><ele>127.0</ele><time>2026-05-03T08:31:25.104Z</time></trkpt><trkpt lat="46.0515932" lon="13.4658085"><ele>127.0</ele><time>2026-05-03T08:31:26.103Z</time></trkpt><trkpt lat="46.0516577" lon="13.4660078"><ele>127.0</ele><time>2026-05-03T08:31:27.103Z</time></trkpt><trkpt lat="46.0517245" lon="13.4662065"><ele>128.25</ele><time>2026-05-03T08:31:28.104Z</time></trkpt><trkpt lat="46.0517918" lon="13.4664093"><ele>129.5</ele><time>2026-05-03T08:31:29.118Z</time></trkpt><trkpt lat="46.0518498" lon="13.4665895"><ele>130.75</ele><time>2026-05-03T08:31:30.115Z</time></trkpt><trkpt lat="46.0518996" lon="13.4667469"><ele>132.0</ele><time>2026-05-03T08:31:31.1Z</time></trkpt><trkpt lat="46.0519433" lon="13.4669012"><ele>132.0</ele><time>2026-05-03T08:31:32.103Z</time></trkpt><trkpt lat="46.0519794" lon="13.4670534"><ele>132.0</ele><time>2026-05-03T08:31:33.107Z</time></trkpt><trkpt lat="46.0519933" lon="13.4671982"><ele>132.0</ele><time>2026-05-03T08:31:34.108Z</time></trkpt><trkpt lat="46.0519824" lon="13.4673567"><ele>132.0</ele><time>2026-05-03T08:31:35.111Z</time></trkpt><trkpt lat="46.0519594" lon="13.4675169"><ele>132.0</ele><time>2026-05-03T08:31:36.121Z</time></trkpt><trkpt lat="46.051942" lon="13.4676807"><ele>132.4</ele><time>2026-05-03T08:31:37.123Z</time></trkpt><trkpt lat="46.0519496" lon="13.4678359"><ele>132.79999999999998</ele><time>2026-05-03T08:31:38.124Z</time></trkpt><trkpt lat="46.0519845" lon="13.4679948"><ele>133.2</ele><time>2026-05-03T08:31:39.108Z</time></trkpt><trkpt lat="46.0520166" lon="13.4681505"><ele>133.6</ele><time>2026-05-03T08:31:40.127Z</time></trkpt><trkpt lat="46.0520338" lon="13.468301"><ele>134.0</ele><time>2026-05-03T08:31:41.122Z</time></trkpt><trkpt lat="46.052026" lon="13.4684397"><ele>134.5</ele><time>2026-05-03T08:31:42.114Z</time></trkpt><trkpt lat="46.05199" lon="13.4685523"><ele>135.0</ele><time>2026-05-03T08:31:43.1Z</time></trkpt><trkpt lat="46.0519377" lon="13.468622"><ele>135.5</ele><time>2026-05-03T08:31:44.103Z</time></trkpt><trkpt lat="46.0518043" lon="13.4686332"><ele>136.0</ele><time>2026-05-03T08:31:46.111Z</time></trkpt><trkpt lat="46.0517258" lon="13.4686219"><ele>136.5</ele><time>2026-05-03T08:31:47.104Z</time></trkpt><trkpt lat="46.0516596" lon="13.4686161"><ele>137.0</ele><time>2026-05-03T08:31:48.117Z</time></trkpt><trkpt lat="46.0515893" lon="13.4686831"><ele>137.5</ele><time>2026-05-03T08:31:50.102Z</time></trkpt><trkpt lat="46.0516592" lon="13.4687388"><ele>138.0</ele><time>2026-05-03T08:32:01.109Z</time></trkpt><trkpt lat="46.051736" lon="13.4687397"><ele>138.5</ele><time>2026-05-03T08:32:02.112Z</time></trkpt><trkpt lat="46.0518153" lon="13.4687785"><ele>139.0</ele><time>2026-05-03T08:32:03.112Z</time></trkpt><trkpt lat="46.0518914" lon="13.4688287"><ele>139.5</ele><time>2026-05-03T08:32:04.107Z</time></trkpt><trkpt lat="46.0519545" lon="13.4688723"><ele>140.0</ele><time>2026-05-03T08:32:05.107Z</time></trkpt><trkpt lat="46.0520587" lon="13.4688308"><ele>140.0</ele><time>2026-05-03T08:32:07.106Z</time></trkpt><trkpt lat="46.0521573" lon="13.468715"><ele>140.0</ele><time>2026-05-03T08:32:09.107Z</time></trkpt><trkpt lat="46.0522088" lon="13.4686008"><ele>140.0</ele><time>2026-05-03T08:32:10.111Z</time></trkpt><trkpt lat="46.0522635" lon="13.4684914"><ele>140.0</ele><time>2026-05-03T08:32:11.105Z</time></trkpt><trkpt lat="46.0523142" lon="13.4684222"><ele>140.0</ele><time>2026-05-03T08:32:12.117Z</time></trkpt><trkpt lat="46.0523896" lon="13.4683617"><ele>141.2</ele><time>2026-05-03T08:32:14.11Z</time></trkpt><trkpt lat="46.0524906" lon="13.4684342"><ele>142.4</ele><time>2026-05-03T08:32:16.103Z</time></trkpt><trkpt lat="46.0525638" lon="13.468509"><ele>143.6</ele><time>2026-05-03T08:32:17.101Z</time></trkpt><trkpt lat="46.0526496" lon="13.4685832"><ele>144.8</ele><time>2026-05-03T08:32:18.105Z</time></trkpt><trkpt lat="46.0527475" lon="13.4686567"><ele>146.0</ele><time>2026-05-03T08:32:19.109Z</time></trkpt><trkpt lat="46.0528483" lon="13.4687419"><ele>145.75</ele><time>2026-05-03T08:32:20.104Z</time></trkpt><trkpt lat="46.0529476" lon="13.4688508"><ele>145.5</ele><time>2026-05-03T08:32:21.123Z</time></trkpt><trkpt lat="46.0530496" lon="13.4689728"><ele>145.25</ele><time>2026-05-03T08:32:22.113Z</time></trkpt><trkpt lat="46.0531505" lon="13.4690944"><ele>145.0</ele><time>2026-05-03T08:32:23.108Z</time></trkpt><trkpt lat="46.0532439" lon="13.4692018"><ele>145.5</ele><time>2026-05-03T08:32:24.108Z</time></trkpt><trkpt lat="46.0533409" lon="13.4692965"><ele>146.0</ele><time>2026-05-03T08:32:25.124Z</time></trkpt><trkpt lat="46.0534547" lon="13.4693886"><ele>146.5</ele><time>2026-05-03T08:32:26.104Z</time></trkpt><trkpt lat="46.0535809" lon="13.4694751"><ele>147.0</ele><time>2026-05-03T08:32:27.118Z</time></trkpt><trkpt lat="46.0537073" lon="13.4695621"><ele>145.0</ele><time>2026-05-03T08:32:28.106Z</time></trkpt><trkpt lat="46.0538367" lon="13.4696465"><ele>143.0</ele><time>2026-05-03T08:32:29.115Z</time></trkpt><trkpt lat="46.0539586" lon="13.469729"><ele>141.0</ele><time>2026-05-03T08:32:30.108Z</time></trkpt><trkpt lat="46.0540735" lon="13.4698072"><ele>139.0</ele><time>2026-05-03T08:32:31.112Z</time></trkpt><trkpt lat="46.0541758" lon="13.4698768"><ele>139.0</ele><time>2026-05-03T08:32:32.11Z</time></trkpt><trkpt lat="46.0542681" lon="13.469936"><ele>139.0</ele><time>2026-05-03T08:32:33.108Z</time></trkpt><trkpt lat="46.0543438" lon="13.4699877"><ele>139.0</ele><time>2026-05-03T08:32:34.127Z</time></trkpt><trkpt lat="46.0543996" lon="13.4700348"><ele>139.0</ele><time>2026-05-03T08:32:35.109Z</time></trkpt><trkpt lat="46.0544372" lon="13.4701178"><ele>139.0</ele><time>2026-05-03T08:32:37.114Z</time></trkpt><trkpt lat="46.05437" lon="13.4702493"><ele>139.0</ele><time>2026-05-03T08:32:39.112Z</time></trkpt><trkpt lat="46.054308" lon="13.47034"><ele>139.0</ele><time>2026-05-03T08:32:40.115Z</time></trkpt><trkpt lat="46.054247" lon="13.4704402"><ele>139.0</ele><time>2026-05-03T08:32:41.115Z</time></trkpt><trkpt lat="46.0541955" lon="13.4705232"><ele>139.0</ele><time>2026-05-03T08:32:42.103Z</time></trkpt><trkpt lat="46.0541775" lon="13.4706398"><ele>139.0</ele><time>2026-05-03T08:32:44.111Z</time></trkpt><trkpt lat="46.0542705" lon="13.470725"><ele>139.0</ele><time>2026-05-03T08:32:46.113Z</time></trkpt><trkpt lat="46.0542947" lon="13.4708895"><ele>138.0</ele><time>2026-05-03T08:32:48.109Z</time></trkpt><trkpt lat="46.0542011" lon="13.470959"><ele>137.0</ele><time>2026-05-03T08:32:50.111Z</time></trkpt><trkpt lat="46.0541334" lon="13.4709399"><ele>136.0</ele><time>2026-05-03T08:32:51.113Z</time></trkpt><trkpt lat="46.0540559" lon="13.4709378"><ele>135.0</ele><time>2026-05-03T08:32:52.114Z</time></trkpt><trkpt lat="46.0539718" lon="13.4709779"><ele>134.0</ele><time>2026-05-03T08:32:53.114Z</time></trkpt><trkpt lat="46.0538693" lon="13.4710328"><ele>132.25</ele><time>2026-05-03T08:32:54.111Z</time></trkpt><trkpt lat="46.0537572" lon="13.4710751"><ele>130.5</ele><time>2026-05-03T08:32:55.114Z</time></trkpt><trkpt lat="46.0536374" lon="13.4710981"><ele>128.75</ele><time>2026-05-03T08:32:56.117Z</time></trkpt><trkpt lat="46.0535196" lon="13.4710995"><ele>127.0</ele><time>2026-05-03T08:32:57.114Z</time></trkpt><trkpt lat="46.0534041" lon="13.4710729"><ele>126.39999999999999</ele><time>2026-05-03T08:32:58.133Z</time></trkpt><trkpt lat="46.0532829" lon="13.4710214"><ele>125.79999999999998</ele><time>2026-05-03T08:32:59.118Z</time></trkpt><trkpt lat="46.0531789" lon="13.4709756"><ele>125.2</ele><time>2026-05-03T08:33:00.114Z</time></trkpt><trkpt lat="46.0530973" lon="13.4709583"><ele>124.6</ele><time>2026-05-03T08:33:01.107Z</time></trkpt><trkpt lat="46.0529977" lon="13.4710181"><ele>124.0</ele><time>2026-05-03T08:33:03.12Z</time></trkpt><trkpt lat="46.0529794" lon="13.4711102"><ele>124.0</ele><time>2026-05-03T08:33:04.108Z</time></trkpt><trkpt lat="46.0529844" lon="13.4712416"><ele>124.0</ele><time>2026-05-03T08:33:05.12Z</time></trkpt><trkpt lat="46.0529996" lon="13.471398"><ele>124.0</ele><time>2026-05-03T08:33:06.117Z</time></trkpt><trkpt lat="46.0530027" lon="13.4715466"><ele>124.0</ele><time>2026-05-03T08:33:07.102Z</time></trkpt><trkpt lat="46.0530127" lon="13.4716544"><ele>124.0</ele><time>2026-05-03T08:33:08.102Z</time></trkpt><trkpt lat="46.0531107" lon="13.4717805"><ele>122.2</ele><time>2026-05-03T08:33:10.108Z</time></trkpt><trkpt lat="46.053215" lon="13.4718242"><ele>120.4</ele><time>2026-05-03T08:33:11.101Z</time></trkpt><trkpt lat="46.0533264" lon="13.4718782"><ele>118.6</ele><time>2026-05-03T08:33:12.107Z</time></trkpt><trkpt lat="46.0534221" lon="13.4719291"><ele>116.8</ele><time>2026-05-03T08:33:13.101Z</time></trkpt><trkpt lat="46.0534981" lon="13.4719798"><ele>115.0</ele><time>2026-05-03T08:33:14.094Z</time></trkpt><trkpt lat="46.0535599" lon="13.4721"><ele>115.4</ele><time>2026-05-03T08:33:16.102Z</time></trkpt><trkpt lat="46.0535142" lon="13.4722828"><ele>115.8</ele><time>2026-05-03T08:33:18.106Z</time></trkpt><trkpt lat="46.0534665" lon="13.4723454"><ele>116.19999999999999</ele><time>2026-05-03T08:33:19.095Z</time></trkpt><trkpt lat="46.0533358" lon="13.4723555"><ele>116.6</ele><time>2026-05-03T08:33:21.116Z</time></trkpt><trkpt lat="46.0532475" lon="13.4723234"><ele>117.0</ele><time>2026-05-03T08:33:22.098Z</time></trkpt><trkpt lat="46.0531371" lon="13.4722683"><ele>117.0</ele><time>2026-05-03T08:33:23.103Z</time></trkpt><trkpt lat="46.05302" lon="13.472193"><ele>117.0</ele><time>2026-05-03T08:33:24.103Z</time></trkpt><trkpt lat="46.0529017" lon="13.4721247"><ele>117.0</ele><time>2026-05-03T08:33:25.106Z</time></trkpt><trkpt lat="46.052777" lon="13.4720855"><ele>117.0</ele><time>2026-05-03T08:33:26.097Z</time></trkpt><trkpt lat="46.0526307" lon="13.4720803"><ele>116.25</ele><time>2026-05-03T08:33:27.1Z</time></trkpt><trkpt lat="46.0524761" lon="13.472075"><ele>115.5</ele><time>2026-05-03T08:33:28.097Z</time></trkpt><trkpt lat="46.0523271" lon="13.4720658"><ele>114.75</ele><time>2026-05-03T08:33:29.106Z</time></trkpt><trkpt lat="46.0521932" lon="13.4720679"><ele>114.0</ele><time>2026-05-03T08:33:30.108Z</time></trkpt><trkpt lat="46.0520749" lon="13.4721084"><ele>114.0</ele><time>2026-05-03T08:33:31.101Z</time></trkpt><trkpt lat="46.0519656" lon="13.4721494"><ele>114.0</ele><time>2026-05-03T08:33:32.113Z</time></trkpt><trkpt lat="46.0518681" lon="13.4721554"><ele>114.0</ele><time>2026-05-03T08:33:33.104Z</time></trkpt><trkpt lat="46.0517714" lon="13.4721165"><ele>114.0</ele><time>2026-05-03T08:33:34.107Z</time></trkpt><trkpt lat="46.0516588" lon="13.4720621"><ele>114.0</ele><time>2026-05-03T08:33:35.117Z</time></trkpt><trkpt lat="46.0515349" lon="13.4720226"><ele>114.25</ele><time>2026-05-03T08:33:36.108Z</time></trkpt><trkpt lat="46.0514016" lon="13.4719832"><ele>114.5</ele><time>2026-05-03T08:33:37.098Z</time></trkpt><trkpt lat="46.0512695" lon="13.471957"><ele>114.75</ele><time>2026-05-03T08:33:38.101Z</time></trkpt><trkpt lat="46.0511322" lon="13.4719542"><ele>115.0</ele><time>2026-05-03T08:33:39.109Z</time></trkpt><trkpt lat="46.0509885" lon="13.4719793"><ele>115.0</ele><time>2026-05-03T08:33:40.096Z</time></trkpt><trkpt lat="46.0508428" lon="13.4720122"><ele>115.0</ele><time>2026-05-03T08:33:41.1Z</time></trkpt><trkpt lat="46.0507024" lon="13.4720587"><ele>115.0</ele><time>2026-05-03T08:33:42.098Z</time></trkpt><trkpt lat="46.0505798" lon="13.4721087"><ele>115.0</ele><time>2026-05-03T08:33:43.105Z</time></trkpt><trkpt lat="46.0504663" lon="13.4721761"><ele>114.25</ele><time>2026-05-03T08:33:44.093Z</time></trkpt><trkpt lat="46.050358" lon="13.4722672"><ele>113.5</ele><time>2026-05-03T08:33:45.099Z</time></trkpt><trkpt lat="46.0502471" lon="13.4723643"><ele>112.75</ele><time>2026-05-03T08:33:46.101Z</time></trkpt><trkpt lat="46.0501337" lon="13.472468"><ele>112.0</ele><time>2026-05-03T08:33:47.103Z</time></trkpt><trkpt lat="46.0500162" lon="13.472577"><ele>114.33333333333334</ele><time>2026-05-03T08:33:48.099Z</time></trkpt><trkpt lat="46.0498918" lon="13.4726905"><ele>116.66666666666666</ele><time>2026-05-03T08:33:49.105Z</time></trkpt><trkpt lat="46.0497565" lon="13.4728086"><ele>119.0</ele><time>2026-05-03T08:33:50.103Z</time></trkpt><trkpt lat="46.0496221" lon="13.4729306"><ele>116.0</ele><time>2026-05-03T08:33:51.115Z</time></trkpt><trkpt lat="46.0494941" lon="13.4730579"><ele>113.0</ele><time>2026-05-03T08:33:52.112Z</time></trkpt><trkpt lat="46.0493788" lon="13.473198"><ele>110.0</ele><time>2026-05-03T08:33:53.105Z</time></trkpt><trkpt lat="46.049276" lon="13.4733491"><ele>110.0</ele><time>2026-05-03T08:33:54.107Z</time></trkpt><trkpt lat="46.0491795" lon="13.4735048"><ele>110.0</ele><time>2026-05-03T08:33:55.099Z</time></trkpt><trkpt lat="46.0490758" lon="13.473659"><ele>110.0</ele><time>2026-05-03T08:33:56.102Z</time></trkpt><trkpt lat="46.0489776" lon="13.4738096"><ele>110.0</ele><time>2026-05-03T08:33:57.098Z</time></trkpt><trkpt lat="46.0488812" lon="13.4739407"><ele>109.25</ele><time>2026-05-03T08:33:58.108Z</time></trkpt><trkpt lat="46.0487856" lon="13.4740527"><ele>108.5</ele><time>2026-05-03T08:33:59.101Z</time></trkpt><trkpt lat="46.0486834" lon="13.4741455"><ele>107.75</ele><time>2026-05-03T08:34:00.107Z</time></trkpt><trkpt lat="46.0485703" lon="13.4742263"><ele>107.0</ele><time>2026-05-03T08:34:01.118Z</time></trkpt><trkpt lat="46.0484616" lon="13.4743067"><ele>107.0</ele><time>2026-05-03T08:34:02.104Z</time></trkpt><trkpt lat="46.0483678" lon="13.4744026"><ele>107.0</ele><time>2026-05-03T08:34:03.111Z</time></trkpt><trkpt lat="46.0482836" lon="13.4745108"><ele>107.0</ele><time>2026-05-03T08:34:04.107Z</time></trkpt><trkpt lat="46.0482011" lon="13.4746484"><ele>107.0</ele><time>2026-05-03T08:34:05.129Z</time></trkpt><trkpt lat="46.0481196" lon="13.4747969"><ele>107.75</ele><time>2026-05-03T08:34:06.114Z</time></trkpt><trkpt lat="46.0480359" lon="13.4749621"><ele>108.5</ele><time>2026-05-03T08:34:07.121Z</time></trkpt><trkpt lat="46.0479573" lon="13.4751282"><ele>109.25</ele><time>2026-05-03T08:34:08.104Z</time></trkpt><trkpt lat="46.0478725" lon="13.4752996"><ele>110.0</ele><time>2026-05-03T08:34:09.108Z</time></trkpt><trkpt lat="46.04779" lon="13.475452"><ele>109.2</ele><time>2026-05-03T08:34:10.111Z</time></trkpt><trkpt lat="46.0477085" lon="13.4755977"><ele>108.4</ele><time>2026-05-03T08:34:11.111Z</time></trkpt><trkpt lat="46.0476348" lon="13.4757222"><ele>107.6</ele><time>2026-05-03T08:34:12.115Z</time></trkpt><trkpt lat="46.0475691" lon="13.4758163"><ele>106.8</ele><time>2026-05-03T08:34:13.113Z</time></trkpt><trkpt lat="46.0475076" lon="13.4759063"><ele>106.0</ele><time>2026-05-03T08:34:14.129Z</time></trkpt><trkpt lat="46.0474511" lon="13.4759887"><ele>106.00000000000001</ele><time>2026-05-03T08:34:15.11Z</time></trkpt><trkpt lat="46.0473996" lon="13.4760723"><ele>106.0</ele><time>2026-05-03T08:34:16.111Z</time></trkpt><trkpt lat="46.0473539" lon="13.4761602"><ele>106.0</ele><time>2026-05-03T08:34:17.104Z</time></trkpt><trkpt lat="46.0473138" lon="13.4762461"><ele>106.0</ele><time>2026-05-03T08:34:18.112Z</time></trkpt><trkpt lat="46.0472586" lon="13.4763336"><ele>106.00000000000001</ele><time>2026-05-03T08:34:19.098Z</time></trkpt><trkpt lat="46.0471934" lon="13.4764223"><ele>106.0</ele><time>2026-05-03T08:34:20.122Z</time></trkpt><trkpt lat="46.0471141" lon="13.4765051"><ele>105.0</ele><time>2026-05-03T08:34:21.102Z</time></trkpt><trkpt lat="46.0470247" lon="13.4765942"><ele>104.0</ele><time>2026-05-03T08:34:22.107Z</time></trkpt><trkpt lat="46.0469329" lon="13.4766883"><ele>103.0</ele><time>2026-05-03T08:34:23.104Z</time></trkpt><trkpt lat="46.0468472" lon="13.4767811"><ele>102.0</ele><time>2026-05-03T08:34:24.112Z</time></trkpt><trkpt lat="46.0467618" lon="13.4768682"><ele>101.0</ele><time>2026-05-03T08:34:25.104Z</time></trkpt><trkpt lat="46.0466713" lon="13.4769547"><ele>101.75</ele><time>2026-05-03T08:34:26.113Z</time></trkpt><trkpt lat="46.0465794" lon="13.4770343"><ele>102.5</ele><time>2026-05-03T08:34:27.115Z</time></trkpt><trkpt lat="46.046476" lon="13.4770958"><ele>103.25</ele><time>2026-05-03T08:34:28.098Z</time></trkpt><trkpt lat="46.0463566" lon="13.4771434"><ele>104.0</ele><time>2026-05-03T08:34:29.105Z</time></trkpt><trkpt lat="46.0462289" lon="13.4771868"><ele>104.0</ele><time>2026-05-03T08:34:30.112Z</time></trkpt><trkpt lat="46.0461078" lon="13.477227"><ele>104.0</ele><time>2026-05-03T08:34:31.104Z</time></trkpt><trkpt lat="46.0460058" lon="13.4772739"><ele>104.0</ele><time>2026-05-03T08:34:32.115Z</time></trkpt><trkpt lat="46.0459129" lon="13.4773216"><ele>104.0</ele><time>2026-05-03T08:34:33.102Z</time></trkpt><trkpt lat="46.0458362" lon="13.4773857"><ele>104.0</ele><time>2026-05-03T08:34:34.114Z</time></trkpt><trkpt lat="46.0457734" lon="13.4774681"><ele>104.4</ele><time>2026-05-03T08:34:35.108Z</time></trkpt><trkpt lat="46.0457333" lon="13.47758"><ele>104.80000000000001</ele><time>2026-05-03T08:34:36.103Z</time></trkpt><trkpt lat="46.0457127" lon="13.4776994"><ele>105.19999999999999</ele><time>2026-05-03T08:34:37.103Z</time></trkpt><trkpt lat="46.0457041" lon="13.4778359"><ele>105.6</ele><time>2026-05-03T08:34:38.103Z</time></trkpt><trkpt lat="46.0456995" lon="13.4779738"><ele>106.0</ele><time>2026-05-03T08:34:39.106Z</time></trkpt><trkpt lat="46.0456949" lon="13.4781056"><ele>106.00000000000001</ele><time>2026-05-03T08:34:40.1Z</time></trkpt><trkpt lat="46.0456907" lon="13.4782054"><ele>106.0</ele><time>2026-05-03T08:34:41.095Z</time></trkpt><trkpt lat="46.0456696" lon="13.478299"><ele>106.0</ele><time>2026-05-03T08:34:44.108Z</time></trkpt><trkpt lat="46.0455946" lon="13.4783032"><ele>106.0</ele><time>2026-05-03T08:34:47.106Z</time></trkpt><trkpt lat="46.0454948" lon="13.4782693"><ele>106.00000000000001</ele><time>2026-05-03T08:34:49.119Z</time></trkpt><trkpt lat="46.045426" lon="13.4782422"><ele>106.0</ele><time>2026-05-03T08:34:50.11Z</time></trkpt><trkpt lat="46.045356" lon="13.4782262"><ele>106.0</ele><time>2026-05-03T08:34:51.108Z</time></trkpt><trkpt lat="46.0452846" lon="13.4782021"><ele>106.0</ele><time>2026-05-03T08:34:52.103Z</time></trkpt><trkpt lat="46.0452039" lon="13.4781782"><ele>106.0</ele><time>2026-05-03T08:34:53.111Z</time></trkpt><trkpt lat="46.0451128" lon="13.4781456"><ele>106.0</ele><time>2026-05-03T08:34:54.12Z</time></trkpt><trkpt lat="46.0450152" lon="13.4781021"><ele>106.0</ele><time>2026-05-03T08:34:55.113Z</time></trkpt><trkpt lat="46.0449182" lon="13.4780437"><ele>105.25</ele><time>2026-05-03T08:34:56.122Z</time></trkpt><trkpt lat="46.0448065" lon="13.4779965"><ele>104.5</ele><time>2026-05-03T08:34:57.108Z</time></trkpt><trkpt lat="46.0446744" lon="13.4779524"><ele>103.75</ele><time>2026-05-03T08:34:58.116Z</time></trkpt><trkpt lat="46.0445328" lon="13.4779107"><ele>103.0</ele><time>2026-05-03T08:34:59.109Z</time></trkpt><trkpt lat="46.0443915" lon="13.4778778"><ele>102.75</ele><time>2026-05-03T08:35:00.112Z</time></trkpt><trkpt lat="46.0442585" lon="13.477858"><ele>102.5</ele><time>2026-05-03T08:35:01.124Z</time></trkpt><trkpt lat="46.0441325" lon="13.4778473"><ele>102.25</ele><time>2026-05-03T08:35:02.103Z</time></trkpt><trkpt lat="46.0440131" lon="13.4778574"><ele>102.0</ele><time>2026-05-03T08:35:03.123Z</time></trkpt><trkpt lat="46.0439062" lon="13.4778937"><ele>102.0</ele><time>2026-05-03T08:35:04.113Z</time></trkpt><trkpt lat="46.0438052" lon="13.4779412"><ele>102.0</ele><time>2026-05-03T08:35:05.101Z</time></trkpt><trkpt lat="46.0437183" lon="13.4779841"><ele>102.0</ele><time>2026-05-03T08:35:06.111Z</time></trkpt><trkpt lat="46.0436522" lon="13.4780111"><ele>102.0</ele><time>2026-05-03T08:35:07.112Z</time></trkpt><trkpt lat="46.0435423" lon="13.4779881"><ele>102.0</ele><time>2026-05-03T08:35:09.119Z</time></trkpt><trkpt lat="46.0434697" lon="13.477925"><ele>102.0</ele><time>2026-05-03T08:35:10.112Z</time></trkpt><trkpt lat="46.0434031" lon="13.4778156"><ele>102.0</ele><time>2026-05-03T08:35:11.11Z</time></trkpt><trkpt lat="46.0433268" lon="13.4776957"><ele>102.0</ele><time>2026-05-03T08:35:12.106Z</time></trkpt><trkpt lat="46.0432321" lon="13.4775883"><ele>102.0</ele><time>2026-05-03T08:35:13.113Z</time></trkpt><trkpt lat="46.0431121" lon="13.4774929"><ele>102.5</ele><time>2026-05-03T08:35:14.105Z</time></trkpt><trkpt lat="46.0429878" lon="13.4774135"><ele>103.0</ele><time>2026-05-03T08:35:15.106Z</time></trkpt><trkpt lat="46.0428712" lon="13.4773396"><ele>103.5</ele><time>2026-05-03T08:35:16.096Z</time></trkpt><trkpt lat="46.0427621" lon="13.4772767"><ele>104.0</ele><time>2026-05-03T08:35:17.11Z</time></trkpt><trkpt lat="46.0426716" lon="13.4772357"><ele>104.0</ele><time>2026-05-03T08:35:18.106Z</time></trkpt><trkpt lat="46.042591" lon="13.4772091"><ele>104.0</ele><time>2026-05-03T08:35:19.11Z</time></trkpt><trkpt lat="46.042513" lon="13.4771954"><ele>104.0</ele><time>2026-05-03T08:35:20.11Z</time></trkpt><trkpt lat="46.0424243" lon="13.4772006"><ele>104.0</ele><time>2026-05-03T08:35:21.113Z</time></trkpt><trkpt lat="46.042313" lon="13.4772189"><ele>104.0</ele><time>2026-05-03T08:35:22.121Z</time></trkpt><trkpt lat="46.0421835" lon="13.4772476"><ele>103.33333333333333</ele><time>2026-05-03T08:35:23.115Z</time></trkpt><trkpt lat="46.0420395" lon="13.4772842"><ele>102.66666666666666</ele><time>2026-05-03T08:35:24.117Z</time></trkpt><trkpt lat="46.0418871" lon="13.4773282"><ele>102.0</ele><time>2026-05-03T08:35:25.13Z</time></trkpt><trkpt lat="46.0417243" lon="13.4773621"><ele>101.0</ele><time>2026-05-03T08:35:26.112Z</time></trkpt><trkpt lat="46.0415697" lon="13.4773958"><ele>100.0</ele><time>2026-05-03T08:35:27.124Z</time></trkpt><trkpt lat="46.0414223" lon="13.4774357"><ele>99.0</ele><time>2026-05-03T08:35:28.132Z</time></trkpt><trkpt lat="46.0412844" lon="13.4774733"><ele>98.0</ele><time>2026-05-03T08:35:29.124Z</time></trkpt><trkpt lat="46.0411592" lon="13.4775022"><ele>98.0</ele><time>2026-05-03T08:35:30.113Z</time></trkpt><trkpt lat="46.0410314" lon="13.4775338"><ele>98.0</ele><time>2026-05-03T08:35:31.114Z</time></trkpt><trkpt lat="46.0408898" lon="13.47757"><ele>98.0</ele><time>2026-05-03T08:35:32.107Z</time></trkpt><trkpt lat="46.0407346" lon="13.4776059"><ele>98.0</ele><time>2026-05-03T08:35:33.112Z</time></trkpt><trkpt lat="46.040574" lon="13.4776431"><ele>98.0</ele><time>2026-05-03T08:35:34.113Z</time></trkpt><trkpt lat="46.0404142" lon="13.4776853"><ele>98.0</ele><time>2026-05-03T08:35:35.113Z</time></trkpt><trkpt lat="46.0402526" lon="13.4777224"><ele>98.0</ele><time>2026-05-03T08:35:36.125Z</time></trkpt><trkpt lat="46.0401008" lon="13.4777382"><ele>97.66666666666666</ele><time>2026-05-03T08:35:37.106Z</time></trkpt><trkpt lat="46.039939" lon="13.477711"><ele>97.33333333333334</ele><time>2026-05-03T08:35:38.108Z</time></trkpt><trkpt lat="46.0397795" lon="13.477653"><ele>97.0</ele><time>2026-05-03T08:35:39.111Z</time></trkpt><trkpt lat="46.0396239" lon="13.4775907"><ele>97.0</ele><time>2026-05-03T08:35:40.108Z</time></trkpt><trkpt lat="46.0394633" lon="13.4775428"><ele>97.0</ele><time>2026-05-03T08:35:41.111Z</time></trkpt><trkpt lat="46.0392961" lon="13.4775224"><ele>97.0</ele><time>2026-05-03T08:35:42.106Z</time></trkpt><trkpt lat="46.039121" lon="13.47752"><ele>97.33333333333334</ele><time>2026-05-03T08:35:43.115Z</time></trkpt><trkpt lat="46.0389443" lon="13.4775334"><ele>97.66666666666666</ele><time>2026-05-03T08:35:44.103Z</time></trkpt><trkpt lat="46.0387639" lon="13.4775516"><ele>98.0</ele><time>2026-05-03T08:35:45.108Z</time></trkpt><trkpt lat="46.0385785" lon="13.4775759"><ele>98.0</ele><time>2026-05-03T08:35:46.114Z</time></trkpt><trkpt lat="46.0383886" lon="13.4776098"><ele>98.0</ele><time>2026-05-03T08:35:47.101Z</time></trkpt><trkpt lat="46.0381914" lon="13.4776518"><ele>98.0</ele><time>2026-05-03T08:35:48.099Z</time></trkpt><trkpt lat="46.0379944" lon="13.4776975"><ele>97.0</ele><time>2026-05-03T08:35:49.113Z</time></trkpt><trkpt lat="46.037791" lon="13.4777385"><ele>96.0</ele><time>2026-05-03T08:35:50.105Z</time></trkpt><trkpt lat="46.0375857" lon="13.4777783"><ele>95.0</ele><time>2026-05-03T08:35:51.112Z</time></trkpt><trkpt lat="46.0373855" lon="13.4778196"><ele>95.0</ele><time>2026-05-03T08:35:52.116Z</time></trkpt><trkpt lat="46.0371886" lon="13.4778546"><ele>95.0</ele><time>2026-05-03T08:35:53.111Z</time></trkpt><trkpt lat="46.036995" lon="13.477869"><ele>95.0</ele><time>2026-05-03T08:35:54.119Z</time></trkpt><trkpt lat="46.0368048" lon="13.4778597"><ele>94.0</ele><time>2026-05-03T08:35:55.126Z</time></trkpt><trkpt lat="46.0366121" lon="13.4778189"><ele>93.0</ele><time>2026-05-03T08:35:56.139Z</time></trkpt><trkpt lat="46.036416" lon="13.4777433"><ele>92.0</ele><time>2026-05-03T08:35:57.126Z</time></trkpt><trkpt lat="46.0362173" lon="13.4776503"><ele>92.0</ele><time>2026-05-03T08:35:58.127Z</time></trkpt><trkpt lat="46.0360149" lon="13.4775498"><ele>92.0</ele><time>2026-05-03T08:35:59.12Z</time></trkpt><trkpt lat="46.0358081" lon="13.4774516"><ele>92.0</ele><time>2026-05-03T08:36:00.122Z</time></trkpt><trkpt lat="46.0355986" lon="13.4773607"><ele>91.33333333333334</ele><time>2026-05-03T08:36:01.122Z</time></trkpt><trkpt lat="46.0353919" lon="13.4772768"><ele>90.66666666666667</ele><time>2026-05-03T08:36:02.121Z</time></trkpt><trkpt lat="46.0351857" lon="13.4772051"><ele>90.0</ele><time>2026-05-03T08:36:03.118Z</time></trkpt><trkpt lat="46.0349811" lon="13.4771431"><ele>89.33333333333333</ele><time>2026-05-03T08:36:04.115Z</time></trkpt><trkpt lat="46.0347763" lon="13.4770868"><ele>88.66666666666666</ele><time>2026-05-03T08:36:05.113Z</time></trkpt><trkpt lat="46.0345701" lon="13.4770252"><ele>88.0</ele><time>2026-05-03T08:36:06.123Z</time></trkpt><trkpt lat="46.0343621" lon="13.4769544"><ele>88.0</ele><time>2026-05-03T08:36:07.119Z</time></trkpt><trkpt lat="46.0341573" lon="13.4768751"><ele>88.0</ele><time>2026-05-03T08:36:08.117Z</time></trkpt><trkpt lat="46.0339542" lon="13.4767827"><ele>88.0</ele><time>2026-05-03T08:36:09.122Z</time></trkpt><trkpt lat="46.0337561" lon="13.4766911"><ele>88.33333333333333</ele><time>2026-05-03T08:36:10.116Z</time></trkpt><trkpt lat="46.0335618" lon="13.4765937"><ele>88.66666666666667</ele><time>2026-05-03T08:36:11.116Z</time></trkpt><trkpt lat="46.0333699" lon="13.4764801"><ele>89.0</ele><time>2026-05-03T08:36:12.118Z</time></trkpt><trkpt lat="46.0331872" lon="13.4763457"><ele>89.0</ele><time>2026-05-03T08:36:13.112Z</time></trkpt><trkpt lat="46.0330175" lon="13.4761885"><ele>89.0</ele><time>2026-05-03T08:36:14.109Z</time></trkpt><trkpt lat="46.0328536" lon="13.476016"><ele>89.0</ele><time>2026-05-03T08:36:15.109Z</time></trkpt><trkpt lat="46.0326954" lon="13.4758546"><ele>89.0</ele><time>2026-05-03T08:36:16.114Z</time></trkpt><trkpt lat="46.0325392" lon="13.475724"><ele>89.0</ele><time>2026-05-03T08:36:17.131Z</time></trkpt><trkpt lat="46.0323857" lon="13.4756115"><ele>89.0</ele><time>2026-05-03T08:36:18.112Z</time></trkpt><trkpt lat="46.0322351" lon="13.475526"><ele>89.5</ele><time>2026-05-03T08:36:19.115Z</time></trkpt><trkpt lat="46.0321034" lon="13.4754586"><ele>90.0</ele><time>2026-05-03T08:36:20.106Z</time></trkpt><trkpt lat="46.0319871" lon="13.475409"><ele>90.5</ele><time>2026-05-03T08:36:21.109Z</time></trkpt><trkpt lat="46.0318912" lon="13.4753873"><ele>91.0</ele><time>2026-05-03T08:36:22.11Z</time></trkpt><trkpt lat="46.0317983" lon="13.4754022"><ele>90.0</ele><time>2026-05-03T08:36:23.119Z</time></trkpt><trkpt lat="46.0317231" lon="13.475492"><ele>89.0</ele><time>2026-05-03T08:36:24.117Z</time></trkpt><trkpt lat="46.0316744" lon="13.4756284"><ele>88.0</ele><time>2026-05-03T08:36:25.113Z</time></trkpt><trkpt lat="46.0316314" lon="13.4757798"><ele>87.0</ele><time>2026-05-03T08:36:26.123Z</time></trkpt><trkpt lat="46.0315895" lon="13.4759092"><ele>86.0</ele><time>2026-05-03T08:36:27.121Z</time></trkpt><trkpt lat="46.0315532" lon="13.4760252"><ele>85.5</ele><time>2026-05-03T08:36:28.134Z</time></trkpt><trkpt lat="46.0314936" lon="13.4761144"><ele>85.0</ele><time>2026-05-03T08:36:29.136Z</time></trkpt><trkpt lat="46.0313981" lon="13.4761654"><ele>84.5</ele><time>2026-05-03T08:36:30.117Z</time></trkpt><trkpt lat="46.0312711" lon="13.476186"><ele>84.0</ele><time>2026-05-03T08:36:31.125Z</time></trkpt><trkpt lat="46.0311328" lon="13.4761768"><ele>84.0</ele><time>2026-05-03T08:36:32.13Z</time></trkpt><trkpt lat="46.0309724" lon="13.4761591"><ele>84.0</ele><time>2026-05-03T08:36:33.121Z</time></trkpt><trkpt lat="46.0307976" lon="13.4761364"><ele>84.0</ele><time>2026-05-03T08:36:34.125Z</time></trkpt><trkpt lat="46.0306157" lon="13.4761091"><ele>83.66666666666667</ele><time>2026-05-03T08:36:35.128Z</time></trkpt><trkpt lat="46.0304307" lon="13.4760789"><ele>83.33333333333334</ele><time>2026-05-03T08:36:36.119Z</time></trkpt><trkpt lat="46.0302463" lon="13.4760405"><ele>83.0</ele><time>2026-05-03T08:36:37.13Z</time></trkpt><trkpt lat="46.0300672" lon="13.4760068"><ele>82.33333333333334</ele><time>2026-05-03T08:36:38.111Z</time></trkpt><trkpt lat="46.0298847" lon="13.4759581"><ele>81.66666666666667</ele><time>2026-05-03T08:36:39.12Z</time></trkpt><trkpt lat="46.0297057" lon="13.4758906"><ele>81.0</ele><time>2026-05-03T08:36:40.109Z</time></trkpt><trkpt lat="46.0295302" lon="13.4757964"><ele>81.0</ele><time>2026-05-03T08:36:41.12Z</time></trkpt><trkpt lat="46.0293588" lon="13.4756861"><ele>81.0</ele><time>2026-05-03T08:36:42.112Z</time></trkpt><trkpt lat="46.0291965" lon="13.4755788"><ele>81.0</ele><time>2026-05-03T08:36:43.107Z</time></trkpt><trkpt lat="46.0290435" lon="13.4754809"><ele>80.75</ele><time>2026-05-03T08:36:44.112Z</time></trkpt><trkpt lat="46.0289014" lon="13.4753922"><ele>80.5</ele><time>2026-05-03T08:36:45.113Z</time></trkpt><trkpt lat="46.0287735" lon="13.4753163"><ele>80.25</ele><time>2026-05-03T08:36:46.103Z</time></trkpt><trkpt lat="46.0286652" lon="13.475246"><ele>80.0</ele><time>2026-05-03T08:36:47.127Z</time></trkpt><trkpt lat="46.0285724" lon="13.4751843"><ele>80.0</ele><time>2026-05-03T08:36:48.122Z</time></trkpt><trkpt lat="46.0285003" lon="13.4751199"><ele>80.0</ele><time>2026-05-03T08:36:49.114Z</time></trkpt><trkpt lat="46.02846" lon="13.4750315"><ele>80.0</ele><time>2026-05-03T08:36:50.11Z</time></trkpt><trkpt lat="46.0284659" lon="13.4749173"><ele>80.0</ele><time>2026-05-03T08:36:51.111Z</time></trkpt><trkpt lat="46.0284857" lon="13.4747884"><ele>80.0</ele><time>2026-05-03T08:36:52.118Z</time></trkpt><trkpt lat="46.0285344" lon="13.4746272"><ele>81.33333333333334</ele><time>2026-05-03T08:36:53.107Z</time></trkpt><trkpt lat="46.0285917" lon="13.4744242"><ele>82.66666666666667</ele><time>2026-05-03T08:36:54.117Z</time></trkpt><trkpt lat="46.0286495" lon="13.4742171"><ele>84.0</ele><time>2026-05-03T08:36:55.115Z</time></trkpt><trkpt lat="46.0286979" lon="13.4740049"><ele>84.0</ele><time>2026-05-03T08:36:56.122Z</time></trkpt><trkpt lat="46.0287387" lon="13.473793"><ele>84.0</ele><time>2026-05-03T08:36:57.113Z</time></trkpt><trkpt lat="46.0287684" lon="13.4736019"><ele>84.0</ele><time>2026-05-03T08:36:58.115Z</time></trkpt><trkpt lat="46.028793" lon="13.4734232"><ele>84.0</ele><time>2026-05-03T08:36:59.121Z</time></trkpt><trkpt lat="46.0287973" lon="13.4732566"><ele>85.5</ele><time>2026-05-03T08:37:00.126Z</time></trkpt><trkpt lat="46.028766" lon="13.4730965"><ele>87.0</ele><time>2026-05-03T08:37:01.124Z</time></trkpt><trkpt lat="46.0287035" lon="13.4729404"><ele>88.5</ele><time>2026-05-03T08:37:02.106Z</time></trkpt><trkpt lat="46.0286381" lon="13.4727851"><ele>90.0</ele><time>2026-05-03T08:37:03.112Z</time></trkpt><trkpt lat="46.0285851" lon="13.4726328"><ele>90.0</ele><time>2026-05-03T08:37:04.12Z</time></trkpt><trkpt lat="46.0285429" lon="13.4724929"><ele>90.0</ele><time>2026-05-03T08:37:05.124Z</time></trkpt><trkpt lat="46.0285095" lon="13.472373"><ele>90.0</ele><time>2026-05-03T08:37:06.124Z</time></trkpt><trkpt lat="46.0284801" lon="13.4722631"><ele>90.0</ele><time>2026-05-03T08:37:07.123Z</time></trkpt><trkpt lat="46.0284676" lon="13.4721404"><ele>90.0</ele><time>2026-05-03T08:37:08.111Z</time></trkpt><trkpt lat="46.0284674" lon="13.4720014"><ele>90.6</ele><time>2026-05-03T08:37:09.109Z</time></trkpt><trkpt lat="46.0284775" lon="13.4718387"><ele>91.2</ele><time>2026-05-03T08:37:10.121Z</time></trkpt><trkpt lat="46.0284828" lon="13.4716789"><ele>91.80000000000001</ele><time>2026-05-03T08:37:11.122Z</time></trkpt><trkpt lat="46.028478" lon="13.4715207"><ele>92.4</ele><time>2026-05-03T08:37:12.11Z</time></trkpt><trkpt lat="46.0284624" lon="13.4713607"><ele>93.0</ele><time>2026-05-03T08:37:13.117Z</time></trkpt><trkpt lat="46.0284259" lon="13.4711851"><ele>94.0</ele><time>2026-05-03T08:37:14.119Z</time></trkpt><trkpt lat="46.0283661" lon="13.4709928"><ele>95.0</ele><time>2026-05-03T08:37:15.12Z</time></trkpt><trkpt lat="46.0282957" lon="13.4707935"><ele>96.0</ele><time>2026-05-03T08:37:16.113Z</time></trkpt><trkpt lat="46.0282295" lon="13.4705834"><ele>97.66666666666666</ele><time>2026-05-03T08:37:17.127Z</time></trkpt><trkpt lat="46.0281781" lon="13.4703585"><ele>99.33333333333333</ele><time>2026-05-03T08:37:18.106Z</time></trkpt><trkpt lat="46.0281456" lon="13.470138"><ele>101.0</ele><time>2026-05-03T08:37:19.119Z</time></trkpt><trkpt lat="46.0281021" lon="13.4699287"><ele>101.0</ele><time>2026-05-03T08:37:20.107Z</time></trkpt><trkpt lat="46.0280268" lon="13.4697374"><ele>101.0</ele><time>2026-05-03T08:37:21.105Z</time></trkpt><trkpt lat="46.0279333" lon="13.4695754"><ele>101.0</ele><time>2026-05-03T08:37:22.118Z</time></trkpt><trkpt lat="46.0278334" lon="13.4694394"><ele>101.0</ele><time>2026-05-03T08:37:23.109Z</time></trkpt><trkpt lat="46.0277061" lon="13.4693342"><ele>103.66666666666666</ele><time>2026-05-03T08:37:24.123Z</time></trkpt><trkpt lat="46.0275478" lon="13.4692517"><ele>106.33333333333334</ele><time>2026-05-03T08:37:25.128Z</time></trkpt><trkpt lat="46.0273879" lon="13.4691915"><ele>109.0</ele><time>2026-05-03T08:37:26.133Z</time></trkpt><trkpt lat="46.0272265" lon="13.4691286"><ele>109.0</ele><time>2026-05-03T08:37:27.116Z</time></trkpt><trkpt lat="46.0270731" lon="13.4690709"><ele>109.0</ele><time>2026-05-03T08:37:28.119Z</time></trkpt><trkpt lat="46.0269329" lon="13.4690254"><ele>109.0</ele><time>2026-05-03T08:37:29.12Z</time></trkpt><trkpt lat="46.0268025" lon="13.4689774"><ele>109.0</ele><time>2026-05-03T08:37:30.117Z</time></trkpt><trkpt lat="46.0266764" lon="13.4689297"><ele>109.75</ele><time>2026-05-03T08:37:31.125Z</time></trkpt><trkpt lat="46.0265616" lon="13.468864"><ele>110.5</ele><time>2026-05-03T08:37:32.114Z</time></trkpt><trkpt lat="46.0264581" lon="13.4687789"><ele>111.25</ele><time>2026-05-03T08:37:33.132Z</time></trkpt><trkpt lat="46.0263622" lon="13.4686624"><ele>112.0</ele><time>2026-05-03T08:37:34.127Z</time></trkpt><trkpt lat="46.0262662" lon="13.4685476"><ele>112.00000000000001</ele><time>2026-05-03T08:37:35.117Z</time></trkpt><trkpt lat="46.0261726" lon="13.4684657"><ele>112.0</ele><time>2026-05-03T08:37:36.129Z</time></trkpt><trkpt lat="46.026089" lon="13.4684027"><ele>112.0</ele><time>2026-05-03T08:37:37.133Z</time></trkpt><trkpt lat="46.0260189" lon="13.4683382"><ele>112.0</ele><time>2026-05-03T08:37:38.121Z</time></trkpt><trkpt lat="46.0259799" lon="13.468249"><ele>112.00000000000001</ele><time>2026-05-03T08:37:39.127Z</time></trkpt><trkpt lat="46.0259605" lon="13.4681544"><ele>112.0</ele><time>2026-05-03T08:37:40.12Z</time></trkpt><trkpt lat="46.025951" lon="13.4680583"><ele>112.00000000000001</ele><time>2026-05-03T08:37:41.12Z</time></trkpt><trkpt lat="46.0259045" lon="13.4679642"><ele>112.0</ele><time>2026-05-03T08:37:43.125Z</time></trkpt><trkpt lat="46.0258339" lon="13.4679688"><ele>112.0</ele><time>2026-05-03T08:37:46.107Z</time></trkpt><trkpt lat="46.0257594" lon="13.4679696"><ele>112.0</ele><time>2026-05-03T08:37:50.117Z</time></trkpt><trkpt lat="46.0256759" lon="13.4679595"><ele>112.00000000000001</ele><time>2026-05-03T08:37:54.116Z</time></trkpt><trkpt lat="46.0255949" lon="13.4679333"><ele>112.0</ele><time>2026-05-03T08:37:56.113Z</time></trkpt><trkpt lat="46.0255313" lon="13.4679201"><ele>111.19999999999999</ele><time>2026-05-03T08:37:57.112Z</time></trkpt><trkpt lat="46.0254473" lon="13.4679382"><ele>110.39999999999999</ele><time>2026-05-03T08:37:58.125Z</time></trkpt><trkpt lat="46.0253477" lon="13.4679792"><ele>109.60000000000001</ele><time>2026-05-03T08:37:59.112Z</time></trkpt><trkpt lat="46.0252547" lon="13.4680419"><ele>108.80000000000001</ele><time>2026-05-03T08:38:00.117Z</time></trkpt><trkpt lat="46.0251709" lon="13.4681213"><ele>108.0</ele><time>2026-05-03T08:38:01.116Z</time></trkpt><trkpt lat="46.0251031" lon="13.4682231"><ele>108.0</ele><time>2026-05-03T08:38:02.124Z</time></trkpt><trkpt lat="46.0250542" lon="13.4683249"><ele>108.0</ele><time>2026-05-03T08:38:03.111Z</time></trkpt><trkpt lat="46.0250435" lon="13.4684288"><ele>108.0</ele><time>2026-05-03T08:38:04.126Z</time></trkpt><trkpt lat="46.0250755" lon="13.468524"><ele>108.0</ele><time>2026-05-03T08:38:05.115Z</time></trkpt><trkpt lat="46.0251316" lon="13.4686118"><ele>108.0</ele><time>2026-05-03T08:38:06.124Z</time></trkpt><trkpt lat="46.0251922" lon="13.4686883"><ele>108.0</ele><time>2026-05-03T08:38:07.11Z</time></trkpt><trkpt lat="46.0252369" lon="13.4687607"><ele>107.4</ele><time>2026-05-03T08:38:08.12Z</time></trkpt><trkpt lat="46.0252229" lon="13.4689348"><ele>106.80000000000001</ele><time>2026-05-03T08:38:10.115Z</time></trkpt><trkpt lat="46.0251919" lon="13.4690411"><ele>106.2</ele><time>2026-05-03T08:38:12.11Z</time></trkpt><trkpt lat="46.0251431" lon="13.4691824"><ele>105.6</ele><time>2026-05-03T08:38:15.114Z</time></trkpt><trkpt lat="46.0250974" lon="13.4692663"><ele>105.0</ele><time>2026-05-03T08:38:16.127Z</time></trkpt><trkpt lat="46.0250267" lon="13.4693576"><ele>102.75</ele><time>2026-05-03T08:38:17.127Z</time></trkpt><trkpt lat="46.0249334" lon="13.4694462"><ele>100.5</ele><time>2026-05-03T08:38:18.118Z</time></trkpt><trkpt lat="46.0248184" lon="13.4695075"><ele>98.25</ele><time>2026-05-03T08:38:19.12Z</time></trkpt><trkpt lat="46.0247016" lon="13.4695469"><ele>96.0</ele><time>2026-05-03T08:38:20.129Z</time></trkpt><trkpt lat="46.0245956" lon="13.4695788"><ele>95.16666666666667</ele><time>2026-05-03T08:38:21.111Z</time></trkpt><trkpt lat="46.0245176" lon="13.4696091"><ele>94.33333333333333</ele><time>2026-05-03T08:38:22.117Z</time></trkpt><trkpt lat="46.0244404" lon="13.4696644"><ele>93.5</ele><time>2026-05-03T08:38:24.11Z</time></trkpt><trkpt lat="46.0243362" lon="13.4696679"><ele>92.66666666666666</ele><time>2026-05-03T08:38:28.109Z</time></trkpt><trkpt lat="46.02427" lon="13.4696613"><ele>91.83333333333333</ele><time>2026-05-03T08:38:29.12Z</time></trkpt><trkpt lat="46.0241889" lon="13.4696545"><ele>91.0</ele><time>2026-05-03T08:38:30.122Z</time></trkpt><trkpt lat="46.0241013" lon="13.4696453"><ele>90.83333333333333</ele><time>2026-05-03T08:38:31.114Z</time></trkpt><trkpt lat="46.0240167" lon="13.4696301"><ele>90.66666666666666</ele><time>2026-05-03T08:38:32.124Z</time></trkpt><trkpt lat="46.0239479" lon="13.4696088"><ele>90.5</ele><time>2026-05-03T08:38:33.114Z</time></trkpt><trkpt lat="46.0238893" lon="13.469569"><ele>90.33333333333333</ele><time>2026-05-03T08:38:34.112Z</time></trkpt><trkpt lat="46.023834" lon="13.46951"><ele>90.16666666666667</ele><time>2026-05-03T08:38:35.111Z</time></trkpt><trkpt lat="46.0237872" lon="13.4694469"><ele>90.0</ele><time>2026-05-03T08:38:36.123Z</time></trkpt><trkpt lat="46.0237092" lon="13.4693408"><ele>90.0</ele><time>2026-05-03T08:38:38.117Z</time></trkpt><trkpt lat="46.0236118" lon="13.4692549"><ele>90.0</ele><time>2026-05-03T08:38:40.14Z</time></trkpt><trkpt lat="46.0235496" lon="13.4692066"><ele>90.0</ele><time>2026-05-03T08:38:41.121Z</time></trkpt><trkpt lat="46.0234888" lon="13.4691578"><ele>90.0</ele><time>2026-05-03T08:38:42.103Z</time></trkpt><trkpt lat="46.0233932" lon="13.4690403"><ele>90.0</ele><time>2026-05-03T08:38:44.119Z</time></trkpt><trkpt lat="46.023307" lon="13.4688978"><ele>90.0</ele><time>2026-05-03T08:38:46.121Z</time></trkpt><trkpt lat="46.0232673" lon="13.4687918"><ele>90.0</ele><time>2026-05-03T08:38:47.11Z</time></trkpt><trkpt lat="46.0232222" lon="13.4686734"><ele>90.0</ele><time>2026-05-03T08:38:48.114Z</time></trkpt><trkpt lat="46.0231721" lon="13.468564"><ele>90.0</ele><time>2026-05-03T08:38:49.107Z</time></trkpt><trkpt lat="46.0231238" lon="13.4684663"><ele>90.0</ele><time>2026-05-03T08:38:50.111Z</time></trkpt><trkpt lat="46.0230813" lon="13.468395"><ele>90.0</ele><time>2026-05-03T08:38:51.116Z</time></trkpt><trkpt lat="46.0230034" lon="13.4683676"><ele>90.0</ele><time>2026-05-03T08:38:53.115Z</time></trkpt><trkpt lat="46.0229051" lon="13.4684624"><ele>90.0</ele><time>2026-05-03T08:38:55.111Z</time></trkpt><trkpt lat="46.0228305" lon="13.4685334"><ele>90.0</ele><time>2026-05-03T08:38:56.124Z</time></trkpt><trkpt lat="46.0227361" lon="13.4685904"><ele>90.0</ele><time>2026-05-03T08:38:57.118Z</time></trkpt><trkpt lat="46.0226241" lon="13.4686332"><ele>90.0</ele><time>2026-05-03T08:38:58.123Z</time></trkpt><trkpt lat="46.0225073" lon="13.4686717"><ele>90.0</ele><time>2026-05-03T08:38:59.113Z</time></trkpt><trkpt lat="46.0223813" lon="13.4687149"><ele>90.0</ele><time>2026-05-03T08:39:00.118Z</time></trkpt><trkpt lat="46.0222604" lon="13.4687606"><ele>90.0</ele><time>2026-05-03T08:39:01.124Z</time></trkpt><trkpt lat="46.0221439" lon="13.4688049"><ele>90.0</ele><time>2026-05-03T08:39:02.119Z</time></trkpt><trkpt lat="46.0220331" lon="13.4688439"><ele>88.75</ele><time>2026-05-03T08:39:03.11Z</time></trkpt><trkpt lat="46.0219169" lon="13.4688707"><ele>87.5</ele><time>2026-05-03T08:39:04.115Z</time></trkpt><trkpt lat="46.0217881" lon="13.4688779"><ele>86.25</ele><time>2026-05-03T08:39:05.119Z</time></trkpt><trkpt lat="46.0216577" lon="13.4688787"><ele>85.0</ele><time>2026-05-03T08:39:06.128Z</time></trkpt><trkpt lat="46.0215276" lon="13.4688873"><ele>84.75</ele><time>2026-05-03T08:39:07.122Z</time></trkpt><trkpt lat="46.0214015" lon="13.4689198"><ele>84.5</ele><time>2026-05-03T08:39:08.124Z</time></trkpt><trkpt lat="46.0212745" lon="13.4689557"><ele>84.25</ele><time>2026-05-03T08:39:09.117Z</time></trkpt><trkpt lat="46.021152" lon="13.4689929"><ele>84.0</ele><time>2026-05-03T08:39:10.115Z</time></trkpt><trkpt lat="46.0210414" lon="13.4690296"><ele>84.0</ele><time>2026-05-03T08:39:11.127Z</time></trkpt><trkpt lat="46.0209463" lon="13.4690597"><ele>84.0</ele><time>2026-05-03T08:39:12.128Z</time></trkpt><trkpt lat="46.020859" lon="13.4690814"><ele>84.0</ele><time>2026-05-03T08:39:13.132Z</time></trkpt><trkpt lat="46.0207872" lon="13.4690772"><ele>84.0</ele><time>2026-05-03T08:39:14.135Z</time></trkpt><trkpt lat="46.020723" lon="13.4690417"><ele>84.0</ele><time>2026-05-03T08:39:15.124Z</time></trkpt><trkpt lat="46.0206434" lon="13.4689781"><ele>84.0</ele><time>2026-05-03T08:39:16.129Z</time></trkpt><trkpt lat="46.0205444" lon="13.4688942"><ele>84.25</ele><time>2026-05-03T08:39:17.122Z</time></trkpt><trkpt lat="46.0204301" lon="13.4688032"><ele>84.5</ele><time>2026-05-03T08:39:18.129Z</time></trkpt><trkpt lat="46.0203018" lon="13.4687059"><ele>84.75</ele><time>2026-05-03T08:39:19.129Z</time></trkpt><trkpt lat="46.0201677" lon="13.4686007"><ele>85.0</ele><time>2026-05-03T08:39:20.127Z</time></trkpt><trkpt lat="46.020031" lon="13.4684947"><ele>85.33333333333333</ele><time>2026-05-03T08:39:21.119Z</time></trkpt><trkpt lat="46.0198947" lon="13.4683865"><ele>85.66666666666667</ele><time>2026-05-03T08:39:22.122Z</time></trkpt><trkpt lat="46.0197587" lon="13.4682836"><ele>86.0</ele><time>2026-05-03T08:39:23.13Z</time></trkpt><trkpt lat="46.0196291" lon="13.4681877"><ele>86.0</ele><time>2026-05-03T08:39:24.122Z</time></trkpt><trkpt lat="46.0195107" lon="13.4681006"><ele>86.0</ele><time>2026-05-03T08:39:25.116Z</time></trkpt><trkpt lat="46.0193899" lon="13.4680137"><ele>86.0</ele><time>2026-05-03T08:39:26.124Z</time></trkpt><trkpt lat="46.0192644" lon="13.4679218"><ele>86.0</ele><time>2026-05-03T08:39:27.126Z</time></trkpt><trkpt lat="46.0191433" lon="13.4678328"><ele>85.75</ele><time>2026-05-03T08:39:28.122Z</time></trkpt><trkpt lat="46.0190277" lon="13.4677469"><ele>85.5</ele><time>2026-05-03T08:39:29.128Z</time></trkpt><trkpt lat="46.0189101" lon="13.4676664"><ele>85.25</ele><time>2026-05-03T08:39:30.14Z</time></trkpt><trkpt lat="46.01879" lon="13.4675967"><ele>85.0</ele><time>2026-05-03T08:39:31.123Z</time></trkpt><trkpt lat="46.0186755" lon="13.4675424"><ele>85.0</ele><time>2026-05-03T08:39:32.12Z</time></trkpt><trkpt lat="46.0185729" lon="13.4674891"><ele>85.0</ele><time>2026-05-03T08:39:33.121Z</time></trkpt><trkpt lat="46.0184865" lon="13.4674539"><ele>85.0</ele><time>2026-05-03T08:39:34.131Z</time></trkpt><trkpt lat="46.0184148" lon="13.467429"><ele>85.0</ele><time>2026-05-03T08:39:35.131Z</time></trkpt><trkpt lat="46.0182964" lon="13.4673933"><ele>85.0</ele><time>2026-05-03T08:39:37.134Z</time></trkpt><trkpt lat="46.0181709" lon="13.4673706"><ele>84.5</ele><time>2026-05-03T08:39:39.124Z</time></trkpt><trkpt lat="46.018104" lon="13.467367"><ele>84.0</ele><time>2026-05-03T08:39:40.127Z</time></trkpt><trkpt lat="46.0180387" lon="13.4673705"><ele>83.5</ele><time>2026-05-03T08:39:41.122Z</time></trkpt><trkpt lat="46.0179188" lon="13.4673712"><ele>83.0</ele><time>2026-05-03T08:39:43.132Z</time></trkpt><trkpt lat="46.017815" lon="13.4673607"><ele>82.5</ele><time>2026-05-03T08:39:45.138Z</time></trkpt><trkpt lat="46.0177284" lon="13.4673588"><ele>82.0</ele><time>2026-05-03T08:39:47.127Z</time></trkpt><trkpt lat="46.0176166" lon="13.4673899"><ele>82.0</ele><time>2026-05-03T08:39:49.124Z</time></trkpt><trkpt lat="46.0175085" lon="13.4674417"><ele>82.0</ele><time>2026-05-03T08:39:51.137Z</time></trkpt><trkpt lat="46.0174451" lon="13.4675628"><ele>82.0</ele><time>2026-05-03T08:39:53.126Z</time></trkpt><trkpt lat="46.0174077" lon="13.4677404"><ele>82.0</ele><time>2026-05-03T08:39:55.133Z</time></trkpt><trkpt lat="46.0173831" lon="13.4678654"><ele>82.0</ele><time>2026-05-03T08:39:56.137Z</time></trkpt><trkpt lat="46.0173584" lon="13.4679934"><ele>81.83333333333333</ele><time>2026-05-03T08:39:57.125Z</time></trkpt><trkpt lat="46.0173506" lon="13.4681019"><ele>81.66666666666666</ele><time>2026-05-03T08:39:58.133Z</time></trkpt><trkpt lat="46.0173721" lon="13.4681888"><ele>81.5</ele><time>2026-05-03T08:39:59.13Z</time></trkpt><trkpt lat="46.0174238" lon="13.4682445"><ele>81.33333333333333</ele><time>2026-05-03T08:40:00.132Z</time></trkpt><trkpt lat="46.0174995" lon="13.468278"><ele>81.16666666666667</ele><time>2026-05-03T08:40:01.128Z</time></trkpt><trkpt lat="46.0175848" lon="13.4682988"><ele>81.0</ele><time>2026-05-03T08:40:02.125Z</time></trkpt><trkpt lat="46.0176651" lon="13.4683298"><ele>81.0</ele><time>2026-05-03T08:40:03.144Z</time></trkpt><trkpt lat="46.0177285" lon="13.4683858"><ele>81.0</ele><time>2026-05-03T08:40:04.136Z</time></trkpt><trkpt lat="46.017784" lon="13.4684625"><ele>81.0</ele><time>2026-05-03T08:40:05.134Z</time></trkpt><trkpt lat="46.017838" lon="13.468573"><ele>81.0</ele><time>2026-05-03T08:40:06.131Z</time></trkpt><trkpt lat="46.0178974" lon="13.4686916"><ele>81.0</ele><time>2026-05-03T08:40:07.128Z</time></trkpt><trkpt lat="46.0179536" lon="13.4688002"><ele>81.0</ele><time>2026-05-03T08:40:08.138Z</time></trkpt><trkpt lat="46.0179977" lon="13.4689057"><ele>80.16666666666667</ele><time>2026-05-03T08:40:09.118Z</time></trkpt><trkpt lat="46.0180133" lon="13.4690267"><ele>79.33333333333333</ele><time>2026-05-03T08:40:10.141Z</time></trkpt><trkpt lat="46.0179994" lon="13.4691483"><ele>78.5</ele><time>2026-05-03T08:40:11.132Z</time></trkpt><trkpt lat="46.0179549" lon="13.4692601"><ele>77.66666666666666</ele><time>2026-05-03T08:40:12.119Z</time></trkpt><trkpt lat="46.0179072" lon="13.4693576"><ele>76.83333333333333</ele><time>2026-05-03T08:40:13.119Z</time></trkpt><trkpt lat="46.0178551" lon="13.4694239"><ele>76.0</ele><time>2026-05-03T08:40:14.123Z</time></trkpt><trkpt lat="46.0177694" lon="13.4694687"><ele>76.0</ele><time>2026-05-03T08:40:16.116Z</time></trkpt><trkpt lat="46.0176594" lon="13.4694234"><ele>76.0</ele><time>2026-05-03T08:40:18.117Z</time></trkpt><trkpt lat="46.017566" lon="13.4693845"><ele>76.0</ele><time>2026-05-03T08:40:20.117Z</time></trkpt><trkpt lat="46.0174966" lon="13.4693579"><ele>76.0</ele><time>2026-05-03T08:40:21.115Z</time></trkpt><trkpt lat="46.0174156" lon="13.4693255"><ele>76.0</ele><time>2026-05-03T08:40:22.13Z</time></trkpt><trkpt lat="46.0173139" lon="13.4692773"><ele>75.75</ele><time>2026-05-03T08:40:23.115Z</time></trkpt><trkpt lat="46.0172016" lon="13.4692233"><ele>75.5</ele><time>2026-05-03T08:40:24.133Z</time></trkpt><trkpt lat="46.0170682" lon="13.4691605"><ele>75.25</ele><time>2026-05-03T08:40:25.113Z</time></trkpt><trkpt lat="46.0169282" lon="13.4690934"><ele>75.0</ele><time>2026-05-03T08:40:26.126Z</time></trkpt><trkpt lat="46.0167812" lon="13.4690254"><ele>74.66666666666667</ele><time>2026-05-03T08:40:27.118Z</time></trkpt><trkpt lat="46.0166264" lon="13.4689541"><ele>74.33333333333334</ele><time>2026-05-03T08:40:28.128Z</time></trkpt><trkpt lat="46.0164631" lon="13.4688808"><ele>74.0</ele><time>2026-05-03T08:40:29.124Z</time></trkpt><trkpt lat="46.0162924" lon="13.4688018"><ele>73.66666666666667</ele><time>2026-05-03T08:40:30.124Z</time></trkpt><trkpt lat="46.0161212" lon="13.4687132"><ele>73.33333333333333</ele><time>2026-05-03T08:40:31.126Z</time></trkpt><trkpt lat="46.015951" lon="13.468608"><ele>73.0</ele><time>2026-05-03T08:40:32.127Z</time></trkpt><trkpt lat="46.0157837" lon="13.4684761"><ele>73.0</ele><time>2026-05-03T08:40:33.12Z</time></trkpt><trkpt lat="46.0156206" lon="13.4683274"><ele>73.0</ele><time>2026-05-03T08:40:34.121Z</time></trkpt><trkpt lat="46.0154612" lon="13.4681646"><ele>73.0</ele><time>2026-05-03T08:40:35.112Z</time></trkpt><trkpt lat="46.0152992" lon="13.4679949"><ele>73.33333333333333</ele><time>2026-05-03T08:40:36.122Z</time></trkpt><trkpt lat="46.0151376" lon="13.4678269"><ele>73.66666666666667</ele><time>2026-05-03T08:40:37.12Z</time></trkpt><trkpt lat="46.0149738" lon="13.4676637"><ele>74.0</ele><time>2026-05-03T08:40:38.125Z</time></trkpt><trkpt lat="46.0148137" lon="13.4675195"><ele>74.0</ele><time>2026-05-03T08:40:39.114Z</time></trkpt><trkpt lat="46.0146476" lon="13.4673915"><ele>74.0</ele><time>2026-05-03T08:40:40.128Z</time></trkpt><trkpt lat="46.0144688" lon="13.4672804"><ele>74.0</ele><time>2026-05-03T08:40:41.13Z</time></trkpt><trkpt lat="46.0142855" lon="13.4671867"><ele>74.66666666666667</ele><time>2026-05-03T08:40:42.123Z</time></trkpt><trkpt lat="46.014101" lon="13.4671105"><ele>75.33333333333333</ele><time>2026-05-03T08:40:43.134Z</time></trkpt><trkpt lat="46.0139132" lon="13.4670534"><ele>76.0</ele><time>2026-05-03T08:40:44.118Z</time></trkpt><trkpt lat="46.0137194" lon="13.4669997"><ele>76.0</ele><time>2026-05-03T08:40:45.151Z</time></trkpt><trkpt lat="46.0135264" lon="13.4669558"><ele>76.0</ele><time>2026-05-03T08:40:46.117Z</time></trkpt><trkpt lat="46.0133313" lon="13.4669105"><ele>76.0</ele><time>2026-05-03T08:40:47.118Z</time></trkpt><trkpt lat="46.0131388" lon="13.4668686"><ele>75.0</ele><time>2026-05-03T08:40:48.124Z</time></trkpt><trkpt lat="46.0129496" lon="13.4668188"><ele>74.0</ele><time>2026-05-03T08:40:49.12Z</time></trkpt><trkpt lat="46.0127675" lon="13.4667547"><ele>73.0</ele><time>2026-05-03T08:40:50.126Z</time></trkpt><trkpt lat="46.0125897" lon="13.4666593"><ele>72.33333333333333</ele><time>2026-05-03T08:40:51.134Z</time></trkpt><trkpt lat="46.0124158" lon="13.4665517"><ele>71.66666666666667</ele><time>2026-05-03T08:40:52.133Z</time></trkpt><trkpt lat="46.0122405" lon="13.4664391"><ele>71.0</ele><time>2026-05-03T08:40:53.125Z</time></trkpt><trkpt lat="46.0120645" lon="13.4663224"><ele>71.0</ele><time>2026-05-03T08:40:54.138Z</time></trkpt><trkpt lat="46.0118895" lon="13.4662037"><ele>71.0</ele><time>2026-05-03T08:40:55.133Z</time></trkpt><trkpt lat="46.0117106" lon="13.4660843"><ele>71.0</ele><time>2026-05-03T08:40:56.126Z</time></trkpt><trkpt lat="46.0115313" lon="13.4659649"><ele>71.0</ele><time>2026-05-03T08:40:57.12Z</time></trkpt><trkpt lat="46.01135" lon="13.4658481"><ele>71.0</ele><time>2026-05-03T08:40:58.126Z</time></trkpt><trkpt lat="46.0111698" lon="13.4657294"><ele>71.0</ele><time>2026-05-03T08:40:59.125Z</time></trkpt><trkpt lat="46.0109931" lon="13.4656089"><ele>71.0</ele><time>2026-05-03T08:41:00.124Z</time></trkpt><trkpt lat="46.0108161" lon="13.465489"><ele>71.0</ele><time>2026-05-03T08:41:01.132Z</time></trkpt><trkpt lat="46.0106406" lon="13.4653725"><ele>71.0</ele><time>2026-05-03T08:41:02.123Z</time></trkpt><trkpt lat="46.0104636" lon="13.465257"><ele>70.66666666666667</ele><time>2026-05-03T08:41:03.13Z</time></trkpt><trkpt lat="46.0102862" lon="13.4651425"><ele>70.33333333333333</ele><time>2026-05-03T08:41:04.127Z</time></trkpt><trkpt lat="46.0101078" lon="13.465028"><ele>70.0</ele><time>2026-05-03T08:41:05.13Z</time></trkpt><trkpt lat="46.0099288" lon="13.4649089"><ele>70.0</ele><time>2026-05-03T08:41:06.124Z</time></trkpt><trkpt lat="46.0097495" lon="13.4647842"><ele>70.0</ele><time>2026-05-03T08:41:07.126Z</time></trkpt><trkpt lat="46.0095691" lon="13.4646687"><ele>70.0</ele><time>2026-05-03T08:41:08.118Z</time></trkpt><trkpt lat="46.0093889" lon="13.4645515"><ele>69.66666666666666</ele><time>2026-05-03T08:41:09.113Z</time></trkpt><trkpt lat="46.0092109" lon="13.4644365"><ele>69.33333333333333</ele><time>2026-05-03T08:41:10.122Z</time></trkpt><trkpt lat="46.0090461" lon="13.4643303"><ele>69.0</ele><time>2026-05-03T08:41:11.121Z</time></trkpt><trkpt lat="46.0088954" lon="13.4642459"><ele>69.0</ele><time>2026-05-03T08:41:12.123Z</time></trkpt><trkpt lat="46.0087571" lon="13.4641831"><ele>69.0</ele><time>2026-05-03T08:41:13.126Z</time></trkpt><trkpt lat="46.0086283" lon="13.4641456"><ele>69.0</ele><time>2026-05-03T08:41:14.115Z</time></trkpt><trkpt lat="46.0085101" lon="13.4641374"><ele>69.0</ele><time>2026-05-03T08:41:15.128Z</time></trkpt><trkpt lat="46.008394" lon="13.464141"><ele>68.8</ele><time>2026-05-03T08:41:16.117Z</time></trkpt><trkpt lat="46.0082826" lon="13.4641569"><ele>68.60000000000001</ele><time>2026-05-03T08:41:17.126Z</time></trkpt><trkpt lat="46.0081762" lon="13.4641846"><ele>68.4</ele><time>2026-05-03T08:41:18.126Z</time></trkpt><trkpt lat="46.008077" lon="13.4642284"><ele>68.2</ele><time>2026-05-03T08:41:19.125Z</time></trkpt><trkpt lat="46.0079845" lon="13.4642785"><ele>68.0</ele><time>2026-05-03T08:41:20.138Z</time></trkpt><trkpt lat="46.0079004" lon="13.4643349"><ele>68.0</ele><time>2026-05-03T08:41:21.116Z</time></trkpt><trkpt lat="46.007821" lon="13.4643909"><ele>68.0</ele><time>2026-05-03T08:41:22.137Z</time></trkpt><trkpt lat="46.0077491" lon="13.4644442"><ele>68.0</ele><time>2026-05-03T08:41:23.114Z</time></trkpt><trkpt lat="46.0076815" lon="13.4645012"><ele>68.0</ele><time>2026-05-03T08:41:24.142Z</time></trkpt><trkpt lat="46.0076117" lon="13.4645622"><ele>68.0</ele><time>2026-05-03T08:41:25.126Z</time></trkpt><trkpt lat="46.0075362" lon="13.464633"><ele>68.0</ele><time>2026-05-03T08:41:26.123Z</time></trkpt><trkpt lat="46.0074555" lon="13.4647066"><ele>69.0</ele><time>2026-05-03T08:41:27.14Z</time></trkpt><trkpt lat="46.0073602" lon="13.4647977"><ele>70.0</ele><time>2026-05-03T08:41:28.136Z</time></trkpt><trkpt lat="46.007253" lon="13.464897"><ele>71.0</ele><time>2026-05-03T08:41:29.117Z</time></trkpt><trkpt lat="46.0071368" lon="13.464997"><ele>72.0</ele><time>2026-05-03T08:41:30.124Z</time></trkpt><trkpt lat="46.0070269" lon="13.4650933"><ele>72.0</ele><time>2026-05-03T08:41:31.118Z</time></trkpt><trkpt lat="46.0069065" lon="13.4652031"><ele>72.0</ele><time>2026-05-03T08:41:32.14Z</time></trkpt><trkpt lat="46.0067731" lon="13.4653246"><ele>72.0</ele><time>2026-05-03T08:41:33.124Z</time></trkpt><trkpt lat="46.0066148" lon="13.4654651"><ele>71.33333333333333</ele><time>2026-05-03T08:41:34.128Z</time></trkpt><trkpt lat="46.0064519" lon="13.4656128"><ele>70.66666666666666</ele><time>2026-05-03T08:41:35.104Z</time></trkpt><trkpt lat="46.0062921" lon="13.4657709"><ele>70.0</ele><time>2026-05-03T08:41:36.115Z</time></trkpt><trkpt lat="46.0061428" lon="13.4659507"><ele>70.0</ele><time>2026-05-03T08:41:37.112Z</time></trkpt><trkpt lat="46.0060106" lon="13.4661211"><ele>70.0</ele><time>2026-05-03T08:41:38.105Z</time></trkpt><trkpt lat="46.0059057" lon="13.466286"><ele>70.0</ele><time>2026-05-03T08:41:39.113Z</time></trkpt><trkpt lat="46.0058143" lon="13.4664197"><ele>71.8</ele><time>2026-05-03T08:41:40.116Z</time></trkpt><trkpt lat="46.0057228" lon="13.4665228"><ele>73.6</ele><time>2026-05-03T08:41:41.115Z</time></trkpt><trkpt lat="46.0056327" lon="13.4666087"><ele>75.4</ele><time>2026-05-03T08:41:42.11Z</time></trkpt><trkpt lat="46.0055489" lon="13.4666619"><ele>77.2</ele><time>2026-05-03T08:41:43.121Z</time></trkpt><trkpt lat="46.0054404" lon="13.4666836"><ele>79.0</ele><time>2026-05-03T08:41:44.102Z</time></trkpt><trkpt lat="46.0053211" lon="13.466686"><ele>79.0</ele><time>2026-05-03T08:41:45.109Z</time></trkpt><trkpt lat="46.0051925" lon="13.4666805"><ele>79.0</ele><time>2026-05-03T08:41:46.106Z</time></trkpt><trkpt lat="46.0050609" lon="13.4666842"><ele>79.0</ele><time>2026-05-03T08:41:47.104Z</time></trkpt><trkpt lat="46.0049205" lon="13.4666795"><ele>79.0</ele><time>2026-05-03T08:41:48.103Z</time></trkpt><trkpt lat="46.0047708" lon="13.4666729"><ele>79.66666666666666</ele><time>2026-05-03T08:41:49.114Z</time></trkpt><trkpt lat="46.0046186" lon="13.4666696"><ele>80.33333333333333</ele><time>2026-05-03T08:41:50.108Z</time></trkpt><trkpt lat="46.0044664" lon="13.4666655"><ele>81.0</ele><time>2026-05-03T08:41:51.104Z</time></trkpt><trkpt lat="46.0043197" lon="13.4666679"><ele>81.0</ele><time>2026-05-03T08:41:52.114Z</time></trkpt><trkpt lat="46.0041763" lon="13.4666738"><ele>81.0</ele><time>2026-05-03T08:41:53.106Z</time></trkpt><trkpt lat="46.0040362" lon="13.4667054"><ele>81.0</ele><time>2026-05-03T08:41:54.104Z</time></trkpt><trkpt lat="46.0039074" lon="13.4667753"><ele>81.0</ele><time>2026-05-03T08:41:55.097Z</time></trkpt><trkpt lat="46.0037925" lon="13.4668973"><ele>81.0</ele><time>2026-05-03T08:41:56.113Z</time></trkpt><trkpt lat="46.0036946" lon="13.4670598"><ele>81.0</ele><time>2026-05-03T08:41:57.105Z</time></trkpt><trkpt lat="46.0036169" lon="13.4672547"><ele>81.0</ele><time>2026-05-03T08:41:58.104Z</time></trkpt><trkpt lat="46.0035521" lon="13.4674664"><ele>79.66666666666667</ele><time>2026-05-03T08:41:59.112Z</time></trkpt><trkpt lat="46.0034838" lon="13.4676822"><ele>78.33333333333334</ele><time>2026-05-03T08:42:00.12Z</time></trkpt><trkpt lat="46.0033972" lon="13.4678771"><ele>77.0</ele><time>2026-05-03T08:42:01.118Z</time></trkpt><trkpt lat="46.0032956" lon="13.4680579"><ele>75.75</ele><time>2026-05-03T08:42:02.118Z</time></trkpt><trkpt lat="46.003194" lon="13.4682195"><ele>74.5</ele><time>2026-05-03T08:42:03.111Z</time></trkpt><trkpt lat="46.0030986" lon="13.4683553"><ele>73.25</ele><time>2026-05-03T08:42:04.123Z</time></trkpt><trkpt lat="46.0030063" lon="13.4684684"><ele>72.0</ele><time>2026-05-03T08:42:05.11Z</time></trkpt><trkpt lat="46.0029144" lon="13.4685745"><ele>72.0</ele><time>2026-05-03T08:42:06.124Z</time></trkpt><trkpt lat="46.0028314" lon="13.468675"><ele>72.0</ele><time>2026-05-03T08:42:07.112Z</time></trkpt><trkpt lat="46.002749" lon="13.4687578"><ele>72.0</ele><time>2026-05-03T08:42:08.112Z</time></trkpt><trkpt lat="46.002653" lon="13.4688308"><ele>72.0</ele><time>2026-05-03T08:42:09.135Z</time></trkpt><trkpt lat="46.0025296" lon="13.4688914"><ele>72.0</ele><time>2026-05-03T08:42:10.13Z</time></trkpt><trkpt lat="46.0023861" lon="13.4689551"><ele>71.33333333333333</ele><time>2026-05-03T08:42:11.136Z</time></trkpt><trkpt lat="46.0022333" lon="13.4690299"><ele>70.66666666666666</ele><time>2026-05-03T08:42:12.114Z</time></trkpt><trkpt lat="46.0020747" lon="13.4691075"><ele>70.0</ele><time>2026-05-03T08:42:13.117Z</time></trkpt><trkpt lat="46.0019158" lon="13.46919"><ele>70.0</ele><time>2026-05-03T08:42:14.093Z</time></trkpt><trkpt lat="46.0017503" lon="13.4692706"><ele>70.0</ele><time>2026-05-03T08:42:15.111Z</time></trkpt><trkpt lat="46.0015808" lon="13.4693234"><ele>70.0</ele><time>2026-05-03T08:42:16.123Z</time></trkpt><trkpt lat="46.0014045" lon="13.4693553"><ele>69.33333333333333</ele><time>2026-05-03T08:42:17.107Z</time></trkpt><trkpt lat="46.0012221" lon="13.4693653"><ele>68.66666666666667</ele><time>2026-05-03T08:42:18.111Z</time></trkpt><trkpt lat="46.0010294" lon="13.4693541"><ele>68.0</ele><time>2026-05-03T08:42:19.115Z</time></trkpt><trkpt lat="46.0008376" lon="13.469303"><ele>68.66666666666667</ele><time>2026-05-03T08:42:20.11Z</time></trkpt><trkpt lat="46.0006482" lon="13.4692343"><ele>69.33333333333333</ele><time>2026-05-03T08:42:21.104Z</time></trkpt><trkpt lat="46.0004578" lon="13.4691573"><ele>70.0</ele><time>2026-05-03T08:42:22.114Z</time></trkpt><trkpt lat="46.0002598" lon="13.469089"><ele>70.0</ele><time>2026-05-03T08:42:23.105Z</time></trkpt><trkpt lat="46.0000548" lon="13.4690173"><ele>70.0</ele><time>2026-05-03T08:42:24.107Z</time></trkpt><trkpt lat="45.9998493" lon="13.4689428"><ele>70.0</ele><time>2026-05-03T08:42:25.121Z</time></trkpt><trkpt lat="45.9996424" lon="13.468867"><ele>70.0</ele><time>2026-05-03T08:42:26.113Z</time></trkpt><trkpt lat="45.9994366" lon="13.4687938"><ele>70.0</ele><time>2026-05-03T08:42:27.106Z</time></trkpt><trkpt lat="45.9992313" lon="13.4687244"><ele>70.0</ele><time>2026-05-03T08:42:28.118Z</time></trkpt><trkpt lat="45.9990273" lon="13.4686589"><ele>68.66666666666666</ele><time>2026-05-03T08:42:29.11Z</time></trkpt><trkpt lat="45.9988214" lon="13.4685926"><ele>67.33333333333333</ele><time>2026-05-03T08:42:30.11Z</time></trkpt><trkpt lat="45.9986169" lon="13.4685386"><ele>66.0</ele><time>2026-05-03T08:42:31.103Z</time></trkpt><trkpt lat="45.998406" lon="13.4685228"><ele>66.66666666666667</ele><time>2026-05-03T08:42:32.106Z</time></trkpt><trkpt lat="45.9981948" lon="13.4685492"><ele>67.33333333333334</ele><time>2026-05-03T08:42:33.097Z</time></trkpt><trkpt lat="45.9979891" lon="13.4686026"><ele>68.0</ele><time>2026-05-03T08:42:34.102Z</time></trkpt><trkpt lat="45.9977818" lon="13.4686765"><ele>68.0</ele><time>2026-05-03T08:42:35.109Z</time></trkpt><trkpt lat="45.9975742" lon="13.4687376"><ele>68.0</ele><time>2026-05-03T08:42:36.104Z</time></trkpt><trkpt lat="45.9973629" lon="13.4687658"><ele>68.0</ele><time>2026-05-03T08:42:37.101Z</time></trkpt><trkpt lat="45.9971491" lon="13.4687578"><ele>67.66666666666667</ele><time>2026-05-03T08:42:38.096Z</time></trkpt><trkpt lat="45.9969342" lon="13.4687088"><ele>67.33333333333333</ele><time>2026-05-03T08:42:39.104Z</time></trkpt><trkpt lat="45.9967198" lon="13.4686452"><ele>67.0</ele><time>2026-05-03T08:42:40.096Z</time></trkpt><trkpt lat="45.9965014" lon="13.4685786"><ele>67.0</ele><time>2026-05-03T08:42:41.106Z</time></trkpt><trkpt lat="45.9962821" lon="13.4685263"><ele>67.0</ele><time>2026-05-03T08:42:42.102Z</time></trkpt><trkpt lat="45.9960616" lon="13.4684788"><ele>67.0</ele><time>2026-05-03T08:42:43.102Z</time></trkpt><trkpt lat="45.9958371" lon="13.4684426"><ele>69.0</ele><time>2026-05-03T08:42:44.097Z</time></trkpt><trkpt lat="45.9956104" lon="13.4684075"><ele>71.0</ele><time>2026-05-03T08:42:45.088Z</time></trkpt><trkpt lat="45.9953776" lon="13.4683711"><ele>71.0</ele><time>2026-05-03T08:42:46.108Z</time></trkpt><trkpt lat="45.9951425" lon="13.468326"><ele>71.0</ele><time>2026-05-03T08:42:47.096Z</time></trkpt><trkpt lat="45.9949073" lon="13.4682817"><ele>72.0</ele><time>2026-05-03T08:42:48.107Z</time></trkpt><trkpt lat="45.9946699" lon="13.4682269"><ele>73.0</ele><time>2026-05-03T08:42:49.105Z</time></trkpt><trkpt lat="45.9944317" lon="13.4681675"><ele>73.0</ele><time>2026-05-03T08:42:50.101Z</time></trkpt><trkpt lat="45.9941947" lon="13.4681088"><ele>73.0</ele><time>2026-05-03T08:42:51.103Z</time></trkpt><trkpt lat="45.9939594" lon="13.4680523"><ele>72.0</ele><time>2026-05-03T08:42:52.096Z</time></trkpt><trkpt lat="45.9937264" lon="13.4679924"><ele>71.0</ele><time>2026-05-03T08:42:53.101Z</time></trkpt><trkpt lat="45.9934982" lon="13.4679349"><ele>69.33333333333334</ele><time>2026-05-03T08:42:54.103Z</time></trkpt><trkpt lat="45.9932823" lon="13.4678739"><ele>67.66666666666667</ele><time>2026-05-03T08:42:55.113Z</time></trkpt><trkpt lat="45.9930731" lon="13.4678154"><ele>66.0</ele><time>2026-05-03T08:42:56.099Z</time></trkpt><trkpt lat="45.9928769" lon="13.4677531"><ele>66.0</ele><time>2026-05-03T08:42:57.114Z</time></trkpt><trkpt lat="45.9926914" lon="13.4676893"><ele>66.0</ele><time>2026-05-03T08:42:58.101Z</time></trkpt><trkpt lat="45.9925181" lon="13.4676338"><ele>66.0</ele><time>2026-05-03T08:42:59.101Z</time></trkpt><trkpt lat="45.9923577" lon="13.4675716"><ele>65.8</ele><time>2026-05-03T08:43:00.106Z</time></trkpt><trkpt lat="45.9922201" lon="13.4675127"><ele>65.6</ele><time>2026-05-03T08:43:01.104Z</time></trkpt><trkpt lat="45.9921093" lon="13.4674665"><ele>65.4</ele><time>2026-05-03T08:43:02.115Z</time></trkpt><trkpt lat="45.9920223" lon="13.4674109"><ele>65.2</ele><time>2026-05-03T08:43:03.103Z</time></trkpt><trkpt lat="45.9919656" lon="13.4673562"><ele>65.0</ele><time>2026-05-03T08:43:04.105Z</time></trkpt><trkpt lat="45.9919332" lon="13.4672249"><ele>65.0</ele><time>2026-05-03T08:43:06.107Z</time></trkpt><trkpt lat="45.9919295" lon="13.4671255"><ele>65.0</ele><time>2026-05-03T08:43:08.111Z</time></trkpt><trkpt lat="45.9919244" lon="13.467014"><ele>65.0</ele><time>2026-05-03T08:43:11.117Z</time></trkpt><trkpt lat="45.9919319" lon="13.4668762"><ele>65.0</ele><time>2026-05-03T08:43:14.122Z</time></trkpt><trkpt lat="45.9919354" lon="13.4667804"><ele>65.0</ele><time>2026-05-03T08:43:15.121Z</time></trkpt><trkpt lat="45.9919459" lon="13.4666253"><ele>65.0</ele><time>2026-05-03T08:43:16.111Z</time></trkpt><trkpt lat="45.9919781" lon="13.4664313"><ele>64.0</ele><time>2026-05-03T08:43:17.11Z</time></trkpt><trkpt lat="45.9920132" lon="13.4661778"><ele>63.0</ele><time>2026-05-03T08:43:18.109Z</time></trkpt><trkpt lat="45.9920277" lon="13.4659231"><ele>62.0</ele><time>2026-05-03T08:43:19.101Z</time></trkpt><trkpt lat="45.9920445" lon="13.4656728"><ele>62.0</ele><time>2026-05-03T08:43:20.104Z</time></trkpt><trkpt lat="45.9920547" lon="13.4654254"><ele>62.0</ele><time>2026-05-03T08:43:21.111Z</time></trkpt><trkpt lat="45.9920355" lon="13.4651778"><ele>62.0</ele><time>2026-05-03T08:43:22.117Z</time></trkpt><trkpt lat="45.9919978" lon="13.4649269"><ele>62.0</ele><time>2026-05-03T08:43:23.108Z</time></trkpt><trkpt lat="45.9919513" lon="13.4646763"><ele>62.0</ele><time>2026-05-03T08:43:24.114Z</time></trkpt><trkpt lat="45.9919062" lon="13.4644297"><ele>62.0</ele><time>2026-05-03T08:43:25.12Z</time></trkpt><trkpt lat="45.9918595" lon="13.4641854"><ele>63.0</ele><time>2026-05-03T08:43:26.113Z</time></trkpt><trkpt lat="45.9918154" lon="13.4639413"><ele>64.0</ele><time>2026-05-03T08:43:27.119Z</time></trkpt><trkpt lat="45.9917757" lon="13.4637081"><ele>65.0</ele><time>2026-05-03T08:43:28.121Z</time></trkpt><trkpt lat="45.9917366" lon="13.4634969"><ele>65.25</ele><time>2026-05-03T08:43:29.125Z</time></trkpt><trkpt lat="45.9917024" lon="13.463306"><ele>65.5</ele><time>2026-05-03T08:43:30.106Z</time></trkpt><trkpt lat="45.9916695" lon="13.4631347"><ele>65.75</ele><time>2026-05-03T08:43:31.102Z</time></trkpt><trkpt lat="45.9916453" lon="13.4629785"><ele>66.0</ele><time>2026-05-03T08:43:32.109Z</time></trkpt><trkpt lat="45.9916323" lon="13.4628403"><ele>66.39999999999999</ele><time>2026-05-03T08:43:33.108Z</time></trkpt><trkpt lat="45.991622" lon="13.4627322"><ele>66.8</ele><time>2026-05-03T08:43:34.109Z</time></trkpt><trkpt lat="45.9916838" lon="13.4625841"><ele>67.19999999999999</ele><time>2026-05-03T08:43:36.098Z</time></trkpt><trkpt lat="45.9917743" lon="13.4625299"><ele>67.6</ele><time>2026-05-03T08:43:37.112Z</time></trkpt><trkpt lat="45.9918934" lon="13.4624789"><ele>68.0</ele><time>2026-05-03T08:43:38.107Z</time></trkpt><trkpt lat="45.9920222" lon="13.4624075"><ele>68.0</ele><time>2026-05-03T08:43:39.111Z</time></trkpt><trkpt lat="45.9921593" lon="13.4623197"><ele>68.0</ele><time>2026-05-03T08:43:40.101Z</time></trkpt><trkpt lat="45.9923112" lon="13.4622161"><ele>68.0</ele><time>2026-05-03T08:43:41.109Z</time></trkpt><trkpt lat="45.9924717" lon="13.4621065"><ele>68.33333333333334</ele><time>2026-05-03T08:43:42.1Z</time></trkpt><trkpt lat="45.9926413" lon="13.4619914"><ele>68.66666666666667</ele><time>2026-05-03T08:43:43.105Z</time></trkpt><trkpt lat="45.9928204" lon="13.4618727"><ele>69.0</ele><time>2026-05-03T08:43:44.108Z</time></trkpt><trkpt lat="45.9930058" lon="13.4617463"><ele>69.0</ele><time>2026-05-03T08:43:45.103Z</time></trkpt><trkpt lat="45.9931971" lon="13.4616229"><ele>69.0</ele><time>2026-05-03T08:43:46.106Z</time></trkpt><trkpt lat="45.993386" lon="13.4614998"><ele>69.0</ele><time>2026-05-03T08:43:47.115Z</time></trkpt><trkpt lat="45.9935663" lon="13.4613797"><ele>70.0</ele><time>2026-05-03T08:43:48.11Z</time></trkpt><trkpt lat="45.9937416" lon="13.4612623"><ele>71.0</ele><time>2026-05-03T08:43:49.112Z</time></trkpt><trkpt lat="45.9939164" lon="13.4611455"><ele>72.0</ele><time>2026-05-03T08:43:50.108Z</time></trkpt><trkpt lat="45.9940863" lon="13.4610289"><ele>71.66666666666667</ele><time>2026-05-03T08:43:51.105Z</time></trkpt><trkpt lat="45.9942487" lon="13.4609176"><ele>71.33333333333334</ele><time>2026-05-03T08:43:52.114Z</time></trkpt><trkpt lat="45.9944035" lon="13.4608085"><ele>71.0</ele><time>2026-05-03T08:43:53.118Z</time></trkpt><trkpt lat="45.9945485" lon="13.4607106"><ele>71.0</ele><time>2026-05-03T08:43:54.128Z</time></trkpt><trkpt lat="45.9946829" lon="13.4606274"><ele>71.0</ele><time>2026-05-03T08:43:55.104Z</time></trkpt><trkpt lat="45.9948116" lon="13.4605555"><ele>71.0</ele><time>2026-05-03T08:43:56.107Z</time></trkpt><trkpt lat="45.9949293" lon="13.4604856"><ele>71.0</ele><time>2026-05-03T08:43:57.109Z</time></trkpt><trkpt lat="45.9950272" lon="13.4604086"><ele>72.2</ele><time>2026-05-03T08:43:58.104Z</time></trkpt><trkpt lat="45.995114" lon="13.4603328"><ele>73.39999999999999</ele><time>2026-05-03T08:43:59.118Z</time></trkpt><trkpt lat="45.9952059" lon="13.4602528"><ele>74.6</ele><time>2026-05-03T08:44:00.108Z</time></trkpt><trkpt lat="45.9953046" lon="13.4601638"><ele>75.8</ele><time>2026-05-03T08:44:01.111Z</time></trkpt><trkpt lat="45.9954033" lon="13.4600645"><ele>77.0</ele><time>2026-05-03T08:44:02.113Z</time></trkpt><trkpt lat="45.9954965" lon="13.4599688"><ele>77.0</ele><time>2026-05-03T08:44:03.119Z</time></trkpt><trkpt lat="45.9955849" lon="13.4598572"><ele>77.0</ele><time>2026-05-03T08:44:04.131Z</time></trkpt><trkpt lat="45.9956631" lon="13.4597232"><ele>77.0</ele><time>2026-05-03T08:44:05.125Z</time></trkpt><trkpt lat="45.9957215" lon="13.459574"><ele>77.0</ele><time>2026-05-03T08:44:06.117Z</time></trkpt><trkpt lat="45.9957616" lon="13.4594294"><ele>77.75</ele><time>2026-05-03T08:44:07.114Z</time></trkpt><trkpt lat="45.9957631" lon="13.4592912"><ele>78.5</ele><time>2026-05-03T08:44:08.116Z</time></trkpt><trkpt lat="45.9957393" lon="13.4591441"><ele>79.25</ele><time>2026-05-03T08:44:09.114Z</time></trkpt><trkpt lat="45.9956952" lon="13.4589807"><ele>80.0</ele><time>2026-05-03T08:44:10.117Z</time></trkpt><trkpt lat="45.995637" lon="13.4588026"><ele>80.5</ele><time>2026-05-03T08:44:11.136Z</time></trkpt><trkpt lat="45.995586" lon="13.4586085"><ele>81.0</ele><time>2026-05-03T08:44:12.109Z</time></trkpt><trkpt lat="45.9955336" lon="13.4584105"><ele>81.5</ele><time>2026-05-03T08:44:13.127Z</time></trkpt><trkpt lat="45.9954803" lon="13.4582264"><ele>82.0</ele><time>2026-05-03T08:44:14.109Z</time></trkpt><trkpt lat="45.9954328" lon="13.4580626"><ele>81.66666666666666</ele><time>2026-05-03T08:44:15.112Z</time></trkpt><trkpt lat="45.9953987" lon="13.4579203"><ele>81.33333333333333</ele><time>2026-05-03T08:44:16.112Z</time></trkpt><trkpt lat="45.9953776" lon="13.4577964"><ele>81.0</ele><time>2026-05-03T08:44:17.113Z</time></trkpt><trkpt lat="45.9953626" lon="13.4576829"><ele>80.66666666666667</ele><time>2026-05-03T08:44:18.131Z</time></trkpt><trkpt lat="45.9953452" lon="13.4575949"><ele>80.33333333333334</ele><time>2026-05-03T08:44:19.116Z</time></trkpt><trkpt lat="45.9953256" lon="13.4574915"><ele>80.0</ele><time>2026-05-03T08:44:21.111Z</time></trkpt><trkpt lat="45.9952842" lon="13.4573526"><ele>80.0</ele><time>2026-05-03T08:44:23.125Z</time></trkpt><trkpt lat="45.9952458" lon="13.4572301"><ele>80.0</ele><time>2026-05-03T08:44:24.116Z</time></trkpt><trkpt lat="45.9952014" lon="13.4570781"><ele>80.0</ele><time>2026-05-03T08:44:25.106Z</time></trkpt><trkpt lat="45.9951578" lon="13.4568985"><ele>80.0</ele><time>2026-05-03T08:44:26.111Z</time></trkpt><trkpt lat="45.9951152" lon="13.4567093"><ele>79.5</ele><time>2026-05-03T08:44:27.121Z</time></trkpt><trkpt lat="45.9950822" lon="13.4565142"><ele>79.0</ele><time>2026-05-03T08:44:28.116Z</time></trkpt><trkpt lat="45.9950687" lon="13.4563081"><ele>78.5</ele><time>2026-05-03T08:44:29.113Z</time></trkpt><trkpt lat="45.9950744" lon="13.4561058"><ele>78.0</ele><time>2026-05-03T08:44:30.116Z</time></trkpt><trkpt lat="45.9950848" lon="13.455931"><ele>78.0</ele><time>2026-05-03T08:44:31.111Z</time></trkpt><trkpt lat="45.9950879" lon="13.4557531"><ele>78.0</ele><time>2026-05-03T08:44:32.113Z</time></trkpt><trkpt lat="45.995096" lon="13.4555431"><ele>78.0</ele><time>2026-05-03T08:44:33.119Z</time></trkpt><trkpt lat="45.9951091" lon="13.4553149"><ele>78.0</ele><time>2026-05-03T08:44:34.115Z</time></trkpt><trkpt lat="45.995123" lon="13.4550777"><ele>78.33333333333333</ele><time>2026-05-03T08:44:35.115Z</time></trkpt><trkpt lat="45.9951442" lon="13.4548367"><ele>78.66666666666666</ele><time>2026-05-03T08:44:36.119Z</time></trkpt><trkpt lat="45.9951746" lon="13.454601"><ele>79.0</ele><time>2026-05-03T08:44:37.129Z</time></trkpt><trkpt lat="45.9952113" lon="13.4543689"><ele>79.0</ele><time>2026-05-03T08:44:38.117Z</time></trkpt><trkpt lat="45.9952471" lon="13.4541287"><ele>79.0</ele><time>2026-05-03T08:44:39.112Z</time></trkpt><trkpt lat="45.9952756" lon="13.453882"><ele>79.0</ele><time>2026-05-03T08:44:40.116Z</time></trkpt><trkpt lat="45.9953033" lon="13.4536335"><ele>79.0</ele><time>2026-05-03T08:44:41.114Z</time></trkpt><trkpt lat="45.9953298" lon="13.4533878"><ele>79.0</ele><time>2026-05-03T08:44:42.113Z</time></trkpt><trkpt lat="45.995358" lon="13.4531663"><ele>79.0</ele><time>2026-05-03T08:44:43.105Z</time></trkpt><trkpt lat="45.9953875" lon="13.4529641"><ele>79.5</ele><time>2026-05-03T08:44:44.111Z</time></trkpt><trkpt lat="45.9954047" lon="13.4527756"><ele>80.0</ele><time>2026-05-03T08:44:45.114Z</time></trkpt><trkpt lat="45.9954029" lon="13.4525889"><ele>80.5</ele><time>2026-05-03T08:44:46.104Z</time></trkpt><trkpt lat="45.9953946" lon="13.4524093"><ele>81.0</ele><time>2026-05-03T08:44:47.113Z</time></trkpt><trkpt lat="45.9953757" lon="13.452247"><ele>80.8</ele><time>2026-05-03T08:44:48.119Z</time></trkpt><trkpt lat="45.9953619" lon="13.4521034"><ele>80.6</ele><time>2026-05-03T08:44:49.106Z</time></trkpt><trkpt lat="45.9953587" lon="13.4519823"><ele>80.4</ele><time>2026-05-03T08:44:50.109Z</time></trkpt><trkpt lat="45.9954069" lon="13.4518582"><ele>80.2</ele><time>2026-05-03T08:44:52.12Z</time></trkpt><trkpt lat="45.9955048" lon="13.4518457"><ele>80.0</ele><time>2026-05-03T08:44:54.113Z</time></trkpt><trkpt lat="45.9955733" lon="13.4518573"><ele>80.0</ele><time>2026-05-03T08:44:55.106Z</time></trkpt><trkpt lat="45.9956564" lon="13.4518479"><ele>80.0</ele><time>2026-05-03T08:44:56.12Z</time></trkpt><trkpt lat="45.9957521" lon="13.4518487"><ele>80.0</ele><time>2026-05-03T08:44:57.111Z</time></trkpt><trkpt lat="45.9958441" lon="13.4518801"><ele>80.0</ele><time>2026-05-03T08:44:58.113Z</time></trkpt><trkpt lat="45.9959329" lon="13.4519476"><ele>80.0</ele><time>2026-05-03T08:44:59.118Z</time></trkpt><trkpt lat="45.9960322" lon="13.4520349"><ele>80.5</ele><time>2026-05-03T08:45:00.11Z</time></trkpt><trkpt lat="45.9961354" lon="13.4521271"><ele>81.0</ele><time>2026-05-03T08:45:01.128Z</time></trkpt><trkpt lat="45.9962455" lon="13.452223"><ele>81.5</ele><time>2026-05-03T08:45:02.116Z</time></trkpt><trkpt lat="45.9963601" lon="13.4523161"><ele>82.0</ele><time>2026-05-03T08:45:03.112Z</time></trkpt><trkpt lat="45.9964821" lon="13.452406"><ele>82.0</ele><time>2026-05-03T08:45:04.112Z</time></trkpt><trkpt lat="45.9966091" lon="13.4524891"><ele>82.0</ele><time>2026-05-03T08:45:05.107Z</time></trkpt><trkpt lat="45.9967203" lon="13.4525607"><ele>82.0</ele><time>2026-05-03T08:45:06.124Z</time></trkpt><trkpt lat="45.9968203" lon="13.4526228"><ele>82.0</ele><time>2026-05-03T08:45:07.122Z</time></trkpt><trkpt lat="45.9969128" lon="13.4526777"><ele>81.8</ele><time>2026-05-03T08:45:08.112Z</time></trkpt><trkpt lat="45.9970061" lon="13.4527227"><ele>81.6</ele><time>2026-05-03T08:45:09.109Z</time></trkpt><trkpt lat="45.9971032" lon="13.4527596"><ele>81.39999999999999</ele><time>2026-05-03T08:45:10.111Z</time></trkpt><trkpt lat="45.9971939" lon="13.4527759"><ele>81.19999999999999</ele><time>2026-05-03T08:45:11.112Z</time></trkpt><trkpt lat="45.9972866" lon="13.4527985"><ele>81.0</ele><time>2026-05-03T08:45:12.121Z</time></trkpt><trkpt lat="45.9973825" lon="13.4528367"><ele>81.0</ele><time>2026-05-03T08:45:13.119Z</time></trkpt><trkpt lat="45.997472" lon="13.4528791"><ele>81.0</ele><time>2026-05-03T08:45:14.116Z</time></trkpt><trkpt lat="45.9975406" lon="13.4529163"><ele>81.0</ele><time>2026-05-03T08:45:15.107Z</time></trkpt><trkpt lat="45.997617" lon="13.4528956"><ele>81.0</ele><time>2026-05-03T08:45:17.116Z</time></trkpt><trkpt lat="45.9976804" lon="13.452759"><ele>81.0</ele><time>2026-05-03T08:45:19.118Z</time></trkpt><trkpt lat="45.9977447" lon="13.4525998"><ele>81.16666666666667</ele><time>2026-05-03T08:45:21.111Z</time></trkpt><trkpt lat="45.9977803" lon="13.452514"><ele>81.33333333333333</ele><time>2026-05-03T08:45:22.105Z</time></trkpt><trkpt lat="45.9978136" lon="13.4524161"><ele>81.5</ele><time>2026-05-03T08:45:23.116Z</time></trkpt><trkpt lat="45.9978402" lon="13.4523083"><ele>81.66666666666666</ele><time>2026-05-03T08:45:24.11Z</time></trkpt><trkpt lat="45.9978509" lon="13.4521981"><ele>81.83333333333333</ele><time>2026-05-03T08:45:25.116Z</time></trkpt><trkpt lat="45.9978546" lon="13.4520913"><ele>82.0</ele><time>2026-05-03T08:45:26.133Z</time></trkpt><trkpt lat="45.9978538" lon="13.4519857"><ele>82.5</ele><time>2026-05-03T08:45:27.106Z</time></trkpt><trkpt lat="45.997851" lon="13.4518822"><ele>83.0</ele><time>2026-05-03T08:45:28.114Z</time></trkpt><trkpt lat="45.9978455" lon="13.4517717"><ele>83.5</ele><time>2026-05-03T08:45:29.11Z</time></trkpt><trkpt lat="45.9978417" lon="13.4516621"><ele>84.0</ele><time>2026-05-03T08:45:30.121Z</time></trkpt><trkpt lat="45.9978413" lon="13.4515458"><ele>84.5</ele><time>2026-05-03T08:45:31.124Z</time></trkpt><trkpt lat="45.9978435" lon="13.4514317"><ele>85.0</ele><time>2026-05-03T08:45:32.117Z</time></trkpt><trkpt lat="45.9978437" lon="13.4513189"><ele>85.71428571428572</ele><time>2026-05-03T08:45:33.117Z</time></trkpt><trkpt lat="45.997841" lon="13.4512157"><ele>86.42857142857142</ele><time>2026-05-03T08:45:34.12Z</time></trkpt><trkpt lat="45.9978318" lon="13.4511117"><ele>87.14285714285714</ele><time>2026-05-03T08:45:35.114Z</time></trkpt><trkpt lat="45.9978203" lon="13.4510066"><ele>87.85714285714286</ele><time>2026-05-03T08:45:36.122Z</time></trkpt><trkpt lat="45.9978035" lon="13.4509025"><ele>88.57142857142858</ele><time>2026-05-03T08:45:37.123Z</time></trkpt><trkpt lat="45.997791" lon="13.450795"><ele>89.28571428571428</ele><time>2026-05-03T08:45:38.121Z</time></trkpt><trkpt lat="45.9977807" lon="13.4506833"><ele>90.0</ele><time>2026-05-03T08:45:39.113Z</time></trkpt><trkpt lat="45.9977771" lon="13.4505732"><ele>90.0</ele><time>2026-05-03T08:45:40.115Z</time></trkpt><trkpt lat="45.9977748" lon="13.4504595"><ele>90.0</ele><time>2026-05-03T08:45:41.117Z</time></trkpt><trkpt lat="45.9977728" lon="13.4503459"><ele>90.0</ele><time>2026-05-03T08:45:42.113Z</time></trkpt><trkpt lat="45.9977766" lon="13.4502337"><ele>90.0</ele><time>2026-05-03T08:45:43.117Z</time></trkpt><trkpt lat="45.9977818" lon="13.4501387"><ele>90.0</ele><time>2026-05-03T08:45:44.112Z</time></trkpt><trkpt lat="45.9978253" lon="13.4499721"><ele>90.0</ele><time>2026-05-03T08:45:46.137Z</time></trkpt><trkpt lat="45.997888" lon="13.4498949"><ele>90.8</ele><time>2026-05-03T08:45:47.119Z</time></trkpt><trkpt lat="45.9979697" lon="13.4498154"><ele>91.6</ele><time>2026-05-03T08:45:48.119Z</time></trkpt><trkpt lat="45.99805" lon="13.4497231"><ele>92.4</ele><time>2026-05-03T08:45:49.116Z</time></trkpt><trkpt lat="45.9981356" lon="13.4496118"><ele>93.2</ele><time>2026-05-03T08:45:50.106Z</time></trkpt><trkpt lat="45.9982246" lon="13.4495005"><ele>94.0</ele><time>2026-05-03T08:45:51.111Z</time></trkpt><trkpt lat="45.998316" lon="13.4493851"><ele>95.25</ele><time>2026-05-03T08:45:52.115Z</time></trkpt><trkpt lat="45.9984058" lon="13.4492837"><ele>96.5</ele><time>2026-05-03T08:45:53.119Z</time></trkpt><trkpt lat="45.9984935" lon="13.4491884"><ele>97.75</ele><time>2026-05-03T08:45:54.125Z</time></trkpt><trkpt lat="45.9985938" lon="13.4491124"><ele>99.0</ele><time>2026-05-03T08:45:55.135Z</time></trkpt><trkpt lat="45.9987028" lon="13.4490491"><ele>99.0</ele><time>2026-05-03T08:45:56.132Z</time></trkpt><trkpt lat="45.99881" lon="13.4490142"><ele>99.0</ele><time>2026-05-03T08:45:57.14Z</time></trkpt><trkpt lat="45.9988919" lon="13.4490281"><ele>99.0</ele><time>2026-05-03T08:45:58.124Z</time></trkpt><trkpt lat="45.999006" lon="13.449146"><ele>99.0</ele><time>2026-05-03T08:46:00.121Z</time></trkpt><trkpt lat="45.999074" lon="13.4491888"><ele>99.0</ele><time>2026-05-03T08:46:01.119Z</time></trkpt><trkpt lat="45.9992132" lon="13.4492182"><ele>98.2</ele><time>2026-05-03T08:46:03.124Z</time></trkpt><trkpt lat="45.9992974" lon="13.4492367"><ele>97.4</ele><time>2026-05-03T08:46:04.106Z</time></trkpt><trkpt lat="45.9993875" lon="13.4492576"><ele>96.6</ele><time>2026-05-03T08:46:05.12Z</time></trkpt><trkpt lat="45.9994795" lon="13.4492862"><ele>95.8</ele><time>2026-05-03T08:46:06.111Z</time></trkpt><trkpt lat="45.999574" lon="13.449352"><ele>95.0</ele><time>2026-05-03T08:46:07.116Z</time></trkpt><trkpt lat="45.9996695" lon="13.449443"><ele>95.0</ele><time>2026-05-03T08:46:08.109Z</time></trkpt><trkpt lat="45.9997709" lon="13.4495631"><ele>95.0</ele><time>2026-05-03T08:46:09.131Z</time></trkpt><trkpt lat="45.9998701" lon="13.4496893"><ele>95.0</ele><time>2026-05-03T08:46:10.116Z</time></trkpt><trkpt lat="45.9999657" lon="13.4498037"><ele>95.0</ele><time>2026-05-03T08:46:11.12Z</time></trkpt><trkpt lat="46.000077" lon="13.4498884"><ele>95.25</ele><time>2026-05-03T08:46:12.135Z</time></trkpt><trkpt lat="46.0002035" lon="13.4499526"><ele>95.5</ele><time>2026-05-03T08:46:13.12Z</time></trkpt><trkpt lat="46.0003257" lon="13.449997"><ele>95.75</ele><time>2026-05-03T08:46:14.112Z</time></trkpt><trkpt lat="46.0004539" lon="13.4500269"><ele>96.0</ele><time>2026-05-03T08:46:15.119Z</time></trkpt><trkpt lat="46.0005896" lon="13.450022"><ele>96.0</ele><time>2026-05-03T08:46:16.118Z</time></trkpt><trkpt lat="46.0007165" lon="13.4500097"><ele>96.0</ele><time>2026-05-03T08:46:17.114Z</time></trkpt><trkpt lat="46.0008333" lon="13.4499843"><ele>96.0</ele><time>2026-05-03T08:46:18.115Z</time></trkpt><trkpt lat="46.0009436" lon="13.4499389"><ele>96.0</ele><time>2026-05-03T08:46:19.114Z</time></trkpt><trkpt lat="46.0010402" lon="13.4498723"><ele>96.4</ele><time>2026-05-03T08:46:20.127Z</time></trkpt><trkpt lat="46.0011228" lon="13.4498056"><ele>96.8</ele><time>2026-05-03T08:46:21.13Z</time></trkpt><trkpt lat="46.0011868" lon="13.4497395"><ele>97.2</ele><time>2026-05-03T08:46:22.117Z</time></trkpt><trkpt lat="46.0012348" lon="13.4496729"><ele>97.60000000000001</ele><time>2026-05-03T08:46:23.114Z</time></trkpt><trkpt lat="46.0012667" lon="13.4494872"><ele>98.0</ele><time>2026-05-03T08:46:25.12Z</time></trkpt><trkpt lat="46.0012576" lon="13.4493567"><ele>98.0</ele><time>2026-05-03T08:46:26.119Z</time></trkpt><trkpt lat="46.0012517" lon="13.4491982"><ele>98.0</ele><time>2026-05-03T08:46:27.119Z</time></trkpt><trkpt lat="46.0012668" lon="13.4490318"><ele>98.0</ele><time>2026-05-03T08:46:28.114Z</time></trkpt><trkpt lat="46.0013086" lon="13.4488545"><ele>98.0</ele><time>2026-05-03T08:46:29.116Z</time></trkpt><trkpt lat="46.0013734" lon="13.4486823"><ele>98.25</ele><time>2026-05-03T08:46:30.124Z</time></trkpt><trkpt lat="46.0014537" lon="13.4485217"><ele>98.5</ele><time>2026-05-03T08:46:31.11Z</time></trkpt><trkpt lat="46.0015544" lon="13.4483782"><ele>98.75</ele><time>2026-05-03T08:46:32.111Z</time></trkpt><trkpt lat="46.0016586" lon="13.4482452"><ele>99.0</ele><time>2026-05-03T08:46:33.107Z</time></trkpt><trkpt lat="46.0017533" lon="13.4481133"><ele>98.75</ele><time>2026-05-03T08:46:34.119Z</time></trkpt><trkpt lat="46.0018282" lon="13.4479741"><ele>98.5</ele><time>2026-05-03T08:46:35.12Z</time></trkpt><trkpt lat="46.0018787" lon="13.4478141"><ele>98.25</ele><time>2026-05-03T08:46:36.123Z</time></trkpt><trkpt lat="46.0018954" lon="13.4476384"><ele>98.0</ele><time>2026-05-03T08:46:37.115Z</time></trkpt><trkpt lat="46.0018716" lon="13.4474596"><ele>98.0</ele><time>2026-05-03T08:46:38.12Z</time></trkpt><trkpt lat="46.0018173" lon="13.4472722"><ele>98.0</ele><time>2026-05-03T08:46:39.116Z</time></trkpt><trkpt lat="46.0017409" lon="13.4470807"><ele>98.0</ele><time>2026-05-03T08:46:40.125Z</time></trkpt><trkpt lat="46.0016637" lon="13.4468886"><ele>98.0</ele><time>2026-05-03T08:46:41.129Z</time></trkpt><trkpt lat="46.0015818" lon="13.4466958"><ele>96.75</ele><time>2026-05-03T08:46:42.114Z</time></trkpt><trkpt lat="46.0015106" lon="13.4465222"><ele>95.5</ele><time>2026-05-03T08:46:43.131Z</time></trkpt><trkpt lat="46.0014584" lon="13.4463584"><ele>94.25</ele><time>2026-05-03T08:46:44.125Z</time></trkpt><trkpt lat="46.0014203" lon="13.4462184"><ele>93.0</ele><time>2026-05-03T08:46:45.132Z</time></trkpt><trkpt lat="46.0013829" lon="13.4460831"><ele>93.0</ele><time>2026-05-03T08:46:46.144Z</time></trkpt><trkpt lat="46.001349" lon="13.4459286"><ele>93.0</ele><time>2026-05-03T08:46:47.124Z</time></trkpt><trkpt lat="46.0013134" lon="13.4457533"><ele>93.0</ele><time>2026-05-03T08:46:48.12Z</time></trkpt><trkpt lat="46.0012729" lon="13.4455455"><ele>93.0</ele><time>2026-05-03T08:46:49.121Z</time></trkpt><trkpt lat="46.0012254" lon="13.4453302"><ele>92.33333333333333</ele><time>2026-05-03T08:46:50.121Z</time></trkpt><trkpt lat="46.0011751" lon="13.44512"><ele>91.66666666666666</ele><time>2026-05-03T08:46:51.123Z</time></trkpt><trkpt lat="46.0011259" lon="13.4449038"><ele>91.0</ele><time>2026-05-03T08:46:52.122Z</time></trkpt><trkpt lat="46.0010783" lon="13.4446801"><ele>90.0</ele><time>2026-05-03T08:46:53.136Z</time></trkpt><trkpt lat="46.0010349" lon="13.4444557"><ele>89.0</ele><time>2026-05-03T08:46:54.124Z</time></trkpt><trkpt lat="46.0009959" lon="13.4442346"><ele>88.0</ele><time>2026-05-03T08:46:55.123Z</time></trkpt><trkpt lat="46.0009662" lon="13.4440211"><ele>88.0</ele><time>2026-05-03T08:46:56.125Z</time></trkpt><trkpt lat="46.0009365" lon="13.4438094"><ele>88.0</ele><time>2026-05-03T08:46:57.119Z</time></trkpt><trkpt lat="46.0009076" lon="13.4435952"><ele>88.0</ele><time>2026-05-03T08:46:58.137Z</time></trkpt><trkpt lat="46.0008778" lon="13.4433766"><ele>87.66666666666666</ele><time>2026-05-03T08:46:59.118Z</time></trkpt><trkpt lat="46.0008497" lon="13.4431569"><ele>87.33333333333333</ele><time>2026-05-03T08:47:00.131Z</time></trkpt><trkpt lat="46.0008189" lon="13.4429424"><ele>87.0</ele><time>2026-05-03T08:47:01.115Z</time></trkpt><trkpt lat="46.0007878" lon="13.4427298"><ele>87.0</ele><time>2026-05-03T08:47:02.126Z</time></trkpt><trkpt lat="46.0007612" lon="13.4425229"><ele>87.0</ele><time>2026-05-03T08:47:03.124Z</time></trkpt><trkpt lat="46.000736" lon="13.442316"><ele>87.0</ele><time>2026-05-03T08:47:04.11Z</time></trkpt><trkpt lat="46.0007097" lon="13.4421069"><ele>87.0</ele><time>2026-05-03T08:47:05.125Z</time></trkpt><trkpt lat="46.000681" lon="13.4418953"><ele>86.75</ele><time>2026-05-03T08:47:06.119Z</time></trkpt><trkpt lat="46.0006554" lon="13.4416867"><ele>86.5</ele><time>2026-05-03T08:47:07.121Z</time></trkpt><trkpt lat="46.0006298" lon="13.4414935"><ele>86.25</ele><time>2026-05-03T08:47:08.137Z</time></trkpt><trkpt lat="46.000608" lon="13.4413153"><ele>86.0</ele><time>2026-05-03T08:47:09.109Z</time></trkpt><trkpt lat="46.0005842" lon="13.4411419"><ele>86.0</ele><time>2026-05-03T08:47:10.125Z</time></trkpt><trkpt lat="46.0005628" lon="13.4409781"><ele>86.0</ele><time>2026-05-03T08:47:11.12Z</time></trkpt><trkpt lat="46.0005431" lon="13.4408251"><ele>86.0</ele><time>2026-05-03T08:47:12.124Z</time></trkpt><trkpt lat="46.0005242" lon="13.4406857"><ele>86.0</ele><time>2026-05-03T08:47:13.116Z</time></trkpt><trkpt lat="46.0005075" lon="13.4405679"><ele>86.0</ele><time>2026-05-03T08:47:14.109Z</time></trkpt><trkpt lat="46.0004874" lon="13.4404636"><ele>86.00000000000001</ele><time>2026-05-03T08:47:15.113Z</time></trkpt><trkpt lat="46.0004644" lon="13.4403684"><ele>86.0</ele><time>2026-05-03T08:47:16.121Z</time></trkpt><trkpt lat="46.0004455" lon="13.4402803"><ele>86.0</ele><time>2026-05-03T08:47:17.135Z</time></trkpt><trkpt lat="46.000417" lon="13.4401699"><ele>86.0</ele><time>2026-05-03T08:47:19.121Z</time></trkpt><trkpt lat="46.0003999" lon="13.4400742"><ele>86.0</ele><time>2026-05-03T08:47:22.122Z</time></trkpt><trkpt lat="46.0003832" lon="13.4399724"><ele>86.00000000000001</ele><time>2026-05-03T08:47:23.115Z</time></trkpt><trkpt lat="46.000356" lon="13.439854"><ele>86.0</ele><time>2026-05-03T08:47:24.121Z</time></trkpt><trkpt lat="46.0003254" lon="13.4397214"><ele>85.83333333333334</ele><time>2026-05-03T08:47:25.105Z</time></trkpt><trkpt lat="46.0002966" lon="13.4395762"><ele>85.66666666666667</ele><time>2026-05-03T08:47:26.107Z</time></trkpt><trkpt lat="46.0002702" lon="13.4394311"><ele>85.5</ele><time>2026-05-03T08:47:27.099Z</time></trkpt><trkpt lat="46.0002509" lon="13.4393111"><ele>85.33333333333333</ele><time>2026-05-03T08:47:28.11Z</time></trkpt><trkpt lat="46.0002342" lon="13.4392118"><ele>85.16666666666666</ele><time>2026-05-03T08:47:29.124Z</time></trkpt><trkpt lat="46.0002121" lon="13.4391167"><ele>85.0</ele><time>2026-05-03T08:47:30.128Z</time></trkpt><trkpt lat="46.0001754" lon="13.4390054"><ele>85.0</ele><time>2026-05-03T08:47:31.108Z</time></trkpt><trkpt lat="46.000136" lon="13.4388666"><ele>85.0</ele><time>2026-05-03T08:47:32.105Z</time></trkpt><trkpt lat="46.0000996" lon="13.4387097"><ele>85.0</ele><time>2026-05-03T08:47:33.107Z</time></trkpt><trkpt lat="46.0000481" lon="13.4385703"><ele>85.0</ele><time>2026-05-03T08:47:34.104Z</time></trkpt><trkpt lat="45.9999626" lon="13.4384372"><ele>85.25</ele><time>2026-05-03T08:47:35.11Z</time></trkpt><trkpt lat="45.9998815" lon="13.4383025"><ele>85.5</ele><time>2026-05-03T08:47:36.111Z</time></trkpt><trkpt lat="45.9998016" lon="13.4381679"><ele>85.75</ele><time>2026-05-03T08:47:37.116Z</time></trkpt><trkpt lat="45.9997312" lon="13.438031"><ele>86.0</ele><time>2026-05-03T08:47:38.108Z</time></trkpt><trkpt lat="45.9996445" lon="13.4379067"><ele>85.5</ele><time>2026-05-03T08:47:39.117Z</time></trkpt><trkpt lat="45.9995469" lon="13.4377824"><ele>85.0</ele><time>2026-05-03T08:47:40.13Z</time></trkpt><trkpt lat="45.9994228" lon="13.4376645"><ele>84.5</ele><time>2026-05-03T08:47:41.131Z</time></trkpt><trkpt lat="45.9992885" lon="13.4375482"><ele>84.0</ele><time>2026-05-03T08:47:42.125Z</time></trkpt><trkpt lat="45.9991431" lon="13.4374384"><ele>84.0</ele><time>2026-05-03T08:47:43.112Z</time></trkpt><trkpt lat="45.9989908" lon="13.4373278"><ele>84.0</ele><time>2026-05-03T08:47:44.107Z</time></trkpt><trkpt lat="45.9988448" lon="13.4372256"><ele>84.0</ele><time>2026-05-03T08:47:45.107Z</time></trkpt><trkpt lat="45.9986899" lon="13.437134"><ele>83.66666666666667</ele><time>2026-05-03T08:47:46.11Z</time></trkpt><trkpt lat="45.998526" lon="13.437059"><ele>83.33333333333334</ele><time>2026-05-03T08:47:47.113Z</time></trkpt><trkpt lat="45.9983651" lon="13.4369954"><ele>83.0</ele><time>2026-05-03T08:47:48.115Z</time></trkpt><trkpt lat="45.9982091" lon="13.4369306"><ele>83.0</ele><time>2026-05-03T08:47:49.106Z</time></trkpt><trkpt lat="45.9980597" lon="13.436874"><ele>83.0</ele><time>2026-05-03T08:47:50.104Z</time></trkpt><trkpt lat="45.9979125" lon="13.4368251"><ele>83.0</ele><time>2026-05-03T08:47:51.121Z</time></trkpt><trkpt lat="45.9977603" lon="13.4367713"><ele>83.0</ele><time>2026-05-03T08:47:52.121Z</time></trkpt><trkpt lat="45.9976088" lon="13.4367245"><ele>83.0</ele><time>2026-05-03T08:47:53.111Z</time></trkpt><trkpt lat="45.9974636" lon="13.4366844"><ele>83.0</ele><time>2026-05-03T08:47:54.123Z</time></trkpt><trkpt lat="45.9973205" lon="13.4366699"><ele>83.0</ele><time>2026-05-03T08:47:55.114Z</time></trkpt><trkpt lat="45.9971892" lon="13.4366652"><ele>83.60000000000001</ele><time>2026-05-03T08:47:56.108Z</time></trkpt><trkpt lat="45.9970778" lon="13.436654"><ele>84.2</ele><time>2026-05-03T08:47:57.132Z</time></trkpt><trkpt lat="45.9969745" lon="13.4366309"><ele>84.8</ele><time>2026-05-03T08:47:58.124Z</time></trkpt><trkpt lat="45.996891" lon="13.436586"><ele>85.4</ele><time>2026-05-03T08:47:59.121Z</time></trkpt><trkpt lat="45.9968253" lon="13.4365272"><ele>86.0</ele><time>2026-05-03T08:48:00.109Z</time></trkpt><trkpt lat="45.9967736" lon="13.4363891"><ele>85.25</ele><time>2026-05-03T08:48:02.119Z</time></trkpt><trkpt lat="45.9967764" lon="13.4362055"><ele>84.5</ele><time>2026-05-03T08:48:04.109Z</time></trkpt><trkpt lat="45.9968067" lon="13.4360727"><ele>83.75</ele><time>2026-05-03T08:48:05.1Z</time></trkpt><trkpt lat="45.9968612" lon="13.4359211"><ele>83.0</ele><time>2026-05-03T08:48:06.107Z</time></trkpt><trkpt lat="45.9969108" lon="13.4357753"><ele>83.0</ele><time>2026-05-03T08:48:07.117Z</time></trkpt><trkpt lat="45.9969477" lon="13.4356478"><ele>83.0</ele><time>2026-05-03T08:48:08.12Z</time></trkpt><trkpt lat="45.9969728" lon="13.4355258"><ele>83.0</ele><time>2026-05-03T08:48:09.131Z</time></trkpt><trkpt lat="45.9969571" lon="13.4353933"><ele>83.0</ele><time>2026-05-03T08:48:10.118Z</time></trkpt><trkpt lat="45.9969068" lon="13.435246"><ele>83.0</ele><time>2026-05-03T08:48:11.114Z</time></trkpt><trkpt lat="45.9968491" lon="13.4350932"><ele>82.33333333333334</ele><time>2026-05-03T08:48:12.11Z</time></trkpt><trkpt lat="45.9967785" lon="13.4349218"><ele>81.66666666666667</ele><time>2026-05-03T08:48:13.116Z</time></trkpt><trkpt lat="45.9967044" lon="13.4347234"><ele>81.0</ele><time>2026-05-03T08:48:14.12Z</time></trkpt><trkpt lat="45.9966407" lon="13.4345128"><ele>81.0</ele><time>2026-05-03T08:48:15.126Z</time></trkpt><trkpt lat="45.9965885" lon="13.4342919"><ele>81.0</ele><time>2026-05-03T08:48:16.111Z</time></trkpt><trkpt lat="45.9965435" lon="13.434072"><ele>81.0</ele><time>2026-05-03T08:48:17.117Z</time></trkpt><trkpt lat="45.9965118" lon="13.4338568"><ele>81.0</ele><time>2026-05-03T08:48:18.132Z</time></trkpt><trkpt lat="45.9965131" lon="13.4336562"><ele>81.0</ele><time>2026-05-03T08:48:19.12Z</time></trkpt><trkpt lat="45.996529" lon="13.4334393"><ele>81.0</ele><time>2026-05-03T08:48:20.117Z</time></trkpt><trkpt lat="45.9965336" lon="13.4332242"><ele>81.0</ele><time>2026-05-03T08:48:21.127Z</time></trkpt><trkpt lat="45.9965194" lon="13.4330216"><ele>81.0</ele><time>2026-05-03T08:48:22.124Z</time></trkpt><trkpt lat="45.9964743" lon="13.4328464"><ele>81.0</ele><time>2026-05-03T08:48:23.114Z</time></trkpt><trkpt lat="45.9964031" lon="13.4327034"><ele>81.0</ele><time>2026-05-03T08:48:24.119Z</time></trkpt><trkpt lat="45.9963337" lon="13.4326086"><ele>81.0</ele><time>2026-05-03T08:48:25.109Z</time></trkpt><trkpt lat="45.9962585" lon="13.4325602"><ele>81.0</ele><time>2026-05-03T08:48:26.122Z</time></trkpt><trkpt lat="45.9961538" lon="13.4325395"><ele>81.0</ele><time>2026-05-03T08:48:27.129Z</time></trkpt><trkpt lat="45.9960304" lon="13.4325351"><ele>81.0</ele><time>2026-05-03T08:48:28.121Z</time></trkpt><trkpt lat="45.9958839" lon="13.4325126"><ele>81.0</ele><time>2026-05-03T08:48:29.116Z</time></trkpt><trkpt lat="45.9957252" lon="13.4324947"><ele>81.0</ele><time>2026-05-03T08:48:30.107Z</time></trkpt><trkpt lat="45.995557" lon="13.4324727"><ele>81.5</ele><time>2026-05-03T08:48:31.112Z</time></trkpt><trkpt lat="45.9954033" lon="13.432452"><ele>82.0</ele><time>2026-05-03T08:48:32.107Z</time></trkpt><trkpt lat="45.9952686" lon="13.4324359"><ele>82.5</ele><time>2026-05-03T08:48:33.117Z</time></trkpt><trkpt lat="45.9951485" lon="13.432408"><ele>83.0</ele><time>2026-05-03T08:48:34.111Z</time></trkpt><trkpt lat="45.9950509" lon="13.4323756"><ele>83.0</ele><time>2026-05-03T08:48:35.109Z</time></trkpt><trkpt lat="45.9949598" lon="13.4323374"><ele>83.0</ele><time>2026-05-03T08:48:36.122Z</time></trkpt><trkpt lat="45.9948726" lon="13.4323056"><ele>83.0</ele><time>2026-05-03T08:48:37.107Z</time></trkpt><trkpt lat="45.9947761" lon="13.4322814"><ele>83.0</ele><time>2026-05-03T08:48:38.111Z</time></trkpt><trkpt lat="45.9946709" lon="13.4322868"><ele>83.0</ele><time>2026-05-03T08:48:39.114Z</time></trkpt><trkpt lat="45.9945491" lon="13.4323126"><ele>83.0</ele><time>2026-05-03T08:48:40.107Z</time></trkpt><trkpt lat="45.9944062" lon="13.4323486"><ele>83.0</ele><time>2026-05-03T08:48:41.12Z</time></trkpt><trkpt lat="45.994249" lon="13.4323911"><ele>83.0</ele><time>2026-05-03T08:48:42.107Z</time></trkpt><trkpt lat="45.9940808" lon="13.432439"><ele>82.66666666666667</ele><time>2026-05-03T08:48:43.112Z</time></trkpt><trkpt lat="45.9939094" lon="13.4324913"><ele>82.33333333333333</ele><time>2026-05-03T08:48:44.121Z</time></trkpt><trkpt lat="45.9937349" lon="13.4325447"><ele>82.0</ele><time>2026-05-03T08:48:45.113Z</time></trkpt><trkpt lat="45.9935628" lon="13.4325965"><ele>82.0</ele><time>2026-05-03T08:48:46.128Z</time></trkpt><trkpt lat="45.9933948" lon="13.4326453"><ele>82.0</ele><time>2026-05-03T08:48:47.108Z</time></trkpt><trkpt lat="45.9932323" lon="13.4326947"><ele>82.0</ele><time>2026-05-03T08:48:48.113Z</time></trkpt><trkpt lat="45.9930749" lon="13.4327401"><ele>81.25</ele><time>2026-05-03T08:48:49.107Z</time></trkpt><trkpt lat="45.9929261" lon="13.432783"><ele>80.5</ele><time>2026-05-03T08:48:50.116Z</time></trkpt><trkpt lat="45.9927933" lon="13.4328231"><ele>79.75</ele><time>2026-05-03T08:48:51.118Z</time></trkpt><trkpt lat="45.9926707" lon="13.4328586"><ele>79.0</ele><time>2026-05-03T08:48:52.114Z</time></trkpt><trkpt lat="45.9925564" lon="13.4328831"><ele>79.0</ele><time>2026-05-03T08:48:53.121Z</time></trkpt><trkpt lat="45.9924534" lon="13.4328914"><ele>79.0</ele><time>2026-05-03T08:48:54.113Z</time></trkpt><trkpt lat="45.9923612" lon="13.4328793"><ele>79.0</ele><time>2026-05-03T08:48:55.12Z</time></trkpt><trkpt lat="45.9922759" lon="13.4328613"><ele>79.0</ele><time>2026-05-03T08:48:56.114Z</time></trkpt><trkpt lat="45.9922125" lon="13.4328306"><ele>79.0</ele><time>2026-05-03T08:48:57.114Z</time></trkpt><trkpt lat="45.9921637" lon="13.4327689"><ele>79.0</ele><time>2026-05-03T08:48:58.111Z</time></trkpt><trkpt lat="45.9921176" lon="13.4326754"><ele>79.0</ele><time>2026-05-03T08:48:59.11Z</time></trkpt><trkpt lat="45.9920684" lon="13.432557"><ele>79.0</ele><time>2026-05-03T08:49:00.112Z</time></trkpt><trkpt lat="45.9920122" lon="13.4324263"><ele>79.0</ele><time>2026-05-03T08:49:01.108Z</time></trkpt><trkpt lat="45.9919502" lon="13.4322742"><ele>79.0</ele><time>2026-05-03T08:49:02.117Z</time></trkpt><trkpt lat="45.9918786" lon="13.4321111"><ele>79.0</ele><time>2026-05-03T08:49:03.122Z</time></trkpt><trkpt lat="45.9918099" lon="13.4319344"><ele>79.0</ele><time>2026-05-03T08:49:04.104Z</time></trkpt><trkpt lat="45.9917387" lon="13.43175"><ele>79.0</ele><time>2026-05-03T08:49:05.111Z</time></trkpt><trkpt lat="45.9916655" lon="13.4315643"><ele>79.0</ele><time>2026-05-03T08:49:06.112Z</time></trkpt><trkpt lat="45.9915879" lon="13.4313686"><ele>79.0</ele><time>2026-05-03T08:49:07.126Z</time></trkpt><trkpt lat="45.9915058" lon="13.4311639"><ele>79.0</ele><time>2026-05-03T08:49:08.116Z</time></trkpt><trkpt lat="45.9914294" lon="13.4309582"><ele>79.0</ele><time>2026-05-03T08:49:09.111Z</time></trkpt><trkpt lat="45.9913673" lon="13.430771"><ele>79.0</ele><time>2026-05-03T08:49:10.11Z</time></trkpt><trkpt lat="45.9913199" lon="13.4306336"><ele>79.0</ele><time>2026-05-03T08:49:11.116Z</time></trkpt><trkpt lat="45.991291" lon="13.4305369"><ele>79.0</ele><time>2026-05-03T08:49:12.126Z</time></trkpt><trkpt lat="45.9912124" lon="13.4304837"><ele>79.0</ele><time>2026-05-03T08:49:15.127Z</time></trkpt><trkpt lat="45.9911212" lon="13.4305531"><ele>79.0</ele><time>2026-05-03T08:49:17.109Z</time></trkpt><trkpt lat="45.9910371" lon="13.4305864"><ele>79.0</ele><time>2026-05-03T08:49:18.109Z</time></trkpt><trkpt lat="45.9909337" lon="13.4306231"><ele>79.0</ele><time>2026-05-03T08:49:19.115Z</time></trkpt><trkpt lat="45.9908217" lon="13.4306681"><ele>79.0</ele><time>2026-05-03T08:49:20.117Z</time></trkpt><trkpt lat="45.9906952" lon="13.4307171"><ele>79.0</ele><time>2026-05-03T08:49:21.123Z</time></trkpt><trkpt lat="45.9905588" lon="13.4307736"><ele>78.66666666666666</ele><time>2026-05-03T08:49:22.12Z</time></trkpt><trkpt lat="45.9904114" lon="13.4308306"><ele>78.33333333333333</ele><time>2026-05-03T08:49:23.109Z</time></trkpt><trkpt lat="45.9902502" lon="13.4308878"><ele>78.0</ele><time>2026-05-03T08:49:24.106Z</time></trkpt><trkpt lat="45.9900932" lon="13.430945"><ele>77.75</ele><time>2026-05-03T08:49:25.121Z</time></trkpt><trkpt lat="45.9899458" lon="13.4310026"><ele>77.5</ele><time>2026-05-03T08:49:26.115Z</time></trkpt><trkpt lat="45.9898119" lon="13.431059"><ele>77.25</ele><time>2026-05-03T08:49:27.127Z</time></trkpt><trkpt lat="45.9896805" lon="13.4311038"><ele>77.0</ele><time>2026-05-03T08:49:28.109Z</time></trkpt><trkpt lat="45.9895433" lon="13.4311445"><ele>77.0</ele><time>2026-05-03T08:49:29.113Z</time></trkpt><trkpt lat="45.9894066" lon="13.4311885"><ele>77.0</ele><time>2026-05-03T08:49:30.114Z</time></trkpt><trkpt lat="45.9892777" lon="13.4312334"><ele>77.0</ele><time>2026-05-03T08:49:31.11Z</time></trkpt><trkpt lat="45.989151" lon="13.4312833"><ele>77.0</ele><time>2026-05-03T08:49:32.113Z</time></trkpt><trkpt lat="45.9890243" lon="13.431336"><ele>76.5</ele><time>2026-05-03T08:49:33.124Z</time></trkpt><trkpt lat="45.9889061" lon="13.4313764"><ele>76.0</ele><time>2026-05-03T08:49:34.11Z</time></trkpt><trkpt lat="45.9887915" lon="13.4314097"><ele>75.5</ele><time>2026-05-03T08:49:35.109Z</time></trkpt><trkpt lat="45.988683" lon="13.4314459"><ele>75.0</ele><time>2026-05-03T08:49:36.118Z</time></trkpt><trkpt lat="45.9885731" lon="13.431477"><ele>75.0</ele><time>2026-05-03T08:49:37.128Z</time></trkpt><trkpt lat="45.9884649" lon="13.4314978"><ele>75.0</ele><time>2026-05-03T08:49:38.116Z</time></trkpt><trkpt lat="45.9883498" lon="13.4314911"><ele>75.0</ele><time>2026-05-03T08:49:39.125Z</time></trkpt><trkpt lat="45.9882301" lon="13.4314793"><ele>75.0</ele><time>2026-05-03T08:49:40.116Z</time></trkpt><trkpt lat="45.9881103" lon="13.4314626"><ele>74.6</ele><time>2026-05-03T08:49:41.119Z</time></trkpt><trkpt lat="45.9879875" lon="13.4314307"><ele>74.2</ele><time>2026-05-03T08:49:42.133Z</time></trkpt><trkpt lat="45.987866" lon="13.4313963"><ele>73.8</ele><time>2026-05-03T08:49:43.112Z</time></trkpt><trkpt lat="45.9877634" lon="13.4313787"><ele>73.4</ele><time>2026-05-03T08:49:44.125Z</time></trkpt><trkpt lat="45.9876762" lon="13.4313716"><ele>73.0</ele><time>2026-05-03T08:49:45.132Z</time></trkpt><trkpt lat="45.9876065" lon="13.4313877"><ele>73.0</ele><time>2026-05-03T08:49:46.127Z</time></trkpt><trkpt lat="45.9875513" lon="13.4314333"><ele>73.0</ele><time>2026-05-03T08:49:47.108Z</time></trkpt><trkpt lat="45.9874734" lon="13.4315676"><ele>73.0</ele><time>2026-05-03T08:49:49.112Z</time></trkpt><trkpt lat="45.9874383" lon="13.4316685"><ele>73.0</ele><time>2026-05-03T08:49:50.116Z</time></trkpt><trkpt lat="45.9874038" lon="13.4317917"><ele>73.0</ele><time>2026-05-03T08:49:51.13Z</time></trkpt><trkpt lat="45.9873675" lon="13.4319056"><ele>73.0</ele><time>2026-05-03T08:49:52.131Z</time></trkpt><trkpt lat="45.9873246" lon="13.4319953"><ele>72.66666666666666</ele><time>2026-05-03T08:49:53.129Z</time></trkpt><trkpt lat="45.9872477" lon="13.4320682"><ele>72.33333333333333</ele><time>2026-05-03T08:49:55.11Z</time></trkpt><trkpt lat="45.9871453" lon="13.4320517"><ele>72.0</ele><time>2026-05-03T08:49:58.124Z</time></trkpt><trkpt lat="45.9870494" lon="13.431988"><ele>71.66666666666667</ele><time>2026-05-03T08:50:00.124Z</time></trkpt><trkpt lat="45.986982" lon="13.4319746"><ele>71.33333333333334</ele><time>2026-05-03T08:50:02.125Z</time></trkpt><trkpt lat="45.9869131" lon="13.4320107"><ele>71.0</ele><time>2026-05-03T08:50:04.112Z</time></trkpt><trkpt lat="45.986825" lon="13.4320247"><ele>71.0</ele><time>2026-05-03T08:50:05.125Z</time></trkpt><trkpt lat="45.9867611" lon="13.4320628"><ele>71.0</ele><time>2026-05-03T08:50:06.138Z</time></trkpt><trkpt lat="45.986706" lon="13.4321169"><ele>71.0</ele><time>2026-05-03T08:50:07.116Z</time></trkpt><trkpt lat="45.9866596" lon="13.4321883"><ele>71.0</ele><time>2026-05-03T08:50:08.12Z</time></trkpt><trkpt lat="45.9865896" lon="13.4322771"><ele>71.0</ele><time>2026-05-03T08:50:10.132Z</time></trkpt><trkpt lat="45.9864702" lon="13.4321633"><ele>71.0</ele><time>2026-05-03T08:50:13.121Z</time></trkpt><trkpt lat="45.9864078" lon="13.4320807"><ele>71.6</ele><time>2026-05-03T08:50:14.121Z</time></trkpt><trkpt lat="45.9863374" lon="13.4319846"><ele>72.19999999999999</ele><time>2026-05-03T08:50:15.114Z</time></trkpt><trkpt lat="45.9862508" lon="13.4318782"><ele>72.80000000000001</ele><time>2026-05-03T08:50:16.115Z</time></trkpt><trkpt lat="45.9861702" lon="13.431777"><ele>73.4</ele><time>2026-05-03T08:50:17.116Z</time></trkpt><trkpt lat="45.9860954" lon="13.4316883"><ele>74.0</ele><time>2026-05-03T08:50:18.12Z</time></trkpt><trkpt lat="45.9860319" lon="13.4316121"><ele>74.0</ele><time>2026-05-03T08:50:19.126Z</time></trkpt><trkpt lat="45.9859779" lon="13.43154"><ele>74.0</ele><time>2026-05-03T08:50:20.116Z</time></trkpt><trkpt lat="45.9859266" lon="13.4314704"><ele>74.0</ele><time>2026-05-03T08:50:21.115Z</time></trkpt><trkpt lat="45.9858191" lon="13.4313412"><ele>74.0</ele><time>2026-05-03T08:50:23.128Z</time></trkpt><trkpt lat="45.985767" lon="13.4312803"><ele>74.0</ele><time>2026-05-03T08:50:24.131Z</time></trkpt><trkpt lat="45.9856816" lon="13.4311844"><ele>73.83333333333334</ele><time>2026-05-03T08:50:26.114Z</time></trkpt><trkpt lat="45.9856232" lon="13.4311425"><ele>73.66666666666667</ele><time>2026-05-03T08:50:29.114Z</time></trkpt><trkpt lat="45.9855404" lon="13.4310953"><ele>73.5</ele><time>2026-05-03T08:50:58.116Z</time></trkpt><trkpt lat="45.9854175" lon="13.4311043"><ele>73.33333333333333</ele><time>2026-05-03T08:51:00.107Z</time></trkpt><trkpt lat="45.9853595" lon="13.4311498"><ele>73.16666666666666</ele><time>2026-05-03T08:51:01.119Z</time></trkpt><trkpt lat="45.9852803" lon="13.4312068"><ele>73.0</ele><time>2026-05-03T08:51:02.12Z</time></trkpt><trkpt lat="45.9851886" lon="13.4312736"><ele>73.0</ele><time>2026-05-03T08:51:03.128Z</time></trkpt><trkpt lat="45.9850856" lon="13.4313454"><ele>73.0</ele><time>2026-05-03T08:51:04.124Z</time></trkpt><trkpt lat="45.9849698" lon="13.4314091"><ele>73.0</ele><time>2026-05-03T08:51:05.123Z</time></trkpt><trkpt lat="45.9848578" lon="13.4314507"><ele>73.0</ele><time>2026-05-03T08:51:06.126Z</time></trkpt><trkpt lat="45.9847265" lon="13.4314201"><ele>73.33333333333333</ele><time>2026-05-03T08:51:07.142Z</time></trkpt><trkpt lat="45.9845868" lon="13.431354"><ele>73.66666666666667</ele><time>2026-05-03T08:51:08.123Z</time></trkpt><trkpt lat="45.9844409" lon="13.4312997"><ele>74.0</ele><time>2026-05-03T08:51:09.127Z</time></trkpt><trkpt lat="45.9842823" lon="13.4312593"><ele>73.0</ele><time>2026-05-03T08:51:10.129Z</time></trkpt><trkpt lat="45.984102" lon="13.4312458"><ele>72.0</ele><time>2026-05-03T08:51:11.126Z</time></trkpt><trkpt lat="45.9839217" lon="13.4312569"><ele>71.0</ele><time>2026-05-03T08:51:12.127Z</time></trkpt><trkpt lat="45.983731" lon="13.4312828"><ele>71.66666666666667</ele><time>2026-05-03T08:51:13.127Z</time></trkpt><trkpt lat="45.9835348" lon="13.4313142"><ele>72.33333333333333</ele><time>2026-05-03T08:51:14.126Z</time></trkpt><trkpt lat="45.9833384" lon="13.4313443"><ele>73.0</ele><time>2026-05-03T08:51:15.116Z</time></trkpt><trkpt lat="45.9831399" lon="13.4313673"><ele>71.66666666666666</ele><time>2026-05-03T08:51:16.125Z</time></trkpt><trkpt lat="45.9829383" lon="13.4313922"><ele>70.33333333333333</ele><time>2026-05-03T08:51:17.118Z</time></trkpt><trkpt lat="45.9827366" lon="13.4314237"><ele>69.0</ele><time>2026-05-03T08:51:18.107Z</time></trkpt><trkpt lat="45.9825309" lon="13.4314452"><ele>68.66666666666667</ele><time>2026-05-03T08:51:19.123Z</time></trkpt><trkpt lat="45.9823221" lon="13.431442"><ele>68.33333333333334</ele><time>2026-05-03T08:51:20.124Z</time></trkpt><trkpt lat="45.9821111" lon="13.4314097"><ele>68.0</ele><time>2026-05-03T08:51:21.122Z</time></trkpt><trkpt lat="45.981905" lon="13.4313434"><ele>68.0</ele><time>2026-05-03T08:51:22.128Z</time></trkpt><trkpt lat="45.9817008" lon="13.4312573"><ele>68.0</ele><time>2026-05-03T08:51:23.115Z</time></trkpt><trkpt lat="45.9814986" lon="13.4311505"><ele>68.0</ele><time>2026-05-03T08:51:24.125Z</time></trkpt><trkpt lat="45.9813139" lon="13.431048"><ele>68.0</ele><time>2026-05-03T08:51:25.106Z</time></trkpt><trkpt lat="45.9811511" lon="13.4309561"><ele>68.0</ele><time>2026-05-03T08:51:26.124Z</time></trkpt><trkpt lat="45.981005" lon="13.4308772"><ele>68.0</ele><time>2026-05-03T08:51:27.125Z</time></trkpt><trkpt lat="45.9808824" lon="13.4308072"><ele>68.0</ele><time>2026-05-03T08:51:28.125Z</time></trkpt><trkpt lat="45.9807816" lon="13.430753"><ele>68.0</ele><time>2026-05-03T08:51:29.121Z</time></trkpt><trkpt lat="45.9807012" lon="13.4307147"><ele>68.0</ele><time>2026-05-03T08:51:30.115Z</time></trkpt><trkpt lat="45.9805935" lon="13.4307507"><ele>68.0</ele><time>2026-05-03T08:51:32.129Z</time></trkpt><trkpt lat="45.980561" lon="13.4308408"><ele>68.0</ele><time>2026-05-03T08:51:33.117Z</time></trkpt><trkpt lat="45.980546" lon="13.4309825"><ele>68.0</ele><time>2026-05-03T08:51:34.118Z</time></trkpt><trkpt lat="45.9805246" lon="13.4311529"><ele>68.0</ele><time>2026-05-03T08:51:35.118Z</time></trkpt><trkpt lat="45.9804942" lon="13.4313455"><ele>68.0</ele><time>2026-05-03T08:51:36.119Z</time></trkpt><trkpt lat="45.9804598" lon="13.4315609"><ele>68.0</ele><time>2026-05-03T08:51:37.128Z</time></trkpt><trkpt lat="45.980424" lon="13.4317909"><ele>68.0</ele><time>2026-05-03T08:51:38.11Z</time></trkpt><trkpt lat="45.98039" lon="13.4320321"><ele>68.0</ele><time>2026-05-03T08:51:39.112Z</time></trkpt><trkpt lat="45.9803606" lon="13.4322879"><ele>68.0</ele><time>2026-05-03T08:51:40.122Z</time></trkpt><trkpt lat="45.9803362" lon="13.4325469"><ele>68.0</ele><time>2026-05-03T08:51:41.128Z</time></trkpt><trkpt lat="45.98031" lon="13.4328092"><ele>68.0</ele><time>2026-05-03T08:51:42.126Z</time></trkpt><trkpt lat="45.9802839" lon="13.433076"><ele>68.0</ele><time>2026-05-03T08:51:43.129Z</time></trkpt><trkpt lat="45.9802595" lon="13.4333408"><ele>67.66666666666667</ele><time>2026-05-03T08:51:44.118Z</time></trkpt><trkpt lat="45.9802365" lon="13.4336133"><ele>67.33333333333333</ele><time>2026-05-03T08:51:45.128Z</time></trkpt><trkpt lat="45.9802174" lon="13.4338769"><ele>67.0</ele><time>2026-05-03T08:51:46.121Z</time></trkpt><trkpt lat="45.980201" lon="13.4341215"><ele>67.33333333333333</ele><time>2026-05-03T08:51:47.121Z</time></trkpt><trkpt lat="45.9801842" lon="13.4343469"><ele>67.66666666666667</ele><time>2026-05-03T08:51:48.129Z</time></trkpt><trkpt lat="45.9801608" lon="13.4345595"><ele>68.0</ele><time>2026-05-03T08:51:49.127Z</time></trkpt><trkpt lat="45.9801186" lon="13.4347745"><ele>68.0</ele><time>2026-05-03T08:51:50.106Z</time></trkpt><trkpt lat="45.9800543" lon="13.4350046"><ele>68.0</ele><time>2026-05-03T08:51:51.111Z</time></trkpt><trkpt lat="45.9799746" lon="13.4352414"><ele>68.0</ele><time>2026-05-03T08:51:52.131Z</time></trkpt><trkpt lat="45.9798895" lon="13.435485"><ele>68.33333333333334</ele><time>2026-05-03T08:51:53.107Z</time></trkpt><trkpt lat="45.9797971" lon="13.4357439"><ele>68.66666666666667</ele><time>2026-05-03T08:51:54.121Z</time></trkpt><trkpt lat="45.9797028" lon="13.436014"><ele>69.0</ele><time>2026-05-03T08:51:55.119Z</time></trkpt><trkpt lat="45.9796093" lon="13.4362867"><ele>68.0</ele><time>2026-05-03T08:51:56.114Z</time></trkpt><trkpt lat="45.9795064" lon="13.4365573"><ele>67.0</ele><time>2026-05-03T08:51:57.116Z</time></trkpt><trkpt lat="45.9793915" lon="13.4368285"><ele>66.0</ele><time>2026-05-03T08:51:58.118Z</time></trkpt><trkpt lat="45.9792633" lon="13.4370919"><ele>67.33333333333333</ele><time>2026-05-03T08:51:59.122Z</time></trkpt><trkpt lat="45.9791249" lon="13.4373471"><ele>68.66666666666666</ele><time>2026-05-03T08:52:00.117Z</time></trkpt><trkpt lat="45.9789933" lon="13.4376043"><ele>70.0</ele><time>2026-05-03T08:52:01.116Z</time></trkpt><trkpt lat="45.9788659" lon="13.4378558"><ele>69.66666666666666</ele><time>2026-05-03T08:52:02.121Z</time></trkpt><trkpt lat="45.9787484" lon="13.4381122"><ele>69.33333333333333</ele><time>2026-05-03T08:52:03.117Z</time></trkpt><trkpt lat="45.9786469" lon="13.438384"><ele>69.0</ele><time>2026-05-03T08:52:04.114Z</time></trkpt><trkpt lat="45.9785651" lon="13.4386427"><ele>69.5</ele><time>2026-05-03T08:52:05.114Z</time></trkpt><trkpt lat="45.9785099" lon="13.4388783"><ele>70.0</ele><time>2026-05-03T08:52:06.126Z</time></trkpt><trkpt lat="45.9784863" lon="13.4390838"><ele>70.5</ele><time>2026-05-03T08:52:07.12Z</time></trkpt><trkpt lat="45.9784704" lon="13.4392362"><ele>71.0</ele><time>2026-05-03T08:52:08.117Z</time></trkpt><trkpt lat="45.9784476" lon="13.4393328"><ele>71.0</ele><time>2026-05-03T08:52:09.122Z</time></trkpt><trkpt lat="45.9783935" lon="13.4393838"><ele>71.0</ele><time>2026-05-03T08:52:10.113Z</time></trkpt><trkpt lat="45.9782715" lon="13.4393222"><ele>71.0</ele><time>2026-05-03T08:52:12.119Z</time></trkpt><trkpt lat="45.9782246" lon="13.4392103"><ele>71.0</ele><time>2026-05-03T08:52:13.12Z</time></trkpt><trkpt lat="45.9781886" lon="13.4390617"><ele>71.0</ele><time>2026-05-03T08:52:14.114Z</time></trkpt><trkpt lat="45.9781486" lon="13.4388927"><ele>70.5</ele><time>2026-05-03T08:52:15.118Z</time></trkpt><trkpt lat="45.9780989" lon="13.4387071"><ele>70.0</ele><time>2026-05-03T08:52:16.112Z</time></trkpt><trkpt lat="45.978038" lon="13.438508"><ele>69.5</ele><time>2026-05-03T08:52:17.108Z</time></trkpt><trkpt lat="45.9779752" lon="13.4383041"><ele>69.0</ele><time>2026-05-03T08:52:18.117Z</time></trkpt><trkpt lat="45.9779162" lon="13.4380979"><ele>69.33333333333333</ele><time>2026-05-03T08:52:19.124Z</time></trkpt><trkpt lat="45.9778651" lon="13.4378864"><ele>69.66666666666666</ele><time>2026-05-03T08:52:20.121Z</time></trkpt><trkpt lat="45.9778386" lon="13.437662"><ele>70.0</ele><time>2026-05-03T08:52:21.128Z</time></trkpt><trkpt lat="45.9778283" lon="13.4374336"><ele>70.0</ele><time>2026-05-03T08:52:22.115Z</time></trkpt><trkpt lat="45.9778267" lon="13.4372447"><ele>70.0</ele><time>2026-05-03T08:52:23.123Z</time></trkpt><trkpt lat="45.9778407" lon="13.4370975"><ele>70.0</ele><time>2026-05-03T08:52:24.125Z</time></trkpt><trkpt lat="45.9778698" lon="13.4369496"><ele>70.0</ele><time>2026-05-03T08:52:25.119Z</time></trkpt><trkpt lat="45.97791" lon="13.4368001"><ele>69.5</ele><time>2026-05-03T08:52:26.112Z</time></trkpt><trkpt lat="45.9779512" lon="13.4366437"><ele>69.0</ele><time>2026-05-03T08:52:27.115Z</time></trkpt><trkpt lat="45.9779864" lon="13.4364839"><ele>68.5</ele><time>2026-05-03T08:52:28.108Z</time></trkpt><trkpt lat="45.9779952" lon="13.4363205"><ele>68.0</ele><time>2026-05-03T08:52:29.113Z</time></trkpt><trkpt lat="45.9779785" lon="13.43614"><ele>67.66666666666667</ele><time>2026-05-03T08:52:30.112Z</time></trkpt><trkpt lat="45.9779413" lon="13.435934"><ele>67.33333333333333</ele><time>2026-05-03T08:52:31.118Z</time></trkpt><trkpt lat="45.9778803" lon="13.435735"><ele>67.0</ele><time>2026-05-03T08:52:32.109Z</time></trkpt><trkpt lat="45.9778076" lon="13.435544"><ele>67.0</ele><time>2026-05-03T08:52:33.125Z</time></trkpt><trkpt lat="45.9777144" lon="13.4353712"><ele>67.0</ele><time>2026-05-03T08:52:34.111Z</time></trkpt><trkpt lat="45.9775976" lon="13.4352152"><ele>67.0</ele><time>2026-05-03T08:52:35.118Z</time></trkpt><trkpt lat="45.977482" lon="13.435055"><ele>66.33333333333333</ele><time>2026-05-03T08:52:36.121Z</time></trkpt><trkpt lat="45.9773945" lon="13.4348625"><ele>65.66666666666667</ele><time>2026-05-03T08:52:37.109Z</time></trkpt><trkpt lat="45.9773262" lon="13.434641"><ele>65.0</ele><time>2026-05-03T08:52:38.106Z</time></trkpt><trkpt lat="45.9772642" lon="13.4344167"><ele>64.66666666666667</ele><time>2026-05-03T08:52:39.11Z</time></trkpt><trkpt lat="45.9771965" lon="13.4341977"><ele>64.33333333333333</ele><time>2026-05-03T08:52:40.113Z</time></trkpt><trkpt lat="45.9771193" lon="13.4339976"><ele>64.0</ele><time>2026-05-03T08:52:41.122Z</time></trkpt><trkpt lat="45.9770465" lon="13.4338242"><ele>64.2</ele><time>2026-05-03T08:52:42.101Z</time></trkpt><trkpt lat="45.9769903" lon="13.4336658"><ele>64.4</ele><time>2026-05-03T08:52:43.124Z</time></trkpt><trkpt lat="45.9769335" lon="13.4335422"><ele>64.6</ele><time>2026-05-03T08:52:44.112Z</time></trkpt><trkpt lat="45.9768741" lon="13.4334596"><ele>64.8</ele><time>2026-05-03T08:52:45.121Z</time></trkpt><trkpt lat="45.9768165" lon="13.433412"><ele>65.0</ele><time>2026-05-03T08:52:46.112Z</time></trkpt><trkpt lat="45.9766909" lon="13.433414"><ele>64.25</ele><time>2026-05-03T08:52:48.113Z</time></trkpt><trkpt lat="45.9766079" lon="13.4334594"><ele>63.5</ele><time>2026-05-03T08:52:49.123Z</time></trkpt><trkpt lat="45.9765036" lon="13.4335341"><ele>62.75</ele><time>2026-05-03T08:52:50.108Z</time></trkpt><trkpt lat="45.9763727" lon="13.433621"><ele>62.0</ele><time>2026-05-03T08:52:51.108Z</time></trkpt><trkpt lat="45.9762226" lon="13.4337096"><ele>62.0</ele><time>2026-05-03T08:52:52.115Z</time></trkpt><trkpt lat="45.9760616" lon="13.4338022"><ele>62.0</ele><time>2026-05-03T08:52:53.114Z</time></trkpt><trkpt lat="45.9758904" lon="13.4339045"><ele>62.0</ele><time>2026-05-03T08:52:54.121Z</time></trkpt><trkpt lat="45.9757185" lon="13.4340088"><ele>62.333333333333336</ele><time>2026-05-03T08:52:55.11Z</time></trkpt><trkpt lat="45.975542" lon="13.4341075"><ele>62.66666666666667</ele><time>2026-05-03T08:52:56.112Z</time></trkpt><trkpt lat="45.9753579" lon="13.4342059"><ele>63.0</ele><time>2026-05-03T08:52:57.111Z</time></trkpt><trkpt lat="45.9751693" lon="13.4343034"><ele>63.33333333333333</ele><time>2026-05-03T08:52:58.113Z</time></trkpt><trkpt lat="45.9749827" lon="13.4344028"><ele>63.666666666666664</ele><time>2026-05-03T08:52:59.104Z</time></trkpt><trkpt lat="45.9748092" lon="13.4345037"><ele>64.0</ele><time>2026-05-03T08:53:00.112Z</time></trkpt><trkpt lat="45.9746495" lon="13.4345991"><ele>62.33333333333333</ele><time>2026-05-03T08:53:01.11Z</time></trkpt><trkpt lat="45.9745032" lon="13.4346853"><ele>60.66666666666667</ele><time>2026-05-03T08:53:02.112Z</time></trkpt><trkpt lat="45.9743612" lon="13.4347693"><ele>59.0</ele><time>2026-05-03T08:53:03.111Z</time></trkpt><trkpt lat="45.9742136" lon="13.4348384"><ele>59.0</ele><time>2026-05-03T08:53:04.104Z</time></trkpt><trkpt lat="45.9740525" lon="13.4348888"><ele>59.0</ele><time>2026-05-03T08:53:05.115Z</time></trkpt><trkpt lat="45.973886" lon="13.4349417"><ele>59.0</ele><time>2026-05-03T08:53:06.111Z</time></trkpt><trkpt lat="45.9737344" lon="13.4349863"><ele>59.0</ele><time>2026-05-03T08:53:07.118Z</time></trkpt><trkpt lat="45.9736117" lon="13.4350353"><ele>59.0</ele><time>2026-05-03T08:53:08.111Z</time></trkpt><trkpt lat="45.9734948" lon="13.4350942"><ele>59.0</ele><time>2026-05-03T08:53:09.111Z</time></trkpt><trkpt lat="45.9733738" lon="13.4351809"><ele>59.0</ele><time>2026-05-03T08:53:10.11Z</time></trkpt><trkpt lat="45.9732649" lon="13.435278"><ele>59.00000000000001</ele><time>2026-05-03T08:53:11.116Z</time></trkpt><trkpt lat="45.9731746" lon="13.4353552"><ele>59.0</ele><time>2026-05-03T08:53:12.115Z</time></trkpt><trkpt lat="45.973101" lon="13.4354136"><ele>59.0</ele><time>2026-05-03T08:53:13.113Z</time></trkpt><trkpt lat="45.973042" lon="13.4354567"><ele>59.0</ele><time>2026-05-03T08:53:14.109Z</time></trkpt><trkpt lat="45.9729723" lon="13.4355025"><ele>59.00000000000001</ele><time>2026-05-03T08:53:16.125Z</time></trkpt><trkpt lat="45.9729674" lon="13.4356005"><ele>59.0</ele><time>2026-05-03T08:53:18.112Z</time></trkpt><trkpt lat="45.972977" lon="13.4357191"><ele>59.0</ele><time>2026-05-03T08:53:20.107Z</time></trkpt><trkpt lat="45.9729239" lon="13.4357757"><ele>59.00000000000001</ele><time>2026-05-03T08:53:22.112Z</time></trkpt><trkpt lat="45.9727909" lon="13.4357545"><ele>59.00000000000001</ele><time>2026-05-03T08:53:24.112Z</time></trkpt><trkpt lat="45.9726904" lon="13.4357477"><ele>59.0</ele><time>2026-05-03T08:53:25.119Z</time></trkpt><trkpt lat="45.9725785" lon="13.4357398"><ele>59.0</ele><time>2026-05-03T08:53:26.111Z</time></trkpt><trkpt lat="45.9724754" lon="13.4357323"><ele>58.75</ele><time>2026-05-03T08:53:27.108Z</time></trkpt><trkpt lat="45.9723759" lon="13.4357156"><ele>58.5</ele><time>2026-05-03T08:53:28.128Z</time></trkpt><trkpt lat="45.9722622" lon="13.435697"><ele>58.25</ele><time>2026-05-03T08:53:29.108Z</time></trkpt><trkpt lat="45.9721398" lon="13.4356832"><ele>58.0</ele><time>2026-05-03T08:53:30.116Z</time></trkpt><trkpt lat="45.9720176" lon="13.4356726"><ele>58.0</ele><time>2026-05-03T08:53:31.104Z</time></trkpt><trkpt lat="45.9718978" lon="13.4356806"><ele>58.0</ele><time>2026-05-03T08:53:32.116Z</time></trkpt><trkpt lat="45.9717811" lon="13.4357118"><ele>58.0</ele><time>2026-05-03T08:53:33.121Z</time></trkpt><trkpt lat="45.971659" lon="13.4357657"><ele>58.0</ele><time>2026-05-03T08:53:34.106Z</time></trkpt><trkpt lat="45.9715295" lon="13.4358343"><ele>57.8</ele><time>2026-05-03T08:53:35.116Z</time></trkpt><trkpt lat="45.9714027" lon="13.4358934"><ele>57.599999999999994</ele><time>2026-05-03T08:53:36.11Z</time></trkpt><trkpt lat="45.97129" lon="13.4359408"><ele>57.400000000000006</ele><time>2026-05-03T08:53:37.111Z</time></trkpt><trkpt lat="45.9711895" lon="13.4359868"><ele>57.2</ele><time>2026-05-03T08:53:38.125Z</time></trkpt><trkpt lat="45.9711062" lon="13.4360283"><ele>57.0</ele><time>2026-05-03T08:53:39.123Z</time></trkpt><trkpt lat="45.9710157" lon="13.4361232"><ele>56.333333333333336</ele><time>2026-05-03T08:53:41.109Z</time></trkpt><trkpt lat="45.970993" lon="13.4363096"><ele>55.66666666666667</ele><time>2026-05-03T08:53:43.112Z</time></trkpt><trkpt lat="45.9709805" lon="13.43642"><ele>55.0</ele><time>2026-05-03T08:53:44.112Z</time></trkpt><trkpt lat="45.9709523" lon="13.4365208"><ele>54.333333333333336</ele><time>2026-05-03T08:53:45.114Z</time></trkpt><trkpt lat="45.9709022" lon="13.4366038"><ele>53.66666666666667</ele><time>2026-05-03T08:53:46.125Z</time></trkpt><trkpt lat="45.9708452" lon="13.4366839"><ele>53.0</ele><time>2026-05-03T08:53:47.115Z</time></trkpt><trkpt lat="45.9707668" lon="13.4367763"><ele>53.0</ele><time>2026-05-03T08:53:48.108Z</time></trkpt><trkpt lat="45.970673" lon="13.4368849"><ele>53.0</ele><time>2026-05-03T08:53:49.113Z</time></trkpt><trkpt lat="45.9705783" lon="13.4369979"><ele>53.0</ele><time>2026-05-03T08:53:50.118Z</time></trkpt><trkpt lat="45.9704805" lon="13.437111"><ele>53.0</ele><time>2026-05-03T08:53:51.11Z</time></trkpt><trkpt lat="45.9703943" lon="13.4372177"><ele>53.0</ele><time>2026-05-03T08:53:52.117Z</time></trkpt><trkpt lat="45.9703327" lon="13.4373308"><ele>53.0</ele><time>2026-05-03T08:53:53.106Z</time></trkpt><trkpt lat="45.9702853" lon="13.4374671"><ele>53.0</ele><time>2026-05-03T08:53:54.124Z</time></trkpt><trkpt lat="45.9702482" lon="13.4376279"><ele>53.0</ele><time>2026-05-03T08:53:55.119Z</time></trkpt><trkpt lat="45.9702033" lon="13.4377775"><ele>53.0</ele><time>2026-05-03T08:53:56.126Z</time></trkpt><trkpt lat="45.9701366" lon="13.4379121"><ele>52.75</ele><time>2026-05-03T08:53:57.115Z</time></trkpt><trkpt lat="45.9700634" lon="13.4380279"><ele>52.5</ele><time>2026-05-03T08:53:58.118Z</time></trkpt><trkpt lat="45.9699747" lon="13.4381322"><ele>52.25</ele><time>2026-05-03T08:53:59.113Z</time></trkpt><trkpt lat="45.9698654" lon="13.4382244"><ele>52.0</ele><time>2026-05-03T08:54:00.119Z</time></trkpt><trkpt lat="45.9697376" lon="13.4383281"><ele>52.0</ele><time>2026-05-03T08:54:01.118Z</time></trkpt><trkpt lat="45.9695989" lon="13.4384345"><ele>52.0</ele><time>2026-05-03T08:54:02.112Z</time></trkpt><trkpt lat="45.9694596" lon="13.4385273"><ele>52.0</ele><time>2026-05-03T08:54:03.11Z</time></trkpt><trkpt lat="45.9693228" lon="13.438616"><ele>51.75</ele><time>2026-05-03T08:54:04.111Z</time></trkpt><trkpt lat="45.9691919" lon="13.438705"><ele>51.5</ele><time>2026-05-03T08:54:05.108Z</time></trkpt><trkpt lat="45.9690729" lon="13.4387899"><ele>51.25</ele><time>2026-05-03T08:54:06.114Z</time></trkpt><trkpt lat="45.9689692" lon="13.4388652"><ele>51.0</ele><time>2026-05-03T08:54:07.105Z</time></trkpt><trkpt lat="45.9688603" lon="13.4389389"><ele>51.0</ele><time>2026-05-03T08:54:08.112Z</time></trkpt><trkpt lat="45.9687455" lon="13.4390026"><ele>51.0</ele><time>2026-05-03T08:54:09.105Z</time></trkpt><trkpt lat="45.9686192" lon="13.4390528"><ele>51.0</ele><time>2026-05-03T08:54:10.112Z</time></trkpt><trkpt lat="45.9684787" lon="13.4390877"><ele>51.0</ele><time>2026-05-03T08:54:11.11Z</time></trkpt><trkpt lat="45.9683283" lon="13.4391182"><ele>50.75</ele><time>2026-05-03T08:54:12.096Z</time></trkpt><trkpt lat="45.9681884" lon="13.4391568"><ele>50.5</ele><time>2026-05-03T08:54:13.118Z</time></trkpt><trkpt lat="45.9680561" lon="13.4391952"><ele>50.25</ele><time>2026-05-03T08:54:14.1Z</time></trkpt><trkpt lat="45.9679254" lon="13.439224"><ele>50.0</ele><time>2026-05-03T08:54:15.104Z</time></trkpt><trkpt lat="45.9678013" lon="13.4392582"><ele>50.0</ele><time>2026-05-03T08:54:16.122Z</time></trkpt><trkpt lat="45.9676867" lon="13.4392933"><ele>50.0</ele><time>2026-05-03T08:54:17.11Z</time></trkpt><trkpt lat="45.9675887" lon="13.4393279"><ele>50.0</ele><time>2026-05-03T08:54:18.12Z</time></trkpt><trkpt lat="45.9675062" lon="13.4393513"><ele>50.0</ele><time>2026-05-03T08:54:19.114Z</time></trkpt><trkpt lat="45.9674225" lon="13.4393485"><ele>50.0</ele><time>2026-05-03T08:54:20.13Z</time></trkpt><trkpt lat="45.9673241" lon="13.4393271"><ele>50.0</ele><time>2026-05-03T08:54:21.119Z</time></trkpt><trkpt lat="45.9671989" lon="13.439288"><ele>50.0</ele><time>2026-05-03T08:54:22.119Z</time></trkpt><trkpt lat="45.9670632" lon="13.439259"><ele>50.0</ele><time>2026-05-03T08:54:23.113Z</time></trkpt><trkpt lat="45.9669203" lon="13.4392416"><ele>50.0</ele><time>2026-05-03T08:54:24.137Z</time></trkpt><trkpt lat="45.9667718" lon="13.4392455"><ele>49.0</ele><time>2026-05-03T08:54:25.114Z</time></trkpt><trkpt lat="45.9666122" lon="13.4392737"><ele>48.0</ele><time>2026-05-03T08:54:26.121Z</time></trkpt><trkpt lat="45.9664447" lon="13.4393142"><ele>47.0</ele><time>2026-05-03T08:54:27.118Z</time></trkpt><trkpt lat="45.9662748" lon="13.4393484"><ele>47.0</ele><time>2026-05-03T08:54:28.108Z</time></trkpt><trkpt lat="45.9661112" lon="13.4393741"><ele>47.0</ele><time>2026-05-03T08:54:29.111Z</time></trkpt><trkpt lat="45.9659542" lon="13.4394055"><ele>47.0</ele><time>2026-05-03T08:54:30.115Z</time></trkpt><trkpt lat="45.9658113" lon="13.4394361"><ele>46.8</ele><time>2026-05-03T08:54:31.11Z</time></trkpt><trkpt lat="45.9656786" lon="13.4394599"><ele>46.6</ele><time>2026-05-03T08:54:32.108Z</time></trkpt><trkpt lat="45.9655597" lon="13.4394825"><ele>46.4</ele><time>2026-05-03T08:54:33.112Z</time></trkpt><trkpt lat="45.9654737" lon="13.4394949"><ele>46.199999999999996</ele><time>2026-05-03T08:54:34.116Z</time></trkpt><trkpt lat="45.9653826" lon="13.4395273"><ele>46.0</ele><time>2026-05-03T08:54:36.115Z</time></trkpt><trkpt lat="45.9653316" lon="13.439594"><ele>46.5</ele><time>2026-05-03T08:54:38.112Z</time></trkpt><trkpt lat="45.9653441" lon="13.439763"><ele>47.0</ele><time>2026-05-03T08:54:40.107Z</time></trkpt><trkpt lat="45.9653515" lon="13.4398566"><ele>47.5</ele><time>2026-05-03T08:54:41.108Z</time></trkpt><trkpt lat="45.9653614" lon="13.4399628"><ele>48.0</ele><time>2026-05-03T08:54:42.112Z</time></trkpt><trkpt lat="45.96537" lon="13.4400738"><ele>48.49999999999999</ele><time>2026-05-03T08:54:43.107Z</time></trkpt><trkpt lat="45.9653777" lon="13.4401967"><ele>49.0</ele><time>2026-05-03T08:54:44.131Z</time></trkpt><trkpt lat="45.9653836" lon="13.4403278"><ele>49.400000000000006</ele><time>2026-05-03T08:54:45.126Z</time></trkpt><trkpt lat="45.9653905" lon="13.4404664"><ele>49.8</ele><time>2026-05-03T08:54:46.118Z</time></trkpt><trkpt lat="45.9654023" lon="13.4406063"><ele>50.2</ele><time>2026-05-03T08:54:47.122Z</time></trkpt><trkpt lat="45.9654173" lon="13.4407398"><ele>50.599999999999994</ele><time>2026-05-03T08:54:48.108Z</time></trkpt><trkpt lat="45.9654302" lon="13.4408714"><ele>51.0</ele><time>2026-05-03T08:54:49.108Z</time></trkpt><trkpt lat="45.9654393" lon="13.4410028"><ele>51.0</ele><time>2026-05-03T08:54:50.105Z</time></trkpt><trkpt lat="45.965452" lon="13.4411316"><ele>51.0</ele><time>2026-05-03T08:54:51.113Z</time></trkpt><trkpt lat="45.9654664" lon="13.4412636"><ele>51.0</ele><time>2026-05-03T08:54:52.119Z</time></trkpt><trkpt lat="45.9654795" lon="13.4413989"><ele>51.0</ele><time>2026-05-03T08:54:53.108Z</time></trkpt><trkpt lat="45.9655017" lon="13.4415351"><ele>51.0</ele><time>2026-05-03T08:54:54.114Z</time></trkpt><trkpt lat="45.9655194" lon="13.4416759"><ele>50.8</ele><time>2026-05-03T08:54:55.105Z</time></trkpt><trkpt lat="45.9655349" lon="13.4418205"><ele>50.599999999999994</ele><time>2026-05-03T08:54:56.108Z</time></trkpt><trkpt lat="45.9655524" lon="13.441963"><ele>50.4</ele><time>2026-05-03T08:54:57.116Z</time></trkpt><trkpt lat="45.9655703" lon="13.4420926"><ele>50.2</ele><time>2026-05-03T08:54:58.11Z</time></trkpt><trkpt lat="45.965587" lon="13.4422125"><ele>50.0</ele><time>2026-05-03T08:54:59.112Z</time></trkpt><trkpt lat="45.9656007" lon="13.4423236"><ele>49.833333333333336</ele><time>2026-05-03T08:55:00.109Z</time></trkpt><trkpt lat="45.9656081" lon="13.4424245"><ele>49.66666666666667</ele><time>2026-05-03T08:55:01.11Z</time></trkpt><trkpt lat="45.9656128" lon="13.4425165"><ele>49.5</ele><time>2026-05-03T08:55:02.113Z</time></trkpt><trkpt lat="45.9656296" lon="13.4426717"><ele>49.33333333333333</ele><time>2026-05-03T08:55:04.114Z</time></trkpt><trkpt lat="45.9656387" lon="13.442816"><ele>49.166666666666664</ele><time>2026-05-03T08:55:06.106Z</time></trkpt><trkpt lat="45.9656422" lon="13.4429507"><ele>49.0</ele><time>2026-05-03T08:55:08.114Z</time></trkpt><trkpt lat="45.9656583" lon="13.4430765"><ele>49.0</ele><time>2026-05-03T08:55:10.114Z</time></trkpt><trkpt lat="45.9656749" lon="13.4431925"><ele>49.0</ele><time>2026-05-03T08:55:12.12Z</time></trkpt><trkpt lat="45.9657027" lon="13.4433779"><ele>49.0</ele><time>2026-05-03T08:55:14.108Z</time></trkpt><trkpt lat="45.9657199" lon="13.4435209"><ele>49.0</ele><time>2026-05-03T08:55:15.118Z</time></trkpt><trkpt lat="45.9657369" lon="13.4436929"><ele>49.0</ele><time>2026-05-03T08:55:16.111Z</time></trkpt><trkpt lat="45.9657539" lon="13.4439028"><ele>49.33333333333333</ele><time>2026-05-03T08:55:17.113Z</time></trkpt><trkpt lat="45.9657786" lon="13.4441273"><ele>49.66666666666667</ele><time>2026-05-03T08:55:18.112Z</time></trkpt><trkpt lat="45.9658098" lon="13.4443786"><ele>50.0</ele><time>2026-05-03T08:55:19.111Z</time></trkpt><trkpt lat="45.9658454" lon="13.4446482"><ele>50.66666666666667</ele><time>2026-05-03T08:55:20.115Z</time></trkpt><trkpt lat="45.9658727" lon="13.4449179"><ele>51.33333333333333</ele><time>2026-05-03T08:55:21.124Z</time></trkpt><trkpt lat="45.9659019" lon="13.4451968"><ele>52.0</ele><time>2026-05-03T08:55:22.136Z</time></trkpt><trkpt lat="45.9659319" lon="13.4454723"><ele>53.33333333333333</ele><time>2026-05-03T08:55:23.121Z</time></trkpt><trkpt lat="45.9659651" lon="13.4457576"><ele>54.66666666666667</ele><time>2026-05-03T08:55:24.126Z</time></trkpt><trkpt lat="45.9659941" lon="13.4460407"><ele>56.0</ele><time>2026-05-03T08:55:25.109Z</time></trkpt><trkpt lat="45.9660255" lon="13.4463154"><ele>57.0</ele><time>2026-05-03T08:55:26.12Z</time></trkpt><trkpt lat="45.9660511" lon="13.4465734"><ele>58.0</ele><time>2026-05-03T08:55:27.128Z</time></trkpt><trkpt lat="45.9660649" lon="13.4468159"><ele>59.0</ele><time>2026-05-03T08:55:28.121Z</time></trkpt><trkpt lat="45.9660598" lon="13.4470442"><ele>59.2</ele><time>2026-05-03T08:55:29.134Z</time></trkpt><trkpt lat="45.9660424" lon="13.4472494"><ele>59.400000000000006</ele><time>2026-05-03T08:55:30.13Z</time></trkpt><trkpt lat="45.9660143" lon="13.447416"><ele>59.6</ele><time>2026-05-03T08:55:31.116Z</time></trkpt><trkpt lat="45.9659874" lon="13.447553"><ele>59.8</ele><time>2026-05-03T08:55:32.12Z</time></trkpt><trkpt lat="45.9659604" lon="13.4476672"><ele>60.0</ele><time>2026-05-03T08:55:33.136Z</time></trkpt><trkpt lat="45.9659278" lon="13.4477484"><ele>59.0</ele><time>2026-05-03T08:55:34.118Z</time></trkpt><trkpt lat="45.965837" lon="13.4477788"><ele>58.0</ele><time>2026-05-03T08:55:36.114Z</time></trkpt><trkpt lat="45.9657282" lon="13.4477053"><ele>57.0</ele><time>2026-05-03T08:55:38.102Z</time></trkpt><trkpt lat="45.9656488" lon="13.4476401"><ele>56.0</ele><time>2026-05-03T08:55:39.122Z</time></trkpt><trkpt lat="45.9655527" lon="13.4475613"><ele>55.0</ele><time>2026-05-03T08:55:40.118Z</time></trkpt><trkpt lat="45.9654375" lon="13.4474831"><ele>55.0</ele><time>2026-05-03T08:55:41.127Z</time></trkpt><trkpt lat="45.9653169" lon="13.4474009"><ele>55.0</ele><time>2026-05-03T08:55:42.101Z</time></trkpt><trkpt lat="45.9651864" lon="13.4473167"><ele>55.0</ele><time>2026-05-03T08:55:43.106Z</time></trkpt><trkpt lat="45.9650484" lon="13.447238"><ele>55.0</ele><time>2026-05-03T08:55:44.108Z</time></trkpt><trkpt lat="45.9649046" lon="13.4471779"><ele>54.75</ele><time>2026-05-03T08:55:45.112Z</time></trkpt><trkpt lat="45.9647608" lon="13.4471341"><ele>54.5</ele><time>2026-05-03T08:55:46.113Z</time></trkpt><trkpt lat="45.9646177" lon="13.4471"><ele>54.25</ele><time>2026-05-03T08:55:47.106Z</time></trkpt><trkpt lat="45.9644837" lon="13.447057"><ele>54.0</ele><time>2026-05-03T08:55:48.118Z</time></trkpt><trkpt lat="45.9643666" lon="13.44702"><ele>53.6</ele><time>2026-05-03T08:55:49.11Z</time></trkpt><trkpt lat="45.9642663" lon="13.4469739"><ele>53.2</ele><time>2026-05-03T08:55:50.107Z</time></trkpt><trkpt lat="45.9641671" lon="13.4469209"><ele>52.800000000000004</ele><time>2026-05-03T08:55:51.125Z</time></trkpt><trkpt lat="45.9640756" lon="13.4468547"><ele>52.400000000000006</ele><time>2026-05-03T08:55:52.121Z</time></trkpt><trkpt lat="45.9639734" lon="13.4467708"><ele>52.0</ele><time>2026-05-03T08:55:53.12Z</time></trkpt><trkpt lat="45.963878" lon="13.4466796"><ele>52.0</ele><time>2026-05-03T08:55:54.116Z</time></trkpt><trkpt lat="45.9637878" lon="13.4466095"><ele>52.0</ele><time>2026-05-03T08:55:55.102Z</time></trkpt><trkpt lat="45.9637048" lon="13.4465387"><ele>52.0</ele><time>2026-05-03T08:55:56.109Z</time></trkpt><trkpt lat="45.9636243" lon="13.4464647"><ele>52.0</ele><time>2026-05-03T08:55:57.107Z</time></trkpt><trkpt lat="45.9635528" lon="13.4463926"><ele>52.0</ele><time>2026-05-03T08:55:58.105Z</time></trkpt><trkpt lat="45.9634926" lon="13.4463269"><ele>51.99999999999999</ele><time>2026-05-03T08:55:59.111Z</time></trkpt><trkpt lat="45.9634491" lon="13.4462447"><ele>52.0</ele><time>2026-05-03T08:56:00.116Z</time></trkpt><trkpt lat="45.9634096" lon="13.4461486"><ele>52.0</ele><time>2026-05-03T08:56:01.102Z</time></trkpt><trkpt lat="45.963362" lon="13.4460446"><ele>52.0</ele><time>2026-05-03T08:56:02.102Z</time></trkpt><trkpt lat="45.9633105" lon="13.4459424"><ele>51.99999999999999</ele><time>2026-05-03T08:56:03.127Z</time></trkpt><trkpt lat="45.9632486" lon="13.4458327"><ele>52.0</ele><time>2026-05-03T08:56:04.11Z</time></trkpt><trkpt lat="45.9631828" lon="13.4457224"><ele>52.0</ele><time>2026-05-03T08:56:05.098Z</time></trkpt><trkpt lat="45.9631109" lon="13.4456307"><ele>52.0</ele><time>2026-05-03T08:56:06.115Z</time></trkpt><trkpt lat="45.963033" lon="13.4455617"><ele>52.0</ele><time>2026-05-03T08:56:07.112Z</time></trkpt><trkpt lat="45.9629487" lon="13.4455113"><ele>52.0</ele><time>2026-05-03T08:56:08.109Z</time></trkpt><trkpt lat="45.9628558" lon="13.4454632"><ele>52.0</ele><time>2026-05-03T08:56:09.118Z</time></trkpt><trkpt lat="45.9627657" lon="13.4454222"><ele>51.6</ele><time>2026-05-03T08:56:10.111Z</time></trkpt><trkpt lat="45.962692" lon="13.4453799"><ele>51.2</ele><time>2026-05-03T08:56:11.113Z</time></trkpt><trkpt lat="45.962633" lon="13.4453289"><ele>50.8</ele><time>2026-05-03T08:56:12.118Z</time></trkpt><trkpt lat="45.9625782" lon="13.4452393"><ele>50.4</ele><time>2026-05-03T08:56:13.113Z</time></trkpt><trkpt lat="45.9625359" lon="13.4450937"><ele>50.0</ele><time>2026-05-03T08:56:14.118Z</time></trkpt><trkpt lat="45.9624957" lon="13.4449235"><ele>50.0</ele><time>2026-05-03T08:56:15.093Z</time></trkpt><trkpt lat="45.9624548" lon="13.4447565"><ele>50.0</ele><time>2026-05-03T08:56:16.101Z</time></trkpt><trkpt lat="45.9624125" lon="13.4446032"><ele>50.0</ele><time>2026-05-03T08:56:17.109Z</time></trkpt><trkpt lat="45.9623667" lon="13.4444884"><ele>50.0</ele><time>2026-05-03T08:56:18.126Z</time></trkpt><trkpt lat="45.962311" lon="13.4444278"><ele>50.0</ele><time>2026-05-03T08:56:19.116Z</time></trkpt><trkpt lat="45.9622447" lon="13.4443938"><ele>49.833333333333336</ele><time>2026-05-03T08:56:20.101Z</time></trkpt><trkpt lat="45.9621756" lon="13.4443932"><ele>49.66666666666667</ele><time>2026-05-03T08:56:21.104Z</time></trkpt><trkpt lat="45.9620779" lon="13.4444264"><ele>49.5</ele><time>2026-05-03T08:56:23.117Z</time></trkpt><trkpt lat="45.9620074" lon="13.4443499"><ele>49.33333333333333</ele><time>2026-05-03T08:56:29.108Z</time></trkpt><trkpt lat="45.9619981" lon="13.4442541"><ele>49.166666666666664</ele><time>2026-05-03T08:56:32.107Z</time></trkpt><trkpt lat="45.9619722" lon="13.4441616"><ele>49.0</ele><time>2026-05-03T08:56:34.108Z</time></trkpt><trkpt lat="45.9619236" lon="13.444084"><ele>48.99999999999999</ele><time>2026-05-03T08:56:36.11Z</time></trkpt><trkpt lat="45.9618131" lon="13.4440246"><ele>49.0</ele><time>2026-05-03T08:56:38.102Z</time></trkpt><trkpt lat="45.9617465" lon="13.4440179"><ele>49.0</ele><time>2026-05-03T08:56:39.107Z</time></trkpt><trkpt lat="45.9616803" lon="13.4440329"><ele>49.0</ele><time>2026-05-03T08:56:40.101Z</time></trkpt><trkpt lat="45.961611" lon="13.4440607"><ele>48.99999999999999</ele><time>2026-05-03T08:56:41.116Z</time></trkpt><trkpt lat="45.9615354" lon="13.444092"><ele>49.0</ele><time>2026-05-03T08:56:42.107Z</time></trkpt><trkpt lat="45.9614472" lon="13.4440771"><ele>49.800000000000004</ele><time>2026-05-03T08:56:43.111Z</time></trkpt><trkpt lat="45.9613547" lon="13.4440461"><ele>50.6</ele><time>2026-05-03T08:56:44.101Z</time></trkpt><trkpt lat="45.9612628" lon="13.4440084"><ele>51.4</ele><time>2026-05-03T08:56:45.11Z</time></trkpt><trkpt lat="45.9611637" lon="13.4439819"><ele>52.2</ele><time>2026-05-03T08:56:46.113Z</time></trkpt><trkpt lat="45.9610468" lon="13.4439563"><ele>53.0</ele><time>2026-05-03T08:56:47.114Z</time></trkpt><trkpt lat="45.9609213" lon="13.4439347"><ele>53.0</ele><time>2026-05-03T08:56:48.115Z</time></trkpt><trkpt lat="45.9607934" lon="13.4439217"><ele>53.0</ele><time>2026-05-03T08:56:49.108Z</time></trkpt><trkpt lat="45.960673" lon="13.4439162"><ele>53.0</ele><time>2026-05-03T08:56:50.112Z</time></trkpt><trkpt lat="45.960555" lon="13.4439088"><ele>53.0</ele><time>2026-05-03T08:56:51.105Z</time></trkpt><trkpt lat="45.960444" lon="13.4439071"><ele>53.0</ele><time>2026-05-03T08:56:52.113Z</time></trkpt><trkpt lat="45.9603426" lon="13.4439071"><ele>53.0</ele><time>2026-05-03T08:56:53.117Z</time></trkpt><trkpt lat="45.9602487" lon="13.4438955"><ele>53.0</ele><time>2026-05-03T08:56:54.118Z</time></trkpt><trkpt lat="45.9601494" lon="13.4438679"><ele>53.0</ele><time>2026-05-03T08:56:55.122Z</time></trkpt><trkpt lat="45.9600194" lon="13.4438184"><ele>53.0</ele><time>2026-05-03T08:56:56.119Z</time></trkpt><trkpt lat="45.9598749" lon="13.4437663"><ele>52.333333333333336</ele><time>2026-05-03T08:56:57.127Z</time></trkpt><trkpt lat="45.9597291" lon="13.4437169"><ele>51.66666666666667</ele><time>2026-05-03T08:56:58.112Z</time></trkpt><trkpt lat="45.959583" lon="13.4436717"><ele>51.0</ele><time>2026-05-03T08:56:59.107Z</time></trkpt><trkpt lat="45.959427" lon="13.4436257"><ele>51.0</ele><time>2026-05-03T08:57:00.105Z</time></trkpt><trkpt lat="45.959267" lon="13.4435833"><ele>51.0</ele><time>2026-05-03T08:57:01.108Z</time></trkpt><trkpt lat="45.9590996" lon="13.4435338"><ele>51.0</ele><time>2026-05-03T08:57:02.106Z</time></trkpt><trkpt lat="45.9589292" lon="13.4434795"><ele>50.33333333333333</ele><time>2026-05-03T08:57:03.12Z</time></trkpt><trkpt lat="45.9587607" lon="13.4434309"><ele>49.666666666666664</ele><time>2026-05-03T08:57:04.101Z</time></trkpt><trkpt lat="45.9585972" lon="13.4433862"><ele>49.0</ele><time>2026-05-03T08:57:05.108Z</time></trkpt><trkpt lat="45.9584313" lon="13.4433664"><ele>49.33333333333333</ele><time>2026-05-03T08:57:06.105Z</time></trkpt><trkpt lat="45.9582601" lon="13.443371"><ele>49.66666666666667</ele><time>2026-05-03T08:57:07.102Z</time></trkpt><trkpt lat="45.9580831" lon="13.4433684"><ele>50.0</ele><time>2026-05-03T08:57:08.113Z</time></trkpt><trkpt lat="45.9579034" lon="13.4433484"><ele>50.0</ele><time>2026-05-03T08:57:09.096Z</time></trkpt><trkpt lat="45.9577106" lon="13.4433247"><ele>50.0</ele><time>2026-05-03T08:57:10.1Z</time></trkpt><trkpt lat="45.9575063" lon="13.4432994"><ele>50.0</ele><time>2026-05-03T08:57:11.104Z</time></trkpt><trkpt lat="45.9572966" lon="13.4432731"><ele>50.0</ele><time>2026-05-03T08:57:12.098Z</time></trkpt><trkpt lat="45.957085" lon="13.4432451"><ele>50.0</ele><time>2026-05-03T08:57:13.108Z</time></trkpt><trkpt lat="45.9568706" lon="13.4432214"><ele>50.0</ele><time>2026-05-03T08:57:14.113Z</time></trkpt><trkpt lat="45.9566536" lon="13.4431978"><ele>50.333333333333336</ele><time>2026-05-03T08:57:15.102Z</time></trkpt><trkpt lat="45.9564403" lon="13.4431746"><ele>50.66666666666667</ele><time>2026-05-03T08:57:16.095Z</time></trkpt><trkpt lat="45.9562399" lon="13.4431661"><ele>51.0</ele><time>2026-05-03T08:57:17.105Z</time></trkpt><trkpt lat="45.9560558" lon="13.4431652"><ele>51.0</ele><time>2026-05-03T08:57:18.112Z</time></trkpt><trkpt lat="45.9558826" lon="13.4431644"><ele>51.0</ele><time>2026-05-03T08:57:19.118Z</time></trkpt><trkpt lat="45.9557311" lon="13.4431674"><ele>51.0</ele><time>2026-05-03T08:57:20.095Z</time></trkpt><trkpt lat="45.9555975" lon="13.4431747"><ele>51.199999999999996</ele><time>2026-05-03T08:57:21.109Z</time></trkpt><trkpt lat="45.9554776" lon="13.4431785"><ele>51.4</ele><time>2026-05-03T08:57:22.111Z</time></trkpt><trkpt lat="45.9553891" lon="13.4431819"><ele>51.6</ele><time>2026-05-03T08:57:23.107Z</time></trkpt><trkpt lat="45.9552663" lon="13.4431651"><ele>51.8</ele><time>2026-05-03T08:57:25.103Z</time></trkpt><trkpt lat="45.9551781" lon="13.4431441"><ele>52.0</ele><time>2026-05-03T08:57:26.111Z</time></trkpt><trkpt lat="45.9550609" lon="13.4431165"><ele>51.75</ele><time>2026-05-03T08:57:27.103Z</time></trkpt><trkpt lat="45.9549369" lon="13.4430949"><ele>51.5</ele><time>2026-05-03T08:57:28.107Z</time></trkpt><trkpt lat="45.9548134" lon="13.4430765"><ele>51.25</ele><time>2026-05-03T08:57:29.101Z</time></trkpt><trkpt lat="45.954703" lon="13.4430661"><ele>51.0</ele><time>2026-05-03T08:57:30.107Z</time></trkpt><trkpt lat="45.9545964" lon="13.4430543"><ele>51.0</ele><time>2026-05-03T08:57:31.101Z</time></trkpt><trkpt lat="45.9544924" lon="13.443052"><ele>51.0</ele><time>2026-05-03T08:57:32.104Z</time></trkpt><trkpt lat="45.9543903" lon="13.4430516"><ele>51.0</ele><time>2026-05-03T08:57:33.101Z</time></trkpt><trkpt lat="45.9542759" lon="13.4430503"><ele>51.0</ele><time>2026-05-03T08:57:34.104Z</time></trkpt><trkpt lat="45.9541378" lon="13.4430498"><ele>51.0</ele><time>2026-05-03T08:57:35.108Z</time></trkpt><trkpt lat="45.9539856" lon="13.4430436"><ele>51.0</ele><time>2026-05-03T08:57:36.107Z</time></trkpt><trkpt lat="45.9538132" lon="13.443017"><ele>51.0</ele><time>2026-05-03T08:57:37.106Z</time></trkpt><trkpt lat="45.9536496" lon="13.442988"><ele>50.75</ele><time>2026-05-03T08:57:38.105Z</time></trkpt><trkpt lat="45.9535026" lon="13.4429573"><ele>50.5</ele><time>2026-05-03T08:57:39.106Z</time></trkpt><trkpt lat="45.9533582" lon="13.4429318"><ele>50.25</ele><time>2026-05-03T08:57:40.104Z</time></trkpt><trkpt lat="45.953222" lon="13.4429078"><ele>50.0</ele><time>2026-05-03T08:57:41.107Z</time></trkpt><trkpt lat="45.9530997" lon="13.4428821"><ele>49.8</ele><time>2026-05-03T08:57:42.114Z</time></trkpt><trkpt lat="45.9529933" lon="13.4428628"><ele>49.6</ele><time>2026-05-03T08:57:43.11Z</time></trkpt><trkpt lat="45.9529118" lon="13.4428537"><ele>49.400000000000006</ele><time>2026-05-03T08:57:44.131Z</time></trkpt><trkpt lat="45.9528112" lon="13.4428475"><ele>49.2</ele><time>2026-05-03T08:57:46.109Z</time></trkpt><trkpt lat="45.9527229" lon="13.44284"><ele>49.0</ele><time>2026-05-03T08:57:50.115Z</time></trkpt><trkpt lat="45.9525876" lon="13.4428251"><ele>48.5</ele><time>2026-05-03T08:57:52.108Z</time></trkpt><trkpt lat="45.9524976" lon="13.442807"><ele>48.0</ele><time>2026-05-03T08:57:53.111Z</time></trkpt><trkpt lat="45.9523895" lon="13.4427853"><ele>47.5</ele><time>2026-05-03T08:57:54.107Z</time></trkpt><trkpt lat="45.952264" lon="13.4427691"><ele>47.0</ele><time>2026-05-03T08:57:55.107Z</time></trkpt><trkpt lat="45.9521287" lon="13.4427441"><ele>47.0</ele><time>2026-05-03T08:57:56.114Z</time></trkpt><trkpt lat="45.9519845" lon="13.4427149"><ele>47.0</ele><time>2026-05-03T08:57:57.109Z</time></trkpt><trkpt lat="45.9518308" lon="13.4426799"><ele>47.0</ele><time>2026-05-03T08:57:58.11Z</time></trkpt><trkpt lat="45.9516657" lon="13.4426395"><ele>47.33333333333333</ele><time>2026-05-03T08:57:59.105Z</time></trkpt><trkpt lat="45.9514941" lon="13.4425979"><ele>47.666666666666664</ele><time>2026-05-03T08:58:00.114Z</time></trkpt><trkpt lat="45.9513152" lon="13.4425546"><ele>48.0</ele><time>2026-05-03T08:58:01.109Z</time></trkpt><trkpt lat="45.9511341" lon="13.4425107"><ele>48.0</ele><time>2026-05-03T08:58:02.105Z</time></trkpt><trkpt lat="45.9509459" lon="13.4424721"><ele>48.0</ele><time>2026-05-03T08:58:03.118Z</time></trkpt><trkpt lat="45.9507564" lon="13.4424311"><ele>48.0</ele><time>2026-05-03T08:58:04.105Z</time></trkpt><trkpt lat="45.9505667" lon="13.4423873"><ele>48.0</ele><time>2026-05-03T08:58:05.106Z</time></trkpt><trkpt lat="45.9503864" lon="13.4423482"><ele>48.0</ele><time>2026-05-03T08:58:06.103Z</time></trkpt><trkpt lat="45.9502141" lon="13.4423029"><ele>48.0</ele><time>2026-05-03T08:58:07.103Z</time></trkpt><trkpt lat="45.9500526" lon="13.4422611"><ele>47.5</ele><time>2026-05-03T08:58:08.117Z</time></trkpt><trkpt lat="45.9499045" lon="13.4422217"><ele>47.0</ele><time>2026-05-03T08:58:09.109Z</time></trkpt><trkpt lat="45.9497658" lon="13.4421882"><ele>46.5</ele><time>2026-05-03T08:58:10.118Z</time></trkpt><trkpt lat="45.9496449" lon="13.4421626"><ele>46.0</ele><time>2026-05-03T08:58:11.106Z</time></trkpt><trkpt lat="45.9495365" lon="13.4421414"><ele>46.0</ele><time>2026-05-03T08:58:12.115Z</time></trkpt><trkpt lat="45.9494511" lon="13.4421274"><ele>46.0</ele><time>2026-05-03T08:58:13.108Z</time></trkpt><trkpt lat="45.9493748" lon="13.4421244"><ele>46.0</ele><time>2026-05-03T08:58:14.106Z</time></trkpt><trkpt lat="45.9493048" lon="13.4421239"><ele>46.0</ele><time>2026-05-03T08:58:15.102Z</time></trkpt><trkpt lat="45.9492355" lon="13.4421141"><ele>46.0</ele><time>2026-05-03T08:58:16.109Z</time></trkpt><trkpt lat="45.9491655" lon="13.4420896"><ele>46.0</ele><time>2026-05-03T08:58:17.122Z</time></trkpt><trkpt lat="45.9490935" lon="13.4420524"><ele>46.0</ele><time>2026-05-03T08:58:18.105Z</time></trkpt><trkpt lat="45.9490198" lon="13.4420206"><ele>46.0</ele><time>2026-05-03T08:58:19.109Z</time></trkpt><trkpt lat="45.9489503" lon="13.4419886"><ele>46.0</ele><time>2026-05-03T08:58:20.105Z</time></trkpt><trkpt lat="45.9488578" lon="13.4419029"><ele>46.0</ele><time>2026-05-03T08:58:22.118Z</time></trkpt><trkpt lat="45.9487995" lon="13.4417539"><ele>46.0</ele><time>2026-05-03T08:58:24.105Z</time></trkpt><trkpt lat="45.9487839" lon="13.4416474"><ele>46.0</ele><time>2026-05-03T08:58:25.113Z</time></trkpt><trkpt lat="45.9487741" lon="13.4415301"><ele>46.0</ele><time>2026-05-03T08:58:26.106Z</time></trkpt><trkpt lat="45.9487586" lon="13.4414039"><ele>46.0</ele><time>2026-05-03T08:58:27.103Z</time></trkpt><trkpt lat="45.9487444" lon="13.4412666"><ele>46.0</ele><time>2026-05-03T08:58:28.111Z</time></trkpt><trkpt lat="45.9487311" lon="13.4411215"><ele>46.0</ele><time>2026-05-03T08:58:29.108Z</time></trkpt><trkpt lat="45.9487207" lon="13.4409763"><ele>46.0</ele><time>2026-05-03T08:58:30.094Z</time></trkpt><trkpt lat="45.9487094" lon="13.440838"><ele>46.0</ele><time>2026-05-03T08:58:31.107Z</time></trkpt><trkpt lat="45.9486998" lon="13.4407015"><ele>46.0</ele><time>2026-05-03T08:58:32.102Z</time></trkpt><trkpt lat="45.9486939" lon="13.4405645"><ele>46.0</ele><time>2026-05-03T08:58:33.116Z</time></trkpt><trkpt lat="45.948691" lon="13.4404379"><ele>46.0</ele><time>2026-05-03T08:58:34.108Z</time></trkpt><trkpt lat="45.9486821" lon="13.4403122"><ele>46.199999999999996</ele><time>2026-05-03T08:58:35.11Z</time></trkpt><trkpt lat="45.9486798" lon="13.4401856"><ele>46.4</ele><time>2026-05-03T08:58:36.101Z</time></trkpt><trkpt lat="45.9486714" lon="13.4400537"><ele>46.6</ele><time>2026-05-03T08:58:37.101Z</time></trkpt><trkpt lat="45.9486627" lon="13.4399049"><ele>46.8</ele><time>2026-05-03T08:58:38.101Z</time></trkpt><trkpt lat="45.9486575" lon="13.4397503"><ele>47.0</ele><time>2026-05-03T08:58:39.115Z</time></trkpt><trkpt lat="45.9486514" lon="13.4395765"><ele>46.6</ele><time>2026-05-03T08:58:40.109Z</time></trkpt><trkpt lat="45.9486471" lon="13.4394047"><ele>46.2</ele><time>2026-05-03T08:58:41.107Z</time></trkpt><trkpt lat="45.9486402" lon="13.4392296"><ele>45.8</ele><time>2026-05-03T08:58:42.101Z</time></trkpt><trkpt lat="45.9486296" lon="13.4390706"><ele>45.4</ele><time>2026-05-03T08:58:43.115Z</time></trkpt><trkpt lat="45.9486209" lon="13.4389556"><ele>45.0</ele><time>2026-05-03T08:58:44.106Z</time></trkpt><trkpt lat="45.948608" lon="13.438862"><ele>44.8</ele><time>2026-05-03T08:58:45.122Z</time></trkpt><trkpt lat="45.9485897" lon="13.4387063"><ele>44.6</ele><time>2026-05-03T08:58:47.104Z</time></trkpt><trkpt lat="45.9485829" lon="13.4385174"><ele>44.400000000000006</ele><time>2026-05-03T08:58:49.108Z</time></trkpt><trkpt lat="45.9485806" lon="13.4384017"><ele>44.2</ele><time>2026-05-03T08:58:50.105Z</time></trkpt><trkpt lat="45.9485746" lon="13.438265"><ele>44.0</ele><time>2026-05-03T08:58:51.116Z</time></trkpt><trkpt lat="45.9485655" lon="13.4381215"><ele>44.5</ele><time>2026-05-03T08:58:52.109Z</time></trkpt><trkpt lat="45.9485538" lon="13.4379677"><ele>45.0</ele><time>2026-05-03T08:58:53.116Z</time></trkpt><trkpt lat="45.9485397" lon="13.4378009"><ele>45.5</ele><time>2026-05-03T08:58:54.101Z</time></trkpt><trkpt lat="45.9485263" lon="13.4376129"><ele>46.0</ele><time>2026-05-03T08:58:55.11Z</time></trkpt><trkpt lat="45.9485159" lon="13.4374157"><ele>46.0</ele><time>2026-05-03T08:58:56.109Z</time></trkpt><trkpt lat="45.9485012" lon="13.4372047"><ele>46.0</ele><time>2026-05-03T08:58:57.109Z</time></trkpt><trkpt lat="45.9484861" lon="13.4369806"><ele>46.0</ele><time>2026-05-03T08:58:58.102Z</time></trkpt><trkpt lat="45.9484716" lon="13.4367474"><ele>46.0</ele><time>2026-05-03T08:58:59.101Z</time></trkpt><trkpt lat="45.9484542" lon="13.4365147"><ele>46.0</ele><time>2026-05-03T08:59:00.111Z</time></trkpt><trkpt lat="45.9484387" lon="13.4362955"><ele>46.0</ele><time>2026-05-03T08:59:01.094Z</time></trkpt><trkpt lat="45.9484215" lon="13.4360977"><ele>46.0</ele><time>2026-05-03T08:59:02.1Z</time></trkpt><trkpt lat="45.9484057" lon="13.435919"><ele>46.0</ele><time>2026-05-03T08:59:03.103Z</time></trkpt><trkpt lat="45.9483822" lon="13.4357579"><ele>46.0</ele><time>2026-05-03T08:59:04.103Z</time></trkpt><trkpt lat="45.9483541" lon="13.4356044"><ele>46.0</ele><time>2026-05-03T08:59:05.133Z</time></trkpt><trkpt lat="45.9483348" lon="13.4354444"><ele>45.25</ele><time>2026-05-03T08:59:06.116Z</time></trkpt><trkpt lat="45.9483346" lon="13.4352457"><ele>44.5</ele><time>2026-05-03T08:59:07.117Z</time></trkpt><trkpt lat="45.9483477" lon="13.4350172"><ele>43.75</ele><time>2026-05-03T08:59:08.106Z</time></trkpt><trkpt lat="45.9483518" lon="13.4348068"><ele>43.0</ele><time>2026-05-03T08:59:09.107Z</time></trkpt><trkpt lat="45.9483484" lon="13.4345986"><ele>42.75</ele><time>2026-05-03T08:59:10.11Z</time></trkpt><trkpt lat="45.9483391" lon="13.4343876"><ele>42.5</ele><time>2026-05-03T08:59:11.119Z</time></trkpt><trkpt lat="45.9483213" lon="13.4341909"><ele>42.25</ele><time>2026-05-03T08:59:12.099Z</time></trkpt><trkpt lat="45.948305" lon="13.4340058"><ele>42.0</ele><time>2026-05-03T08:59:13.113Z</time></trkpt><trkpt lat="45.9482862" lon="13.4338268"><ele>41.8</ele><time>2026-05-03T08:59:14.12Z</time></trkpt><trkpt lat="45.9482677" lon="13.4336633"><ele>41.6</ele><time>2026-05-03T08:59:15.113Z</time></trkpt><trkpt lat="45.9482486" lon="13.4335028"><ele>41.4</ele><time>2026-05-03T08:59:16.115Z</time></trkpt><trkpt lat="45.9482191" lon="13.4333516"><ele>41.199999999999996</ele><time>2026-05-03T08:59:17.108Z</time></trkpt><trkpt lat="45.9481766" lon="13.4332207"><ele>41.0</ele><time>2026-05-03T08:59:18.111Z</time></trkpt><trkpt lat="45.9481265" lon="13.4331191"><ele>41.0</ele><time>2026-05-03T08:59:19.111Z</time></trkpt><trkpt lat="45.948057" lon="13.4330275"><ele>41.0</ele><time>2026-05-03T08:59:20.114Z</time></trkpt><trkpt lat="45.9479669" lon="13.4329441"><ele>41.0</ele><time>2026-05-03T08:59:21.116Z</time></trkpt><trkpt lat="45.9478583" lon="13.4328625"><ele>41.0</ele><time>2026-05-03T08:59:22.11Z</time></trkpt><trkpt lat="45.947735" lon="13.4327783"><ele>40.666666666666664</ele><time>2026-05-03T08:59:23.124Z</time></trkpt><trkpt lat="45.9475833" lon="13.4326748"><ele>40.333333333333336</ele><time>2026-05-03T08:59:24.111Z</time></trkpt><trkpt lat="45.9474205" lon="13.4325563"><ele>40.0</ele><time>2026-05-03T08:59:25.12Z</time></trkpt><trkpt lat="45.9472468" lon="13.4324366"><ele>40.0</ele><time>2026-05-03T08:59:26.103Z</time></trkpt><trkpt lat="45.9470686" lon="13.432323"><ele>40.0</ele><time>2026-05-03T08:59:27.117Z</time></trkpt><trkpt lat="45.9468998" lon="13.4322178"><ele>40.0</ele><time>2026-05-03T08:59:28.101Z</time></trkpt><trkpt lat="45.9467439" lon="13.4321469"><ele>40.333333333333336</ele><time>2026-05-03T08:59:29.112Z</time></trkpt><trkpt lat="45.9465915" lon="13.4320709"><ele>40.666666666666664</ele><time>2026-05-03T08:59:30.111Z</time></trkpt><trkpt lat="45.9464402" lon="13.4319883"><ele>41.0</ele><time>2026-05-03T08:59:31.117Z</time></trkpt><trkpt lat="45.946293" lon="13.4318917"><ele>41.0</ele><time>2026-05-03T08:59:32.108Z</time></trkpt><trkpt lat="45.9461511" lon="13.4317702"><ele>41.0</ele><time>2026-05-03T08:59:33.111Z</time></trkpt><trkpt lat="45.9460181" lon="13.4316348"><ele>41.0</ele><time>2026-05-03T08:59:34.111Z</time></trkpt><trkpt lat="45.9458837" lon="13.4314717"><ele>41.0</ele><time>2026-05-03T08:59:35.107Z</time></trkpt><trkpt lat="45.9457513" lon="13.4312767"><ele>41.0</ele><time>2026-05-03T08:59:36.109Z</time></trkpt><trkpt lat="45.945621" lon="13.4310859"><ele>41.0</ele><time>2026-05-03T08:59:37.108Z</time></trkpt><trkpt lat="45.9454963" lon="13.4309073"><ele>41.0</ele><time>2026-05-03T08:59:38.11Z</time></trkpt><trkpt lat="45.9453711" lon="13.4307447"><ele>41.0</ele><time>2026-05-03T08:59:39.103Z</time></trkpt><trkpt lat="45.9452527" lon="13.4305951"><ele>41.0</ele><time>2026-05-03T08:59:40.102Z</time></trkpt><trkpt lat="45.9451359" lon="13.4304649"><ele>40.75</ele><time>2026-05-03T08:59:41.121Z</time></trkpt><trkpt lat="45.9450319" lon="13.4303659"><ele>40.5</ele><time>2026-05-03T08:59:42.098Z</time></trkpt><trkpt lat="45.9449321" lon="13.4302949"><ele>40.25</ele><time>2026-05-03T08:59:43.108Z</time></trkpt><trkpt lat="45.9448254" lon="13.4302351"><ele>40.0</ele><time>2026-05-03T08:59:44.107Z</time></trkpt><trkpt lat="45.944711" lon="13.4301977"><ele>40.0</ele><time>2026-05-03T08:59:45.114Z</time></trkpt><trkpt lat="45.9445952" lon="13.4301784"><ele>40.0</ele><time>2026-05-03T08:59:46.11Z</time></trkpt><trkpt lat="45.9444673" lon="13.4301697"><ele>40.0</ele><time>2026-05-03T08:59:47.114Z</time></trkpt><trkpt lat="45.9443311" lon="13.4301691"><ele>40.0</ele><time>2026-05-03T08:59:48.109Z</time></trkpt><trkpt lat="45.944197" lon="13.4301727"><ele>39.5</ele><time>2026-05-03T08:59:49.108Z</time></trkpt><trkpt lat="45.9440654" lon="13.4301925"><ele>39.0</ele><time>2026-05-03T08:59:50.12Z</time></trkpt><trkpt lat="45.9439276" lon="13.4302275"><ele>38.5</ele><time>2026-05-03T08:59:51.123Z</time></trkpt><trkpt lat="45.9437792" lon="13.4302731"><ele>38.0</ele><time>2026-05-03T08:59:52.115Z</time></trkpt><trkpt lat="45.9436157" lon="13.4303102"><ele>38.0</ele><time>2026-05-03T08:59:53.113Z</time></trkpt><trkpt lat="45.9434534" lon="13.4303442"><ele>38.0</ele><time>2026-05-03T08:59:54.114Z</time></trkpt><trkpt lat="45.9433109" lon="13.4303781"><ele>38.0</ele><time>2026-05-03T08:59:55.113Z</time></trkpt><trkpt lat="45.943185" lon="13.4304272"><ele>38.0</ele><time>2026-05-03T08:59:56.116Z</time></trkpt><trkpt lat="45.9430574" lon="13.4305056"><ele>38.25</ele><time>2026-05-03T08:59:57.105Z</time></trkpt><trkpt lat="45.9429351" lon="13.430586"><ele>38.5</ele><time>2026-05-03T08:59:58.108Z</time></trkpt><trkpt lat="45.9428285" lon="13.4306472"><ele>38.75</ele><time>2026-05-03T08:59:59.119Z</time></trkpt><trkpt lat="45.942716" lon="13.4306866"><ele>39.0</ele><time>2026-05-03T09:00:00.106Z</time></trkpt><trkpt lat="45.9425944" lon="13.4307118"><ele>39.0</ele><time>2026-05-03T09:00:01.115Z</time></trkpt><trkpt lat="45.9424827" lon="13.4307151"><ele>39.0</ele><time>2026-05-03T09:00:02.109Z</time></trkpt><trkpt lat="45.9423845" lon="13.4306893"><ele>39.0</ele><time>2026-05-03T09:00:03.114Z</time></trkpt><trkpt lat="45.9422918" lon="13.4306321"><ele>39.0</ele><time>2026-05-03T09:00:04.11Z</time></trkpt><trkpt lat="45.9422001" lon="13.4305504"><ele>39.0</ele><time>2026-05-03T09:00:05.109Z</time></trkpt><trkpt lat="45.9421036" lon="13.430454"><ele>39.4</ele><time>2026-05-03T09:00:06.105Z</time></trkpt><trkpt lat="45.9420225" lon="13.4303665"><ele>39.8</ele><time>2026-05-03T09:00:07.105Z</time></trkpt><trkpt lat="45.9419692" lon="13.4302756"><ele>40.199999999999996</ele><time>2026-05-03T09:00:08.105Z</time></trkpt><trkpt lat="45.9419384" lon="13.430166"><ele>40.599999999999994</ele><time>2026-05-03T09:00:09.104Z</time></trkpt><trkpt lat="45.9419274" lon="13.4300264"><ele>41.0</ele><time>2026-05-03T09:00:10.103Z</time></trkpt><trkpt lat="45.9419409" lon="13.4298626"><ele>41.0</ele><time>2026-05-03T09:00:11.106Z</time></trkpt><trkpt lat="45.9419558" lon="13.4297084"><ele>41.0</ele><time>2026-05-03T09:00:12.107Z</time></trkpt><trkpt lat="45.9419586" lon="13.429583"><ele>41.0</ele><time>2026-05-03T09:00:13.107Z</time></trkpt><trkpt lat="45.9419484" lon="13.4294905"><ele>41.0</ele><time>2026-05-03T09:00:14.111Z</time></trkpt><trkpt lat="45.9419005" lon="13.4293719"><ele>41.0</ele><time>2026-05-03T09:00:16.105Z</time></trkpt><trkpt lat="45.941832" lon="13.4293444"><ele>41.0</ele><time>2026-05-03T09:00:18.1Z</time></trkpt><trkpt lat="45.9417288" lon="13.4293961"><ele>41.0</ele><time>2026-05-03T09:00:20.108Z</time></trkpt><trkpt lat="45.9416445" lon="13.429447"><ele>41.0</ele><time>2026-05-03T09:00:21.105Z</time></trkpt><trkpt lat="45.9415388" lon="13.4295161"><ele>41.0</ele><time>2026-05-03T09:00:22.111Z</time></trkpt><trkpt lat="45.9414099" lon="13.4296038"><ele>41.0</ele><time>2026-05-03T09:00:23.105Z</time></trkpt><trkpt lat="45.9412668" lon="13.4296969"><ele>41.0</ele><time>2026-05-03T09:00:24.111Z</time></trkpt><trkpt lat="45.9411153" lon="13.4297992"><ele>41.0</ele><time>2026-05-03T09:00:25.107Z</time></trkpt><trkpt lat="45.9409505" lon="13.4299092"><ele>41.0</ele><time>2026-05-03T09:00:26.101Z</time></trkpt><trkpt lat="45.9407714" lon="13.4300273"><ele>40.666666666666664</ele><time>2026-05-03T09:00:27.109Z</time></trkpt><trkpt lat="45.9405832" lon="13.4301452"><ele>40.333333333333336</ele><time>2026-05-03T09:00:28.105Z</time></trkpt><trkpt lat="45.9403922" lon="13.4302712"><ele>40.0</ele><time>2026-05-03T09:00:29.102Z</time></trkpt><trkpt lat="45.9402024" lon="13.4303982"><ele>40.0</ele><time>2026-05-03T09:00:30.112Z</time></trkpt><trkpt lat="45.9400128" lon="13.4305234"><ele>40.0</ele><time>2026-05-03T09:00:31.113Z</time></trkpt><trkpt lat="45.9398299" lon="13.4306411"><ele>40.0</ele><time>2026-05-03T09:00:32.097Z</time></trkpt><trkpt lat="45.9396626" lon="13.4307521"><ele>40.0</ele><time>2026-05-03T09:00:33.116Z</time></trkpt><trkpt lat="45.939506" lon="13.4308568"><ele>40.0</ele><time>2026-05-03T09:00:34.099Z</time></trkpt><trkpt lat="45.9393565" lon="13.4309527"><ele>40.0</ele><time>2026-05-03T09:00:35.103Z</time></trkpt><trkpt lat="45.9392179" lon="13.4310407"><ele>40.0</ele><time>2026-05-03T09:00:36.103Z</time></trkpt><trkpt lat="45.9390925" lon="13.4311243"><ele>40.0</ele><time>2026-05-03T09:00:37.118Z</time></trkpt><trkpt lat="45.9389743" lon="13.4312046"><ele>40.0</ele><time>2026-05-03T09:00:38.112Z</time></trkpt><trkpt lat="45.9388633" lon="13.4312764"><ele>40.0</ele><time>2026-05-03T09:00:39.096Z</time></trkpt><trkpt lat="45.9387593" lon="13.4313413"><ele>40.0</ele><time>2026-05-03T09:00:40.103Z</time></trkpt><trkpt lat="45.9386649" lon="13.4314064"><ele>40.0</ele><time>2026-05-03T09:00:41.103Z</time></trkpt><trkpt lat="45.9385743" lon="13.4314645"><ele>40.0</ele><time>2026-05-03T09:00:42.1Z</time></trkpt><trkpt lat="45.9384894" lon="13.4315189"><ele>40.0</ele><time>2026-05-03T09:00:43.111Z</time></trkpt><trkpt lat="45.9384111" lon="13.4315741"><ele>40.0</ele><time>2026-05-03T09:00:44.102Z</time></trkpt><trkpt lat="45.9383336" lon="13.4316257"><ele>39.5</ele><time>2026-05-03T09:00:45.104Z</time></trkpt><trkpt lat="45.9382605" lon="13.4316771"><ele>39.0</ele><time>2026-05-03T09:00:46.102Z</time></trkpt><trkpt lat="45.9381891" lon="13.4317261"><ele>38.5</ele><time>2026-05-03T09:00:47.105Z</time></trkpt><trkpt lat="45.938117" lon="13.4317741"><ele>38.0</ele><time>2026-05-03T09:00:48.108Z</time></trkpt><trkpt lat="45.9380449" lon="13.4318223"><ele>37.5</ele><time>2026-05-03T09:00:49.108Z</time></trkpt><trkpt lat="45.9379786" lon="13.431869"><ele>37.0</ele><time>2026-05-03T09:00:50.111Z</time></trkpt><trkpt lat="45.9379111" lon="13.4319105"><ele>37.0</ele><time>2026-05-03T09:00:51.11Z</time></trkpt><trkpt lat="45.9378374" lon="13.4319596"><ele>37.0</ele><time>2026-05-03T09:00:52.111Z</time></trkpt><trkpt lat="45.9377648" lon="13.4320102"><ele>37.0</ele><time>2026-05-03T09:00:53.128Z</time></trkpt><trkpt lat="45.9376925" lon="13.4320578"><ele>37.0</ele><time>2026-05-03T09:00:54.123Z</time></trkpt><trkpt lat="45.9376155" lon="13.4321066"><ele>37.0</ele><time>2026-05-03T09:00:55.111Z</time></trkpt><trkpt lat="45.9375289" lon="13.4321579"><ele>37.0</ele><time>2026-05-03T09:00:56.103Z</time></trkpt><trkpt lat="45.9374389" lon="13.4322088"><ele>37.4</ele><time>2026-05-03T09:00:57.111Z</time></trkpt><trkpt lat="45.937349" lon="13.4322728"><ele>37.800000000000004</ele><time>2026-05-03T09:00:58.111Z</time></trkpt><trkpt lat="45.9372611" lon="13.4323402"><ele>38.2</ele><time>2026-05-03T09:00:59.112Z</time></trkpt><trkpt lat="45.9371659" lon="13.432397"><ele>38.6</ele><time>2026-05-03T09:01:00.122Z</time></trkpt><trkpt lat="45.9370781" lon="13.4324616"><ele>39.0</ele><time>2026-05-03T09:01:01.125Z</time></trkpt><trkpt lat="45.9369842" lon="13.4325234"><ele>39.0</ele><time>2026-05-03T09:01:02.119Z</time></trkpt><trkpt lat="45.9368882" lon="13.4325856"><ele>39.0</ele><time>2026-05-03T09:01:03.11Z</time></trkpt><trkpt lat="45.9367924" lon="13.4326501"><ele>39.0</ele><time>2026-05-03T09:01:04.114Z</time></trkpt><trkpt lat="45.9366923" lon="13.4327133"><ele>39.0</ele><time>2026-05-03T09:01:05.112Z</time></trkpt><trkpt lat="45.9365942" lon="13.4327793"><ele>39.0</ele><time>2026-05-03T09:01:06.106Z</time></trkpt><trkpt lat="45.9364958" lon="13.432847"><ele>39.0</ele><time>2026-05-03T09:01:07.115Z</time></trkpt><trkpt lat="45.9363908" lon="13.4329155"><ele>39.0</ele><time>2026-05-03T09:01:08.111Z</time></trkpt><trkpt lat="45.9362876" lon="13.4329836"><ele>39.0</ele><time>2026-05-03T09:01:09.11Z</time></trkpt><trkpt lat="45.9361842" lon="13.4330544"><ele>39.0</ele><time>2026-05-03T09:01:10.12Z</time></trkpt><trkpt lat="45.9360744" lon="13.4331245"><ele>39.25</ele><time>2026-05-03T09:01:11.104Z</time></trkpt><trkpt lat="45.9359651" lon="13.4331965"><ele>39.5</ele><time>2026-05-03T09:01:12.107Z</time></trkpt><trkpt lat="45.9358531" lon="13.4332694"><ele>39.75</ele><time>2026-05-03T09:01:13.106Z</time></trkpt><trkpt lat="45.9357398" lon="13.433339"><ele>40.0</ele><time>2026-05-03T09:01:14.107Z</time></trkpt><trkpt lat="45.9356203" lon="13.4334123"><ele>40.0</ele><time>2026-05-03T09:01:15.109Z</time></trkpt><trkpt lat="45.9355002" lon="13.4334838"><ele>40.0</ele><time>2026-05-03T09:01:16.112Z</time></trkpt><trkpt lat="45.9353838" lon="13.433559"><ele>40.0</ele><time>2026-05-03T09:01:17.106Z</time></trkpt><trkpt lat="45.9352669" lon="13.4336386"><ele>40.0</ele><time>2026-05-03T09:01:18.109Z</time></trkpt><trkpt lat="45.935145" lon="13.4337158"><ele>39.5</ele><time>2026-05-03T09:01:19.105Z</time></trkpt><trkpt lat="45.9350239" lon="13.433799"><ele>39.0</ele><time>2026-05-03T09:01:20.113Z</time></trkpt><trkpt lat="45.93489" lon="13.4338835"><ele>38.5</ele><time>2026-05-03T09:01:21.118Z</time></trkpt><trkpt lat="45.9347552" lon="13.4339699"><ele>38.0</ele><time>2026-05-03T09:01:22.108Z</time></trkpt><trkpt lat="45.9346209" lon="13.4340546"><ele>37.75</ele><time>2026-05-03T09:01:23.101Z</time></trkpt><trkpt lat="45.93449" lon="13.4341382"><ele>37.5</ele><time>2026-05-03T09:01:24.111Z</time></trkpt><trkpt lat="45.9343617" lon="13.4342216"><ele>37.25</ele><time>2026-05-03T09:01:25.104Z</time></trkpt><trkpt lat="45.9342393" lon="13.4343025"><ele>37.0</ele><time>2026-05-03T09:01:26.119Z</time></trkpt><trkpt lat="45.9341207" lon="13.4343826"><ele>37.0</ele><time>2026-05-03T09:01:27.108Z</time></trkpt><trkpt lat="45.933999" lon="13.4344626"><ele>37.0</ele><time>2026-05-03T09:01:28.108Z</time></trkpt><trkpt lat="45.9338775" lon="13.4345417"><ele>37.0</ele><time>2026-05-03T09:01:29.125Z</time></trkpt><trkpt lat="45.9337558" lon="13.4346257"><ele>37.0</ele><time>2026-05-03T09:01:30.112Z</time></trkpt><trkpt lat="45.9336338" lon="13.4347084"><ele>37.0</ele><time>2026-05-03T09:01:31.114Z</time></trkpt><trkpt lat="45.9335074" lon="13.4347907"><ele>37.0</ele><time>2026-05-03T09:01:32.106Z</time></trkpt><trkpt lat="45.9333817" lon="13.4348704"><ele>37.0</ele><time>2026-05-03T09:01:33.111Z</time></trkpt><trkpt lat="45.933255" lon="13.4349487"><ele>37.0</ele><time>2026-05-03T09:01:34.115Z</time></trkpt><trkpt lat="45.9331284" lon="13.4350277"><ele>37.25</ele><time>2026-05-03T09:01:35.116Z</time></trkpt><trkpt lat="45.9330063" lon="13.4351105"><ele>37.5</ele><time>2026-05-03T09:01:36.111Z</time></trkpt><trkpt lat="45.9328838" lon="13.4351933"><ele>37.75</ele><time>2026-05-03T09:01:37.115Z</time></trkpt><trkpt lat="45.9327613" lon="13.4352762"><ele>38.0</ele><time>2026-05-03T09:01:38.112Z</time></trkpt><trkpt lat="45.932644" lon="13.435358"><ele>37.75</ele><time>2026-05-03T09:01:39.108Z</time></trkpt><trkpt lat="45.9325258" lon="13.4354366"><ele>37.5</ele><time>2026-05-03T09:01:40.127Z</time></trkpt><trkpt lat="45.9324144" lon="13.4355113"><ele>37.25</ele><time>2026-05-03T09:01:41.124Z</time></trkpt><trkpt lat="45.9323083" lon="13.4355716"><ele>37.0</ele><time>2026-05-03T09:01:42.102Z</time></trkpt><trkpt lat="45.9322116" lon="13.4356305"><ele>37.0</ele><time>2026-05-03T09:01:43.112Z</time></trkpt><trkpt lat="45.9321143" lon="13.4356971"><ele>37.0</ele><time>2026-05-03T09:01:44.104Z</time></trkpt><trkpt lat="45.932024" lon="13.4357644"><ele>37.0</ele><time>2026-05-03T09:01:45.113Z</time></trkpt><trkpt lat="45.9319334" lon="13.4358248"><ele>37.0</ele><time>2026-05-03T09:01:46.107Z</time></trkpt><trkpt lat="45.9318476" lon="13.4358785"><ele>37.0</ele><time>2026-05-03T09:01:47.105Z</time></trkpt><trkpt lat="45.9317688" lon="13.4359311"><ele>37.333333333333336</ele><time>2026-05-03T09:01:48.104Z</time></trkpt><trkpt lat="45.9316993" lon="13.4359807"><ele>37.66666666666667</ele><time>2026-05-03T09:01:49.101Z</time></trkpt><trkpt lat="45.9316362" lon="13.4360335"><ele>38.0</ele><time>2026-05-03T09:01:50.12Z</time></trkpt><trkpt lat="45.9315554" lon="13.4360834"><ele>38.333333333333336</ele><time>2026-05-03T09:01:52.113Z</time></trkpt><trkpt lat="45.9314914" lon="13.4360084"><ele>38.666666666666664</ele><time>2026-05-03T09:01:56.095Z</time></trkpt><trkpt lat="45.9314381" lon="13.4359013"><ele>39.0</ele><time>2026-05-03T09:01:58.105Z</time></trkpt><trkpt lat="45.931409" lon="13.4358206"><ele>39.0</ele><time>2026-05-03T09:01:59.105Z</time></trkpt><trkpt lat="45.9313755" lon="13.4357338"><ele>39.0</ele><time>2026-05-03T09:02:00.1Z</time></trkpt><trkpt lat="45.9313388" lon="13.4356351"><ele>39.0</ele><time>2026-05-03T09:02:01.112Z</time></trkpt><trkpt lat="45.9312962" lon="13.4355321"><ele>39.0</ele><time>2026-05-03T09:02:02.099Z</time></trkpt><trkpt lat="45.9312515" lon="13.4354249"><ele>39.0</ele><time>2026-05-03T09:02:03.111Z</time></trkpt><trkpt lat="45.9312032" lon="13.4353096"><ele>39.0</ele><time>2026-05-03T09:02:04.108Z</time></trkpt><trkpt lat="45.9311494" lon="13.4351902"><ele>38.8</ele><time>2026-05-03T09:02:05.108Z</time></trkpt><trkpt lat="45.9310974" lon="13.4350668"><ele>38.599999999999994</ele><time>2026-05-03T09:02:06.113Z</time></trkpt><trkpt lat="45.9310481" lon="13.4349306"><ele>38.4</ele><time>2026-05-03T09:02:07.116Z</time></trkpt><trkpt lat="45.9310008" lon="13.4347949"><ele>38.199999999999996</ele><time>2026-05-03T09:02:08.111Z</time></trkpt><trkpt lat="45.9309581" lon="13.4346542"><ele>38.0</ele><time>2026-05-03T09:02:09.085Z</time></trkpt><trkpt lat="45.9309155" lon="13.4345067"><ele>39.0</ele><time>2026-05-03T09:02:10.091Z</time></trkpt><trkpt lat="45.930869" lon="13.4343591"><ele>40.0</ele><time>2026-05-03T09:02:11.106Z</time></trkpt><trkpt lat="45.9308218" lon="13.4342071"><ele>41.0</ele><time>2026-05-03T09:02:12.106Z</time></trkpt><trkpt lat="45.9307741" lon="13.4340544"><ele>42.0</ele><time>2026-05-03T09:02:13.106Z</time></trkpt><trkpt lat="45.9307225" lon="13.4338972"><ele>40.75</ele><time>2026-05-03T09:02:14.097Z</time></trkpt><trkpt lat="45.9306671" lon="13.4337362"><ele>39.5</ele><time>2026-05-03T09:02:15.1Z</time></trkpt><trkpt lat="45.9306166" lon="13.4335668"><ele>38.25</ele><time>2026-05-03T09:02:16.1Z</time></trkpt><trkpt lat="45.9305625" lon="13.4333902"><ele>37.0</ele><time>2026-05-03T09:02:17.104Z</time></trkpt><trkpt lat="45.9305007" lon="13.4332022"><ele>37.0</ele><time>2026-05-03T09:02:18.09Z</time></trkpt><trkpt lat="45.9304351" lon="13.4330074"><ele>37.0</ele><time>2026-05-03T09:02:19.08Z</time></trkpt><trkpt lat="45.9303726" lon="13.4328099"><ele>37.0</ele><time>2026-05-03T09:02:20.098Z</time></trkpt><trkpt lat="45.9303069" lon="13.432611"><ele>36.333333333333336</ele><time>2026-05-03T09:02:21.095Z</time></trkpt><trkpt lat="45.9302422" lon="13.4324089"><ele>35.666666666666664</ele><time>2026-05-03T09:02:22.092Z</time></trkpt><trkpt lat="45.9301758" lon="13.4321996"><ele>35.0</ele><time>2026-05-03T09:02:23.103Z</time></trkpt><trkpt lat="45.9301079" lon="13.4319873"><ele>37.0</ele><time>2026-05-03T09:02:24.108Z</time></trkpt><trkpt lat="45.9300411" lon="13.4317705"><ele>39.0</ele><time>2026-05-03T09:02:25.109Z</time></trkpt><trkpt lat="45.9299751" lon="13.4315521"><ele>41.0</ele><time>2026-05-03T09:02:26.103Z</time></trkpt><trkpt lat="45.9299072" lon="13.4313443"><ele>40.5</ele><time>2026-05-03T09:02:27.098Z</time></trkpt><trkpt lat="45.9298404" lon="13.4311584"><ele>40.0</ele><time>2026-05-03T09:02:28.099Z</time></trkpt><trkpt lat="45.9297675" lon="13.4309831"><ele>39.5</ele><time>2026-05-03T09:02:29.097Z</time></trkpt><trkpt lat="45.9296938" lon="13.4308239"><ele>39.0</ele><time>2026-05-03T09:02:30.109Z</time></trkpt><trkpt lat="45.9296227" lon="13.4306706"><ele>39.0</ele><time>2026-05-03T09:02:31.096Z</time></trkpt><trkpt lat="45.9295585" lon="13.4305333"><ele>39.0</ele><time>2026-05-03T09:02:32.1Z</time></trkpt><trkpt lat="45.9294982" lon="13.4304084"><ele>39.0</ele><time>2026-05-03T09:02:33.099Z</time></trkpt><trkpt lat="45.9294482" lon="13.4303139"><ele>39.0</ele><time>2026-05-03T09:02:34.107Z</time></trkpt><trkpt lat="45.9294047" lon="13.4302325"><ele>39.0</ele><time>2026-05-03T09:02:35.106Z</time></trkpt><trkpt lat="45.9293285" lon="13.4301106"><ele>39.0</ele><time>2026-05-03T09:02:37.099Z</time></trkpt><trkpt lat="45.929269" lon="13.4300111"><ele>39.0</ele><time>2026-05-03T09:02:39.1Z</time></trkpt><trkpt lat="45.9292246" lon="13.4299258"><ele>39.0</ele><time>2026-05-03T09:02:41.115Z</time></trkpt><trkpt lat="45.9291816" lon="13.4298502"><ele>39.0</ele><time>2026-05-03T09:02:43.099Z</time></trkpt><trkpt lat="45.929134" lon="13.4297785"><ele>39.0</ele><time>2026-05-03T09:02:45.096Z</time></trkpt><trkpt lat="45.9290817" lon="13.4296932"><ele>39.0</ele><time>2026-05-03T09:02:47.099Z</time></trkpt><trkpt lat="45.9290309" lon="13.4295955"><ele>38.666666666666664</ele><time>2026-05-03T09:02:49.096Z</time></trkpt><trkpt lat="45.9289801" lon="13.4295041"><ele>38.333333333333336</ele><time>2026-05-03T09:02:51.113Z</time></trkpt><trkpt lat="45.9289308" lon="13.4294008"><ele>38.0</ele><time>2026-05-03T09:02:53.097Z</time></trkpt><trkpt lat="45.9288783" lon="13.4293092"><ele>37.66666666666667</ele><time>2026-05-03T09:02:55.105Z</time></trkpt><trkpt lat="45.9288236" lon="13.4292003"><ele>37.333333333333336</ele><time>2026-05-03T09:02:57.101Z</time></trkpt><trkpt lat="45.9287792" lon="13.4290803"><ele>37.0</ele><time>2026-05-03T09:02:59.106Z</time></trkpt><trkpt lat="45.9287137" lon="13.4289492"><ele>37.0</ele><time>2026-05-03T09:03:01.093Z</time></trkpt><trkpt lat="45.9286438" lon="13.4288115"><ele>37.0</ele><time>2026-05-03T09:03:03.094Z</time></trkpt><trkpt lat="45.9286037" lon="13.4287351"><ele>37.0</ele><time>2026-05-03T09:03:04.097Z</time></trkpt><trkpt lat="45.9285615" lon="13.4286505"><ele>37.0</ele><time>2026-05-03T09:03:05.098Z</time></trkpt><trkpt lat="45.9285154" lon="13.428568"><ele>37.0</ele><time>2026-05-03T09:03:06.097Z</time></trkpt><trkpt lat="45.9284249" lon="13.4283996"><ele>37.16666666666667</ele><time>2026-05-03T09:03:08.101Z</time></trkpt><trkpt lat="45.9283801" lon="13.428314"><ele>37.333333333333336</ele><time>2026-05-03T09:03:09.1Z</time></trkpt><trkpt lat="45.9283321" lon="13.4282143"><ele>37.5</ele><time>2026-05-03T09:03:10.109Z</time></trkpt><trkpt lat="45.9282763" lon="13.4281165"><ele>37.666666666666664</ele><time>2026-05-03T09:03:11.104Z</time></trkpt><trkpt lat="45.92822" lon="13.4280175"><ele>37.83333333333333</ele><time>2026-05-03T09:03:12.103Z</time></trkpt><trkpt lat="45.9281627" lon="13.4279188"><ele>38.0</ele><time>2026-05-03T09:03:13.1Z</time></trkpt><trkpt lat="45.9281015" lon="13.4278116"><ele>38.0</ele><time>2026-05-03T09:03:14.103Z</time></trkpt><trkpt lat="45.9280398" lon="13.4276934"><ele>38.0</ele><time>2026-05-03T09:03:15.112Z</time></trkpt><trkpt lat="45.9279823" lon="13.4275649"><ele>38.0</ele><time>2026-05-03T09:03:16.1Z</time></trkpt><trkpt lat="45.9279291" lon="13.4274232"><ele>38.0</ele><time>2026-05-03T09:03:17.1Z</time></trkpt><trkpt lat="45.9278726" lon="13.4272703"><ele>38.0</ele><time>2026-05-03T09:03:18.103Z</time></trkpt><trkpt lat="45.927817" lon="13.4271064"><ele>37.5</ele><time>2026-05-03T09:03:19.106Z</time></trkpt><trkpt lat="45.9277652" lon="13.4269409"><ele>37.0</ele><time>2026-05-03T09:03:20.103Z</time></trkpt><trkpt lat="45.9277042" lon="13.4267712"><ele>36.5</ele><time>2026-05-03T09:03:21.106Z</time></trkpt><trkpt lat="45.9276393" lon="13.4265736"><ele>36.0</ele><time>2026-05-03T09:03:22.104Z</time></trkpt><trkpt lat="45.9275717" lon="13.4263599"><ele>36.666666666666664</ele><time>2026-05-03T09:03:23.1Z</time></trkpt><trkpt lat="45.9275002" lon="13.4261389"><ele>37.33333333333333</ele><time>2026-05-03T09:03:24.101Z</time></trkpt><trkpt lat="45.9274259" lon="13.4259203"><ele>38.0</ele><time>2026-05-03T09:03:25.104Z</time></trkpt><trkpt lat="45.9273505" lon="13.4257111"><ele>38.0</ele><time>2026-05-03T09:03:26.094Z</time></trkpt><trkpt lat="45.9272828" lon="13.4255214"><ele>38.0</ele><time>2026-05-03T09:03:27.109Z</time></trkpt><trkpt lat="45.9272195" lon="13.4253373"><ele>38.0</ele><time>2026-05-03T09:03:28.11Z</time></trkpt><trkpt lat="45.9271547" lon="13.4251722"><ele>38.0</ele><time>2026-05-03T09:03:29.105Z</time></trkpt><trkpt lat="45.9270959" lon="13.42503"><ele>37.8</ele><time>2026-05-03T09:03:30.099Z</time></trkpt><trkpt lat="45.927038" lon="13.4248994"><ele>37.599999999999994</ele><time>2026-05-03T09:03:31.103Z</time></trkpt><trkpt lat="45.9269725" lon="13.424791"><ele>37.400000000000006</ele><time>2026-05-03T09:03:32.102Z</time></trkpt><trkpt lat="45.926905" lon="13.4247056"><ele>37.2</ele><time>2026-05-03T09:03:33.105Z</time></trkpt><trkpt lat="45.9268175" lon="13.4246435"><ele>37.0</ele><time>2026-05-03T09:03:34.1Z</time></trkpt><trkpt lat="45.9266999" lon="13.424589"><ele>36.75</ele><time>2026-05-03T09:03:35.092Z</time></trkpt><trkpt lat="45.9265572" lon="13.4245318"><ele>36.5</ele><time>2026-05-03T09:03:36.111Z</time></trkpt><trkpt lat="45.9264174" lon="13.4244459"><ele>36.25</ele><time>2026-05-03T09:03:37.112Z</time></trkpt><trkpt lat="45.9262917" lon="13.4243455"><ele>36.0</ele><time>2026-05-03T09:03:38.109Z</time></trkpt><trkpt lat="45.9261676" lon="13.4242088"><ele>36.0</ele><time>2026-05-03T09:03:39.104Z</time></trkpt><trkpt lat="45.9260396" lon="13.4240524"><ele>36.0</ele><time>2026-05-03T09:03:40.098Z</time></trkpt><trkpt lat="45.9259198" lon="13.4239077"><ele>36.0</ele><time>2026-05-03T09:03:41.105Z</time></trkpt><trkpt lat="45.9258115" lon="13.4237725"><ele>36.75</ele><time>2026-05-03T09:03:42.121Z</time></trkpt><trkpt lat="45.9257176" lon="13.4236399"><ele>37.5</ele><time>2026-05-03T09:03:43.107Z</time></trkpt><trkpt lat="45.9256408" lon="13.4234982"><ele>38.25</ele><time>2026-05-03T09:03:44.105Z</time></trkpt><trkpt lat="45.9255785" lon="13.4233332"><ele>39.0</ele><time>2026-05-03T09:03:45.098Z</time></trkpt><trkpt lat="45.9255133" lon="13.4231531"><ele>38.0</ele><time>2026-05-03T09:03:46.104Z</time></trkpt><trkpt lat="45.9254514" lon="13.4229685"><ele>37.0</ele><time>2026-05-03T09:03:47.102Z</time></trkpt><trkpt lat="45.9253801" lon="13.4227809"><ele>36.0</ele><time>2026-05-03T09:03:48.103Z</time></trkpt><trkpt lat="45.925312" lon="13.4225891"><ele>35.0</ele><time>2026-05-03T09:03:49.102Z</time></trkpt><trkpt lat="45.9252383" lon="13.422402"><ele>35.0</ele><time>2026-05-03T09:03:50.102Z</time></trkpt><trkpt lat="45.9251649" lon="13.4222142"><ele>35.0</ele><time>2026-05-03T09:03:51.09Z</time></trkpt><trkpt lat="45.9250897" lon="13.4220301"><ele>35.0</ele><time>2026-05-03T09:03:52.099Z</time></trkpt><trkpt lat="45.9250192" lon="13.4218517"><ele>35.0</ele><time>2026-05-03T09:03:53.1Z</time></trkpt><trkpt lat="45.9249505" lon="13.4216763"><ele>34.666666666666664</ele><time>2026-05-03T09:03:54.101Z</time></trkpt><trkpt lat="45.9248737" lon="13.4214931"><ele>34.333333333333336</ele><time>2026-05-03T09:03:55.099Z</time></trkpt><trkpt lat="45.924788" lon="13.4212846"><ele>34.0</ele><time>2026-05-03T09:03:56.102Z</time></trkpt><trkpt lat="45.924694" lon="13.4210454"><ele>34.0</ele><time>2026-05-03T09:03:57.088Z</time></trkpt><trkpt lat="45.9245947" lon="13.4207942"><ele>34.0</ele><time>2026-05-03T09:03:58.096Z</time></trkpt><trkpt lat="45.9244887" lon="13.4205316"><ele>34.0</ele><time>2026-05-03T09:03:59.092Z</time></trkpt><trkpt lat="45.9243829" lon="13.4202692"><ele>33.66666666666667</ele><time>2026-05-03T09:04:00.101Z</time></trkpt><trkpt lat="45.9242859" lon="13.4200233"><ele>33.333333333333336</ele><time>2026-05-03T09:04:01.101Z</time></trkpt><trkpt lat="45.9241978" lon="13.4197877"><ele>33.0</ele><time>2026-05-03T09:04:02.095Z</time></trkpt><trkpt lat="45.924111" lon="13.4195574"><ele>33.666666666666664</ele><time>2026-05-03T09:04:03.096Z</time></trkpt><trkpt lat="45.9240384" lon="13.4193451"><ele>34.33333333333333</ele><time>2026-05-03T09:04:04.105Z</time></trkpt><trkpt lat="45.923967" lon="13.4191478"><ele>35.0</ele><time>2026-05-03T09:04:05.095Z</time></trkpt><trkpt lat="45.9238982" lon="13.4189674"><ele>33.33333333333333</ele><time>2026-05-03T09:04:06.094Z</time></trkpt><trkpt lat="45.9238187" lon="13.4187854"><ele>31.666666666666664</ele><time>2026-05-03T09:04:07.1Z</time></trkpt><trkpt lat="45.9237253" lon="13.4186017"><ele>30.0</ele><time>2026-05-03T09:04:08.094Z</time></trkpt><trkpt lat="45.923623" lon="13.4184188"><ele>30.0</ele><time>2026-05-03T09:04:09.094Z</time></trkpt><trkpt lat="45.9235105" lon="13.4182307"><ele>30.0</ele><time>2026-05-03T09:04:10.104Z</time></trkpt><trkpt lat="45.9233926" lon="13.4180378"><ele>30.0</ele><time>2026-05-03T09:04:11.101Z</time></trkpt><trkpt lat="45.9232718" lon="13.4178297"><ele>30.666666666666664</ele><time>2026-05-03T09:04:12.1Z</time></trkpt><trkpt lat="45.9231526" lon="13.4176146"><ele>31.333333333333332</ele><time>2026-05-03T09:04:13.107Z</time></trkpt><trkpt lat="45.9230339" lon="13.4173882"><ele>32.0</ele><time>2026-05-03T09:04:14.105Z</time></trkpt><trkpt lat="45.9229168" lon="13.4171551"><ele>31.666666666666664</ele><time>2026-05-03T09:04:15.092Z</time></trkpt><trkpt lat="45.9227964" lon="13.416916"><ele>31.333333333333336</ele><time>2026-05-03T09:04:16.104Z</time></trkpt><trkpt lat="45.9226744" lon="13.4166615"><ele>31.0</ele><time>2026-05-03T09:04:17.091Z</time></trkpt><trkpt lat="45.9225544" lon="13.4164049"><ele>32.0</ele><time>2026-05-03T09:04:18.095Z</time></trkpt><trkpt lat="45.9224351" lon="13.4161598"><ele>33.0</ele><time>2026-05-03T09:04:19.088Z</time></trkpt><trkpt lat="45.9223284" lon="13.4159267"><ele>34.0</ele><time>2026-05-03T09:04:20.094Z</time></trkpt><trkpt lat="45.9222283" lon="13.4157036"><ele>34.0</ele><time>2026-05-03T09:04:21.097Z</time></trkpt><trkpt lat="45.9221338" lon="13.4154882"><ele>34.0</ele><time>2026-05-03T09:04:22.091Z</time></trkpt><trkpt lat="45.9220409" lon="13.4152797"><ele>34.0</ele><time>2026-05-03T09:04:23.1Z</time></trkpt><trkpt lat="45.9219545" lon="13.4150841"><ele>33.25</ele><time>2026-05-03T09:04:24.094Z</time></trkpt><trkpt lat="45.9218649" lon="13.4149052"><ele>32.5</ele><time>2026-05-03T09:04:25.092Z</time></trkpt><trkpt lat="45.9217749" lon="13.4147533"><ele>31.75</ele><time>2026-05-03T09:04:26.1Z</time></trkpt><trkpt lat="45.921695" lon="13.4146305"><ele>31.0</ele><time>2026-05-03T09:04:27.1Z</time></trkpt><trkpt lat="45.9216084" lon="13.4145169"><ele>31.0</ele><time>2026-05-03T09:04:28.095Z</time></trkpt><trkpt lat="45.9215239" lon="13.4144058"><ele>31.0</ele><time>2026-05-03T09:04:29.101Z</time></trkpt><trkpt lat="45.9214327" lon="13.4142895"><ele>31.0</ele><time>2026-05-03T09:04:30.102Z</time></trkpt><trkpt lat="45.921336" lon="13.4141665"><ele>31.0</ele><time>2026-05-03T09:04:31.105Z</time></trkpt><trkpt lat="45.9212381" lon="13.4140411"><ele>31.0</ele><time>2026-05-03T09:04:32.091Z</time></trkpt><trkpt lat="45.9211382" lon="13.413922"><ele>31.0</ele><time>2026-05-03T09:04:33.101Z</time></trkpt><trkpt lat="45.9210406" lon="13.4138243"><ele>31.0</ele><time>2026-05-03T09:04:34.103Z</time></trkpt><trkpt lat="45.9209409" lon="13.4137389"><ele>31.0</ele><time>2026-05-03T09:04:35.102Z</time></trkpt><trkpt lat="45.920836" lon="13.4136706"><ele>31.200000000000003</ele><time>2026-05-03T09:04:36.102Z</time></trkpt><trkpt lat="45.9207343" lon="13.4136315"><ele>31.400000000000002</ele><time>2026-05-03T09:04:37.112Z</time></trkpt><trkpt lat="45.9206443" lon="13.4136044"><ele>31.6</ele><time>2026-05-03T09:04:38.114Z</time></trkpt><trkpt lat="45.9205722" lon="13.4135837"><ele>31.8</ele><time>2026-05-03T09:04:39.128Z</time></trkpt><trkpt lat="45.920462" lon="13.4135537"><ele>32.0</ele><time>2026-05-03T09:04:41.104Z</time></trkpt><trkpt lat="45.9203784" lon="13.4135458"><ele>31.999999999999996</ele><time>2026-05-03T09:04:43.109Z</time></trkpt><trkpt lat="45.9203138" lon="13.4135286"><ele>32.0</ele><time>2026-05-03T09:04:45.11Z</time></trkpt><trkpt lat="45.9202318" lon="13.4135216"><ele>32.0</ele><time>2026-05-03T09:04:48.109Z</time></trkpt><trkpt lat="45.9201619" lon="13.4135545"><ele>32.0</ele><time>2026-05-03T09:05:27.132Z</time></trkpt><trkpt lat="45.9200785" lon="13.4135891"><ele>31.999999999999996</ele><time>2026-05-03T09:05:28.117Z</time></trkpt><trkpt lat="45.9199707" lon="13.4136422"><ele>32.0</ele><time>2026-05-03T09:05:29.106Z</time></trkpt><trkpt lat="45.9198611" lon="13.4137042"><ele>32.0</ele><time>2026-05-03T09:05:30.107Z</time></trkpt><trkpt lat="45.9197314" lon="13.4137746"><ele>32.0</ele><time>2026-05-03T09:05:31.109Z</time></trkpt><trkpt lat="45.9195977" lon="13.4138488"><ele>32.0</ele><time>2026-05-03T09:05:32.114Z</time></trkpt><trkpt lat="45.9194576" lon="13.4139162"><ele>32.0</ele><time>2026-05-03T09:05:33.117Z</time></trkpt><trkpt lat="45.9193154" lon="13.4139923"><ele>32.25</ele><time>2026-05-03T09:05:34.108Z</time></trkpt><trkpt lat="45.9191772" lon="13.4140676"><ele>32.5</ele><time>2026-05-03T09:05:35.097Z</time></trkpt><trkpt lat="45.9190507" lon="13.4141452"><ele>32.75</ele><time>2026-05-03T09:05:36.112Z</time></trkpt><trkpt lat="45.9189301" lon="13.4142389"><ele>33.0</ele><time>2026-05-03T09:05:37.098Z</time></trkpt><trkpt lat="45.9188165" lon="13.4143535"><ele>33.0</ele><time>2026-05-03T09:05:38.121Z</time></trkpt><trkpt lat="45.9187169" lon="13.41449"><ele>33.0</ele><time>2026-05-03T09:05:39.102Z</time></trkpt><trkpt lat="45.9186285" lon="13.414636"><ele>33.0</ele><time>2026-05-03T09:05:40.106Z</time></trkpt><trkpt lat="45.9185466" lon="13.4147773"><ele>33.0</ele><time>2026-05-03T09:05:41.098Z</time></trkpt><trkpt lat="45.9184695" lon="13.4149147"><ele>32.8</ele><time>2026-05-03T09:05:42.095Z</time></trkpt><trkpt lat="45.9184003" lon="13.4150421"><ele>32.599999999999994</ele><time>2026-05-03T09:05:43.103Z</time></trkpt><trkpt lat="45.9183327" lon="13.4151533"><ele>32.400000000000006</ele><time>2026-05-03T09:05:44.094Z</time></trkpt><trkpt lat="45.9182769" lon="13.4152399"><ele>32.2</ele><time>2026-05-03T09:05:45.113Z</time></trkpt><trkpt lat="45.9182305" lon="13.4153209"><ele>32.0</ele><time>2026-05-03T09:05:47.118Z</time></trkpt><trkpt lat="45.9181714" lon="13.4154485"><ele>32.2</ele><time>2026-05-03T09:05:57.117Z</time></trkpt><trkpt lat="45.9181546" lon="13.4156297"><ele>32.400000000000006</ele><time>2026-05-03T09:05:59.105Z</time></trkpt><trkpt lat="45.9181518" lon="13.4157298"><ele>32.599999999999994</ele><time>2026-05-03T09:06:00.102Z</time></trkpt><trkpt lat="45.9181525" lon="13.4158457"><ele>32.8</ele><time>2026-05-03T09:06:01.108Z</time></trkpt><trkpt lat="45.9181523" lon="13.415983"><ele>33.0</ele><time>2026-05-03T09:06:02.103Z</time></trkpt><trkpt lat="45.9181537" lon="13.4161213"><ele>33.0</ele><time>2026-05-03T09:06:03.099Z</time></trkpt><trkpt lat="45.9181508" lon="13.4162667"><ele>33.0</ele><time>2026-05-03T09:06:04.099Z</time></trkpt><trkpt lat="45.9181529" lon="13.41641"><ele>33.0</ele><time>2026-05-03T09:06:05.102Z</time></trkpt><trkpt lat="45.9181576" lon="13.4165488"><ele>33.0</ele><time>2026-05-03T09:06:06.112Z</time></trkpt><trkpt lat="45.9181713" lon="13.4166994"><ele>33.0</ele><time>2026-05-03T09:06:07.104Z</time></trkpt><trkpt lat="45.9181984" lon="13.4168545"><ele>33.4</ele><time>2026-05-03T09:06:08.117Z</time></trkpt><trkpt lat="45.9182324" lon="13.4170053"><ele>33.8</ele><time>2026-05-03T09:06:09.104Z</time></trkpt><trkpt lat="45.9182714" lon="13.4171564"><ele>34.2</ele><time>2026-05-03T09:06:10.105Z</time></trkpt><trkpt lat="45.9183154" lon="13.4173007"><ele>34.6</ele><time>2026-05-03T09:06:11.113Z</time></trkpt><trkpt lat="45.9183573" lon="13.4174542"><ele>35.0</ele><time>2026-05-03T09:06:12.104Z</time></trkpt><trkpt lat="45.9183907" lon="13.4176058"><ele>37.5</ele><time>2026-05-03T09:06:13.11Z</time></trkpt><trkpt lat="45.9184146" lon="13.4177538"><ele>40.0</ele><time>2026-05-03T09:06:14.106Z</time></trkpt><trkpt lat="45.9184364" lon="13.4178952"><ele>42.5</ele><time>2026-05-03T09:06:15.108Z</time></trkpt><trkpt lat="45.9184517" lon="13.418029"><ele>45.0</ele><time>2026-05-03T09:06:16.119Z</time></trkpt><trkpt lat="45.9184553" lon="13.4181357"><ele>47.50000000000001</ele><time>2026-05-03T09:06:17.109Z</time></trkpt><trkpt lat="45.9184506" lon="13.418226"><ele>50.0</ele><time>2026-05-03T09:06:18.117Z</time></trkpt><trkpt lat="45.9184473" lon="13.4183242"><ele>50.0</ele><time>2026-05-03T09:06:19.099Z</time></trkpt><trkpt lat="45.9184444" lon="13.4184313"><ele>50.0</ele><time>2026-05-03T09:06:20.113Z</time></trkpt><trkpt lat="45.9184359" lon="13.4185791"><ele>50.0</ele><time>2026-05-03T09:06:21.106Z</time></trkpt><trkpt lat="45.9184092" lon="13.4187568"><ele>50.0</ele><time>2026-05-03T09:06:22.118Z</time></trkpt><trkpt lat="45.9183933" lon="13.4189539"><ele>50.0</ele><time>2026-05-03T09:06:23.158Z</time></trkpt><trkpt lat="45.9183797" lon="13.4191572"><ele>44.66666666666667</ele><time>2026-05-03T09:06:24.102Z</time></trkpt><trkpt lat="45.9183591" lon="13.4193716"><ele>39.333333333333336</ele><time>2026-05-03T09:06:25.114Z</time></trkpt><trkpt lat="45.9183358" lon="13.4195933"><ele>34.0</ele><time>2026-05-03T09:06:26.103Z</time></trkpt><trkpt lat="45.9183141" lon="13.419804"><ele>33.5</ele><time>2026-05-03T09:06:27.103Z</time></trkpt><trkpt lat="45.9182929" lon="13.420012"><ele>33.0</ele><time>2026-05-03T09:06:28.102Z</time></trkpt><trkpt lat="45.9182753" lon="13.420204"><ele>32.5</ele><time>2026-05-03T09:06:29.104Z</time></trkpt><trkpt lat="45.9182647" lon="13.4203851"><ele>32.0</ele><time>2026-05-03T09:06:30.104Z</time></trkpt><trkpt lat="45.918245" lon="13.4205579"><ele>32.0</ele><time>2026-05-03T09:06:31.11Z</time></trkpt><trkpt lat="45.918197" lon="13.4206989"><ele>32.0</ele><time>2026-05-03T09:06:32.106Z</time></trkpt><trkpt lat="45.9181168" lon="13.4208065"><ele>32.0</ele><time>2026-05-03T09:06:33.11Z</time></trkpt><trkpt lat="45.9180148" lon="13.4208661"><ele>32.0</ele><time>2026-05-03T09:06:34.102Z</time></trkpt><trkpt lat="45.9178988" lon="13.4209245"><ele>32.0</ele><time>2026-05-03T09:06:35.101Z</time></trkpt><trkpt lat="45.9177834" lon="13.4210006"><ele>32.0</ele><time>2026-05-03T09:06:36.126Z</time></trkpt><trkpt lat="45.9176847" lon="13.4210924"><ele>32.0</ele><time>2026-05-03T09:06:37.109Z</time></trkpt><trkpt lat="45.9176114" lon="13.4211971"><ele>32.0</ele><time>2026-05-03T09:06:38.122Z</time></trkpt><trkpt lat="45.9175581" lon="13.4212832"><ele>32.0</ele><time>2026-05-03T09:06:39.107Z</time></trkpt><trkpt lat="45.917482" lon="13.4213572"><ele>31.6</ele><time>2026-05-03T09:06:41.104Z</time></trkpt><trkpt lat="45.9174064" lon="13.421438"><ele>31.200000000000003</ele><time>2026-05-03T09:06:43.116Z</time></trkpt><trkpt lat="45.9173278" lon="13.4215053"><ele>30.8</ele><time>2026-05-03T09:06:44.112Z</time></trkpt><trkpt lat="45.9172315" lon="13.4215791"><ele>30.4</ele><time>2026-05-03T09:06:45.105Z</time></trkpt><trkpt lat="45.9171222" lon="13.4216613"><ele>30.0</ele><time>2026-05-03T09:06:46.108Z</time></trkpt><trkpt lat="45.9170003" lon="13.4217574"><ele>30.0</ele><time>2026-05-03T09:06:47.111Z</time></trkpt><trkpt lat="45.9168746" lon="13.4218501"><ele>30.0</ele><time>2026-05-03T09:06:48.112Z</time></trkpt><trkpt lat="45.9167472" lon="13.4219481"><ele>30.0</ele><time>2026-05-03T09:06:49.114Z</time></trkpt><trkpt lat="45.916629" lon="13.4220601"><ele>30.0</ele><time>2026-05-03T09:06:50.106Z</time></trkpt><trkpt lat="45.916528" lon="13.4221481"><ele>29.833333333333332</ele><time>2026-05-03T09:06:51.114Z</time></trkpt><trkpt lat="45.9164382" lon="13.4222279"><ele>29.666666666666664</ele><time>2026-05-03T09:06:52.11Z</time></trkpt><trkpt lat="45.9163619" lon="13.4223063"><ele>29.5</ele><time>2026-05-03T09:06:53.126Z</time></trkpt><trkpt lat="45.9163035" lon="13.4223832"><ele>29.333333333333332</ele><time>2026-05-03T09:06:54.129Z</time></trkpt><trkpt lat="45.916287" lon="13.4224713"><ele>29.166666666666664</ele><time>2026-05-03T09:06:55.116Z</time></trkpt><trkpt lat="45.9163137" lon="13.4225732"><ele>29.0</ele><time>2026-05-03T09:06:56.107Z</time></trkpt><trkpt lat="45.9163607" lon="13.4227041"><ele>29.0</ele><time>2026-05-03T09:06:57.113Z</time></trkpt><trkpt lat="45.9164054" lon="13.4228726"><ele>29.0</ele><time>2026-05-03T09:06:58.1Z</time></trkpt><trkpt lat="45.9164528" lon="13.4230784"><ele>29.0</ele><time>2026-05-03T09:06:59.119Z</time></trkpt><trkpt lat="45.9165107" lon="13.4233009"><ele>29.0</ele><time>2026-05-03T09:07:00.102Z</time></trkpt><trkpt lat="45.9165684" lon="13.4235419"><ele>29.0</ele><time>2026-05-03T09:07:01.115Z</time></trkpt><trkpt lat="45.9166261" lon="13.4237831"><ele>29.0</ele><time>2026-05-03T09:07:02.103Z</time></trkpt><trkpt lat="45.9166774" lon="13.42401"><ele>29.0</ele><time>2026-05-03T09:07:03.102Z</time></trkpt><trkpt lat="45.9167271" lon="13.4242124"><ele>28.799999999999997</ele><time>2026-05-03T09:07:04.098Z</time></trkpt><trkpt lat="45.916765" lon="13.4243868"><ele>28.599999999999998</ele><time>2026-05-03T09:07:05.109Z</time></trkpt><trkpt lat="45.9168082" lon="13.4245371"><ele>28.4</ele><time>2026-05-03T09:07:06.104Z</time></trkpt><trkpt lat="45.916833" lon="13.4246618"><ele>28.2</ele><time>2026-05-03T09:07:07.106Z</time></trkpt><trkpt lat="45.9168328" lon="13.4247684"><ele>28.0</ele><time>2026-05-03T09:07:08.107Z</time></trkpt><trkpt lat="45.9167881" lon="13.4248564"><ele>28.0</ele><time>2026-05-03T09:07:09.111Z</time></trkpt><trkpt lat="45.9167054" lon="13.424921"><ele>27.999999999999996</ele><time>2026-05-03T09:07:10.098Z</time></trkpt><trkpt lat="45.9166122" lon="13.424934"><ele>27.999999999999996</ele><time>2026-05-03T09:07:11.12Z</time></trkpt><trkpt lat="45.9164915" lon="13.4249272"><ele>28.0</ele><time>2026-05-03T09:07:12.103Z</time></trkpt><trkpt lat="45.9163667" lon="13.4249631"><ele>28.0</ele><time>2026-05-03T09:07:13.107Z</time></trkpt><trkpt lat="45.9162602" lon="13.4250558"><ele>28.0</ele><time>2026-05-03T09:07:14.108Z</time></trkpt><trkpt lat="45.916151" lon="13.4251993"><ele>28.0</ele><time>2026-05-03T09:07:15.097Z</time></trkpt><trkpt lat="45.9160404" lon="13.4253612"><ele>28.0</ele><time>2026-05-03T09:07:16.105Z</time></trkpt><trkpt lat="45.9159175" lon="13.4255254"><ele>27.333333333333336</ele><time>2026-05-03T09:07:17.106Z</time></trkpt><trkpt lat="45.91579" lon="13.4256953"><ele>26.666666666666664</ele><time>2026-05-03T09:07:18.097Z</time></trkpt><trkpt lat="45.9156713" lon="13.4258708"><ele>26.0</ele><time>2026-05-03T09:07:19.116Z</time></trkpt><trkpt lat="45.9155661" lon="13.4260634"><ele>26.0</ele><time>2026-05-03T09:07:20.108Z</time></trkpt><trkpt lat="45.9154669" lon="13.426259"><ele>26.0</ele><time>2026-05-03T09:07:21.12Z</time></trkpt><trkpt lat="45.9153816" lon="13.4264673"><ele>26.0</ele><time>2026-05-03T09:07:22.115Z</time></trkpt><trkpt lat="45.9152936" lon="13.4266859"><ele>26.0</ele><time>2026-05-03T09:07:23.104Z</time></trkpt><trkpt lat="45.9152045" lon="13.4269064"><ele>26.0</ele><time>2026-05-03T09:07:24.112Z</time></trkpt><trkpt lat="45.915117" lon="13.4271288"><ele>26.0</ele><time>2026-05-03T09:07:25.109Z</time></trkpt><trkpt lat="45.9150235" lon="13.427357"><ele>26.0</ele><time>2026-05-03T09:07:26.103Z</time></trkpt><trkpt lat="45.9149286" lon="13.4275951"><ele>26.0</ele><time>2026-05-03T09:07:27.103Z</time></trkpt><trkpt lat="45.9148296" lon="13.4278316"><ele>26.0</ele><time>2026-05-03T09:07:28.104Z</time></trkpt><trkpt lat="45.9147213" lon="13.4280642"><ele>26.0</ele><time>2026-05-03T09:07:29.104Z</time></trkpt><trkpt lat="45.9145981" lon="13.4282832"><ele>26.0</ele><time>2026-05-03T09:07:30.107Z</time></trkpt><trkpt lat="45.9144558" lon="13.4284835"><ele>26.0</ele><time>2026-05-03T09:07:31.102Z</time></trkpt><trkpt lat="45.9142941" lon="13.4286759"><ele>26.0</ele><time>2026-05-03T09:07:32.101Z</time></trkpt><trkpt lat="45.914118" lon="13.4288608"><ele>26.0</ele><time>2026-05-03T09:07:33.102Z</time></trkpt><trkpt lat="45.9139432" lon="13.4290433"><ele>26.0</ele><time>2026-05-03T09:07:34.105Z</time></trkpt><trkpt lat="45.91378" lon="13.4292438"><ele>26.0</ele><time>2026-05-03T09:07:35.101Z</time></trkpt><trkpt lat="45.9136382" lon="13.4294714"><ele>26.0</ele><time>2026-05-03T09:07:36.097Z</time></trkpt><trkpt lat="45.9135047" lon="13.4297239"><ele>26.0</ele><time>2026-05-03T09:07:37.101Z</time></trkpt><trkpt lat="45.9133853" lon="13.4299914"><ele>25.5</ele><time>2026-05-03T09:07:38.102Z</time></trkpt><trkpt lat="45.9132715" lon="13.4302795"><ele>25.0</ele><time>2026-05-03T09:07:39.108Z</time></trkpt><trkpt lat="45.9131538" lon="13.430565"><ele>24.5</ele><time>2026-05-03T09:07:40.109Z</time></trkpt><trkpt lat="45.9130162" lon="13.4308405"><ele>24.0</ele><time>2026-05-03T09:07:41.1Z</time></trkpt><trkpt lat="45.9128506" lon="13.4310956"><ele>23.5</ele><time>2026-05-03T09:07:42.106Z</time></trkpt><trkpt lat="45.9126708" lon="13.4313276"><ele>23.0</ele><time>2026-05-03T09:07:43.11Z</time></trkpt><trkpt lat="45.9124748" lon="13.431548"><ele>22.5</ele><time>2026-05-03T09:07:44.108Z</time></trkpt><trkpt lat="45.9122729" lon="13.4317575"><ele>22.0</ele><time>2026-05-03T09:07:45.119Z</time></trkpt><trkpt lat="45.9120704" lon="13.4319684"><ele>22.0</ele><time>2026-05-03T09:07:46.097Z</time></trkpt><trkpt lat="45.9118696" lon="13.4321877"><ele>22.0</ele><time>2026-05-03T09:07:47.1Z</time></trkpt><trkpt lat="45.9116737" lon="13.4324269"><ele>23.0</ele><time>2026-05-03T09:07:48.105Z</time></trkpt><trkpt lat="45.9114888" lon="13.4326778"><ele>24.0</ele><time>2026-05-03T09:07:49.112Z</time></trkpt><trkpt lat="45.9113104" lon="13.4329404"><ele>24.5</ele><time>2026-05-03T09:07:50.108Z</time></trkpt><trkpt lat="45.9111329" lon="13.4332088"><ele>25.0</ele><time>2026-05-03T09:07:51.106Z</time></trkpt><trkpt lat="45.9109591" lon="13.4334774"><ele>24.5</ele><time>2026-05-03T09:07:52.104Z</time></trkpt><trkpt lat="45.9107949" lon="13.4337483"><ele>24.0</ele><time>2026-05-03T09:07:53.107Z</time></trkpt><trkpt lat="45.9106455" lon="13.4340271"><ele>23.5</ele><time>2026-05-03T09:07:54.121Z</time></trkpt><trkpt lat="45.9105038" lon="13.4343119"><ele>23.0</ele><time>2026-05-03T09:07:55.107Z</time></trkpt><trkpt lat="45.9103601" lon="13.4346034"><ele>23.0</ele><time>2026-05-03T09:07:56.111Z</time></trkpt><trkpt lat="45.9102225" lon="13.4348769"><ele>23.0</ele><time>2026-05-03T09:07:57.105Z</time></trkpt><trkpt lat="45.9100956" lon="13.4351293"><ele>23.333333333333336</ele><time>2026-05-03T09:07:58.115Z</time></trkpt><trkpt lat="45.9099797" lon="13.4353635"><ele>23.666666666666668</ele><time>2026-05-03T09:07:59.098Z</time></trkpt><trkpt lat="45.909885" lon="13.4355692"><ele>24.0</ele><time>2026-05-03T09:08:00.106Z</time></trkpt><trkpt lat="45.909797" lon="13.4357325"><ele>24.0</ele><time>2026-05-03T09:08:01.107Z</time></trkpt><trkpt lat="45.9097295" lon="13.4358724"><ele>24.0</ele><time>2026-05-03T09:08:02.104Z</time></trkpt><trkpt lat="45.9096669" lon="13.435999"><ele>24.0</ele><time>2026-05-03T09:08:03.133Z</time></trkpt><trkpt lat="45.9096065" lon="13.4361084"><ele>24.0</ele><time>2026-05-03T09:08:04.108Z</time></trkpt><trkpt lat="45.9095661" lon="13.4361898"><ele>24.0</ele><time>2026-05-03T09:08:05.125Z</time></trkpt><trkpt lat="45.9096416" lon="13.4360927"><ele>24.0</ele><time>2026-05-03T09:08:13.109Z</time></trkpt><trkpt lat="45.9096855" lon="13.4359852"><ele>24.0</ele><time>2026-05-03T09:08:14.105Z</time></trkpt><trkpt lat="45.9097486" lon="13.43587"><ele>24.0</ele><time>2026-05-03T09:08:15.103Z</time></trkpt><trkpt lat="45.9098192" lon="13.4357265"><ele>24.0</ele><time>2026-05-03T09:08:16.102Z</time></trkpt><trkpt lat="45.9098905" lon="13.4355906"><ele>24.0</ele><time>2026-05-03T09:08:17.108Z</time></trkpt><trkpt lat="45.9099425" lon="13.4354737"><ele>24.0</ele><time>2026-05-03T09:08:18.113Z</time></trkpt><trkpt lat="45.9099876" lon="13.4353849"><ele>24.0</ele><time>2026-05-03T09:08:19.127Z</time></trkpt><trkpt lat="45.9100491" lon="13.4353418"><ele>24.0</ele><time>2026-05-03T09:08:21.11Z</time></trkpt><trkpt lat="45.9100423" lon="13.4355056"><ele>24.0</ele><time>2026-05-03T09:08:24.111Z</time></trkpt><trkpt lat="45.9100044" lon="13.4355882"><ele>24.0</ele><time>2026-05-03T09:08:25.107Z</time></trkpt><trkpt lat="45.9099526" lon="13.4356966"><ele>24.0</ele><time>2026-05-03T09:08:26.115Z</time></trkpt><trkpt lat="45.9098873" lon="13.4358305"><ele>24.0</ele><time>2026-05-03T09:08:27.117Z</time></trkpt><trkpt lat="45.9098302" lon="13.4359514"><ele>24.0</ele><time>2026-05-03T09:08:28.115Z</time></trkpt><trkpt lat="45.9097871" lon="13.4360659"><ele>24.0</ele><time>2026-05-03T09:08:29.108Z</time></trkpt><trkpt lat="45.9097713" lon="13.4361785"><ele>24.0</ele><time>2026-05-03T09:08:30.108Z</time></trkpt><trkpt lat="45.9097852" lon="13.4362887"><ele>24.0</ele><time>2026-05-03T09:08:31.115Z</time></trkpt><trkpt lat="45.9098279" lon="13.4364033"><ele>24.0</ele><time>2026-05-03T09:08:32.099Z</time></trkpt><trkpt lat="45.9098891" lon="13.4365403"><ele>23.75</ele><time>2026-05-03T09:08:33.109Z</time></trkpt><trkpt lat="45.909963" lon="13.4367104"><ele>23.5</ele><time>2026-05-03T09:08:34.107Z</time></trkpt><trkpt lat="45.9100346" lon="13.4368902"><ele>23.25</ele><time>2026-05-03T09:08:35.116Z</time></trkpt><trkpt lat="45.910101" lon="13.4370769"><ele>23.0</ele><time>2026-05-03T09:08:36.109Z</time></trkpt><trkpt lat="45.910164" lon="13.4372494"><ele>23.5</ele><time>2026-05-03T09:08:37.112Z</time></trkpt><trkpt lat="45.9102276" lon="13.4373973"><ele>24.0</ele><time>2026-05-03T09:08:38.116Z</time></trkpt><trkpt lat="45.9102989" lon="13.4375361"><ele>24.5</ele><time>2026-05-03T09:08:39.122Z</time></trkpt><trkpt lat="45.9103853" lon="13.4376571"><ele>25.0</ele><time>2026-05-03T09:08:40.12Z</time></trkpt><trkpt lat="45.9104873" lon="13.4377655"><ele>25.0</ele><time>2026-05-03T09:08:41.107Z</time></trkpt><trkpt lat="45.910616" lon="13.437889"><ele>25.0</ele><time>2026-05-03T09:08:42.112Z</time></trkpt><trkpt lat="45.9107619" lon="13.4380198"><ele>25.0</ele><time>2026-05-03T09:08:43.12Z</time></trkpt><trkpt lat="45.9109187" lon="13.4381571"><ele>26.0</ele><time>2026-05-03T09:08:44.12Z</time></trkpt><trkpt lat="45.9110765" lon="13.4382759"><ele>27.0</ele><time>2026-05-03T09:08:45.127Z</time></trkpt><trkpt lat="45.9112236" lon="13.4383737"><ele>28.0</ele><time>2026-05-03T09:08:46.112Z</time></trkpt><trkpt lat="45.91136" lon="13.4384678"><ele>28.0</ele><time>2026-05-03T09:08:47.124Z</time></trkpt><trkpt lat="45.9114869" lon="13.4385658"><ele>28.0</ele><time>2026-05-03T09:08:48.115Z</time></trkpt><trkpt lat="45.9115919" lon="13.4386676"><ele>28.0</ele><time>2026-05-03T09:08:49.119Z</time></trkpt><trkpt lat="45.9116872" lon="13.4388044"><ele>28.0</ele><time>2026-05-03T09:08:50.112Z</time></trkpt><trkpt lat="45.9117928" lon="13.4389621"><ele>28.0</ele><time>2026-05-03T09:08:51.117Z</time></trkpt><trkpt lat="45.9119062" lon="13.439121"><ele>28.0</ele><time>2026-05-03T09:08:52.119Z</time></trkpt><trkpt lat="45.9120226" lon="13.4392762"><ele>28.0</ele><time>2026-05-03T09:08:53.106Z</time></trkpt><trkpt lat="45.9121378" lon="13.43945"><ele>28.0</ele><time>2026-05-03T09:08:54.114Z</time></trkpt><trkpt lat="45.9122524" lon="13.4396321"><ele>28.0</ele><time>2026-05-03T09:08:55.117Z</time></trkpt><trkpt lat="45.9123562" lon="13.4398381"><ele>28.0</ele><time>2026-05-03T09:08:56.112Z</time></trkpt><trkpt lat="45.9124594" lon="13.4400719"><ele>28.0</ele><time>2026-05-03T09:08:57.115Z</time></trkpt><trkpt lat="45.9125587" lon="13.4403122"><ele>28.0</ele><time>2026-05-03T09:08:58.118Z</time></trkpt><trkpt lat="45.9126547" lon="13.4405495"><ele>28.0</ele><time>2026-05-03T09:08:59.126Z</time></trkpt><trkpt lat="45.9127438" lon="13.4407866"><ele>28.0</ele><time>2026-05-03T09:09:00.113Z</time></trkpt><trkpt lat="45.9128348" lon="13.4410288"><ele>28.0</ele><time>2026-05-03T09:09:01.115Z</time></trkpt><trkpt lat="45.9129151" lon="13.44125"><ele>28.0</ele><time>2026-05-03T09:09:02.105Z</time></trkpt><trkpt lat="45.9129903" lon="13.441441"><ele>28.5</ele><time>2026-05-03T09:09:03.109Z</time></trkpt><trkpt lat="45.9130693" lon="13.4416065"><ele>29.0</ele><time>2026-05-03T09:09:04.121Z</time></trkpt><trkpt lat="45.9131519" lon="13.4417392"><ele>29.5</ele><time>2026-05-03T09:09:05.112Z</time></trkpt><trkpt lat="45.9132456" lon="13.4418465"><ele>30.0</ele><time>2026-05-03T09:09:06.122Z</time></trkpt><trkpt lat="45.9133503" lon="13.4419433"><ele>30.0</ele><time>2026-05-03T09:09:07.115Z</time></trkpt><trkpt lat="45.913453" lon="13.4420386"><ele>30.0</ele><time>2026-05-03T09:09:08.117Z</time></trkpt><trkpt lat="45.9135405" lon="13.4421188"><ele>30.0</ele><time>2026-05-03T09:09:09.112Z</time></trkpt><trkpt lat="45.913629" lon="13.4421834"><ele>30.0</ele><time>2026-05-03T09:09:10.108Z</time></trkpt><trkpt lat="45.9137398" lon="13.4422383"><ele>30.0</ele><time>2026-05-03T09:09:11.122Z</time></trkpt><trkpt lat="45.913876" lon="13.4422824"><ele>30.0</ele><time>2026-05-03T09:09:12.123Z</time></trkpt><trkpt lat="45.91402" lon="13.4423232"><ele>30.0</ele><time>2026-05-03T09:09:13.119Z</time></trkpt><trkpt lat="45.9141724" lon="13.4423592"><ele>30.0</ele><time>2026-05-03T09:09:14.111Z</time></trkpt><trkpt lat="45.9143214" lon="13.4423926"><ele>29.75</ele><time>2026-05-03T09:09:15.119Z</time></trkpt><trkpt lat="45.9144566" lon="13.4424254"><ele>29.5</ele><time>2026-05-03T09:09:16.111Z</time></trkpt><trkpt lat="45.9145785" lon="13.4424661"><ele>29.25</ele><time>2026-05-03T09:09:17.108Z</time></trkpt><trkpt lat="45.9147068" lon="13.4425307"><ele>29.0</ele><time>2026-05-03T09:09:18.121Z</time></trkpt><trkpt lat="45.914852" lon="13.4426236"><ele>29.0</ele><time>2026-05-03T09:09:19.112Z</time></trkpt><trkpt lat="45.9150174" lon="13.4427276"><ele>29.0</ele><time>2026-05-03T09:09:20.115Z</time></trkpt><trkpt lat="45.9151989" lon="13.4428504"><ele>29.0</ele><time>2026-05-03T09:09:21.112Z</time></trkpt><trkpt lat="45.9153836" lon="13.4429694"><ele>28.333333333333332</ele><time>2026-05-03T09:09:22.122Z</time></trkpt><trkpt lat="45.9155536" lon="13.4430831"><ele>27.666666666666664</ele><time>2026-05-03T09:09:23.128Z</time></trkpt><trkpt lat="45.915715" lon="13.4431752"><ele>27.0</ele><time>2026-05-03T09:09:24.127Z</time></trkpt><trkpt lat="45.9158707" lon="13.44324"><ele>27.666666666666664</ele><time>2026-05-03T09:09:25.124Z</time></trkpt><trkpt lat="45.9160285" lon="13.4432823"><ele>28.333333333333332</ele><time>2026-05-03T09:09:26.116Z</time></trkpt><trkpt lat="45.9161913" lon="13.4433108"><ele>29.0</ele><time>2026-05-03T09:09:27.122Z</time></trkpt><trkpt lat="45.916352" lon="13.4433384"><ele>29.0</ele><time>2026-05-03T09:09:28.119Z</time></trkpt><trkpt lat="45.9165078" lon="13.4433759"><ele>29.0</ele><time>2026-05-03T09:09:29.119Z</time></trkpt><trkpt lat="45.9166622" lon="13.443427"><ele>29.0</ele><time>2026-05-03T09:09:30.116Z</time></trkpt><trkpt lat="45.9168147" lon="13.4434778"><ele>29.5</ele><time>2026-05-03T09:09:31.113Z</time></trkpt><trkpt lat="45.9169586" lon="13.4435226"><ele>30.0</ele><time>2026-05-03T09:09:32.129Z</time></trkpt><trkpt lat="45.9171111" lon="13.4435586"><ele>30.5</ele><time>2026-05-03T09:09:33.108Z</time></trkpt><trkpt lat="45.9172519" lon="13.4435835"><ele>31.0</ele><time>2026-05-03T09:09:34.125Z</time></trkpt><trkpt lat="45.9173967" lon="13.4435902"><ele>31.0</ele><time>2026-05-03T09:09:35.113Z</time></trkpt><trkpt lat="45.9175513" lon="13.4435757"><ele>31.0</ele><time>2026-05-03T09:09:36.124Z</time></trkpt><trkpt lat="45.9177112" lon="13.4435536"><ele>31.0</ele><time>2026-05-03T09:09:37.116Z</time></trkpt><trkpt lat="45.91787" lon="13.4435414"><ele>30.5</ele><time>2026-05-03T09:09:38.118Z</time></trkpt><trkpt lat="45.9180127" lon="13.4435367"><ele>30.0</ele><time>2026-05-03T09:09:39.119Z</time></trkpt><trkpt lat="45.9181328" lon="13.4435498"><ele>29.5</ele><time>2026-05-03T09:09:40.117Z</time></trkpt><trkpt lat="45.9182292" lon="13.4435835"><ele>29.0</ele><time>2026-05-03T09:09:41.12Z</time></trkpt><trkpt lat="45.9183338" lon="13.4436494"><ele>28.799999999999997</ele><time>2026-05-03T09:09:42.112Z</time></trkpt><trkpt lat="45.9184312" lon="13.4437338"><ele>28.599999999999998</ele><time>2026-05-03T09:09:43.123Z</time></trkpt><trkpt lat="45.9185165" lon="13.44383"><ele>28.4</ele><time>2026-05-03T09:09:44.117Z</time></trkpt><trkpt lat="45.9185842" lon="13.4439359"><ele>28.2</ele><time>2026-05-03T09:09:45.115Z</time></trkpt><trkpt lat="45.9186328" lon="13.4440295"><ele>28.0</ele><time>2026-05-03T09:09:46.113Z</time></trkpt><trkpt lat="45.9186834" lon="13.4441269"><ele>28.0</ele><time>2026-05-03T09:09:47.117Z</time></trkpt><trkpt lat="45.918751" lon="13.4442469"><ele>28.0</ele><time>2026-05-03T09:09:48.128Z</time></trkpt><trkpt lat="45.9188243" lon="13.4443959"><ele>28.0</ele><time>2026-05-03T09:09:49.122Z</time></trkpt><trkpt lat="45.9188889" lon="13.4445563"><ele>28.0</ele><time>2026-05-03T09:09:50.126Z</time></trkpt><trkpt lat="45.9189463" lon="13.444733"><ele>28.0</ele><time>2026-05-03T09:09:51.117Z</time></trkpt><trkpt lat="45.9190049" lon="13.4449406"><ele>28.0</ele><time>2026-05-03T09:09:52.119Z</time></trkpt><trkpt lat="45.9190596" lon="13.4451743"><ele>28.0</ele><time>2026-05-03T09:09:53.125Z</time></trkpt><trkpt lat="45.9191147" lon="13.4454333"><ele>27.666666666666668</ele><time>2026-05-03T09:09:54.117Z</time></trkpt><trkpt lat="45.9191701" lon="13.4456983"><ele>27.333333333333336</ele><time>2026-05-03T09:09:55.116Z</time></trkpt><trkpt lat="45.9192252" lon="13.4459677"><ele>27.0</ele><time>2026-05-03T09:09:56.111Z</time></trkpt><trkpt lat="45.9192803" lon="13.4462422"><ele>27.0</ele><time>2026-05-03T09:09:57.122Z</time></trkpt><trkpt lat="45.9193331" lon="13.446519"><ele>27.0</ele><time>2026-05-03T09:09:58.116Z</time></trkpt><trkpt lat="45.9193846" lon="13.4467958"><ele>27.0</ele><time>2026-05-03T09:09:59.112Z</time></trkpt><trkpt lat="45.9194322" lon="13.4470676"><ele>26.666666666666664</ele><time>2026-05-03T09:10:00.117Z</time></trkpt><trkpt lat="45.9194766" lon="13.4473366"><ele>26.333333333333332</ele><time>2026-05-03T09:10:01.122Z</time></trkpt><trkpt lat="45.9195109" lon="13.4475747"><ele>26.0</ele><time>2026-05-03T09:10:02.117Z</time></trkpt><trkpt lat="45.9195423" lon="13.4478003"><ele>26.333333333333332</ele><time>2026-05-03T09:10:03.122Z</time></trkpt><trkpt lat="45.9195672" lon="13.4480197"><ele>26.666666666666664</ele><time>2026-05-03T09:10:04.112Z</time></trkpt><trkpt lat="45.9195851" lon="13.4482587"><ele>27.0</ele><time>2026-05-03T09:10:05.115Z</time></trkpt><trkpt lat="45.9195976" lon="13.448515"><ele>27.0</ele><time>2026-05-03T09:10:06.118Z</time></trkpt><trkpt lat="45.919606" lon="13.4487771"><ele>27.0</ele><time>2026-05-03T09:10:07.132Z</time></trkpt><trkpt lat="45.919619" lon="13.4490573"><ele>27.0</ele><time>2026-05-03T09:10:08.116Z</time></trkpt><trkpt lat="45.9196295" lon="13.4493389"><ele>27.0</ele><time>2026-05-03T09:10:09.126Z</time></trkpt><trkpt lat="45.9196393" lon="13.4496171"><ele>27.0</ele><time>2026-05-03T09:10:10.112Z</time></trkpt><trkpt lat="45.9196535" lon="13.4498985"><ele>27.0</ele><time>2026-05-03T09:10:11.119Z</time></trkpt><trkpt lat="45.9196687" lon="13.4501782"><ele>27.0</ele><time>2026-05-03T09:10:12.129Z</time></trkpt><trkpt lat="45.9196802" lon="13.450451"><ele>27.0</ele><time>2026-05-03T09:10:13.112Z</time></trkpt><trkpt lat="45.9196928" lon="13.4507206"><ele>27.0</ele><time>2026-05-03T09:10:14.125Z</time></trkpt><trkpt lat="45.9197183" lon="13.4509897"><ele>27.333333333333336</ele><time>2026-05-03T09:10:15.119Z</time></trkpt><trkpt lat="45.9197496" lon="13.4512493"><ele>27.666666666666668</ele><time>2026-05-03T09:10:16.109Z</time></trkpt><trkpt lat="45.9197807" lon="13.451495"><ele>28.0</ele><time>2026-05-03T09:10:17.11Z</time></trkpt><trkpt lat="45.9198038" lon="13.4517262"><ele>28.0</ele><time>2026-05-03T09:10:18.125Z</time></trkpt><trkpt lat="45.9198262" lon="13.4519528"><ele>28.0</ele><time>2026-05-03T09:10:19.118Z</time></trkpt><trkpt lat="45.9198584" lon="13.4521826"><ele>28.0</ele><time>2026-05-03T09:10:20.116Z</time></trkpt><trkpt lat="45.9199008" lon="13.4524166"><ele>28.0</ele><time>2026-05-03T09:10:21.114Z</time></trkpt><trkpt lat="45.9199515" lon="13.4526247"><ele>28.0</ele><time>2026-05-03T09:10:22.12Z</time></trkpt><trkpt lat="45.9199988" lon="13.4528098"><ele>28.0</ele><time>2026-05-03T09:10:23.117Z</time></trkpt><trkpt lat="45.9200349" lon="13.4529647"><ele>28.0</ele><time>2026-05-03T09:10:24.117Z</time></trkpt><trkpt lat="45.9200706" lon="13.4531025"><ele>28.666666666666668</ele><time>2026-05-03T09:10:25.12Z</time></trkpt><trkpt lat="45.9201004" lon="13.4532228"><ele>29.333333333333336</ele><time>2026-05-03T09:10:26.106Z</time></trkpt><trkpt lat="45.920131" lon="13.4533199"><ele>30.0</ele><time>2026-05-03T09:10:27.127Z</time></trkpt><trkpt lat="45.9201901" lon="13.4534165"><ele>30.666666666666664</ele><time>2026-05-03T09:10:29.14Z</time></trkpt><trkpt lat="45.9202949" lon="13.4533852"><ele>31.333333333333332</ele><time>2026-05-03T09:10:31.107Z</time></trkpt><trkpt lat="45.920372" lon="13.4533517"><ele>32.0</ele><time>2026-05-03T09:10:32.112Z</time></trkpt><trkpt lat="45.9204424" lon="13.4533237"><ele>32.0</ele><time>2026-05-03T09:10:33.123Z</time></trkpt><trkpt lat="45.9205318" lon="13.4533552"><ele>32.0</ele><time>2026-05-03T09:10:35.116Z</time></trkpt><trkpt lat="45.9205728" lon="13.4535085"><ele>32.0</ele><time>2026-05-03T09:10:37.114Z</time></trkpt><trkpt lat="45.920572" lon="13.4536438"><ele>32.0</ele><time>2026-05-03T09:10:38.109Z</time></trkpt><trkpt lat="45.9205749" lon="13.4537828"><ele>32.0</ele><time>2026-05-03T09:10:39.118Z</time></trkpt><trkpt lat="45.920582" lon="13.4539147"><ele>31.999999999999996</ele><time>2026-05-03T09:10:40.123Z</time></trkpt><trkpt lat="45.9206011" lon="13.4540383"><ele>32.0</ele><time>2026-05-03T09:10:41.119Z</time></trkpt><trkpt lat="45.9206299" lon="13.4541493"><ele>32.0</ele><time>2026-05-03T09:10:42.111Z</time></trkpt><trkpt lat="45.9206688" lon="13.4542597"><ele>32.0</ele><time>2026-05-03T09:10:43.108Z</time></trkpt><trkpt lat="45.9207108" lon="13.4543775"><ele>31.999999999999996</ele><time>2026-05-03T09:10:44.111Z</time></trkpt><trkpt lat="45.9207518" lon="13.4544981"><ele>32.0</ele><time>2026-05-03T09:10:45.108Z</time></trkpt><trkpt lat="45.9207799" lon="13.4546256"><ele>31.8</ele><time>2026-05-03T09:10:46.123Z</time></trkpt><trkpt lat="45.920782" lon="13.4547748"><ele>31.6</ele><time>2026-05-03T09:10:47.118Z</time></trkpt><trkpt lat="45.920787" lon="13.4549152"><ele>31.400000000000002</ele><time>2026-05-03T09:10:48.115Z</time></trkpt><trkpt lat="45.9208067" lon="13.4550512"><ele>31.200000000000003</ele><time>2026-05-03T09:10:49.109Z</time></trkpt><trkpt lat="45.9208409" lon="13.4551667"><ele>31.0</ele><time>2026-05-03T09:10:50.115Z</time></trkpt><trkpt lat="45.9208964" lon="13.4552796"><ele>31.166666666666668</ele><time>2026-05-03T09:10:51.103Z</time></trkpt><trkpt lat="45.9209553" lon="13.4553908"><ele>31.333333333333336</ele><time>2026-05-03T09:10:52.125Z</time></trkpt><trkpt lat="45.9210148" lon="13.4554984"><ele>31.5</ele><time>2026-05-03T09:10:53.108Z</time></trkpt><trkpt lat="45.9210661" lon="13.4556049"><ele>31.666666666666664</ele><time>2026-05-03T09:10:54.116Z</time></trkpt><trkpt lat="45.9211161" lon="13.4557017"><ele>31.833333333333332</ele><time>2026-05-03T09:10:55.109Z</time></trkpt><trkpt lat="45.9211565" lon="13.4557845"><ele>32.0</ele><time>2026-05-03T09:10:56.122Z</time></trkpt><trkpt lat="45.9212215" lon="13.4559001"><ele>32.0</ele><time>2026-05-03T09:10:58.127Z</time></trkpt><trkpt lat="45.9212663" lon="13.4559705"><ele>32.0</ele><time>2026-05-03T09:11:00.121Z</time></trkpt><trkpt lat="45.9213464" lon="13.456074"><ele>32.0</ele><time>2026-05-03T09:11:04.122Z</time></trkpt><trkpt lat="45.9214452" lon="13.4562171"><ele>32.0</ele><time>2026-05-03T09:11:06.118Z</time></trkpt><trkpt lat="45.921515" lon="13.4563351"><ele>32.0</ele><time>2026-05-03T09:11:07.122Z</time></trkpt><trkpt lat="45.9215873" lon="13.45646"><ele>32.0</ele><time>2026-05-03T09:11:08.121Z</time></trkpt><trkpt lat="45.9216781" lon="13.4565985"><ele>32.0</ele><time>2026-05-03T09:11:09.126Z</time></trkpt><trkpt lat="45.921779" lon="13.4567471"><ele>32.0</ele><time>2026-05-03T09:11:10.116Z</time></trkpt><trkpt lat="45.9218937" lon="13.4569075"><ele>32.0</ele><time>2026-05-03T09:11:11.115Z</time></trkpt><trkpt lat="45.9220145" lon="13.4570684"><ele>32.33333333333333</ele><time>2026-05-03T09:11:12.112Z</time></trkpt><trkpt lat="45.9221369" lon="13.4572245"><ele>32.666666666666664</ele><time>2026-05-03T09:11:13.113Z</time></trkpt><trkpt lat="45.9222573" lon="13.4573704"><ele>33.0</ele><time>2026-05-03T09:11:14.116Z</time></trkpt><trkpt lat="45.9223774" lon="13.4575043"><ele>33.0</ele><time>2026-05-03T09:11:15.116Z</time></trkpt><trkpt lat="45.9225211" lon="13.4576342"><ele>33.0</ele><time>2026-05-03T09:11:16.114Z</time></trkpt><trkpt lat="45.922686" lon="13.457776"><ele>33.0</ele><time>2026-05-03T09:11:17.117Z</time></trkpt><trkpt lat="45.9228515" lon="13.4579192"><ele>32.666666666666664</ele><time>2026-05-03T09:11:18.116Z</time></trkpt><trkpt lat="45.9230015" lon="13.4580509"><ele>32.33333333333333</ele><time>2026-05-03T09:11:19.129Z</time></trkpt><trkpt lat="45.9231327" lon="13.4581732"><ele>32.0</ele><time>2026-05-03T09:11:20.109Z</time></trkpt><trkpt lat="45.9232466" lon="13.4582906"><ele>32.0</ele><time>2026-05-03T09:11:21.116Z</time></trkpt><trkpt lat="45.9233585" lon="13.4584141"><ele>32.0</ele><time>2026-05-03T09:11:22.12Z</time></trkpt><trkpt lat="45.9234634" lon="13.4585624"><ele>32.0</ele><time>2026-05-03T09:11:23.112Z</time></trkpt><trkpt lat="45.923561" lon="13.4587265"><ele>32.0</ele><time>2026-05-03T09:11:24.121Z</time></trkpt><trkpt lat="45.9236419" lon="13.4588684"><ele>32.0</ele><time>2026-05-03T09:11:25.123Z</time></trkpt><trkpt lat="45.9237093" lon="13.459002"><ele>32.0</ele><time>2026-05-03T09:11:26.115Z</time></trkpt><trkpt lat="45.9237692" lon="13.4591317"><ele>32.0</ele><time>2026-05-03T09:11:27.119Z</time></trkpt><trkpt lat="45.9238291" lon="13.4592648"><ele>32.0</ele><time>2026-05-03T09:11:28.109Z</time></trkpt><trkpt lat="45.9238865" lon="13.4594018"><ele>32.0</ele><time>2026-05-03T09:11:29.114Z</time></trkpt><trkpt lat="45.9239346" lon="13.4595482"><ele>32.5</ele><time>2026-05-03T09:11:30.099Z</time></trkpt><trkpt lat="45.9239827" lon="13.4597019"><ele>33.0</ele><time>2026-05-03T09:11:31.121Z</time></trkpt><trkpt lat="45.9240256" lon="13.4598646"><ele>33.5</ele><time>2026-05-03T09:11:32.125Z</time></trkpt><trkpt lat="45.9240599" lon="13.4600401"><ele>34.0</ele><time>2026-05-03T09:11:33.112Z</time></trkpt><trkpt lat="45.9240938" lon="13.4602392"><ele>33.333333333333336</ele><time>2026-05-03T09:11:34.116Z</time></trkpt><trkpt lat="45.9241156" lon="13.4604663"><ele>32.666666666666664</ele><time>2026-05-03T09:11:35.126Z</time></trkpt><trkpt lat="45.9241367" lon="13.4607181"><ele>32.0</ele><time>2026-05-03T09:11:36.115Z</time></trkpt><trkpt lat="45.9241686" lon="13.4609846"><ele>32.0</ele><time>2026-05-03T09:11:37.124Z</time></trkpt><trkpt lat="45.9242089" lon="13.4612602"><ele>32.0</ele><time>2026-05-03T09:11:38.109Z</time></trkpt><trkpt lat="45.9242475" lon="13.4615507"><ele>32.0</ele><time>2026-05-03T09:11:39.121Z</time></trkpt><trkpt lat="45.9242855" lon="13.4618568"><ele>32.0</ele><time>2026-05-03T09:11:40.114Z</time></trkpt><trkpt lat="45.924321" lon="13.4621614"><ele>32.0</ele><time>2026-05-03T09:11:41.121Z</time></trkpt><trkpt lat="45.9243602" lon="13.4624577"><ele>32.0</ele><time>2026-05-03T09:11:42.111Z</time></trkpt><trkpt lat="45.9244086" lon="13.462755"><ele>32.0</ele><time>2026-05-03T09:11:43.107Z</time></trkpt><trkpt lat="45.9244711" lon="13.4630486"><ele>32.0</ele><time>2026-05-03T09:11:44.112Z</time></trkpt><trkpt lat="45.9245498" lon="13.4633419"><ele>32.0</ele><time>2026-05-03T09:11:45.11Z</time></trkpt><trkpt lat="45.9246343" lon="13.4636329"><ele>32.0</ele><time>2026-05-03T09:11:46.106Z</time></trkpt><trkpt lat="45.9247178" lon="13.4639315"><ele>32.0</ele><time>2026-05-03T09:11:47.096Z</time></trkpt><trkpt lat="45.9248081" lon="13.4642331"><ele>32.0</ele><time>2026-05-03T09:11:48.112Z</time></trkpt><trkpt lat="45.9249012" lon="13.4645208"><ele>32.0</ele><time>2026-05-03T09:11:49.127Z</time></trkpt><trkpt lat="45.924996" lon="13.4647981"><ele>32.0</ele><time>2026-05-03T09:11:50.107Z</time></trkpt><trkpt lat="45.9250877" lon="13.4650676"><ele>32.0</ele><time>2026-05-03T09:11:51.125Z</time></trkpt><trkpt lat="45.9251715" lon="13.4653257"><ele>32.0</ele><time>2026-05-03T09:11:52.116Z</time></trkpt><trkpt lat="45.9252506" lon="13.4655695"><ele>32.0</ele><time>2026-05-03T09:11:53.108Z</time></trkpt><trkpt lat="45.9253221" lon="13.4657981"><ele>32.0</ele><time>2026-05-03T09:11:54.114Z</time></trkpt><trkpt lat="45.9253842" lon="13.4660111"><ele>32.0</ele><time>2026-05-03T09:11:55.112Z</time></trkpt><trkpt lat="45.9254314" lon="13.4661984"><ele>32.0</ele><time>2026-05-03T09:11:56.121Z</time></trkpt><trkpt lat="45.9254806" lon="13.466367"><ele>32.0</ele><time>2026-05-03T09:11:57.118Z</time></trkpt><trkpt lat="45.9255235" lon="13.4665083"><ele>32.0</ele><time>2026-05-03T09:11:58.12Z</time></trkpt><trkpt lat="45.9255553" lon="13.4666129"><ele>31.999999999999996</ele><time>2026-05-03T09:11:59.119Z</time></trkpt><trkpt lat="45.9255913" lon="13.4667237"><ele>32.0</ele><time>2026-05-03T09:12:01.113Z</time></trkpt><trkpt lat="45.9255527" lon="13.4668082"><ele>32.0</ele><time>2026-05-03T09:12:14.109Z</time></trkpt><trkpt lat="45.9256122" lon="13.4667738"><ele>31.999999999999996</ele><time>2026-05-03T09:12:42.123Z</time></trkpt><trkpt lat="45.9256431" lon="13.4668585"><ele>32.0</ele><time>2026-05-03T09:12:44.124Z</time></trkpt><trkpt lat="45.925668" lon="13.4669421"><ele>32.0</ele><time>2026-05-03T09:12:45.116Z</time></trkpt><trkpt lat="45.9256969" lon="13.4670436"><ele>32.166666666666664</ele><time>2026-05-03T09:12:46.122Z</time></trkpt><trkpt lat="45.9257237" lon="13.4671509"><ele>32.33333333333333</ele><time>2026-05-03T09:12:47.115Z</time></trkpt><trkpt lat="45.925749" lon="13.4672559"><ele>32.5</ele><time>2026-05-03T09:12:48.129Z</time></trkpt><trkpt lat="45.9257813" lon="13.4673613"><ele>32.666666666666664</ele><time>2026-05-03T09:12:49.118Z</time></trkpt><trkpt lat="45.9258113" lon="13.4674531"><ele>32.833333333333336</ele><time>2026-05-03T09:12:50.122Z</time></trkpt><trkpt lat="45.925876" lon="13.4675333"><ele>33.0</ele><time>2026-05-03T09:12:52.111Z</time></trkpt><trkpt lat="45.9259431" lon="13.4675248"><ele>33.199999999999996</ele><time>2026-05-03T09:12:54.118Z</time></trkpt><trkpt lat="45.9260177" lon="13.4674569"><ele>33.4</ele><time>2026-05-03T09:12:55.117Z</time></trkpt><trkpt lat="45.9261066" lon="13.4673791"><ele>33.599999999999994</ele><time>2026-05-03T09:12:56.103Z</time></trkpt><trkpt lat="45.926219" lon="13.4673041"><ele>33.8</ele><time>2026-05-03T09:12:57.116Z</time></trkpt><trkpt lat="45.92632" lon="13.4672322"><ele>34.0</ele><time>2026-05-03T09:12:58.109Z</time></trkpt><trkpt lat="45.9264091" lon="13.4671583"><ele>33.833333333333336</ele><time>2026-05-03T09:12:59.113Z</time></trkpt><trkpt lat="45.926495" lon="13.4670949"><ele>33.66666666666667</ele><time>2026-05-03T09:13:00.117Z</time></trkpt><trkpt lat="45.9265841" lon="13.4670301"><ele>33.5</ele><time>2026-05-03T09:13:01.112Z</time></trkpt><trkpt lat="45.9266665" lon="13.4669716"><ele>33.333333333333336</ele><time>2026-05-03T09:13:02.122Z</time></trkpt><trkpt lat="45.9267401" lon="13.4669187"><ele>33.166666666666664</ele><time>2026-05-03T09:13:03.11Z</time></trkpt><trkpt lat="45.9268094" lon="13.4668696"><ele>33.0</ele><time>2026-05-03T09:13:04.12Z</time></trkpt><trkpt lat="45.9268779" lon="13.4668142"><ele>33.333333333333336</ele><time>2026-05-03T09:13:05.123Z</time></trkpt><trkpt lat="45.9269483" lon="13.4667622"><ele>33.666666666666664</ele><time>2026-05-03T09:13:06.119Z</time></trkpt><trkpt lat="45.9270239" lon="13.46671"><ele>34.0</ele><time>2026-05-03T09:13:07.121Z</time></trkpt><trkpt lat="45.9270954" lon="13.4666619"><ele>34.33333333333333</ele><time>2026-05-03T09:13:08.118Z</time></trkpt><trkpt lat="45.927169" lon="13.4666147"><ele>34.666666666666664</ele><time>2026-05-03T09:13:09.118Z</time></trkpt><trkpt lat="45.9272424" lon="13.4665681"><ele>35.0</ele><time>2026-05-03T09:13:10.118Z</time></trkpt><trkpt lat="45.9273094" lon="13.4665247"><ele>35.0</ele><time>2026-05-03T09:13:11.116Z</time></trkpt><trkpt lat="45.9273723" lon="13.4664871"><ele>35.0</ele><time>2026-05-03T09:13:12.129Z</time></trkpt><trkpt lat="45.9274278" lon="13.4664399"><ele>35.0</ele><time>2026-05-03T09:13:13.116Z</time></trkpt><trkpt lat="45.9275607" lon="13.4663681"><ele>35.0</ele><time>2026-05-03T09:13:15.121Z</time></trkpt><trkpt lat="45.9276444" lon="13.4663485"><ele>35.0</ele><time>2026-05-03T09:13:16.118Z</time></trkpt><trkpt lat="45.927727" lon="13.466345"><ele>35.0</ele><time>2026-05-03T09:13:17.12Z</time></trkpt><trkpt lat="45.927807" lon="13.4663394"><ele>35.166666666666664</ele><time>2026-05-03T09:13:18.118Z</time></trkpt><trkpt lat="45.9278722" lon="13.466326"><ele>35.33333333333333</ele><time>2026-05-03T09:13:19.112Z</time></trkpt><trkpt lat="45.9279488" lon="13.4662984"><ele>35.5</ele><time>2026-05-03T09:13:21.106Z</time></trkpt><trkpt lat="45.9280254" lon="13.4663307"><ele>35.666666666666664</ele><time>2026-05-03T09:13:24.104Z</time></trkpt><trkpt lat="45.9280711" lon="13.4663933"><ele>35.833333333333336</ele><time>2026-05-03T09:13:25.103Z</time></trkpt><trkpt lat="45.9281319" lon="13.4664686"><ele>36.0</ele><time>2026-05-03T09:13:26.113Z</time></trkpt><trkpt lat="45.9281987" lon="13.4665406"><ele>36.0</ele><time>2026-05-03T09:13:27.107Z</time></trkpt><trkpt lat="45.9282678" lon="13.4666008"><ele>36.0</ele><time>2026-05-03T09:13:28.111Z</time></trkpt><trkpt lat="45.9283334" lon="13.4666547"><ele>36.0</ele><time>2026-05-03T09:13:29.103Z</time></trkpt><trkpt lat="45.9283949" lon="13.4666909"><ele>36.0</ele><time>2026-05-03T09:13:30.118Z</time></trkpt><trkpt lat="45.9284916" lon="13.4667406"><ele>36.0</ele><time>2026-05-03T09:13:32.117Z</time></trkpt><trkpt lat="45.9285722" lon="13.4667403"><ele>36.0</ele><time>2026-05-03T09:13:34.116Z</time></trkpt><trkpt lat="45.9286545" lon="13.4667877"><ele>41.0</ele><time>2026-05-03T09:13:37.11Z</time></trkpt><trkpt lat="45.928642" lon="13.4669032"><ele>41.0</ele><time>2026-05-03T09:13:40.1Z</time></trkpt></trkseg><trkseg><trkpt lat="45.9286682" lon="13.4668522"><ele>41.0</ele><time>2026-05-03T09:30:21.117Z</time></trkpt><trkpt lat="45.9285983" lon="13.4668462"><ele>41.0</ele><time>2026-05-03T09:42:11.132Z</time></trkpt><trkpt lat="45.9285478" lon="13.4667746"><ele>41.0</ele><time>2026-05-03T09:42:14.113Z</time></trkpt><trkpt lat="45.9284689" lon="13.4667353"><ele>41.0</ele><time>2026-05-03T09:42:17.11Z</time></trkpt><trkpt lat="45.9283908" lon="13.4666926"><ele>41.0</ele><time>2026-05-03T09:42:20.128Z</time></trkpt><trkpt lat="45.9282867" lon="13.4666036"><ele>41.0</ele><time>2026-05-03T09:42:22.133Z</time></trkpt><trkpt lat="45.928186" lon="13.4665118"><ele>40.0</ele><time>2026-05-03T09:42:24.139Z</time></trkpt><trkpt lat="45.9280888" lon="13.4664064"><ele>39.0</ele><time>2026-05-03T09:42:26.116Z</time></trkpt><trkpt lat="45.9279952" lon="13.46631"><ele>38.0</ele><time>2026-05-03T09:42:28.111Z</time></trkpt><trkpt lat="45.9278945" lon="13.4663024"><ele>37.0</ele><time>2026-05-03T09:42:30.111Z</time></trkpt><trkpt lat="45.9277993" lon="13.4663547"><ele>36.0</ele><time>2026-05-03T09:42:32.116Z</time></trkpt><trkpt lat="45.9277222" lon="13.4664298"><ele>36.0</ele><time>2026-05-03T09:42:34.111Z</time></trkpt><trkpt lat="45.9277116" lon="13.4665976"><ele>36.0</ele><time>2026-05-03T09:42:36.105Z</time></trkpt><trkpt lat="45.927753" lon="13.4666794"><ele>36.0</ele><time>2026-05-03T09:42:37.119Z</time></trkpt><trkpt lat="45.9278176" lon="13.4667675"><ele>36.0</ele><time>2026-05-03T09:42:38.108Z</time></trkpt><trkpt lat="45.9278923" lon="13.4668698"><ele>36.0</ele><time>2026-05-03T09:42:39.108Z</time></trkpt><trkpt lat="45.9279706" lon="13.4669804"><ele>36.0</ele><time>2026-05-03T09:42:40.117Z</time></trkpt><trkpt lat="45.9280488" lon="13.467105"><ele>36.0</ele><time>2026-05-03T09:42:41.117Z</time></trkpt><trkpt lat="45.9281334" lon="13.4672438"><ele>36.0</ele><time>2026-05-03T09:42:42.114Z</time></trkpt><trkpt lat="45.9282187" lon="13.4673695"><ele>36.0</ele><time>2026-05-03T09:42:43.113Z</time></trkpt><trkpt lat="45.9283135" lon="13.4674969"><ele>36.25</ele><time>2026-05-03T09:42:44.108Z</time></trkpt><trkpt lat="45.9284115" lon="13.4676276"><ele>36.5</ele><time>2026-05-03T09:42:45.119Z</time></trkpt><trkpt lat="45.9285129" lon="13.4677627"><ele>36.75</ele><time>2026-05-03T09:42:46.106Z</time></trkpt><trkpt lat="45.9286177" lon="13.4679037"><ele>37.0</ele><time>2026-05-03T09:42:47.113Z</time></trkpt><trkpt lat="45.9287248" lon="13.4680495"><ele>37.0</ele><time>2026-05-03T09:42:48.12Z</time></trkpt><trkpt lat="45.9288357" lon="13.468202"><ele>37.0</ele><time>2026-05-03T09:42:49.124Z</time></trkpt><trkpt lat="45.9289527" lon="13.4683537"><ele>37.0</ele><time>2026-05-03T09:42:50.12Z</time></trkpt><trkpt lat="45.9290717" lon="13.4685114"><ele>37.0</ele><time>2026-05-03T09:42:51.121Z</time></trkpt><trkpt lat="45.9291838" lon="13.4686615"><ele>37.0</ele><time>2026-05-03T09:42:52.124Z</time></trkpt><trkpt lat="45.9292862" lon="13.4687981"><ele>37.0</ele><time>2026-05-03T09:42:53.112Z</time></trkpt><trkpt lat="45.929386" lon="13.4689334"><ele>37.0</ele><time>2026-05-03T09:42:54.121Z</time></trkpt><trkpt lat="45.9294912" lon="13.4690734"><ele>38.25</ele><time>2026-05-03T09:42:55.111Z</time></trkpt><trkpt lat="45.929601" lon="13.4692223"><ele>39.5</ele><time>2026-05-03T09:42:56.119Z</time></trkpt><trkpt lat="45.9297065" lon="13.4693651"><ele>40.75</ele><time>2026-05-03T09:42:57.109Z</time></trkpt><trkpt lat="45.9298051" lon="13.4694941"><ele>42.0</ele><time>2026-05-03T09:42:58.122Z</time></trkpt><trkpt lat="45.9298935" lon="13.4696076"><ele>41.6</ele><time>2026-05-03T09:42:59.13Z</time></trkpt><trkpt lat="45.929968" lon="13.4697014"><ele>41.2</ele><time>2026-05-03T09:43:00.115Z</time></trkpt><trkpt lat="45.9300284" lon="13.469784"><ele>40.8</ele><time>2026-05-03T09:43:01.123Z</time></trkpt><trkpt lat="45.9300983" lon="13.4699001"><ele>40.4</ele><time>2026-05-03T09:43:03.128Z</time></trkpt><trkpt lat="45.9301369" lon="13.4700119"><ele>40.0</ele><time>2026-05-03T09:43:06.126Z</time></trkpt><trkpt lat="45.9301799" lon="13.4701797"><ele>39.4</ele><time>2026-05-03T09:43:08.137Z</time></trkpt><trkpt lat="45.9302084" lon="13.4702609"><ele>38.8</ele><time>2026-05-03T09:43:09.113Z</time></trkpt><trkpt lat="45.9302581" lon="13.4703785"><ele>38.2</ele><time>2026-05-03T09:43:11.124Z</time></trkpt><trkpt lat="45.930327" lon="13.4705537"><ele>37.6</ele><time>2026-05-03T09:43:13.118Z</time></trkpt><trkpt lat="45.9303714" lon="13.4706806"><ele>37.0</ele><time>2026-05-03T09:43:14.116Z</time></trkpt><trkpt lat="45.9304267" lon="13.4708285"><ele>36.5</ele><time>2026-05-03T09:43:15.128Z</time></trkpt><trkpt lat="45.9304862" lon="13.4709821"><ele>36.0</ele><time>2026-05-03T09:43:16.119Z</time></trkpt><trkpt lat="45.9305454" lon="13.4711308"><ele>35.5</ele><time>2026-05-03T09:43:17.12Z</time></trkpt><trkpt lat="45.9306062" lon="13.4712784"><ele>35.0</ele><time>2026-05-03T09:43:18.114Z</time></trkpt><trkpt lat="45.9306634" lon="13.4714203"><ele>35.0</ele><time>2026-05-03T09:43:19.138Z</time></trkpt><trkpt lat="45.9307163" lon="13.4715567"><ele>35.0</ele><time>2026-05-03T09:43:20.117Z</time></trkpt><trkpt lat="45.9307727" lon="13.4716938"><ele>35.0</ele><time>2026-05-03T09:43:21.137Z</time></trkpt><trkpt lat="45.9308261" lon="13.4718175"><ele>35.0</ele><time>2026-05-03T09:43:22.131Z</time></trkpt><trkpt lat="45.9308761" lon="13.4718995"><ele>35.0</ele><time>2026-05-03T09:43:24.127Z</time></trkpt><trkpt lat="45.9309364" lon="13.471844"><ele>35.2</ele><time>2026-05-03T09:43:26.12Z</time></trkpt><trkpt lat="45.9309996" lon="13.4717881"><ele>35.4</ele><time>2026-05-03T09:43:27.123Z</time></trkpt><trkpt lat="45.9310943" lon="13.4717111"><ele>35.6</ele><time>2026-05-03T09:43:28.124Z</time></trkpt><trkpt lat="45.9311968" lon="13.4716452"><ele>35.8</ele><time>2026-05-03T09:43:29.125Z</time></trkpt><trkpt lat="45.9313155" lon="13.4715609"><ele>36.0</ele><time>2026-05-03T09:43:30.125Z</time></trkpt><trkpt lat="45.9314424" lon="13.4714735"><ele>36.0</ele><time>2026-05-03T09:43:31.121Z</time></trkpt><trkpt lat="45.9315746" lon="13.4713796"><ele>36.0</ele><time>2026-05-03T09:43:32.12Z</time></trkpt><trkpt lat="45.9317117" lon="13.4712757"><ele>36.0</ele><time>2026-05-03T09:43:33.121Z</time></trkpt><trkpt lat="45.9318544" lon="13.4711685"><ele>36.333333333333336</ele><time>2026-05-03T09:43:34.116Z</time></trkpt><trkpt lat="45.9319961" lon="13.4710641"><ele>36.66666666666667</ele><time>2026-05-03T09:43:35.128Z</time></trkpt><trkpt lat="45.9321389" lon="13.4709594"><ele>37.0</ele><time>2026-05-03T09:43:36.128Z</time></trkpt><trkpt lat="45.9322757" lon="13.4708594"><ele>37.0</ele><time>2026-05-03T09:43:37.131Z</time></trkpt><trkpt lat="45.9324056" lon="13.4707673"><ele>37.0</ele><time>2026-05-03T09:43:38.127Z</time></trkpt><trkpt lat="45.9325283" lon="13.4706821"><ele>37.0</ele><time>2026-05-03T09:43:39.112Z</time></trkpt><trkpt lat="45.9326464" lon="13.4706032"><ele>37.0</ele><time>2026-05-03T09:43:40.128Z</time></trkpt><trkpt lat="45.932743" lon="13.470532"><ele>36.800000000000004</ele><time>2026-05-03T09:43:41.125Z</time></trkpt><trkpt lat="45.9328256" lon="13.4704824"><ele>36.6</ele><time>2026-05-03T09:43:42.114Z</time></trkpt><trkpt lat="45.9329186" lon="13.47046"><ele>36.400000000000006</ele><time>2026-05-03T09:43:43.118Z</time></trkpt><trkpt lat="45.9330173" lon="13.4704605"><ele>36.2</ele><time>2026-05-03T09:43:44.123Z</time></trkpt><trkpt lat="45.9331358" lon="13.4704788"><ele>36.0</ele><time>2026-05-03T09:43:45.124Z</time></trkpt><trkpt lat="45.9332651" lon="13.4705069"><ele>36.25</ele><time>2026-05-03T09:43:46.126Z</time></trkpt><trkpt lat="45.9334032" lon="13.470535"><ele>36.5</ele><time>2026-05-03T09:43:47.119Z</time></trkpt><trkpt lat="45.9335519" lon="13.4705556"><ele>36.75</ele><time>2026-05-03T09:43:48.132Z</time></trkpt><trkpt lat="45.9337101" lon="13.4705775"><ele>37.0</ele><time>2026-05-03T09:43:49.123Z</time></trkpt><trkpt lat="45.9338616" lon="13.4705951"><ele>37.0</ele><time>2026-05-03T09:43:50.12Z</time></trkpt><trkpt lat="45.9340149" lon="13.4706172"><ele>37.0</ele><time>2026-05-03T09:43:51.124Z</time></trkpt><trkpt lat="45.9341796" lon="13.4706509"><ele>37.0</ele><time>2026-05-03T09:43:52.126Z</time></trkpt><trkpt lat="45.9343526" lon="13.4706687"><ele>36.66666666666667</ele><time>2026-05-03T09:43:53.131Z</time></trkpt><trkpt lat="45.934527" lon="13.4706853"><ele>36.333333333333336</ele><time>2026-05-03T09:43:54.115Z</time></trkpt><trkpt lat="45.9347015" lon="13.4707018"><ele>36.0</ele><time>2026-05-03T09:43:55.135Z</time></trkpt><trkpt lat="45.9348749" lon="13.4707182"><ele>36.0</ele><time>2026-05-03T09:43:56.125Z</time></trkpt><trkpt lat="45.9350482" lon="13.4707322"><ele>36.0</ele><time>2026-05-03T09:43:57.147Z</time></trkpt><trkpt lat="45.9352228" lon="13.4707454"><ele>36.0</ele><time>2026-05-03T09:43:58.124Z</time></trkpt><trkpt lat="45.9353965" lon="13.470768"><ele>35.666666666666664</ele><time>2026-05-03T09:43:59.123Z</time></trkpt><trkpt lat="45.9355697" lon="13.4707906"><ele>35.33333333333333</ele><time>2026-05-03T09:44:00.118Z</time></trkpt><trkpt lat="45.9357409" lon="13.470814"><ele>35.0</ele><time>2026-05-03T09:44:01.125Z</time></trkpt><trkpt lat="45.9359084" lon="13.4708381"><ele>35.0</ele><time>2026-05-03T09:44:02.126Z</time></trkpt><trkpt lat="45.9360679" lon="13.4708549"><ele>35.0</ele><time>2026-05-03T09:44:03.126Z</time></trkpt><trkpt lat="45.9362197" lon="13.4708759"><ele>35.0</ele><time>2026-05-03T09:44:04.121Z</time></trkpt><trkpt lat="45.9363684" lon="13.4709022"><ele>35.0</ele><time>2026-05-03T09:44:05.122Z</time></trkpt><trkpt lat="45.9365107" lon="13.4709226"><ele>35.0</ele><time>2026-05-03T09:44:06.123Z</time></trkpt><trkpt lat="45.9366353" lon="13.4709406"><ele>35.0</ele><time>2026-05-03T09:44:07.129Z</time></trkpt><trkpt lat="45.9367353" lon="13.4709471"><ele>35.0</ele><time>2026-05-03T09:44:08.131Z</time></trkpt><trkpt lat="45.9368069" lon="13.4709399"><ele>35.0</ele><time>2026-05-03T09:44:09.139Z</time></trkpt><trkpt lat="45.9369333" lon="13.4708432"><ele>35.2</ele><time>2026-05-03T09:44:11.114Z</time></trkpt><trkpt lat="45.9370226" lon="13.4707637"><ele>35.4</ele><time>2026-05-03T09:44:12.134Z</time></trkpt><trkpt lat="45.9371145" lon="13.4706807"><ele>35.6</ele><time>2026-05-03T09:44:13.141Z</time></trkpt><trkpt lat="45.9372127" lon="13.4705974"><ele>35.8</ele><time>2026-05-03T09:44:14.119Z</time></trkpt><trkpt lat="45.9373168" lon="13.4705175"><ele>36.0</ele><time>2026-05-03T09:44:15.118Z</time></trkpt><trkpt lat="45.9374248" lon="13.4704453"><ele>36.25</ele><time>2026-05-03T09:44:16.139Z</time></trkpt><trkpt lat="45.9375307" lon="13.4703754"><ele>36.5</ele><time>2026-05-03T09:44:17.123Z</time></trkpt><trkpt lat="45.937634" lon="13.4703131"><ele>36.75</ele><time>2026-05-03T09:44:18.129Z</time></trkpt><trkpt lat="45.937743" lon="13.4702379"><ele>37.0</ele><time>2026-05-03T09:44:19.128Z</time></trkpt><trkpt lat="45.9378582" lon="13.4701666"><ele>37.25</ele><time>2026-05-03T09:44:20.118Z</time></trkpt><trkpt lat="45.9379826" lon="13.4700955"><ele>37.5</ele><time>2026-05-03T09:44:21.123Z</time></trkpt><trkpt lat="45.9381166" lon="13.4700227"><ele>37.75</ele><time>2026-05-03T09:44:22.119Z</time></trkpt><trkpt lat="45.9382534" lon="13.4699457"><ele>38.0</ele><time>2026-05-03T09:44:23.131Z</time></trkpt><trkpt lat="45.9383832" lon="13.4698533"><ele>37.666666666666664</ele><time>2026-05-03T09:44:24.136Z</time></trkpt><trkpt lat="45.938518" lon="13.4697458"><ele>37.333333333333336</ele><time>2026-05-03T09:44:25.119Z</time></trkpt><trkpt lat="45.9386618" lon="13.4696311"><ele>37.0</ele><time>2026-05-03T09:44:26.118Z</time></trkpt><trkpt lat="45.9388075" lon="13.4695192"><ele>37.0</ele><time>2026-05-03T09:44:27.112Z</time></trkpt><trkpt lat="45.938944" lon="13.469413"><ele>37.0</ele><time>2026-05-03T09:44:28.116Z</time></trkpt><trkpt lat="45.9390765" lon="13.4693145"><ele>37.0</ele><time>2026-05-03T09:44:29.119Z</time></trkpt><trkpt lat="45.9392076" lon="13.4692312"><ele>37.0</ele><time>2026-05-03T09:44:30.121Z</time></trkpt><trkpt lat="45.9393365" lon="13.4691526"><ele>36.25</ele><time>2026-05-03T09:44:31.131Z</time></trkpt><trkpt lat="45.9394599" lon="13.4690908"><ele>35.5</ele><time>2026-05-03T09:44:32.126Z</time></trkpt><trkpt lat="45.9395796" lon="13.4690495"><ele>34.75</ele><time>2026-05-03T09:44:33.116Z</time></trkpt><trkpt lat="45.9397" lon="13.4690223"><ele>34.0</ele><time>2026-05-03T09:44:34.132Z</time></trkpt><trkpt lat="45.9398186" lon="13.4690118"><ele>34.0</ele><time>2026-05-03T09:44:35.14Z</time></trkpt><trkpt lat="45.9399393" lon="13.4690286"><ele>34.0</ele><time>2026-05-03T09:44:36.123Z</time></trkpt><trkpt lat="45.940067" lon="13.4690582"><ele>34.0</ele><time>2026-05-03T09:44:37.135Z</time></trkpt><trkpt lat="45.9401901" lon="13.4690798"><ele>34.0</ele><time>2026-05-03T09:44:38.121Z</time></trkpt><trkpt lat="45.9402987" lon="13.4690757"><ele>35.0</ele><time>2026-05-03T09:44:39.123Z</time></trkpt><trkpt lat="45.9404044" lon="13.4690458"><ele>36.0</ele><time>2026-05-03T09:44:40.121Z</time></trkpt><trkpt lat="45.9405209" lon="13.4689954"><ele>37.0</ele><time>2026-05-03T09:44:41.13Z</time></trkpt><trkpt lat="45.9406522" lon="13.4689239"><ele>38.0</ele><time>2026-05-03T09:44:42.119Z</time></trkpt><trkpt lat="45.9407884" lon="13.4688514"><ele>38.25</ele><time>2026-05-03T09:44:43.115Z</time></trkpt><trkpt lat="45.9409091" lon="13.468794"><ele>38.5</ele><time>2026-05-03T09:44:44.12Z</time></trkpt><trkpt lat="45.9410242" lon="13.4687599"><ele>38.75</ele><time>2026-05-03T09:44:45.124Z</time></trkpt><trkpt lat="45.9411425" lon="13.4687569"><ele>39.0</ele><time>2026-05-03T09:44:46.124Z</time></trkpt><trkpt lat="45.9412721" lon="13.4687717"><ele>39.0</ele><time>2026-05-03T09:44:47.119Z</time></trkpt><trkpt lat="45.9414096" lon="13.4688123"><ele>39.0</ele><time>2026-05-03T09:44:48.128Z</time></trkpt><trkpt lat="45.941555" lon="13.4688648"><ele>39.0</ele><time>2026-05-03T09:44:49.133Z</time></trkpt><trkpt lat="45.9417067" lon="13.4689214"><ele>39.0</ele><time>2026-05-03T09:44:50.119Z</time></trkpt><trkpt lat="45.9418672" lon="13.4689831"><ele>39.0</ele><time>2026-05-03T09:44:51.12Z</time></trkpt><trkpt lat="45.9420319" lon="13.4690493"><ele>39.0</ele><time>2026-05-03T09:44:52.141Z</time></trkpt><trkpt lat="45.9421935" lon="13.4691097"><ele>39.0</ele><time>2026-05-03T09:44:53.124Z</time></trkpt><trkpt lat="45.9423381" lon="13.4691589"><ele>39.0</ele><time>2026-05-03T09:44:54.116Z</time></trkpt><trkpt lat="45.942453" lon="13.4691963"><ele>39.0</ele><time>2026-05-03T09:44:55.125Z</time></trkpt><trkpt lat="45.9425515" lon="13.4692267"><ele>39.0</ele><time>2026-05-03T09:44:56.118Z</time></trkpt><trkpt lat="45.9426362" lon="13.4692524"><ele>39.0</ele><time>2026-05-03T09:44:57.12Z</time></trkpt><trkpt lat="45.9427074" lon="13.4692659"><ele>39.0</ele><time>2026-05-03T09:44:58.13Z</time></trkpt><trkpt lat="45.9428157" lon="13.4693011"><ele>39.0</ele><time>2026-05-03T09:45:00.138Z</time></trkpt><trkpt lat="45.9428895" lon="13.469325"><ele>39.0</ele><time>2026-05-03T09:45:01.134Z</time></trkpt><trkpt lat="45.942978" lon="13.4693177"><ele>39.0</ele><time>2026-05-03T09:45:02.127Z</time></trkpt><trkpt lat="45.9430685" lon="13.4692657"><ele>39.0</ele><time>2026-05-03T09:45:03.122Z</time></trkpt><trkpt lat="45.9431708" lon="13.469187"><ele>39.0</ele><time>2026-05-03T09:45:04.123Z</time></trkpt><trkpt lat="45.9432757" lon="13.4691078"><ele>39.5</ele><time>2026-05-03T09:45:05.126Z</time></trkpt><trkpt lat="45.9433819" lon="13.4690307"><ele>40.0</ele><time>2026-05-03T09:45:06.129Z</time></trkpt><trkpt lat="45.9434899" lon="13.4689541"><ele>40.5</ele><time>2026-05-03T09:45:07.129Z</time></trkpt><trkpt lat="45.9436064" lon="13.4688724"><ele>41.0</ele><time>2026-05-03T09:45:08.127Z</time></trkpt><trkpt lat="45.9437257" lon="13.4687907"><ele>41.0</ele><time>2026-05-03T09:45:09.133Z</time></trkpt><trkpt lat="45.9438498" lon="13.4687052"><ele>41.0</ele><time>2026-05-03T09:45:10.152Z</time></trkpt><trkpt lat="45.9439753" lon="13.4686173"><ele>41.0</ele><time>2026-05-03T09:45:11.135Z</time></trkpt><trkpt lat="45.944099" lon="13.4685285"><ele>41.0</ele><time>2026-05-03T09:45:12.128Z</time></trkpt><trkpt lat="45.9442182" lon="13.4684434"><ele>41.5</ele><time>2026-05-03T09:45:13.132Z</time></trkpt><trkpt lat="45.9443351" lon="13.4683562"><ele>42.0</ele><time>2026-05-03T09:45:14.123Z</time></trkpt><trkpt lat="45.9444487" lon="13.4682718"><ele>42.5</ele><time>2026-05-03T09:45:15.123Z</time></trkpt><trkpt lat="45.9445569" lon="13.4681846"><ele>43.0</ele><time>2026-05-03T09:45:16.12Z</time></trkpt><trkpt lat="45.9446488" lon="13.468084"><ele>43.0</ele><time>2026-05-03T09:45:17.124Z</time></trkpt><trkpt lat="45.9447338" lon="13.4679686"><ele>43.0</ele><time>2026-05-03T09:45:18.133Z</time></trkpt><trkpt lat="45.9448363" lon="13.4678823"><ele>43.0</ele><time>2026-05-03T09:45:19.134Z</time></trkpt><trkpt lat="45.9449551" lon="13.4678248"><ele>43.0</ele><time>2026-05-03T09:45:20.127Z</time></trkpt><trkpt lat="45.9450868" lon="13.4677684"><ele>43.333333333333336</ele><time>2026-05-03T09:45:21.131Z</time></trkpt><trkpt lat="45.9452312" lon="13.467686"><ele>43.666666666666664</ele><time>2026-05-03T09:45:22.137Z</time></trkpt><trkpt lat="45.9453801" lon="13.4675883"><ele>44.0</ele><time>2026-05-03T09:45:23.136Z</time></trkpt><trkpt lat="45.945519" lon="13.4674873"><ele>44.0</ele><time>2026-05-03T09:45:24.128Z</time></trkpt><trkpt lat="45.9456452" lon="13.4674144"><ele>44.0</ele><time>2026-05-03T09:45:25.111Z</time></trkpt><trkpt lat="45.9457572" lon="13.467342"><ele>44.0</ele><time>2026-05-03T09:45:26.126Z</time></trkpt><trkpt lat="45.9458503" lon="13.4672872"><ele>44.0</ele><time>2026-05-03T09:45:27.124Z</time></trkpt><trkpt lat="45.9459216" lon="13.4672714"><ele>44.0</ele><time>2026-05-03T09:45:28.126Z</time></trkpt><trkpt lat="45.9459912" lon="13.4672756"><ele>44.0</ele><time>2026-05-03T09:45:29.128Z</time></trkpt><trkpt lat="45.946062" lon="13.4673459"><ele>44.0</ele><time>2026-05-03T09:45:30.121Z</time></trkpt><trkpt lat="45.9461426" lon="13.4674779"><ele>44.0</ele><time>2026-05-03T09:45:31.128Z</time></trkpt><trkpt lat="45.9462195" lon="13.4676386"><ele>44.0</ele><time>2026-05-03T09:45:32.131Z</time></trkpt><trkpt lat="45.9463053" lon="13.4678227"><ele>43.666666666666664</ele><time>2026-05-03T09:45:33.14Z</time></trkpt><trkpt lat="45.9464018" lon="13.4680076"><ele>43.333333333333336</ele><time>2026-05-03T09:45:34.123Z</time></trkpt><trkpt lat="45.9465055" lon="13.4682048"><ele>43.0</ele><time>2026-05-03T09:45:35.122Z</time></trkpt><trkpt lat="45.9466146" lon="13.4684175"><ele>43.66666666666667</ele><time>2026-05-03T09:45:36.133Z</time></trkpt><trkpt lat="45.9467296" lon="13.4686289"><ele>44.333333333333336</ele><time>2026-05-03T09:45:37.128Z</time></trkpt><trkpt lat="45.9468515" lon="13.4688485"><ele>45.0</ele><time>2026-05-03T09:45:38.126Z</time></trkpt><trkpt lat="45.9469704" lon="13.4690671"><ele>45.0</ele><time>2026-05-03T09:45:39.121Z</time></trkpt><trkpt lat="45.947087" lon="13.4692841"><ele>45.0</ele><time>2026-05-03T09:45:40.126Z</time></trkpt><trkpt lat="45.9471997" lon="13.4694911"><ele>45.0</ele><time>2026-05-03T09:45:41.128Z</time></trkpt><trkpt lat="45.9473068" lon="13.4696868"><ele>45.0</ele><time>2026-05-03T09:45:42.118Z</time></trkpt><trkpt lat="45.9474084" lon="13.4698768"><ele>45.0</ele><time>2026-05-03T09:45:43.121Z</time></trkpt><trkpt lat="45.9475015" lon="13.4700503"><ele>45.0</ele><time>2026-05-03T09:45:44.113Z</time></trkpt><trkpt lat="45.9475845" lon="13.4702041"><ele>44.8</ele><time>2026-05-03T09:45:45.115Z</time></trkpt><trkpt lat="45.9476643" lon="13.4703396"><ele>44.6</ele><time>2026-05-03T09:45:46.118Z</time></trkpt><trkpt lat="45.9477487" lon="13.4704403"><ele>44.400000000000006</ele><time>2026-05-03T09:45:47.126Z</time></trkpt><trkpt lat="45.947802" lon="13.4705033"><ele>44.2</ele><time>2026-05-03T09:45:48.115Z</time></trkpt><trkpt lat="45.9478647" lon="13.4705538"><ele>44.0</ele><time>2026-05-03T09:45:50.132Z</time></trkpt><trkpt lat="45.9479773" lon="13.4705349"><ele>44.0</ele><time>2026-05-03T09:45:52.133Z</time></trkpt><trkpt lat="45.9480539" lon="13.470494"><ele>44.0</ele><time>2026-05-03T09:45:53.127Z</time></trkpt><trkpt lat="45.9481404" lon="13.4704375"><ele>44.0</ele><time>2026-05-03T09:45:54.116Z</time></trkpt><trkpt lat="45.9482339" lon="13.4703647"><ele>44.0</ele><time>2026-05-03T09:45:55.13Z</time></trkpt><trkpt lat="45.9483407" lon="13.4702788"><ele>44.0</ele><time>2026-05-03T09:45:56.133Z</time></trkpt><trkpt lat="45.948451" lon="13.4701861"><ele>43.75</ele><time>2026-05-03T09:45:57.123Z</time></trkpt><trkpt lat="45.9485711" lon="13.4700916"><ele>43.5</ele><time>2026-05-03T09:45:58.109Z</time></trkpt><trkpt lat="45.948698" lon="13.4699895"><ele>43.25</ele><time>2026-05-03T09:45:59.121Z</time></trkpt><trkpt lat="45.9488306" lon="13.4698884"><ele>43.0</ele><time>2026-05-03T09:46:00.123Z</time></trkpt><trkpt lat="45.9489684" lon="13.4697803"><ele>43.0</ele><time>2026-05-03T09:46:01.13Z</time></trkpt><trkpt lat="45.9491108" lon="13.4696633"><ele>43.0</ele><time>2026-05-03T09:46:02.117Z</time></trkpt><trkpt lat="45.9492516" lon="13.4695514"><ele>43.0</ele><time>2026-05-03T09:46:03.128Z</time></trkpt><trkpt lat="45.9493952" lon="13.4694348"><ele>43.66666666666667</ele><time>2026-05-03T09:46:04.123Z</time></trkpt><trkpt lat="45.9495409" lon="13.4693203"><ele>44.333333333333336</ele><time>2026-05-03T09:46:05.131Z</time></trkpt><trkpt lat="45.9496884" lon="13.4692092"><ele>45.0</ele><time>2026-05-03T09:46:06.119Z</time></trkpt><trkpt lat="45.9498385" lon="13.4691011"><ele>45.0</ele><time>2026-05-03T09:46:07.12Z</time></trkpt><trkpt lat="45.9499856" lon="13.4690102"><ele>45.0</ele><time>2026-05-03T09:46:08.118Z</time></trkpt><trkpt lat="45.9501284" lon="13.4689404"><ele>45.0</ele><time>2026-05-03T09:46:09.123Z</time></trkpt><trkpt lat="45.9502652" lon="13.4688884"><ele>45.25</ele><time>2026-05-03T09:46:10.115Z</time></trkpt><trkpt lat="45.950396" lon="13.468854"><ele>45.5</ele><time>2026-05-03T09:46:11.122Z</time></trkpt><trkpt lat="45.9505117" lon="13.4688268"><ele>45.75</ele><time>2026-05-03T09:46:12.129Z</time></trkpt><trkpt lat="45.9506168" lon="13.4688134"><ele>46.0</ele><time>2026-05-03T09:46:13.125Z</time></trkpt><trkpt lat="45.9507147" lon="13.4688221"><ele>46.0</ele><time>2026-05-03T09:46:14.138Z</time></trkpt><trkpt lat="45.950802" lon="13.4688507"><ele>46.0</ele><time>2026-05-03T09:46:15.124Z</time></trkpt><trkpt lat="45.9508809" lon="13.4688831"><ele>46.0</ele><time>2026-05-03T09:46:16.128Z</time></trkpt><trkpt lat="45.9509612" lon="13.4689351"><ele>46.0</ele><time>2026-05-03T09:46:17.133Z</time></trkpt><trkpt lat="45.9510407" lon="13.4690224"><ele>46.0</ele><time>2026-05-03T09:46:18.126Z</time></trkpt><trkpt lat="45.9511224" lon="13.4691406"><ele>46.5</ele><time>2026-05-03T09:46:19.12Z</time></trkpt><trkpt lat="45.9512068" lon="13.4692748"><ele>47.0</ele><time>2026-05-03T09:46:20.135Z</time></trkpt><trkpt lat="45.9513005" lon="13.4694064"><ele>47.5</ele><time>2026-05-03T09:46:21.133Z</time></trkpt><trkpt lat="45.9514023" lon="13.4695399"><ele>48.0</ele><time>2026-05-03T09:46:22.126Z</time></trkpt><trkpt lat="45.9515059" lon="13.4696869"><ele>48.0</ele><time>2026-05-03T09:46:23.12Z</time></trkpt><trkpt lat="45.9516082" lon="13.4698332"><ele>48.0</ele><time>2026-05-03T09:46:24.122Z</time></trkpt><trkpt lat="45.9517032" lon="13.4699719"><ele>48.0</ele><time>2026-05-03T09:46:25.119Z</time></trkpt><trkpt lat="45.9517854" lon="13.4700943"><ele>48.0</ele><time>2026-05-03T09:46:26.125Z</time></trkpt><trkpt lat="45.9518677" lon="13.470205"><ele>48.0</ele><time>2026-05-03T09:46:27.123Z</time></trkpt><trkpt lat="45.9519444" lon="13.4703035"><ele>48.0</ele><time>2026-05-03T09:46:28.119Z</time></trkpt><trkpt lat="45.9520142" lon="13.4703862"><ele>48.0</ele><time>2026-05-03T09:46:29.13Z</time></trkpt><trkpt lat="45.9520814" lon="13.4704664"><ele>48.0</ele><time>2026-05-03T09:46:30.135Z</time></trkpt><trkpt lat="45.9521462" lon="13.4705446"><ele>48.0</ele><time>2026-05-03T09:46:31.119Z</time></trkpt><trkpt lat="45.9522094" lon="13.4706123"><ele>48.0</ele><time>2026-05-03T09:46:32.113Z</time></trkpt><trkpt lat="45.9522733" lon="13.4706788"><ele>48.0</ele><time>2026-05-03T09:46:33.121Z</time></trkpt><trkpt lat="45.952343" lon="13.4707464"><ele>48.0</ele><time>2026-05-03T09:46:34.114Z</time></trkpt><trkpt lat="45.9524165" lon="13.4708174"><ele>48.0</ele><time>2026-05-03T09:46:35.115Z</time></trkpt><trkpt lat="45.9524978" lon="13.4709015"><ele>48.0</ele><time>2026-05-03T09:46:36.104Z</time></trkpt><trkpt lat="45.9525902" lon="13.4709909"><ele>48.0</ele><time>2026-05-03T09:46:37.118Z</time></trkpt><trkpt lat="45.9526815" lon="13.471086"><ele>48.0</ele><time>2026-05-03T09:46:38.121Z</time></trkpt><trkpt lat="45.9527782" lon="13.4711841"><ele>48.0</ele><time>2026-05-03T09:46:39.127Z</time></trkpt><trkpt lat="45.9528856" lon="13.4712813"><ele>48.0</ele><time>2026-05-03T09:46:40.124Z</time></trkpt><trkpt lat="45.9530008" lon="13.4713917"><ele>48.0</ele><time>2026-05-03T09:46:41.119Z</time></trkpt><trkpt lat="45.953125" lon="13.4715053"><ele>48.0</ele><time>2026-05-03T09:46:42.114Z</time></trkpt><trkpt lat="45.9532513" lon="13.4716191"><ele>48.0</ele><time>2026-05-03T09:46:43.135Z</time></trkpt><trkpt lat="45.9533796" lon="13.4717387"><ele>48.0</ele><time>2026-05-03T09:46:44.118Z</time></trkpt><trkpt lat="45.9535061" lon="13.4718523"><ele>47.75</ele><time>2026-05-03T09:46:45.121Z</time></trkpt><trkpt lat="45.9536302" lon="13.4719658"><ele>47.5</ele><time>2026-05-03T09:46:46.131Z</time></trkpt><trkpt lat="45.9537501" lon="13.4720766"><ele>47.25</ele><time>2026-05-03T09:46:47.133Z</time></trkpt><trkpt lat="45.9538687" lon="13.4721916"><ele>47.0</ele><time>2026-05-03T09:46:48.152Z</time></trkpt><trkpt lat="45.953983" lon="13.4722978"><ele>47.5</ele><time>2026-05-03T09:46:49.121Z</time></trkpt><trkpt lat="45.9541042" lon="13.4723775"><ele>48.0</ele><time>2026-05-03T09:46:50.128Z</time></trkpt><trkpt lat="45.954226" lon="13.4724042"><ele>48.5</ele><time>2026-05-03T09:46:51.127Z</time></trkpt><trkpt lat="45.9543593" lon="13.4723973"><ele>49.0</ele><time>2026-05-03T09:46:52.132Z</time></trkpt><trkpt lat="45.9544978" lon="13.4723684"><ele>49.0</ele><time>2026-05-03T09:46:53.121Z</time></trkpt><trkpt lat="45.954645" lon="13.4723348"><ele>49.0</ele><time>2026-05-03T09:46:54.126Z</time></trkpt><trkpt lat="45.9547984" lon="13.4722914"><ele>49.0</ele><time>2026-05-03T09:46:55.126Z</time></trkpt><trkpt lat="45.9549547" lon="13.472248"><ele>49.33333333333333</ele><time>2026-05-03T09:46:56.116Z</time></trkpt><trkpt lat="45.9551151" lon="13.4722051"><ele>49.66666666666667</ele><time>2026-05-03T09:46:57.117Z</time></trkpt><trkpt lat="45.9552761" lon="13.4721709"><ele>50.0</ele><time>2026-05-03T09:46:58.12Z</time></trkpt><trkpt lat="45.9554205" lon="13.4721292"><ele>50.0</ele><time>2026-05-03T09:46:59.117Z</time></trkpt><trkpt lat="45.9555488" lon="13.4720924"><ele>50.0</ele><time>2026-05-03T09:47:00.123Z</time></trkpt><trkpt lat="45.9556552" lon="13.4720564"><ele>50.0</ele><time>2026-05-03T09:47:01.118Z</time></trkpt><trkpt lat="45.9557507" lon="13.4720325"><ele>50.0</ele><time>2026-05-03T09:47:02.134Z</time></trkpt><trkpt lat="45.9558359" lon="13.4720148"><ele>50.0</ele><time>2026-05-03T09:47:03.135Z</time></trkpt><trkpt lat="45.9559165" lon="13.4720431"><ele>50.2</ele><time>2026-05-03T09:47:04.128Z</time></trkpt><trkpt lat="45.9559866" lon="13.4721091"><ele>50.4</ele><time>2026-05-03T09:47:05.125Z</time></trkpt><trkpt lat="45.9560447" lon="13.4722238"><ele>50.599999999999994</ele><time>2026-05-03T09:47:06.115Z</time></trkpt><trkpt lat="45.9560625" lon="13.4723742"><ele>50.8</ele><time>2026-05-03T09:47:07.115Z</time></trkpt><trkpt lat="45.9560771" lon="13.4725517"><ele>51.0</ele><time>2026-05-03T09:47:08.119Z</time></trkpt><trkpt lat="45.9560935" lon="13.4727504"><ele>50.66666666666667</ele><time>2026-05-03T09:47:09.122Z</time></trkpt><trkpt lat="45.9561119" lon="13.4729585"><ele>50.333333333333336</ele><time>2026-05-03T09:47:10.121Z</time></trkpt><trkpt lat="45.9561267" lon="13.4731785"><ele>50.0</ele><time>2026-05-03T09:47:11.141Z</time></trkpt><trkpt lat="45.9561473" lon="13.4734088"><ele>50.0</ele><time>2026-05-03T09:47:12.124Z</time></trkpt><trkpt lat="45.9561768" lon="13.4736498"><ele>50.0</ele><time>2026-05-03T09:47:13.134Z</time></trkpt><trkpt lat="45.9562081" lon="13.4738966"><ele>50.0</ele><time>2026-05-03T09:47:14.132Z</time></trkpt><trkpt lat="45.9562341" lon="13.4741458"><ele>50.333333333333336</ele><time>2026-05-03T09:47:15.121Z</time></trkpt><trkpt lat="45.9562639" lon="13.4743989"><ele>50.66666666666667</ele><time>2026-05-03T09:47:16.115Z</time></trkpt><trkpt lat="45.9562926" lon="13.4746513"><ele>51.0</ele><time>2026-05-03T09:47:17.142Z</time></trkpt><trkpt lat="45.9563238" lon="13.4749158"><ele>51.0</ele><time>2026-05-03T09:47:18.116Z</time></trkpt><trkpt lat="45.9563571" lon="13.4751893"><ele>51.0</ele><time>2026-05-03T09:47:19.12Z</time></trkpt><trkpt lat="45.956387" lon="13.4754556"><ele>51.0</ele><time>2026-05-03T09:47:20.113Z</time></trkpt><trkpt lat="45.9564195" lon="13.475726"><ele>51.0</ele><time>2026-05-03T09:47:21.12Z</time></trkpt><trkpt lat="45.9564481" lon="13.4759897"><ele>51.0</ele><time>2026-05-03T09:47:22.133Z</time></trkpt><trkpt lat="45.9564772" lon="13.4762572"><ele>51.0</ele><time>2026-05-03T09:47:23.117Z</time></trkpt><trkpt lat="45.9565089" lon="13.4765271"><ele>51.0</ele><time>2026-05-03T09:47:24.117Z</time></trkpt><trkpt lat="45.9565396" lon="13.4768006"><ele>51.0</ele><time>2026-05-03T09:47:25.125Z</time></trkpt><trkpt lat="45.9565687" lon="13.4770697"><ele>51.0</ele><time>2026-05-03T09:47:26.122Z</time></trkpt><trkpt lat="45.9565963" lon="13.4773428"><ele>51.0</ele><time>2026-05-03T09:47:27.125Z</time></trkpt><trkpt lat="45.9566247" lon="13.4776164"><ele>51.0</ele><time>2026-05-03T09:47:28.126Z</time></trkpt><trkpt lat="45.9566538" lon="13.4778861"><ele>51.0</ele><time>2026-05-03T09:47:29.133Z</time></trkpt><trkpt lat="45.9566845" lon="13.4781483"><ele>51.66666666666667</ele><time>2026-05-03T09:47:30.122Z</time></trkpt><trkpt lat="45.9567151" lon="13.4784146"><ele>52.333333333333336</ele><time>2026-05-03T09:47:31.115Z</time></trkpt><trkpt lat="45.9567445" lon="13.4786783"><ele>53.0</ele><time>2026-05-03T09:47:32.113Z</time></trkpt><trkpt lat="45.9567734" lon="13.4789449"><ele>53.66666666666667</ele><time>2026-05-03T09:47:33.131Z</time></trkpt><trkpt lat="45.9568031" lon="13.4792067"><ele>54.33333333333333</ele><time>2026-05-03T09:47:34.129Z</time></trkpt><trkpt lat="45.9568344" lon="13.47947"><ele>55.0</ele><time>2026-05-03T09:47:35.121Z</time></trkpt><trkpt lat="45.9568671" lon="13.4797357"><ele>55.0</ele><time>2026-05-03T09:47:36.12Z</time></trkpt><trkpt lat="45.9568976" lon="13.4799948"><ele>55.0</ele><time>2026-05-03T09:47:37.129Z</time></trkpt><trkpt lat="45.9569257" lon="13.4802444"><ele>55.0</ele><time>2026-05-03T09:47:38.115Z</time></trkpt><trkpt lat="45.9569507" lon="13.4804919"><ele>56.0</ele><time>2026-05-03T09:47:39.127Z</time></trkpt><trkpt lat="45.9569779" lon="13.4807281"><ele>57.0</ele><time>2026-05-03T09:47:40.133Z</time></trkpt><trkpt lat="45.9570039" lon="13.4809507"><ele>58.0</ele><time>2026-05-03T09:47:41.134Z</time></trkpt><trkpt lat="45.9570254" lon="13.4811507"><ele>58.5</ele><time>2026-05-03T09:47:42.125Z</time></trkpt><trkpt lat="45.9570405" lon="13.4813322"><ele>59.0</ele><time>2026-05-03T09:47:43.129Z</time></trkpt><trkpt lat="45.9570509" lon="13.4815021"><ele>59.5</ele><time>2026-05-03T09:47:44.121Z</time></trkpt><trkpt lat="45.9570403" lon="13.4816655"><ele>60.0</ele><time>2026-05-03T09:47:45.121Z</time></trkpt><trkpt lat="45.9570165" lon="13.4818281"><ele>60.0</ele><time>2026-05-03T09:47:46.12Z</time></trkpt><trkpt lat="45.9569839" lon="13.4819827"><ele>60.0</ele><time>2026-05-03T09:47:47.121Z</time></trkpt><trkpt lat="45.9569572" lon="13.4821264"><ele>60.0</ele><time>2026-05-03T09:47:48.116Z</time></trkpt><trkpt lat="45.9569309" lon="13.4822834"><ele>60.0</ele><time>2026-05-03T09:47:49.12Z</time></trkpt><trkpt lat="45.9569088" lon="13.4824593"><ele>61.0</ele><time>2026-05-03T09:47:50.125Z</time></trkpt><trkpt lat="45.95689" lon="13.4826554"><ele>62.0</ele><time>2026-05-03T09:47:51.123Z</time></trkpt><trkpt lat="45.9568753" lon="13.4828505"><ele>63.0</ele><time>2026-05-03T09:47:52.129Z</time></trkpt><trkpt lat="45.9568676" lon="13.4830439"><ele>64.0</ele><time>2026-05-03T09:47:53.125Z</time></trkpt><trkpt lat="45.956866" lon="13.4832106"><ele>63.25</ele><time>2026-05-03T09:47:54.121Z</time></trkpt><trkpt lat="45.9568645" lon="13.4833642"><ele>62.5</ele><time>2026-05-03T09:47:55.122Z</time></trkpt><trkpt lat="45.9568861" lon="13.4835091"><ele>61.75</ele><time>2026-05-03T09:47:56.125Z</time></trkpt><trkpt lat="45.9569398" lon="13.4836556"><ele>61.0</ele><time>2026-05-03T09:47:57.126Z</time></trkpt><trkpt lat="45.9570193" lon="13.4837966"><ele>61.0</ele><time>2026-05-03T09:47:58.115Z</time></trkpt><trkpt lat="45.957113" lon="13.4839401"><ele>61.0</ele><time>2026-05-03T09:47:59.115Z</time></trkpt><trkpt lat="45.9572039" lon="13.4840881"><ele>61.0</ele><time>2026-05-03T09:48:00.119Z</time></trkpt><trkpt lat="45.9572942" lon="13.4842382"><ele>61.0</ele><time>2026-05-03T09:48:01.116Z</time></trkpt><trkpt lat="45.9573857" lon="13.4843954"><ele>61.0</ele><time>2026-05-03T09:48:02.136Z</time></trkpt><trkpt lat="45.9574744" lon="13.4845503"><ele>61.0</ele><time>2026-05-03T09:48:03.118Z</time></trkpt><trkpt lat="45.9575597" lon="13.4847004"><ele>61.0</ele><time>2026-05-03T09:48:04.119Z</time></trkpt><trkpt lat="45.9576433" lon="13.4848447"><ele>61.0</ele><time>2026-05-03T09:48:05.107Z</time></trkpt><trkpt lat="45.957728" lon="13.4849815"><ele>61.75</ele><time>2026-05-03T09:48:06.104Z</time></trkpt><trkpt lat="45.9578145" lon="13.4850999"><ele>62.5</ele><time>2026-05-03T09:48:07.115Z</time></trkpt><trkpt lat="45.9579015" lon="13.4852119"><ele>63.25</ele><time>2026-05-03T09:48:08.106Z</time></trkpt><trkpt lat="45.9579949" lon="13.4853221"><ele>64.0</ele><time>2026-05-03T09:48:09.1Z</time></trkpt><trkpt lat="45.9580939" lon="13.4854304"><ele>64.75</ele><time>2026-05-03T09:48:10.117Z</time></trkpt><trkpt lat="45.9581926" lon="13.4855381"><ele>65.5</ele><time>2026-05-03T09:48:11.111Z</time></trkpt><trkpt lat="45.9582934" lon="13.4856459"><ele>66.25</ele><time>2026-05-03T09:48:12.115Z</time></trkpt><trkpt lat="45.9583937" lon="13.4857498"><ele>67.0</ele><time>2026-05-03T09:48:13.107Z</time></trkpt><trkpt lat="45.9584851" lon="13.4858531"><ele>67.0</ele><time>2026-05-03T09:48:14.118Z</time></trkpt><trkpt lat="45.9585712" lon="13.4859507"><ele>67.0</ele><time>2026-05-03T09:48:15.125Z</time></trkpt><trkpt lat="45.9586513" lon="13.4860465"><ele>67.0</ele><time>2026-05-03T09:48:16.119Z</time></trkpt><trkpt lat="45.9587309" lon="13.4861684"><ele>67.0</ele><time>2026-05-03T09:48:17.118Z</time></trkpt><trkpt lat="45.9588126" lon="13.4863141"><ele>65.33333333333333</ele><time>2026-05-03T09:48:18.127Z</time></trkpt><trkpt lat="45.958909" lon="13.4864712"><ele>63.66666666666667</ele><time>2026-05-03T09:48:19.121Z</time></trkpt><trkpt lat="45.9590046" lon="13.4866457"><ele>62.0</ele><time>2026-05-03T09:48:20.118Z</time></trkpt><trkpt lat="45.9590968" lon="13.4868268"><ele>62.0</ele><time>2026-05-03T09:48:21.131Z</time></trkpt><trkpt lat="45.9591828" lon="13.4870013"><ele>62.0</ele><time>2026-05-03T09:48:22.127Z</time></trkpt><trkpt lat="45.9592615" lon="13.4871647"><ele>62.0</ele><time>2026-05-03T09:48:23.117Z</time></trkpt><trkpt lat="45.959332" lon="13.4873207"><ele>62.0</ele><time>2026-05-03T09:48:24.117Z</time></trkpt><trkpt lat="45.959393" lon="13.4874677"><ele>64.4</ele><time>2026-05-03T09:48:25.118Z</time></trkpt><trkpt lat="45.9594475" lon="13.4876054"><ele>66.80000000000001</ele><time>2026-05-03T09:48:26.107Z</time></trkpt><trkpt lat="45.9594962" lon="13.4877293"><ele>69.2</ele><time>2026-05-03T09:48:27.118Z</time></trkpt><trkpt lat="45.9595447" lon="13.4878441"><ele>71.60000000000001</ele><time>2026-05-03T09:48:28.125Z</time></trkpt><trkpt lat="45.9595905" lon="13.4879567"><ele>74.0</ele><time>2026-05-03T09:48:29.101Z</time></trkpt><trkpt lat="45.959632" lon="13.4880652"><ele>75.16666666666667</ele><time>2026-05-03T09:48:30.118Z</time></trkpt><trkpt lat="45.9596703" lon="13.4881638"><ele>76.33333333333334</ele><time>2026-05-03T09:48:31.099Z</time></trkpt><trkpt lat="45.9597054" lon="13.4882511"><ele>77.5</ele><time>2026-05-03T09:48:32.098Z</time></trkpt><trkpt lat="45.9597389" lon="13.4883922"><ele>78.66666666666667</ele><time>2026-05-03T09:48:34.101Z</time></trkpt><trkpt lat="45.9597891" lon="13.488525"><ele>79.83333333333333</ele><time>2026-05-03T09:49:47.128Z</time></trkpt><trkpt lat="45.9598197" lon="13.4886182"><ele>81.0</ele><time>2026-05-03T09:49:48.116Z</time></trkpt><trkpt lat="45.9598526" lon="13.4887058"><ele>82.66666666666667</ele><time>2026-05-03T09:49:49.126Z</time></trkpt><trkpt lat="45.9598903" lon="13.4887961"><ele>84.33333333333333</ele><time>2026-05-03T09:49:50.115Z</time></trkpt><trkpt lat="45.9599321" lon="13.4888848"><ele>86.0</ele><time>2026-05-03T09:49:51.112Z</time></trkpt><trkpt lat="45.9599841" lon="13.4889764"><ele>87.66666666666666</ele><time>2026-05-03T09:49:52.104Z</time></trkpt><trkpt lat="45.9600584" lon="13.4890783"><ele>89.33333333333333</ele><time>2026-05-03T09:49:53.115Z</time></trkpt><trkpt lat="45.960153" lon="13.4891702"><ele>91.0</ele><time>2026-05-03T09:49:54.103Z</time></trkpt><trkpt lat="45.9602609" lon="13.4892391"><ele>93.75</ele><time>2026-05-03T09:49:55.109Z</time></trkpt><trkpt lat="45.9603741" lon="13.489293"><ele>96.5</ele><time>2026-05-03T09:49:56.114Z</time></trkpt><trkpt lat="45.9604815" lon="13.4893533"><ele>99.25</ele><time>2026-05-03T09:49:57.097Z</time></trkpt><trkpt lat="45.9605759" lon="13.4894382"><ele>102.0</ele><time>2026-05-03T09:49:58.099Z</time></trkpt><trkpt lat="45.9606614" lon="13.4895595"><ele>100.25</ele><time>2026-05-03T09:49:59.103Z</time></trkpt><trkpt lat="45.9607389" lon="13.4896998"><ele>98.5</ele><time>2026-05-03T09:50:00.115Z</time></trkpt><trkpt lat="45.9608272" lon="13.4898599"><ele>96.75</ele><time>2026-05-03T09:50:01.114Z</time></trkpt><trkpt lat="45.9609347" lon="13.4900145"><ele>95.0</ele><time>2026-05-03T09:50:02.118Z</time></trkpt><trkpt lat="45.9610525" lon="13.4901629"><ele>92.0</ele><time>2026-05-03T09:50:03.105Z</time></trkpt><trkpt lat="45.9611704" lon="13.4903193"><ele>89.0</ele><time>2026-05-03T09:50:04.112Z</time></trkpt><trkpt lat="45.9612771" lon="13.490478"><ele>86.0</ele><time>2026-05-03T09:50:05.1Z</time></trkpt><trkpt lat="45.9613729" lon="13.4906544"><ele>84.33333333333334</ele><time>2026-05-03T09:50:06.15Z</time></trkpt><trkpt lat="45.961448" lon="13.4908619"><ele>82.66666666666667</ele><time>2026-05-03T09:50:07.094Z</time></trkpt><trkpt lat="45.961507" lon="13.4910877"><ele>81.0</ele><time>2026-05-03T09:50:08.108Z</time></trkpt><trkpt lat="45.9615635" lon="13.4913307"><ele>79.33333333333333</ele><time>2026-05-03T09:50:09.126Z</time></trkpt><trkpt lat="45.9616259" lon="13.4915616"><ele>77.66666666666666</ele><time>2026-05-03T09:50:10.108Z</time></trkpt><trkpt lat="45.9616943" lon="13.491776"><ele>76.0</ele><time>2026-05-03T09:50:11.112Z</time></trkpt><trkpt lat="45.9617803" lon="13.4919724"><ele>75.0</ele><time>2026-05-03T09:50:12.104Z</time></trkpt><trkpt lat="45.9618899" lon="13.4921529"><ele>74.0</ele><time>2026-05-03T09:50:13.118Z</time></trkpt><trkpt lat="45.9620193" lon="13.4923379"><ele>73.0</ele><time>2026-05-03T09:50:14.104Z</time></trkpt><trkpt lat="45.962166" lon="13.4925327"><ele>73.0</ele><time>2026-05-03T09:50:15.103Z</time></trkpt><trkpt lat="45.9623297" lon="13.4927292"><ele>73.0</ele><time>2026-05-03T09:50:16.104Z</time></trkpt><trkpt lat="45.9597891" lon="13.488525"><ele>74.33333333333333</ele><time>2026-05-03T09:49:47.128Z</time></trkpt><trkpt lat="45.9598197" lon="13.4886182"><ele>75.66666666666666</ele><time>2026-05-03T09:49:48.116Z</time></trkpt><trkpt lat="45.9598526" lon="13.4887058"><ele>77.0</ele><time>2026-05-03T09:49:49.126Z</time></trkpt><trkpt lat="45.9598903" lon="13.4887961"><ele>78.33333333333333</ele><time>2026-05-03T09:49:50.115Z</time></trkpt><trkpt lat="45.9599321" lon="13.4888848"><ele>79.66666666666667</ele><time>2026-05-03T09:49:51.112Z</time></trkpt><trkpt lat="45.9599841" lon="13.4889764"><ele>81.0</ele><time>2026-05-03T09:49:52.104Z</time></trkpt><trkpt lat="45.9600584" lon="13.4890783"><ele>86.25</ele><time>2026-05-03T09:49:53.115Z</time></trkpt><trkpt lat="45.960153" lon="13.4891702"><ele>91.5</ele><time>2026-05-03T09:49:54.103Z</time></trkpt><trkpt lat="45.9602609" lon="13.4892391"><ele>96.75</ele><time>2026-05-03T09:49:55.109Z</time></trkpt><trkpt lat="45.9603741" lon="13.489293"><ele>102.0</ele><time>2026-05-03T09:49:56.114Z</time></trkpt><trkpt lat="45.9604815" lon="13.4893533"><ele>102.0</ele><time>2026-05-03T09:49:57.097Z</time></trkpt><trkpt lat="45.9605759" lon="13.4894382"><ele>102.0</ele><time>2026-05-03T09:49:58.099Z</time></trkpt><trkpt lat="45.9606614" lon="13.4895595"><ele>102.0</ele><time>2026-05-03T09:49:59.103Z</time></trkpt><trkpt lat="45.9607389" lon="13.4896998"><ele>102.0</ele><time>2026-05-03T09:50:00.115Z</time></trkpt><trkpt lat="45.9608272" lon="13.4898599"><ele>96.66666666666667</ele><time>2026-05-03T09:50:01.114Z</time></trkpt><trkpt lat="45.9609347" lon="13.4900145"><ele>91.33333333333334</ele><time>2026-05-03T09:50:02.118Z</time></trkpt><trkpt lat="45.9610525" lon="13.4901629"><ele>86.0</ele><time>2026-05-03T09:50:03.105Z</time></trkpt><trkpt lat="45.9611704" lon="13.4903193"><ele>84.33333333333334</ele><time>2026-05-03T09:50:04.112Z</time></trkpt><trkpt lat="45.9612771" lon="13.490478"><ele>82.66666666666667</ele><time>2026-05-03T09:50:05.1Z</time></trkpt><trkpt lat="45.9613729" lon="13.4906544"><ele>81.0</ele><time>2026-05-03T09:50:06.15Z</time></trkpt><trkpt lat="45.961448" lon="13.4908619"><ele>81.0</ele><time>2026-05-03T09:50:07.094Z</time></trkpt><trkpt lat="45.961507" lon="13.4910877"><ele>81.0</ele><time>2026-05-03T09:50:08.108Z</time></trkpt><trkpt lat="45.9615635" lon="13.4913307"><ele>81.0</ele><time>2026-05-03T09:50:09.126Z</time></trkpt><trkpt lat="45.9616259" lon="13.4915616"><ele>79.33333333333333</ele><time>2026-05-03T09:50:10.108Z</time></trkpt><trkpt lat="45.9616943" lon="13.491776"><ele>77.66666666666666</ele><time>2026-05-03T09:50:11.112Z</time></trkpt><trkpt lat="45.9617803" lon="13.4919724"><ele>76.0</ele><time>2026-05-03T09:50:12.104Z</time></trkpt><trkpt lat="45.9618899" lon="13.4921529"><ele>75.0</ele><time>2026-05-03T09:50:13.118Z</time></trkpt><trkpt lat="45.9620193" lon="13.4923379"><ele>74.0</ele><time>2026-05-03T09:50:14.104Z</time></trkpt><trkpt lat="45.962166" lon="13.4925327"><ele>73.0</ele><time>2026-05-03T09:50:15.103Z</time></trkpt><trkpt lat="45.9623297" lon="13.4927292"><ele>72.0</ele><time>2026-05-03T09:50:16.104Z</time></trkpt><trkpt lat="45.9625002" lon="13.4929298"><ele>71.0</ele><time>2026-05-03T09:50:17.112Z</time></trkpt><trkpt lat="45.9626703" lon="13.4931258"><ele>70.0</ele><time>2026-05-03T09:50:18.114Z</time></trkpt><trkpt lat="45.9628376" lon="13.4933244"><ele>72.33333333333333</ele><time>2026-05-03T09:50:19.121Z</time></trkpt><trkpt lat="45.9630024" lon="13.4935224"><ele>74.66666666666667</ele><time>2026-05-03T09:50:20.126Z</time></trkpt><trkpt lat="45.9631614" lon="13.4937305"><ele>77.0</ele><time>2026-05-03T09:50:21.128Z</time></trkpt><trkpt lat="45.9633088" lon="13.4939525"><ele>78.66666666666667</ele><time>2026-05-03T09:50:22.126Z</time></trkpt><trkpt lat="45.9634406" lon="13.4942038"><ele>80.33333333333333</ele><time>2026-05-03T09:50:23.122Z</time></trkpt><trkpt lat="45.9635629" lon="13.4944599"><ele>82.0</ele><time>2026-05-03T09:50:24.117Z</time></trkpt><trkpt lat="45.9636946" lon="13.494719"><ele>82.0</ele><time>2026-05-03T09:50:25.119Z</time></trkpt><trkpt lat="45.9638378" lon="13.4949614"><ele>82.0</ele><time>2026-05-03T09:50:26.154Z</time></trkpt><trkpt lat="45.9639828" lon="13.4951939"><ele>82.0</ele><time>2026-05-03T09:50:27.106Z</time></trkpt><trkpt lat="45.9641271" lon="13.4954156"><ele>79.0</ele><time>2026-05-03T09:50:28.118Z</time></trkpt><trkpt lat="45.9642624" lon="13.4956238"><ele>76.0</ele><time>2026-05-03T09:50:29.106Z</time></trkpt><trkpt lat="45.9643958" lon="13.4958213"><ele>73.0</ele><time>2026-05-03T09:50:30.118Z</time></trkpt><trkpt lat="45.9645459" lon="13.4959925"><ele>73.0</ele><time>2026-05-03T09:50:31.126Z</time></trkpt><trkpt lat="45.9647175" lon="13.4961357"><ele>73.0</ele><time>2026-05-03T09:50:32.117Z</time></trkpt><trkpt lat="45.9649063" lon="13.4962596"><ele>73.0</ele><time>2026-05-03T09:50:33.12Z</time></trkpt><trkpt lat="45.9651047" lon="13.4963648"><ele>68.66666666666666</ele><time>2026-05-03T09:50:34.117Z</time></trkpt><trkpt lat="45.9653106" lon="13.4964505"><ele>64.33333333333333</ele><time>2026-05-03T09:50:35.11Z</time></trkpt><trkpt lat="45.9655086" lon="13.49652"><ele>60.0</ele><time>2026-05-03T09:50:36.107Z</time></trkpt><trkpt lat="45.9657019" lon="13.4965491"><ele>59.66666666666667</ele><time>2026-05-03T09:50:37.114Z</time></trkpt><trkpt lat="45.9658892" lon="13.4965157"><ele>59.333333333333336</ele><time>2026-05-03T09:50:38.113Z</time></trkpt><trkpt lat="45.96608" lon="13.4964284"><ele>59.0</ele><time>2026-05-03T09:50:39.113Z</time></trkpt><trkpt lat="45.9662802" lon="13.4963205"><ele>59.333333333333336</ele><time>2026-05-03T09:50:40.115Z</time></trkpt><trkpt lat="45.9664784" lon="13.4962074"><ele>59.66666666666667</ele><time>2026-05-03T09:50:41.127Z</time></trkpt><trkpt lat="45.9666804" lon="13.496093"><ele>60.0</ele><time>2026-05-03T09:50:42.119Z</time></trkpt><trkpt lat="45.9668798" lon="13.4959797"><ele>60.0</ele><time>2026-05-03T09:50:43.124Z</time></trkpt><trkpt lat="45.9670831" lon="13.4958622"><ele>60.0</ele><time>2026-05-03T09:50:44.104Z</time></trkpt><trkpt lat="45.9672853" lon="13.4957508"><ele>60.0</ele><time>2026-05-03T09:50:45.111Z</time></trkpt><trkpt lat="45.9674947" lon="13.4956565"><ele>58.5</ele><time>2026-05-03T09:50:46.105Z</time></trkpt><trkpt lat="45.9677126" lon="13.4956082"><ele>57.0</ele><time>2026-05-03T09:50:47.112Z</time></trkpt><trkpt lat="45.9679457" lon="13.4955932"><ele>57.0</ele><time>2026-05-03T09:50:48.14Z</time></trkpt><trkpt lat="45.9681826" lon="13.4955938"><ele>57.0</ele><time>2026-05-03T09:50:49.118Z</time></trkpt><trkpt lat="45.9684193" lon="13.4955974"><ele>57.0</ele><time>2026-05-03T09:50:50.131Z</time></trkpt><trkpt lat="45.9686563" lon="13.4956019"><ele>57.0</ele><time>2026-05-03T09:50:51.123Z</time></trkpt><trkpt lat="45.9688887" lon="13.4956034"><ele>57.0</ele><time>2026-05-03T09:50:52.125Z</time></trkpt><trkpt lat="45.9691197" lon="13.4956018"><ele>57.0</ele><time>2026-05-03T09:50:53.129Z</time></trkpt><trkpt lat="45.9693452" lon="13.4955979"><ele>58.0</ele><time>2026-05-03T09:50:54.119Z</time></trkpt><trkpt lat="45.9695585" lon="13.4955947"><ele>59.0</ele><time>2026-05-03T09:50:55.156Z</time></trkpt><trkpt lat="45.9697684" lon="13.4956321"><ele>60.0</ele><time>2026-05-03T09:50:56.136Z</time></trkpt><trkpt lat="45.9699786" lon="13.4957123"><ele>60.5</ele><time>2026-05-03T09:50:57.127Z</time></trkpt><trkpt lat="45.9701868" lon="13.495828"><ele>61.0</ele><time>2026-05-03T09:50:58.13Z</time></trkpt><trkpt lat="45.9703999" lon="13.4959549"><ele>61.0</ele><time>2026-05-03T09:50:59.128Z</time></trkpt><trkpt lat="45.9706122" lon="13.4960919"><ele>61.0</ele><time>2026-05-03T09:51:00.126Z</time></trkpt><trkpt lat="45.9708268" lon="13.4962361"><ele>59.5</ele><time>2026-05-03T09:51:01.116Z</time></trkpt><trkpt lat="45.9710389" lon="13.496384"><ele>58.0</ele><time>2026-05-03T09:51:02.147Z</time></trkpt><trkpt lat="45.9712399" lon="13.4965616"><ele>58.0</ele><time>2026-05-03T09:51:03.137Z</time></trkpt><trkpt lat="45.9714347" lon="13.4967718"><ele>58.0</ele><time>2026-05-03T09:51:04.134Z</time></trkpt><trkpt lat="45.9716312" lon="13.4969859"><ele>59.0</ele><time>2026-05-03T09:51:05.13Z</time></trkpt><trkpt lat="45.971823" lon="13.4972039"><ele>60.0</ele><time>2026-05-03T09:51:06.134Z</time></trkpt><trkpt lat="45.9720097" lon="13.4974176"><ele>60.0</ele><time>2026-05-03T09:51:07.138Z</time></trkpt><trkpt lat="45.9721933" lon="13.4976263"><ele>60.0</ele><time>2026-05-03T09:51:08.135Z</time></trkpt><trkpt lat="45.9723699" lon="13.4978205"><ele>59.66666666666667</ele><time>2026-05-03T09:51:09.136Z</time></trkpt><trkpt lat="45.9725418" lon="13.4980073"><ele>59.333333333333336</ele><time>2026-05-03T09:51:10.12Z</time></trkpt><trkpt lat="45.9727114" lon="13.4981925"><ele>59.0</ele><time>2026-05-03T09:51:11.13Z</time></trkpt><trkpt lat="45.9728795" lon="13.4983753"><ele>59.0</ele><time>2026-05-03T09:51:12.13Z</time></trkpt><trkpt lat="45.9730348" lon="13.4985481"><ele>59.0</ele><time>2026-05-03T09:51:13.128Z</time></trkpt><trkpt lat="45.9731797" lon="13.498709"><ele>59.0</ele><time>2026-05-03T09:51:14.126Z</time></trkpt><trkpt lat="45.9733098" lon="13.4988575"><ele>57.75</ele><time>2026-05-03T09:51:15.14Z</time></trkpt><trkpt lat="45.9734294" lon="13.4989941"><ele>56.5</ele><time>2026-05-03T09:51:16.134Z</time></trkpt><trkpt lat="45.9735334" lon="13.4991183"><ele>55.25</ele><time>2026-05-03T09:51:17.128Z</time></trkpt><trkpt lat="45.9736221" lon="13.4992229"><ele>54.0</ele><time>2026-05-03T09:51:18.128Z</time></trkpt><trkpt lat="45.9737153" lon="13.4993112"><ele>54.0</ele><time>2026-05-03T09:51:19.13Z</time></trkpt><trkpt lat="45.9738147" lon="13.4993633"><ele>54.0</ele><time>2026-05-03T09:51:20.164Z</time></trkpt><trkpt lat="45.9739199" lon="13.4993702"><ele>54.0</ele><time>2026-05-03T09:51:21.118Z</time></trkpt><trkpt lat="45.9740452" lon="13.4993295"><ele>54.0</ele><time>2026-05-03T09:51:22.141Z</time></trkpt><trkpt lat="45.97417" lon="13.4992357"><ele>53.66666666666667</ele><time>2026-05-03T09:51:23.134Z</time></trkpt><trkpt lat="45.974314" lon="13.4991343"><ele>53.333333333333336</ele><time>2026-05-03T09:51:24.141Z</time></trkpt><trkpt lat="45.9744748" lon="13.4990292"><ele>53.0</ele><time>2026-05-03T09:51:25.145Z</time></trkpt><trkpt lat="45.9746479" lon="13.4989147"><ele>53.0</ele><time>2026-05-03T09:51:26.136Z</time></trkpt><trkpt lat="45.974828" lon="13.4987883"><ele>53.0</ele><time>2026-05-03T09:51:27.132Z</time></trkpt><trkpt lat="45.9750202" lon="13.498658"><ele>53.0</ele><time>2026-05-03T09:51:28.127Z</time></trkpt><trkpt lat="45.9752226" lon="13.4985215"><ele>54.0</ele><time>2026-05-03T09:51:29.125Z</time></trkpt><trkpt lat="45.9754285" lon="13.4983864"><ele>55.0</ele><time>2026-05-03T09:51:30.134Z</time></trkpt><trkpt lat="45.975635" lon="13.4982478"><ele>55.0</ele><time>2026-05-03T09:51:31.135Z</time></trkpt><trkpt lat="45.9758474" lon="13.49812"><ele>55.0</ele><time>2026-05-03T09:51:32.133Z</time></trkpt><trkpt lat="45.9760569" lon="13.4979961"><ele>58.5</ele><time>2026-05-03T09:51:33.132Z</time></trkpt><trkpt lat="45.9762662" lon="13.4978718"><ele>62.0</ele><time>2026-05-03T09:51:34.136Z</time></trkpt><trkpt lat="45.9764737" lon="13.4977524"><ele>62.0</ele><time>2026-05-03T09:51:35.132Z</time></trkpt><trkpt lat="45.9766712" lon="13.4976319"><ele>62.0</ele><time>2026-05-03T09:51:36.123Z</time></trkpt><trkpt lat="45.9768617" lon="13.4975131"><ele>62.0</ele><time>2026-05-03T09:51:37.135Z</time></trkpt><trkpt lat="45.9770497" lon="13.4974044"><ele>65.0</ele><time>2026-05-03T09:51:38.122Z</time></trkpt><trkpt lat="45.9772267" lon="13.4972974"><ele>68.0</ele><time>2026-05-03T09:51:39.132Z</time></trkpt><trkpt lat="45.9773915" lon="13.4972009"><ele>71.0</ele><time>2026-05-03T09:51:40.123Z</time></trkpt><trkpt lat="45.9775449" lon="13.4971109"><ele>75.0</ele><time>2026-05-03T09:51:41.14Z</time></trkpt><trkpt lat="45.9776934" lon="13.497025"><ele>79.0</ele><time>2026-05-03T09:51:42.196Z</time></trkpt><trkpt lat="45.9778359" lon="13.4969427"><ele>83.0</ele><time>2026-05-03T09:51:43.137Z</time></trkpt><trkpt lat="45.9779672" lon="13.4968563"><ele>83.0</ele><time>2026-05-03T09:51:44.132Z</time></trkpt><trkpt lat="45.9780907" lon="13.4967822"><ele>83.0</ele><time>2026-05-03T09:51:45.128Z</time></trkpt><trkpt lat="45.9782134" lon="13.4967099"><ele>83.0</ele><time>2026-05-03T09:51:46.133Z</time></trkpt><trkpt lat="45.978339" lon="13.4966461"><ele>83.0</ele><time>2026-05-03T09:51:47.123Z</time></trkpt><trkpt lat="45.9784624" lon="13.4965989"><ele>83.80000000000001</ele><time>2026-05-03T09:51:48.125Z</time></trkpt><trkpt lat="45.9785805" lon="13.49657"><ele>84.6</ele><time>2026-05-03T09:51:49.125Z</time></trkpt><trkpt lat="45.9786853" lon="13.496555"><ele>85.4</ele><time>2026-05-03T09:51:50.135Z</time></trkpt><trkpt lat="45.9787817" lon="13.4965601"><ele>86.19999999999999</ele><time>2026-05-03T09:51:51.121Z</time></trkpt><trkpt lat="45.9788676" lon="13.496585"><ele>87.0</ele><time>2026-05-03T09:51:52.127Z</time></trkpt><trkpt lat="45.9789614" lon="13.4966386"><ele>87.0</ele><time>2026-05-03T09:51:53.131Z</time></trkpt><trkpt lat="45.9790601" lon="13.4967174"><ele>87.0</ele><time>2026-05-03T09:51:54.126Z</time></trkpt><trkpt lat="45.9791702" lon="13.496798"><ele>87.0</ele><time>2026-05-03T09:51:55.124Z</time></trkpt><trkpt lat="45.9793091" lon="13.4968836"><ele>87.0</ele><time>2026-05-03T09:51:56.121Z</time></trkpt><trkpt lat="45.9794637" lon="13.4969976"><ele>88.33333333333333</ele><time>2026-05-03T09:51:57.121Z</time></trkpt><trkpt lat="45.9796254" lon="13.4971347"><ele>89.66666666666666</ele><time>2026-05-03T09:51:58.118Z</time></trkpt><trkpt lat="45.9797862" lon="13.4972746"><ele>91.0</ele><time>2026-05-03T09:51:59.188Z</time></trkpt><trkpt lat="45.979943" lon="13.4974082"><ele>92.0</ele><time>2026-05-03T09:52:00.12Z</time></trkpt><trkpt lat="45.9800943" lon="13.4975262"><ele>93.0</ele><time>2026-05-03T09:52:01.122Z</time></trkpt><trkpt lat="45.9802451" lon="13.4976361"><ele>94.0</ele><time>2026-05-03T09:52:02.124Z</time></trkpt><trkpt lat="45.9803849" lon="13.4977465"><ele>94.0</ele><time>2026-05-03T09:52:03.124Z</time></trkpt><trkpt lat="45.9805092" lon="13.4978763"><ele>94.0</ele><time>2026-05-03T09:52:04.125Z</time></trkpt><trkpt lat="45.9806157" lon="13.4980479"><ele>94.0</ele><time>2026-05-03T09:52:05.131Z</time></trkpt><trkpt lat="45.9807031" lon="13.498255"><ele>92.66666666666666</ele><time>2026-05-03T09:52:06.127Z</time></trkpt><trkpt lat="45.9807886" lon="13.4984652"><ele>91.33333333333333</ele><time>2026-05-03T09:52:07.127Z</time></trkpt><trkpt lat="45.9808748" lon="13.4986693"><ele>90.0</ele><time>2026-05-03T09:52:08.121Z</time></trkpt><trkpt lat="45.9809527" lon="13.4988602"><ele>92.25</ele><time>2026-05-03T09:52:09.124Z</time></trkpt><trkpt lat="45.9810251" lon="13.499032"><ele>94.5</ele><time>2026-05-03T09:52:10.125Z</time></trkpt><trkpt lat="45.9810879" lon="13.4991873"><ele>96.75</ele><time>2026-05-03T09:52:11.13Z</time></trkpt><trkpt lat="45.9811556" lon="13.4993296"><ele>99.0</ele><time>2026-05-03T09:52:12.117Z</time></trkpt><trkpt lat="45.9812341" lon="13.4994623"><ele>99.0</ele><time>2026-05-03T09:52:13.124Z</time></trkpt><trkpt lat="45.9813131" lon="13.4995747"><ele>99.0</ele><time>2026-05-03T09:52:14.133Z</time></trkpt><trkpt lat="45.9813909" lon="13.4996697"><ele>99.0</ele><time>2026-05-03T09:52:15.128Z</time></trkpt><trkpt lat="45.9814632" lon="13.4997491"><ele>99.0</ele><time>2026-05-03T09:52:16.131Z</time></trkpt><trkpt lat="45.9815229" lon="13.4998027"><ele>99.0</ele><time>2026-05-03T09:52:17.133Z</time></trkpt><trkpt lat="45.9815955" lon="13.4998601"><ele>100.2</ele><time>2026-05-03T09:52:19.137Z</time></trkpt><trkpt lat="45.9816578" lon="13.4999222"><ele>101.4</ele><time>2026-05-03T09:52:21.143Z</time></trkpt><trkpt lat="45.9817095" lon="13.4999854"><ele>102.6</ele><time>2026-05-03T09:52:22.132Z</time></trkpt><trkpt lat="45.981778" lon="13.500042"><ele>103.8</ele><time>2026-05-03T09:52:23.131Z</time></trkpt><trkpt lat="45.9818773" lon="13.5000901"><ele>105.0</ele><time>2026-05-03T09:52:24.135Z</time></trkpt><trkpt lat="45.9819983" lon="13.5001178"><ele>105.0</ele><time>2026-05-03T09:52:25.117Z</time></trkpt><trkpt lat="45.9821297" lon="13.5000994"><ele>105.0</ele><time>2026-05-03T09:52:26.12Z</time></trkpt><trkpt lat="45.9822705" lon="13.500045"><ele>105.0</ele><time>2026-05-03T09:52:27.113Z</time></trkpt><trkpt lat="45.9824102" lon="13.4999818"><ele>105.0</ele><time>2026-05-03T09:52:28.113Z</time></trkpt><trkpt lat="45.9825499" lon="13.4999224"><ele>106.5</ele><time>2026-05-03T09:52:29.107Z</time></trkpt><trkpt lat="45.9826737" lon="13.499861"><ele>108.0</ele><time>2026-05-03T09:52:30.107Z</time></trkpt><trkpt lat="45.982771" lon="13.4997544"><ele>109.5</ele><time>2026-05-03T09:52:31.115Z</time></trkpt><trkpt lat="45.9828428" lon="13.4996003"><ele>111.0</ele><time>2026-05-03T09:52:32.096Z</time></trkpt><trkpt lat="45.9828903" lon="13.4994119"><ele>111.0</ele><time>2026-05-03T09:52:33.111Z</time></trkpt><trkpt lat="45.9829014" lon="13.4992032"><ele>111.0</ele><time>2026-05-03T09:52:34.109Z</time></trkpt><trkpt lat="45.9828893" lon="13.4989692"><ele>111.0</ele><time>2026-05-03T09:52:35.105Z</time></trkpt><trkpt lat="45.9828716" lon="13.4987357"><ele>108.0</ele><time>2026-05-03T09:52:36.099Z</time></trkpt><trkpt lat="45.9828563" lon="13.498521"><ele>105.0</ele><time>2026-05-03T09:52:37.107Z</time></trkpt><trkpt lat="45.9828406" lon="13.4983275"><ele>102.0</ele><time>2026-05-03T09:52:38.127Z</time></trkpt><trkpt lat="45.9828405" lon="13.498141"><ele>99.0</ele><time>2026-05-03T09:52:39.131Z</time></trkpt><trkpt lat="45.9828794" lon="13.4979569"><ele>95.75</ele><time>2026-05-03T09:52:40.127Z</time></trkpt><trkpt lat="45.9829605" lon="13.4977782"><ele>92.5</ele><time>2026-05-03T09:52:41.122Z</time></trkpt><trkpt lat="45.9830649" lon="13.497647"><ele>89.25</ele><time>2026-05-03T09:52:42.113Z</time></trkpt><trkpt lat="45.9831947" lon="13.4975724"><ele>86.0</ele><time>2026-05-03T09:52:43.123Z</time></trkpt><trkpt lat="45.9833437" lon="13.4975369"><ele>87.66666666666667</ele><time>2026-05-03T09:52:44.118Z</time></trkpt><trkpt lat="45.9835004" lon="13.497547"><ele>89.33333333333333</ele><time>2026-05-03T09:52:45.112Z</time></trkpt><trkpt lat="45.9836538" lon="13.4975877"><ele>91.0</ele><time>2026-05-03T09:52:46.128Z</time></trkpt><trkpt lat="45.9837885" lon="13.4976384"><ele>91.0</ele><time>2026-05-03T09:52:47.127Z</time></trkpt><trkpt lat="45.983901" lon="13.4976777"><ele>91.0</ele><time>2026-05-03T09:52:48.125Z</time></trkpt><trkpt lat="45.9839958" lon="13.4976963"><ele>91.0</ele><time>2026-05-03T09:52:49.132Z</time></trkpt><trkpt lat="45.9840659" lon="13.4976617"><ele>91.0</ele><time>2026-05-03T09:52:50.127Z</time></trkpt><trkpt lat="45.9841146" lon="13.4975726"><ele>91.0</ele><time>2026-05-03T09:52:51.13Z</time></trkpt><trkpt lat="45.9841273" lon="13.4974627"><ele>91.0</ele><time>2026-05-03T09:52:52.112Z</time></trkpt><trkpt lat="45.9840908" lon="13.4973368"><ele>91.0</ele><time>2026-05-03T09:52:53.125Z</time></trkpt><trkpt lat="45.9840092" lon="13.4972141"><ele>91.0</ele><time>2026-05-03T09:52:54.131Z</time></trkpt><trkpt lat="45.9839237" lon="13.4970969"><ele>91.0</ele><time>2026-05-03T09:52:55.124Z</time></trkpt><trkpt lat="45.9838373" lon="13.4969789"><ele>91.0</ele><time>2026-05-03T09:52:56.105Z</time></trkpt><trkpt lat="45.9837474" lon="13.4968665"><ele>89.5</ele><time>2026-05-03T09:52:57.104Z</time></trkpt><trkpt lat="45.9836429" lon="13.4967649"><ele>88.0</ele><time>2026-05-03T09:52:58.118Z</time></trkpt><trkpt lat="45.9835366" lon="13.4966805"><ele>86.5</ele><time>2026-05-03T09:52:59.103Z</time></trkpt><trkpt lat="45.9834293" lon="13.4965961"><ele>85.0</ele><time>2026-05-03T09:53:00.106Z</time></trkpt><trkpt lat="45.9833242" lon="13.4965115"><ele>84.0</ele><time>2026-05-03T09:53:01.107Z</time></trkpt><trkpt lat="45.9832331" lon="13.4964351"><ele>83.0</ele><time>2026-05-03T09:53:02.104Z</time></trkpt><trkpt lat="45.9831627" lon="13.4963421"><ele>82.0</ele><time>2026-05-03T09:53:03.13Z</time></trkpt><trkpt lat="45.9831276" lon="13.4962245"><ele>81.0</ele><time>2026-05-03T09:53:04.109Z</time></trkpt><trkpt lat="45.9831197" lon="13.4960786"><ele>80.0</ele><time>2026-05-03T09:53:05.129Z</time></trkpt><trkpt lat="45.9831476" lon="13.4959169"><ele>79.0</ele><time>2026-05-03T09:53:06.119Z</time></trkpt><trkpt lat="45.9832099" lon="13.4957441"><ele>78.0</ele><time>2026-05-03T09:53:07.114Z</time></trkpt><trkpt lat="45.9832946" lon="13.4955918"><ele>77.0</ele><time>2026-05-03T09:53:08.113Z</time></trkpt><trkpt lat="45.983405" lon="13.4954545"><ele>76.0</ele><time>2026-05-03T09:53:09.124Z</time></trkpt><trkpt lat="45.9835267" lon="13.4953188"><ele>74.0</ele><time>2026-05-03T09:53:10.132Z</time></trkpt><trkpt lat="45.9836398" lon="13.4951537"><ele>72.0</ele><time>2026-05-03T09:53:11.116Z</time></trkpt><trkpt lat="45.9837305" lon="13.4949404"><ele>70.0</ele><time>2026-05-03T09:53:12.127Z</time></trkpt><trkpt lat="45.9838047" lon="13.4947022"><ele>70.33333333333333</ele><time>2026-05-03T09:53:13.118Z</time></trkpt><trkpt lat="45.983861" lon="13.4944657"><ele>70.66666666666667</ele><time>2026-05-03T09:53:14.112Z</time></trkpt><trkpt lat="45.9839151" lon="13.4942109"><ele>71.0</ele><time>2026-05-03T09:53:15.116Z</time></trkpt><trkpt lat="45.9839706" lon="13.4939517"><ele>71.33333333333334</ele><time>2026-05-03T09:53:16.113Z</time></trkpt><trkpt lat="45.9840263" lon="13.4937089"><ele>71.66666666666667</ele><time>2026-05-03T09:53:17.12Z</time></trkpt><trkpt lat="45.9840804" lon="13.4934865"><ele>72.0</ele><time>2026-05-03T09:53:18.119Z</time></trkpt><trkpt lat="45.9841266" lon="13.4932876"><ele>72.0</ele><time>2026-05-03T09:53:19.128Z</time></trkpt><trkpt lat="45.9841661" lon="13.4931147"><ele>72.0</ele><time>2026-05-03T09:53:20.122Z</time></trkpt><trkpt lat="45.9841989" lon="13.4929678"><ele>72.0</ele><time>2026-05-03T09:53:21.125Z</time></trkpt><trkpt lat="45.9842262" lon="13.4928474"><ele>72.0</ele><time>2026-05-03T09:53:22.126Z</time></trkpt><trkpt lat="45.9843085" lon="13.4927048"><ele>73.8</ele><time>2026-05-03T09:53:24.112Z</time></trkpt><trkpt lat="45.984373" lon="13.4926648"><ele>75.6</ele><time>2026-05-03T09:53:25.127Z</time></trkpt><trkpt lat="45.9844687" lon="13.4926343"><ele>77.39999999999999</ele><time>2026-05-03T09:53:26.117Z</time></trkpt><trkpt lat="45.9845847" lon="13.4926135"><ele>79.2</ele><time>2026-05-03T09:53:27.121Z</time></trkpt><trkpt lat="45.9847082" lon="13.4925906"><ele>81.0</ele><time>2026-05-03T09:53:28.12Z</time></trkpt><trkpt lat="45.984809" lon="13.4925508"><ele>81.0</ele><time>2026-05-03T09:53:29.11Z</time></trkpt><trkpt lat="45.9848898" lon="13.4924743"><ele>81.0</ele><time>2026-05-03T09:53:30.145Z</time></trkpt><trkpt lat="45.9849522" lon="13.4923668"><ele>81.0</ele><time>2026-05-03T09:53:31.114Z</time></trkpt><trkpt lat="45.984992" lon="13.4922177"><ele>81.0</ele><time>2026-05-03T09:53:32.118Z</time></trkpt><trkpt lat="45.9849908" lon="13.4920521"><ele>81.0</ele><time>2026-05-03T09:53:33.118Z</time></trkpt><trkpt lat="45.9849518" lon="13.4918933"><ele>82.4</ele><time>2026-05-03T09:53:34.12Z</time></trkpt><trkpt lat="45.9848746" lon="13.4917651"><ele>83.8</ele><time>2026-05-03T09:53:35.119Z</time></trkpt><trkpt lat="45.9847813" lon="13.4916486"><ele>85.2</ele><time>2026-05-03T09:53:36.118Z</time></trkpt><trkpt lat="45.9846968" lon="13.4915428"><ele>86.60000000000001</ele><time>2026-05-03T09:53:37.128Z</time></trkpt><trkpt lat="45.9846682" lon="13.4914339"><ele>88.0</ele><time>2026-05-03T09:53:38.151Z</time></trkpt><trkpt lat="45.9847075" lon="13.491327"><ele>88.75</ele><time>2026-05-03T09:53:39.139Z</time></trkpt><trkpt lat="45.9847735" lon="13.4912241"><ele>89.5</ele><time>2026-05-03T09:53:40.128Z</time></trkpt><trkpt lat="45.9848654" lon="13.4911074"><ele>90.25</ele><time>2026-05-03T09:53:41.123Z</time></trkpt><trkpt lat="45.9849736" lon="13.4909674"><ele>91.0</ele><time>2026-05-03T09:53:42.128Z</time></trkpt><trkpt lat="45.9850882" lon="13.4908065"><ele>91.0</ele><time>2026-05-03T09:53:43.123Z</time></trkpt><trkpt lat="45.9852128" lon="13.4906402"><ele>91.0</ele><time>2026-05-03T09:53:44.126Z</time></trkpt><trkpt lat="45.9853475" lon="13.4904527"><ele>91.0</ele><time>2026-05-03T09:53:45.13Z</time></trkpt><trkpt lat="45.9854805" lon="13.4902367"><ele>92.33333333333333</ele><time>2026-05-03T09:53:46.137Z</time></trkpt><trkpt lat="45.9856059" lon="13.4900076"><ele>93.66666666666667</ele><time>2026-05-03T09:53:47.127Z</time></trkpt><trkpt lat="45.9857253" lon="13.4897883"><ele>95.0</ele><time>2026-05-03T09:53:48.123Z</time></trkpt><trkpt lat="45.9858383" lon="13.4896014"><ele>97.25</ele><time>2026-05-03T09:53:49.14Z</time></trkpt><trkpt lat="45.9859459" lon="13.4894507"><ele>99.5</ele><time>2026-05-03T09:53:50.128Z</time></trkpt><trkpt lat="45.9860494" lon="13.4893465"><ele>101.75</ele><time>2026-05-03T09:53:51.129Z</time></trkpt><trkpt lat="45.9861745" lon="13.4892854"><ele>104.0</ele><time>2026-05-03T09:53:52.116Z</time></trkpt><trkpt lat="45.9863193" lon="13.4892507"><ele>104.0</ele><time>2026-05-03T09:53:53.126Z</time></trkpt><trkpt lat="45.9864821" lon="13.4892266"><ele>104.0</ele><time>2026-05-03T09:53:54.122Z</time></trkpt><trkpt lat="45.9866346" lon="13.4892077"><ele>104.0</ele><time>2026-05-03T09:53:55.127Z</time></trkpt><trkpt lat="45.9867644" lon="13.4891779"><ele>104.0</ele><time>2026-05-03T09:53:56.124Z</time></trkpt><trkpt lat="45.986877" lon="13.4891232"><ele>105.75</ele><time>2026-05-03T09:53:57.142Z</time></trkpt><trkpt lat="45.9869639" lon="13.4890345"><ele>107.5</ele><time>2026-05-03T09:53:58.12Z</time></trkpt><trkpt lat="45.9870253" lon="13.4888951"><ele>109.25</ele><time>2026-05-03T09:53:59.119Z</time></trkpt><trkpt lat="45.9870651" lon="13.4887235"><ele>111.0</ele><time>2026-05-03T09:54:00.113Z</time></trkpt><trkpt lat="45.9871012" lon="13.4885831"><ele>111.0</ele><time>2026-05-03T09:54:01.121Z</time></trkpt><trkpt lat="45.987153" lon="13.4885063"><ele>111.0</ele><time>2026-05-03T09:54:02.13Z</time></trkpt><trkpt lat="45.9872341" lon="13.4884621"><ele>111.0</ele><time>2026-05-03T09:54:03.126Z</time></trkpt><trkpt lat="45.9873435" lon="13.4884591"><ele>111.0</ele><time>2026-05-03T09:54:04.123Z</time></trkpt><trkpt lat="45.987469" lon="13.4884774"><ele>111.0</ele><time>2026-05-03T09:54:05.121Z</time></trkpt><trkpt lat="45.9876" lon="13.4884976"><ele>114.6</ele><time>2026-05-03T09:54:06.132Z</time></trkpt><trkpt lat="45.9876814" lon="13.4885212"><ele>118.19999999999999</ele><time>2026-05-03T09:54:07.124Z</time></trkpt><trkpt lat="45.9877466" lon="13.488666"><ele>121.80000000000001</ele><time>2026-05-03T09:54:09.106Z</time></trkpt><trkpt lat="45.9877171" lon="13.488751"><ele>125.4</ele><time>2026-05-03T09:54:10.121Z</time></trkpt><trkpt lat="45.9876348" lon="13.4887793"><ele>129.0</ele><time>2026-05-03T09:54:11.112Z</time></trkpt><trkpt lat="45.9875253" lon="13.4887767"><ele>130.2</ele><time>2026-05-03T09:54:12.107Z</time></trkpt><trkpt lat="45.987446" lon="13.4887987"><ele>131.4</ele><time>2026-05-03T09:54:13.135Z</time></trkpt><trkpt lat="45.9874091" lon="13.4888749"><ele>132.6</ele><time>2026-05-03T09:54:14.12Z</time></trkpt><trkpt lat="45.9874223" lon="13.4889717"><ele>133.8</ele><time>2026-05-03T09:54:15.118Z</time></trkpt><trkpt lat="45.9875505" lon="13.4890221"><ele>135.0</ele><time>2026-05-03T09:54:17.119Z</time></trkpt><trkpt lat="45.9876532" lon="13.4889674"><ele>135.0</ele><time>2026-05-03T09:54:18.12Z</time></trkpt><trkpt lat="45.9877699" lon="13.4889218"><ele>135.0</ele><time>2026-05-03T09:54:19.128Z</time></trkpt><trkpt lat="45.9878891" lon="13.4888667"><ele>135.0</ele><time>2026-05-03T09:54:20.126Z</time></trkpt><trkpt lat="45.9880092" lon="13.4887872"><ele>135.0</ele><time>2026-05-03T09:54:21.12Z</time></trkpt><trkpt lat="45.9881165" lon="13.4886651"><ele>134.5</ele><time>2026-05-03T09:54:22.125Z</time></trkpt><trkpt lat="45.9882165" lon="13.4885162"><ele>134.0</ele><time>2026-05-03T09:54:23.121Z</time></trkpt><trkpt lat="45.9883052" lon="13.4883917"><ele>133.5</ele><time>2026-05-03T09:54:24.129Z</time></trkpt><trkpt lat="45.9883964" lon="13.4883095"><ele>133.0</ele><time>2026-05-03T09:54:25.127Z</time></trkpt><trkpt lat="45.9884986" lon="13.4882402"><ele>133.0</ele><time>2026-05-03T09:54:26.121Z</time></trkpt><trkpt lat="45.9886088" lon="13.4881803"><ele>133.0</ele><time>2026-05-03T09:54:27.128Z</time></trkpt><trkpt lat="45.988744" lon="13.4881599"><ele>133.0</ele><time>2026-05-03T09:54:28.106Z</time></trkpt><trkpt lat="45.9888869" lon="13.4881532"><ele>133.0</ele><time>2026-05-03T09:54:29.106Z</time></trkpt><trkpt lat="45.9890023" lon="13.4881375"><ele>133.0</ele><time>2026-05-03T09:54:30.126Z</time></trkpt><trkpt lat="45.9891025" lon="13.488071"><ele>133.0</ele><time>2026-05-03T09:54:31.114Z</time></trkpt><trkpt lat="45.9892033" lon="13.4879534"><ele>133.0</ele><time>2026-05-03T09:54:32.107Z</time></trkpt><trkpt lat="45.9893009" lon="13.4878059"><ele>133.0</ele><time>2026-05-03T09:54:33.116Z</time></trkpt><trkpt lat="45.9894011" lon="13.4876527"><ele>136.75</ele><time>2026-05-03T09:54:34.099Z</time></trkpt><trkpt lat="45.9894893" lon="13.4874948"><ele>140.5</ele><time>2026-05-03T09:54:35.118Z</time></trkpt><trkpt lat="45.9895526" lon="13.4873299"><ele>144.25</ele><time>2026-05-03T09:54:36.123Z</time></trkpt><trkpt lat="45.9896018" lon="13.4871318"><ele>148.0</ele><time>2026-05-03T09:54:37.134Z</time></trkpt><trkpt lat="45.9896417" lon="13.4869355"><ele>148.0</ele><time>2026-05-03T09:54:38.121Z</time></trkpt><trkpt lat="45.9896947" lon="13.4867565"><ele>148.0</ele><time>2026-05-03T09:54:39.139Z</time></trkpt><trkpt lat="45.98976" lon="13.4866022"><ele>148.0</ele><time>2026-05-03T09:54:40.122Z</time></trkpt><trkpt lat="45.9898399" lon="13.4864398"><ele>148.0</ele><time>2026-05-03T09:54:41.126Z</time></trkpt><trkpt lat="45.9899294" lon="13.4862551"><ele>148.25</ele><time>2026-05-03T09:54:42.131Z</time></trkpt><trkpt lat="45.9900186" lon="13.4860667"><ele>148.5</ele><time>2026-05-03T09:54:43.13Z</time></trkpt><trkpt lat="45.9901023" lon="13.4858961"><ele>148.75</ele><time>2026-05-03T09:54:44.11Z</time></trkpt><trkpt lat="45.9901818" lon="13.4857422"><ele>149.0</ele><time>2026-05-03T09:54:45.123Z</time></trkpt><trkpt lat="45.99027" lon="13.4855886"><ele>148.33333333333331</ele><time>2026-05-03T09:54:46.144Z</time></trkpt><trkpt lat="45.9903711" lon="13.4854282"><ele>147.66666666666666</ele><time>2026-05-03T09:54:47.131Z</time></trkpt><trkpt lat="45.9904838" lon="13.4852607"><ele>147.0</ele><time>2026-05-03T09:54:48.122Z</time></trkpt><trkpt lat="45.9906003" lon="13.4850677"><ele>147.0</ele><time>2026-05-03T09:54:49.133Z</time></trkpt><trkpt lat="45.9907089" lon="13.4848665"><ele>147.0</ele><time>2026-05-03T09:54:50.131Z</time></trkpt><trkpt lat="45.990809" lon="13.4846554"><ele>147.0</ele><time>2026-05-03T09:54:51.126Z</time></trkpt><trkpt lat="45.990901" lon="13.4844506"><ele>146.0</ele><time>2026-05-03T09:54:52.125Z</time></trkpt><trkpt lat="45.9909944" lon="13.4842471"><ele>145.0</ele><time>2026-05-03T09:54:53.125Z</time></trkpt><trkpt lat="45.9910909" lon="13.484053"><ele>144.0</ele><time>2026-05-03T09:54:54.137Z</time></trkpt><trkpt lat="45.9911926" lon="13.4838615"><ele>143.33333333333334</ele><time>2026-05-03T09:54:55.133Z</time></trkpt><trkpt lat="45.9912922" lon="13.4836785"><ele>142.66666666666669</ele><time>2026-05-03T09:54:56.129Z</time></trkpt><trkpt lat="45.991381" lon="13.4834738"><ele>142.0</ele><time>2026-05-03T09:54:57.142Z</time></trkpt><trkpt lat="45.9914532" lon="13.4832598"><ele>142.0</ele><time>2026-05-03T09:54:58.127Z</time></trkpt><trkpt lat="45.9915164" lon="13.4830614"><ele>142.0</ele><time>2026-05-03T09:54:59.118Z</time></trkpt><trkpt lat="45.9915708" lon="13.4828728"><ele>142.0</ele><time>2026-05-03T09:55:00.12Z</time></trkpt><trkpt lat="45.9916201" lon="13.482702"><ele>142.0</ele><time>2026-05-03T09:55:01.116Z</time></trkpt><trkpt lat="45.9916652" lon="13.482543"><ele>144.25</ele><time>2026-05-03T09:55:02.132Z</time></trkpt><trkpt lat="45.9917108" lon="13.4823919"><ele>146.5</ele><time>2026-05-03T09:55:03.136Z</time></trkpt><trkpt lat="45.9917569" lon="13.4822343"><ele>148.75</ele><time>2026-05-03T09:55:04.125Z</time></trkpt><trkpt lat="45.9917998" lon="13.4820683"><ele>151.0</ele><time>2026-05-03T09:55:05.123Z</time></trkpt><trkpt lat="45.9918329" lon="13.4818961"><ele>153.8</ele><time>2026-05-03T09:55:06.126Z</time></trkpt><trkpt lat="45.9918491" lon="13.4817423"><ele>156.6</ele><time>2026-05-03T09:55:07.124Z</time></trkpt><trkpt lat="45.9918454" lon="13.4816134"><ele>159.4</ele><time>2026-05-03T09:55:08.122Z</time></trkpt><trkpt lat="45.9918282" lon="13.4815132"><ele>162.2</ele><time>2026-05-03T09:55:09.127Z</time></trkpt><trkpt lat="45.9918025" lon="13.4813611"><ele>165.0</ele><time>2026-05-03T09:55:11.132Z</time></trkpt><trkpt lat="45.9917914" lon="13.4811724"><ele>168.5</ele><time>2026-05-03T09:55:13.124Z</time></trkpt><trkpt lat="45.9918042" lon="13.4810266"><ele>172.0</ele><time>2026-05-03T09:55:14.155Z</time></trkpt><trkpt lat="45.9918306" lon="13.4808683"><ele>175.5</ele><time>2026-05-03T09:55:15.121Z</time></trkpt><trkpt lat="45.9918731" lon="13.4806937"><ele>179.0</ele><time>2026-05-03T09:55:16.136Z</time></trkpt><trkpt lat="45.9919351" lon="13.4805387"><ele>178.25</ele><time>2026-05-03T09:55:17.13Z</time></trkpt><trkpt lat="45.9920067" lon="13.480419"><ele>177.5</ele><time>2026-05-03T09:55:18.129Z</time></trkpt><trkpt lat="45.9920864" lon="13.4803236"><ele>176.75</ele><time>2026-05-03T09:55:19.113Z</time></trkpt><trkpt lat="45.9921766" lon="13.4802158"><ele>176.0</ele><time>2026-05-03T09:55:20.119Z</time></trkpt><trkpt lat="45.992265" lon="13.4800839"><ele>176.0</ele><time>2026-05-03T09:55:21.132Z</time></trkpt><trkpt lat="45.9923466" lon="13.479916"><ele>176.0</ele><time>2026-05-03T09:55:22.162Z</time></trkpt><trkpt lat="45.9924273" lon="13.4797378"><ele>176.0</ele><time>2026-05-03T09:55:23.124Z</time></trkpt><trkpt lat="45.9925061" lon="13.4795749"><ele>176.0</ele><time>2026-05-03T09:55:24.125Z</time></trkpt><trkpt lat="45.9925872" lon="13.4794322"><ele>172.75</ele><time>2026-05-03T09:55:25.12Z</time></trkpt><trkpt lat="45.9926785" lon="13.4793051"><ele>169.5</ele><time>2026-05-03T09:55:26.12Z</time></trkpt><trkpt lat="45.9927976" lon="13.4792005"><ele>166.25</ele><time>2026-05-03T09:55:27.128Z</time></trkpt><trkpt lat="45.9929384" lon="13.4790996"><ele>163.0</ele><time>2026-05-03T09:55:28.125Z</time></trkpt><trkpt lat="45.9930948" lon="13.4789755"><ele>163.0</ele><time>2026-05-03T09:55:29.133Z</time></trkpt><trkpt lat="45.9932585" lon="13.4788457"><ele>163.0</ele><time>2026-05-03T09:55:30.133Z</time></trkpt><trkpt lat="45.9934232" lon="13.4787087"><ele>163.0</ele><time>2026-05-03T09:55:31.133Z</time></trkpt><trkpt lat="45.9935845" lon="13.4785905"><ele>164.0</ele><time>2026-05-03T09:55:32.127Z</time></trkpt><trkpt lat="45.9937539" lon="13.4785129"><ele>165.0</ele><time>2026-05-03T09:55:33.134Z</time></trkpt><trkpt lat="45.9939107" lon="13.4784598"><ele>166.0</ele><time>2026-05-03T09:55:34.141Z</time></trkpt><trkpt lat="45.9940532" lon="13.478373"><ele>167.0</ele><time>2026-05-03T09:55:35.137Z</time></trkpt><trkpt lat="45.9941901" lon="13.4782365"><ele>168.0</ele><time>2026-05-03T09:55:36.132Z</time></trkpt><trkpt lat="45.9943273" lon="13.4780741"><ele>169.0</ele><time>2026-05-03T09:55:37.137Z</time></trkpt><trkpt lat="45.994458" lon="13.4779172"><ele>169.0</ele><time>2026-05-03T09:55:38.148Z</time></trkpt><trkpt lat="45.9945923" lon="13.4777677"><ele>169.0</ele><time>2026-05-03T09:55:39.124Z</time></trkpt><trkpt lat="45.9947414" lon="13.4776437"><ele>169.0</ele><time>2026-05-03T09:55:40.125Z</time></trkpt><trkpt lat="45.9949104" lon="13.4775452"><ele>170.33333333333334</ele><time>2026-05-03T09:55:41.127Z</time></trkpt><trkpt lat="45.9950984" lon="13.4774795"><ele>171.66666666666666</ele><time>2026-05-03T09:55:42.121Z</time></trkpt><trkpt lat="45.9952988" lon="13.4774243"><ele>173.0</ele><time>2026-05-03T09:55:43.137Z</time></trkpt><trkpt lat="45.9955008" lon="13.4773738"><ele>173.0</ele><time>2026-05-03T09:55:44.133Z</time></trkpt><trkpt lat="45.9956936" lon="13.4773255"><ele>173.0</ele><time>2026-05-03T09:55:45.137Z</time></trkpt><trkpt lat="45.995868" lon="13.4772817"><ele>173.0</ele><time>2026-05-03T09:55:46.132Z</time></trkpt><trkpt lat="45.9960229" lon="13.4772258"><ele>172.5</ele><time>2026-05-03T09:55:47.135Z</time></trkpt><trkpt lat="45.996171" lon="13.4771706"><ele>172.0</ele><time>2026-05-03T09:55:48.127Z</time></trkpt><trkpt lat="45.9963032" lon="13.4771143"><ele>171.5</ele><time>2026-05-03T09:55:49.137Z</time></trkpt><trkpt lat="45.9964166" lon="13.4770518"><ele>171.0</ele><time>2026-05-03T09:55:50.124Z</time></trkpt><trkpt lat="45.9965227" lon="13.4769926"><ele>171.0</ele><time>2026-05-03T09:55:51.131Z</time></trkpt><trkpt lat="45.9966286" lon="13.4769359"><ele>171.0</ele><time>2026-05-03T09:55:52.133Z</time></trkpt><trkpt lat="45.9967262" lon="13.476862"><ele>171.0</ele><time>2026-05-03T09:55:53.141Z</time></trkpt><trkpt lat="45.9968147" lon="13.476743"><ele>171.0</ele><time>2026-05-03T09:55:54.139Z</time></trkpt><trkpt lat="45.9968935" lon="13.4766055"><ele>167.4</ele><time>2026-05-03T09:55:55.123Z</time></trkpt><trkpt lat="45.9969651" lon="13.476467"><ele>163.8</ele><time>2026-05-03T09:55:56.138Z</time></trkpt><trkpt lat="45.997023" lon="13.4763378"><ele>160.20000000000002</ele><time>2026-05-03T09:55:57.135Z</time></trkpt><trkpt lat="45.9970573" lon="13.4762129"><ele>156.60000000000002</ele><time>2026-05-03T09:55:58.139Z</time></trkpt><trkpt lat="45.9970712" lon="13.4760973"><ele>153.0</ele><time>2026-05-03T09:55:59.127Z</time></trkpt><trkpt lat="45.997079" lon="13.4759979"><ele>153.0</ele><time>2026-05-03T09:56:00.133Z</time></trkpt><trkpt lat="45.9971446" lon="13.4758981"><ele>153.0</ele><time>2026-05-03T09:56:02.129Z</time></trkpt><trkpt lat="45.9972026" lon="13.4759395"><ele>153.0</ele><time>2026-05-03T09:56:03.132Z</time></trkpt><trkpt lat="45.9972342" lon="13.4760606"><ele>153.0</ele><time>2026-05-03T09:56:04.128Z</time></trkpt><trkpt lat="45.9972588" lon="13.4762039"><ele>153.0</ele><time>2026-05-03T09:56:05.123Z</time></trkpt><trkpt lat="45.9972926" lon="13.4763552"><ele>153.0</ele><time>2026-05-03T09:56:06.116Z</time></trkpt><trkpt lat="45.9973415" lon="13.476499"><ele>153.0</ele><time>2026-05-03T09:56:07.131Z</time></trkpt><trkpt lat="45.9974027" lon="13.4766438"><ele>153.0</ele><time>2026-05-03T09:56:08.127Z</time></trkpt><trkpt lat="45.9974721" lon="13.4767863"><ele>153.0</ele><time>2026-05-03T09:56:09.125Z</time></trkpt><trkpt lat="45.9975446" lon="13.4769314"><ele>150.5</ele><time>2026-05-03T09:56:10.131Z</time></trkpt><trkpt lat="45.9976184" lon="13.4770972"><ele>148.0</ele><time>2026-05-03T09:56:11.132Z</time></trkpt><trkpt lat="45.9976768" lon="13.4772881"><ele>145.5</ele><time>2026-05-03T09:56:12.125Z</time></trkpt><trkpt lat="45.9977082" lon="13.477487"><ele>143.0</ele><time>2026-05-03T09:56:13.129Z</time></trkpt><trkpt lat="45.9977305" lon="13.4776689"><ele>143.0</ele><time>2026-05-03T09:56:14.111Z</time></trkpt><trkpt lat="45.9977901" lon="13.4778153"><ele>143.0</ele><time>2026-05-03T09:56:15.129Z</time></trkpt><trkpt lat="45.9978857" lon="13.4779476"><ele>143.0</ele><time>2026-05-03T09:56:16.106Z</time></trkpt><trkpt lat="45.9979998" lon="13.4780743"><ele>143.0</ele><time>2026-05-03T09:56:17.101Z</time></trkpt><trkpt lat="45.998105" lon="13.4782062"><ele>144.4</ele><time>2026-05-03T09:56:18.1Z</time></trkpt><trkpt lat="45.998184" lon="13.4783202"><ele>145.8</ele><time>2026-05-03T09:56:19.113Z</time></trkpt><trkpt lat="45.9982302" lon="13.4784341"><ele>147.2</ele><time>2026-05-03T09:56:20.112Z</time></trkpt><trkpt lat="45.9982433" lon="13.4785906"><ele>148.6</ele><time>2026-05-03T09:56:21.113Z</time></trkpt><trkpt lat="45.998232" lon="13.4787752"><ele>150.0</ele><time>2026-05-03T09:56:22.119Z</time></trkpt><trkpt lat="45.9982051" lon="13.47899"><ele>150.66666666666666</ele><time>2026-05-03T09:56:23.11Z</time></trkpt><trkpt lat="45.9981484" lon="13.4792159"><ele>151.33333333333331</ele><time>2026-05-03T09:56:24.125Z</time></trkpt><trkpt lat="45.9980782" lon="13.479447"><ele>152.0</ele><time>2026-05-03T09:56:25.118Z</time></trkpt><trkpt lat="45.9980125" lon="13.4796594"><ele>150.75</ele><time>2026-05-03T09:56:26.118Z</time></trkpt><trkpt lat="45.9979629" lon="13.4798262"><ele>149.5</ele><time>2026-05-03T09:56:27.115Z</time></trkpt><trkpt lat="45.9979341" lon="13.4799878"><ele>148.25</ele><time>2026-05-03T09:56:28.114Z</time></trkpt><trkpt lat="45.9979181" lon="13.4801527"><ele>147.0</ele><time>2026-05-03T09:56:29.122Z</time></trkpt><trkpt lat="45.9979238" lon="13.4803446"><ele>147.5</ele><time>2026-05-03T09:56:30.104Z</time></trkpt><trkpt lat="45.9979386" lon="13.4805484"><ele>148.0</ele><time>2026-05-03T09:56:31.122Z</time></trkpt><trkpt lat="45.9979325" lon="13.4807546"><ele>148.5</ele><time>2026-05-03T09:56:32.109Z</time></trkpt><trkpt lat="45.9979068" lon="13.4809522"><ele>149.0</ele><time>2026-05-03T09:56:33.109Z</time></trkpt><trkpt lat="45.9978693" lon="13.4811439"><ele>147.75</ele><time>2026-05-03T09:56:34.128Z</time></trkpt><trkpt lat="45.9978384" lon="13.4813346"><ele>146.5</ele><time>2026-05-03T09:56:35.122Z</time></trkpt><trkpt lat="45.9978155" lon="13.4815283"><ele>145.25</ele><time>2026-05-03T09:56:36.128Z</time></trkpt><trkpt lat="45.9978009" lon="13.4817251"><ele>144.0</ele><time>2026-05-03T09:56:37.117Z</time></trkpt><trkpt lat="45.9977908" lon="13.481923"><ele>142.25</ele><time>2026-05-03T09:56:38.126Z</time></trkpt><trkpt lat="45.9977851" lon="13.4821165"><ele>140.5</ele><time>2026-05-03T09:56:39.111Z</time></trkpt><trkpt lat="45.9977806" lon="13.4823115"><ele>138.75</ele><time>2026-05-03T09:56:40.119Z</time></trkpt><trkpt lat="45.9977677" lon="13.4825027"><ele>137.0</ele><time>2026-05-03T09:56:41.132Z</time></trkpt><trkpt lat="45.997741" lon="13.4826803"><ele>137.0</ele><time>2026-05-03T09:56:42.115Z</time></trkpt><trkpt lat="45.9977134" lon="13.4828456"><ele>137.0</ele><time>2026-05-03T09:56:43.13Z</time></trkpt><trkpt lat="45.9977077" lon="13.4830086"><ele>137.0</ele><time>2026-05-03T09:56:44.118Z</time></trkpt><trkpt lat="45.9977397" lon="13.483205"><ele>137.0</ele><time>2026-05-03T09:56:45.129Z</time></trkpt><trkpt lat="45.9978022" lon="13.4834206"><ele>134.33333333333331</ele><time>2026-05-03T09:56:46.109Z</time></trkpt><trkpt lat="45.9978684" lon="13.483651"><ele>131.66666666666666</ele><time>2026-05-03T09:56:47.12Z</time></trkpt><trkpt lat="45.9979276" lon="13.4838811"><ele>129.0</ele><time>2026-05-03T09:56:48.122Z</time></trkpt><trkpt lat="45.9979813" lon="13.4840808"><ele>127.2</ele><time>2026-05-03T09:56:49.107Z</time></trkpt><trkpt lat="45.9980315" lon="13.4842524"><ele>125.4</ele><time>2026-05-03T09:56:50.119Z</time></trkpt><trkpt lat="45.9980778" lon="13.48439"><ele>123.6</ele><time>2026-05-03T09:56:51.118Z</time></trkpt><trkpt lat="45.9981271" lon="13.4844976"><ele>121.8</ele><time>2026-05-03T09:56:52.115Z</time></trkpt><trkpt lat="45.9981612" lon="13.4845842"><ele>120.0</ele><time>2026-05-03T09:56:53.12Z</time></trkpt><trkpt lat="45.9981664" lon="13.4846874"><ele>118.8</ele><time>2026-05-03T09:56:54.123Z</time></trkpt><trkpt lat="45.998146" lon="13.4848024"><ele>117.6</ele><time>2026-05-03T09:56:55.111Z</time></trkpt><trkpt lat="45.998111" lon="13.4849473"><ele>116.4</ele><time>2026-05-03T09:56:56.118Z</time></trkpt><trkpt lat="45.9980736" lon="13.485112"><ele>115.2</ele><time>2026-05-03T09:56:57.111Z</time></trkpt><trkpt lat="45.998026" lon="13.4853017"><ele>114.0</ele><time>2026-05-03T09:56:58.11Z</time></trkpt><trkpt lat="45.9979692" lon="13.4855052"><ele>113.66666666666666</ele><time>2026-05-03T09:56:59.114Z</time></trkpt><trkpt lat="45.9978993" lon="13.4857267"><ele>113.33333333333333</ele><time>2026-05-03T09:57:00.107Z</time></trkpt><trkpt lat="45.9978232" lon="13.4859863"><ele>113.0</ele><time>2026-05-03T09:57:01.112Z</time></trkpt><trkpt lat="45.9977546" lon="13.4862534"><ele>114.0</ele><time>2026-05-03T09:57:02.114Z</time></trkpt><trkpt lat="45.9976831" lon="13.4865176"><ele>115.0</ele><time>2026-05-03T09:57:03.107Z</time></trkpt><trkpt lat="45.9976068" lon="13.4867812"><ele>116.0</ele><time>2026-05-03T09:57:04.118Z</time></trkpt><trkpt lat="45.9975217" lon="13.4870454"><ele>116.0</ele><time>2026-05-03T09:57:05.118Z</time></trkpt><trkpt lat="45.9974299" lon="13.4873117"><ele>116.0</ele><time>2026-05-03T09:57:06.1Z</time></trkpt><trkpt lat="45.997344" lon="13.4875734"><ele>116.0</ele><time>2026-05-03T09:57:07.123Z</time></trkpt><trkpt lat="45.997258" lon="13.4878127"><ele>114.0</ele><time>2026-05-03T09:57:08.104Z</time></trkpt><trkpt lat="45.9971729" lon="13.4880207"><ele>112.0</ele><time>2026-05-03T09:57:09.106Z</time></trkpt><trkpt lat="45.9970966" lon="13.4882086"><ele>110.0</ele><time>2026-05-03T09:57:10.117Z</time></trkpt><trkpt lat="45.9970398" lon="13.4883899"><ele>110.0</ele><time>2026-05-03T09:57:11.125Z</time></trkpt><trkpt lat="45.9970121" lon="13.4885785"><ele>110.0</ele><time>2026-05-03T09:57:12.125Z</time></trkpt><trkpt lat="45.9970258" lon="13.4887713"><ele>110.0</ele><time>2026-05-03T09:57:13.113Z</time></trkpt><trkpt lat="45.9970775" lon="13.4889454"><ele>110.0</ele><time>2026-05-03T09:57:14.103Z</time></trkpt><trkpt lat="45.9971285" lon="13.4890796"><ele>109.99999999999999</ele><time>2026-05-03T09:57:15.104Z</time></trkpt><trkpt lat="45.9971597" lon="13.4891679"><ele>110.0</ele><time>2026-05-03T09:57:16.108Z</time></trkpt><trkpt lat="45.9972307" lon="13.4891476"><ele>110.0</ele><time>2026-05-03T09:57:19.103Z</time></trkpt><trkpt lat="45.9972146" lon="13.4890427"><ele>110.0</ele><time>2026-05-03T09:57:21.105Z</time></trkpt><trkpt lat="45.9971922" lon="13.4889558"><ele>110.0</ele><time>2026-05-03T09:57:23.104Z</time></trkpt><trkpt lat="45.9971589" lon="13.4888504"><ele>109.99999999999999</ele><time>2026-05-03T09:57:26.106Z</time></trkpt><trkpt lat="45.9971425" lon="13.48875"><ele>110.0</ele><time>2026-05-03T09:57:29.107Z</time></trkpt><trkpt lat="45.997136" lon="13.4886322"><ele>109.99999999999999</ele><time>2026-05-03T09:57:33.115Z</time></trkpt><trkpt lat="45.9971471" lon="13.4884834"><ele>110.0</ele><time>2026-05-03T09:57:35.109Z</time></trkpt><trkpt lat="45.9972021" lon="13.4883647"><ele>110.0</ele><time>2026-05-03T09:57:37.113Z</time></trkpt><trkpt lat="45.9972877" lon="13.4883352"><ele>110.0</ele><time>2026-05-03T09:57:39.102Z</time></trkpt><trkpt lat="45.9973585" lon="13.4883592"><ele>109.99999999999999</ele><time>2026-05-03T09:57:40.103Z</time></trkpt><trkpt lat="45.997439" lon="13.4883968"><ele>110.0</ele><time>2026-05-03T09:57:41.112Z</time></trkpt><trkpt lat="45.9975261" lon="13.4884369"><ele>107.4</ele><time>2026-05-03T09:57:42.108Z</time></trkpt><trkpt lat="45.9976171" lon="13.4884787"><ele>104.8</ele><time>2026-05-03T09:57:43.111Z</time></trkpt><trkpt lat="45.9977121" lon="13.4885116"><ele>102.19999999999999</ele><time>2026-05-03T09:57:44.095Z</time></trkpt><trkpt lat="45.9978123" lon="13.4885237"><ele>99.6</ele><time>2026-05-03T09:57:45.108Z</time></trkpt><trkpt lat="45.9979109" lon="13.4885277"><ele>97.0</ele><time>2026-05-03T09:57:46.107Z</time></trkpt><trkpt lat="45.9980092" lon="13.4885278"><ele>97.00000000000001</ele><time>2026-05-03T09:57:47.106Z</time></trkpt><trkpt lat="45.9980961" lon="13.488526"><ele>97.0</ele><time>2026-05-03T09:57:48.102Z</time></trkpt><trkpt lat="45.9981705" lon="13.4885038"><ele>97.0</ele><time>2026-05-03T09:57:49.098Z</time></trkpt><trkpt lat="45.9982426" lon="13.4884605"><ele>97.0</ele><time>2026-05-03T09:57:50.112Z</time></trkpt><trkpt lat="45.9983176" lon="13.4883975"><ele>97.00000000000001</ele><time>2026-05-03T09:57:51.109Z</time></trkpt><trkpt lat="45.9983889" lon="13.4883345"><ele>97.0</ele><time>2026-05-03T09:57:52.141Z</time></trkpt><trkpt lat="45.9984643" lon="13.4882694"><ele>94.16666666666667</ele><time>2026-05-03T09:57:53.116Z</time></trkpt><trkpt lat="45.9985329" lon="13.4882144"><ele>91.33333333333334</ele><time>2026-05-03T09:57:54.115Z</time></trkpt><trkpt lat="45.9985955" lon="13.488193"><ele>88.5</ele><time>2026-05-03T09:57:55.112Z</time></trkpt><trkpt lat="45.9986724" lon="13.4882037"><ele>85.66666666666667</ele><time>2026-05-03T09:57:56.108Z</time></trkpt><trkpt lat="45.9987717" lon="13.488232"><ele>82.83333333333334</ele><time>2026-05-03T09:57:57.102Z</time></trkpt><trkpt lat="45.998863" lon="13.4882551"><ele>80.0</ele><time>2026-05-03T09:57:58.121Z</time></trkpt><trkpt lat="45.9989423" lon="13.4882837"><ele>80.0</ele><time>2026-05-03T09:57:59.114Z</time></trkpt><trkpt lat="45.9990182" lon="13.488342"><ele>80.0</ele><time>2026-05-03T09:58:00.126Z</time></trkpt><trkpt lat="45.999097" lon="13.4884223"><ele>80.0</ele><time>2026-05-03T09:58:01.109Z</time></trkpt><trkpt lat="45.9991823" lon="13.4885397"><ele>80.0</ele><time>2026-05-03T09:58:02.109Z</time></trkpt><trkpt lat="45.9992726" lon="13.4886926"><ele>80.0</ele><time>2026-05-03T09:58:03.113Z</time></trkpt><trkpt lat="45.9993656" lon="13.4888485"><ele>78.25</ele><time>2026-05-03T09:58:04.108Z</time></trkpt><trkpt lat="45.9994548" lon="13.4890064"><ele>76.5</ele><time>2026-05-03T09:58:05.111Z</time></trkpt><trkpt lat="45.9995368" lon="13.4891352"><ele>74.75</ele><time>2026-05-03T09:58:06.112Z</time></trkpt><trkpt lat="45.9996084" lon="13.48924"><ele>73.0</ele><time>2026-05-03T09:58:07.113Z</time></trkpt><trkpt lat="45.9996823" lon="13.4893192"><ele>73.0</ele><time>2026-05-03T09:58:08.117Z</time></trkpt><trkpt lat="45.9997657" lon="13.4893666"><ele>73.0</ele><time>2026-05-03T09:58:09.119Z</time></trkpt><trkpt lat="45.9998669" lon="13.4894174"><ele>73.0</ele><time>2026-05-03T09:58:10.114Z</time></trkpt><trkpt lat="45.9999977" lon="13.4894839"><ele>73.0</ele><time>2026-05-03T09:58:11.12Z</time></trkpt><trkpt lat="46.0001536" lon="13.4895622"><ele>73.33333333333333</ele><time>2026-05-03T09:58:12.104Z</time></trkpt><trkpt lat="46.000322" lon="13.4896488"><ele>73.66666666666667</ele><time>2026-05-03T09:58:13.117Z</time></trkpt><trkpt lat="46.0004861" lon="13.4897365"><ele>74.0</ele><time>2026-05-03T09:58:14.116Z</time></trkpt><trkpt lat="46.0006372" lon="13.4898242"><ele>74.0</ele><time>2026-05-03T09:58:15.128Z</time></trkpt><trkpt lat="46.0007829" lon="13.4899074"><ele>74.0</ele><time>2026-05-03T09:58:16.112Z</time></trkpt><trkpt lat="46.0009187" lon="13.4899773"><ele>74.0</ele><time>2026-05-03T09:58:17.111Z</time></trkpt><trkpt lat="46.001048" lon="13.4900479"><ele>74.0</ele><time>2026-05-03T09:58:18.111Z</time></trkpt><trkpt lat="46.0011732" lon="13.4901236"><ele>74.4</ele><time>2026-05-03T09:58:19.109Z</time></trkpt><trkpt lat="46.0012906" lon="13.4901905"><ele>74.80000000000001</ele><time>2026-05-03T09:58:20.118Z</time></trkpt><trkpt lat="46.0013985" lon="13.490245"><ele>75.19999999999999</ele><time>2026-05-03T09:58:21.116Z</time></trkpt><trkpt lat="46.0014987" lon="13.4903002"><ele>75.6</ele><time>2026-05-03T09:58:22.132Z</time></trkpt><trkpt lat="46.0015923" lon="13.4903489"><ele>76.0</ele><time>2026-05-03T09:58:23.122Z</time></trkpt><trkpt lat="46.0016773" lon="13.4903901"><ele>76.0</ele><time>2026-05-03T09:58:24.121Z</time></trkpt><trkpt lat="46.001757" lon="13.4904328"><ele>76.0</ele><time>2026-05-03T09:58:25.126Z</time></trkpt><trkpt lat="46.0018283" lon="13.4904714"><ele>76.0</ele><time>2026-05-03T09:58:26.111Z</time></trkpt><trkpt lat="46.0018911" lon="13.490512"><ele>76.0</ele><time>2026-05-03T09:58:27.122Z</time></trkpt><trkpt lat="46.0019955" lon="13.4905909"><ele>76.0</ele><time>2026-05-03T09:58:29.118Z</time></trkpt><trkpt lat="46.0020615" lon="13.4905727"><ele>76.0</ele><time>2026-05-03T09:58:41.136Z</time></trkpt><trkpt lat="46.0020968" lon="13.4904948"><ele>76.2</ele><time>2026-05-03T09:58:42.115Z</time></trkpt><trkpt lat="46.0021162" lon="13.4903853"><ele>76.39999999999999</ele><time>2026-05-03T09:58:43.132Z</time></trkpt><trkpt lat="46.002134" lon="13.4902398"><ele>76.6</ele><time>2026-05-03T09:58:44.118Z</time></trkpt><trkpt lat="46.0021582" lon="13.4900687"><ele>76.8</ele><time>2026-05-03T09:58:45.127Z</time></trkpt><trkpt lat="46.0022019" lon="13.4898906"><ele>77.0</ele><time>2026-05-03T09:58:46.119Z</time></trkpt><trkpt lat="46.0022576" lon="13.4897082"><ele>76.75</ele><time>2026-05-03T09:58:47.131Z</time></trkpt><trkpt lat="46.0023188" lon="13.4895476"><ele>76.5</ele><time>2026-05-03T09:58:48.119Z</time></trkpt><trkpt lat="46.0023754" lon="13.4893951"><ele>76.25</ele><time>2026-05-03T09:58:49.129Z</time></trkpt><trkpt lat="46.0024231" lon="13.4892491"><ele>76.0</ele><time>2026-05-03T09:58:50.111Z</time></trkpt><trkpt lat="46.0024597" lon="13.4890988"><ele>76.0</ele><time>2026-05-03T09:58:51.122Z</time></trkpt><trkpt lat="46.0024923" lon="13.4889508"><ele>76.0</ele><time>2026-05-03T09:58:52.126Z</time></trkpt><trkpt lat="46.0025205" lon="13.4888049"><ele>76.0</ele><time>2026-05-03T09:58:53.111Z</time></trkpt><trkpt lat="46.0025497" lon="13.4886531"><ele>76.0</ele><time>2026-05-03T09:58:54.124Z</time></trkpt><trkpt lat="46.0025763" lon="13.4885091"><ele>76.0</ele><time>2026-05-03T09:58:55.117Z</time></trkpt><trkpt lat="46.0026052" lon="13.488373"><ele>75.8</ele><time>2026-05-03T09:58:56.123Z</time></trkpt><trkpt lat="46.0026347" lon="13.4882439"><ele>75.6</ele><time>2026-05-03T09:58:57.124Z</time></trkpt><trkpt lat="46.0026654" lon="13.4881078"><ele>75.4</ele><time>2026-05-03T09:58:58.114Z</time></trkpt><trkpt lat="46.0027025" lon="13.4879709"><ele>75.2</ele><time>2026-05-03T09:58:59.122Z</time></trkpt><trkpt lat="46.0027529" lon="13.4878283"><ele>75.0</ele><time>2026-05-03T09:59:00.123Z</time></trkpt><trkpt lat="46.0028177" lon="13.4876707"><ele>75.0</ele><time>2026-05-03T09:59:01.112Z</time></trkpt><trkpt lat="46.0028836" lon="13.4875172"><ele>75.0</ele><time>2026-05-03T09:59:02.123Z</time></trkpt><trkpt lat="46.0029518" lon="13.4873754"><ele>75.0</ele><time>2026-05-03T09:59:03.117Z</time></trkpt><trkpt lat="46.0030224" lon="13.4872453"><ele>75.0</ele><time>2026-05-03T09:59:04.122Z</time></trkpt><trkpt lat="46.0030959" lon="13.4871242"><ele>74.4</ele><time>2026-05-03T09:59:05.122Z</time></trkpt><trkpt lat="46.0031691" lon="13.4870085"><ele>73.8</ele><time>2026-05-03T09:59:06.123Z</time></trkpt><trkpt lat="46.0032443" lon="13.4868979"><ele>73.2</ele><time>2026-05-03T09:59:07.123Z</time></trkpt><trkpt lat="46.0033247" lon="13.486789"><ele>72.6</ele><time>2026-05-03T09:59:08.114Z</time></trkpt><trkpt lat="46.0034038" lon="13.486676"><ele>72.0</ele><time>2026-05-03T09:59:09.13Z</time></trkpt><trkpt lat="46.0034737" lon="13.4865578"><ele>72.6</ele><time>2026-05-03T09:59:10.134Z</time></trkpt><trkpt lat="46.0035367" lon="13.486441"><ele>73.2</ele><time>2026-05-03T09:59:11.138Z</time></trkpt><trkpt lat="46.0035951" lon="13.4863183"><ele>73.8</ele><time>2026-05-03T09:59:12.125Z</time></trkpt><trkpt lat="46.0036485" lon="13.4861869"><ele>74.4</ele><time>2026-05-03T09:59:13.12Z</time></trkpt><trkpt lat="46.0036978" lon="13.4860429"><ele>75.0</ele><time>2026-05-03T09:59:14.13Z</time></trkpt><trkpt lat="46.0037379" lon="13.4858904"><ele>75.0</ele><time>2026-05-03T09:59:15.122Z</time></trkpt><trkpt lat="46.0037741" lon="13.4857356"><ele>75.0</ele><time>2026-05-03T09:59:16.108Z</time></trkpt><trkpt lat="46.0038093" lon="13.4855819"><ele>75.0</ele><time>2026-05-03T09:59:17.114Z</time></trkpt><trkpt lat="46.0038469" lon="13.485434"><ele>75.0</ele><time>2026-05-03T09:59:18.118Z</time></trkpt><trkpt lat="46.0038892" lon="13.485285"><ele>75.0</ele><time>2026-05-03T09:59:19.114Z</time></trkpt><trkpt lat="46.0039323" lon="13.4851311"><ele>74.6</ele><time>2026-05-03T09:59:20.115Z</time></trkpt><trkpt lat="46.0039777" lon="13.4849867"><ele>74.2</ele><time>2026-05-03T09:59:21.134Z</time></trkpt><trkpt lat="46.0040227" lon="13.4848464"><ele>73.8</ele><time>2026-05-03T09:59:22.115Z</time></trkpt><trkpt lat="46.0040694" lon="13.4847056"><ele>73.4</ele><time>2026-05-03T09:59:23.129Z</time></trkpt><trkpt lat="46.0041229" lon="13.4845694"><ele>73.0</ele><time>2026-05-03T09:59:24.11Z</time></trkpt><trkpt lat="46.0041814" lon="13.4844391"><ele>73.0</ele><time>2026-05-03T09:59:25.13Z</time></trkpt><trkpt lat="46.0042407" lon="13.4843203"><ele>73.0</ele><time>2026-05-03T09:59:26.127Z</time></trkpt><trkpt lat="46.004304" lon="13.4842055"><ele>73.0</ele><time>2026-05-03T09:59:27.106Z</time></trkpt><trkpt lat="46.0043703" lon="13.4840881"><ele>73.0</ele><time>2026-05-03T09:59:28.117Z</time></trkpt><trkpt lat="46.004427" lon="13.4839689"><ele>73.0</ele><time>2026-05-03T09:59:29.121Z</time></trkpt><trkpt lat="46.0044737" lon="13.4838372"><ele>73.0</ele><time>2026-05-03T09:59:30.128Z</time></trkpt><trkpt lat="46.0045135" lon="13.4837058"><ele>73.0</ele><time>2026-05-03T09:59:31.135Z</time></trkpt><trkpt lat="46.0045435" lon="13.4835676"><ele>73.0</ele><time>2026-05-03T09:59:32.111Z</time></trkpt><trkpt lat="46.0045592" lon="13.4834314"><ele>73.0</ele><time>2026-05-03T09:59:33.137Z</time></trkpt><trkpt lat="46.0045628" lon="13.4832768"><ele>73.0</ele><time>2026-05-03T09:59:34.124Z</time></trkpt><trkpt lat="46.0045498" lon="13.4830864"><ele>73.0</ele><time>2026-05-03T09:59:35.109Z</time></trkpt><trkpt lat="46.0045397" lon="13.4828802"><ele>73.0</ele><time>2026-05-03T09:59:36.13Z</time></trkpt><trkpt lat="46.0045303" lon="13.4826518"><ele>73.0</ele><time>2026-05-03T09:59:37.119Z</time></trkpt><trkpt lat="46.0045296" lon="13.4824169"><ele>73.0</ele><time>2026-05-03T09:59:38.116Z</time></trkpt><trkpt lat="46.004531" lon="13.4821792"><ele>73.0</ele><time>2026-05-03T09:59:39.114Z</time></trkpt><trkpt lat="46.0045265" lon="13.4819413"><ele>73.0</ele><time>2026-05-03T09:59:40.122Z</time></trkpt><trkpt lat="46.0045122" lon="13.4817096"><ele>73.0</ele><time>2026-05-03T09:59:41.136Z</time></trkpt><trkpt lat="46.0044994" lon="13.4814741"><ele>73.0</ele><time>2026-05-03T09:59:42.116Z</time></trkpt><trkpt lat="46.0044894" lon="13.4812402"><ele>73.0</ele><time>2026-05-03T09:59:43.113Z</time></trkpt><trkpt lat="46.0044908" lon="13.4810099"><ele>73.0</ele><time>2026-05-03T09:59:44.118Z</time></trkpt><trkpt lat="46.0045109" lon="13.4807779"><ele>73.0</ele><time>2026-05-03T09:59:45.122Z</time></trkpt><trkpt lat="46.0045307" lon="13.4805548"><ele>73.0</ele><time>2026-05-03T09:59:46.125Z</time></trkpt><trkpt lat="46.0045307" lon="13.4803353"><ele>72.33333333333333</ele><time>2026-05-03T09:59:47.123Z</time></trkpt><trkpt lat="46.0045097" lon="13.4801103"><ele>71.66666666666667</ele><time>2026-05-03T09:59:48.114Z</time></trkpt><trkpt lat="46.0044768" lon="13.4798896"><ele>71.0</ele><time>2026-05-03T09:59:49.121Z</time></trkpt><trkpt lat="46.0044338" lon="13.4796696"><ele>71.5</ele><time>2026-05-03T09:59:50.13Z</time></trkpt><trkpt lat="46.0043859" lon="13.4794596"><ele>72.0</ele><time>2026-05-03T09:59:51.131Z</time></trkpt><trkpt lat="46.0043411" lon="13.4792575"><ele>72.5</ele><time>2026-05-03T09:59:52.124Z</time></trkpt><trkpt lat="46.0043076" lon="13.479053"><ele>73.0</ele><time>2026-05-03T09:59:53.126Z</time></trkpt><trkpt lat="46.0042841" lon="13.4788487"><ele>73.25</ele><time>2026-05-03T09:59:54.131Z</time></trkpt><trkpt lat="46.0042652" lon="13.4786397"><ele>73.5</ele><time>2026-05-03T09:59:55.12Z</time></trkpt><trkpt lat="46.0042555" lon="13.4784354"><ele>73.75</ele><time>2026-05-03T09:59:56.119Z</time></trkpt><trkpt lat="46.0042438" lon="13.4782407"><ele>74.0</ele><time>2026-05-03T09:59:57.126Z</time></trkpt><trkpt lat="46.0042165" lon="13.4780622"><ele>74.0</ele><time>2026-05-03T09:59:58.123Z</time></trkpt><trkpt lat="46.0041673" lon="13.4778906"><ele>74.0</ele><time>2026-05-03T09:59:59.134Z</time></trkpt><trkpt lat="46.0041082" lon="13.4777177"><ele>74.0</ele><time>2026-05-03T10:00:00.134Z</time></trkpt><trkpt lat="46.0040506" lon="13.4775577"><ele>74.0</ele><time>2026-05-03T10:00:01.14Z</time></trkpt><trkpt lat="46.0039948" lon="13.4774088"><ele>73.25</ele><time>2026-05-03T10:00:02.14Z</time></trkpt><trkpt lat="46.0039344" lon="13.4772638"><ele>72.5</ele><time>2026-05-03T10:00:03.134Z</time></trkpt><trkpt lat="46.003876" lon="13.477113"><ele>71.75</ele><time>2026-05-03T10:00:04.129Z</time></trkpt><trkpt lat="46.0038189" lon="13.4769574"><ele>71.0</ele><time>2026-05-03T10:00:05.135Z</time></trkpt><trkpt lat="46.0037684" lon="13.4767957"><ele>71.0</ele><time>2026-05-03T10:00:06.124Z</time></trkpt><trkpt lat="46.0037345" lon="13.4766145"><ele>71.0</ele><time>2026-05-03T10:00:07.143Z</time></trkpt><trkpt lat="46.0037166" lon="13.4764388"><ele>71.0</ele><time>2026-05-03T10:00:08.127Z</time></trkpt><trkpt lat="46.0037169" lon="13.4762785"><ele>71.0</ele><time>2026-05-03T10:00:09.14Z</time></trkpt><trkpt lat="46.0037305" lon="13.4761274"><ele>71.0</ele><time>2026-05-03T10:00:10.125Z</time></trkpt><trkpt lat="46.0037454" lon="13.4759747"><ele>71.0</ele><time>2026-05-03T10:00:11.127Z</time></trkpt><trkpt lat="46.003755" lon="13.4758322"><ele>71.0</ele><time>2026-05-03T10:00:12.124Z</time></trkpt><trkpt lat="46.0037599" lon="13.4756898"><ele>71.0</ele><time>2026-05-03T10:00:13.129Z</time></trkpt><trkpt lat="46.0037642" lon="13.475561"><ele>71.0</ele><time>2026-05-03T10:00:14.135Z</time></trkpt><trkpt lat="46.0037677" lon="13.4754344"><ele>71.0</ele><time>2026-05-03T10:00:15.126Z</time></trkpt><trkpt lat="46.0037703" lon="13.4753054"><ele>71.0</ele><time>2026-05-03T10:00:16.147Z</time></trkpt><trkpt lat="46.0037713" lon="13.4751749"><ele>71.0</ele><time>2026-05-03T10:00:17.127Z</time></trkpt><trkpt lat="46.0037726" lon="13.4750402"><ele>71.0</ele><time>2026-05-03T10:00:18.12Z</time></trkpt><trkpt lat="46.0037761" lon="13.4749057"><ele>71.0</ele><time>2026-05-03T10:00:19.115Z</time></trkpt><trkpt lat="46.0037807" lon="13.4747713"><ele>71.0</ele><time>2026-05-03T10:00:20.11Z</time></trkpt><trkpt lat="46.0037865" lon="13.4746368"><ele>71.0</ele><time>2026-05-03T10:00:21.116Z</time></trkpt><trkpt lat="46.0037893" lon="13.4745025"><ele>71.0</ele><time>2026-05-03T10:00:22.119Z</time></trkpt><trkpt lat="46.0037922" lon="13.4743656"><ele>71.0</ele><time>2026-05-03T10:00:23.106Z</time></trkpt><trkpt lat="46.0037942" lon="13.4742329"><ele>71.0</ele><time>2026-05-03T10:00:24.124Z</time></trkpt><trkpt lat="46.0037968" lon="13.4741026"><ele>71.0</ele><time>2026-05-03T10:00:25.12Z</time></trkpt><trkpt lat="46.0038011" lon="13.4739711"><ele>71.0</ele><time>2026-05-03T10:00:26.118Z</time></trkpt><trkpt lat="46.0038031" lon="13.4738322"><ele>71.0</ele><time>2026-05-03T10:00:27.137Z</time></trkpt><trkpt lat="46.0038048" lon="13.4736868"><ele>71.0</ele><time>2026-05-03T10:00:28.118Z</time></trkpt><trkpt lat="46.0038103" lon="13.4735456"><ele>71.0</ele><time>2026-05-03T10:00:29.145Z</time></trkpt><trkpt lat="46.0038187" lon="13.4734038"><ele>71.0</ele><time>2026-05-03T10:00:30.129Z</time></trkpt><trkpt lat="46.0038262" lon="13.4732717"><ele>71.0</ele><time>2026-05-03T10:00:31.123Z</time></trkpt><trkpt lat="46.0038311" lon="13.4731462"><ele>71.0</ele><time>2026-05-03T10:00:32.122Z</time></trkpt><trkpt lat="46.003836" lon="13.4730303"><ele>71.0</ele><time>2026-05-03T10:00:33.129Z</time></trkpt><trkpt lat="46.0038464" lon="13.4729222"><ele>71.0</ele><time>2026-05-03T10:00:34.136Z</time></trkpt><trkpt lat="46.0038816" lon="13.4727903"><ele>71.0</ele><time>2026-05-03T10:00:36.114Z</time></trkpt><trkpt lat="46.0039683" lon="13.4727775"><ele>70.8</ele><time>2026-05-03T10:00:39.107Z</time></trkpt><trkpt lat="46.0040313" lon="13.4727943"><ele>70.6</ele><time>2026-05-03T10:00:40.122Z</time></trkpt><trkpt lat="46.0041077" lon="13.4728252"><ele>70.4</ele><time>2026-05-03T10:00:41.128Z</time></trkpt><trkpt lat="46.004201" lon="13.4728807"><ele>70.2</ele><time>2026-05-03T10:00:42.123Z</time></trkpt><trkpt lat="46.0043159" lon="13.472951"><ele>70.0</ele><time>2026-05-03T10:00:43.119Z</time></trkpt><trkpt lat="46.0044416" lon="13.473021"><ele>71.25</ele><time>2026-05-03T10:00:44.103Z</time></trkpt><trkpt lat="46.0045667" lon="13.4730902"><ele>72.5</ele><time>2026-05-03T10:00:45.112Z</time></trkpt><trkpt lat="46.0046828" lon="13.4731512"><ele>73.75</ele><time>2026-05-03T10:00:46.119Z</time></trkpt><trkpt lat="46.0047991" lon="13.4731993"><ele>75.0</ele><time>2026-05-03T10:00:47.122Z</time></trkpt><trkpt lat="46.0049278" lon="13.473223"><ele>75.6</ele><time>2026-05-03T10:00:48.118Z</time></trkpt><trkpt lat="46.0050598" lon="13.4732652"><ele>76.2</ele><time>2026-05-03T10:00:49.133Z</time></trkpt><trkpt lat="46.0051671" lon="13.4733034"><ele>76.8</ele><time>2026-05-03T10:00:50.118Z</time></trkpt><trkpt lat="46.0052448" lon="13.4733181"><ele>77.4</ele><time>2026-05-03T10:00:51.112Z</time></trkpt><trkpt lat="46.0053046" lon="13.4732875"><ele>78.0</ele><time>2026-05-03T10:00:52.121Z</time></trkpt><trkpt lat="46.005381" lon="13.4731526"><ele>78.0</ele><time>2026-05-03T10:00:54.111Z</time></trkpt><trkpt lat="46.0054001" lon="13.4730618"><ele>78.0</ele><time>2026-05-03T10:00:55.113Z</time></trkpt><trkpt lat="46.0054097" lon="13.4729614"><ele>78.0</ele><time>2026-05-03T10:00:56.108Z</time></trkpt><trkpt lat="46.0054253" lon="13.4728567"><ele>78.0</ele><time>2026-05-03T10:00:57.13Z</time></trkpt><trkpt lat="46.0054579" lon="13.4727438"><ele>78.0</ele><time>2026-05-03T10:00:58.112Z</time></trkpt><trkpt lat="46.0055127" lon="13.4726217"><ele>78.0</ele><time>2026-05-03T10:00:59.118Z</time></trkpt><trkpt lat="46.0055899" lon="13.472489"><ele>77.75</ele><time>2026-05-03T10:01:00.104Z</time></trkpt><trkpt lat="46.005677" lon="13.4723532"><ele>77.5</ele><time>2026-05-03T10:01:01.119Z</time></trkpt><trkpt lat="46.0057685" lon="13.4722166"><ele>77.25</ele><time>2026-05-03T10:01:02.118Z</time></trkpt><trkpt lat="46.0058601" lon="13.4720863"><ele>77.0</ele><time>2026-05-03T10:01:03.109Z</time></trkpt><trkpt lat="46.0059429" lon="13.4719733"><ele>79.8</ele><time>2026-05-03T10:01:04.111Z</time></trkpt><trkpt lat="46.0060256" lon="13.4718891"><ele>82.6</ele><time>2026-05-03T10:01:05.108Z</time></trkpt><trkpt lat="46.006107" lon="13.4718363"><ele>85.39999999999999</ele><time>2026-05-03T10:01:06.119Z</time></trkpt><trkpt lat="46.0061921" lon="13.4718038"><ele>88.2</ele><time>2026-05-03T10:01:07.117Z</time></trkpt><trkpt lat="46.0062794" lon="13.4717758"><ele>91.0</ele><time>2026-05-03T10:01:08.117Z</time></trkpt><trkpt lat="46.0063736" lon="13.4717619"><ele>91.0</ele><time>2026-05-03T10:01:09.122Z</time></trkpt><trkpt lat="46.0064725" lon="13.4717591"><ele>91.0</ele><time>2026-05-03T10:01:10.107Z</time></trkpt><trkpt lat="46.0065731" lon="13.4717512"><ele>91.0</ele><time>2026-05-03T10:01:11.128Z</time></trkpt><trkpt lat="46.0066686" lon="13.4717228"><ele>91.0</ele><time>2026-05-03T10:01:12.113Z</time></trkpt><trkpt lat="46.006757" lon="13.4716838"><ele>91.0</ele><time>2026-05-03T10:01:13.137Z</time></trkpt><trkpt lat="46.0068321" lon="13.4716259"><ele>92.4</ele><time>2026-05-03T10:01:14.118Z</time></trkpt><trkpt lat="46.006902" lon="13.4715551"><ele>93.8</ele><time>2026-05-03T10:01:15.119Z</time></trkpt><trkpt lat="46.0069658" lon="13.4714717"><ele>95.2</ele><time>2026-05-03T10:01:16.116Z</time></trkpt><trkpt lat="46.0070292" lon="13.4713735"><ele>96.60000000000001</ele><time>2026-05-03T10:01:17.12Z</time></trkpt><trkpt lat="46.0070924" lon="13.471268"><ele>98.0</ele><time>2026-05-03T10:01:18.118Z</time></trkpt><trkpt lat="46.0071506" lon="13.471153"><ele>100.60000000000001</ele><time>2026-05-03T10:01:19.114Z</time></trkpt><trkpt lat="46.0072026" lon="13.4710309"><ele>103.2</ele><time>2026-05-03T10:01:20.116Z</time></trkpt><trkpt lat="46.0072567" lon="13.470905"><ele>105.8</ele><time>2026-05-03T10:01:21.119Z</time></trkpt><trkpt lat="46.0073102" lon="13.4707836"><ele>108.4</ele><time>2026-05-03T10:01:22.121Z</time></trkpt><trkpt lat="46.0073683" lon="13.4706848"><ele>111.0</ele><time>2026-05-03T10:01:23.123Z</time></trkpt><trkpt lat="46.0074275" lon="13.4706075"><ele>111.0</ele><time>2026-05-03T10:01:24.117Z</time></trkpt><trkpt lat="46.0075051" lon="13.4705509"><ele>111.0</ele><time>2026-05-03T10:01:25.132Z</time></trkpt><trkpt lat="46.0075953" lon="13.4705122"><ele>111.0</ele><time>2026-05-03T10:01:26.114Z</time></trkpt><trkpt lat="46.00769" lon="13.4704933"><ele>111.0</ele><time>2026-05-03T10:01:27.126Z</time></trkpt><trkpt lat="46.0077951" lon="13.4704811"><ele>111.0</ele><time>2026-05-03T10:01:28.114Z</time></trkpt><trkpt lat="46.007906" lon="13.470477"><ele>111.0</ele><time>2026-05-03T10:01:29.12Z</time></trkpt><trkpt lat="46.0080108" lon="13.4704928"><ele>111.0</ele><time>2026-05-03T10:01:30.116Z</time></trkpt><trkpt lat="46.0081095" lon="13.4705339"><ele>111.0</ele><time>2026-05-03T10:01:31.135Z</time></trkpt><trkpt lat="46.0082014" lon="13.4705834"><ele>111.0</ele><time>2026-05-03T10:01:32.118Z</time></trkpt><trkpt lat="46.0082862" lon="13.470635"><ele>111.0</ele><time>2026-05-03T10:01:33.126Z</time></trkpt><trkpt lat="46.0083805" lon="13.4706962"><ele>111.6</ele><time>2026-05-03T10:01:34.114Z</time></trkpt><trkpt lat="46.0084776" lon="13.4707621"><ele>112.19999999999999</ele><time>2026-05-03T10:01:35.126Z</time></trkpt><trkpt lat="46.0085757" lon="13.4708374"><ele>112.80000000000001</ele><time>2026-05-03T10:01:36.114Z</time></trkpt><trkpt lat="46.0086747" lon="13.4709109"><ele>113.4</ele><time>2026-05-03T10:01:37.119Z</time></trkpt><trkpt lat="46.0087743" lon="13.4709892"><ele>114.0</ele><time>2026-05-03T10:01:38.132Z</time></trkpt><trkpt lat="46.0088725" lon="13.4710713"><ele>114.0</ele><time>2026-05-03T10:01:39.136Z</time></trkpt><trkpt lat="46.008962" lon="13.4711505"><ele>114.0</ele><time>2026-05-03T10:01:40.12Z</time></trkpt><trkpt lat="46.009058" lon="13.4712255"><ele>114.0</ele><time>2026-05-03T10:01:41.132Z</time></trkpt><trkpt lat="46.0091728" lon="13.4713079"><ele>114.0</ele><time>2026-05-03T10:01:42.119Z</time></trkpt><trkpt lat="46.0092937" lon="13.4713839"><ele>114.25</ele><time>2026-05-03T10:01:43.123Z</time></trkpt><trkpt lat="46.0094169" lon="13.4714628"><ele>114.5</ele><time>2026-05-03T10:01:44.119Z</time></trkpt><trkpt lat="46.0095393" lon="13.4715648"><ele>114.75</ele><time>2026-05-03T10:01:45.135Z</time></trkpt><trkpt lat="46.0096676" lon="13.4716907"><ele>115.0</ele><time>2026-05-03T10:01:46.13Z</time></trkpt><trkpt lat="46.009805" lon="13.4718376"><ele>115.0</ele><time>2026-05-03T10:01:47.118Z</time></trkpt><trkpt lat="46.0099378" lon="13.4719946"><ele>115.0</ele><time>2026-05-03T10:01:48.122Z</time></trkpt><trkpt lat="46.0100578" lon="13.4721432"><ele>115.0</ele><time>2026-05-03T10:01:49.125Z</time></trkpt><trkpt lat="46.0101666" lon="13.4722754"><ele>115.2</ele><time>2026-05-03T10:01:50.127Z</time></trkpt><trkpt lat="46.0102574" lon="13.4723943"><ele>115.4</ele><time>2026-05-03T10:01:51.131Z</time></trkpt><trkpt lat="46.0103332" lon="13.4725075"><ele>115.6</ele><time>2026-05-03T10:01:52.11Z</time></trkpt><trkpt lat="46.0103957" lon="13.472619"><ele>115.8</ele><time>2026-05-03T10:01:53.112Z</time></trkpt><trkpt lat="46.0104439" lon="13.4727444"><ele>116.0</ele><time>2026-05-03T10:01:54.114Z</time></trkpt><trkpt lat="46.0104875" lon="13.4728712"><ele>115.8</ele><time>2026-05-03T10:01:55.114Z</time></trkpt><trkpt lat="46.0105236" lon="13.4729627"><ele>115.6</ele><time>2026-05-03T10:01:56.12Z</time></trkpt><trkpt lat="46.0105693" lon="13.473028"><ele>115.4</ele><time>2026-05-03T10:01:57.13Z</time></trkpt><trkpt lat="46.010693" lon="13.4730795"><ele>115.2</ele><time>2026-05-03T10:01:59.11Z</time></trkpt><trkpt lat="46.0107834" lon="13.4730908"><ele>115.0</ele><time>2026-05-03T10:02:00.122Z</time></trkpt><trkpt lat="46.0108807" lon="13.4731084"><ele>115.0</ele><time>2026-05-03T10:02:01.132Z</time></trkpt><trkpt lat="46.0109672" lon="13.4731275"><ele>115.0</ele><time>2026-05-03T10:02:02.111Z</time></trkpt><trkpt lat="46.0110586" lon="13.4731686"><ele>115.0</ele><time>2026-05-03T10:02:03.126Z</time></trkpt><trkpt lat="46.0111455" lon="13.4732407"><ele>115.0</ele><time>2026-05-03T10:02:04.129Z</time></trkpt><trkpt lat="46.0112272" lon="13.4733349"><ele>115.0</ele><time>2026-05-03T10:02:05.108Z</time></trkpt><trkpt lat="46.0113087" lon="13.4734379"><ele>115.0</ele><time>2026-05-03T10:02:06.138Z</time></trkpt><trkpt lat="46.0113827" lon="13.4735358"><ele>115.0</ele><time>2026-05-03T10:02:07.117Z</time></trkpt><trkpt lat="46.0114505" lon="13.4736355"><ele>115.0</ele><time>2026-05-03T10:02:08.119Z</time></trkpt><trkpt lat="46.0115139" lon="13.4737227"><ele>115.0</ele><time>2026-05-03T10:02:09.12Z</time></trkpt><trkpt lat="46.0115761" lon="13.4738053"><ele>115.0</ele><time>2026-05-03T10:02:10.13Z</time></trkpt><trkpt lat="46.0116383" lon="13.4738897"><ele>115.0</ele><time>2026-05-03T10:02:11.132Z</time></trkpt><trkpt lat="46.0116982" lon="13.4739678"><ele>115.0</ele><time>2026-05-03T10:02:12.113Z</time></trkpt><trkpt lat="46.0117595" lon="13.4740449"><ele>115.0</ele><time>2026-05-03T10:02:13.113Z</time></trkpt><trkpt lat="46.0118358" lon="13.4741412"><ele>115.0</ele><time>2026-05-03T10:02:14.112Z</time></trkpt><trkpt lat="46.0119242" lon="13.4742618"><ele>115.0</ele><time>2026-05-03T10:02:15.108Z</time></trkpt><trkpt lat="46.012014" lon="13.4743828"><ele>115.0</ele><time>2026-05-03T10:02:16.128Z</time></trkpt><trkpt lat="46.0120926" lon="13.4744942"><ele>115.0</ele><time>2026-05-03T10:02:17.118Z</time></trkpt><trkpt lat="46.0121561" lon="13.4745969"><ele>115.0</ele><time>2026-05-03T10:02:18.125Z</time></trkpt><trkpt lat="46.0122082" lon="13.4747045"><ele>115.0</ele><time>2026-05-03T10:02:19.127Z</time></trkpt><trkpt lat="46.0122416" lon="13.4748292"><ele>115.0</ele><time>2026-05-03T10:02:20.103Z</time></trkpt><trkpt lat="46.0122735" lon="13.4749533"><ele>115.0</ele><time>2026-05-03T10:02:21.124Z</time></trkpt><trkpt lat="46.0123133" lon="13.4750604"><ele>115.0</ele><time>2026-05-03T10:02:22.11Z</time></trkpt><trkpt lat="46.0123713" lon="13.4751443"><ele>115.0</ele><time>2026-05-03T10:02:23.109Z</time></trkpt><trkpt lat="46.0124439" lon="13.4752173"><ele>115.0</ele><time>2026-05-03T10:02:24.108Z</time></trkpt><trkpt lat="46.0125363" lon="13.475284"><ele>115.0</ele><time>2026-05-03T10:02:25.111Z</time></trkpt><trkpt lat="46.0126607" lon="13.4753546"><ele>115.0</ele><time>2026-05-03T10:02:26.098Z</time></trkpt><trkpt lat="46.0128062" lon="13.4754256"><ele>115.0</ele><time>2026-05-03T10:02:27.105Z</time></trkpt><trkpt lat="46.0129511" lon="13.4755053"><ele>115.0</ele><time>2026-05-03T10:02:28.117Z</time></trkpt><trkpt lat="46.013091" lon="13.4755875"><ele>113.0</ele><time>2026-05-03T10:02:29.098Z</time></trkpt><trkpt lat="46.0132327" lon="13.4756737"><ele>111.0</ele><time>2026-05-03T10:02:30.127Z</time></trkpt><trkpt lat="46.0133739" lon="13.4757527"><ele>109.0</ele><time>2026-05-03T10:02:31.131Z</time></trkpt><trkpt lat="46.0135075" lon="13.4758046"><ele>107.0</ele><time>2026-05-03T10:02:32.116Z</time></trkpt><trkpt lat="46.0136209" lon="13.4758435"><ele>106.8</ele><time>2026-05-03T10:02:33.121Z</time></trkpt><trkpt lat="46.0137179" lon="13.4759088"><ele>106.6</ele><time>2026-05-03T10:02:34.125Z</time></trkpt><trkpt lat="46.0137985" lon="13.4760151"><ele>106.39999999999999</ele><time>2026-05-03T10:02:35.117Z</time></trkpt><trkpt lat="46.0138509" lon="13.4761361"><ele>106.19999999999999</ele><time>2026-05-03T10:02:36.107Z</time></trkpt><trkpt lat="46.0138721" lon="13.4762635"><ele>106.0</ele><time>2026-05-03T10:02:37.112Z</time></trkpt><trkpt lat="46.0138675" lon="13.4764116"><ele>106.0</ele><time>2026-05-03T10:02:38.11Z</time></trkpt><trkpt lat="46.0138646" lon="13.47658"><ele>106.0</ele><time>2026-05-03T10:02:39.108Z</time></trkpt><trkpt lat="46.013867" lon="13.4767515"><ele>106.0</ele><time>2026-05-03T10:02:40.102Z</time></trkpt><trkpt lat="46.0138794" lon="13.4769103"><ele>106.0</ele><time>2026-05-03T10:02:41.11Z</time></trkpt><trkpt lat="46.0139004" lon="13.4770424"><ele>106.0</ele><time>2026-05-03T10:02:42.136Z</time></trkpt><trkpt lat="46.013937" lon="13.4771527"><ele>106.00000000000001</ele><time>2026-05-03T10:02:43.115Z</time></trkpt><trkpt lat="46.013988" lon="13.4772345"><ele>106.0</ele><time>2026-05-03T10:02:44.1Z</time></trkpt><trkpt lat="46.0140406" lon="13.4772976"><ele>106.0</ele><time>2026-05-03T10:02:45.099Z</time></trkpt><trkpt lat="46.0141308" lon="13.4773686"><ele>106.0</ele><time>2026-05-03T10:02:47.1Z</time></trkpt><trkpt lat="46.0141794" lon="13.4774278"><ele>106.00000000000001</ele><time>2026-05-03T10:02:48.111Z</time></trkpt><trkpt lat="46.0142378" lon="13.47749"><ele>106.0</ele><time>2026-05-03T10:02:49.107Z</time></trkpt><trkpt lat="46.0143061" lon="13.4775506"><ele>107.4</ele><time>2026-05-03T10:02:50.093Z</time></trkpt><trkpt lat="46.0143873" lon="13.4776171"><ele>108.8</ele><time>2026-05-03T10:02:51.115Z</time></trkpt><trkpt lat="46.0144852" lon="13.4776815"><ele>110.20000000000002</ele><time>2026-05-03T10:02:52.098Z</time></trkpt><trkpt lat="46.0145949" lon="13.4777411"><ele>111.60000000000001</ele><time>2026-05-03T10:02:53.094Z</time></trkpt><trkpt lat="46.014713" lon="13.4778022"><ele>113.0</ele><time>2026-05-03T10:02:54.104Z</time></trkpt><trkpt lat="46.0148369" lon="13.4778635"><ele>113.0</ele><time>2026-05-03T10:02:55.113Z</time></trkpt><trkpt lat="46.0149686" lon="13.4779254"><ele>113.0</ele><time>2026-05-03T10:02:56.104Z</time></trkpt><trkpt lat="46.0151042" lon="13.4779892"><ele>113.0</ele><time>2026-05-03T10:02:57.111Z</time></trkpt><trkpt lat="46.0152377" lon="13.4780607"><ele>113.0</ele><time>2026-05-03T10:02:58.11Z</time></trkpt><trkpt lat="46.0153634" lon="13.4781542"><ele>112.5</ele><time>2026-05-03T10:02:59.115Z</time></trkpt><trkpt lat="46.0154826" lon="13.478253"><ele>112.0</ele><time>2026-05-03T10:03:00.112Z</time></trkpt><trkpt lat="46.0155914" lon="13.4783695"><ele>111.5</ele><time>2026-05-03T10:03:01.116Z</time></trkpt><trkpt lat="46.0156996" lon="13.4784973"><ele>111.0</ele><time>2026-05-03T10:03:02.112Z</time></trkpt><trkpt lat="46.0158048" lon="13.4786291"><ele>111.5</ele><time>2026-05-03T10:03:03.112Z</time></trkpt><trkpt lat="46.0159082" lon="13.4787612"><ele>112.0</ele><time>2026-05-03T10:03:04.121Z</time></trkpt><trkpt lat="46.0160092" lon="13.4788933"><ele>112.5</ele><time>2026-05-03T10:03:05.118Z</time></trkpt><trkpt lat="46.0160971" lon="13.4790366"><ele>113.0</ele><time>2026-05-03T10:03:06.116Z</time></trkpt><trkpt lat="46.0161724" lon="13.4792012"><ele>113.0</ele><time>2026-05-03T10:03:07.115Z</time></trkpt><trkpt lat="46.0162415" lon="13.4793743"><ele>113.0</ele><time>2026-05-03T10:03:08.108Z</time></trkpt><trkpt lat="46.0163048" lon="13.4795536"><ele>113.0</ele><time>2026-05-03T10:03:09.112Z</time></trkpt><trkpt lat="46.0163747" lon="13.4797375"><ele>113.0</ele><time>2026-05-03T10:03:10.12Z</time></trkpt><trkpt lat="46.0164422" lon="13.4799188"><ele>113.0</ele><time>2026-05-03T10:03:11.12Z</time></trkpt><trkpt lat="46.0165069" lon="13.4800928"><ele>113.0</ele><time>2026-05-03T10:03:12.12Z</time></trkpt><trkpt lat="46.0165653" lon="13.4802493"><ele>113.0</ele><time>2026-05-03T10:03:13.118Z</time></trkpt><trkpt lat="46.0166252" lon="13.4803865"><ele>113.0</ele><time>2026-05-03T10:03:14.128Z</time></trkpt><trkpt lat="46.0166814" lon="13.4805243"><ele>115.60000000000001</ele><time>2026-05-03T10:03:15.119Z</time></trkpt><trkpt lat="46.0167202" lon="13.4806538"><ele>118.20000000000002</ele><time>2026-05-03T10:03:16.113Z</time></trkpt><trkpt lat="46.0167468" lon="13.4807897"><ele>120.8</ele><time>2026-05-03T10:03:17.118Z</time></trkpt><trkpt lat="46.0167696" lon="13.4809069"><ele>123.4</ele><time>2026-05-03T10:03:18.119Z</time></trkpt><trkpt lat="46.0167811" lon="13.4810662"><ele>126.0</ele><time>2026-05-03T10:03:20.125Z</time></trkpt><trkpt lat="46.0167304" lon="13.4812572"><ele>127.0</ele><time>2026-05-03T10:03:22.105Z</time></trkpt><trkpt lat="46.0166794" lon="13.4813816"><ele>128.0</ele><time>2026-05-03T10:03:23.118Z</time></trkpt><trkpt lat="46.0166286" lon="13.4814975"><ele>129.0</ele><time>2026-05-03T10:03:24.116Z</time></trkpt><trkpt lat="46.0165898" lon="13.4815872"><ele>130.0</ele><time>2026-05-03T10:03:25.116Z</time></trkpt><trkpt lat="46.0165467" lon="13.4816541"><ele>131.0</ele><time>2026-05-03T10:03:26.122Z</time></trkpt><trkpt lat="46.0164721" lon="13.4817694"><ele>132.0</ele><time>2026-05-03T10:03:28.119Z</time></trkpt><trkpt lat="46.0164389" lon="13.4818577"><ele>132.0</ele><time>2026-05-03T10:03:30.111Z</time></trkpt><trkpt lat="46.0165522" lon="13.4819335"><ele>132.0</ele><time>2026-05-03T10:03:33.114Z</time></trkpt><trkpt lat="46.0166208" lon="13.4819732"><ele>132.0</ele><time>2026-05-03T10:03:34.114Z</time></trkpt><trkpt lat="46.016708" lon="13.4820072"><ele>132.0</ele><time>2026-05-03T10:03:35.118Z</time></trkpt><trkpt lat="46.0168147" lon="13.4820671"><ele>132.0</ele><time>2026-05-03T10:03:36.117Z</time></trkpt><trkpt lat="46.0169126" lon="13.4821429"><ele>131.79999999999998</ele><time>2026-05-03T10:03:37.122Z</time></trkpt><trkpt lat="46.0169968" lon="13.4822266"><ele>131.6</ele><time>2026-05-03T10:03:38.132Z</time></trkpt><trkpt lat="46.0170858" lon="13.4823218"><ele>131.39999999999998</ele><time>2026-05-03T10:03:39.119Z</time></trkpt><trkpt lat="46.0171541" lon="13.4824401"><ele>131.2</ele><time>2026-05-03T10:03:40.12Z</time></trkpt><trkpt lat="46.0172132" lon="13.4825871"><ele>131.0</ele><time>2026-05-03T10:03:41.121Z</time></trkpt><trkpt lat="46.0172647" lon="13.4827486"><ele>131.0</ele><time>2026-05-03T10:03:42.119Z</time></trkpt><trkpt lat="46.0172998" lon="13.4829251"><ele>131.0</ele><time>2026-05-03T10:03:43.116Z</time></trkpt><trkpt lat="46.0173288" lon="13.4831108"><ele>131.0</ele><time>2026-05-03T10:03:44.107Z</time></trkpt><trkpt lat="46.0173607" lon="13.483304"><ele>131.0</ele><time>2026-05-03T10:03:45.127Z</time></trkpt><trkpt lat="46.0173847" lon="13.4835021"><ele>128.25</ele><time>2026-05-03T10:03:46.121Z</time></trkpt><trkpt lat="46.017405" lon="13.4837105"><ele>125.5</ele><time>2026-05-03T10:03:47.117Z</time></trkpt><trkpt lat="46.017409" lon="13.4839095"><ele>122.75</ele><time>2026-05-03T10:03:48.12Z</time></trkpt><trkpt lat="46.0174162" lon="13.4840827"><ele>120.0</ele><time>2026-05-03T10:03:49.122Z</time></trkpt><trkpt lat="46.0174277" lon="13.4842497"><ele>119.0</ele><time>2026-05-03T10:03:50.125Z</time></trkpt><trkpt lat="46.0174572" lon="13.4844161"><ele>118.0</ele><time>2026-05-03T10:03:51.123Z</time></trkpt><trkpt lat="46.0175009" lon="13.4846079"><ele>117.0</ele><time>2026-05-03T10:03:52.132Z</time></trkpt><trkpt lat="46.0175665" lon="13.4848171"><ele>116.0</ele><time>2026-05-03T10:03:53.115Z</time></trkpt><trkpt lat="46.0176277" lon="13.4850329"><ele>121.0</ele><time>2026-05-03T10:03:54.121Z</time></trkpt><trkpt lat="46.0176752" lon="13.485244"><ele>126.0</ele><time>2026-05-03T10:03:55.112Z</time></trkpt><trkpt lat="46.0177057" lon="13.4854595"><ele>131.0</ele><time>2026-05-03T10:03:56.118Z</time></trkpt><trkpt lat="46.0177244" lon="13.4856685"><ele>131.0</ele><time>2026-05-03T10:03:57.112Z</time></trkpt><trkpt lat="46.0177348" lon="13.4858672"><ele>131.0</ele><time>2026-05-03T10:03:58.115Z</time></trkpt><trkpt lat="46.0177413" lon="13.4860487"><ele>131.0</ele><time>2026-05-03T10:03:59.119Z</time></trkpt><trkpt lat="46.0177546" lon="13.4862018"><ele>131.0</ele><time>2026-05-03T10:04:00.116Z</time></trkpt><trkpt lat="46.0177761" lon="13.4863302"><ele>130.8</ele><time>2026-05-03T10:04:01.121Z</time></trkpt><trkpt lat="46.0178098" lon="13.4864493"><ele>130.6</ele><time>2026-05-03T10:04:02.114Z</time></trkpt><trkpt lat="46.0178666" lon="13.4865687"><ele>130.4</ele><time>2026-05-03T10:04:03.123Z</time></trkpt><trkpt lat="46.0179404" lon="13.4866787"><ele>130.2</ele><time>2026-05-03T10:04:04.119Z</time></trkpt><trkpt lat="46.0180337" lon="13.4867946"><ele>130.0</ele><time>2026-05-03T10:04:05.12Z</time></trkpt><trkpt lat="46.0181407" lon="13.4869166"><ele>130.0</ele><time>2026-05-03T10:04:06.119Z</time></trkpt><trkpt lat="46.0182584" lon="13.4870569"><ele>130.0</ele><time>2026-05-03T10:04:07.128Z</time></trkpt><trkpt lat="46.0183907" lon="13.4872119"><ele>130.0</ele><time>2026-05-03T10:04:08.131Z</time></trkpt><trkpt lat="46.018529" lon="13.4873752"><ele>130.5</ele><time>2026-05-03T10:04:09.125Z</time></trkpt><trkpt lat="46.0186495" lon="13.4875192"><ele>131.0</ele><time>2026-05-03T10:04:10.134Z</time></trkpt><trkpt lat="46.0187544" lon="13.4876402"><ele>131.5</ele><time>2026-05-03T10:04:11.115Z</time></trkpt><trkpt lat="46.0188428" lon="13.4877459"><ele>132.0</ele><time>2026-05-03T10:04:12.118Z</time></trkpt><trkpt lat="46.0189207" lon="13.4878454"><ele>132.0</ele><time>2026-05-03T10:04:13.129Z</time></trkpt><trkpt lat="46.0189969" lon="13.4879231"><ele>132.0</ele><time>2026-05-03T10:04:14.12Z</time></trkpt><trkpt lat="46.0190896" lon="13.487998"><ele>132.0</ele><time>2026-05-03T10:04:15.115Z</time></trkpt><trkpt lat="46.0192091" lon="13.4880666"><ele>132.0</ele><time>2026-05-03T10:04:16.103Z</time></trkpt><trkpt lat="46.0193356" lon="13.4881363"><ele>131.5</ele><time>2026-05-03T10:04:17.117Z</time></trkpt><trkpt lat="46.0194685" lon="13.4882149"><ele>131.0</ele><time>2026-05-03T10:04:18.116Z</time></trkpt><trkpt lat="46.0195984" lon="13.4883024"><ele>130.5</ele><time>2026-05-03T10:04:19.114Z</time></trkpt><trkpt lat="46.0197273" lon="13.4884087"><ele>130.0</ele><time>2026-05-03T10:04:20.127Z</time></trkpt><trkpt lat="46.0198602" lon="13.4885178"><ele>128.5</ele><time>2026-05-03T10:04:21.133Z</time></trkpt><trkpt lat="46.0199838" lon="13.488621"><ele>127.0</ele><time>2026-05-03T10:04:22.118Z</time></trkpt><trkpt lat="46.0200914" lon="13.4886954"><ele>125.5</ele><time>2026-05-03T10:04:23.115Z</time></trkpt><trkpt lat="46.0201876" lon="13.4887579"><ele>124.0</ele><time>2026-05-03T10:04:24.125Z</time></trkpt><trkpt lat="46.0202818" lon="13.4888054"><ele>122.80000000000001</ele><time>2026-05-03T10:04:25.126Z</time></trkpt><trkpt lat="46.0203885" lon="13.4888384"><ele>121.60000000000001</ele><time>2026-05-03T10:04:26.123Z</time></trkpt><trkpt lat="46.0204896" lon="13.4888736"><ele>120.4</ele><time>2026-05-03T10:04:27.123Z</time></trkpt><trkpt lat="46.0205869" lon="13.488919"><ele>119.2</ele><time>2026-05-03T10:04:28.124Z</time></trkpt><trkpt lat="46.0206769" lon="13.4889671"><ele>118.0</ele><time>2026-05-03T10:04:29.126Z</time></trkpt><trkpt lat="46.0207607" lon="13.4890171"><ele>119.0</ele><time>2026-05-03T10:04:30.127Z</time></trkpt><trkpt lat="46.0208287" lon="13.489059"><ele>120.00000000000001</ele><time>2026-05-03T10:04:31.13Z</time></trkpt><trkpt lat="46.0209097" lon="13.4890886"><ele>121.00000000000001</ele><time>2026-05-03T10:04:33.12Z</time></trkpt><trkpt lat="46.0208912" lon="13.4889549"><ele>122.0</ele><time>2026-05-03T10:04:36.111Z</time></trkpt><trkpt lat="46.0208499" lon="13.4888523"><ele>123.0</ele><time>2026-05-03T10:04:37.115Z</time></trkpt><trkpt lat="46.0208124" lon="13.4886922"><ele>123.25</ele><time>2026-05-03T10:04:38.134Z</time></trkpt><trkpt lat="46.0207686" lon="13.4885157"><ele>123.5</ele><time>2026-05-03T10:04:39.124Z</time></trkpt><trkpt lat="46.0207537" lon="13.4883261"><ele>123.75</ele><time>2026-05-03T10:04:40.156Z</time></trkpt><trkpt lat="46.0207628" lon="13.4881409"><ele>124.0</ele><time>2026-05-03T10:04:41.126Z</time></trkpt><trkpt lat="46.0207836" lon="13.4879668"><ele>123.25</ele><time>2026-05-03T10:04:42.125Z</time></trkpt><trkpt lat="46.020769" lon="13.4878077"><ele>122.5</ele><time>2026-05-03T10:04:43.118Z</time></trkpt><trkpt lat="46.0207119" lon="13.4876547"><ele>121.75</ele><time>2026-05-03T10:04:44.107Z</time></trkpt><trkpt lat="46.0206309" lon="13.4875169"><ele>121.0</ele><time>2026-05-03T10:04:45.113Z</time></trkpt><trkpt lat="46.0205772" lon="13.487386"><ele>121.0</ele><time>2026-05-03T10:04:46.117Z</time></trkpt><trkpt lat="46.0205642" lon="13.487226"><ele>121.0</ele><time>2026-05-03T10:04:47.121Z</time></trkpt><trkpt lat="46.0205511" lon="13.4870497"><ele>121.0</ele><time>2026-05-03T10:04:48.118Z</time></trkpt><trkpt lat="46.0205241" lon="13.4868806"><ele>121.0</ele><time>2026-05-03T10:04:49.122Z</time></trkpt><trkpt lat="46.0205151" lon="13.4867165"><ele>119.0</ele><time>2026-05-03T10:04:50.126Z</time></trkpt><trkpt lat="46.0205298" lon="13.4865296"><ele>117.0</ele><time>2026-05-03T10:04:51.134Z</time></trkpt><trkpt lat="46.0205653" lon="13.4863551"><ele>115.0</ele><time>2026-05-03T10:04:52.117Z</time></trkpt><trkpt lat="46.020604" lon="13.4861814"><ele>113.0</ele><time>2026-05-03T10:04:53.132Z</time></trkpt><trkpt lat="46.0206079" lon="13.4859954"><ele>108.33333333333333</ele><time>2026-05-03T10:04:54.112Z</time></trkpt><trkpt lat="46.0205861" lon="13.485792"><ele>103.66666666666666</ele><time>2026-05-03T10:04:55.117Z</time></trkpt><trkpt lat="46.0205511" lon="13.4855752"><ele>99.0</ele><time>2026-05-03T10:04:56.11Z</time></trkpt><trkpt lat="46.0205089" lon="13.4853559"><ele>97.75</ele><time>2026-05-03T10:04:57.098Z</time></trkpt><trkpt lat="46.0204714" lon="13.485129"><ele>96.5</ele><time>2026-05-03T10:04:58.11Z</time></trkpt><trkpt lat="46.0204404" lon="13.484928"><ele>95.25</ele><time>2026-05-03T10:04:59.101Z</time></trkpt><trkpt lat="46.0204069" lon="13.4847568"><ele>94.0</ele><time>2026-05-03T10:05:00.105Z</time></trkpt><trkpt lat="46.0203607" lon="13.4846251"><ele>94.0</ele><time>2026-05-03T10:05:01.1Z</time></trkpt><trkpt lat="46.0203285" lon="13.484514"><ele>94.0</ele><time>2026-05-03T10:05:02.108Z</time></trkpt><trkpt lat="46.0203519" lon="13.4844075"><ele>94.0</ele><time>2026-05-03T10:05:04.118Z</time></trkpt><trkpt lat="46.020429" lon="13.4844411"><ele>94.0</ele><time>2026-05-03T10:05:06.117Z</time></trkpt><trkpt lat="46.0205242" lon="13.4845899"><ele>94.0</ele><time>2026-05-03T10:05:08.11Z</time></trkpt><trkpt lat="46.020611" lon="13.4846279"><ele>93.6</ele><time>2026-05-03T10:05:09.119Z</time></trkpt><trkpt lat="46.0206842" lon="13.4845766"><ele>93.2</ele><time>2026-05-03T10:05:10.114Z</time></trkpt><trkpt lat="46.0207561" lon="13.4844656"><ele>92.8</ele><time>2026-05-03T10:05:11.12Z</time></trkpt><trkpt lat="46.0208386" lon="13.4843452"><ele>92.39999999999999</ele><time>2026-05-03T10:05:12.108Z</time></trkpt><trkpt lat="46.0209353" lon="13.4842475"><ele>92.0</ele><time>2026-05-03T10:05:13.12Z</time></trkpt><trkpt lat="46.0210405" lon="13.4841908"><ele>93.0</ele><time>2026-05-03T10:05:14.11Z</time></trkpt><trkpt lat="46.0211511" lon="13.4842312"><ele>94.0</ele><time>2026-05-03T10:05:15.126Z</time></trkpt><trkpt lat="46.0212688" lon="13.4843373"><ele>95.0</ele><time>2026-05-03T10:05:16.112Z</time></trkpt><trkpt lat="46.0213732" lon="13.484467"><ele>96.0</ele><time>2026-05-03T10:05:17.105Z</time></trkpt><trkpt lat="46.0214447" lon="13.4846327"><ele>96.75</ele><time>2026-05-03T10:05:18.105Z</time></trkpt><trkpt lat="46.0215021" lon="13.4848251"><ele>97.5</ele><time>2026-05-03T10:05:19.11Z</time></trkpt><trkpt lat="46.0215905" lon="13.4849737"><ele>98.25</ele><time>2026-05-03T10:05:20.119Z</time></trkpt><trkpt lat="46.0217078" lon="13.4851232"><ele>99.0</ele><time>2026-05-03T10:05:21.123Z</time></trkpt><trkpt lat="46.0218395" lon="13.4852561"><ele>101.66666666666666</ele><time>2026-05-03T10:05:22.12Z</time></trkpt><trkpt lat="46.0219786" lon="13.4854021"><ele>104.33333333333333</ele><time>2026-05-03T10:05:23.124Z</time></trkpt><trkpt lat="46.0220966" lon="13.4855397"><ele>107.0</ele><time>2026-05-03T10:05:24.114Z</time></trkpt><trkpt lat="46.0222006" lon="13.4856464"><ele>107.0</ele><time>2026-05-03T10:05:25.115Z</time></trkpt><trkpt lat="46.0223264" lon="13.4857274"><ele>107.0</ele><time>2026-05-03T10:05:26.119Z</time></trkpt><trkpt lat="46.0224794" lon="13.4857749"><ele>107.0</ele><time>2026-05-03T10:05:27.12Z</time></trkpt><trkpt lat="46.0226496" lon="13.4858148"><ele>110.25</ele><time>2026-05-03T10:05:28.111Z</time></trkpt><trkpt lat="46.0228034" lon="13.485886"><ele>113.5</ele><time>2026-05-03T10:05:29.114Z</time></trkpt><trkpt lat="46.0229335" lon="13.4859895"><ele>116.75</ele><time>2026-05-03T10:05:30.101Z</time></trkpt><trkpt lat="46.0230295" lon="13.4860915"><ele>120.0</ele><time>2026-05-03T10:05:31.127Z</time></trkpt><trkpt lat="46.023101" lon="13.4861842"><ele>120.0</ele><time>2026-05-03T10:05:32.107Z</time></trkpt><trkpt lat="46.0231471" lon="13.4862583"><ele>120.0</ele><time>2026-05-03T10:05:33.121Z</time></trkpt><trkpt lat="46.0232127" lon="13.4863737"><ele>120.0</ele><time>2026-05-03T10:05:35.119Z</time></trkpt><trkpt lat="46.02327" lon="13.4864369"><ele>120.0</ele><time>2026-05-03T10:05:38.115Z</time></trkpt><trkpt lat="46.0233298" lon="13.4864797"><ele>120.0</ele><time>2026-05-03T10:05:41.118Z</time></trkpt><trkpt lat="46.0234143" lon="13.4865079"><ele>120.0</ele><time>2026-05-03T10:05:44.109Z</time></trkpt><trkpt lat="46.0235278" lon="13.4865432"><ele>122.75</ele><time>2026-05-03T10:05:46.114Z</time></trkpt><trkpt lat="46.0236135" lon="13.4865813"><ele>125.5</ele><time>2026-05-03T10:05:47.11Z</time></trkpt><trkpt lat="46.0237097" lon="13.4866517"><ele>128.25</ele><time>2026-05-03T10:05:48.121Z</time></trkpt><trkpt lat="46.0238216" lon="13.4867344"><ele>131.0</ele><time>2026-05-03T10:05:49.124Z</time></trkpt><trkpt lat="46.0239457" lon="13.4868326"><ele>131.0</ele><time>2026-05-03T10:05:50.116Z</time></trkpt><trkpt lat="46.0240774" lon="13.4869331"><ele>131.0</ele><time>2026-05-03T10:05:51.102Z</time></trkpt><trkpt lat="46.0242013" lon="13.4870316"><ele>131.0</ele><time>2026-05-03T10:05:52.101Z</time></trkpt><trkpt lat="46.0243093" lon="13.4871238"><ele>131.0</ele><time>2026-05-03T10:05:53.115Z</time></trkpt><trkpt lat="46.0244104" lon="13.4872249"><ele>129.75</ele><time>2026-05-03T10:05:54.101Z</time></trkpt><trkpt lat="46.0245015" lon="13.4873429"><ele>128.5</ele><time>2026-05-03T10:05:55.117Z</time></trkpt><trkpt lat="46.0245864" lon="13.4874703"><ele>127.25</ele><time>2026-05-03T10:05:56.096Z</time></trkpt><trkpt lat="46.0246722" lon="13.4875899"><ele>126.0</ele><time>2026-05-03T10:05:57.106Z</time></trkpt><trkpt lat="46.0247833" lon="13.4876913"><ele>126.0</ele><time>2026-05-03T10:05:58.108Z</time></trkpt><trkpt lat="46.0249107" lon="13.487782"><ele>126.0</ele><time>2026-05-03T10:05:59.118Z</time></trkpt><trkpt lat="46.0250501" lon="13.487875"><ele>126.0</ele><time>2026-05-03T10:06:00.122Z</time></trkpt><trkpt lat="46.0251669" lon="13.4879954"><ele>126.0</ele><time>2026-05-03T10:06:01.114Z</time></trkpt><trkpt lat="46.0252548" lon="13.4881522"><ele>131.0</ele><time>2026-05-03T10:06:02.114Z</time></trkpt><trkpt lat="46.0253277" lon="13.4882822"><ele>136.0</ele><time>2026-05-03T10:06:03.109Z</time></trkpt><trkpt lat="46.0254298" lon="13.4883563"><ele>141.0</ele><time>2026-05-03T10:06:04.11Z</time></trkpt><trkpt lat="46.0255444" lon="13.4884113"><ele>146.0</ele><time>2026-05-03T10:06:05.107Z</time></trkpt><trkpt lat="46.02568" lon="13.4884295"><ele>149.75</ele><time>2026-05-03T10:06:06.1Z</time></trkpt><trkpt lat="46.0258182" lon="13.4884161"><ele>153.5</ele><time>2026-05-03T10:06:07.098Z</time></trkpt><trkpt lat="46.0259566" lon="13.4884044"><ele>157.25</ele><time>2026-05-03T10:06:08.098Z</time></trkpt><trkpt lat="46.0260783" lon="13.4884262"><ele>161.0</ele><time>2026-05-03T10:06:09.108Z</time></trkpt><trkpt lat="46.0261538" lon="13.4884917"><ele>161.0</ele><time>2026-05-03T10:06:10.115Z</time></trkpt><trkpt lat="46.0261876" lon="13.4886009"><ele>161.0</ele><time>2026-05-03T10:06:11.124Z</time></trkpt><trkpt lat="46.0262277" lon="13.488733"><ele>161.0</ele><time>2026-05-03T10:06:12.107Z</time></trkpt><trkpt lat="46.026286" lon="13.488871"><ele>161.0</ele><time>2026-05-03T10:06:13.099Z</time></trkpt><trkpt lat="46.0263471" lon="13.4890336"><ele>161.0</ele><time>2026-05-03T10:06:14.102Z</time></trkpt><trkpt lat="46.0263854" lon="13.4892104"><ele>161.4</ele><time>2026-05-03T10:06:15.118Z</time></trkpt><trkpt lat="46.0263991" lon="13.4893551"><ele>161.8</ele><time>2026-05-03T10:06:16.108Z</time></trkpt><trkpt lat="46.0264352" lon="13.4894704"><ele>162.20000000000002</ele><time>2026-05-03T10:06:17.141Z</time></trkpt><trkpt lat="46.0265128" lon="13.4895657"><ele>162.60000000000002</ele><time>2026-05-03T10:06:18.118Z</time></trkpt><trkpt lat="46.0266106" lon="13.4896513"><ele>163.0</ele><time>2026-05-03T10:06:19.117Z</time></trkpt><trkpt lat="46.0267153" lon="13.4897723"><ele>170.33333333333334</ele><time>2026-05-03T10:06:20.121Z</time></trkpt><trkpt lat="46.0268223" lon="13.4899204"><ele>177.66666666666666</ele><time>2026-05-03T10:06:21.139Z</time></trkpt><trkpt lat="46.026935" lon="13.4900913"><ele>185.0</ele><time>2026-05-03T10:06:22.125Z</time></trkpt><trkpt lat="46.0270656" lon="13.4902695"><ele>181.66666666666666</ele><time>2026-05-03T10:06:23.147Z</time></trkpt><trkpt lat="46.0272067" lon="13.4904572"><ele>178.33333333333334</ele><time>2026-05-03T10:06:24.137Z</time></trkpt><trkpt lat="46.0273457" lon="13.4906503"><ele>175.0</ele><time>2026-05-03T10:06:25.128Z</time></trkpt><trkpt lat="46.0274807" lon="13.4908374"><ele>182.66666666666669</ele><time>2026-05-03T10:06:26.12Z</time></trkpt><trkpt lat="46.0276075" lon="13.4910078"><ele>190.33333333333334</ele><time>2026-05-03T10:06:27.123Z</time></trkpt><trkpt lat="46.0277226" lon="13.4911705"><ele>198.0</ele><time>2026-05-03T10:06:28.116Z</time></trkpt><trkpt lat="46.0278233" lon="13.4913438"><ele>198.0</ele><time>2026-05-03T10:06:29.119Z</time></trkpt><trkpt lat="46.0279201" lon="13.4915056"><ele>198.0</ele><time>2026-05-03T10:06:30.127Z</time></trkpt><trkpt lat="46.0280286" lon="13.4916202"><ele>198.0</ele><time>2026-05-03T10:06:31.118Z</time></trkpt><trkpt lat="46.0281336" lon="13.4917045"><ele>198.0</ele><time>2026-05-03T10:06:32.115Z</time></trkpt><trkpt lat="46.0282422" lon="13.4917769"><ele>204.0</ele><time>2026-05-03T10:06:33.131Z</time></trkpt><trkpt lat="46.028353" lon="13.4918937"><ele>210.0</ele><time>2026-05-03T10:06:34.124Z</time></trkpt><trkpt lat="46.0284732" lon="13.4920459"><ele>216.0</ele><time>2026-05-03T10:06:35.107Z</time></trkpt><trkpt lat="46.0286085" lon="13.4922026"><ele>218.33333333333331</ele><time>2026-05-03T10:06:36.106Z</time></trkpt><trkpt lat="46.0287596" lon="13.4923354"><ele>220.66666666666666</ele><time>2026-05-03T10:06:37.106Z</time></trkpt><trkpt lat="46.0289196" lon="13.4924447"><ele>223.0</ele><time>2026-05-03T10:06:38.099Z</time></trkpt><trkpt lat="46.0290761" lon="13.492535"><ele>225.0</ele><time>2026-05-03T10:06:39.113Z</time></trkpt><trkpt lat="46.029204" lon="13.4926127"><ele>227.0</ele><time>2026-05-03T10:06:40.109Z</time></trkpt><trkpt lat="46.0292873" lon="13.4927124"><ele>229.0</ele><time>2026-05-03T10:06:41.109Z</time></trkpt><trkpt lat="46.0293485" lon="13.4928288"><ele>231.0</ele><time>2026-05-03T10:06:42.112Z</time></trkpt><trkpt lat="46.0293745" lon="13.4929421"><ele>233.0</ele><time>2026-05-03T10:06:43.114Z</time></trkpt><trkpt lat="46.0293609" lon="13.4930519"><ele>234.0</ele><time>2026-05-03T10:06:44.098Z</time></trkpt><trkpt lat="46.0292939" lon="13.4931614"><ele>235.0</ele><time>2026-05-03T10:06:45.113Z</time></trkpt><trkpt lat="46.0291818" lon="13.4932653"><ele>236.0</ele><time>2026-05-03T10:06:46.098Z</time></trkpt><trkpt lat="46.0290574" lon="13.4933869"><ele>237.0</ele><time>2026-05-03T10:06:47.119Z</time></trkpt><trkpt lat="46.028939" lon="13.4935279"><ele>236.0</ele><time>2026-05-03T10:06:48.12Z</time></trkpt><trkpt lat="46.0288608" lon="13.4936815"><ele>235.0</ele><time>2026-05-03T10:06:49.122Z</time></trkpt><trkpt lat="46.0288284" lon="13.4938542"><ele>234.0</ele><time>2026-05-03T10:06:50.11Z</time></trkpt><trkpt lat="46.028816" lon="13.4940708"><ele>233.0</ele><time>2026-05-03T10:06:51.119Z</time></trkpt><trkpt lat="46.0288029" lon="13.4942929"><ele>233.0</ele><time>2026-05-03T10:06:52.123Z</time></trkpt><trkpt lat="46.028756" lon="13.4944811"><ele>233.0</ele><time>2026-05-03T10:06:53.135Z</time></trkpt><trkpt lat="46.0286782" lon="13.4946549"><ele>233.0</ele><time>2026-05-03T10:06:54.113Z</time></trkpt><trkpt lat="46.0286112" lon="13.4948012"><ele>233.0</ele><time>2026-05-03T10:06:55.118Z</time></trkpt><trkpt lat="46.0285662" lon="13.4949517"><ele>235.0</ele><time>2026-05-03T10:06:56.121Z</time></trkpt><trkpt lat="46.0285692" lon="13.4951421"><ele>237.0</ele><time>2026-05-03T10:06:57.128Z</time></trkpt><trkpt lat="46.0285919" lon="13.4953585"><ele>239.0</ele><time>2026-05-03T10:06:58.12Z</time></trkpt><trkpt lat="46.0286151" lon="13.4956106"><ele>239.0</ele><time>2026-05-03T10:06:59.127Z</time></trkpt><trkpt lat="46.0286319" lon="13.49586"><ele>239.0</ele><time>2026-05-03T10:07:00.126Z</time></trkpt><trkpt lat="46.0286424" lon="13.4960633"><ele>239.0</ele><time>2026-05-03T10:07:01.125Z</time></trkpt><trkpt lat="46.0286445" lon="13.4962488"><ele>239.0</ele><time>2026-05-03T10:07:02.123Z</time></trkpt><trkpt lat="46.0286252" lon="13.4964009"><ele>241.25</ele><time>2026-05-03T10:07:03.13Z</time></trkpt><trkpt lat="46.0285785" lon="13.4965236"><ele>243.5</ele><time>2026-05-03T10:07:04.12Z</time></trkpt><trkpt lat="46.0284738" lon="13.4966318"><ele>245.75</ele><time>2026-05-03T10:07:05.124Z</time></trkpt><trkpt lat="46.0283516" lon="13.4967076"><ele>248.0</ele><time>2026-05-03T10:07:06.108Z</time></trkpt><trkpt lat="46.0282327" lon="13.4967786"><ele>243.5</ele><time>2026-05-03T10:07:07.116Z</time></trkpt><trkpt lat="46.0281473" lon="13.4968821"><ele>239.0</ele><time>2026-05-03T10:07:08.133Z</time></trkpt><trkpt lat="46.0281032" lon="13.4970178"><ele>234.5</ele><time>2026-05-03T10:07:09.117Z</time></trkpt><trkpt lat="46.0281116" lon="13.4971768"><ele>230.0</ele><time>2026-05-03T10:07:10.117Z</time></trkpt><trkpt lat="46.028158" lon="13.4973605"><ele>228.33333333333334</ele><time>2026-05-03T10:07:11.123Z</time></trkpt><trkpt lat="46.0282003" lon="13.4975856"><ele>226.66666666666669</ele><time>2026-05-03T10:07:12.106Z</time></trkpt><trkpt lat="46.0282184" lon="13.4978429"><ele>225.0</ele><time>2026-05-03T10:07:13.104Z</time></trkpt><trkpt lat="46.0282481" lon="13.4981287"><ele>231.0</ele><time>2026-05-03T10:07:14.117Z</time></trkpt><trkpt lat="46.0283164" lon="13.4984128"><ele>237.0</ele><time>2026-05-03T10:07:15.128Z</time></trkpt><trkpt lat="46.0284033" lon="13.4986873"><ele>243.0</ele><time>2026-05-03T10:07:16.107Z</time></trkpt><trkpt lat="46.0284708" lon="13.4989124"><ele>243.0</ele><time>2026-05-03T10:07:17.114Z</time></trkpt><trkpt lat="46.0285269" lon="13.4990941"><ele>243.0</ele><time>2026-05-03T10:07:18.115Z</time></trkpt><trkpt lat="46.0285936" lon="13.4992078"><ele>243.0</ele><time>2026-05-03T10:07:19.128Z</time></trkpt><trkpt lat="46.0286786" lon="13.4992891"><ele>243.0</ele><time>2026-05-03T10:07:20.142Z</time></trkpt><trkpt lat="46.0287786" lon="13.4993631"><ele>243.0</ele><time>2026-05-03T10:07:21.109Z</time></trkpt><trkpt lat="46.0288591" lon="13.4994646"><ele>243.0</ele><time>2026-05-03T10:07:22.111Z</time></trkpt><trkpt lat="46.028889" lon="13.49963"><ele>243.0</ele><time>2026-05-03T10:07:23.109Z</time></trkpt><trkpt lat="46.0289031" lon="13.4998247"><ele>243.0</ele><time>2026-05-03T10:07:24.109Z</time></trkpt><trkpt lat="46.0289172" lon="13.5000113"><ele>241.0</ele><time>2026-05-03T10:07:25.106Z</time></trkpt><trkpt lat="46.0289753" lon="13.5002114"><ele>239.0</ele><time>2026-05-03T10:07:26.126Z</time></trkpt><trkpt lat="46.0290566" lon="13.5003862"><ele>237.0</ele><time>2026-05-03T10:07:27.108Z</time></trkpt><trkpt lat="46.029131" lon="13.5005178"><ele>235.0</ele><time>2026-05-03T10:07:28.117Z</time></trkpt><trkpt lat="46.0291903" lon="13.5006434"><ele>233.6</ele><time>2026-05-03T10:07:29.125Z</time></trkpt><trkpt lat="46.0292281" lon="13.5007863"><ele>232.2</ele><time>2026-05-03T10:07:30.126Z</time></trkpt><trkpt lat="46.029248" lon="13.500919"><ele>230.8</ele><time>2026-05-03T10:07:31.108Z</time></trkpt><trkpt lat="46.0292902" lon="13.5010284"><ele>229.4</ele><time>2026-05-03T10:07:32.125Z</time></trkpt><trkpt lat="46.0293707" lon="13.5011187"><ele>228.0</ele><time>2026-05-03T10:07:33.116Z</time></trkpt><trkpt lat="46.0294941" lon="13.5011463"><ele>228.0</ele><time>2026-05-03T10:07:34.109Z</time></trkpt><trkpt lat="46.0296356" lon="13.5011499"><ele>228.0</ele><time>2026-05-03T10:07:35.109Z</time></trkpt><trkpt lat="46.0297803" lon="13.5011335"><ele>228.0</ele><time>2026-05-03T10:07:36.126Z</time></trkpt><trkpt lat="46.029923" lon="13.5011051"><ele>228.0</ele><time>2026-05-03T10:07:37.134Z</time></trkpt><trkpt lat="46.0300418" lon="13.5010722"><ele>225.0</ele><time>2026-05-03T10:07:38.118Z</time></trkpt><trkpt lat="46.030152" lon="13.5010832"><ele>222.0</ele><time>2026-05-03T10:07:39.12Z</time></trkpt><trkpt lat="46.0302637" lon="13.5011634"><ele>219.0</ele><time>2026-05-03T10:07:40.116Z</time></trkpt><trkpt lat="46.0303857" lon="13.5012563"><ele>216.0</ele><time>2026-05-03T10:07:41.121Z</time></trkpt><trkpt lat="46.0305214" lon="13.5013235"><ele>214.66666666666666</ele><time>2026-05-03T10:07:42.121Z</time></trkpt><trkpt lat="46.0306319" lon="13.501378"><ele>213.33333333333331</ele><time>2026-05-03T10:07:43.115Z</time></trkpt><trkpt lat="46.0307094" lon="13.5014536"><ele>212.0</ele><time>2026-05-03T10:07:44.112Z</time></trkpt><trkpt lat="46.03076" lon="13.5015327"><ele>210.66666666666666</ele><time>2026-05-03T10:07:45.12Z</time></trkpt><trkpt lat="46.0307979" lon="13.5016182"><ele>209.33333333333331</ele><time>2026-05-03T10:07:46.116Z</time></trkpt><trkpt lat="46.0308578" lon="13.5017001"><ele>208.0</ele><time>2026-05-03T10:07:47.119Z</time></trkpt><trkpt lat="46.0309642" lon="13.5017866"><ele>206.5</ele><time>2026-05-03T10:07:48.112Z</time></trkpt><trkpt lat="46.0310994" lon="13.5018662"><ele>205.0</ele><time>2026-05-03T10:07:49.119Z</time></trkpt><trkpt lat="46.031239" lon="13.5019444"><ele>203.5</ele><time>2026-05-03T10:07:50.115Z</time></trkpt><trkpt lat="46.0313561" lon="13.5020532"><ele>202.0</ele><time>2026-05-03T10:07:51.12Z</time></trkpt><trkpt lat="46.0314471" lon="13.5021883"><ele>201.75</ele><time>2026-05-03T10:07:52.113Z</time></trkpt><trkpt lat="46.031506" lon="13.5023624"><ele>201.5</ele><time>2026-05-03T10:07:53.121Z</time></trkpt><trkpt lat="46.0315627" lon="13.5025509"><ele>201.25</ele><time>2026-05-03T10:07:54.109Z</time></trkpt><trkpt lat="46.0316296" lon="13.5027116"><ele>201.0</ele><time>2026-05-03T10:07:55.12Z</time></trkpt><trkpt lat="46.0317364" lon="13.5028459"><ele>197.66666666666666</ele><time>2026-05-03T10:07:56.11Z</time></trkpt><trkpt lat="46.0318835" lon="13.502969"><ele>194.33333333333331</ele><time>2026-05-03T10:07:57.115Z</time></trkpt><trkpt lat="46.0320543" lon="13.5030821"><ele>191.0</ele><time>2026-05-03T10:07:58.101Z</time></trkpt><trkpt lat="46.0321961" lon="13.5031997"><ele>191.0</ele><time>2026-05-03T10:07:59.12Z</time></trkpt><trkpt lat="46.0323183" lon="13.5033399"><ele>191.0</ele><time>2026-05-03T10:08:00.114Z</time></trkpt><trkpt lat="46.0324156" lon="13.5035328"><ele>191.0</ele><time>2026-05-03T10:08:01.113Z</time></trkpt><trkpt lat="46.0324931" lon="13.5037296"><ele>193.0</ele><time>2026-05-03T10:08:02.107Z</time></trkpt><trkpt lat="46.0325747" lon="13.5039227"><ele>195.0</ele><time>2026-05-03T10:08:03.112Z</time></trkpt><trkpt lat="46.0326561" lon="13.5041"><ele>197.0</ele><time>2026-05-03T10:08:04.116Z</time></trkpt><trkpt lat="46.0327438" lon="13.5042502"><ele>199.0</ele><time>2026-05-03T10:08:05.121Z</time></trkpt><trkpt lat="46.0328385" lon="13.5043776"><ele>198.99999999999997</ele><time>2026-05-03T10:08:06.117Z</time></trkpt><trkpt lat="46.0329273" lon="13.5044844"><ele>199.0</ele><time>2026-05-03T10:08:07.121Z</time></trkpt><trkpt lat="46.0330088" lon="13.5045604"><ele>199.0</ele><time>2026-05-03T10:08:08.116Z</time></trkpt><trkpt lat="46.0330837" lon="13.5046196"><ele>199.0</ele><time>2026-05-03T10:08:09.115Z</time></trkpt><trkpt lat="46.03315" lon="13.5046775"><ele>198.99999999999997</ele><time>2026-05-03T10:08:10.114Z</time></trkpt><trkpt lat="46.0332048" lon="13.5047359"><ele>199.0</ele><time>2026-05-03T10:08:11.123Z</time></trkpt><trkpt lat="46.0332996" lon="13.5048252"><ele>199.83333333333331</ele><time>2026-05-03T10:08:13.107Z</time></trkpt><trkpt lat="46.0333681" lon="13.5048746"><ele>200.66666666666666</ele><time>2026-05-03T10:08:15.115Z</time></trkpt><trkpt lat="46.0334657" lon="13.5049124"><ele>201.5</ele><time>2026-05-03T10:08:47.12Z</time></trkpt><trkpt lat="46.0335348" lon="13.5049584"><ele>202.33333333333331</ele><time>2026-05-03T10:08:48.138Z</time></trkpt><trkpt lat="46.0336111" lon="13.5050112"><ele>203.16666666666666</ele><time>2026-05-03T10:08:49.118Z</time></trkpt><trkpt lat="46.0336876" lon="13.5050672"><ele>204.0</ele><time>2026-05-03T10:08:50.125Z</time></trkpt><trkpt lat="46.0337538" lon="13.5051071"><ele>204.0</ele><time>2026-05-03T10:08:51.115Z</time></trkpt><trkpt lat="46.0338406" lon="13.5051203"><ele>204.0</ele><time>2026-05-03T10:08:53.131Z</time></trkpt><trkpt lat="46.0338817" lon="13.5050086"><ele>204.0</ele><time>2026-05-03T10:08:55.106Z</time></trkpt><trkpt lat="46.0339348" lon="13.5049545"><ele>204.0</ele><time>2026-05-03T10:08:58.125Z</time></trkpt><trkpt lat="46.0340013" lon="13.504956"><ele>204.0</ele><time>2026-05-03T10:09:01.112Z</time></trkpt><trkpt lat="46.0340688" lon="13.5049412"><ele>204.0</ele><time>2026-05-03T10:09:16.099Z</time></trkpt><trkpt lat="46.0341363" lon="13.5048459"><ele>203.42857142857144</ele><time>2026-05-03T10:09:18.098Z</time></trkpt><trkpt lat="46.0341832" lon="13.5047631"><ele>202.85714285714286</ele><time>2026-05-03T10:09:19.101Z</time></trkpt><trkpt lat="46.034221" lon="13.504662"><ele>202.28571428571428</ele><time>2026-05-03T10:09:20.088Z</time></trkpt><trkpt lat="46.0342582" lon="13.5045628"><ele>201.71428571428572</ele><time>2026-05-03T10:09:21.118Z</time></trkpt><trkpt lat="46.0343048" lon="13.504475"><ele>201.14285714285714</ele><time>2026-05-03T10:09:22.099Z</time></trkpt><trkpt lat="46.0343565" lon="13.5044187"><ele>200.57142857142858</ele><time>2026-05-03T10:09:23.115Z</time></trkpt><trkpt lat="46.0344235" lon="13.5044233"><ele>200.0</ele><time>2026-05-03T10:09:24.112Z</time></trkpt><trkpt lat="46.0345124" lon="13.5044822"><ele>200.0</ele><time>2026-05-03T10:09:25.098Z</time></trkpt><trkpt lat="46.0346124" lon="13.5045415"><ele>200.0</ele><time>2026-05-03T10:09:26.096Z</time></trkpt><trkpt lat="46.0347293" lon="13.5045814"><ele>200.0</ele><time>2026-05-03T10:09:27.097Z</time></trkpt><trkpt lat="46.0348531" lon="13.5046108"><ele>200.0</ele><time>2026-05-03T10:09:28.096Z</time></trkpt><trkpt lat="46.0349667" lon="13.5046317"><ele>198.75</ele><time>2026-05-03T10:09:29.097Z</time></trkpt><trkpt lat="46.0350793" lon="13.5046236"><ele>197.5</ele><time>2026-05-03T10:09:30.092Z</time></trkpt><trkpt lat="46.0351964" lon="13.5045929"><ele>196.25</ele><time>2026-05-03T10:09:31.093Z</time></trkpt><trkpt lat="46.0353103" lon="13.504555"><ele>195.0</ele><time>2026-05-03T10:09:32.103Z</time></trkpt><trkpt lat="46.0354197" lon="13.5045364"><ele>195.0</ele><time>2026-05-03T10:09:33.095Z</time></trkpt><trkpt lat="46.0355193" lon="13.5045288"><ele>195.0</ele><time>2026-05-03T10:09:34.102Z</time></trkpt><trkpt lat="46.0356044" lon="13.504499"><ele>195.0</ele><time>2026-05-03T10:09:35.094Z</time></trkpt><trkpt lat="46.0356766" lon="13.5044186"><ele>195.0</ele><time>2026-05-03T10:09:36.088Z</time></trkpt><trkpt lat="46.0357329" lon="13.5042994"><ele>195.0</ele><time>2026-05-03T10:09:37.097Z</time></trkpt><trkpt lat="46.0357824" lon="13.5041394"><ele>196.75</ele><time>2026-05-03T10:09:38.083Z</time></trkpt><trkpt lat="46.035833" lon="13.5039659"><ele>198.5</ele><time>2026-05-03T10:09:39.089Z</time></trkpt><trkpt lat="46.0358914" lon="13.503817"><ele>200.25</ele><time>2026-05-03T10:09:40.094Z</time></trkpt><trkpt lat="46.0359611" lon="13.5036848"><ele>202.0</ele><time>2026-05-03T10:09:41.12Z</time></trkpt><trkpt lat="46.0360165" lon="13.5035803"><ele>199.49999999999997</ele><time>2026-05-03T10:09:42.098Z</time></trkpt><trkpt lat="46.0360602" lon="13.5034907"><ele>197.0</ele><time>2026-05-03T10:09:43.105Z</time></trkpt><trkpt lat="46.0361321" lon="13.5034209"><ele>194.5</ele><time>2026-05-03T10:09:45.109Z</time></trkpt><trkpt lat="46.0362058" lon="13.503438"><ele>192.0</ele><time>2026-05-03T10:09:47.097Z</time></trkpt><trkpt lat="46.0363062" lon="13.5035094"><ele>189.5</ele><time>2026-05-03T10:09:49.103Z</time></trkpt><trkpt lat="46.0363864" lon="13.5035939"><ele>187.0</ele><time>2026-05-03T10:09:51.094Z</time></trkpt><trkpt lat="46.0364474" lon="13.503679"><ele>190.0</ele><time>2026-05-03T10:09:52.099Z</time></trkpt><trkpt lat="46.0365215" lon="13.5037761"><ele>193.0</ele><time>2026-05-03T10:09:53.098Z</time></trkpt><trkpt lat="46.0365999" lon="13.5038825"><ele>196.0</ele><time>2026-05-03T10:09:54.11Z</time></trkpt><trkpt lat="46.0366768" lon="13.5040021"><ele>199.0</ele><time>2026-05-03T10:09:55.109Z</time></trkpt><trkpt lat="46.0367532" lon="13.5041437"><ele>202.0</ele><time>2026-05-03T10:09:56.125Z</time></trkpt><trkpt lat="46.0368149" lon="13.5042805"><ele>204.2</ele><time>2026-05-03T10:09:57.123Z</time></trkpt><trkpt lat="46.036868" lon="13.5044229"><ele>206.39999999999998</ele><time>2026-05-03T10:09:58.113Z</time></trkpt><trkpt lat="46.03692" lon="13.5045699"><ele>208.60000000000002</ele><time>2026-05-03T10:09:59.108Z</time></trkpt><trkpt lat="46.0369583" lon="13.5047159"><ele>210.8</ele><time>2026-05-03T10:10:00.107Z</time></trkpt><trkpt lat="46.0369905" lon="13.5048423"><ele>213.0</ele><time>2026-05-03T10:10:01.105Z</time></trkpt><trkpt lat="46.0370186" lon="13.5049366"><ele>213.4</ele><time>2026-05-03T10:10:02.103Z</time></trkpt><trkpt lat="46.0370989" lon="13.5050376"><ele>213.8</ele><time>2026-05-03T10:10:04.1Z</time></trkpt><trkpt lat="46.0372379" lon="13.5050512"><ele>214.2</ele><time>2026-05-03T10:10:06.101Z</time></trkpt><trkpt lat="46.0373217" lon="13.5050617"><ele>214.6</ele><time>2026-05-03T10:10:07.109Z</time></trkpt><trkpt lat="46.0374069" lon="13.5050692"><ele>215.0</ele><time>2026-05-03T10:10:08.114Z</time></trkpt><trkpt lat="46.0374934" lon="13.5050753"><ele>215.00000000000003</ele><time>2026-05-03T10:10:09.101Z</time></trkpt><trkpt lat="46.0375739" lon="13.5050821"><ele>215.0</ele><time>2026-05-03T10:10:10.106Z</time></trkpt><trkpt lat="46.0376484" lon="13.5050781"><ele>215.0</ele><time>2026-05-03T10:10:11.104Z</time></trkpt><trkpt lat="46.0377197" lon="13.5050588"><ele>215.0</ele><time>2026-05-03T10:10:12.099Z</time></trkpt><trkpt lat="46.0377981" lon="13.5050334"><ele>215.00000000000003</ele><time>2026-05-03T10:10:13.109Z</time></trkpt><trkpt lat="46.037868" lon="13.5050244"><ele>215.0</ele><time>2026-05-03T10:10:14.097Z</time></trkpt><trkpt lat="46.0379828" lon="13.5051116"><ele>215.00000000000003</ele><time>2026-05-03T10:10:16.096Z</time></trkpt><trkpt lat="46.0380354" lon="13.5051987"><ele>215.0</ele><time>2026-05-03T10:10:17.087Z</time></trkpt><trkpt lat="46.0380894" lon="13.5053074"><ele>215.0</ele><time>2026-05-03T10:10:18.108Z</time></trkpt><trkpt lat="46.0381435" lon="13.505431"><ele>215.0</ele><time>2026-05-03T10:10:19.098Z</time></trkpt><trkpt lat="46.0381988" lon="13.5055343"><ele>215.00000000000003</ele><time>2026-05-03T10:10:20.101Z</time></trkpt><trkpt lat="46.0382533" lon="13.5056245"><ele>215.0</ele><time>2026-05-03T10:10:21.105Z</time></trkpt><trkpt lat="46.0383139" lon="13.5056911"><ele>217.66666666666669</ele><time>2026-05-03T10:10:22.1Z</time></trkpt><trkpt lat="46.0383839" lon="13.5057461"><ele>220.33333333333334</ele><time>2026-05-03T10:10:23.106Z</time></trkpt><trkpt lat="46.0384548" lon="13.5057913"><ele>223.0</ele><time>2026-05-03T10:10:24.101Z</time></trkpt><trkpt lat="46.0385179" lon="13.5058463"><ele>225.66666666666669</ele><time>2026-05-03T10:10:25.096Z</time></trkpt><trkpt lat="46.0385803" lon="13.5059171"><ele>228.33333333333334</ele><time>2026-05-03T10:10:26.106Z</time></trkpt><trkpt lat="46.0386391" lon="13.5059942"><ele>231.0</ele><time>2026-05-03T10:10:27.104Z</time></trkpt><trkpt lat="46.0386986" lon="13.5060681"><ele>231.0</ele><time>2026-05-03T10:10:28.104Z</time></trkpt><trkpt lat="46.0387636" lon="13.5061344"><ele>231.0</ele><time>2026-05-03T10:10:29.103Z</time></trkpt><trkpt lat="46.03884" lon="13.5061746"><ele>231.0</ele><time>2026-05-03T10:10:30.096Z</time></trkpt><trkpt lat="46.0389094" lon="13.5061949"><ele>231.0</ele><time>2026-05-03T10:10:31.098Z</time></trkpt><trkpt lat="46.0389847" lon="13.5061762"><ele>231.0</ele><time>2026-05-03T10:10:32.092Z</time></trkpt><trkpt lat="46.039066" lon="13.5061293"><ele>231.0</ele><time>2026-05-03T10:10:33.088Z</time></trkpt><trkpt lat="46.0391418" lon="13.5060648"><ele>231.0</ele><time>2026-05-03T10:10:34.107Z</time></trkpt><trkpt lat="46.0392211" lon="13.5059903"><ele>231.00000000000003</ele><time>2026-05-03T10:10:35.098Z</time></trkpt><trkpt lat="46.0392901" lon="13.5059126"><ele>231.00000000000003</ele><time>2026-05-03T10:10:36.101Z</time></trkpt><trkpt lat="46.0393504" lon="13.5058186"><ele>231.0</ele><time>2026-05-03T10:10:37.103Z</time></trkpt><trkpt lat="46.0394048" lon="13.5057152"><ele>231.0</ele><time>2026-05-03T10:10:38.097Z</time></trkpt><trkpt lat="46.0394635" lon="13.5056013"><ele>231.0</ele><time>2026-05-03T10:10:39.11Z</time></trkpt><trkpt lat="46.039524" lon="13.5054833"><ele>231.00000000000003</ele><time>2026-05-03T10:10:40.112Z</time></trkpt><trkpt lat="46.0395837" lon="13.505352"><ele>231.00000000000003</ele><time>2026-05-03T10:10:41.104Z</time></trkpt><trkpt lat="46.0396411" lon="13.5052246"><ele>231.0</ele><time>2026-05-03T10:10:42.108Z</time></trkpt><trkpt lat="46.0396891" lon="13.5050998"><ele>231.0</ele><time>2026-05-03T10:10:43.11Z</time></trkpt><trkpt lat="46.0397276" lon="13.5049811"><ele>228.14285714285714</ele><time>2026-05-03T10:10:44.094Z</time></trkpt><trkpt lat="46.039752" lon="13.5048924"><ele>225.28571428571428</ele><time>2026-05-03T10:10:45.095Z</time></trkpt><trkpt lat="46.0397887" lon="13.5048072"><ele>222.42857142857144</ele><time>2026-05-03T10:10:47.098Z</time></trkpt><trkpt lat="46.0398426" lon="13.5049035"><ele>219.57142857142856</ele><time>2026-05-03T10:10:50.085Z</time></trkpt><trkpt lat="46.039801" lon="13.5050274"><ele>216.71428571428572</ele><time>2026-05-03T10:10:52.092Z</time></trkpt><trkpt lat="46.0397593" lon="13.505101"><ele>213.85714285714286</ele><time>2026-05-03T10:10:53.095Z</time></trkpt><trkpt lat="46.0397195" lon="13.5051732"><ele>211.0</ele><time>2026-05-03T10:10:54.091Z</time></trkpt><trkpt lat="46.0396796" lon="13.5052532"><ele>211.0</ele><time>2026-05-03T10:10:55.114Z</time></trkpt><trkpt lat="46.0396475" lon="13.505343"><ele>211.0</ele><time>2026-05-03T10:10:56.104Z</time></trkpt><trkpt lat="46.0396171" lon="13.5054442"><ele>211.0</ele><time>2026-05-03T10:10:57.104Z</time></trkpt><trkpt lat="46.0395886" lon="13.5055401"><ele>211.0</ele><time>2026-05-03T10:10:58.102Z</time></trkpt><trkpt lat="46.039568" lon="13.5056318"><ele>211.0</ele><time>2026-05-03T10:10:59.104Z</time></trkpt><trkpt lat="46.0395514" lon="13.5057219"><ele>211.0</ele><time>2026-05-03T10:11:00.096Z</time></trkpt><trkpt lat="46.0395213" lon="13.5058218"><ele>211.0</ele><time>2026-05-03T10:11:01.104Z</time></trkpt><trkpt lat="46.0394984" lon="13.5059155"><ele>215.0</ele><time>2026-05-03T10:11:02.103Z</time></trkpt><trkpt lat="46.0394622" lon="13.5060353"><ele>219.0</ele><time>2026-05-03T10:11:03.104Z</time></trkpt><trkpt lat="46.0394188" lon="13.5061686"><ele>223.00000000000003</ele><time>2026-05-03T10:11:04.1Z</time></trkpt><trkpt lat="46.0393713" lon="13.5062908"><ele>227.0</ele><time>2026-05-03T10:11:05.106Z</time></trkpt><trkpt lat="46.0393177" lon="13.5063984"><ele>231.0</ele><time>2026-05-03T10:11:06.096Z</time></trkpt><trkpt lat="46.0392599" lon="13.5065057"><ele>233.8</ele><time>2026-05-03T10:11:07.1Z</time></trkpt><trkpt lat="46.0391914" lon="13.5066177"><ele>236.60000000000002</ele><time>2026-05-03T10:11:08.091Z</time></trkpt><trkpt lat="46.039111" lon="13.5067202"><ele>239.4</ele><time>2026-05-03T10:11:09.092Z</time></trkpt><trkpt lat="46.0390281" lon="13.506815"><ele>242.2</ele><time>2026-05-03T10:11:10.098Z</time></trkpt><trkpt lat="46.0389613" lon="13.5068909"><ele>245.0</ele><time>2026-05-03T10:11:11.104Z</time></trkpt><trkpt lat="46.0389116" lon="13.5069656"><ele>245.00000000000003</ele><time>2026-05-03T10:11:12.114Z</time></trkpt><trkpt lat="46.0388566" lon="13.5070591"><ele>245.0</ele><time>2026-05-03T10:11:14.104Z</time></trkpt><trkpt lat="46.0389133" lon="13.5071096"><ele>245.0</ele><time>2026-05-03T10:11:53.095Z</time></trkpt><trkpt lat="46.0390059" lon="13.5070766"><ele>245.0</ele><time>2026-05-03T10:11:56.095Z</time></trkpt><trkpt lat="46.0391037" lon="13.5069673"><ele>245.00000000000003</ele><time>2026-05-03T10:11:58.108Z</time></trkpt><trkpt lat="46.0391446" lon="13.506898"><ele>245.0</ele><time>2026-05-03T10:11:59.095Z</time></trkpt><trkpt lat="46.0391833" lon="13.5068244"><ele>246.4</ele><time>2026-05-03T10:12:00.117Z</time></trkpt><trkpt lat="46.0392591" lon="13.506708"><ele>247.8</ele><time>2026-05-03T10:12:02.112Z</time></trkpt><trkpt lat="46.0393554" lon="13.5065782"><ele>249.2</ele><time>2026-05-03T10:12:04.104Z</time></trkpt><trkpt lat="46.0394039" lon="13.5065036"><ele>250.6</ele><time>2026-05-03T10:12:05.119Z</time></trkpt><trkpt lat="46.0394502" lon="13.5064258"><ele>252.0</ele><time>2026-05-03T10:12:06.112Z</time></trkpt><trkpt lat="46.0394954" lon="13.5063478"><ele>252.0</ele><time>2026-05-03T10:12:07.107Z</time></trkpt><trkpt lat="46.039544" lon="13.5062668"><ele>252.0</ele><time>2026-05-03T10:12:08.105Z</time></trkpt><trkpt lat="46.0396014" lon="13.5061907"><ele>252.0</ele><time>2026-05-03T10:12:09.107Z</time></trkpt><trkpt lat="46.0396605" lon="13.5061079"><ele>252.0</ele><time>2026-05-03T10:12:10.092Z</time></trkpt><trkpt lat="46.0397194" lon="13.5060175"><ele>252.0</ele><time>2026-05-03T10:12:11.103Z</time></trkpt><trkpt lat="46.0397804" lon="13.5059219"><ele>252.0</ele><time>2026-05-03T10:12:12.098Z</time></trkpt><trkpt lat="46.0398411" lon="13.5058232"><ele>253.2</ele><time>2026-05-03T10:12:13.106Z</time></trkpt><trkpt lat="46.0399001" lon="13.5057315"><ele>254.39999999999998</ele><time>2026-05-03T10:12:14.097Z</time></trkpt><trkpt lat="46.0399521" lon="13.5056552"><ele>255.60000000000002</ele><time>2026-05-03T10:12:15.096Z</time></trkpt><trkpt lat="46.0400525" lon="13.5055668"><ele>256.8</ele><time>2026-05-03T10:12:17.097Z</time></trkpt><trkpt lat="46.040164" lon="13.5055145"><ele>258.0</ele><time>2026-05-03T10:12:19.105Z</time></trkpt><trkpt lat="46.040232" lon="13.5055033"><ele>258.0</ele><time>2026-05-03T10:12:20.096Z</time></trkpt><trkpt lat="46.0403084" lon="13.5055063"><ele>258.0</ele><time>2026-05-03T10:12:21.096Z</time></trkpt><trkpt lat="46.0403865" lon="13.5055181"><ele>258.0</ele><time>2026-05-03T10:12:22.098Z</time></trkpt><trkpt lat="46.0404654" lon="13.505538"><ele>258.0</ele><time>2026-05-03T10:12:23.097Z</time></trkpt><trkpt lat="46.040538" lon="13.5055673"><ele>258.0</ele><time>2026-05-03T10:12:24.106Z</time></trkpt><trkpt lat="46.040613" lon="13.5056108"><ele>258.0</ele><time>2026-05-03T10:12:25.098Z</time></trkpt><trkpt lat="46.0406893" lon="13.505672"><ele>258.0</ele><time>2026-05-03T10:12:26.096Z</time></trkpt><trkpt lat="46.0407707" lon="13.5057312"><ele>258.0</ele><time>2026-05-03T10:12:27.104Z</time></trkpt><trkpt lat="46.0408626" lon="13.5057895"><ele>258.0</ele><time>2026-05-03T10:12:28.112Z</time></trkpt><trkpt lat="46.0409592" lon="13.5058388"><ele>258.0</ele><time>2026-05-03T10:12:29.096Z</time></trkpt><trkpt lat="46.0410656" lon="13.505883"><ele>258.0</ele><time>2026-05-03T10:12:30.102Z</time></trkpt><trkpt lat="46.0411678" lon="13.5059175"><ele>260.0</ele><time>2026-05-03T10:12:31.088Z</time></trkpt><trkpt lat="46.0412599" lon="13.5059477"><ele>262.0</ele><time>2026-05-03T10:12:32.082Z</time></trkpt><trkpt lat="46.0413533" lon="13.5059834"><ele>264.0</ele><time>2026-05-03T10:12:33.097Z</time></trkpt><trkpt lat="46.0414549" lon="13.5060258"><ele>266.0</ele><time>2026-05-03T10:12:34.093Z</time></trkpt><trkpt lat="46.0415589" lon="13.5060531"><ele>268.0</ele><time>2026-05-03T10:12:35.096Z</time></trkpt><trkpt lat="46.041659" lon="13.5060773"><ele>268.0</ele><time>2026-05-03T10:12:36.099Z</time></trkpt><trkpt lat="46.0417453" lon="13.506089"><ele>268.0</ele><time>2026-05-03T10:12:37.108Z</time></trkpt><trkpt lat="46.0418315" lon="13.5061094"><ele>268.0</ele><time>2026-05-03T10:12:38.095Z</time></trkpt><trkpt lat="46.0419149" lon="13.5061456"><ele>268.0</ele><time>2026-05-03T10:12:39.092Z</time></trkpt><trkpt lat="46.0419944" lon="13.5061969"><ele>268.0</ele><time>2026-05-03T10:12:40.096Z</time></trkpt><trkpt lat="46.0420777" lon="13.5062471"><ele>268.0</ele><time>2026-05-03T10:12:41.091Z</time></trkpt><trkpt lat="46.0421639" lon="13.50629"><ele>272.6</ele><time>2026-05-03T10:12:42.09Z</time></trkpt><trkpt lat="46.0422553" lon="13.5063207"><ele>277.20000000000005</ele><time>2026-05-03T10:12:43.093Z</time></trkpt><trkpt lat="46.0423492" lon="13.5063466"><ele>281.8</ele><time>2026-05-03T10:12:44.085Z</time></trkpt><trkpt lat="46.0424438" lon="13.5063767"><ele>286.40000000000003</ele><time>2026-05-03T10:12:45.096Z</time></trkpt><trkpt lat="46.04253" lon="13.5064144"><ele>291.0</ele><time>2026-05-03T10:12:46.085Z</time></trkpt><trkpt lat="46.0426022" lon="13.5064413"><ele>291.0</ele><time>2026-05-03T10:12:47.09Z</time></trkpt><trkpt lat="46.0426656" lon="13.5064642"><ele>291.0</ele><time>2026-05-03T10:12:48.107Z</time></trkpt><trkpt lat="46.0427326" lon="13.5064664"><ele>291.0</ele><time>2026-05-03T10:12:49.099Z</time></trkpt><trkpt lat="46.0427979" lon="13.5064551"><ele>291.0</ele><time>2026-05-03T10:12:50.092Z</time></trkpt><trkpt lat="46.042876" lon="13.5064246"><ele>291.0</ele><time>2026-05-03T10:12:51.092Z</time></trkpt><trkpt lat="46.0429628" lon="13.5063886"><ele>291.0</ele><time>2026-05-03T10:12:52.09Z</time></trkpt><trkpt lat="46.0430395" lon="13.5063817"><ele>291.0</ele><time>2026-05-03T10:12:53.096Z</time></trkpt><trkpt lat="46.0431104" lon="13.5063985"><ele>291.0</ele><time>2026-05-03T10:12:54.102Z</time></trkpt><trkpt lat="46.043172" lon="13.5064571"><ele>291.0</ele><time>2026-05-03T10:12:55.1Z</time></trkpt><trkpt lat="46.0432296" lon="13.5065477"><ele>291.0</ele><time>2026-05-03T10:12:56.097Z</time></trkpt><trkpt lat="46.0432773" lon="13.5066487"><ele>291.0</ele><time>2026-05-03T10:12:57.105Z</time></trkpt><trkpt lat="46.0433229" lon="13.5067543"><ele>291.0</ele><time>2026-05-03T10:12:58.107Z</time></trkpt><trkpt lat="46.043362" lon="13.5068573"><ele>291.0</ele><time>2026-05-03T10:12:59.098Z</time></trkpt><trkpt lat="46.0434001" lon="13.5069564"><ele>289.3333333333333</ele><time>2026-05-03T10:13:00.105Z</time></trkpt><trkpt lat="46.0434389" lon="13.5070324"><ele>287.6666666666667</ele><time>2026-05-03T10:13:01.094Z</time></trkpt><trkpt lat="46.0435403" lon="13.5071346"><ele>286.0</ele><time>2026-05-03T10:13:03.099Z</time></trkpt><trkpt lat="46.0436009" lon="13.5071928"><ele>284.33333333333337</ele><time>2026-05-03T10:13:04.096Z</time></trkpt><trkpt lat="46.0436639" lon="13.5072535"><ele>282.6666666666667</ele><time>2026-05-03T10:13:05.097Z</time></trkpt><trkpt lat="46.0437152" lon="13.5073116"><ele>281.0</ele><time>2026-05-03T10:13:06.111Z</time></trkpt><trkpt lat="46.0437818" lon="13.5074012"><ele>284.5</ele><time>2026-05-03T10:13:08.102Z</time></trkpt><trkpt lat="46.0438207" lon="13.5074872"><ele>288.0</ele><time>2026-05-03T10:13:11.112Z</time></trkpt><trkpt lat="46.0438436" lon="13.5076235"><ele>291.5</ele><time>2026-05-03T10:13:14.119Z</time></trkpt><trkpt lat="46.0438569" lon="13.5077299"><ele>295.0</ele><time>2026-05-03T10:13:16.113Z</time></trkpt><trkpt lat="46.0438667" lon="13.5078571"><ele>298.5</ele><time>2026-05-03T10:13:18.1Z</time></trkpt><trkpt lat="46.0438722" lon="13.507982"><ele>302.0</ele><time>2026-05-03T10:13:20.105Z</time></trkpt><trkpt lat="46.0438857" lon="13.5080837"><ele>305.2</ele><time>2026-05-03T10:13:22.1Z</time></trkpt><trkpt lat="46.0438866" lon="13.5081809"><ele>308.4</ele><time>2026-05-03T10:13:26.104Z</time></trkpt><trkpt lat="46.0439012" lon="13.5083495"><ele>311.6</ele><time>2026-05-03T10:13:28.095Z</time></trkpt><trkpt lat="46.0439076" lon="13.50844"><ele>314.8</ele><time>2026-05-03T10:13:29.111Z</time></trkpt><trkpt lat="46.0439334" lon="13.5085872"><ele>318.0</ele><time>2026-05-03T10:13:31.112Z</time></trkpt><trkpt lat="46.0439723" lon="13.508718"><ele>318.2</ele><time>2026-05-03T10:13:33.128Z</time></trkpt><trkpt lat="46.0440103" lon="13.508887"><ele>318.4</ele><time>2026-05-03T10:13:35.118Z</time></trkpt><trkpt lat="46.0440326" lon="13.5089797"><ele>318.59999999999997</ele><time>2026-05-03T10:13:36.109Z</time></trkpt><trkpt lat="46.0440587" lon="13.5091003"><ele>318.8</ele><time>2026-05-03T10:13:37.129Z</time></trkpt><trkpt lat="46.0440915" lon="13.5092205"><ele>319.0</ele><time>2026-05-03T10:13:38.11Z</time></trkpt><trkpt lat="46.0441226" lon="13.5093502"><ele>317.8</ele><time>2026-05-03T10:13:39.112Z</time></trkpt><trkpt lat="46.044154" lon="13.5094849"><ele>316.59999999999997</ele><time>2026-05-03T10:13:40.104Z</time></trkpt><trkpt lat="46.0441829" lon="13.5096322"><ele>315.4</ele><time>2026-05-03T10:13:41.116Z</time></trkpt><trkpt lat="46.0442193" lon="13.5097791"><ele>314.2</ele><time>2026-05-03T10:13:42.11Z</time></trkpt><trkpt lat="46.0442486" lon="13.5099178"><ele>313.0</ele><time>2026-05-03T10:13:43.116Z</time></trkpt><trkpt lat="46.0442797" lon="13.510055"><ele>313.0</ele><time>2026-05-03T10:13:44.104Z</time></trkpt><trkpt lat="46.0443074" lon="13.5101804"><ele>313.0</ele><time>2026-05-03T10:13:45.109Z</time></trkpt><trkpt lat="46.0443366" lon="13.5103012"><ele>313.0</ele><time>2026-05-03T10:13:46.098Z</time></trkpt><trkpt lat="46.0443597" lon="13.510431"><ele>313.0</ele><time>2026-05-03T10:13:47.103Z</time></trkpt><trkpt lat="46.0443825" lon="13.5105575"><ele>313.0</ele><time>2026-05-03T10:13:48.098Z</time></trkpt><trkpt lat="46.0444061" lon="13.5106874"><ele>314.8</ele><time>2026-05-03T10:13:49.102Z</time></trkpt><trkpt lat="46.0444273" lon="13.5108131"><ele>316.6</ele><time>2026-05-03T10:13:50.102Z</time></trkpt><trkpt lat="46.0444478" lon="13.5109397"><ele>318.40000000000003</ele><time>2026-05-03T10:13:51.105Z</time></trkpt><trkpt lat="46.0444582" lon="13.5110641"><ele>320.20000000000005</ele><time>2026-05-03T10:13:52.098Z</time></trkpt><trkpt lat="46.0444703" lon="13.5111972"><ele>322.0</ele><time>2026-05-03T10:13:53.117Z</time></trkpt><trkpt lat="46.0444804" lon="13.5113309"><ele>322.5</ele><time>2026-05-03T10:13:54.115Z</time></trkpt><trkpt lat="46.0444994" lon="13.5114516"><ele>323.0</ele><time>2026-05-03T10:13:55.105Z</time></trkpt><trkpt lat="46.0445255" lon="13.5115567"><ele>323.5</ele><time>2026-05-03T10:13:56.104Z</time></trkpt><trkpt lat="46.0445243" lon="13.5116824"><ele>324.0</ele><time>2026-05-03T10:13:58.105Z</time></trkpt><trkpt lat="46.0444474" lon="13.5116421"><ele>324.5</ele><time>2026-05-03T10:14:01.105Z</time></trkpt><trkpt lat="46.0444293" lon="13.511506"><ele>325.0</ele><time>2026-05-03T10:14:03.096Z</time></trkpt><trkpt lat="46.0444192" lon="13.5113721"><ele>324.4</ele><time>2026-05-03T10:14:04.105Z</time></trkpt><trkpt lat="46.0443953" lon="13.5112268"><ele>323.8</ele><time>2026-05-03T10:14:05.102Z</time></trkpt><trkpt lat="46.0443792" lon="13.5110795"><ele>323.20000000000005</ele><time>2026-05-03T10:14:06.105Z</time></trkpt><trkpt lat="46.0443504" lon="13.5109338"><ele>322.6</ele><time>2026-05-03T10:14:07.099Z</time></trkpt><trkpt lat="46.0443342" lon="13.5108119"><ele>322.0</ele><time>2026-05-03T10:14:08.107Z</time></trkpt><trkpt lat="46.0443023" lon="13.5106995"><ele>322.0</ele><time>2026-05-03T10:14:09.109Z</time></trkpt><trkpt lat="46.0442681" lon="13.5105808"><ele>322.0</ele><time>2026-05-03T10:14:10.102Z</time></trkpt><trkpt lat="46.0442238" lon="13.5104646"><ele>322.0</ele><time>2026-05-03T10:14:11.129Z</time></trkpt><trkpt lat="46.0441771" lon="13.51034"><ele>322.0</ele><time>2026-05-03T10:14:12.109Z</time></trkpt><trkpt lat="46.04413" lon="13.5102146"><ele>322.0</ele><time>2026-05-03T10:14:13.112Z</time></trkpt><trkpt lat="46.044073" lon="13.5100949"><ele>322.20000000000005</ele><time>2026-05-03T10:14:14.114Z</time></trkpt><trkpt lat="46.0440217" lon="13.5099711"><ele>322.4</ele><time>2026-05-03T10:14:15.116Z</time></trkpt><trkpt lat="46.043967" lon="13.5098476"><ele>322.6</ele><time>2026-05-03T10:14:16.103Z</time></trkpt><trkpt lat="46.043915" lon="13.5097216"><ele>322.79999999999995</ele><time>2026-05-03T10:14:17.11Z</time></trkpt><trkpt lat="46.0438563" lon="13.5095927"><ele>323.0</ele><time>2026-05-03T10:14:18.112Z</time></trkpt><trkpt lat="46.0438033" lon="13.5094671"><ele>322.2</ele><time>2026-05-03T10:14:19.112Z</time></trkpt><trkpt lat="46.0437555" lon="13.5093364"><ele>321.4</ele><time>2026-05-03T10:14:20.102Z</time></trkpt><trkpt lat="46.0437068" lon="13.5092034"><ele>320.59999999999997</ele><time>2026-05-03T10:14:21.107Z</time></trkpt><trkpt lat="46.0436585" lon="13.5090672"><ele>319.79999999999995</ele><time>2026-05-03T10:14:22.103Z</time></trkpt><trkpt lat="46.0436155" lon="13.5089279"><ele>319.0</ele><time>2026-05-03T10:14:23.108Z</time></trkpt><trkpt lat="46.0435803" lon="13.5087832"><ele>318.8333333333333</ele><time>2026-05-03T10:14:24.113Z</time></trkpt><trkpt lat="46.0435452" lon="13.5086357"><ele>318.66666666666663</ele><time>2026-05-03T10:14:25.098Z</time></trkpt><trkpt lat="46.0435109" lon="13.5084966"><ele>318.5</ele><time>2026-05-03T10:14:26.111Z</time></trkpt><trkpt lat="46.0434837" lon="13.5083737"><ele>318.3333333333333</ele><time>2026-05-03T10:14:27.114Z</time></trkpt><trkpt lat="46.0434587" lon="13.5082671"><ele>318.1666666666667</ele><time>2026-05-03T10:14:28.106Z</time></trkpt><trkpt lat="46.0434329" lon="13.5081815"><ele>318.0</ele><time>2026-05-03T10:14:29.114Z</time></trkpt><trkpt lat="46.0433773" lon="13.5081141"><ele>318.0</ele><time>2026-05-03T10:14:31.096Z</time></trkpt><trkpt lat="46.0433189" lon="13.5081544"><ele>318.0</ele><time>2026-05-03T10:14:33.097Z</time></trkpt><trkpt lat="46.0432822" lon="13.5082416"><ele>318.0</ele><time>2026-05-03T10:14:35.102Z</time></trkpt><trkpt lat="46.0432865" lon="13.5083455"><ele>318.0</ele><time>2026-05-03T10:14:37.1Z</time></trkpt><trkpt lat="46.0433571" lon="13.5084989"><ele>318.0</ele><time>2026-05-03T10:14:39.097Z</time></trkpt><trkpt lat="46.0433999" lon="13.508593"><ele>318.0</ele><time>2026-05-03T10:14:40.1Z</time></trkpt><trkpt lat="46.0434419" lon="13.5086956"><ele>318.1666666666667</ele><time>2026-05-03T10:14:41.117Z</time></trkpt><trkpt lat="46.0434811" lon="13.508803"><ele>318.3333333333333</ele><time>2026-05-03T10:14:42.114Z</time></trkpt><trkpt lat="46.0435103" lon="13.5089151"><ele>318.5</ele><time>2026-05-03T10:14:43.116Z</time></trkpt><trkpt lat="46.0435236" lon="13.509027"><ele>318.66666666666663</ele><time>2026-05-03T10:14:44.109Z</time></trkpt><trkpt lat="46.0435269" lon="13.509158"><ele>318.8333333333333</ele><time>2026-05-03T10:14:45.094Z</time></trkpt><trkpt lat="46.0435269" lon="13.5092898"><ele>319.0</ele><time>2026-05-03T10:14:46.124Z</time></trkpt><trkpt lat="46.043538" lon="13.509432"><ele>319.79999999999995</ele><time>2026-05-03T10:14:47.121Z</time></trkpt><trkpt lat="46.0435553" lon="13.5095785"><ele>320.59999999999997</ele><time>2026-05-03T10:14:48.12Z</time></trkpt><trkpt lat="46.043577" lon="13.5097232"><ele>321.4</ele><time>2026-05-03T10:14:49.095Z</time></trkpt><trkpt lat="46.0436013" lon="13.5098641"><ele>322.2</ele><time>2026-05-03T10:14:50.102Z</time></trkpt><trkpt lat="46.0436312" lon="13.5100026"><ele>323.0</ele><time>2026-05-03T10:14:51.099Z</time></trkpt><trkpt lat="46.0436665" lon="13.5101338"><ele>323.0</ele><time>2026-05-03T10:14:52.104Z</time></trkpt><trkpt lat="46.0437064" lon="13.5102534"><ele>323.0</ele><time>2026-05-03T10:14:53.118Z</time></trkpt><trkpt lat="46.0437341" lon="13.5103566"><ele>323.0</ele><time>2026-05-03T10:14:54.122Z</time></trkpt><trkpt lat="46.0437482" lon="13.5104487"><ele>323.0</ele><time>2026-05-03T10:14:55.117Z</time></trkpt><trkpt lat="46.0437512" lon="13.5106096"><ele>323.0</ele><time>2026-05-03T10:14:57.115Z</time></trkpt><trkpt lat="46.0437037" lon="13.5106937"><ele>323.0</ele><time>2026-05-03T10:15:00.097Z</time></trkpt><trkpt lat="46.0436584" lon="13.5107782"><ele>323.0</ele><time>2026-05-03T10:15:07.112Z</time></trkpt><trkpt lat="46.0436326" lon="13.510975"><ele>323.0</ele><time>2026-05-03T10:15:09.101Z</time></trkpt><trkpt lat="46.0436328" lon="13.5111178"><ele>323.0</ele><time>2026-05-03T10:15:10.111Z</time></trkpt><trkpt lat="46.0436358" lon="13.5112681"><ele>323.0</ele><time>2026-05-03T10:15:11.119Z</time></trkpt><trkpt lat="46.0436315" lon="13.5114165"><ele>323.0</ele><time>2026-05-03T10:15:12.107Z</time></trkpt><trkpt lat="46.0436095" lon="13.5115519"><ele>323.79999999999995</ele><time>2026-05-03T10:15:13.114Z</time></trkpt><trkpt lat="46.0435731" lon="13.5116732"><ele>324.6</ele><time>2026-05-03T10:15:14.111Z</time></trkpt><trkpt lat="46.0435101" lon="13.5117548"><ele>325.4</ele><time>2026-05-03T10:15:15.103Z</time></trkpt><trkpt lat="46.0434289" lon="13.5118035"><ele>326.20000000000005</ele><time>2026-05-03T10:15:16.095Z</time></trkpt><trkpt lat="46.0433123" lon="13.5118209"><ele>327.0</ele><time>2026-05-03T10:15:17.087Z</time></trkpt><trkpt lat="46.0431829" lon="13.5117983"><ele>327.0</ele><time>2026-05-03T10:15:18.108Z</time></trkpt><trkpt lat="46.0430369" lon="13.5117623"><ele>327.0</ele><time>2026-05-03T10:15:19.098Z</time></trkpt><trkpt lat="46.0428851" lon="13.5117187"><ele>327.0</ele><time>2026-05-03T10:15:20.09Z</time></trkpt><trkpt lat="46.0427285" lon="13.5116815"><ele>327.0</ele><time>2026-05-03T10:15:21.088Z</time></trkpt><trkpt lat="46.0425764" lon="13.5116485"><ele>327.0</ele><time>2026-05-03T10:15:22.094Z</time></trkpt><trkpt lat="46.0424274" lon="13.5116109"><ele>327.0</ele><time>2026-05-03T10:15:23.093Z</time></trkpt><trkpt lat="46.0422842" lon="13.5115828"><ele>323.75</ele><time>2026-05-03T10:15:24.094Z</time></trkpt><trkpt lat="46.0421537" lon="13.5115727"><ele>320.5</ele><time>2026-05-03T10:15:25.091Z</time></trkpt><trkpt lat="46.0420297" lon="13.5116174"><ele>317.25</ele><time>2026-05-03T10:15:26.091Z</time></trkpt><trkpt lat="46.0419003" lon="13.5117026"><ele>314.0</ele><time>2026-05-03T10:15:27.095Z</time></trkpt><trkpt lat="46.0417735" lon="13.5118187"><ele>314.0</ele><time>2026-05-03T10:15:28.094Z</time></trkpt><trkpt lat="46.0416408" lon="13.5119345"><ele>314.0</ele><time>2026-05-03T10:15:29.094Z</time></trkpt><trkpt lat="46.0415101" lon="13.5120413"><ele>314.0</ele><time>2026-05-03T10:15:30.097Z</time></trkpt><trkpt lat="46.0413864" lon="13.5121371"><ele>314.0</ele><time>2026-05-03T10:15:31.096Z</time></trkpt><trkpt lat="46.0412878" lon="13.5122168"><ele>314.6666666666667</ele><time>2026-05-03T10:15:32.094Z</time></trkpt><trkpt lat="46.0412215" lon="13.5122688"><ele>315.33333333333337</ele><time>2026-05-03T10:15:33.101Z</time></trkpt><trkpt lat="46.0411597" lon="13.5122923"><ele>316.0</ele><time>2026-05-03T10:15:34.097Z</time></trkpt><trkpt lat="46.0411011" lon="13.5122486"><ele>316.6666666666667</ele><time>2026-05-03T10:15:35.107Z</time></trkpt><trkpt lat="46.0410908" lon="13.5121481"><ele>317.3333333333333</ele><time>2026-05-03T10:15:36.096Z</time></trkpt><trkpt lat="46.0411359" lon="13.5120621"><ele>318.0</ele><time>2026-05-03T10:15:37.095Z</time></trkpt><trkpt lat="46.0412304" lon="13.5120062"><ele>317.0</ele><time>2026-05-03T10:15:38.1Z</time></trkpt><trkpt lat="46.0413373" lon="13.5119396"><ele>316.0</ele><time>2026-05-03T10:15:39.095Z</time></trkpt><trkpt lat="46.0414424" lon="13.5118276"><ele>315.0</ele><time>2026-05-03T10:15:40.098Z</time></trkpt><trkpt lat="46.0415495" lon="13.5116864"><ele>314.0</ele><time>2026-05-03T10:15:41.104Z</time></trkpt><trkpt lat="46.0416506" lon="13.5115459"><ele>314.0</ele><time>2026-05-03T10:15:42.089Z</time></trkpt><trkpt lat="46.0417553" lon="13.5114192"><ele>314.0</ele><time>2026-05-03T10:15:43.094Z</time></trkpt><trkpt lat="46.0418671" lon="13.5113197"><ele>314.0</ele><time>2026-05-03T10:15:44.101Z</time></trkpt><trkpt lat="46.0419959" lon="13.5112623"><ele>314.0</ele><time>2026-05-03T10:15:45.106Z</time></trkpt><trkpt lat="46.0421193" lon="13.5112477"><ele>310.59999999999997</ele><time>2026-05-03T10:15:46.088Z</time></trkpt><trkpt lat="46.0422171" lon="13.5112364"><ele>307.2</ele><time>2026-05-03T10:15:47.105Z</time></trkpt><trkpt lat="46.0422774" lon="13.5112045"><ele>303.79999999999995</ele><time>2026-05-03T10:15:48.097Z</time></trkpt><trkpt lat="46.0423258" lon="13.5110453"><ele>300.4</ele><time>2026-05-03T10:15:50.084Z</time></trkpt><trkpt lat="46.0421904" lon="13.510962"><ele>297.0</ele><time>2026-05-03T10:15:52.082Z</time></trkpt><trkpt lat="46.0420575" lon="13.5110052"><ele>297.0</ele><time>2026-05-03T10:15:53.081Z</time></trkpt><trkpt lat="46.0419344" lon="13.5110423"><ele>297.0</ele><time>2026-05-03T10:15:54.087Z</time></trkpt><trkpt lat="46.0418119" lon="13.5110759"><ele>297.0</ele><time>2026-05-03T10:15:55.083Z</time></trkpt><trkpt lat="46.0416915" lon="13.5111275"><ele>297.0</ele><time>2026-05-03T10:15:56.097Z</time></trkpt><trkpt lat="46.0415836" lon="13.5112187"><ele>299.75</ele><time>2026-05-03T10:15:57.094Z</time></trkpt><trkpt lat="46.0414836" lon="13.5113358"><ele>302.5</ele><time>2026-05-03T10:15:58.088Z</time></trkpt><trkpt lat="46.0413847" lon="13.5114534"><ele>305.25</ele><time>2026-05-03T10:15:59.103Z</time></trkpt><trkpt lat="46.0412781" lon="13.5115606"><ele>308.0</ele><time>2026-05-03T10:16:00.098Z</time></trkpt><trkpt lat="46.0411623" lon="13.5116246"><ele>308.0</ele><time>2026-05-03T10:16:01.088Z</time></trkpt><trkpt lat="46.0410398" lon="13.5116334"><ele>308.0</ele><time>2026-05-03T10:16:02.093Z</time></trkpt><trkpt lat="46.0409279" lon="13.5115847"><ele>308.0</ele><time>2026-05-03T10:16:03.097Z</time></trkpt><trkpt lat="46.0408294" lon="13.5114611"><ele>308.0</ele><time>2026-05-03T10:16:04.091Z</time></trkpt><trkpt lat="46.0407465" lon="13.5113148"><ele>302.5</ele><time>2026-05-03T10:16:05.096Z</time></trkpt><trkpt lat="46.0406683" lon="13.5111537"><ele>297.0</ele><time>2026-05-03T10:16:06.087Z</time></trkpt><trkpt lat="46.0405936" lon="13.5109929"><ele>291.5</ele><time>2026-05-03T10:16:07.095Z</time></trkpt><trkpt lat="46.0405217" lon="13.5108746"><ele>286.0</ele><time>2026-05-03T10:16:08.097Z</time></trkpt><trkpt lat="46.0404331" lon="13.5108035"><ele>286.0</ele><time>2026-05-03T10:16:09.102Z</time></trkpt><trkpt lat="46.0403251" lon="13.5107903"><ele>286.0</ele><time>2026-05-03T10:16:10.099Z</time></trkpt><trkpt lat="46.040218" lon="13.5108522"><ele>286.0</ele><time>2026-05-03T10:16:11.096Z</time></trkpt><trkpt lat="46.040115" lon="13.5109602"><ele>286.0</ele><time>2026-05-03T10:16:12.096Z</time></trkpt><trkpt lat="46.0400178" lon="13.5110709"><ele>285.0</ele><time>2026-05-03T10:16:13.098Z</time></trkpt><trkpt lat="46.0399122" lon="13.5111427"><ele>284.0</ele><time>2026-05-03T10:16:14.099Z</time></trkpt><trkpt lat="46.0398027" lon="13.5111498"><ele>283.0</ele><time>2026-05-03T10:16:15.091Z</time></trkpt><trkpt lat="46.0396777" lon="13.5111056"><ele>282.0</ele><time>2026-05-03T10:16:16.103Z</time></trkpt><trkpt lat="46.0395549" lon="13.5110205"><ele>282.0</ele><time>2026-05-03T10:16:17.089Z</time></trkpt><trkpt lat="46.0394322" lon="13.5109179"><ele>282.0</ele><time>2026-05-03T10:16:18.093Z</time></trkpt><trkpt lat="46.0393105" lon="13.5108184"><ele>282.0</ele><time>2026-05-03T10:16:19.103Z</time></trkpt><trkpt lat="46.0391778" lon="13.5107356"><ele>282.0</ele><time>2026-05-03T10:16:20.107Z</time></trkpt><trkpt lat="46.0390397" lon="13.5106973"><ele>281.0</ele><time>2026-05-03T10:16:21.105Z</time></trkpt><trkpt lat="46.0388872" lon="13.5107052"><ele>280.0</ele><time>2026-05-03T10:16:22.102Z</time></trkpt><trkpt lat="46.0387249" lon="13.5107266"><ele>279.0</ele><time>2026-05-03T10:16:23.093Z</time></trkpt><trkpt lat="46.0385686" lon="13.5107612"><ele>279.0</ele><time>2026-05-03T10:16:24.092Z</time></trkpt><trkpt lat="46.0384136" lon="13.5107823"><ele>279.0</ele><time>2026-05-03T10:16:25.107Z</time></trkpt><trkpt lat="46.0382654" lon="13.510764"><ele>279.0</ele><time>2026-05-03T10:16:26.088Z</time></trkpt><trkpt lat="46.0381245" lon="13.5107148"><ele>279.0</ele><time>2026-05-03T10:16:27.097Z</time></trkpt><trkpt lat="46.037987" lon="13.5106575"><ele>276.25</ele><time>2026-05-03T10:16:28.098Z</time></trkpt><trkpt lat="46.0378535" lon="13.5106135"><ele>273.5</ele><time>2026-05-03T10:16:29.103Z</time></trkpt><trkpt lat="46.0377247" lon="13.510636"><ele>270.75</ele><time>2026-05-03T10:16:30.099Z</time></trkpt><trkpt lat="46.0376106" lon="13.510733"><ele>268.0</ele><time>2026-05-03T10:16:31.087Z</time></trkpt><trkpt lat="46.037497" lon="13.5108534"><ele>265.0</ele><time>2026-05-03T10:16:32.094Z</time></trkpt><trkpt lat="46.0373829" lon="13.5109502"><ele>262.0</ele><time>2026-05-03T10:16:33.093Z</time></trkpt><trkpt lat="46.037266" lon="13.5109862"><ele>259.0</ele><time>2026-05-03T10:16:34.095Z</time></trkpt><trkpt lat="46.0371479" lon="13.5109733"><ele>256.0</ele><time>2026-05-03T10:16:35.107Z</time></trkpt><trkpt lat="46.0370198" lon="13.5109002"><ele>256.0</ele><time>2026-05-03T10:16:36.095Z</time></trkpt><trkpt lat="46.036889" lon="13.5108124"><ele>256.0</ele><time>2026-05-03T10:16:37.096Z</time></trkpt><trkpt lat="46.0367783" lon="13.5107714"><ele>256.0</ele><time>2026-05-03T10:16:38.097Z</time></trkpt><trkpt lat="46.0366806" lon="13.5107952"><ele>256.0</ele><time>2026-05-03T10:16:39.107Z</time></trkpt><trkpt lat="46.0365766" lon="13.5108818"><ele>258.0</ele><time>2026-05-03T10:16:40.098Z</time></trkpt><trkpt lat="46.0364821" lon="13.5110077"><ele>260.0</ele><time>2026-05-03T10:16:41.094Z</time></trkpt><trkpt lat="46.0363922" lon="13.5111368"><ele>262.0</ele><time>2026-05-03T10:16:42.088Z</time></trkpt><trkpt lat="46.0363044" lon="13.5112577"><ele>264.0</ele><time>2026-05-03T10:16:43.096Z</time></trkpt><trkpt lat="46.0362056" lon="13.511345"><ele>264.0</ele><time>2026-05-03T10:16:44.092Z</time></trkpt><trkpt lat="46.0361022" lon="13.5113912"><ele>264.0</ele><time>2026-05-03T10:16:45.11Z</time></trkpt><trkpt lat="46.0359959" lon="13.5113718"><ele>264.0</ele><time>2026-05-03T10:16:46.096Z</time></trkpt><trkpt lat="46.0358842" lon="13.5112789"><ele>264.0</ele><time>2026-05-03T10:16:47.089Z</time></trkpt><trkpt lat="46.035777" lon="13.5111983"><ele>263.5</ele><time>2026-05-03T10:16:48.1Z</time></trkpt><trkpt lat="46.0356444" lon="13.5111656"><ele>263.0</ele><time>2026-05-03T10:16:49.096Z</time></trkpt><trkpt lat="46.0354981" lon="13.5111869"><ele>262.5</ele><time>2026-05-03T10:16:50.097Z</time></trkpt><trkpt lat="46.0353513" lon="13.5112428"><ele>262.0</ele><time>2026-05-03T10:16:51.092Z</time></trkpt><trkpt lat="46.0352043" lon="13.5113142"><ele>262.0</ele><time>2026-05-03T10:16:52.101Z</time></trkpt><trkpt lat="46.0350646" lon="13.5113642"><ele>262.0</ele><time>2026-05-03T10:16:53.1Z</time></trkpt><trkpt lat="46.034924" lon="13.5113986"><ele>262.0</ele><time>2026-05-03T10:16:54.103Z</time></trkpt><trkpt lat="46.0347852" lon="13.5114175"><ele>262.0</ele><time>2026-05-03T10:16:55.095Z</time></trkpt><trkpt lat="46.0346558" lon="13.5114159"><ele>261.0</ele><time>2026-05-03T10:16:56.112Z</time></trkpt><trkpt lat="46.0345532" lon="13.5113634"><ele>260.0</ele><time>2026-05-03T10:16:57.112Z</time></trkpt><trkpt lat="46.0344735" lon="13.5112691"><ele>259.0</ele><time>2026-05-03T10:16:58.099Z</time></trkpt><trkpt lat="46.0343966" lon="13.5111112"><ele>258.0</ele><time>2026-05-03T10:16:59.083Z</time></trkpt><trkpt lat="46.0343175" lon="13.5109313"><ele>255.75</ele><time>2026-05-03T10:17:00.091Z</time></trkpt><trkpt lat="46.0342396" lon="13.5107782"><ele>253.5</ele><time>2026-05-03T10:17:01.095Z</time></trkpt><trkpt lat="46.0341515" lon="13.5106942"><ele>251.25</ele><time>2026-05-03T10:17:02.107Z</time></trkpt><trkpt lat="46.0340281" lon="13.5106635"><ele>249.0</ele><time>2026-05-03T10:17:03.094Z</time></trkpt><trkpt lat="46.0338981" lon="13.5106922"><ele>249.0</ele><time>2026-05-03T10:17:04.087Z</time></trkpt><trkpt lat="46.033774" lon="13.5107408"><ele>249.0</ele><time>2026-05-03T10:17:05.091Z</time></trkpt><trkpt lat="46.0336502" lon="13.5107639"><ele>249.0</ele><time>2026-05-03T10:17:06.103Z</time></trkpt><trkpt lat="46.0335336" lon="13.51071"><ele>249.0</ele><time>2026-05-03T10:17:07.115Z</time></trkpt><trkpt lat="46.0334095" lon="13.5106007"><ele>248.33333333333331</ele><time>2026-05-03T10:17:08.094Z</time></trkpt><trkpt lat="46.0332815" lon="13.5104861"><ele>247.66666666666666</ele><time>2026-05-03T10:17:09.085Z</time></trkpt><trkpt lat="46.0331363" lon="13.510386"><ele>247.0</ele><time>2026-05-03T10:17:10.095Z</time></trkpt><trkpt lat="46.032976" lon="13.5103247"><ele>241.33333333333331</ele><time>2026-05-03T10:17:11.096Z</time></trkpt><trkpt lat="46.0328251" lon="13.5102849"><ele>235.66666666666669</ele><time>2026-05-03T10:17:12.092Z</time></trkpt><trkpt lat="46.0326748" lon="13.510245"><ele>230.0</ele><time>2026-05-03T10:17:13.091Z</time></trkpt><trkpt lat="46.0325238" lon="13.5102214"><ele>232.0</ele><time>2026-05-03T10:17:14.101Z</time></trkpt><trkpt lat="46.0323776" lon="13.5102066"><ele>234.0</ele><time>2026-05-03T10:17:15.098Z</time></trkpt><trkpt lat="46.0322507" lon="13.51019"><ele>236.0</ele><time>2026-05-03T10:17:16.09Z</time></trkpt><trkpt lat="46.0321525" lon="13.5101303"><ele>238.0</ele><time>2026-05-03T10:17:17.097Z</time></trkpt><trkpt lat="46.0320727" lon="13.5100202"><ele>238.0</ele><time>2026-05-03T10:17:18.092Z</time></trkpt><trkpt lat="46.0319937" lon="13.5098765"><ele>238.0</ele><time>2026-05-03T10:17:19.092Z</time></trkpt><trkpt lat="46.0319071" lon="13.5097661"><ele>238.0</ele><time>2026-05-03T10:17:20.096Z</time></trkpt><trkpt lat="46.0318026" lon="13.5097106"><ele>238.0</ele><time>2026-05-03T10:17:21.094Z</time></trkpt><trkpt lat="46.0316746" lon="13.5097149"><ele>239.75</ele><time>2026-05-03T10:17:22.09Z</time></trkpt><trkpt lat="46.0315472" lon="13.5097137"><ele>241.5</ele><time>2026-05-03T10:17:23.087Z</time></trkpt><trkpt lat="46.0314219" lon="13.5096821"><ele>243.25</ele><time>2026-05-03T10:17:24.103Z</time></trkpt><trkpt lat="46.0313146" lon="13.5096035"><ele>245.0</ele><time>2026-05-03T10:17:25.096Z</time></trkpt><trkpt lat="46.0312252" lon="13.5094767"><ele>240.8</ele><time>2026-05-03T10:17:26.086Z</time></trkpt><trkpt lat="46.0311528" lon="13.5093418"><ele>236.6</ele><time>2026-05-03T10:17:27.085Z</time></trkpt><trkpt lat="46.0310817" lon="13.5092341"><ele>232.39999999999998</ele><time>2026-05-03T10:17:28.114Z</time></trkpt><trkpt lat="46.0309922" lon="13.5092004"><ele>228.2</ele><time>2026-05-03T10:17:29.098Z</time></trkpt><trkpt lat="46.0308901" lon="13.5092309"><ele>224.0</ele><time>2026-05-03T10:17:30.084Z</time></trkpt><trkpt lat="46.0307736" lon="13.5092769"><ele>224.0</ele><time>2026-05-03T10:17:31.087Z</time></trkpt><trkpt lat="46.0306641" lon="13.5092772"><ele>224.0</ele><time>2026-05-03T10:17:32.078Z</time></trkpt><trkpt lat="46.030554" lon="13.5092262"><ele>224.0</ele><time>2026-05-03T10:17:33.092Z</time></trkpt><trkpt lat="46.0304545" lon="13.5091256"><ele>224.0</ele><time>2026-05-03T10:17:34.085Z</time></trkpt><trkpt lat="46.0303506" lon="13.5089997"><ele>224.0</ele><time>2026-05-03T10:17:35.098Z</time></trkpt><trkpt lat="46.0302386" lon="13.5088828"><ele>224.0</ele><time>2026-05-03T10:17:36.091Z</time></trkpt><trkpt lat="46.03011" lon="13.5087867"><ele>224.0</ele><time>2026-05-03T10:17:37.087Z</time></trkpt><trkpt lat="46.0299831" lon="13.508703"><ele>224.0</ele><time>2026-05-03T10:17:38.083Z</time></trkpt><trkpt lat="46.0298623" lon="13.50861"><ele>221.0</ele><time>2026-05-03T10:17:39.081Z</time></trkpt><trkpt lat="46.0297574" lon="13.5085072"><ele>218.0</ele><time>2026-05-03T10:17:40.091Z</time></trkpt><trkpt lat="46.0296893" lon="13.5083777"><ele>215.0</ele><time>2026-05-03T10:17:41.104Z</time></trkpt><trkpt lat="46.0296536" lon="13.508212"><ele>212.0</ele><time>2026-05-03T10:17:42.09Z</time></trkpt><trkpt lat="46.029635" lon="13.5080377"><ele>209.6</ele><time>2026-05-03T10:17:43.09Z</time></trkpt><trkpt lat="46.0296191" lon="13.5078574"><ele>207.2</ele><time>2026-05-03T10:17:44.095Z</time></trkpt><trkpt lat="46.0295938" lon="13.5077072"><ele>204.8</ele><time>2026-05-03T10:17:45.094Z</time></trkpt><trkpt lat="46.0295638" lon="13.5075965"><ele>202.4</ele><time>2026-05-03T10:17:46.111Z</time></trkpt><trkpt lat="46.0295086" lon="13.5075163"><ele>200.0</ele><time>2026-05-03T10:17:47.097Z</time></trkpt><trkpt lat="46.0294247" lon="13.5074474"><ele>200.0</ele><time>2026-05-03T10:17:48.098Z</time></trkpt><trkpt lat="46.0293265" lon="13.5074051"><ele>200.0</ele><time>2026-05-03T10:17:49.097Z</time></trkpt><trkpt lat="46.0292072" lon="13.5073963"><ele>200.0</ele><time>2026-05-03T10:17:50.105Z</time></trkpt><trkpt lat="46.0290859" lon="13.5074209"><ele>200.0</ele><time>2026-05-03T10:17:51.097Z</time></trkpt><trkpt lat="46.0289559" lon="13.5074592"><ele>198.25</ele><time>2026-05-03T10:17:52.098Z</time></trkpt><trkpt lat="46.0288197" lon="13.5074945"><ele>196.5</ele><time>2026-05-03T10:17:53.089Z</time></trkpt><trkpt lat="46.0286926" lon="13.5075116"><ele>194.75</ele><time>2026-05-03T10:17:54.095Z</time></trkpt><trkpt lat="46.0285716" lon="13.5074873"><ele>193.0</ele><time>2026-05-03T10:17:55.106Z</time></trkpt><trkpt lat="46.0284676" lon="13.5074461"><ele>192.99999999999997</ele><time>2026-05-03T10:17:56.09Z</time></trkpt><trkpt lat="46.0283665" lon="13.5074199"><ele>193.0</ele><time>2026-05-03T10:17:57.097Z</time></trkpt><trkpt lat="46.0282813" lon="13.5074401"><ele>193.0</ele><time>2026-05-03T10:17:58.096Z</time></trkpt><trkpt lat="46.0282221" lon="13.5074895"><ele>193.0</ele><time>2026-05-03T10:17:59.104Z</time></trkpt><trkpt lat="46.0281783" lon="13.5075776"><ele>192.99999999999997</ele><time>2026-05-03T10:18:00.104Z</time></trkpt><trkpt lat="46.0281747" lon="13.507691"><ele>193.0</ele><time>2026-05-03T10:18:01.093Z</time></trkpt><trkpt lat="46.0282126" lon="13.507835"><ele>193.0</ele><time>2026-05-03T10:18:02.09Z</time></trkpt><trkpt lat="46.0282729" lon="13.5079707"><ele>193.0</ele><time>2026-05-03T10:18:03.107Z</time></trkpt><trkpt lat="46.0283182" lon="13.508112"><ele>193.0</ele><time>2026-05-03T10:18:04.093Z</time></trkpt><trkpt lat="46.0283473" lon="13.508272"><ele>193.0</ele><time>2026-05-03T10:18:05.111Z</time></trkpt><trkpt lat="46.0283564" lon="13.508447"><ele>193.0</ele><time>2026-05-03T10:18:06.102Z</time></trkpt><trkpt lat="46.0283547" lon="13.5086254"><ele>193.0</ele><time>2026-05-03T10:18:07.109Z</time></trkpt><trkpt lat="46.0283447" lon="13.5088048"><ele>193.0</ele><time>2026-05-03T10:18:08.113Z</time></trkpt><trkpt lat="46.0283345" lon="13.5089688"><ele>193.0</ele><time>2026-05-03T10:18:09.122Z</time></trkpt><trkpt lat="46.0283344" lon="13.5091179"><ele>191.4</ele><time>2026-05-03T10:18:10.126Z</time></trkpt><trkpt lat="46.0283536" lon="13.5092321"><ele>189.8</ele><time>2026-05-03T10:18:11.107Z</time></trkpt><trkpt lat="46.0284065" lon="13.5093266"><ele>188.2</ele><time>2026-05-03T10:18:12.095Z</time></trkpt><trkpt lat="46.0284866" lon="13.5093972"><ele>186.6</ele><time>2026-05-03T10:18:13.102Z</time></trkpt><trkpt lat="46.0285824" lon="13.5094642"><ele>185.0</ele><time>2026-05-03T10:18:14.111Z</time></trkpt><trkpt lat="46.0286749" lon="13.5095468"><ele>183.6</ele><time>2026-05-03T10:18:15.1Z</time></trkpt><trkpt lat="46.028729" lon="13.5096602"><ele>182.2</ele><time>2026-05-03T10:18:16.111Z</time></trkpt><trkpt lat="46.0287446" lon="13.5098085"><ele>180.8</ele><time>2026-05-03T10:18:17.102Z</time></trkpt><trkpt lat="46.0287357" lon="13.5099597"><ele>179.4</ele><time>2026-05-03T10:18:18.095Z</time></trkpt><trkpt lat="46.0287132" lon="13.5101118"><ele>178.0</ele><time>2026-05-03T10:18:19.097Z</time></trkpt><trkpt lat="46.0286881" lon="13.5102619"><ele>178.0</ele><time>2026-05-03T10:18:20.1Z</time></trkpt><trkpt lat="46.0286445" lon="13.5103908"><ele>178.0</ele><time>2026-05-03T10:18:21.095Z</time></trkpt><trkpt lat="46.0285752" lon="13.5104771"><ele>178.0</ele><time>2026-05-03T10:18:22.103Z</time></trkpt><trkpt lat="46.0284899" lon="13.5104994"><ele>178.0</ele><time>2026-05-03T10:18:23.087Z</time></trkpt><trkpt lat="46.0283928" lon="13.5104905"><ele>178.0</ele><time>2026-05-03T10:18:24.098Z</time></trkpt><trkpt lat="46.0282919" lon="13.5104584"><ele>176.2</ele><time>2026-05-03T10:18:25.088Z</time></trkpt><trkpt lat="46.0281851" lon="13.5104401"><ele>174.4</ele><time>2026-05-03T10:18:26.088Z</time></trkpt><trkpt lat="46.028071" lon="13.5104683"><ele>172.6</ele><time>2026-05-03T10:18:27.1Z</time></trkpt><trkpt lat="46.0279733" lon="13.5105295"><ele>170.79999999999998</ele><time>2026-05-03T10:18:28.093Z</time></trkpt><trkpt lat="46.0279127" lon="13.5106486"><ele>169.0</ele><time>2026-05-03T10:18:29.09Z</time></trkpt><trkpt lat="46.0278669" lon="13.5107987"><ele>169.0</ele><time>2026-05-03T10:18:30.083Z</time></trkpt><trkpt lat="46.0277981" lon="13.5109016"><ele>169.0</ele><time>2026-05-03T10:18:31.089Z</time></trkpt><trkpt lat="46.0277101" lon="13.5109574"><ele>169.0</ele><time>2026-05-03T10:18:32.09Z</time></trkpt><trkpt lat="46.0276212" lon="13.5109232"><ele>169.0</ele><time>2026-05-03T10:18:33.086Z</time></trkpt><trkpt lat="46.0275373" lon="13.5108192"><ele>169.0</ele><time>2026-05-03T10:18:34.08Z</time></trkpt><trkpt lat="46.0274593" lon="13.5106904"><ele>169.0</ele><time>2026-05-03T10:18:35.091Z</time></trkpt><trkpt lat="46.027387" lon="13.510543"><ele>169.0</ele><time>2026-05-03T10:18:36.082Z</time></trkpt><trkpt lat="46.0273117" lon="13.510415"><ele>169.0</ele><time>2026-05-03T10:18:37.09Z</time></trkpt><trkpt lat="46.027236" lon="13.5103258"><ele>169.0</ele><time>2026-05-03T10:18:38.096Z</time></trkpt><trkpt lat="46.0271461" lon="13.5102747"><ele>169.0</ele><time>2026-05-03T10:18:39.097Z</time></trkpt><trkpt lat="46.0270465" lon="13.5102492"><ele>169.0</ele><time>2026-05-03T10:18:40.087Z</time></trkpt><trkpt lat="46.0269416" lon="13.5102896"><ele>169.0</ele><time>2026-05-03T10:18:41.091Z</time></trkpt><trkpt lat="46.0268463" lon="13.5103662"><ele>169.0</ele><time>2026-05-03T10:18:42.081Z</time></trkpt><trkpt lat="46.026741" lon="13.510441"><ele>169.0</ele><time>2026-05-03T10:18:43.088Z</time></trkpt><trkpt lat="46.0266347" lon="13.5104973"><ele>169.0</ele><time>2026-05-03T10:18:44.087Z</time></trkpt><trkpt lat="46.0265226" lon="13.5105324"><ele>164.79999999999998</ele><time>2026-05-03T10:18:45.083Z</time></trkpt><trkpt lat="46.0264081" lon="13.510549"><ele>160.6</ele><time>2026-05-03T10:18:46.089Z</time></trkpt><trkpt lat="46.0263011" lon="13.5105839"><ele>156.4</ele><time>2026-05-03T10:18:47.088Z</time></trkpt><trkpt lat="46.0262024" lon="13.5106492"><ele>152.2</ele><time>2026-05-03T10:18:48.083Z</time></trkpt><trkpt lat="46.0261146" lon="13.510744"><ele>148.0</ele><time>2026-05-03T10:18:49.09Z</time></trkpt><trkpt lat="46.026033" lon="13.51086"><ele>148.0</ele><time>2026-05-03T10:18:50.085Z</time></trkpt><trkpt lat="46.0259532" lon="13.511001"><ele>148.0</ele><time>2026-05-03T10:18:51.095Z</time></trkpt><trkpt lat="46.0258775" lon="13.5111366"><ele>148.0</ele><time>2026-05-03T10:18:52.086Z</time></trkpt><trkpt lat="46.0258007" lon="13.5112562"><ele>148.0</ele><time>2026-05-03T10:18:53.089Z</time></trkpt><trkpt lat="46.025725" lon="13.5113479"><ele>147.20000000000002</ele><time>2026-05-03T10:18:54.094Z</time></trkpt><trkpt lat="46.0256468" lon="13.5113996"><ele>146.4</ele><time>2026-05-03T10:18:55.095Z</time></trkpt><trkpt lat="46.02555" lon="13.5114066"><ele>145.60000000000002</ele><time>2026-05-03T10:18:56.088Z</time></trkpt><trkpt lat="46.0254469" lon="13.5113966"><ele>144.8</ele><time>2026-05-03T10:18:57.098Z</time></trkpt><trkpt lat="46.0253398" lon="13.5113837"><ele>144.0</ele><time>2026-05-03T10:18:58.088Z</time></trkpt><trkpt lat="46.0252331" lon="13.511378"><ele>144.0</ele><time>2026-05-03T10:18:59.091Z</time></trkpt><trkpt lat="46.025125" lon="13.5113894"><ele>144.0</ele><time>2026-05-03T10:19:00.081Z</time></trkpt><trkpt lat="46.0250194" lon="13.5114186"><ele>144.0</ele><time>2026-05-03T10:19:01.079Z</time></trkpt><trkpt lat="46.0249151" lon="13.5114665"><ele>144.0</ele><time>2026-05-03T10:19:02.091Z</time></trkpt><trkpt lat="46.0248229" lon="13.5115522"><ele>144.0</ele><time>2026-05-03T10:19:03.087Z</time></trkpt><trkpt lat="46.0247452" lon="13.5116643"><ele>142.6</ele><time>2026-05-03T10:19:04.091Z</time></trkpt><trkpt lat="46.0246695" lon="13.5117821"><ele>141.2</ele><time>2026-05-03T10:19:05.088Z</time></trkpt><trkpt lat="46.0245846" lon="13.5118789"><ele>139.79999999999998</ele><time>2026-05-03T10:19:06.086Z</time></trkpt><trkpt lat="46.024488" lon="13.5119596"><ele>138.4</ele><time>2026-05-03T10:19:07.089Z</time></trkpt><trkpt lat="46.0243813" lon="13.5119895"><ele>137.0</ele><time>2026-05-03T10:19:08.083Z</time></trkpt><trkpt lat="46.0242711" lon="13.5119886"><ele>137.0</ele><time>2026-05-03T10:19:09.088Z</time></trkpt><trkpt lat="46.0241578" lon="13.5119952"><ele>137.0</ele><time>2026-05-03T10:19:10.086Z</time></trkpt><trkpt lat="46.0240439" lon="13.5120245"><ele>137.0</ele><time>2026-05-03T10:19:11.089Z</time></trkpt><trkpt lat="46.0239337" lon="13.5120728"><ele>137.0</ele><time>2026-05-03T10:19:12.091Z</time></trkpt><trkpt lat="46.0238266" lon="13.5121307"><ele>135.6</ele><time>2026-05-03T10:19:13.088Z</time></trkpt><trkpt lat="46.0237276" lon="13.5122093"><ele>134.2</ele><time>2026-05-03T10:19:14.089Z</time></trkpt><trkpt lat="46.0236364" lon="13.512302"><ele>132.8</ele><time>2026-05-03T10:19:15.093Z</time></trkpt><trkpt lat="46.0235569" lon="13.5124044"><ele>131.4</ele><time>2026-05-03T10:19:16.087Z</time></trkpt><trkpt lat="46.0234779" lon="13.5125046"><ele>130.0</ele><time>2026-05-03T10:19:17.081Z</time></trkpt><trkpt lat="46.0234" lon="13.5126031"><ele>130.0</ele><time>2026-05-03T10:19:18.086Z</time></trkpt><trkpt lat="46.0233284" lon="13.5127055"><ele>130.0</ele><time>2026-05-03T10:19:19.091Z</time></trkpt><trkpt lat="46.0232606" lon="13.5128109"><ele>130.0</ele><time>2026-05-03T10:19:20.089Z</time></trkpt><trkpt lat="46.0232014" lon="13.5129224"><ele>130.0</ele><time>2026-05-03T10:19:21.092Z</time></trkpt><trkpt lat="46.0231452" lon="13.5130385"><ele>130.0</ele><time>2026-05-03T10:19:22.104Z</time></trkpt><trkpt lat="46.0230863" lon="13.5131551"><ele>128.0</ele><time>2026-05-03T10:19:23.095Z</time></trkpt><trkpt lat="46.0230287" lon="13.5132603"><ele>126.0</ele><time>2026-05-03T10:19:24.1Z</time></trkpt><trkpt lat="46.0229772" lon="13.5133604"><ele>124.0</ele><time>2026-05-03T10:19:25.099Z</time></trkpt><trkpt lat="46.0229344" lon="13.513436"><ele>122.0</ele><time>2026-05-03T10:19:26.11Z</time></trkpt><trkpt lat="46.0228708" lon="13.5135503"><ele>120.00000000000001</ele><time>2026-05-03T10:19:28.104Z</time></trkpt><trkpt lat="46.0228521" lon="13.5136489"><ele>118.0</ele><time>2026-05-03T10:19:30.088Z</time></trkpt><trkpt lat="46.0228688" lon="13.5137457"><ele>115.80000000000001</ele><time>2026-05-03T10:19:33.096Z</time></trkpt><trkpt lat="46.0229055" lon="13.5138882"><ele>113.60000000000001</ele><time>2026-05-03T10:19:46.116Z</time></trkpt><trkpt lat="46.0229213" lon="13.513991"><ele>111.39999999999999</ele><time>2026-05-03T10:19:47.097Z</time></trkpt><trkpt lat="46.0229431" lon="13.5141187"><ele>109.19999999999999</ele><time>2026-05-03T10:19:48.095Z</time></trkpt><trkpt lat="46.0229641" lon="13.5142707"><ele>107.0</ele><time>2026-05-03T10:19:49.095Z</time></trkpt><trkpt lat="46.0229879" lon="13.5144306"><ele>107.0</ele><time>2026-05-03T10:19:50.096Z</time></trkpt><trkpt lat="46.0230177" lon="13.5145881"><ele>107.0</ele><time>2026-05-03T10:19:51.077Z</time></trkpt><trkpt lat="46.0230607" lon="13.5147548"><ele>107.0</ele><time>2026-05-03T10:19:52.082Z</time></trkpt><trkpt lat="46.0231045" lon="13.5149319"><ele>107.0</ele><time>2026-05-03T10:19:53.084Z</time></trkpt><trkpt lat="46.0231435" lon="13.5151185"><ele>107.0</ele><time>2026-05-03T10:19:54.096Z</time></trkpt><trkpt lat="46.0231746" lon="13.5153094"><ele>107.0</ele><time>2026-05-03T10:19:55.108Z</time></trkpt><trkpt lat="46.0232023" lon="13.5155014"><ele>107.0</ele><time>2026-05-03T10:19:56.095Z</time></trkpt><trkpt lat="46.0232283" lon="13.5156944"><ele>107.0</ele><time>2026-05-03T10:19:57.096Z</time></trkpt><trkpt lat="46.0232596" lon="13.5158903"><ele>108.75</ele><time>2026-05-03T10:19:58.091Z</time></trkpt><trkpt lat="46.0232993" lon="13.5160783"><ele>110.5</ele><time>2026-05-03T10:19:59.093Z</time></trkpt><trkpt lat="46.0233596" lon="13.5162473"><ele>112.25</ele><time>2026-05-03T10:20:00.095Z</time></trkpt><trkpt lat="46.0234491" lon="13.5163876"><ele>114.0</ele><time>2026-05-03T10:20:01.099Z</time></trkpt><trkpt lat="46.0235572" lon="13.5164957"><ele>114.75</ele><time>2026-05-03T10:20:02.102Z</time></trkpt><trkpt lat="46.023675" lon="13.5165933"><ele>115.5</ele><time>2026-05-03T10:20:03.1Z</time></trkpt><trkpt lat="46.0238008" lon="13.5166876"><ele>116.25</ele><time>2026-05-03T10:20:04.097Z</time></trkpt><trkpt lat="46.0239349" lon="13.5167788"><ele>117.0</ele><time>2026-05-03T10:20:05.11Z</time></trkpt><trkpt lat="46.0240753" lon="13.5168684"><ele>116.75</ele><time>2026-05-03T10:20:06.099Z</time></trkpt><trkpt lat="46.0242184" lon="13.5169583"><ele>116.5</ele><time>2026-05-03T10:20:07.115Z</time></trkpt><trkpt lat="46.024357" lon="13.517042"><ele>116.25</ele><time>2026-05-03T10:20:08.103Z</time></trkpt><trkpt lat="46.0244879" lon="13.5171186"><ele>116.0</ele><time>2026-05-03T10:20:09.105Z</time></trkpt><trkpt lat="46.0246094" lon="13.5172056"><ele>118.0</ele><time>2026-05-03T10:20:10.099Z</time></trkpt><trkpt lat="46.0247191" lon="13.5173038"><ele>120.0</ele><time>2026-05-03T10:20:11.109Z</time></trkpt><trkpt lat="46.0248296" lon="13.517425"><ele>122.0</ele><time>2026-05-03T10:20:12.095Z</time></trkpt><trkpt lat="46.0249431" lon="13.5175517"><ele>124.0</ele><time>2026-05-03T10:20:13.091Z</time></trkpt><trkpt lat="46.0250652" lon="13.5176775"><ele>124.0</ele><time>2026-05-03T10:20:14.092Z</time></trkpt><trkpt lat="46.0251944" lon="13.5177992"><ele>124.0</ele><time>2026-05-03T10:20:15.094Z</time></trkpt><trkpt lat="46.0253289" lon="13.5179143"><ele>124.0</ele><time>2026-05-03T10:20:16.094Z</time></trkpt><trkpt lat="46.0254678" lon="13.5180264"><ele>125.25</ele><time>2026-05-03T10:20:17.096Z</time></trkpt><trkpt lat="46.0256069" lon="13.5181407"><ele>126.5</ele><time>2026-05-03T10:20:18.102Z</time></trkpt><trkpt lat="46.025737" lon="13.5182494"><ele>127.75</ele><time>2026-05-03T10:20:19.095Z</time></trkpt><trkpt lat="46.0258405" lon="13.5183526"><ele>129.0</ele><time>2026-05-03T10:20:20.1Z</time></trkpt><trkpt lat="46.0259183" lon="13.5184538"><ele>129.0</ele><time>2026-05-03T10:20:21.109Z</time></trkpt><trkpt lat="46.0259734" lon="13.5185755"><ele>129.0</ele><time>2026-05-03T10:20:22.095Z</time></trkpt><trkpt lat="46.0260338" lon="13.5187171"><ele>129.0</ele><time>2026-05-03T10:20:23.087Z</time></trkpt><trkpt lat="46.026113" lon="13.5188658"><ele>129.0</ele><time>2026-05-03T10:20:24.092Z</time></trkpt><trkpt lat="46.0262063" lon="13.519019"><ele>137.33333333333334</ele><time>2026-05-03T10:20:25.103Z</time></trkpt><trkpt lat="46.0263019" lon="13.5191703"><ele>145.66666666666669</ele><time>2026-05-03T10:20:26.094Z</time></trkpt><trkpt lat="46.0264029" lon="13.5193393"><ele>154.0</ele><time>2026-05-03T10:20:27.1Z</time></trkpt><trkpt lat="46.0264917" lon="13.5195208"><ele>149.75</ele><time>2026-05-03T10:20:28.109Z</time></trkpt><trkpt lat="46.0265728" lon="13.5197093"><ele>145.5</ele><time>2026-05-03T10:20:29.102Z</time></trkpt><trkpt lat="46.0266408" lon="13.5198943"><ele>141.25</ele><time>2026-05-03T10:20:30.097Z</time></trkpt><trkpt lat="46.0267" lon="13.5200811"><ele>137.0</ele><time>2026-05-03T10:20:31.116Z</time></trkpt><trkpt lat="46.0267583" lon="13.5202673"><ele>142.39999999999998</ele><time>2026-05-03T10:20:32.111Z</time></trkpt><trkpt lat="46.0268335" lon="13.5204132"><ele>147.79999999999998</ele><time>2026-05-03T10:20:33.104Z</time></trkpt><trkpt lat="46.0269172" lon="13.5205304"><ele>153.2</ele><time>2026-05-03T10:20:34.1Z</time></trkpt><trkpt lat="46.0269917" lon="13.5206212"><ele>158.6</ele><time>2026-05-03T10:20:35.1Z</time></trkpt><trkpt lat="46.0270597" lon="13.5206991"><ele>164.0</ele><time>2026-05-03T10:20:36.1Z</time></trkpt><trkpt lat="46.0271279" lon="13.5207913"><ele>164.0</ele><time>2026-05-03T10:20:37.096Z</time></trkpt><trkpt lat="46.0271961" lon="13.5209103"><ele>164.0</ele><time>2026-05-03T10:20:38.107Z</time></trkpt><trkpt lat="46.0272799" lon="13.521026"><ele>164.0</ele><time>2026-05-03T10:20:39.107Z</time></trkpt><trkpt lat="46.0273723" lon="13.5211316"><ele>164.0</ele><time>2026-05-03T10:20:40.106Z</time></trkpt><trkpt lat="46.0274555" lon="13.5212676"><ele>162.0</ele><time>2026-05-03T10:20:41.121Z</time></trkpt><trkpt lat="46.0275082" lon="13.5214446"><ele>160.0</ele><time>2026-05-03T10:20:42.124Z</time></trkpt><trkpt lat="46.0275457" lon="13.5216492"><ele>158.0</ele><time>2026-05-03T10:20:43.093Z</time></trkpt><trkpt lat="46.0275786" lon="13.5218578"><ele>156.0</ele><time>2026-05-03T10:20:44.112Z</time></trkpt><trkpt lat="46.0276072" lon="13.5220742"><ele>156.0</ele><time>2026-05-03T10:20:45.111Z</time></trkpt><trkpt lat="46.0276221" lon="13.5222811"><ele>156.0</ele><time>2026-05-03T10:20:46.103Z</time></trkpt><trkpt lat="46.0276222" lon="13.5224659"><ele>156.0</ele><time>2026-05-03T10:20:47.125Z</time></trkpt><trkpt lat="46.0276429" lon="13.5226489"><ele>156.0</ele><time>2026-05-03T10:20:48.111Z</time></trkpt><trkpt lat="46.0276883" lon="13.5228097"><ele>161.0</ele><time>2026-05-03T10:20:49.123Z</time></trkpt><trkpt lat="46.0277684" lon="13.5229697"><ele>166.0</ele><time>2026-05-03T10:20:50.098Z</time></trkpt><trkpt lat="46.0278629" lon="13.5231286"><ele>171.0</ele><time>2026-05-03T10:20:51.103Z</time></trkpt><trkpt lat="46.027963" lon="13.5232962"><ele>176.0</ele><time>2026-05-03T10:20:52.1Z</time></trkpt><trkpt lat="46.0280645" lon="13.5234681"><ele>176.0</ele><time>2026-05-03T10:20:53.108Z</time></trkpt><trkpt lat="46.0281574" lon="13.5236328"><ele>176.0</ele><time>2026-05-03T10:20:54.093Z</time></trkpt><trkpt lat="46.0282567" lon="13.523777"><ele>176.0</ele><time>2026-05-03T10:20:55.106Z</time></trkpt><trkpt lat="46.0283487" lon="13.5238912"><ele>176.0</ele><time>2026-05-03T10:20:56.094Z</time></trkpt><trkpt lat="46.028428" lon="13.5239913"><ele>174.0</ele><time>2026-05-03T10:20:57.099Z</time></trkpt><trkpt lat="46.028482" lon="13.5241043"><ele>172.0</ele><time>2026-05-03T10:20:58.096Z</time></trkpt><trkpt lat="46.0285025" lon="13.5242532"><ele>170.0</ele><time>2026-05-03T10:20:59.1Z</time></trkpt><trkpt lat="46.0285105" lon="13.5244201"><ele>168.0</ele><time>2026-05-03T10:21:00.086Z</time></trkpt><trkpt lat="46.0285331" lon="13.5246064"><ele>166.0</ele><time>2026-05-03T10:21:01.109Z</time></trkpt><trkpt lat="46.0285553" lon="13.5247995"><ele>166.0</ele><time>2026-05-03T10:21:02.104Z</time></trkpt><trkpt lat="46.028587" lon="13.5249876"><ele>166.0</ele><time>2026-05-03T10:21:03.102Z</time></trkpt><trkpt lat="46.0286212" lon="13.5251563"><ele>166.0</ele><time>2026-05-03T10:21:04.095Z</time></trkpt><trkpt lat="46.0286532" lon="13.5253078"><ele>166.0</ele><time>2026-05-03T10:21:05.088Z</time></trkpt><trkpt lat="46.0286953" lon="13.5254353"><ele>168.66666666666669</ele><time>2026-05-03T10:21:06.103Z</time></trkpt><trkpt lat="46.0287528" lon="13.5255163"><ele>171.33333333333334</ele><time>2026-05-03T10:21:07.093Z</time></trkpt><trkpt lat="46.0288224" lon="13.5255621"><ele>174.0</ele><time>2026-05-03T10:21:08.102Z</time></trkpt><trkpt lat="46.0289025" lon="13.5255871"><ele>176.66666666666666</ele><time>2026-05-03T10:21:09.094Z</time></trkpt><trkpt lat="46.0289807" lon="13.5256032"><ele>179.33333333333331</ele><time>2026-05-03T10:21:10.09Z</time></trkpt><trkpt lat="46.0290508" lon="13.5256523"><ele>182.0</ele><time>2026-05-03T10:21:11.1Z</time></trkpt><trkpt lat="46.0291049" lon="13.5257559"><ele>182.0</ele><time>2026-05-03T10:21:12.11Z</time></trkpt><trkpt lat="46.0291342" lon="13.5259038"><ele>182.0</ele><time>2026-05-03T10:21:13.101Z</time></trkpt><trkpt lat="46.0291504" lon="13.526073"><ele>182.0</ele><time>2026-05-03T10:21:14.102Z</time></trkpt><trkpt lat="46.0291777" lon="13.5262587"><ele>182.0</ele><time>2026-05-03T10:21:15.09Z</time></trkpt><trkpt lat="46.0292357" lon="13.5264403"><ele>178.5</ele><time>2026-05-03T10:21:16.103Z</time></trkpt><trkpt lat="46.0293133" lon="13.5266138"><ele>175.0</ele><time>2026-05-03T10:21:17.098Z</time></trkpt><trkpt lat="46.0294063" lon="13.5267723"><ele>171.5</ele><time>2026-05-03T10:21:18.098Z</time></trkpt><trkpt lat="46.0295218" lon="13.5269277"><ele>168.0</ele><time>2026-05-03T10:21:19.109Z</time></trkpt><trkpt lat="46.0296498" lon="13.5270832"><ele>168.0</ele><time>2026-05-03T10:21:20.106Z</time></trkpt><trkpt lat="46.029776" lon="13.5272404"><ele>168.0</ele><time>2026-05-03T10:21:21.102Z</time></trkpt><trkpt lat="46.0298958" lon="13.527397"><ele>168.0</ele><time>2026-05-03T10:21:22.096Z</time></trkpt><trkpt lat="46.0299953" lon="13.5275529"><ele>162.75</ele><time>2026-05-03T10:21:23.1Z</time></trkpt><trkpt lat="46.0300746" lon="13.5277226"><ele>157.5</ele><time>2026-05-03T10:21:24.104Z</time></trkpt><trkpt lat="46.0301429" lon="13.5278965"><ele>152.25</ele><time>2026-05-03T10:21:25.107Z</time></trkpt><trkpt lat="46.0301942" lon="13.5280572"><ele>147.0</ele><time>2026-05-03T10:21:26.104Z</time></trkpt><trkpt lat="46.0302141" lon="13.5282172"><ele>147.0</ele><time>2026-05-03T10:21:27.1Z</time></trkpt><trkpt lat="46.0302267" lon="13.5283619"><ele>147.0</ele><time>2026-05-03T10:21:28.104Z</time></trkpt><trkpt lat="46.0302735" lon="13.5284656"><ele>147.0</ele><time>2026-05-03T10:21:29.1Z</time></trkpt><trkpt lat="46.0303465" lon="13.5285267"><ele>147.0</ele><time>2026-05-03T10:21:30.095Z</time></trkpt><trkpt lat="46.0304347" lon="13.5285368"><ele>147.0</ele><time>2026-05-03T10:21:31.093Z</time></trkpt><trkpt lat="46.0305169" lon="13.528501"><ele>147.0</ele><time>2026-05-03T10:21:32.102Z</time></trkpt><trkpt lat="46.0305803" lon="13.5284088"><ele>147.0</ele><time>2026-05-03T10:21:33.097Z</time></trkpt><trkpt lat="46.0306117" lon="13.5282887"><ele>147.0</ele><time>2026-05-03T10:21:34.092Z</time></trkpt><trkpt lat="46.0306159" lon="13.5281393"><ele>147.0</ele><time>2026-05-03T10:21:35.089Z</time></trkpt><trkpt lat="46.0305971" lon="13.5279785"><ele>147.0</ele><time>2026-05-03T10:21:36.091Z</time></trkpt><trkpt lat="46.0305586" lon="13.5278079"><ele>147.0</ele><time>2026-05-03T10:21:37.088Z</time></trkpt><trkpt lat="46.0305192" lon="13.5276258"><ele>146.2</ele><time>2026-05-03T10:21:38.088Z</time></trkpt><trkpt lat="46.0304842" lon="13.5274484"><ele>145.39999999999998</ele><time>2026-05-03T10:21:39.101Z</time></trkpt><trkpt lat="46.0304452" lon="13.5272815"><ele>144.60000000000002</ele><time>2026-05-03T10:21:40.107Z</time></trkpt><trkpt lat="46.0304001" lon="13.5271541"><ele>143.8</ele><time>2026-05-03T10:21:41.096Z</time></trkpt><trkpt lat="46.0303677" lon="13.5270752"><ele>143.0</ele><time>2026-05-03T10:21:42.099Z</time></trkpt><trkpt lat="46.0304779" lon="13.5270945"><ele>143.0</ele><time>2026-05-03T10:21:45.101Z</time></trkpt><trkpt lat="46.0305414" lon="13.5271835"><ele>143.0</ele><time>2026-05-03T10:21:46.097Z</time></trkpt><trkpt lat="46.0306108" lon="13.5272891"><ele>143.0</ele><time>2026-05-03T10:21:47.101Z</time></trkpt><trkpt lat="46.0306858" lon="13.5273934"><ele>143.0</ele><time>2026-05-03T10:21:48.107Z</time></trkpt><trkpt lat="46.0307535" lon="13.5275015"><ele>143.0</ele><time>2026-05-03T10:21:49.114Z</time></trkpt><trkpt lat="46.0308026" lon="13.5276438"><ele>146.60000000000002</ele><time>2026-05-03T10:21:50.113Z</time></trkpt><trkpt lat="46.0308389" lon="13.5278027"><ele>150.20000000000002</ele><time>2026-05-03T10:21:51.099Z</time></trkpt><trkpt lat="46.030894" lon="13.5279216"><ele>153.8</ele><time>2026-05-03T10:21:52.112Z</time></trkpt><trkpt lat="46.0309654" lon="13.527991"><ele>157.4</ele><time>2026-05-03T10:21:53.095Z</time></trkpt><trkpt lat="46.0310515" lon="13.5280181"><ele>161.0</ele><time>2026-05-03T10:21:54.116Z</time></trkpt><trkpt lat="46.0311656" lon="13.5279958"><ele>161.0</ele><time>2026-05-03T10:21:55.095Z</time></trkpt><trkpt lat="46.0312905" lon="13.527976"><ele>161.0</ele><time>2026-05-03T10:21:56.097Z</time></trkpt><trkpt lat="46.0314125" lon="13.5279642"><ele>161.0</ele><time>2026-05-03T10:21:57.096Z</time></trkpt><trkpt lat="46.0315394" lon="13.5279581"><ele>161.0</ele><time>2026-05-03T10:21:58.097Z</time></trkpt><trkpt lat="46.0316671" lon="13.5279792"><ele>163.75</ele><time>2026-05-03T10:21:59.104Z</time></trkpt><trkpt lat="46.0318" lon="13.5280202"><ele>166.5</ele><time>2026-05-03T10:22:00.117Z</time></trkpt><trkpt lat="46.0319319" lon="13.5280816"><ele>169.25</ele><time>2026-05-03T10:22:01.099Z</time></trkpt><trkpt lat="46.0320567" lon="13.5281547"><ele>172.0</ele><time>2026-05-03T10:22:02.092Z</time></trkpt><trkpt lat="46.0321735" lon="13.5282214"><ele>172.0</ele><time>2026-05-03T10:22:03.091Z</time></trkpt><trkpt lat="46.0322825" lon="13.5282805"><ele>172.0</ele><time>2026-05-03T10:22:04.11Z</time></trkpt><trkpt lat="46.0323766" lon="13.528316"><ele>172.0</ele><time>2026-05-03T10:22:05.094Z</time></trkpt><trkpt lat="46.0324576" lon="13.5283393"><ele>172.0</ele><time>2026-05-03T10:22:06.102Z</time></trkpt><trkpt lat="46.0325383" lon="13.5283707"><ele>172.0</ele><time>2026-05-03T10:22:07.097Z</time></trkpt><trkpt lat="46.032583" lon="13.5284359"><ele>172.0</ele><time>2026-05-03T10:22:08.091Z</time></trkpt><trkpt lat="46.0325671" lon="13.5285278"><ele>172.0</ele><time>2026-05-03T10:22:09.099Z</time></trkpt><trkpt lat="46.0325045" lon="13.5286081"><ele>172.0</ele><time>2026-05-03T10:22:10.093Z</time></trkpt><trkpt lat="46.0324223" lon="13.5286823"><ele>172.0</ele><time>2026-05-03T10:22:11.097Z</time></trkpt><trkpt lat="46.032319" lon="13.528739"><ele>172.0</ele><time>2026-05-03T10:22:12.105Z</time></trkpt><trkpt lat="46.0321945" lon="13.5287812"><ele>172.0</ele><time>2026-05-03T10:22:13.099Z</time></trkpt><trkpt lat="46.0320562" lon="13.5288207"><ele>170.75</ele><time>2026-05-03T10:22:14.104Z</time></trkpt><trkpt lat="46.0319138" lon="13.5288578"><ele>169.5</ele><time>2026-05-03T10:22:15.102Z</time></trkpt><trkpt lat="46.0317732" lon="13.5288916"><ele>168.25</ele><time>2026-05-03T10:22:16.101Z</time></trkpt><trkpt lat="46.0316326" lon="13.5289313"><ele>167.0</ele><time>2026-05-03T10:22:17.096Z</time></trkpt><trkpt lat="46.0315033" lon="13.5289731"><ele>167.0</ele><time>2026-05-03T10:22:18.095Z</time></trkpt><trkpt lat="46.0313869" lon="13.529012"><ele>167.0</ele><time>2026-05-03T10:22:19.109Z</time></trkpt><trkpt lat="46.0312867" lon="13.5290474"><ele>167.0</ele><time>2026-05-03T10:22:20.095Z</time></trkpt><trkpt lat="46.0312101" lon="13.5290942"><ele>167.0</ele><time>2026-05-03T10:22:21.101Z</time></trkpt><trkpt lat="46.0311587" lon="13.5291739"><ele>167.0</ele><time>2026-05-03T10:22:22.108Z</time></trkpt><trkpt lat="46.0311418" lon="13.5292789"><ele>167.0</ele><time>2026-05-03T10:22:23.105Z</time></trkpt><trkpt lat="46.0311599" lon="13.5293867"><ele>167.0</ele><time>2026-05-03T10:22:24.1Z</time></trkpt><trkpt lat="46.0312113" lon="13.5294667"><ele>167.0</ele><time>2026-05-03T10:22:25.107Z</time></trkpt><trkpt lat="46.0312899" lon="13.5295116"><ele>167.0</ele><time>2026-05-03T10:22:26.099Z</time></trkpt><trkpt lat="46.031383" lon="13.5295208"><ele>167.0</ele><time>2026-05-03T10:22:27.115Z</time></trkpt><trkpt lat="46.0314934" lon="13.5295085"><ele>167.0</ele><time>2026-05-03T10:22:28.097Z</time></trkpt><trkpt lat="46.0316089" lon="13.5294928"><ele>170.75</ele><time>2026-05-03T10:22:29.104Z</time></trkpt><trkpt lat="46.0317299" lon="13.5294975"><ele>174.5</ele><time>2026-05-03T10:22:30.091Z</time></trkpt><trkpt lat="46.0318531" lon="13.5295151"><ele>178.25</ele><time>2026-05-03T10:22:31.11Z</time></trkpt><trkpt lat="46.0319739" lon="13.5295357"><ele>182.0</ele><time>2026-05-03T10:22:32.101Z</time></trkpt><trkpt lat="46.0320944" lon="13.5295672"><ele>182.0</ele><time>2026-05-03T10:22:33.116Z</time></trkpt><trkpt lat="46.0322114" lon="13.5296113"><ele>182.0</ele><time>2026-05-03T10:22:34.095Z</time></trkpt><trkpt lat="46.0323253" lon="13.5296625"><ele>182.0</ele><time>2026-05-03T10:22:35.104Z</time></trkpt><trkpt lat="46.0324439" lon="13.5297161"><ele>182.0</ele><time>2026-05-03T10:22:36.092Z</time></trkpt><trkpt lat="46.032562" lon="13.5297643"><ele>184.8</ele><time>2026-05-03T10:22:37.087Z</time></trkpt><trkpt lat="46.0326729" lon="13.5298115"><ele>187.6</ele><time>2026-05-03T10:22:38.106Z</time></trkpt><trkpt lat="46.032771" lon="13.5298855"><ele>190.4</ele><time>2026-05-03T10:22:39.1Z</time></trkpt><trkpt lat="46.0328562" lon="13.5299813"><ele>193.20000000000002</ele><time>2026-05-03T10:22:40.101Z</time></trkpt><trkpt lat="46.0329114" lon="13.5301067"><ele>196.0</ele><time>2026-05-03T10:22:41.112Z</time></trkpt><trkpt lat="46.0329394" lon="13.5302643"><ele>195.0</ele><time>2026-05-03T10:22:42.102Z</time></trkpt><trkpt lat="46.032964" lon="13.5304299"><ele>194.0</ele><time>2026-05-03T10:22:43.098Z</time></trkpt><trkpt lat="46.0329991" lon="13.5305671"><ele>193.0</ele><time>2026-05-03T10:22:44.102Z</time></trkpt><trkpt lat="46.0330542" lon="13.5306842"><ele>192.0</ele><time>2026-05-03T10:22:45.1Z</time></trkpt><trkpt lat="46.0331331" lon="13.5307853"><ele>191.0</ele><time>2026-05-03T10:22:46.095Z</time></trkpt><trkpt lat="46.0332304" lon="13.530888"><ele>194.75</ele><time>2026-05-03T10:22:47.091Z</time></trkpt><trkpt lat="46.033338" lon="13.5309839"><ele>198.5</ele><time>2026-05-03T10:22:48.097Z</time></trkpt><trkpt lat="46.0334501" lon="13.5310982"><ele>202.25</ele><time>2026-05-03T10:22:49.085Z</time></trkpt><trkpt lat="46.0335651" lon="13.5312192"><ele>206.0</ele><time>2026-05-03T10:22:50.089Z</time></trkpt><trkpt lat="46.0336721" lon="13.5313274"><ele>206.0</ele><time>2026-05-03T10:22:51.085Z</time></trkpt><trkpt lat="46.0337603" lon="13.5314363"><ele>206.0</ele><time>2026-05-03T10:22:52.095Z</time></trkpt><trkpt lat="46.0338135" lon="13.5315816"><ele>206.0</ele><time>2026-05-03T10:22:53.083Z</time></trkpt><trkpt lat="46.0338501" lon="13.5317574"><ele>206.0</ele><time>2026-05-03T10:22:54.089Z</time></trkpt><trkpt lat="46.0338887" lon="13.5319356"><ele>210.20000000000002</ele><time>2026-05-03T10:22:55.091Z</time></trkpt><trkpt lat="46.0339371" lon="13.5320986"><ele>214.4</ele><time>2026-05-03T10:22:56.086Z</time></trkpt><trkpt lat="46.0339924" lon="13.532238"><ele>218.6</ele><time>2026-05-03T10:22:57.08Z</time></trkpt><trkpt lat="46.0340245" lon="13.5323553"><ele>222.8</ele><time>2026-05-03T10:22:58.087Z</time></trkpt><trkpt lat="46.0340288" lon="13.5324464"><ele>227.0</ele><time>2026-05-03T10:22:59.09Z</time></trkpt><trkpt lat="46.0339473" lon="13.5325248"><ele>227.0</ele><time>2026-05-03T10:23:01.075Z</time></trkpt><trkpt lat="46.0338816" lon="13.532518"><ele>227.0</ele><time>2026-05-03T10:23:02.108Z</time></trkpt><trkpt lat="46.0338071" lon="13.5324476"><ele>227.0</ele><time>2026-05-03T10:23:03.088Z</time></trkpt><trkpt lat="46.0337139" lon="13.5323585"><ele>227.0</ele><time>2026-05-03T10:23:04.07Z</time></trkpt><trkpt lat="46.0336193" lon="13.532268"><ele>227.0</ele><time>2026-05-03T10:23:05.076Z</time></trkpt><trkpt lat="46.0335151" lon="13.5321862"><ele>227.0</ele><time>2026-05-03T10:23:06.068Z</time></trkpt><trkpt lat="46.0333917" lon="13.5321082"><ele>227.0</ele><time>2026-05-03T10:23:07.071Z</time></trkpt><trkpt lat="46.0332649" lon="13.5320363"><ele>227.0</ele><time>2026-05-03T10:23:08.095Z</time></trkpt><trkpt lat="46.0331344" lon="13.5319653"><ele>227.0</ele><time>2026-05-03T10:23:09.069Z</time></trkpt><trkpt lat="46.0330151" lon="13.5318908"><ele>223.6</ele><time>2026-05-03T10:23:10.077Z</time></trkpt><trkpt lat="46.0329042" lon="13.5318207"><ele>220.2</ele><time>2026-05-03T10:23:11.092Z</time></trkpt><trkpt lat="46.0328039" lon="13.5317608"><ele>216.8</ele><time>2026-05-03T10:23:12.121Z</time></trkpt><trkpt lat="46.0327241" lon="13.531714"><ele>213.4</ele><time>2026-05-03T10:23:13.072Z</time></trkpt><trkpt lat="46.0326159" lon="13.5316885"><ele>210.0</ele><time>2026-05-03T10:23:15.086Z</time></trkpt><trkpt lat="46.0325617" lon="13.5317742"><ele>210.0</ele><time>2026-05-03T10:23:17.076Z</time></trkpt><trkpt lat="46.0326568" lon="13.5318678"><ele>210.0</ele><time>2026-05-03T10:23:19.11Z</time></trkpt><trkpt lat="46.0327241" lon="13.5319193"><ele>210.0</ele><time>2026-05-03T10:23:20.105Z</time></trkpt><trkpt lat="46.0327986" lon="13.5319855"><ele>210.0</ele><time>2026-05-03T10:23:21.1Z</time></trkpt><trkpt lat="46.0328741" lon="13.5320684"><ele>210.0</ele><time>2026-05-03T10:23:22.08Z</time></trkpt><trkpt lat="46.0329519" lon="13.5321828"><ele>214.25</ele><time>2026-05-03T10:23:23.088Z</time></trkpt><trkpt lat="46.0330365" lon="13.5323043"><ele>218.5</ele><time>2026-05-03T10:23:24.088Z</time></trkpt><trkpt lat="46.0331283" lon="13.5324329"><ele>222.75</ele><time>2026-05-03T10:23:25.089Z</time></trkpt><trkpt lat="46.0332246" lon="13.5325673"><ele>227.0</ele><time>2026-05-03T10:23:26.098Z</time></trkpt><trkpt lat="46.0333215" lon="13.5326935"><ele>227.0</ele><time>2026-05-03T10:23:27.095Z</time></trkpt><trkpt lat="46.0334232" lon="13.5328489"><ele>227.0</ele><time>2026-05-03T10:23:28.118Z</time></trkpt><trkpt lat="46.0335164" lon="13.5330088"><ele>227.0</ele><time>2026-05-03T10:23:29.1Z</time></trkpt><trkpt lat="46.0336008" lon="13.5331837"><ele>227.0</ele><time>2026-05-03T10:23:30.113Z</time></trkpt><trkpt lat="46.0336831" lon="13.5333604"><ele>232.5</ele><time>2026-05-03T10:23:31.099Z</time></trkpt><trkpt lat="46.0337675" lon="13.5335319"><ele>238.0</ele><time>2026-05-03T10:23:32.101Z</time></trkpt><trkpt lat="46.0338474" lon="13.5337094"><ele>243.5</ele><time>2026-05-03T10:23:33.099Z</time></trkpt><trkpt lat="46.0339305" lon="13.5338875"><ele>249.0</ele><time>2026-05-03T10:23:34.088Z</time></trkpt><trkpt lat="46.0340057" lon="13.5340662"><ele>250.0</ele><time>2026-05-03T10:23:35.098Z</time></trkpt><trkpt lat="46.0340839" lon="13.5342525"><ele>251.0</ele><time>2026-05-03T10:23:36.093Z</time></trkpt><trkpt lat="46.0341747" lon="13.5344394"><ele>252.0</ele><time>2026-05-03T10:23:37.1Z</time></trkpt><trkpt lat="46.0342675" lon="13.5346048"><ele>258.0</ele><time>2026-05-03T10:23:38.096Z</time></trkpt><trkpt lat="46.0343717" lon="13.5347567"><ele>264.0</ele><time>2026-05-03T10:23:39.092Z</time></trkpt><trkpt lat="46.0344868" lon="13.5348882"><ele>270.0</ele><time>2026-05-03T10:23:40.087Z</time></trkpt><trkpt lat="46.034604" lon="13.535016"><ele>276.0</ele><time>2026-05-03T10:23:41.093Z</time></trkpt><trkpt lat="46.034718" lon="13.5351509"><ele>276.0</ele><time>2026-05-03T10:23:42.095Z</time></trkpt><trkpt lat="46.0348218" lon="13.5352885"><ele>276.0</ele><time>2026-05-03T10:23:43.1Z</time></trkpt><trkpt lat="46.0349232" lon="13.5354022"><ele>276.0</ele><time>2026-05-03T10:23:44.092Z</time></trkpt><trkpt lat="46.0350181" lon="13.535491"><ele>276.0</ele><time>2026-05-03T10:23:45.097Z</time></trkpt><trkpt lat="46.0351006" lon="13.5355713"><ele>277.5</ele><time>2026-05-03T10:23:46.094Z</time></trkpt><trkpt lat="46.0351704" lon="13.5356715"><ele>279.0</ele><time>2026-05-03T10:23:47.097Z</time></trkpt><trkpt lat="46.0352298" lon="13.5358105"><ele>280.5</ele><time>2026-05-03T10:23:48.097Z</time></trkpt><trkpt lat="46.0352894" lon="13.5359696"><ele>282.0</ele><time>2026-05-03T10:23:49.108Z</time></trkpt><trkpt lat="46.0353488" lon="13.5361289"><ele>288.5</ele><time>2026-05-03T10:23:50.097Z</time></trkpt><trkpt lat="46.0354106" lon="13.5362785"><ele>295.0</ele><time>2026-05-03T10:23:51.101Z</time></trkpt><trkpt lat="46.035482" lon="13.5364269"><ele>301.5</ele><time>2026-05-03T10:23:52.1Z</time></trkpt><trkpt lat="46.0355491" lon="13.5365536"><ele>308.0</ele><time>2026-05-03T10:23:53.094Z</time></trkpt><trkpt lat="46.0355933" lon="13.536685"><ele>308.0</ele><time>2026-05-03T10:23:54.103Z</time></trkpt><trkpt lat="46.035621" lon="13.5368345"><ele>308.0</ele><time>2026-05-03T10:23:55.101Z</time></trkpt><trkpt lat="46.0356342" lon="13.5369989"><ele>308.0</ele><time>2026-05-03T10:23:56.096Z</time></trkpt><trkpt lat="46.0356426" lon="13.5371834"><ele>308.0</ele><time>2026-05-03T10:23:57.09Z</time></trkpt><trkpt lat="46.0356646" lon="13.5373759"><ele>309.4</ele><time>2026-05-03T10:23:58.101Z</time></trkpt><trkpt lat="46.0356943" lon="13.5375612"><ele>310.8</ele><time>2026-05-03T10:23:59.095Z</time></trkpt><trkpt lat="46.0357084" lon="13.5377208"><ele>312.2</ele><time>2026-05-03T10:24:00.106Z</time></trkpt><trkpt lat="46.0357014" lon="13.5378603"><ele>313.6</ele><time>2026-05-03T10:24:01.098Z</time></trkpt><trkpt lat="46.0356749" lon="13.5379727"><ele>315.0</ele><time>2026-05-03T10:24:02.103Z</time></trkpt><trkpt lat="46.0356442" lon="13.5380735"><ele>315.0</ele><time>2026-05-03T10:24:03.095Z</time></trkpt><trkpt lat="46.0356181" lon="13.538179"><ele>315.0</ele><time>2026-05-03T10:24:04.098Z</time></trkpt><trkpt lat="46.0356073" lon="13.5383101"><ele>315.0</ele><time>2026-05-03T10:24:05.091Z</time></trkpt><trkpt lat="46.0355968" lon="13.5384567"><ele>315.0</ele><time>2026-05-03T10:24:06.093Z</time></trkpt><trkpt lat="46.0355816" lon="13.5386191"><ele>315.0</ele><time>2026-05-03T10:24:07.093Z</time></trkpt><trkpt lat="46.0355619" lon="13.5387868"><ele>312.5</ele><time>2026-05-03T10:24:08.094Z</time></trkpt><trkpt lat="46.0355279" lon="13.5389658"><ele>310.0</ele><time>2026-05-03T10:24:09.095Z</time></trkpt><trkpt lat="46.0354987" lon="13.5391568"><ele>307.5</ele><time>2026-05-03T10:24:10.093Z</time></trkpt><trkpt lat="46.0354597" lon="13.5393519"><ele>305.0</ele><time>2026-05-03T10:24:11.097Z</time></trkpt><trkpt lat="46.0354289" lon="13.5395612"><ele>304.75</ele><time>2026-05-03T10:24:12.103Z</time></trkpt><trkpt lat="46.0353945" lon="13.5397699"><ele>304.5</ele><time>2026-05-03T10:24:13.1Z</time></trkpt><trkpt lat="46.0353643" lon="13.5399762"><ele>304.25</ele><time>2026-05-03T10:24:14.097Z</time></trkpt><trkpt lat="46.0353351" lon="13.5401763"><ele>304.0</ele><time>2026-05-03T10:24:15.101Z</time></trkpt><trkpt lat="46.0352963" lon="13.5403554"><ele>304.25</ele><time>2026-05-03T10:24:16.104Z</time></trkpt><trkpt lat="46.0352539" lon="13.540534"><ele>304.5</ele><time>2026-05-03T10:24:17.112Z</time></trkpt><trkpt lat="46.0352214" lon="13.5407114"><ele>304.75</ele><time>2026-05-03T10:24:18.117Z</time></trkpt><trkpt lat="46.0352108" lon="13.5408906"><ele>305.0</ele><time>2026-05-03T10:24:19.103Z</time></trkpt><trkpt lat="46.0352145" lon="13.541077"><ele>305.5</ele><time>2026-05-03T10:24:20.11Z</time></trkpt><trkpt lat="46.0352298" lon="13.5412628"><ele>306.0</ele><time>2026-05-03T10:24:21.112Z</time></trkpt><trkpt lat="46.0352422" lon="13.5414299"><ele>306.5</ele><time>2026-05-03T10:24:22.11Z</time></trkpt><trkpt lat="46.0352745" lon="13.5416039"><ele>307.0</ele><time>2026-05-03T10:24:23.11Z</time></trkpt><trkpt lat="46.0353153" lon="13.5417769"><ele>307.0</ele><time>2026-05-03T10:24:24.111Z</time></trkpt><trkpt lat="46.0353607" lon="13.5419461"><ele>307.0</ele><time>2026-05-03T10:24:25.112Z</time></trkpt><trkpt lat="46.0354103" lon="13.5421124"><ele>307.0</ele><time>2026-05-03T10:24:26.111Z</time></trkpt><trkpt lat="46.0354704" lon="13.5422722"><ele>307.0</ele><time>2026-05-03T10:24:27.106Z</time></trkpt><trkpt lat="46.0355318" lon="13.5424327"><ele>307.25</ele><time>2026-05-03T10:24:28.121Z</time></trkpt><trkpt lat="46.0355903" lon="13.5426015"><ele>307.5</ele><time>2026-05-03T10:24:29.116Z</time></trkpt><trkpt lat="46.0356317" lon="13.5427804"><ele>307.75</ele><time>2026-05-03T10:24:30.118Z</time></trkpt><trkpt lat="46.035669" lon="13.5429637"><ele>308.0</ele><time>2026-05-03T10:24:31.128Z</time></trkpt><trkpt lat="46.0357099" lon="13.5431356"><ele>306.0</ele><time>2026-05-03T10:24:32.108Z</time></trkpt><trkpt lat="46.0357721" lon="13.5432812"><ele>304.0</ele><time>2026-05-03T10:24:33.106Z</time></trkpt><trkpt lat="46.0358597" lon="13.5433846"><ele>302.0</ele><time>2026-05-03T10:24:34.098Z</time></trkpt><trkpt lat="46.0359647" lon="13.5434583"><ele>300.0</ele><time>2026-05-03T10:24:35.111Z</time></trkpt><trkpt lat="46.0360716" lon="13.543504"><ele>306.25</ele><time>2026-05-03T10:24:36.084Z</time></trkpt><trkpt lat="46.036184" lon="13.5435289"><ele>312.5</ele><time>2026-05-03T10:24:37.088Z</time></trkpt><trkpt lat="46.0363001" lon="13.5435306"><ele>318.75</ele><time>2026-05-03T10:24:38.096Z</time></trkpt><trkpt lat="46.0364177" lon="13.5435034"><ele>325.0</ele><time>2026-05-03T10:24:39.092Z</time></trkpt><trkpt lat="46.0365314" lon="13.5434575"><ele>328.0</ele><time>2026-05-03T10:24:40.107Z</time></trkpt><trkpt lat="46.0366425" lon="13.5434119"><ele>331.0</ele><time>2026-05-03T10:24:41.11Z</time></trkpt><trkpt lat="46.0367503" lon="13.5433532"><ele>334.0</ele><time>2026-05-03T10:24:42.092Z</time></trkpt><trkpt lat="46.0368372" lon="13.5432771"><ele>337.0</ele><time>2026-05-03T10:24:43.103Z</time></trkpt><trkpt lat="46.0368928" lon="13.5431942"><ele>340.0</ele><time>2026-05-03T10:24:44.091Z</time></trkpt><trkpt lat="46.0369143" lon="13.5430982"><ele>340.0</ele><time>2026-05-03T10:24:45.099Z</time></trkpt><trkpt lat="46.0368942" lon="13.5430046"><ele>340.0</ele><time>2026-05-03T10:24:46.094Z</time></trkpt><trkpt lat="46.0368536" lon="13.5429214"><ele>340.0</ele><time>2026-05-03T10:24:47.1Z</time></trkpt><trkpt lat="46.0368129" lon="13.5428411"><ele>340.0</ele><time>2026-05-03T10:24:48.106Z</time></trkpt><trkpt lat="46.0368213" lon="13.5427498"><ele>340.0</ele><time>2026-05-03T10:24:49.107Z</time></trkpt><trkpt lat="46.0369144" lon="13.542757"><ele>340.0</ele><time>2026-05-03T10:24:51.106Z</time></trkpt><trkpt lat="46.036957" lon="13.5428433"><ele>340.0</ele><time>2026-05-03T10:24:52.101Z</time></trkpt><trkpt lat="46.0369928" lon="13.5429586"><ele>340.0</ele><time>2026-05-03T10:24:53.11Z</time></trkpt><trkpt lat="46.037035" lon="13.5430668"><ele>340.0</ele><time>2026-05-03T10:24:54.102Z</time></trkpt><trkpt lat="46.0371324" lon="13.5431465"><ele>340.0</ele><time>2026-05-03T10:24:56.11Z</time></trkpt><trkpt lat="46.0371829" lon="13.543026"><ele>340.0</ele><time>2026-05-03T10:24:58.095Z</time></trkpt><trkpt lat="46.0371775" lon="13.5429253"><ele>340.0</ele><time>2026-05-03T10:24:59.098Z</time></trkpt><trkpt lat="46.0371996" lon="13.5428327"><ele>340.0</ele><time>2026-05-03T10:25:00.096Z</time></trkpt><trkpt lat="46.0373324" lon="13.5428004"><ele>340.0</ele><time>2026-05-03T10:25:02.094Z</time></trkpt><trkpt lat="46.0373999" lon="13.5428798"><ele>340.0</ele><time>2026-05-03T10:25:03.112Z</time></trkpt><trkpt lat="46.0374304" lon="13.5430064"><ele>340.0</ele><time>2026-05-03T10:25:04.1Z</time></trkpt><trkpt lat="46.0374575" lon="13.5431458"><ele>340.0</ele><time>2026-05-03T10:25:05.112Z</time></trkpt><trkpt lat="46.0374915" lon="13.5432885"><ele>340.0</ele><time>2026-05-03T10:25:06.102Z</time></trkpt><trkpt lat="46.0375279" lon="13.5434431"><ele>344.25</ele><time>2026-05-03T10:25:07.11Z</time></trkpt><trkpt lat="46.0375718" lon="13.5435925"><ele>348.5</ele><time>2026-05-03T10:25:08.107Z</time></trkpt><trkpt lat="46.0376337" lon="13.5437175"><ele>352.75</ele><time>2026-05-03T10:25:09.111Z</time></trkpt><trkpt lat="46.0377127" lon="13.5438372"><ele>357.0</ele><time>2026-05-03T10:25:10.115Z</time></trkpt><trkpt lat="46.0377898" lon="13.543962"><ele>358.25</ele><time>2026-05-03T10:25:11.115Z</time></trkpt><trkpt lat="46.0378458" lon="13.5441182"><ele>359.5</ele><time>2026-05-03T10:25:12.099Z</time></trkpt><trkpt lat="46.037864" lon="13.5442984"><ele>360.75</ele><time>2026-05-03T10:25:13.108Z</time></trkpt><trkpt lat="46.0378604" lon="13.5444872"><ele>362.0</ele><time>2026-05-03T10:25:14.085Z</time></trkpt><trkpt lat="46.037849" lon="13.5446779"><ele>363.0</ele><time>2026-05-03T10:25:15.096Z</time></trkpt><trkpt lat="46.0378336" lon="13.5448764"><ele>364.0</ele><time>2026-05-03T10:25:16.097Z</time></trkpt><trkpt lat="46.0378052" lon="13.545073"><ele>365.0</ele><time>2026-05-03T10:25:17.108Z</time></trkpt><trkpt lat="46.0377511" lon="13.5452574"><ele>366.0</ele><time>2026-05-03T10:25:18.106Z</time></trkpt><trkpt lat="46.0376763" lon="13.5454268"><ele>367.0</ele><time>2026-05-03T10:25:19.107Z</time></trkpt><trkpt lat="46.037598" lon="13.5455978"><ele>368.0</ele><time>2026-05-03T10:25:20.112Z</time></trkpt><trkpt lat="46.0375254" lon="13.5457914"><ele>369.0</ele><time>2026-05-03T10:25:21.115Z</time></trkpt><trkpt lat="46.0374663" lon="13.5459872"><ele>370.0</ele><time>2026-05-03T10:25:22.11Z</time></trkpt><trkpt lat="46.0374171" lon="13.5461867"><ele>371.25</ele><time>2026-05-03T10:25:23.096Z</time></trkpt><trkpt lat="46.0373706" lon="13.5463907"><ele>372.5</ele><time>2026-05-03T10:25:24.103Z</time></trkpt><trkpt lat="46.0373282" lon="13.5465983"><ele>373.75</ele><time>2026-05-03T10:25:25.098Z</time></trkpt><trkpt lat="46.0372973" lon="13.5468067"><ele>375.0</ele><time>2026-05-03T10:25:26.106Z</time></trkpt><trkpt lat="46.0372793" lon="13.5470031"><ele>374.2</ele><time>2026-05-03T10:25:27.112Z</time></trkpt><trkpt lat="46.0372761" lon="13.5471609"><ele>373.4</ele><time>2026-05-03T10:25:28.111Z</time></trkpt><trkpt lat="46.0372932" lon="13.5472987"><ele>372.6</ele><time>2026-05-03T10:25:29.113Z</time></trkpt><trkpt lat="46.037346" lon="13.5474255"><ele>371.8</ele><time>2026-05-03T10:25:30.1Z</time></trkpt><trkpt lat="46.0374223" lon="13.5475439"><ele>371.0</ele><time>2026-05-03T10:25:31.109Z</time></trkpt><trkpt lat="46.0374977" lon="13.5476636"><ele>373.5</ele><time>2026-05-03T10:25:32.091Z</time></trkpt><trkpt lat="46.037568" lon="13.547812"><ele>376.0</ele><time>2026-05-03T10:25:33.111Z</time></trkpt><trkpt lat="46.0376262" lon="13.5479748"><ele>378.5</ele><time>2026-05-03T10:25:34.112Z</time></trkpt><trkpt lat="46.0376796" lon="13.5481412"><ele>381.0</ele><time>2026-05-03T10:25:35.111Z</time></trkpt><trkpt lat="46.0377282" lon="13.5483153"><ele>383.5</ele><time>2026-05-03T10:25:36.11Z</time></trkpt><trkpt lat="46.0377685" lon="13.5485032"><ele>386.0</ele><time>2026-05-03T10:25:37.105Z</time></trkpt><trkpt lat="46.0377975" lon="13.5486895"><ele>388.5</ele><time>2026-05-03T10:25:38.107Z</time></trkpt><trkpt lat="46.0378247" lon="13.5488675"><ele>391.0</ele><time>2026-05-03T10:25:39.107Z</time></trkpt><trkpt lat="46.0378618" lon="13.5490136"><ele>391.5</ele><time>2026-05-03T10:25:40.105Z</time></trkpt><trkpt lat="46.0379291" lon="13.5491147"><ele>392.0</ele><time>2026-05-03T10:25:41.096Z</time></trkpt><trkpt lat="46.0380242" lon="13.5492042"><ele>392.5</ele><time>2026-05-03T10:25:42.091Z</time></trkpt><trkpt lat="46.0381404" lon="13.5492788"><ele>393.0</ele><time>2026-05-03T10:25:43.097Z</time></trkpt><trkpt lat="46.03826" lon="13.5493503"><ele>393.59999999999997</ele><time>2026-05-03T10:25:44.101Z</time></trkpt><trkpt lat="46.0383699" lon="13.5494165"><ele>394.2</ele><time>2026-05-03T10:25:45.112Z</time></trkpt><trkpt lat="46.0384754" lon="13.5494694"><ele>394.8</ele><time>2026-05-03T10:25:46.106Z</time></trkpt><trkpt lat="46.0385789" lon="13.5495067"><ele>395.4</ele><time>2026-05-03T10:25:47.109Z</time></trkpt><trkpt lat="46.0386771" lon="13.5495387"><ele>396.0</ele><time>2026-05-03T10:25:48.106Z</time></trkpt><trkpt lat="46.0387618" lon="13.5495857"><ele>398.75</ele><time>2026-05-03T10:25:49.113Z</time></trkpt><trkpt lat="46.0388319" lon="13.5496582"><ele>401.5</ele><time>2026-05-03T10:25:50.113Z</time></trkpt><trkpt lat="46.0388994" lon="13.5497729"><ele>404.25</ele><time>2026-05-03T10:25:51.099Z</time></trkpt><trkpt lat="46.0389673" lon="13.5499302"><ele>407.0</ele><time>2026-05-03T10:25:52.104Z</time></trkpt><trkpt lat="46.0390345" lon="13.5500922"><ele>407.0</ele><time>2026-05-03T10:25:53.12Z</time></trkpt><trkpt lat="46.0390991" lon="13.5502522"><ele>407.0</ele><time>2026-05-03T10:25:54.105Z</time></trkpt><trkpt lat="46.0391671" lon="13.550401"><ele>407.0</ele><time>2026-05-03T10:25:55.124Z</time></trkpt><trkpt lat="46.0392308" lon="13.5505415"><ele>407.0</ele><time>2026-05-03T10:25:56.113Z</time></trkpt><trkpt lat="46.0392885" lon="13.5506703"><ele>408.75</ele><time>2026-05-03T10:25:57.121Z</time></trkpt><trkpt lat="46.0393326" lon="13.5508125"><ele>410.5</ele><time>2026-05-03T10:25:58.126Z</time></trkpt><trkpt lat="46.0393676" lon="13.5509734"><ele>412.25</ele><time>2026-05-03T10:25:59.109Z</time></trkpt><trkpt lat="46.039396" lon="13.5511401"><ele>414.0</ele><time>2026-05-03T10:26:00.111Z</time></trkpt><trkpt lat="46.0394174" lon="13.5513139"><ele>414.2</ele><time>2026-05-03T10:26:01.112Z</time></trkpt><trkpt lat="46.0394309" lon="13.5514789"><ele>414.4</ele><time>2026-05-03T10:26:02.114Z</time></trkpt><trkpt lat="46.0394408" lon="13.5516382"><ele>414.6</ele><time>2026-05-03T10:26:03.122Z</time></trkpt><trkpt lat="46.0394334" lon="13.5517849"><ele>414.8</ele><time>2026-05-03T10:26:04.116Z</time></trkpt><trkpt lat="46.0394098" lon="13.5519246"><ele>415.0</ele><time>2026-05-03T10:26:05.115Z</time></trkpt><trkpt lat="46.0393832" lon="13.5520546"><ele>415.2</ele><time>2026-05-03T10:26:06.113Z</time></trkpt><trkpt lat="46.0393733" lon="13.5521753"><ele>415.4</ele><time>2026-05-03T10:26:07.125Z</time></trkpt><trkpt lat="46.0394049" lon="13.5523034"><ele>415.6</ele><time>2026-05-03T10:26:08.115Z</time></trkpt><trkpt lat="46.0394802" lon="13.5524237"><ele>415.8</ele><time>2026-05-03T10:26:09.099Z</time></trkpt><trkpt lat="46.0395615" lon="13.5525519"><ele>416.0</ele><time>2026-05-03T10:26:10.104Z</time></trkpt><trkpt lat="46.0396375" lon="13.5527047"><ele>416.0</ele><time>2026-05-03T10:26:11.118Z</time></trkpt><trkpt lat="46.0397116" lon="13.5528655"><ele>416.0</ele><time>2026-05-03T10:26:12.119Z</time></trkpt><trkpt lat="46.0397785" lon="13.5530229"><ele>416.0</ele><time>2026-05-03T10:26:13.113Z</time></trkpt><trkpt lat="46.0398453" lon="13.5531666"><ele>416.0</ele><time>2026-05-03T10:26:14.113Z</time></trkpt><trkpt lat="46.0399232" lon="13.5532915"><ele>416.0</ele><time>2026-05-03T10:26:15.12Z</time></trkpt><trkpt lat="46.0400035" lon="13.5533977"><ele>416.0</ele><time>2026-05-03T10:26:16.122Z</time></trkpt><trkpt lat="46.0400727" lon="13.5535033"><ele>416.0</ele><time>2026-05-03T10:26:17.118Z</time></trkpt><trkpt lat="46.0401255" lon="13.5536335"><ele>416.0</ele><time>2026-05-03T10:26:18.121Z</time></trkpt><trkpt lat="46.0401769" lon="13.553788"><ele>416.0</ele><time>2026-05-03T10:26:19.12Z</time></trkpt><trkpt lat="46.0402251" lon="13.553959"><ele>416.0</ele><time>2026-05-03T10:26:20.119Z</time></trkpt><trkpt lat="46.0402723" lon="13.5541377"><ele>416.0</ele><time>2026-05-03T10:26:21.116Z</time></trkpt><trkpt lat="46.0403151" lon="13.5543139"><ele>416.0</ele><time>2026-05-03T10:26:22.118Z</time></trkpt><trkpt lat="46.0403574" lon="13.5545214"><ele>416.0</ele><time>2026-05-03T10:26:23.128Z</time></trkpt><trkpt lat="46.0403928" lon="13.5547329"><ele>412.25</ele><time>2026-05-03T10:26:24.139Z</time></trkpt><trkpt lat="46.0404246" lon="13.5549434"><ele>408.5</ele><time>2026-05-03T10:26:25.112Z</time></trkpt><trkpt lat="46.0404561" lon="13.5551348"><ele>404.75</ele><time>2026-05-03T10:26:26.13Z</time></trkpt><trkpt lat="46.0404958" lon="13.5553138"><ele>401.0</ele><time>2026-05-03T10:26:27.134Z</time></trkpt><trkpt lat="46.0405576" lon="13.5554573"><ele>399.8</ele><time>2026-05-03T10:26:28.123Z</time></trkpt><trkpt lat="46.0406415" lon="13.5555618"><ele>398.6</ele><time>2026-05-03T10:26:29.117Z</time></trkpt><trkpt lat="46.0407458" lon="13.5556284"><ele>397.4</ele><time>2026-05-03T10:26:30.125Z</time></trkpt><trkpt lat="46.0408567" lon="13.5556677"><ele>396.2</ele><time>2026-05-03T10:26:31.121Z</time></trkpt><trkpt lat="46.0409605" lon="13.5557176"><ele>395.0</ele><time>2026-05-03T10:26:32.125Z</time></trkpt><trkpt lat="46.0410657" lon="13.5558262"><ele>400.2</ele><time>2026-05-03T10:26:33.113Z</time></trkpt><trkpt lat="46.0411755" lon="13.5559508"><ele>405.4</ele><time>2026-05-03T10:26:34.116Z</time></trkpt><trkpt lat="46.0412687" lon="13.5560693"><ele>410.6</ele><time>2026-05-03T10:26:35.109Z</time></trkpt><trkpt lat="46.04134" lon="13.5561731"><ele>415.8</ele><time>2026-05-03T10:26:36.104Z</time></trkpt><trkpt lat="46.0413802" lon="13.5562738"><ele>421.0</ele><time>2026-05-03T10:26:37.106Z</time></trkpt><trkpt lat="46.0413861" lon="13.5563737"><ele>421.0</ele><time>2026-05-03T10:26:38.102Z</time></trkpt><trkpt lat="46.0412812" lon="13.5564493"><ele>421.0</ele><time>2026-05-03T10:26:40.103Z</time></trkpt><trkpt lat="46.041199" lon="13.5564275"><ele>421.0</ele><time>2026-05-03T10:26:41.101Z</time></trkpt><trkpt lat="46.0410958" lon="13.5563565"><ele>421.0</ele><time>2026-05-03T10:26:42.095Z</time></trkpt><trkpt lat="46.0409874" lon="13.5562619"><ele>421.0</ele><time>2026-05-03T10:26:43.091Z</time></trkpt><trkpt lat="46.0408998" lon="13.5561883"><ele>421.0</ele><time>2026-05-03T10:26:44.104Z</time></trkpt><trkpt lat="46.0408295" lon="13.5561627"><ele>421.0</ele><time>2026-05-03T10:26:45.112Z</time></trkpt><trkpt lat="46.0407427" lon="13.5562937"><ele>421.0</ele><time>2026-05-03T10:26:47.099Z</time></trkpt><trkpt lat="46.0407581" lon="13.5564024"><ele>421.0</ele><time>2026-05-03T10:26:48.093Z</time></trkpt><trkpt lat="46.0408134" lon="13.5565237"><ele>421.0</ele><time>2026-05-03T10:26:49.093Z</time></trkpt><trkpt lat="46.0408821" lon="13.5566527"><ele>422.5</ele><time>2026-05-03T10:26:50.096Z</time></trkpt><trkpt lat="46.0409561" lon="13.5567925"><ele>424.0</ele><time>2026-05-03T10:26:51.106Z</time></trkpt><trkpt lat="46.0410312" lon="13.556933"><ele>425.5</ele><time>2026-05-03T10:26:52.117Z</time></trkpt><trkpt lat="46.0411137" lon="13.5570682"><ele>427.0</ele><time>2026-05-03T10:26:53.121Z</time></trkpt><trkpt lat="46.0411835" lon="13.5572086"><ele>427.0</ele><time>2026-05-03T10:26:54.111Z</time></trkpt><trkpt lat="46.0412223" lon="13.5573778"><ele>427.0</ele><time>2026-05-03T10:26:55.116Z</time></trkpt><trkpt lat="46.0412472" lon="13.5575665"><ele>427.0</ele><time>2026-05-03T10:26:56.106Z</time></trkpt><trkpt lat="46.0412658" lon="13.5577429"><ele>427.0</ele><time>2026-05-03T10:26:57.118Z</time></trkpt><trkpt lat="46.0412906" lon="13.5578956"><ele>426.20000000000005</ele><time>2026-05-03T10:26:58.125Z</time></trkpt><trkpt lat="46.0413431" lon="13.5580109"><ele>425.40000000000003</ele><time>2026-05-03T10:26:59.108Z</time></trkpt><trkpt lat="46.0414016" lon="13.5581195"><ele>424.6</ele><time>2026-05-03T10:27:00.09Z</time></trkpt><trkpt lat="46.0414548" lon="13.5582346"><ele>423.79999999999995</ele><time>2026-05-03T10:27:01.114Z</time></trkpt><trkpt lat="46.041476" lon="13.558395"><ele>423.0</ele><time>2026-05-03T10:27:02.113Z</time></trkpt><trkpt lat="46.0414719" lon="13.5585817"><ele>421.5</ele><time>2026-05-03T10:27:03.096Z</time></trkpt><trkpt lat="46.0414689" lon="13.5587824"><ele>420.0</ele><time>2026-05-03T10:27:04.122Z</time></trkpt><trkpt lat="46.0414718" lon="13.5589679"><ele>418.5</ele><time>2026-05-03T10:27:05.123Z</time></trkpt><trkpt lat="46.0415005" lon="13.5591389"><ele>417.0</ele><time>2026-05-03T10:27:06.116Z</time></trkpt><trkpt lat="46.0415405" lon="13.5592834"><ele>417.0</ele><time>2026-05-03T10:27:07.11Z</time></trkpt><trkpt lat="46.0416014" lon="13.5594223"><ele>417.0</ele><time>2026-05-03T10:27:08.1Z</time></trkpt><trkpt lat="46.0416765" lon="13.5595458"><ele>417.0</ele><time>2026-05-03T10:27:09.099Z</time></trkpt><trkpt lat="46.0417479" lon="13.5596633"><ele>417.0</ele><time>2026-05-03T10:27:10.095Z</time></trkpt><trkpt lat="46.0418077" lon="13.5597958"><ele>417.0</ele><time>2026-05-03T10:27:11.101Z</time></trkpt><trkpt lat="46.0418534" lon="13.5599507"><ele>426.0</ele><time>2026-05-03T10:27:12.108Z</time></trkpt><trkpt lat="46.0418555" lon="13.560129"><ele>435.0</ele><time>2026-05-03T10:27:13.092Z</time></trkpt><trkpt lat="46.0418234" lon="13.5603133"><ele>444.0</ele><time>2026-05-03T10:27:14.107Z</time></trkpt><trkpt lat="46.0417571" lon="13.5605363"><ele>453.0</ele><time>2026-05-03T10:27:15.081Z</time></trkpt><trkpt lat="46.0417006" lon="13.5607641"><ele>456.0</ele><time>2026-05-03T10:27:16.087Z</time></trkpt><trkpt lat="46.0416485" lon="13.5609625"><ele>459.0</ele><time>2026-05-03T10:27:17.088Z</time></trkpt><trkpt lat="46.0415974" lon="13.5611512"><ele>462.0</ele><time>2026-05-03T10:27:18.104Z</time></trkpt><trkpt lat="46.0415308" lon="13.5613285"><ele>465.0</ele><time>2026-05-03T10:27:19.097Z</time></trkpt><trkpt lat="46.0414567" lon="13.5615158"><ele>460.66666666666663</ele><time>2026-05-03T10:27:20.103Z</time></trkpt><trkpt lat="46.0413874" lon="13.561709"><ele>456.3333333333333</ele><time>2026-05-03T10:27:21.099Z</time></trkpt><trkpt lat="46.0413237" lon="13.5619067"><ele>452.0</ele><time>2026-05-03T10:27:22.093Z</time></trkpt><trkpt lat="46.0412638" lon="13.5621119"><ele>452.0</ele><time>2026-05-03T10:27:23.1Z</time></trkpt><trkpt lat="46.0412005" lon="13.5623091"><ele>452.0</ele><time>2026-05-03T10:27:24.097Z</time></trkpt><trkpt lat="46.0411303" lon="13.5625046"><ele>452.0</ele><time>2026-05-03T10:27:25.099Z</time></trkpt><trkpt lat="46.0410437" lon="13.5627077"><ele>457.0</ele><time>2026-05-03T10:27:26.095Z</time></trkpt><trkpt lat="46.040964" lon="13.5629181"><ele>462.0</ele><time>2026-05-03T10:27:27.105Z</time></trkpt><trkpt lat="46.0408911" lon="13.5631368"><ele>467.0</ele><time>2026-05-03T10:27:28.093Z</time></trkpt><trkpt lat="46.04082" lon="13.5633518"><ele>462.0</ele><time>2026-05-03T10:27:29.097Z</time></trkpt><trkpt lat="46.0407484" lon="13.5635673"><ele>457.0</ele><time>2026-05-03T10:27:30.097Z</time></trkpt><trkpt lat="46.0406712" lon="13.563774"><ele>452.0</ele><time>2026-05-03T10:27:31.101Z</time></trkpt><trkpt lat="46.0405909" lon="13.5639791"><ele>452.0</ele><time>2026-05-03T10:27:32.11Z</time></trkpt><trkpt lat="46.0404995" lon="13.5641827"><ele>452.0</ele><time>2026-05-03T10:27:33.101Z</time></trkpt><trkpt lat="46.040401" lon="13.5643814"><ele>452.0</ele><time>2026-05-03T10:27:34.103Z</time></trkpt><trkpt lat="46.0402963" lon="13.5645852"><ele>459.3333333333333</ele><time>2026-05-03T10:27:35.101Z</time></trkpt><trkpt lat="46.0401891" lon="13.5647867"><ele>466.66666666666663</ele><time>2026-05-03T10:27:36.101Z</time></trkpt><trkpt lat="46.0400877" lon="13.5649864"><ele>474.0</ele><time>2026-05-03T10:27:37.102Z</time></trkpt><trkpt lat="46.0399922" lon="13.565185"><ele>475.75</ele><time>2026-05-03T10:27:38.088Z</time></trkpt><trkpt lat="46.0399066" lon="13.5653734"><ele>477.5</ele><time>2026-05-03T10:27:39.104Z</time></trkpt><trkpt lat="46.0398307" lon="13.5655598"><ele>479.25</ele><time>2026-05-03T10:27:40.099Z</time></trkpt><trkpt lat="46.0397639" lon="13.5657421"><ele>481.0</ele><time>2026-05-03T10:27:41.099Z</time></trkpt><trkpt lat="46.0396906" lon="13.5659037"><ele>481.0</ele><time>2026-05-03T10:27:42.1Z</time></trkpt><trkpt lat="46.0396088" lon="13.5660229"><ele>481.0</ele><time>2026-05-03T10:27:43.1Z</time></trkpt><trkpt lat="46.0395071" lon="13.5660896"><ele>481.0</ele><time>2026-05-03T10:27:44.111Z</time></trkpt><trkpt lat="46.0393932" lon="13.566108"><ele>481.0</ele><time>2026-05-03T10:27:45.096Z</time></trkpt><trkpt lat="46.039279" lon="13.5661122"><ele>481.0</ele><time>2026-05-03T10:27:46.089Z</time></trkpt><trkpt lat="46.0391777" lon="13.5661421"><ele>481.0</ele><time>2026-05-03T10:27:47.117Z</time></trkpt><trkpt lat="46.0390913" lon="13.5661917"><ele>481.0</ele><time>2026-05-03T10:27:48.113Z</time></trkpt><trkpt lat="46.0390011" lon="13.5662169"><ele>481.0</ele><time>2026-05-03T10:27:49.128Z</time></trkpt><trkpt lat="46.0389091" lon="13.5662206"><ele>481.0</ele><time>2026-05-03T10:27:50.12Z</time></trkpt><trkpt lat="46.0388241" lon="13.566207"><ele>481.6</ele><time>2026-05-03T10:27:51.122Z</time></trkpt><trkpt lat="46.0387372" lon="13.5661897"><ele>482.20000000000005</ele><time>2026-05-03T10:27:52.111Z</time></trkpt><trkpt lat="46.0386402" lon="13.5661646"><ele>482.79999999999995</ele><time>2026-05-03T10:27:53.125Z</time></trkpt><trkpt lat="46.038544" lon="13.5661198"><ele>483.4</ele><time>2026-05-03T10:27:54.117Z</time></trkpt><trkpt lat="46.0384552" lon="13.5660434"><ele>484.0</ele><time>2026-05-03T10:27:55.129Z</time></trkpt><trkpt lat="46.0383889" lon="13.5659208"><ele>484.0</ele><time>2026-05-03T10:27:56.106Z</time></trkpt><trkpt lat="46.0383341" lon="13.5657919"><ele>484.0</ele><time>2026-05-03T10:27:57.1Z</time></trkpt><trkpt lat="46.0382744" lon="13.5656661"><ele>484.0</ele><time>2026-05-03T10:27:58.112Z</time></trkpt><trkpt lat="46.0381994" lon="13.5655731"><ele>484.0</ele><time>2026-05-03T10:27:59.12Z</time></trkpt><trkpt lat="46.0381154" lon="13.565508"><ele>484.0</ele><time>2026-05-03T10:28:00.104Z</time></trkpt><trkpt lat="46.038039" lon="13.5654871"><ele>481.6</ele><time>2026-05-03T10:28:01.109Z</time></trkpt><trkpt lat="46.0379714" lon="13.5655129"><ele>479.2</ele><time>2026-05-03T10:28:02.105Z</time></trkpt><trkpt lat="46.0378926" lon="13.5655998"><ele>476.80000000000007</ele><time>2026-05-03T10:28:04.111Z</time></trkpt><trkpt lat="46.0378304" lon="13.5657064"><ele>474.40000000000003</ele><time>2026-05-03T10:28:06.106Z</time></trkpt><trkpt lat="46.0377399" lon="13.5658199"><ele>472.0</ele><time>2026-05-03T10:28:12.111Z</time></trkpt><trkpt lat="46.0376845" lon="13.5658998"><ele>472.0</ele><time>2026-05-03T10:28:13.116Z</time></trkpt><trkpt lat="46.0376181" lon="13.5659779"><ele>472.00000000000006</ele><time>2026-05-03T10:28:14.11Z</time></trkpt><trkpt lat="46.0375441" lon="13.566053"><ele>472.00000000000006</ele><time>2026-05-03T10:28:15.111Z</time></trkpt><trkpt lat="46.0374582" lon="13.5661286"><ele>472.0</ele><time>2026-05-03T10:28:16.107Z</time></trkpt><trkpt lat="46.0373665" lon="13.5661942"><ele>472.0</ele><time>2026-05-03T10:28:17.114Z</time></trkpt><trkpt lat="46.0372731" lon="13.5662414"><ele>471.1666666666667</ele><time>2026-05-03T10:28:18.108Z</time></trkpt><trkpt lat="46.0371795" lon="13.566271"><ele>470.33333333333337</ele><time>2026-05-03T10:28:19.123Z</time></trkpt><trkpt lat="46.037105" lon="13.5662886"><ele>469.5</ele><time>2026-05-03T10:28:20.111Z</time></trkpt><trkpt lat="46.0369846" lon="13.5662741"><ele>468.66666666666663</ele><time>2026-05-03T10:28:22.108Z</time></trkpt><trkpt lat="46.0369172" lon="13.5662362"><ele>467.8333333333333</ele><time>2026-05-03T10:28:23.105Z</time></trkpt><trkpt lat="46.0368365" lon="13.566199"><ele>467.0</ele><time>2026-05-03T10:28:24.097Z</time></trkpt><trkpt lat="46.036748" lon="13.5661793"><ele>470.5</ele><time>2026-05-03T10:28:25.116Z</time></trkpt><trkpt lat="46.0366461" lon="13.5662041"><ele>474.0</ele><time>2026-05-03T10:28:26.119Z</time></trkpt><trkpt lat="46.0365351" lon="13.5662515"><ele>477.5</ele><time>2026-05-03T10:28:27.101Z</time></trkpt><trkpt lat="46.0364165" lon="13.5663021"><ele>481.0</ele><time>2026-05-03T10:28:28.118Z</time></trkpt><trkpt lat="46.0362966" lon="13.5663469"><ele>482.5</ele><time>2026-05-03T10:28:29.121Z</time></trkpt><trkpt lat="46.0361784" lon="13.5663681"><ele>484.0</ele><time>2026-05-03T10:28:30.116Z</time></trkpt><trkpt lat="46.0360594" lon="13.5663472"><ele>485.5</ele><time>2026-05-03T10:28:31.115Z</time></trkpt><trkpt lat="46.0359439" lon="13.5662719"><ele>487.0</ele><time>2026-05-03T10:28:32.122Z</time></trkpt><trkpt lat="46.035841" lon="13.5661705"><ele>484.25</ele><time>2026-05-03T10:28:33.101Z</time></trkpt><trkpt lat="46.0357333" lon="13.5660638"><ele>481.5</ele><time>2026-05-03T10:28:34.109Z</time></trkpt><trkpt lat="46.0356167" lon="13.5659504"><ele>478.75</ele><time>2026-05-03T10:28:35.105Z</time></trkpt><trkpt lat="46.0354942" lon="13.5658597"><ele>476.0</ele><time>2026-05-03T10:28:36.113Z</time></trkpt><trkpt lat="46.0353688" lon="13.565805"><ele>476.0</ele><time>2026-05-03T10:28:37.099Z</time></trkpt><trkpt lat="46.035248" lon="13.5657624"><ele>476.0</ele><time>2026-05-03T10:28:38.102Z</time></trkpt><trkpt lat="46.0351448" lon="13.5657239"><ele>476.0</ele><time>2026-05-03T10:28:39.103Z</time></trkpt><trkpt lat="46.0350705" lon="13.5656847"><ele>476.0</ele><time>2026-05-03T10:28:40.115Z</time></trkpt><trkpt lat="46.0349957" lon="13.5656416"><ele>476.0</ele><time>2026-05-03T10:28:42.093Z</time></trkpt><trkpt lat="46.0350725" lon="13.5656898"><ele>476.0</ele><time>2026-05-03T10:28:48.094Z</time></trkpt><trkpt lat="46.0351563" lon="13.5656997"><ele>476.0</ele><time>2026-05-03T10:28:49.091Z</time></trkpt><trkpt lat="46.035253" lon="13.5657469"><ele>476.0</ele><time>2026-05-03T10:28:50.119Z</time></trkpt><trkpt lat="46.0353527" lon="13.5657959"><ele>476.0</ele><time>2026-05-03T10:28:51.109Z</time></trkpt><trkpt lat="46.0354551" lon="13.5658547"><ele>476.0</ele><time>2026-05-03T10:28:52.111Z</time></trkpt><trkpt lat="46.0355624" lon="13.5659183"><ele>476.0</ele><time>2026-05-03T10:28:53.111Z</time></trkpt><trkpt lat="46.0356636" lon="13.565998"><ele>476.0</ele><time>2026-05-03T10:28:54.1Z</time></trkpt><trkpt lat="46.0357576" lon="13.5660924"><ele>476.0</ele><time>2026-05-03T10:28:55.117Z</time></trkpt><trkpt lat="46.0358484" lon="13.5661847"><ele>476.0</ele><time>2026-05-03T10:28:56.094Z</time></trkpt><trkpt lat="46.035934" lon="13.5662824"><ele>477.8333333333333</ele><time>2026-05-03T10:28:57.101Z</time></trkpt><trkpt lat="46.036003" lon="13.5663447"><ele>479.66666666666663</ele><time>2026-05-03T10:28:58.095Z</time></trkpt><trkpt lat="46.0360705" lon="13.5663681"><ele>481.5</ele><time>2026-05-03T10:28:59.112Z</time></trkpt><trkpt lat="46.0361802" lon="13.5663923"><ele>483.33333333333337</ele><time>2026-05-03T10:29:01.118Z</time></trkpt><trkpt lat="46.036164" lon="13.5664918"><ele>485.1666666666667</ele><time>2026-05-03T10:29:12.112Z</time></trkpt><trkpt lat="46.0360981" lon="13.566576"><ele>487.0</ele><time>2026-05-03T10:29:14.094Z</time></trkpt><trkpt lat="46.0360021" lon="13.5667231"><ele>487.0</ele><time>2026-05-03T10:29:16.105Z</time></trkpt><trkpt lat="46.0359547" lon="13.5668232"><ele>487.0</ele><time>2026-05-03T10:29:17.124Z</time></trkpt><trkpt lat="46.0359083" lon="13.5669122"><ele>487.0</ele><time>2026-05-03T10:29:18.113Z</time></trkpt><trkpt lat="46.0358665" lon="13.5669925"><ele>487.0</ele><time>2026-05-03T10:29:19.112Z</time></trkpt><trkpt lat="46.0358199" lon="13.5670688"><ele>487.0</ele><time>2026-05-03T10:29:20.116Z</time></trkpt><trkpt lat="46.0357665" lon="13.5671426"><ele>487.0</ele><time>2026-05-03T10:29:21.124Z</time></trkpt><trkpt lat="46.0357109" lon="13.5672068"><ele>487.0</ele><time>2026-05-03T10:29:22.125Z</time></trkpt><trkpt lat="46.035645" lon="13.567262"><ele>486.83333333333337</ele><time>2026-05-03T10:29:23.125Z</time></trkpt><trkpt lat="46.035578" lon="13.5673016"><ele>486.6666666666667</ele><time>2026-05-03T10:29:24.116Z</time></trkpt><trkpt lat="46.0355092" lon="13.5673271"><ele>486.5</ele><time>2026-05-03T10:29:25.115Z</time></trkpt><trkpt lat="46.0354304" lon="13.567357"><ele>486.33333333333337</ele><time>2026-05-03T10:29:26.12Z</time></trkpt><trkpt lat="46.0353558" lon="13.5673941"><ele>486.1666666666667</ele><time>2026-05-03T10:29:27.121Z</time></trkpt><trkpt lat="46.0352842" lon="13.5674418"><ele>486.0</ele><time>2026-05-03T10:29:28.113Z</time></trkpt><trkpt lat="46.0352272" lon="13.5675051"><ele>486.0</ele><time>2026-05-03T10:29:29.115Z</time></trkpt><trkpt lat="46.0351779" lon="13.5675883"><ele>486.0</ele><time>2026-05-03T10:29:30.113Z</time></trkpt><trkpt lat="46.0351325" lon="13.5676828"><ele>486.0</ele><time>2026-05-03T10:29:31.118Z</time></trkpt><trkpt lat="46.0350968" lon="13.5677875"><ele>486.0</ele><time>2026-05-03T10:29:32.104Z</time></trkpt><trkpt lat="46.0350658" lon="13.5678929"><ele>486.0</ele><time>2026-05-03T10:29:33.103Z</time></trkpt><trkpt lat="46.0350251" lon="13.5679906"><ele>486.0</ele><time>2026-05-03T10:29:34.123Z</time></trkpt><trkpt lat="46.0349795" lon="13.5681017"><ele>484.0</ele><time>2026-05-03T10:29:35.115Z</time></trkpt><trkpt lat="46.0349303" lon="13.5682133"><ele>482.0</ele><time>2026-05-03T10:29:36.114Z</time></trkpt><trkpt lat="46.0348919" lon="13.5683267"><ele>480.0</ele><time>2026-05-03T10:29:37.112Z</time></trkpt><trkpt lat="46.0348656" lon="13.5684354"><ele>478.0</ele><time>2026-05-03T10:29:38.12Z</time></trkpt><trkpt lat="46.0348361" lon="13.5685425"><ele>476.0</ele><time>2026-05-03T10:29:39.113Z</time></trkpt><trkpt lat="46.0348" lon="13.5686464"><ele>474.0</ele><time>2026-05-03T10:29:40.127Z</time></trkpt><trkpt lat="46.0347515" lon="13.5687543"><ele>473.6666666666667</ele><time>2026-05-03T10:29:41.109Z</time></trkpt><trkpt lat="46.0347016" lon="13.5688699"><ele>473.33333333333337</ele><time>2026-05-03T10:29:42.118Z</time></trkpt><trkpt lat="46.0346565" lon="13.5689883"><ele>473.0</ele><time>2026-05-03T10:29:43.125Z</time></trkpt><trkpt lat="46.0346123" lon="13.5691009"><ele>472.6666666666667</ele><time>2026-05-03T10:29:44.114Z</time></trkpt><trkpt lat="46.0345675" lon="13.5691999"><ele>472.33333333333337</ele><time>2026-05-03T10:29:45.131Z</time></trkpt><trkpt lat="46.0345247" lon="13.5692859"><ele>472.0</ele><time>2026-05-03T10:29:46.116Z</time></trkpt><trkpt lat="46.0344723" lon="13.5693553"><ele>472.0</ele><time>2026-05-03T10:29:47.116Z</time></trkpt><trkpt lat="46.0344004" lon="13.5694128"><ele>472.00000000000006</ele><time>2026-05-03T10:29:48.111Z</time></trkpt><trkpt lat="46.0343138" lon="13.5694669"><ele>472.00000000000006</ele><time>2026-05-03T10:29:49.118Z</time></trkpt><trkpt lat="46.0342122" lon="13.569521"><ele>472.0</ele><time>2026-05-03T10:29:50.115Z</time></trkpt><trkpt lat="46.0341135" lon="13.5695784"><ele>472.0</ele><time>2026-05-03T10:29:51.136Z</time></trkpt><trkpt lat="46.0340168" lon="13.5696328"><ele>467.8</ele><time>2026-05-03T10:29:52.128Z</time></trkpt><trkpt lat="46.0339226" lon="13.5696946"><ele>463.6</ele><time>2026-05-03T10:29:53.123Z</time></trkpt><trkpt lat="46.0338433" lon="13.5697654"><ele>459.40000000000003</ele><time>2026-05-03T10:29:54.145Z</time></trkpt><trkpt lat="46.0337782" lon="13.5698543"><ele>455.20000000000005</ele><time>2026-05-03T10:29:55.12Z</time></trkpt><trkpt lat="46.0337299" lon="13.5699318"><ele>451.0</ele><time>2026-05-03T10:29:56.139Z</time></trkpt><trkpt lat="46.0336421" lon="13.570039"><ele>451.0</ele><time>2026-05-03T10:29:58.123Z</time></trkpt><trkpt lat="46.033526" lon="13.5701012"><ele>451.0</ele><time>2026-05-03T10:30:00.114Z</time></trkpt><trkpt lat="46.0334587" lon="13.5701316"><ele>451.0</ele><time>2026-05-03T10:30:01.136Z</time></trkpt><trkpt lat="46.0333898" lon="13.5701696"><ele>451.0</ele><time>2026-05-03T10:30:02.131Z</time></trkpt><trkpt lat="46.0332873" lon="13.5702372"><ele>451.0</ele><time>2026-05-03T10:30:04.116Z</time></trkpt><trkpt lat="46.0332103" lon="13.5703471"><ele>446.83333333333337</ele><time>2026-05-03T10:30:06.114Z</time></trkpt><trkpt lat="46.0331273" lon="13.5704794"><ele>442.6666666666667</ele><time>2026-05-03T10:30:08.118Z</time></trkpt><trkpt lat="46.0330987" lon="13.5705637"><ele>438.5</ele><time>2026-05-03T10:30:09.129Z</time></trkpt><trkpt lat="46.0330743" lon="13.5706514"><ele>434.33333333333337</ele><time>2026-05-03T10:30:10.115Z</time></trkpt><trkpt lat="46.0330512" lon="13.5707477"><ele>430.1666666666667</ele><time>2026-05-03T10:30:11.121Z</time></trkpt><trkpt lat="46.0330252" lon="13.5708404"><ele>426.0</ele><time>2026-05-03T10:30:12.109Z</time></trkpt><trkpt lat="46.0330002" lon="13.5709289"><ele>426.0</ele><time>2026-05-03T10:30:13.131Z</time></trkpt><trkpt lat="46.032974" lon="13.5710154"><ele>426.0</ele><time>2026-05-03T10:30:14.112Z</time></trkpt><trkpt lat="46.0329093" lon="13.5711689"><ele>426.0</ele><time>2026-05-03T10:30:16.105Z</time></trkpt><trkpt lat="46.0328723" lon="13.5712476"><ele>426.0</ele><time>2026-05-03T10:30:17.108Z</time></trkpt><trkpt lat="46.0328332" lon="13.5713251"><ele>426.0</ele><time>2026-05-03T10:30:18.105Z</time></trkpt><trkpt lat="46.0327447" lon="13.5714441"><ele>426.0</ele><time>2026-05-03T10:30:20.107Z</time></trkpt><trkpt lat="46.0326469" lon="13.5715538"><ele>425.57142857142856</ele><time>2026-05-03T10:30:22.104Z</time></trkpt><trkpt lat="46.0325946" lon="13.5716123"><ele>425.1428571428571</ele><time>2026-05-03T10:30:23.113Z</time></trkpt><trkpt lat="46.0325437" lon="13.5716676"><ele>424.71428571428567</ele><time>2026-05-03T10:30:24.113Z</time></trkpt><trkpt lat="46.0324869" lon="13.5717252"><ele>424.2857142857143</ele><time>2026-05-03T10:30:25.118Z</time></trkpt><trkpt lat="46.0324318" lon="13.571786"><ele>423.8571428571429</ele><time>2026-05-03T10:30:26.124Z</time></trkpt><trkpt lat="46.0323702" lon="13.5718588"><ele>423.4285714285714</ele><time>2026-05-03T10:30:27.122Z</time></trkpt><trkpt lat="46.0323163" lon="13.5719336"><ele>423.0</ele><time>2026-05-03T10:30:28.106Z</time></trkpt><trkpt lat="46.0322607" lon="13.5720272"><ele>423.0</ele><time>2026-05-03T10:30:29.109Z</time></trkpt><trkpt lat="46.0322045" lon="13.5721239"><ele>423.0</ele><time>2026-05-03T10:30:30.096Z</time></trkpt><trkpt lat="46.0321372" lon="13.5722243"><ele>423.0</ele><time>2026-05-03T10:30:31.104Z</time></trkpt><trkpt lat="46.0320684" lon="13.5723159"><ele>423.0</ele><time>2026-05-03T10:30:32.11Z</time></trkpt><trkpt lat="46.0320032" lon="13.5724032"><ele>423.0</ele><time>2026-05-03T10:30:33.116Z</time></trkpt><trkpt lat="46.0319308" lon="13.5724935"><ele>423.0</ele><time>2026-05-03T10:30:34.096Z</time></trkpt><trkpt lat="46.0318441" lon="13.5725927"><ele>423.0</ele><time>2026-05-03T10:30:35.11Z</time></trkpt><trkpt lat="46.0317477" lon="13.5726929"><ele>423.0</ele><time>2026-05-03T10:30:36.103Z</time></trkpt><trkpt lat="46.0316473" lon="13.5727921"><ele>423.0</ele><time>2026-05-03T10:30:37.111Z</time></trkpt><trkpt lat="46.0315419" lon="13.5728837"><ele>422.2</ele><time>2026-05-03T10:30:38.105Z</time></trkpt><trkpt lat="46.0314434" lon="13.5729673"><ele>421.4</ele><time>2026-05-03T10:30:39.114Z</time></trkpt><trkpt lat="46.0313514" lon="13.5730374"><ele>420.59999999999997</ele><time>2026-05-03T10:30:40.099Z</time></trkpt><trkpt lat="46.0312701" lon="13.5730956"><ele>419.79999999999995</ele><time>2026-05-03T10:30:41.105Z</time></trkpt><trkpt lat="46.0311954" lon="13.5731537"><ele>419.0</ele><time>2026-05-03T10:30:42.098Z</time></trkpt><trkpt lat="46.0311294" lon="13.5732234"><ele>418.99999999999994</ele><time>2026-05-03T10:30:43.099Z</time></trkpt><trkpt lat="46.0310713" lon="13.5733081"><ele>419.0</ele><time>2026-05-03T10:30:44.108Z</time></trkpt><trkpt lat="46.0310198" lon="13.5733955"><ele>419.0</ele><time>2026-05-03T10:30:45.114Z</time></trkpt><trkpt lat="46.0309724" lon="13.5734849"><ele>419.0</ele><time>2026-05-03T10:30:46.113Z</time></trkpt><trkpt lat="46.030922" lon="13.5735652"><ele>418.99999999999994</ele><time>2026-05-03T10:30:47.116Z</time></trkpt><trkpt lat="46.0308693" lon="13.5736334"><ele>419.0</ele><time>2026-05-03T10:30:48.103Z</time></trkpt><trkpt lat="46.0308132" lon="13.5736967"><ele>419.2857142857143</ele><time>2026-05-03T10:30:49.119Z</time></trkpt><trkpt lat="46.0307484" lon="13.5737007"><ele>419.57142857142856</ele><time>2026-05-03T10:30:50.099Z</time></trkpt><trkpt lat="46.0306838" lon="13.5736512"><ele>419.8571428571429</ele><time>2026-05-03T10:30:51.093Z</time></trkpt><trkpt lat="46.0306285" lon="13.5735822"><ele>420.1428571428571</ele><time>2026-05-03T10:30:52.099Z</time></trkpt><trkpt lat="46.0305742" lon="13.5735211"><ele>420.42857142857144</ele><time>2026-05-03T10:30:53.092Z</time></trkpt><trkpt lat="46.0305035" lon="13.5734997"><ele>420.7142857142857</ele><time>2026-05-03T10:30:54.11Z</time></trkpt><trkpt lat="46.0304274" lon="13.5735325"><ele>421.0</ele><time>2026-05-03T10:30:55.096Z</time></trkpt><trkpt lat="46.0303522" lon="13.5735955"><ele>421.0</ele><time>2026-05-03T10:30:56.096Z</time></trkpt><trkpt lat="46.0302788" lon="13.5736655"><ele>421.0</ele><time>2026-05-03T10:30:57.101Z</time></trkpt><trkpt lat="46.0302063" lon="13.5737442"><ele>421.0</ele><time>2026-05-03T10:30:58.099Z</time></trkpt><trkpt lat="46.0301297" lon="13.5738236"><ele>421.0</ele><time>2026-05-03T10:30:59.109Z</time></trkpt><trkpt lat="46.0300514" lon="13.5739089"><ele>421.0</ele><time>2026-05-03T10:31:00.1Z</time></trkpt><trkpt lat="46.0299772" lon="13.5739937"><ele>417.50000000000006</ele><time>2026-05-03T10:31:01.097Z</time></trkpt><trkpt lat="46.0299044" lon="13.5740764"><ele>414.0</ele><time>2026-05-03T10:31:02.102Z</time></trkpt><trkpt lat="46.029833" lon="13.5741587"><ele>410.5</ele><time>2026-05-03T10:31:03.112Z</time></trkpt><trkpt lat="46.0297694" lon="13.5742339"><ele>407.0</ele><time>2026-05-03T10:31:04.095Z</time></trkpt><trkpt lat="46.0297046" lon="13.5742982"><ele>403.50000000000006</ele><time>2026-05-03T10:31:05.113Z</time></trkpt><trkpt lat="46.0296501" lon="13.5743541"><ele>400.0</ele><time>2026-05-03T10:31:06.103Z</time></trkpt><trkpt lat="46.0295773" lon="13.5743998"><ele>400.00000000000006</ele><time>2026-05-03T10:31:08.109Z</time></trkpt><trkpt lat="46.0294613" lon="13.5744407"><ele>400.0</ele><time>2026-05-03T10:31:29.098Z</time></trkpt><trkpt lat="46.029396" lon="13.5744656"><ele>400.0</ele><time>2026-05-03T10:31:30.099Z</time></trkpt><trkpt lat="46.0293307" lon="13.5745045"><ele>400.0</ele><time>2026-05-03T10:31:31.117Z</time></trkpt><trkpt lat="46.029257" lon="13.5745532"><ele>400.00000000000006</ele><time>2026-05-03T10:31:32.117Z</time></trkpt><trkpt lat="46.0291567" lon="13.5745976"><ele>400.0</ele><time>2026-05-03T10:31:33.107Z</time></trkpt><trkpt lat="46.0290432" lon="13.5746434"><ele>404.5</ele><time>2026-05-03T10:31:34.132Z</time></trkpt><trkpt lat="46.0289256" lon="13.5746796"><ele>409.0</ele><time>2026-05-03T10:31:35.109Z</time></trkpt><trkpt lat="46.0288038" lon="13.5746822"><ele>413.5</ele><time>2026-05-03T10:31:36.108Z</time></trkpt><trkpt lat="46.0286705" lon="13.5746245"><ele>418.0</ele><time>2026-05-03T10:31:37.1Z</time></trkpt><trkpt lat="46.0285358" lon="13.5745335"><ele>412.25</ele><time>2026-05-03T10:31:38.097Z</time></trkpt><trkpt lat="46.0284141" lon="13.5744461"><ele>406.5</ele><time>2026-05-03T10:31:39.112Z</time></trkpt><trkpt lat="46.0282968" lon="13.5743883"><ele>400.75</ele><time>2026-05-03T10:31:40.116Z</time></trkpt><trkpt lat="46.0281829" lon="13.5743681"><ele>395.0</ele><time>2026-05-03T10:31:41.112Z</time></trkpt><trkpt lat="46.0280778" lon="13.574423"><ele>397.75</ele><time>2026-05-03T10:31:42.103Z</time></trkpt><trkpt lat="46.0279882" lon="13.5745311"><ele>400.5</ele><time>2026-05-03T10:31:43.099Z</time></trkpt><trkpt lat="46.0278988" lon="13.5746561"><ele>403.25</ele><time>2026-05-03T10:31:44.094Z</time></trkpt><trkpt lat="46.0278023" lon="13.5747612"><ele>406.0</ele><time>2026-05-03T10:31:45.118Z</time></trkpt><trkpt lat="46.0276987" lon="13.5748498"><ele>406.0</ele><time>2026-05-03T10:31:46.103Z</time></trkpt><trkpt lat="46.0275803" lon="13.5748736"><ele>406.0</ele><time>2026-05-03T10:31:47.108Z</time></trkpt><trkpt lat="46.0274423" lon="13.5748581"><ele>406.0</ele><time>2026-05-03T10:31:48.09Z</time></trkpt><trkpt lat="46.0272962" lon="13.5748016"><ele>406.0</ele><time>2026-05-03T10:31:49.103Z</time></trkpt><trkpt lat="46.0271597" lon="13.5747653"><ele>403.0</ele><time>2026-05-03T10:31:50.115Z</time></trkpt><trkpt lat="46.0270334" lon="13.5747479"><ele>400.0</ele><time>2026-05-03T10:31:51.105Z</time></trkpt><trkpt lat="46.0269228" lon="13.5748136"><ele>397.0</ele><time>2026-05-03T10:31:52.097Z</time></trkpt><trkpt lat="46.0268203" lon="13.5748891"><ele>394.0</ele><time>2026-05-03T10:31:53.097Z</time></trkpt><trkpt lat="46.0267153" lon="13.5749552"><ele>395.5</ele><time>2026-05-03T10:31:54.1Z</time></trkpt><trkpt lat="46.0265999" lon="13.5749895"><ele>397.0</ele><time>2026-05-03T10:31:55.121Z</time></trkpt><trkpt lat="46.0264741" lon="13.5749907"><ele>398.5</ele><time>2026-05-03T10:31:56.106Z</time></trkpt><trkpt lat="46.0263462" lon="13.5749827"><ele>400.0</ele><time>2026-05-03T10:31:57.114Z</time></trkpt><trkpt lat="46.0262085" lon="13.5749984"><ele>400.0</ele><time>2026-05-03T10:31:58.12Z</time></trkpt><trkpt lat="46.0260555" lon="13.5750316"><ele>400.0</ele><time>2026-05-03T10:31:59.106Z</time></trkpt><trkpt lat="46.0258993" lon="13.5750863"><ele>400.0</ele><time>2026-05-03T10:32:00.102Z</time></trkpt><trkpt lat="46.0257339" lon="13.5751491"><ele>401.6666666666667</ele><time>2026-05-03T10:32:01.107Z</time></trkpt><trkpt lat="46.0255694" lon="13.5752143"><ele>403.33333333333337</ele><time>2026-05-03T10:32:02.093Z</time></trkpt><trkpt lat="46.0254034" lon="13.575296"><ele>405.0</ele><time>2026-05-03T10:32:03.108Z</time></trkpt><trkpt lat="46.0252429" lon="13.5753694"><ele>399.25</ele><time>2026-05-03T10:32:04.112Z</time></trkpt><trkpt lat="46.0250943" lon="13.5754366"><ele>393.5</ele><time>2026-05-03T10:32:05.11Z</time></trkpt><trkpt lat="46.0249581" lon="13.5754979"><ele>387.75</ele><time>2026-05-03T10:32:06.112Z</time></trkpt><trkpt lat="46.0248286" lon="13.5755462"><ele>382.0</ele><time>2026-05-03T10:32:07.11Z</time></trkpt><trkpt lat="46.024704" lon="13.5755822"><ele>382.0</ele><time>2026-05-03T10:32:08.113Z</time></trkpt><trkpt lat="46.0245893" lon="13.5756019"><ele>382.0</ele><time>2026-05-03T10:32:09.112Z</time></trkpt><trkpt lat="46.0244828" lon="13.5755935"><ele>382.0</ele><time>2026-05-03T10:32:10.122Z</time></trkpt><trkpt lat="46.0243917" lon="13.5755721"><ele>382.0</ele><time>2026-05-03T10:32:11.104Z</time></trkpt><trkpt lat="46.0243236" lon="13.575568"><ele>382.0</ele><time>2026-05-03T10:32:12.1Z</time></trkpt><trkpt lat="46.024369" lon="13.5756765"><ele>382.0</ele><time>2026-05-03T10:32:16.098Z</time></trkpt><trkpt lat="46.0244371" lon="13.5756895"><ele>382.0</ele><time>2026-05-03T10:32:17.097Z</time></trkpt><trkpt lat="46.0245376" lon="13.5756837"><ele>382.0</ele><time>2026-05-03T10:32:18.097Z</time></trkpt><trkpt lat="46.0246684" lon="13.5756808"><ele>382.0</ele><time>2026-05-03T10:32:19.09Z</time></trkpt><trkpt lat="46.0248148" lon="13.575685"><ele>382.0</ele><time>2026-05-03T10:32:20.1Z</time></trkpt><trkpt lat="46.0249586" lon="13.5756915"><ele>380.66666666666663</ele><time>2026-05-03T10:32:21.114Z</time></trkpt><trkpt lat="46.0251132" lon="13.5757001"><ele>379.3333333333333</ele><time>2026-05-03T10:32:22.103Z</time></trkpt><trkpt lat="46.0252653" lon="13.5757022"><ele>378.0</ele><time>2026-05-03T10:32:23.106Z</time></trkpt><trkpt lat="46.0254224" lon="13.5756755"><ele>378.0</ele><time>2026-05-03T10:32:24.102Z</time></trkpt><trkpt lat="46.0255821" lon="13.5756356"><ele>378.0</ele><time>2026-05-03T10:32:25.111Z</time></trkpt><trkpt lat="46.0257376" lon="13.5756258"><ele>378.0</ele><time>2026-05-03T10:32:26.097Z</time></trkpt><trkpt lat="46.0258849" lon="13.5756516"><ele>374.25</ele><time>2026-05-03T10:32:27.11Z</time></trkpt><trkpt lat="46.0260277" lon="13.5757095"><ele>370.5</ele><time>2026-05-03T10:32:28.11Z</time></trkpt><trkpt lat="46.0261651" lon="13.575802"><ele>366.75</ele><time>2026-05-03T10:32:29.099Z</time></trkpt><trkpt lat="46.0262574" lon="13.5759433"><ele>363.0</ele><time>2026-05-03T10:32:30.116Z</time></trkpt><trkpt lat="46.0263008" lon="13.5761324"><ele>357.0</ele><time>2026-05-03T10:32:31.107Z</time></trkpt><trkpt lat="46.0263311" lon="13.5763167"><ele>351.0</ele><time>2026-05-03T10:32:32.099Z</time></trkpt><trkpt lat="46.0263849" lon="13.5764841"><ele>345.0</ele><time>2026-05-03T10:32:33.116Z</time></trkpt><trkpt lat="46.0264754" lon="13.5766319"><ele>339.0</ele><time>2026-05-03T10:32:34.113Z</time></trkpt><trkpt lat="46.0265876" lon="13.576785"><ele>338.3333333333333</ele><time>2026-05-03T10:32:35.106Z</time></trkpt><trkpt lat="46.0267045" lon="13.5769428"><ele>337.66666666666663</ele><time>2026-05-03T10:32:36.118Z</time></trkpt><trkpt lat="46.0268214" lon="13.5771082"><ele>337.0</ele><time>2026-05-03T10:32:37.106Z</time></trkpt><trkpt lat="46.0269374" lon="13.5772713"><ele>337.0</ele><time>2026-05-03T10:32:38.1Z</time></trkpt><trkpt lat="46.0270579" lon="13.5774294"><ele>337.0</ele><time>2026-05-03T10:32:39.107Z</time></trkpt><trkpt lat="46.0271786" lon="13.5775678"><ele>337.0</ele><time>2026-05-03T10:32:40.096Z</time></trkpt><trkpt lat="46.0272938" lon="13.5776793"><ele>337.0</ele><time>2026-05-03T10:32:41.099Z</time></trkpt><trkpt lat="46.027407" lon="13.5777519"><ele>337.0</ele><time>2026-05-03T10:32:42.093Z</time></trkpt><trkpt lat="46.0275253" lon="13.5777892"><ele>337.0</ele><time>2026-05-03T10:32:43.096Z</time></trkpt><trkpt lat="46.0276551" lon="13.5777787"><ele>337.0</ele><time>2026-05-03T10:32:44.095Z</time></trkpt><trkpt lat="46.027793" lon="13.5777415"><ele>331.75</ele><time>2026-05-03T10:32:45.093Z</time></trkpt><trkpt lat="46.0279312" lon="13.5777218"><ele>326.5</ele><time>2026-05-03T10:32:46.095Z</time></trkpt><trkpt lat="46.0280619" lon="13.5777642"><ele>321.25</ele><time>2026-05-03T10:32:47.09Z</time></trkpt><trkpt lat="46.0281872" lon="13.5778599"><ele>316.0</ele><time>2026-05-03T10:32:48.09Z</time></trkpt><trkpt lat="46.028286" lon="13.5780089"><ele>316.0</ele><time>2026-05-03T10:32:49.081Z</time></trkpt><trkpt lat="46.0283647" lon="13.5781952"><ele>316.0</ele><time>2026-05-03T10:32:50.084Z</time></trkpt><trkpt lat="46.0284316" lon="13.5784018"><ele>316.0</ele><time>2026-05-03T10:32:51.088Z</time></trkpt><trkpt lat="46.0284928" lon="13.5786138"><ele>316.0</ele><time>2026-05-03T10:32:52.084Z</time></trkpt><trkpt lat="46.0285376" lon="13.5788309"><ele>316.0</ele><time>2026-05-03T10:32:53.095Z</time></trkpt><trkpt lat="46.0285826" lon="13.5790509"><ele>316.0</ele><time>2026-05-03T10:32:54.086Z</time></trkpt><trkpt lat="46.0286443" lon="13.5792659"><ele>309.0</ele><time>2026-05-03T10:32:55.101Z</time></trkpt><trkpt lat="46.0287233" lon="13.5794726"><ele>302.0</ele><time>2026-05-03T10:32:56.095Z</time></trkpt><trkpt lat="46.0288173" lon="13.5796511"><ele>295.0</ele><time>2026-05-03T10:32:57.095Z</time></trkpt><trkpt lat="46.0289191" lon="13.5798118"><ele>295.0</ele><time>2026-05-03T10:32:58.086Z</time></trkpt><trkpt lat="46.0290223" lon="13.5799667"><ele>295.0</ele><time>2026-05-03T10:32:59.092Z</time></trkpt><trkpt lat="46.0291177" lon="13.5801329"><ele>295.0</ele><time>2026-05-03T10:33:00.089Z</time></trkpt><trkpt lat="46.0291661" lon="13.5803099"><ele>295.0</ele><time>2026-05-03T10:33:01.083Z</time></trkpt><trkpt lat="46.0292038" lon="13.580504"><ele>300.0</ele><time>2026-05-03T10:33:02.082Z</time></trkpt><trkpt lat="46.0292492" lon="13.5806847"><ele>305.0</ele><time>2026-05-03T10:33:03.086Z</time></trkpt><trkpt lat="46.0292981" lon="13.5808508"><ele>310.0</ele><time>2026-05-03T10:33:04.097Z</time></trkpt><trkpt lat="46.0293344" lon="13.58101"><ele>315.0</ele><time>2026-05-03T10:33:05.1Z</time></trkpt><trkpt lat="46.0293298" lon="13.5811773"><ele>316.6</ele><time>2026-05-03T10:33:06.098Z</time></trkpt><trkpt lat="46.0293054" lon="13.5813109"><ele>318.2</ele><time>2026-05-03T10:33:07.102Z</time></trkpt><trkpt lat="46.0292867" lon="13.5814617"><ele>319.79999999999995</ele><time>2026-05-03T10:33:08.084Z</time></trkpt><trkpt lat="46.0293063" lon="13.5816067"><ele>321.4</ele><time>2026-05-03T10:33:09.101Z</time></trkpt><trkpt lat="46.0293737" lon="13.5817084"><ele>323.0</ele><time>2026-05-03T10:33:10.088Z</time></trkpt><trkpt lat="46.0294827" lon="13.5817732"><ele>323.0</ele><time>2026-05-03T10:33:11.091Z</time></trkpt><trkpt lat="46.0296086" lon="13.581833"><ele>323.0</ele><time>2026-05-03T10:33:12.082Z</time></trkpt><trkpt lat="46.0297421" lon="13.5819235"><ele>323.0</ele><time>2026-05-03T10:33:13.089Z</time></trkpt><trkpt lat="46.0298783" lon="13.5820228"><ele>323.0</ele><time>2026-05-03T10:33:14.087Z</time></trkpt><trkpt lat="46.0300196" lon="13.5821141"><ele>316.0</ele><time>2026-05-03T10:33:15.09Z</time></trkpt><trkpt lat="46.0301605" lon="13.5822027"><ele>309.0</ele><time>2026-05-03T10:33:16.093Z</time></trkpt><trkpt lat="46.0302921" lon="13.582294"><ele>302.0</ele><time>2026-05-03T10:33:17.09Z</time></trkpt><trkpt lat="46.0304086" lon="13.5823646"><ele>295.0</ele><time>2026-05-03T10:33:18.089Z</time></trkpt><trkpt lat="46.0305147" lon="13.5824177"><ele>295.0</ele><time>2026-05-03T10:33:19.093Z</time></trkpt><trkpt lat="46.030609" lon="13.5824736"><ele>295.0</ele><time>2026-05-03T10:33:20.083Z</time></trkpt><trkpt lat="46.030673" lon="13.5825632"><ele>295.0</ele><time>2026-05-03T10:33:21.086Z</time></trkpt><trkpt lat="46.0307044" lon="13.5826817"><ele>295.0</ele><time>2026-05-03T10:33:22.079Z</time></trkpt><trkpt lat="46.0307092" lon="13.5828479"><ele>295.0</ele><time>2026-05-03T10:33:23.088Z</time></trkpt><trkpt lat="46.0306789" lon="13.5830449"><ele>290.5</ele><time>2026-05-03T10:33:24.075Z</time></trkpt><trkpt lat="46.0306565" lon="13.5832562"><ele>286.0</ele><time>2026-05-03T10:33:25.088Z</time></trkpt><trkpt lat="46.0306424" lon="13.5834587"><ele>281.5</ele><time>2026-05-03T10:33:26.095Z</time></trkpt><trkpt lat="46.0306451" lon="13.5836669"><ele>277.0</ele><time>2026-05-03T10:33:27.084Z</time></trkpt><trkpt lat="46.0306244" lon="13.5838657"><ele>277.0</ele><time>2026-05-03T10:33:28.084Z</time></trkpt><trkpt lat="46.0305469" lon="13.5840379"><ele>277.0</ele><time>2026-05-03T10:33:29.085Z</time></trkpt><trkpt lat="46.0304492" lon="13.5841901"><ele>277.0</ele><time>2026-05-03T10:33:30.082Z</time></trkpt><trkpt lat="46.0303479" lon="13.584342"><ele>277.0</ele><time>2026-05-03T10:33:31.078Z</time></trkpt><trkpt lat="46.0302778" lon="13.5844879"><ele>278.5</ele><time>2026-05-03T10:33:32.101Z</time></trkpt><trkpt lat="46.0302447" lon="13.5846575"><ele>280.0</ele><time>2026-05-03T10:33:33.085Z</time></trkpt><trkpt lat="46.0302338" lon="13.584866"><ele>281.5</ele><time>2026-05-03T10:33:34.083Z</time></trkpt><trkpt lat="46.0302372" lon="13.5850748"><ele>283.0</ele><time>2026-05-03T10:33:35.1Z</time></trkpt><trkpt lat="46.030269" lon="13.585283"><ele>276.66666666666663</ele><time>2026-05-03T10:33:36.077Z</time></trkpt><trkpt lat="46.0303156" lon="13.5854902"><ele>270.3333333333333</ele><time>2026-05-03T10:33:37.099Z</time></trkpt><trkpt lat="46.0303832" lon="13.5856907"><ele>264.0</ele><time>2026-05-03T10:33:38.118Z</time></trkpt><trkpt lat="46.0304615" lon="13.5858832"><ele>264.0</ele><time>2026-05-03T10:33:39.091Z</time></trkpt><trkpt lat="46.030545" lon="13.5860807"><ele>264.0</ele><time>2026-05-03T10:33:40.092Z</time></trkpt><trkpt lat="46.0306104" lon="13.5862849"><ele>264.0</ele><time>2026-05-03T10:33:41.088Z</time></trkpt><trkpt lat="46.0306574" lon="13.5864944"><ele>260.0</ele><time>2026-05-03T10:33:42.087Z</time></trkpt><trkpt lat="46.0306742" lon="13.5867096"><ele>256.0</ele><time>2026-05-03T10:33:43.117Z</time></trkpt><trkpt lat="46.0306836" lon="13.5869261"><ele>252.0</ele><time>2026-05-03T10:33:44.096Z</time></trkpt><trkpt lat="46.0307124" lon="13.5871453"><ele>249.66666666666669</ele><time>2026-05-03T10:33:45.093Z</time></trkpt><trkpt lat="46.0307582" lon="13.5873634"><ele>247.33333333333334</ele><time>2026-05-03T10:33:46.088Z</time></trkpt><trkpt lat="46.030807" lon="13.5875918"><ele>245.0</ele><time>2026-05-03T10:33:47.093Z</time></trkpt><trkpt lat="46.0308528" lon="13.5878082"><ele>253.33333333333334</ele><time>2026-05-03T10:33:48.091Z</time></trkpt><trkpt lat="46.0308912" lon="13.588027"><ele>261.6666666666667</ele><time>2026-05-03T10:33:49.086Z</time></trkpt><trkpt lat="46.0309202" lon="13.5882525"><ele>270.0</ele><time>2026-05-03T10:33:50.075Z</time></trkpt><trkpt lat="46.0309305" lon="13.5884678"><ele>268.0</ele><time>2026-05-03T10:33:51.08Z</time></trkpt><trkpt lat="46.0309145" lon="13.5886812"><ele>266.0</ele><time>2026-05-03T10:33:52.093Z</time></trkpt><trkpt lat="46.0308843" lon="13.5889103"><ele>264.0</ele><time>2026-05-03T10:33:53.096Z</time></trkpt><trkpt lat="46.0308662" lon="13.5891196"><ele>264.0</ele><time>2026-05-03T10:33:54.084Z</time></trkpt><trkpt lat="46.0308901" lon="13.5893162"><ele>264.0</ele><time>2026-05-03T10:33:55.101Z</time></trkpt><trkpt lat="46.0309466" lon="13.5895135"><ele>264.0</ele><time>2026-05-03T10:33:56.096Z</time></trkpt><trkpt lat="46.0310255" lon="13.589688"><ele>264.0</ele><time>2026-05-03T10:33:57.095Z</time></trkpt><trkpt lat="46.0311196" lon="13.5898407"><ele>260.75</ele><time>2026-05-03T10:33:58.102Z</time></trkpt><trkpt lat="46.0312284" lon="13.5899649"><ele>257.5</ele><time>2026-05-03T10:33:59.098Z</time></trkpt><trkpt lat="46.0313357" lon="13.5900498"><ele>254.25</ele><time>2026-05-03T10:34:00.091Z</time></trkpt><trkpt lat="46.0314362" lon="13.5901071"><ele>251.0</ele><time>2026-05-03T10:34:01.101Z</time></trkpt><trkpt lat="46.0315236" lon="13.5901384"><ele>251.0</ele><time>2026-05-03T10:34:02.106Z</time></trkpt><trkpt lat="46.0315918" lon="13.5901806"><ele>251.00000000000003</ele><time>2026-05-03T10:34:03.105Z</time></trkpt><trkpt lat="46.0315625" lon="13.590305"><ele>251.00000000000003</ele><time>2026-05-03T10:34:05.098Z</time></trkpt><trkpt lat="46.0314756" lon="13.5903228"><ele>251.0</ele><time>2026-05-03T10:34:06.102Z</time></trkpt><trkpt lat="46.031374" lon="13.5902931"><ele>251.0</ele><time>2026-05-03T10:34:07.104Z</time></trkpt><trkpt lat="46.0312585" lon="13.5902462"><ele>251.0</ele><time>2026-05-03T10:34:08.104Z</time></trkpt><trkpt lat="46.0311262" lon="13.5901998"><ele>251.0</ele><time>2026-05-03T10:34:09.108Z</time></trkpt><trkpt lat="46.0309811" lon="13.5901601"><ele>251.0</ele><time>2026-05-03T10:34:10.119Z</time></trkpt><trkpt lat="46.0308293" lon="13.5901044"><ele>251.0</ele><time>2026-05-03T10:34:11.103Z</time></trkpt><trkpt lat="46.0306887" lon="13.5900151"><ele>241.0</ele><time>2026-05-03T10:34:12.1Z</time></trkpt><trkpt lat="46.0305522" lon="13.5898906"><ele>231.0</ele><time>2026-05-03T10:34:13.097Z</time></trkpt><trkpt lat="46.0304286" lon="13.5897567"><ele>221.0</ele><time>2026-05-03T10:34:14.107Z</time></trkpt><trkpt lat="46.0303198" lon="13.5896062"><ele>223.5</ele><time>2026-05-03T10:34:15.096Z</time></trkpt><trkpt lat="46.0302219" lon="13.5894416"><ele>226.0</ele><time>2026-05-03T10:34:16.092Z</time></trkpt><trkpt lat="46.0301435" lon="13.5892594"><ele>228.5</ele><time>2026-05-03T10:34:17.098Z</time></trkpt><trkpt lat="46.0300834" lon="13.5890647"><ele>231.0</ele><time>2026-05-03T10:34:18.099Z</time></trkpt><trkpt lat="46.0300385" lon="13.5888503"><ele>232.33333333333331</ele><time>2026-05-03T10:34:19.107Z</time></trkpt><trkpt lat="46.0299977" lon="13.5886237"><ele>233.66666666666666</ele><time>2026-05-03T10:34:20.103Z</time></trkpt><trkpt lat="46.0299485" lon="13.588394"><ele>235.0</ele><time>2026-05-03T10:34:21.099Z</time></trkpt><trkpt lat="46.0298862" lon="13.5881684"><ele>224.33333333333331</ele><time>2026-05-03T10:34:22.096Z</time></trkpt><trkpt lat="46.0298189" lon="13.5879533"><ele>213.66666666666669</ele><time>2026-05-03T10:34:23.103Z</time></trkpt><trkpt lat="46.0297666" lon="13.5877427"><ele>203.0</ele><time>2026-05-03T10:34:24.096Z</time></trkpt><trkpt lat="46.0297293" lon="13.5875209"><ele>203.0</ele><time>2026-05-03T10:34:25.091Z</time></trkpt><trkpt lat="46.0296969" lon="13.5873021"><ele>203.0</ele><time>2026-05-03T10:34:26.093Z</time></trkpt><trkpt lat="46.0296525" lon="13.5870939"><ele>203.0</ele><time>2026-05-03T10:34:27.085Z</time></trkpt><trkpt lat="46.0296113" lon="13.5869206"><ele>203.0</ele><time>2026-05-03T10:34:28.084Z</time></trkpt><trkpt lat="46.0295752" lon="13.586779"><ele>204.33333333333334</ele><time>2026-05-03T10:34:29.088Z</time></trkpt><trkpt lat="46.029542" lon="13.5866542"><ele>205.66666666666669</ele><time>2026-05-03T10:34:30.087Z</time></trkpt><trkpt lat="46.0295157" lon="13.5865535"><ele>207.0</ele><time>2026-05-03T10:34:31.091Z</time></trkpt><trkpt lat="46.0294349" lon="13.5865357"><ele>208.33333333333331</ele><time>2026-05-03T10:34:33.087Z</time></trkpt><trkpt lat="46.0294076" lon="13.5866361"><ele>209.66666666666666</ele><time>2026-05-03T10:34:34.088Z</time></trkpt><trkpt lat="46.029414" lon="13.5867692"><ele>211.0</ele><time>2026-05-03T10:34:35.084Z</time></trkpt><trkpt lat="46.0294366" lon="13.5869305"><ele>209.0</ele><time>2026-05-03T10:34:36.104Z</time></trkpt><trkpt lat="46.0294628" lon="13.5871121"><ele>207.0</ele><time>2026-05-03T10:34:37.08Z</time></trkpt><trkpt lat="46.0294638" lon="13.5873078"><ele>205.0</ele><time>2026-05-03T10:34:38.083Z</time></trkpt><trkpt lat="46.0294438" lon="13.5874774"><ele>203.0</ele><time>2026-05-03T10:34:39.098Z</time></trkpt><trkpt lat="46.0294235" lon="13.5876053"><ele>203.00000000000003</ele><time>2026-05-03T10:34:40.083Z</time></trkpt><trkpt lat="46.0293944" lon="13.5876897"><ele>203.0</ele><time>2026-05-03T10:38:19.093Z</time></trkpt><trkpt lat="46.029404" lon="13.5877967"><ele>203.0</ele><time>2026-05-03T10:38:21.088Z</time></trkpt><trkpt lat="46.0294071" lon="13.5878989"><ele>203.0</ele><time>2026-05-03T10:38:22.089Z</time></trkpt><trkpt lat="46.0294088" lon="13.5880173"><ele>203.00000000000003</ele><time>2026-05-03T10:38:23.095Z</time></trkpt><trkpt lat="46.0294057" lon="13.5881454"><ele>203.0</ele><time>2026-05-03T10:38:24.119Z</time></trkpt><trkpt lat="46.0293908" lon="13.588281"><ele>202.0</ele><time>2026-05-03T10:38:25.098Z</time></trkpt><trkpt lat="46.0293673" lon="13.5884349"><ele>201.0</ele><time>2026-05-03T10:38:26.094Z</time></trkpt><trkpt lat="46.0293396" lon="13.5886066"><ele>200.0</ele><time>2026-05-03T10:38:27.099Z</time></trkpt><trkpt lat="46.0293199" lon="13.5887761"><ele>199.0</ele><time>2026-05-03T10:38:28.094Z</time></trkpt><trkpt lat="46.029296" lon="13.5889445"><ele>198.75</ele><time>2026-05-03T10:38:29.094Z</time></trkpt><trkpt lat="46.0292717" lon="13.5891142"><ele>198.5</ele><time>2026-05-03T10:38:30.092Z</time></trkpt><trkpt lat="46.0292511" lon="13.5892805"><ele>198.25</ele><time>2026-05-03T10:38:31.101Z</time></trkpt><trkpt lat="46.0292445" lon="13.5894471"><ele>198.0</ele><time>2026-05-03T10:38:32.094Z</time></trkpt><trkpt lat="46.0292625" lon="13.5896257"><ele>196.25</ele><time>2026-05-03T10:38:33.096Z</time></trkpt><trkpt lat="46.0292941" lon="13.589801"><ele>194.5</ele><time>2026-05-03T10:38:34.1Z</time></trkpt><trkpt lat="46.0293308" lon="13.5899822"><ele>192.75</ele><time>2026-05-03T10:38:35.101Z</time></trkpt><trkpt lat="46.0293756" lon="13.5901783"><ele>191.0</ele><time>2026-05-03T10:38:36.093Z</time></trkpt><trkpt lat="46.0294257" lon="13.5903756"><ele>187.0</ele><time>2026-05-03T10:38:37.09Z</time></trkpt><trkpt lat="46.0294936" lon="13.5905829"><ele>183.0</ele><time>2026-05-03T10:38:38.101Z</time></trkpt><trkpt lat="46.0295674" lon="13.5907904"><ele>179.0</ele><time>2026-05-03T10:38:39.094Z</time></trkpt><trkpt lat="46.0296406" lon="13.590992"><ele>174.5</ele><time>2026-05-03T10:38:40.104Z</time></trkpt><trkpt lat="46.029713" lon="13.5911866"><ele>170.0</ele><time>2026-05-03T10:38:41.105Z</time></trkpt><trkpt lat="46.0297836" lon="13.5913663"><ele>165.5</ele><time>2026-05-03T10:38:42.095Z</time></trkpt><trkpt lat="46.0298554" lon="13.5915292"><ele>161.0</ele><time>2026-05-03T10:38:43.106Z</time></trkpt><trkpt lat="46.0299297" lon="13.5916621"><ele>167.75</ele><time>2026-05-03T10:38:44.101Z</time></trkpt><trkpt lat="46.0300215" lon="13.5917586"><ele>174.5</ele><time>2026-05-03T10:38:45.106Z</time></trkpt><trkpt lat="46.0301414" lon="13.5918381"><ele>181.25</ele><time>2026-05-03T10:38:46.086Z</time></trkpt><trkpt lat="46.0302789" lon="13.5919041"><ele>188.0</ele><time>2026-05-03T10:38:47.095Z</time></trkpt><trkpt lat="46.0304322" lon="13.5919666"><ele>180.33333333333331</ele><time>2026-05-03T10:38:48.104Z</time></trkpt><trkpt lat="46.0306" lon="13.5920319"><ele>172.66666666666666</ele><time>2026-05-03T10:38:49.094Z</time></trkpt><trkpt lat="46.0307726" lon="13.5920969"><ele>165.0</ele><time>2026-05-03T10:38:50.095Z</time></trkpt><trkpt lat="46.0309578" lon="13.5921721"><ele>165.0</ele><time>2026-05-03T10:38:51.095Z</time></trkpt><trkpt lat="46.0311462" lon="13.592243"><ele>165.0</ele><time>2026-05-03T10:38:52.1Z</time></trkpt><trkpt lat="46.0313346" lon="13.5923019"><ele>165.0</ele><time>2026-05-03T10:38:53.098Z</time></trkpt><trkpt lat="46.0315209" lon="13.5923377"><ele>166.0</ele><time>2026-05-03T10:38:54.1Z</time></trkpt><trkpt lat="46.0316981" lon="13.5923604"><ele>167.0</ele><time>2026-05-03T10:38:55.104Z</time></trkpt><trkpt lat="46.0318803" lon="13.5923551"><ele>168.0</ele><time>2026-05-03T10:38:56.093Z</time></trkpt><trkpt lat="46.0320565" lon="13.592322"><ele>168.0</ele><time>2026-05-03T10:38:57.097Z</time></trkpt><trkpt lat="46.0322133" lon="13.5922672"><ele>168.0</ele><time>2026-05-03T10:38:58.088Z</time></trkpt><trkpt lat="46.0323492" lon="13.5922097"><ele>168.0</ele><time>2026-05-03T10:38:59.096Z</time></trkpt><trkpt lat="46.0324765" lon="13.5921772"><ele>168.0</ele><time>2026-05-03T10:39:00.084Z</time></trkpt><trkpt lat="46.0325921" lon="13.5922002"><ele>166.25</ele><time>2026-05-03T10:39:01.093Z</time></trkpt><trkpt lat="46.0326932" lon="13.5922865"><ele>164.5</ele><time>2026-05-03T10:39:02.086Z</time></trkpt><trkpt lat="46.0327805" lon="13.5924245"><ele>162.75</ele><time>2026-05-03T10:39:03.083Z</time></trkpt><trkpt lat="46.0328707" lon="13.5925796"><ele>161.0</ele><time>2026-05-03T10:39:04.081Z</time></trkpt><trkpt lat="46.0329862" lon="13.5927257"><ele>156.66666666666666</ele><time>2026-05-03T10:39:05.078Z</time></trkpt><trkpt lat="46.0331341" lon="13.5928471"><ele>152.33333333333334</ele><time>2026-05-03T10:39:06.072Z</time></trkpt><trkpt lat="46.0333012" lon="13.5929593"><ele>148.0</ele><time>2026-05-03T10:39:07.079Z</time></trkpt><trkpt lat="46.0334788" lon="13.5930615"><ele>148.0</ele><time>2026-05-03T10:39:08.086Z</time></trkpt><trkpt lat="46.0336564" lon="13.593162"><ele>148.0</ele><time>2026-05-03T10:39:09.076Z</time></trkpt><trkpt lat="46.0338272" lon="13.5932552"><ele>148.0</ele><time>2026-05-03T10:39:10.079Z</time></trkpt><trkpt lat="46.033992" lon="13.59335"><ele>150.33333333333334</ele><time>2026-05-03T10:39:11.089Z</time></trkpt><trkpt lat="46.0341477" lon="13.5934417"><ele>152.66666666666666</ele><time>2026-05-03T10:39:12.093Z</time></trkpt><trkpt lat="46.0342999" lon="13.5935305"><ele>155.0</ele><time>2026-05-03T10:39:13.091Z</time></trkpt><trkpt lat="46.0344482" lon="13.5935931"><ele>155.0</ele><time>2026-05-03T10:39:14.095Z</time></trkpt><trkpt lat="46.0345977" lon="13.593628"><ele>155.0</ele><time>2026-05-03T10:39:15.093Z</time></trkpt><trkpt lat="46.0347491" lon="13.5936305"><ele>155.0</ele><time>2026-05-03T10:39:16.086Z</time></trkpt><trkpt lat="46.0348902" lon="13.5936006"><ele>155.0</ele><time>2026-05-03T10:39:17.09Z</time></trkpt><trkpt lat="46.0350234" lon="13.5935375"><ele>152.66666666666666</ele><time>2026-05-03T10:39:18.086Z</time></trkpt><trkpt lat="46.0351471" lon="13.5934076"><ele>150.33333333333334</ele><time>2026-05-03T10:39:19.083Z</time></trkpt><trkpt lat="46.0352731" lon="13.5932494"><ele>148.0</ele><time>2026-05-03T10:39:20.095Z</time></trkpt><trkpt lat="46.0353933" lon="13.593086"><ele>148.0</ele><time>2026-05-03T10:39:21.09Z</time></trkpt><trkpt lat="46.0355112" lon="13.5929231"><ele>148.0</ele><time>2026-05-03T10:39:22.079Z</time></trkpt><trkpt lat="46.0356169" lon="13.5927512"><ele>148.0</ele><time>2026-05-03T10:39:23.088Z</time></trkpt><trkpt lat="46.0357106" lon="13.5925678"><ele>145.0</ele><time>2026-05-03T10:39:24.084Z</time></trkpt><trkpt lat="46.0357911" lon="13.5923632"><ele>142.0</ele><time>2026-05-03T10:39:25.08Z</time></trkpt><trkpt lat="46.0358505" lon="13.5921353"><ele>139.0</ele><time>2026-05-03T10:39:26.088Z</time></trkpt><trkpt lat="46.0358984" lon="13.5918855"><ele>139.0</ele><time>2026-05-03T10:39:27.087Z</time></trkpt><trkpt lat="46.0359424" lon="13.591632"><ele>139.0</ele><time>2026-05-03T10:39:28.092Z</time></trkpt><trkpt lat="46.0359988" lon="13.5913904"><ele>139.0</ele><time>2026-05-03T10:39:29.099Z</time></trkpt><trkpt lat="46.036072" lon="13.5911761"><ele>143.0</ele><time>2026-05-03T10:39:30.087Z</time></trkpt><trkpt lat="46.0361488" lon="13.5909716"><ele>147.0</ele><time>2026-05-03T10:39:31.09Z</time></trkpt><trkpt lat="46.0362275" lon="13.5907612"><ele>151.0</ele><time>2026-05-03T10:39:32.087Z</time></trkpt><trkpt lat="46.0363085" lon="13.5905463"><ele>159.33333333333334</ele><time>2026-05-03T10:39:33.08Z</time></trkpt><trkpt lat="46.0363964" lon="13.5903395"><ele>167.66666666666666</ele><time>2026-05-03T10:39:34.101Z</time></trkpt><trkpt lat="46.0364928" lon="13.5901382"><ele>176.0</ele><time>2026-05-03T10:39:35.076Z</time></trkpt><trkpt lat="46.0365932" lon="13.5899382"><ele>163.33333333333331</ele><time>2026-05-03T10:39:36.077Z</time></trkpt><trkpt lat="46.0366926" lon="13.5897439"><ele>150.66666666666666</ele><time>2026-05-03T10:39:37.092Z</time></trkpt><trkpt lat="46.0367952" lon="13.5895399"><ele>138.0</ele><time>2026-05-03T10:39:38.087Z</time></trkpt><trkpt lat="46.0369018" lon="13.58934"><ele>138.0</ele><time>2026-05-03T10:39:39.09Z</time></trkpt><trkpt lat="46.0370217" lon="13.5891581"><ele>138.0</ele><time>2026-05-03T10:39:40.083Z</time></trkpt><trkpt lat="46.0371594" lon="13.5889967"><ele>138.0</ele><time>2026-05-03T10:39:41.084Z</time></trkpt><trkpt lat="46.0372984" lon="13.5888592"><ele>138.0</ele><time>2026-05-03T10:39:42.079Z</time></trkpt><trkpt lat="46.0374358" lon="13.5887208"><ele>138.0</ele><time>2026-05-03T10:39:43.088Z</time></trkpt><trkpt lat="46.0375542" lon="13.5885645"><ele>138.0</ele><time>2026-05-03T10:39:44.091Z</time></trkpt><trkpt lat="46.0376566" lon="13.5883873"><ele>130.0</ele><time>2026-05-03T10:39:45.094Z</time></trkpt><trkpt lat="46.0377592" lon="13.5882145"><ele>122.0</ele><time>2026-05-03T10:39:46.082Z</time></trkpt><trkpt lat="46.0378811" lon="13.5880807"><ele>114.0</ele><time>2026-05-03T10:39:47.082Z</time></trkpt><trkpt lat="46.0380109" lon="13.5880048"><ele>114.0</ele><time>2026-05-03T10:39:48.078Z</time></trkpt><trkpt lat="46.038151" lon="13.5879731"><ele>114.0</ele><time>2026-05-03T10:39:49.073Z</time></trkpt><trkpt lat="46.0382954" lon="13.5879911"><ele>114.0</ele><time>2026-05-03T10:39:50.085Z</time></trkpt><trkpt lat="46.0384327" lon="13.5880295"><ele>114.0</ele><time>2026-05-03T10:39:51.086Z</time></trkpt><trkpt lat="46.0385785" lon="13.588073"><ele>108.75</ele><time>2026-05-03T10:39:52.091Z</time></trkpt><trkpt lat="46.0387263" lon="13.5880957"><ele>103.5</ele><time>2026-05-03T10:39:53.081Z</time></trkpt><trkpt lat="46.0388743" lon="13.5880921"><ele>98.25</ele><time>2026-05-03T10:39:54.086Z</time></trkpt><trkpt lat="46.0390248" lon="13.5880725"><ele>93.0</ele><time>2026-05-03T10:39:55.087Z</time></trkpt><trkpt lat="46.039179" lon="13.5880426"><ele>91.5</ele><time>2026-05-03T10:39:56.083Z</time></trkpt><trkpt lat="46.039327" lon="13.5880116"><ele>90.0</ele><time>2026-05-03T10:39:57.084Z</time></trkpt><trkpt lat="46.039473" lon="13.5879839"><ele>88.5</ele><time>2026-05-03T10:39:58.085Z</time></trkpt><trkpt lat="46.0396064" lon="13.5879667"><ele>87.0</ele><time>2026-05-03T10:39:59.097Z</time></trkpt><trkpt lat="46.0397313" lon="13.5879639"><ele>87.0</ele><time>2026-05-03T10:40:00.082Z</time></trkpt><trkpt lat="46.0398469" lon="13.587969"><ele>87.0</ele><time>2026-05-03T10:40:01.088Z</time></trkpt><trkpt lat="46.0399511" lon="13.5879804"><ele>87.0</ele><time>2026-05-03T10:40:02.091Z</time></trkpt><trkpt lat="46.0400447" lon="13.5880093"><ele>87.0</ele><time>2026-05-03T10:40:03.086Z</time></trkpt><trkpt lat="46.040129" lon="13.5880781"><ele>87.0</ele><time>2026-05-03T10:40:04.088Z</time></trkpt><trkpt lat="46.0401912" lon="13.588188"><ele>86.25</ele><time>2026-05-03T10:40:05.095Z</time></trkpt><trkpt lat="46.040239" lon="13.588325"><ele>85.5</ele><time>2026-05-03T10:40:06.092Z</time></trkpt><trkpt lat="46.040269" lon="13.5884869"><ele>84.75</ele><time>2026-05-03T10:40:07.091Z</time></trkpt><trkpt lat="46.0402748" lon="13.5886784"><ele>84.0</ele><time>2026-05-03T10:40:08.084Z</time></trkpt><trkpt lat="46.0402741" lon="13.5888634"><ele>83.80000000000001</ele><time>2026-05-03T10:40:09.103Z</time></trkpt><trkpt lat="46.0402793" lon="13.5890523"><ele>83.60000000000001</ele><time>2026-05-03T10:40:10.096Z</time></trkpt><trkpt lat="46.040288" lon="13.589231"><ele>83.4</ele><time>2026-05-03T10:40:11.099Z</time></trkpt><trkpt lat="46.0403088" lon="13.5893729"><ele>83.2</ele><time>2026-05-03T10:40:12.096Z</time></trkpt><trkpt lat="46.0403494" lon="13.5894791"><ele>83.0</ele><time>2026-05-03T10:40:13.095Z</time></trkpt><trkpt lat="46.0404063" lon="13.5895337"><ele>83.0</ele><time>2026-05-03T10:40:14.089Z</time></trkpt><trkpt lat="46.0404889" lon="13.589534"><ele>83.0</ele><time>2026-05-03T10:40:15.101Z</time></trkpt><trkpt lat="46.0405731" lon="13.5895105"><ele>83.0</ele><time>2026-05-03T10:40:16.085Z</time></trkpt><trkpt lat="46.0406468" lon="13.5894997"><ele>83.0</ele><time>2026-05-03T10:40:17.094Z</time></trkpt><trkpt lat="46.0407526" lon="13.5895871"><ele>83.0</ele><time>2026-05-03T10:40:19.098Z</time></trkpt><trkpt lat="46.0407771" lon="13.5896725"><ele>83.0</ele><time>2026-05-03T10:40:20.089Z</time></trkpt><trkpt lat="46.0407576" lon="13.5898229"><ele>83.0</ele><time>2026-05-03T10:40:22.098Z</time></trkpt><trkpt lat="46.0408219" lon="13.5897768"><ele>83.0</ele><time>2026-05-03T10:40:25.101Z</time></trkpt><trkpt lat="46.0408095" lon="13.5896856"><ele>83.0</ele><time>2026-05-03T10:40:26.091Z</time></trkpt><trkpt lat="46.0407787" lon="13.5896033"><ele>83.0</ele><time>2026-05-03T10:40:27.096Z</time></trkpt><trkpt lat="46.04071" lon="13.589534"><ele>83.0</ele><time>2026-05-03T10:40:28.086Z</time></trkpt><trkpt lat="46.0406049" lon="13.5895081"><ele>83.0</ele><time>2026-05-03T10:40:29.09Z</time></trkpt><trkpt lat="46.0405001" lon="13.589512"><ele>83.0</ele><time>2026-05-03T10:40:30.092Z</time></trkpt><trkpt lat="46.040406" lon="13.5895027"><ele>83.0</ele><time>2026-05-03T10:40:31.095Z</time></trkpt><trkpt lat="46.0403322" lon="13.589435"><ele>83.0</ele><time>2026-05-03T10:40:32.099Z</time></trkpt><trkpt lat="46.0403076" lon="13.5892966"><ele>83.0</ele><time>2026-05-03T10:40:33.093Z</time></trkpt><trkpt lat="46.0402954" lon="13.5891331"><ele>83.0</ele><time>2026-05-03T10:40:34.09Z</time></trkpt><trkpt lat="46.0402941" lon="13.5889456"><ele>83.0</ele><time>2026-05-03T10:40:35.092Z</time></trkpt><trkpt lat="46.0402886" lon="13.5887485"><ele>83.0</ele><time>2026-05-03T10:40:36.09Z</time></trkpt><trkpt lat="46.0402819" lon="13.5885562"><ele>83.0</ele><time>2026-05-03T10:40:37.103Z</time></trkpt><trkpt lat="46.0402635" lon="13.5883869"><ele>83.0</ele><time>2026-05-03T10:40:38.092Z</time></trkpt><trkpt lat="46.0402353" lon="13.5882378"><ele>83.16666666666667</ele><time>2026-05-03T10:40:39.097Z</time></trkpt><trkpt lat="46.0402205" lon="13.5881087"><ele>83.33333333333334</ele><time>2026-05-03T10:40:40.1Z</time></trkpt><trkpt lat="46.0402539" lon="13.5879928"><ele>83.5</ele><time>2026-05-03T10:40:41.102Z</time></trkpt><trkpt lat="46.0403086" lon="13.5879204"><ele>83.66666666666667</ele><time>2026-05-03T10:40:42.1Z</time></trkpt><trkpt lat="46.040371" lon="13.5878833"><ele>83.83333333333333</ele><time>2026-05-03T10:40:43.098Z</time></trkpt><trkpt lat="46.040457" lon="13.5878737"><ele>84.0</ele><time>2026-05-03T10:40:44.1Z</time></trkpt><trkpt lat="46.0405642" lon="13.5878917"><ele>84.0</ele><time>2026-05-03T10:40:45.097Z</time></trkpt><trkpt lat="46.0406846" lon="13.5878754"><ele>84.0</ele><time>2026-05-03T10:40:46.102Z</time></trkpt><trkpt lat="46.0408095" lon="13.5878601"><ele>84.0</ele><time>2026-05-03T10:40:47.104Z</time></trkpt><trkpt lat="46.0409364" lon="13.587841"><ele>84.0</ele><time>2026-05-03T10:40:48.102Z</time></trkpt><trkpt lat="46.0410615" lon="13.5878069"><ele>84.80000000000001</ele><time>2026-05-03T10:40:49.1Z</time></trkpt><trkpt lat="46.0411739" lon="13.5877506"><ele>85.60000000000001</ele><time>2026-05-03T10:40:50.115Z</time></trkpt><trkpt lat="46.0412783" lon="13.5876714"><ele>86.4</ele><time>2026-05-03T10:40:51.093Z</time></trkpt><trkpt lat="46.041376" lon="13.5876674"><ele>87.2</ele><time>2026-05-03T10:40:52.114Z</time></trkpt><trkpt lat="46.041468" lon="13.587746"><ele>88.0</ele><time>2026-05-03T10:40:53.104Z</time></trkpt><trkpt lat="46.0415414" lon="13.5878617"><ele>87.5</ele><time>2026-05-03T10:40:54.102Z</time></trkpt><trkpt lat="46.0416326" lon="13.5879755"><ele>87.0</ele><time>2026-05-03T10:40:55.1Z</time></trkpt><trkpt lat="46.0417382" lon="13.5880502"><ele>86.5</ele><time>2026-05-03T10:40:56.109Z</time></trkpt><trkpt lat="46.0418496" lon="13.5880861"><ele>86.0</ele><time>2026-05-03T10:40:57.091Z</time></trkpt><trkpt lat="46.041971" lon="13.5880873"><ele>86.0</ele><time>2026-05-03T10:40:58.097Z</time></trkpt><trkpt lat="46.0420909" lon="13.5880613"><ele>86.0</ele><time>2026-05-03T10:40:59.092Z</time></trkpt><trkpt lat="46.0422082" lon="13.5880395"><ele>86.0</ele><time>2026-05-03T10:41:00.087Z</time></trkpt><trkpt lat="46.0423264" lon="13.5880422"><ele>86.0</ele><time>2026-05-03T10:41:01.096Z</time></trkpt><trkpt lat="46.042439" lon="13.588095"><ele>88.0</ele><time>2026-05-03T10:41:02.102Z</time></trkpt><trkpt lat="46.0425638" lon="13.5881712"><ele>90.0</ele><time>2026-05-03T10:41:03.088Z</time></trkpt><trkpt lat="46.0426811" lon="13.5882548"><ele>92.0</ele><time>2026-05-03T10:41:04.105Z</time></trkpt><trkpt lat="46.0427858" lon="13.5883712"><ele>94.0</ele><time>2026-05-03T10:41:05.113Z</time></trkpt><trkpt lat="46.0428753" lon="13.5885003"><ele>94.0</ele><time>2026-05-03T10:41:06.105Z</time></trkpt><trkpt lat="46.0429685" lon="13.5886102"><ele>94.0</ele><time>2026-05-03T10:41:07.107Z</time></trkpt><trkpt lat="46.0430654" lon="13.5886915"><ele>94.0</ele><time>2026-05-03T10:41:08.1Z</time></trkpt><trkpt lat="46.0431677" lon="13.5887314"><ele>94.0</ele><time>2026-05-03T10:41:09.098Z</time></trkpt><trkpt lat="46.0432866" lon="13.5887403"><ele>94.0</ele><time>2026-05-03T10:41:10.097Z</time></trkpt><trkpt lat="46.0434161" lon="13.5887313"><ele>94.0</ele><time>2026-05-03T10:41:11.092Z</time></trkpt><trkpt lat="46.0435573" lon="13.5887244"><ele>94.0</ele><time>2026-05-03T10:41:12.109Z</time></trkpt><trkpt lat="46.0437043" lon="13.5887478"><ele>94.0</ele><time>2026-05-03T10:41:13.104Z</time></trkpt><trkpt lat="46.0438631" lon="13.5888093"><ele>94.0</ele><time>2026-05-03T10:41:14.099Z</time></trkpt><trkpt lat="46.0440227" lon="13.5888908"><ele>94.0</ele><time>2026-05-03T10:41:15.094Z</time></trkpt><trkpt lat="46.0441829" lon="13.5889744"><ele>94.0</ele><time>2026-05-03T10:41:16.108Z</time></trkpt><trkpt lat="46.0443453" lon="13.5890584"><ele>93.33333333333333</ele><time>2026-05-03T10:41:17.095Z</time></trkpt><trkpt lat="46.044511" lon="13.589142"><ele>92.66666666666667</ele><time>2026-05-03T10:41:18.1Z</time></trkpt><trkpt lat="46.0446713" lon="13.5892221"><ele>92.0</ele><time>2026-05-03T10:41:19.102Z</time></trkpt><trkpt lat="46.0448155" lon="13.589293"><ele>92.0</ele><time>2026-05-03T10:41:20.095Z</time></trkpt><trkpt lat="46.0449448" lon="13.5893663"><ele>92.0</ele><time>2026-05-03T10:41:21.112Z</time></trkpt><trkpt lat="46.045061" lon="13.5894618"><ele>92.0</ele><time>2026-05-03T10:41:22.095Z</time></trkpt><trkpt lat="46.0451629" lon="13.5895934"><ele>92.0</ele><time>2026-05-03T10:41:23.104Z</time></trkpt><trkpt lat="46.0452601" lon="13.589741"><ele>91.5</ele><time>2026-05-03T10:41:24.104Z</time></trkpt><trkpt lat="46.0453569" lon="13.589891"><ele>91.0</ele><time>2026-05-03T10:41:25.095Z</time></trkpt><trkpt lat="46.0454683" lon="13.5900086"><ele>90.5</ele><time>2026-05-03T10:41:26.098Z</time></trkpt><trkpt lat="46.0456165" lon="13.5901113"><ele>90.0</ele><time>2026-05-03T10:41:27.097Z</time></trkpt><trkpt lat="46.0457801" lon="13.5902151"><ele>88.66666666666667</ele><time>2026-05-03T10:41:28.092Z</time></trkpt><trkpt lat="46.0459434" lon="13.5903302"><ele>87.33333333333334</ele><time>2026-05-03T10:41:29.109Z</time></trkpt><trkpt lat="46.046107" lon="13.5904474"><ele>86.0</ele><time>2026-05-03T10:41:30.096Z</time></trkpt><trkpt lat="46.0462652" lon="13.5905625"><ele>86.0</ele><time>2026-05-03T10:41:31.103Z</time></trkpt><trkpt lat="46.0464167" lon="13.5906745"><ele>86.0</ele><time>2026-05-03T10:41:32.09Z</time></trkpt><trkpt lat="46.0465656" lon="13.5907837"><ele>86.0</ele><time>2026-05-03T10:41:33.093Z</time></trkpt><trkpt lat="46.0467111" lon="13.5908904"><ele>87.75</ele><time>2026-05-03T10:41:34.104Z</time></trkpt><trkpt lat="46.0468494" lon="13.590979"><ele>89.5</ele><time>2026-05-03T10:41:35.096Z</time></trkpt><trkpt lat="46.0469795" lon="13.5910387"><ele>91.25</ele><time>2026-05-03T10:41:36.103Z</time></trkpt><trkpt lat="46.047102" lon="13.5910692"><ele>93.0</ele><time>2026-05-03T10:41:37.102Z</time></trkpt><trkpt lat="46.047215" lon="13.5911045"><ele>93.0</ele><time>2026-05-03T10:41:38.096Z</time></trkpt><trkpt lat="46.0473026" lon="13.59117"><ele>93.0</ele><time>2026-05-03T10:41:39.103Z</time></trkpt><trkpt lat="46.0473604" lon="13.591236"><ele>93.0</ele><time>2026-05-03T10:41:40.109Z</time></trkpt><trkpt lat="46.0474256" lon="13.5913382"><ele>93.0</ele><time>2026-05-03T10:41:42.101Z</time></trkpt><trkpt lat="46.0475006" lon="13.5913353"><ele>93.0</ele><time>2026-05-03T10:41:44.095Z</time></trkpt><trkpt lat="46.0475645" lon="13.59131"><ele>93.0</ele><time>2026-05-03T10:41:46.098Z</time></trkpt><trkpt lat="46.047639" lon="13.5912669"><ele>93.16666666666667</ele><time>2026-05-03T10:41:49.106Z</time></trkpt><trkpt lat="46.0477426" lon="13.5911986"><ele>93.33333333333333</ele><time>2026-05-03T10:41:51.109Z</time></trkpt><trkpt lat="46.0478094" lon="13.5911566"><ele>93.5</ele><time>2026-05-03T10:41:52.111Z</time></trkpt><trkpt lat="46.0478766" lon="13.5911224"><ele>93.66666666666666</ele><time>2026-05-03T10:41:53.107Z</time></trkpt><trkpt lat="46.0479399" lon="13.5910911"><ele>93.83333333333333</ele><time>2026-05-03T10:41:54.112Z</time></trkpt><trkpt lat="46.0480008" lon="13.5910664"><ele>94.0</ele><time>2026-05-03T10:41:55.12Z</time></trkpt><trkpt lat="46.0481232" lon="13.5910386"><ele>94.0</ele><time>2026-05-03T10:41:57.117Z</time></trkpt><trkpt lat="46.0481915" lon="13.5910506"><ele>94.0</ele><time>2026-05-03T10:41:58.114Z</time></trkpt><trkpt lat="46.0482991" lon="13.5911079"><ele>94.0</ele><time>2026-05-03T10:42:00.101Z</time></trkpt><trkpt lat="46.0483797" lon="13.5911289"><ele>94.0</ele><time>2026-05-03T10:42:02.099Z</time></trkpt><trkpt lat="46.048447" lon="13.5910667"><ele>94.0</ele><time>2026-05-03T10:42:04.094Z</time></trkpt><trkpt lat="46.0484971" lon="13.5909514"><ele>94.0</ele><time>2026-05-03T10:42:06.085Z</time></trkpt><trkpt lat="46.0485287" lon="13.5908193"><ele>94.0</ele><time>2026-05-03T10:42:08.088Z</time></trkpt><trkpt lat="46.0484455" lon="13.5907004"><ele>94.0</ele><time>2026-05-03T10:42:10.071Z</time></trkpt><trkpt lat="46.048373" lon="13.5906479"><ele>94.0</ele><time>2026-05-03T10:42:11.085Z</time></trkpt><trkpt lat="46.048298" lon="13.5906024"><ele>94.0</ele><time>2026-05-03T10:42:12.072Z</time></trkpt><trkpt lat="46.0482305" lon="13.5905704"><ele>94.0</ele><time>2026-05-03T10:42:13.085Z</time></trkpt><trkpt lat="46.0481145" lon="13.5905167"><ele>94.0</ele><time>2026-05-03T10:42:15.091Z</time></trkpt><trkpt lat="46.0480471" lon="13.5904792"><ele>94.0</ele><time>2026-05-03T10:42:16.098Z</time></trkpt><trkpt lat="46.047965" lon="13.5904367"><ele>94.0</ele><time>2026-05-03T10:42:17.103Z</time></trkpt><trkpt lat="46.0478775" lon="13.5903812"><ele>94.0</ele><time>2026-05-03T10:42:18.101Z</time></trkpt><trkpt lat="46.0477915" lon="13.5903138"><ele>94.0</ele><time>2026-05-03T10:42:19.101Z</time></trkpt><trkpt lat="46.0477151" lon="13.5902337"><ele>94.0</ele><time>2026-05-03T10:42:20.111Z</time></trkpt><trkpt lat="46.0476555" lon="13.590123"><ele>96.0</ele><time>2026-05-03T10:42:21.107Z</time></trkpt><trkpt lat="46.0476015" lon="13.5900061"><ele>98.0</ele><time>2026-05-03T10:42:22.109Z</time></trkpt><trkpt lat="46.0475527" lon="13.5898934"><ele>100.0</ele><time>2026-05-03T10:42:23.109Z</time></trkpt><trkpt lat="46.0475345" lon="13.5898038"><ele>102.0</ele><time>2026-05-03T10:42:24.109Z</time></trkpt><trkpt lat="46.0475624" lon="13.589697"><ele>104.00000000000001</ele><time>2026-05-03T10:42:25.095Z</time></trkpt><trkpt lat="46.0476274" lon="13.5895844"><ele>106.0</ele><time>2026-05-03T10:42:26.095Z</time></trkpt><trkpt lat="46.047699" lon="13.5894464"><ele>109.5</ele><time>2026-05-03T10:42:27.1Z</time></trkpt><trkpt lat="46.0477677" lon="13.5892876"><ele>113.0</ele><time>2026-05-03T10:42:28.096Z</time></trkpt><trkpt lat="46.0478338" lon="13.5891204"><ele>116.5</ele><time>2026-05-03T10:42:29.1Z</time></trkpt><trkpt lat="46.0479036" lon="13.5889526"><ele>120.0</ele><time>2026-05-03T10:42:30.1Z</time></trkpt><trkpt lat="46.0479827" lon="13.5887797"><ele>122.0</ele><time>2026-05-03T10:42:31.093Z</time></trkpt><trkpt lat="46.0480743" lon="13.5886142"><ele>124.0</ele><time>2026-05-03T10:42:32.102Z</time></trkpt><trkpt lat="46.048172" lon="13.5884515"><ele>126.0</ele><time>2026-05-03T10:42:33.1Z</time></trkpt><trkpt lat="46.0482725" lon="13.5882909"><ele>128.0</ele><time>2026-05-03T10:42:34.092Z</time></trkpt><trkpt lat="46.0483796" lon="13.5881333"><ele>128.0</ele><time>2026-05-03T10:42:35.087Z</time></trkpt><trkpt lat="46.0484736" lon="13.5879788"><ele>128.0</ele><time>2026-05-03T10:42:36.092Z</time></trkpt><trkpt lat="46.0485499" lon="13.5878104"><ele>128.0</ele><time>2026-05-03T10:42:37.091Z</time></trkpt><trkpt lat="46.0486162" lon="13.5876431"><ele>128.0</ele><time>2026-05-03T10:42:38.093Z</time></trkpt><trkpt lat="46.0486729" lon="13.5874955"><ele>130.0</ele><time>2026-05-03T10:42:39.086Z</time></trkpt><trkpt lat="46.0487406" lon="13.5873996"><ele>132.0</ele><time>2026-05-03T10:42:40.107Z</time></trkpt><trkpt lat="46.0488301" lon="13.587324"><ele>134.0</ele><time>2026-05-03T10:42:41.081Z</time></trkpt><trkpt lat="46.048921" lon="13.5872458"><ele>136.0</ele><time>2026-05-03T10:42:42.089Z</time></trkpt><trkpt lat="46.0490233" lon="13.5871521"><ele>138.0</ele><time>2026-05-03T10:42:43.092Z</time></trkpt><trkpt lat="46.049127" lon="13.5870335"><ele>139.25</ele><time>2026-05-03T10:42:44.084Z</time></trkpt><trkpt lat="46.0492362" lon="13.5869107"><ele>140.5</ele><time>2026-05-03T10:42:45.101Z</time></trkpt><trkpt lat="46.0493435" lon="13.5867904"><ele>141.75</ele><time>2026-05-03T10:42:46.1Z</time></trkpt><trkpt lat="46.0494436" lon="13.5866526"><ele>143.0</ele><time>2026-05-03T10:42:47.09Z</time></trkpt><trkpt lat="46.0495324" lon="13.5865176"><ele>143.0</ele><time>2026-05-03T10:42:48.095Z</time></trkpt><trkpt lat="46.0496169" lon="13.586374"><ele>143.0</ele><time>2026-05-03T10:42:49.091Z</time></trkpt><trkpt lat="46.049694" lon="13.5862262"><ele>143.0</ele><time>2026-05-03T10:42:50.1Z</time></trkpt><trkpt lat="46.0497465" lon="13.5860894"><ele>143.0</ele><time>2026-05-03T10:42:51.087Z</time></trkpt><trkpt lat="46.0497726" lon="13.5859776"><ele>143.0</ele><time>2026-05-03T10:42:52.105Z</time></trkpt><trkpt lat="46.0497918" lon="13.5858912"><ele>143.0</ele><time>2026-05-03T10:42:53.094Z</time></trkpt><trkpt lat="46.0498509" lon="13.585961"><ele>143.0</ele><time>2026-05-03T10:42:56.08Z</time></trkpt><trkpt lat="46.0498167" lon="13.5860751"><ele>143.0</ele><time>2026-05-03T10:42:57.083Z</time></trkpt><trkpt lat="46.0497652" lon="13.5862108"><ele>143.0</ele><time>2026-05-03T10:42:58.079Z</time></trkpt><trkpt lat="46.0497291" lon="13.5863704"><ele>143.0</ele><time>2026-05-03T10:42:59.09Z</time></trkpt><trkpt lat="46.049702" lon="13.5865491"><ele>143.0</ele><time>2026-05-03T10:43:00.096Z</time></trkpt><trkpt lat="46.0496682" lon="13.5867258"><ele>143.0</ele><time>2026-05-03T10:43:01.085Z</time></trkpt><trkpt lat="46.0496211" lon="13.5868797"><ele>143.0</ele><time>2026-05-03T10:43:02.089Z</time></trkpt><trkpt lat="46.0495487" lon="13.5869888"><ele>143.0</ele><time>2026-05-03T10:43:03.086Z</time></trkpt><trkpt lat="46.0494794" lon="13.5870734"><ele>143.0</ele><time>2026-05-03T10:43:04.081Z</time></trkpt><trkpt lat="46.0494356" lon="13.5871461"><ele>143.0</ele><time>2026-05-03T10:43:05.092Z</time></trkpt><trkpt lat="46.0494667" lon="13.5872666"><ele>143.0</ele><time>2026-05-03T10:43:07.083Z</time></trkpt><trkpt lat="46.049531" lon="13.5872583"><ele>143.0</ele><time>2026-05-03T10:43:08.094Z</time></trkpt><trkpt lat="46.0496017" lon="13.5871862"><ele>143.0</ele><time>2026-05-03T10:43:09.095Z</time></trkpt><trkpt lat="46.0496708" lon="13.5870941"><ele>143.0</ele><time>2026-05-03T10:43:10.097Z</time></trkpt><trkpt lat="46.0497423" lon="13.5869793"><ele>143.0</ele><time>2026-05-03T10:43:11.099Z</time></trkpt><trkpt lat="46.0498109" lon="13.5868316"><ele>143.0</ele><time>2026-05-03T10:43:12.084Z</time></trkpt><trkpt lat="46.0498735" lon="13.5866705"><ele>143.0</ele><time>2026-05-03T10:43:13.092Z</time></trkpt><trkpt lat="46.0499298" lon="13.5865059"><ele>143.0</ele><time>2026-05-03T10:43:14.098Z</time></trkpt><trkpt lat="46.0499921" lon="13.5863497"><ele>143.0</ele><time>2026-05-03T10:43:15.1Z</time></trkpt><trkpt lat="46.0500698" lon="13.5862279"><ele>144.5</ele><time>2026-05-03T10:43:16.105Z</time></trkpt><trkpt lat="46.0501645" lon="13.5861473"><ele>146.0</ele><time>2026-05-03T10:43:17.102Z</time></trkpt><trkpt lat="46.050273" lon="13.5860839"><ele>147.5</ele><time>2026-05-03T10:43:18.113Z</time></trkpt><trkpt lat="46.0503878" lon="13.5860238"><ele>149.0</ele><time>2026-05-03T10:43:19.097Z</time></trkpt><trkpt lat="46.0504975" lon="13.5859534"><ele>149.0</ele><time>2026-05-03T10:43:20.111Z</time></trkpt><trkpt lat="46.0505917" lon="13.5858537"><ele>149.0</ele><time>2026-05-03T10:43:21.103Z</time></trkpt><trkpt lat="46.0506764" lon="13.5857363"><ele>149.0</ele><time>2026-05-03T10:43:22.092Z</time></trkpt><trkpt lat="46.050754" lon="13.5856288"><ele>149.0</ele><time>2026-05-03T10:43:23.088Z</time></trkpt><trkpt lat="46.0508276" lon="13.5855253"><ele>149.0</ele><time>2026-05-03T10:43:24.114Z</time></trkpt><trkpt lat="46.0508949" lon="13.5854191"><ele>151.16666666666666</ele><time>2026-05-03T10:43:25.097Z</time></trkpt><trkpt lat="46.050941" lon="13.5853105"><ele>153.33333333333331</ele><time>2026-05-03T10:43:26.094Z</time></trkpt><trkpt lat="46.0509563" lon="13.585193"><ele>155.5</ele><time>2026-05-03T10:43:27.089Z</time></trkpt><trkpt lat="46.0509657" lon="13.585088"><ele>157.66666666666666</ele><time>2026-05-03T10:43:28.093Z</time></trkpt><trkpt lat="46.0510114" lon="13.5849759"><ele>159.83333333333334</ele><time>2026-05-03T10:43:30.096Z</time></trkpt><trkpt lat="46.0511132" lon="13.585048"><ele>162.0</ele><time>2026-05-03T10:43:32.092Z</time></trkpt><trkpt lat="46.0511042" lon="13.5852305"><ele>162.0</ele><time>2026-05-03T10:43:34.085Z</time></trkpt><trkpt lat="46.0510726" lon="13.5853406"><ele>162.0</ele><time>2026-05-03T10:43:35.089Z</time></trkpt><trkpt lat="46.0510391" lon="13.5854543"><ele>162.0</ele><time>2026-05-03T10:43:36.089Z</time></trkpt><trkpt lat="46.0509971" lon="13.5855729"><ele>162.0</ele><time>2026-05-03T10:43:37.088Z</time></trkpt><trkpt lat="46.050945" lon="13.5856976"><ele>162.0</ele><time>2026-05-03T10:43:38.083Z</time></trkpt><trkpt lat="46.0508877" lon="13.5858247"><ele>161.4</ele><time>2026-05-03T10:43:39.09Z</time></trkpt><trkpt lat="46.0508273" lon="13.5859533"><ele>160.79999999999998</ele><time>2026-05-03T10:43:40.095Z</time></trkpt><trkpt lat="46.0507712" lon="13.5860969"><ele>160.2</ele><time>2026-05-03T10:43:41.094Z</time></trkpt><trkpt lat="46.0507238" lon="13.5862266"><ele>159.6</ele><time>2026-05-03T10:43:42.096Z</time></trkpt><trkpt lat="46.050695" lon="13.5863387"><ele>159.0</ele><time>2026-05-03T10:43:43.102Z</time></trkpt><trkpt lat="46.0506847" lon="13.5864364"><ele>159.0</ele><time>2026-05-03T10:43:44.096Z</time></trkpt><trkpt lat="46.0507539" lon="13.5865153"><ele>159.0</ele><time>2026-05-03T10:43:46.103Z</time></trkpt><trkpt lat="46.050835" lon="13.5863637"><ele>159.0</ele><time>2026-05-03T10:43:48.102Z</time></trkpt><trkpt lat="46.0508814" lon="13.5862444"><ele>159.0</ele><time>2026-05-03T10:43:49.088Z</time></trkpt><trkpt lat="46.0509488" lon="13.5861315"><ele>159.0</ele><time>2026-05-03T10:43:50.095Z</time></trkpt><trkpt lat="46.0510439" lon="13.5860224"><ele>162.2</ele><time>2026-05-03T10:43:51.093Z</time></trkpt><trkpt lat="46.0511418" lon="13.5859184"><ele>165.4</ele><time>2026-05-03T10:43:52.095Z</time></trkpt><trkpt lat="46.0512218" lon="13.5858011"><ele>168.6</ele><time>2026-05-03T10:43:53.087Z</time></trkpt><trkpt lat="46.0512766" lon="13.5856663"><ele>171.8</ele><time>2026-05-03T10:43:54.092Z</time></trkpt><trkpt lat="46.0513142" lon="13.5855374"><ele>175.0</ele><time>2026-05-03T10:43:55.093Z</time></trkpt><trkpt lat="46.0513467" lon="13.5854359"><ele>175.0</ele><time>2026-05-03T10:43:56.102Z</time></trkpt><trkpt lat="46.0514312" lon="13.5853993"><ele>175.0</ele><time>2026-05-03T10:43:58.096Z</time></trkpt><trkpt lat="46.0514239" lon="13.5855628"><ele>175.0</ele><time>2026-05-03T10:44:00.098Z</time></trkpt><trkpt lat="46.0513781" lon="13.5856746"><ele>175.0</ele><time>2026-05-03T10:44:01.095Z</time></trkpt><trkpt lat="46.0513223" lon="13.5858312"><ele>175.0</ele><time>2026-05-03T10:44:02.08Z</time></trkpt><trkpt lat="46.051258" lon="13.586001"><ele>175.0</ele><time>2026-05-03T10:44:03.099Z</time></trkpt><trkpt lat="46.0512003" lon="13.5861653"><ele>175.0</ele><time>2026-05-03T10:44:04.104Z</time></trkpt><trkpt lat="46.0511424" lon="13.5863023"><ele>175.0</ele><time>2026-05-03T10:44:05.102Z</time></trkpt><trkpt lat="46.0510996" lon="13.5864191"><ele>175.0</ele><time>2026-05-03T10:44:06.098Z</time></trkpt><trkpt lat="46.0510872" lon="13.586531"><ele>175.0</ele><time>2026-05-03T10:44:07.093Z</time></trkpt><trkpt lat="46.0510923" lon="13.5866396"><ele>176.8</ele><time>2026-05-03T10:44:08.092Z</time></trkpt><trkpt lat="46.0511156" lon="13.5867744"><ele>178.6</ele><time>2026-05-03T10:44:09.096Z</time></trkpt><trkpt lat="46.0511513" lon="13.5869189"><ele>180.39999999999998</ele><time>2026-05-03T10:44:10.086Z</time></trkpt><trkpt lat="46.0511845" lon="13.5870639"><ele>182.2</ele><time>2026-05-03T10:44:11.098Z</time></trkpt><trkpt lat="46.0511856" lon="13.5871942"><ele>184.0</ele><time>2026-05-03T10:44:12.091Z</time></trkpt><trkpt lat="46.0511496" lon="13.5873199"><ele>185.39999999999998</ele><time>2026-05-03T10:44:13.087Z</time></trkpt><trkpt lat="46.051097" lon="13.5874477"><ele>186.8</ele><time>2026-05-03T10:44:14.089Z</time></trkpt><trkpt lat="46.051049" lon="13.5875783"><ele>188.2</ele><time>2026-05-03T10:44:15.091Z</time></trkpt><trkpt lat="46.0510104" lon="13.5877088"><ele>189.60000000000002</ele><time>2026-05-03T10:44:16.093Z</time></trkpt><trkpt lat="46.0509844" lon="13.5878355"><ele>191.0</ele><time>2026-05-03T10:44:17.104Z</time></trkpt><trkpt lat="46.0509696" lon="13.5879627"><ele>193.60000000000002</ele><time>2026-05-03T10:44:18.098Z</time></trkpt><trkpt lat="46.0509711" lon="13.5880955"><ele>196.2</ele><time>2026-05-03T10:44:19.099Z</time></trkpt><trkpt lat="46.0509927" lon="13.5882493"><ele>198.8</ele><time>2026-05-03T10:44:20.095Z</time></trkpt><trkpt lat="46.0510101" lon="13.5883942"><ele>201.39999999999998</ele><time>2026-05-03T10:44:21.1Z</time></trkpt><trkpt lat="46.0510068" lon="13.5885172"><ele>204.0</ele><time>2026-05-03T10:44:22.104Z</time></trkpt><trkpt lat="46.0509766" lon="13.5886024"><ele>204.0</ele><time>2026-05-03T10:44:23.103Z</time></trkpt><trkpt lat="46.0509485" lon="13.588724"><ele>204.0</ele><time>2026-05-03T10:44:25.109Z</time></trkpt><trkpt lat="46.0510143" lon="13.5887451"><ele>204.0</ele><time>2026-05-03T10:44:27.1Z</time></trkpt><trkpt lat="46.0510938" lon="13.5886473"><ele>204.0</ele><time>2026-05-03T10:44:29.094Z</time></trkpt><trkpt lat="46.051129" lon="13.5884575"><ele>204.0</ele><time>2026-05-03T10:44:31.093Z</time></trkpt><trkpt lat="46.0511503" lon="13.5883378"><ele>204.0</ele><time>2026-05-03T10:44:32.095Z</time></trkpt><trkpt lat="46.0511811" lon="13.5882031"><ele>204.0</ele><time>2026-05-03T10:44:33.097Z</time></trkpt><trkpt lat="46.0512347" lon="13.5880744"><ele>204.0</ele><time>2026-05-03T10:44:34.094Z</time></trkpt><trkpt lat="46.0512969" lon="13.5879666"><ele>204.0</ele><time>2026-05-03T10:44:35.095Z</time></trkpt><trkpt lat="46.0513759" lon="13.5878933"><ele>204.0</ele><time>2026-05-03T10:44:36.098Z</time></trkpt><trkpt lat="46.0514784" lon="13.5878268"><ele>200.75</ele><time>2026-05-03T10:44:37.101Z</time></trkpt><trkpt lat="46.0515784" lon="13.5877497"><ele>197.5</ele><time>2026-05-03T10:44:38.105Z</time></trkpt><trkpt lat="46.051673" lon="13.5876542"><ele>194.25</ele><time>2026-05-03T10:44:39.113Z</time></trkpt><trkpt lat="46.0517565" lon="13.5875388"><ele>191.0</ele><time>2026-05-03T10:44:40.103Z</time></trkpt><trkpt lat="46.0518312" lon="13.5873996"><ele>197.0</ele><time>2026-05-03T10:44:41.103Z</time></trkpt><trkpt lat="46.0519161" lon="13.5872701"><ele>203.0</ele><time>2026-05-03T10:44:42.107Z</time></trkpt><trkpt lat="46.0520116" lon="13.5871393"><ele>209.0</ele><time>2026-05-03T10:44:43.107Z</time></trkpt><trkpt lat="46.052093" lon="13.5870169"><ele>215.0</ele><time>2026-05-03T10:44:44.106Z</time></trkpt><trkpt lat="46.052149" lon="13.5869041"><ele>215.00000000000003</ele><time>2026-05-03T10:44:45.103Z</time></trkpt><trkpt lat="46.0521852" lon="13.5868032"><ele>215.0</ele><time>2026-05-03T10:44:46.107Z</time></trkpt><trkpt lat="46.05221" lon="13.5866954"><ele>215.0</ele><time>2026-05-03T10:44:47.109Z</time></trkpt><trkpt lat="46.0522277" lon="13.5865942"><ele>215.0</ele><time>2026-05-03T10:44:48.105Z</time></trkpt><trkpt lat="46.0522732" lon="13.5864776"><ele>215.00000000000003</ele><time>2026-05-03T10:44:50.097Z</time></trkpt><trkpt lat="46.0523809" lon="13.5864226"><ele>215.0</ele><time>2026-05-03T10:44:52.103Z</time></trkpt><trkpt lat="46.0524879" lon="13.5864354"><ele>215.00000000000003</ele><time>2026-05-03T10:44:54.095Z</time></trkpt><trkpt lat="46.0525372" lon="13.5865247"><ele>215.0</ele><time>2026-05-03T10:44:56.105Z</time></trkpt><trkpt lat="46.0525135" lon="13.5866335"><ele>215.0</ele><time>2026-05-03T10:44:58.1Z</time></trkpt><trkpt lat="46.0524673" lon="13.5867105"><ele>215.0</ele><time>2026-05-03T10:44:59.091Z</time></trkpt><trkpt lat="46.0523983" lon="13.5868287"><ele>215.00000000000003</ele><time>2026-05-03T10:45:00.094Z</time></trkpt><trkpt lat="46.05235" lon="13.5869355"><ele>215.0</ele><time>2026-05-03T10:45:01.113Z</time></trkpt><trkpt lat="46.0523163" lon="13.5870628"><ele>216.25</ele><time>2026-05-03T10:45:02.105Z</time></trkpt><trkpt lat="46.052294" lon="13.5872138"><ele>217.5</ele><time>2026-05-03T10:45:03.101Z</time></trkpt><trkpt lat="46.0522638" lon="13.5873877"><ele>218.75</ele><time>2026-05-03T10:45:04.099Z</time></trkpt><trkpt lat="46.0522246" lon="13.5875693"><ele>220.0</ele><time>2026-05-03T10:45:05.1Z</time></trkpt><trkpt lat="46.0521829" lon="13.5877498"><ele>222.5</ele><time>2026-05-03T10:45:06.106Z</time></trkpt><trkpt lat="46.0521356" lon="13.5879275"><ele>225.0</ele><time>2026-05-03T10:45:07.1Z</time></trkpt><trkpt lat="46.0520795" lon="13.5880932"><ele>227.5</ele><time>2026-05-03T10:45:08.105Z</time></trkpt><trkpt lat="46.0520217" lon="13.5882532"><ele>230.0</ele><time>2026-05-03T10:45:09.096Z</time></trkpt><trkpt lat="46.0519782" lon="13.5884104"><ele>230.00000000000003</ele><time>2026-05-03T10:45:10.109Z</time></trkpt><trkpt lat="46.0519474" lon="13.5885377"><ele>230.0</ele><time>2026-05-03T10:45:11.095Z</time></trkpt><trkpt lat="46.0519231" lon="13.5886574"><ele>230.0</ele><time>2026-05-03T10:45:12.089Z</time></trkpt><trkpt lat="46.0519068" lon="13.5887586"><ele>230.0</ele><time>2026-05-03T10:45:14.113Z</time></trkpt><trkpt lat="46.0520047" lon="13.5887343"><ele>230.00000000000003</ele><time>2026-05-03T10:45:17.101Z</time></trkpt><trkpt lat="46.0520309" lon="13.5886475"><ele>230.0</ele><time>2026-05-03T10:45:18.093Z</time></trkpt><trkpt lat="46.0520563" lon="13.5885372"><ele>230.0</ele><time>2026-05-03T10:45:19.098Z</time></trkpt><trkpt lat="46.0520876" lon="13.5884278"><ele>230.0</ele><time>2026-05-03T10:45:20.108Z</time></trkpt><trkpt lat="46.0521381" lon="13.5883165"><ele>230.0</ele><time>2026-05-03T10:45:21.108Z</time></trkpt><trkpt lat="46.0522165" lon="13.5882248"><ele>230.0</ele><time>2026-05-03T10:45:22.096Z</time></trkpt><trkpt lat="46.052317" lon="13.5881277"><ele>230.0</ele><time>2026-05-03T10:45:23.098Z</time></trkpt><trkpt lat="46.0524229" lon="13.5880132"><ele>235.0</ele><time>2026-05-03T10:45:24.11Z</time></trkpt><trkpt lat="46.0525322" lon="13.5878984"><ele>240.0</ele><time>2026-05-03T10:45:25.095Z</time></trkpt><trkpt lat="46.0526279" lon="13.5877925"><ele>245.0</ele><time>2026-05-03T10:45:26.104Z</time></trkpt><trkpt lat="46.0527105" lon="13.5876877"><ele>250.0</ele><time>2026-05-03T10:45:27.106Z</time></trkpt><trkpt lat="46.0527946" lon="13.5875627"><ele>250.0</ele><time>2026-05-03T10:45:28.106Z</time></trkpt><trkpt lat="46.0528763" lon="13.5874335"><ele>250.0</ele><time>2026-05-03T10:45:29.101Z</time></trkpt><trkpt lat="46.052956" lon="13.5873043"><ele>250.0</ele><time>2026-05-03T10:45:30.107Z</time></trkpt><trkpt lat="46.0530439" lon="13.5871774"><ele>250.0</ele><time>2026-05-03T10:45:31.104Z</time></trkpt><trkpt lat="46.0531436" lon="13.5870488"><ele>247.5</ele><time>2026-05-03T10:45:32.11Z</time></trkpt><trkpt lat="46.053248" lon="13.5869205"><ele>245.0</ele><time>2026-05-03T10:45:33.087Z</time></trkpt><trkpt lat="46.0533638" lon="13.5867947"><ele>242.5</ele><time>2026-05-03T10:45:34.107Z</time></trkpt><trkpt lat="46.0534798" lon="13.586665"><ele>240.0</ele><time>2026-05-03T10:45:35.089Z</time></trkpt><trkpt lat="46.053588" lon="13.5865459"><ele>246.0</ele><time>2026-05-03T10:45:36.098Z</time></trkpt><trkpt lat="46.0536761" lon="13.5864323"><ele>252.0</ele><time>2026-05-03T10:45:37.097Z</time></trkpt><trkpt lat="46.0537544" lon="13.5863146"><ele>258.0</ele><time>2026-05-03T10:45:38.105Z</time></trkpt><trkpt lat="46.0538181" lon="13.5861802"><ele>264.0</ele><time>2026-05-03T10:45:39.103Z</time></trkpt><trkpt lat="46.0538679" lon="13.5860238"><ele>264.0</ele><time>2026-05-03T10:45:40.107Z</time></trkpt><trkpt lat="46.0539141" lon="13.585872"><ele>264.0</ele><time>2026-05-03T10:45:41.087Z</time></trkpt><trkpt lat="46.0539397" lon="13.5857416"><ele>264.0</ele><time>2026-05-03T10:45:42.099Z</time></trkpt><trkpt lat="46.0539472" lon="13.5856284"><ele>264.0</ele><time>2026-05-03T10:45:43.095Z</time></trkpt><trkpt lat="46.053947" lon="13.5854918"><ele>264.0</ele><time>2026-05-03T10:45:44.117Z</time></trkpt><trkpt lat="46.0539514" lon="13.5853479"><ele>264.0</ele><time>2026-05-03T10:45:45.106Z</time></trkpt><trkpt lat="46.0539624" lon="13.5851893"><ele>264.0</ele><time>2026-05-03T10:45:46.098Z</time></trkpt><trkpt lat="46.053969" lon="13.5850229"><ele>264.0</ele><time>2026-05-03T10:45:47.101Z</time></trkpt><trkpt lat="46.0539561" lon="13.5848696"><ele>264.0</ele><time>2026-05-03T10:45:48.095Z</time></trkpt><trkpt lat="46.053933" lon="13.5847162"><ele>264.0</ele><time>2026-05-03T10:45:49.104Z</time></trkpt><trkpt lat="46.0539084" lon="13.5845836"><ele>264.0</ele><time>2026-05-03T10:45:50.094Z</time></trkpt><trkpt lat="46.0538932" lon="13.5844783"><ele>264.0</ele><time>2026-05-03T10:45:51.114Z</time></trkpt><trkpt lat="46.0539198" lon="13.5843506"><ele>264.0</ele><time>2026-05-03T10:45:53.094Z</time></trkpt><trkpt lat="46.0539664" lon="13.5844249"><ele>264.0</ele><time>2026-05-03T10:45:57.098Z</time></trkpt><trkpt lat="46.0539623" lon="13.5845261"><ele>264.0</ele><time>2026-05-03T10:45:58.093Z</time></trkpt><trkpt lat="46.0539821" lon="13.5846492"><ele>264.0</ele><time>2026-05-03T10:45:59.085Z</time></trkpt><trkpt lat="46.0540206" lon="13.5847883"><ele>264.0</ele><time>2026-05-03T10:46:00.097Z</time></trkpt><trkpt lat="46.0540668" lon="13.5849222"><ele>264.0</ele><time>2026-05-03T10:46:01.098Z</time></trkpt><trkpt lat="46.0541242" lon="13.5850712"><ele>264.0</ele><time>2026-05-03T10:46:02.099Z</time></trkpt><trkpt lat="46.0541877" lon="13.5852247"><ele>264.0</ele><time>2026-05-03T10:46:03.102Z</time></trkpt><trkpt lat="46.0542533" lon="13.5853936"><ele>271.4</ele><time>2026-05-03T10:46:04.111Z</time></trkpt><trkpt lat="46.0543159" lon="13.5855582"><ele>278.79999999999995</ele><time>2026-05-03T10:46:05.093Z</time></trkpt><trkpt lat="46.054375" lon="13.5857048"><ele>286.20000000000005</ele><time>2026-05-03T10:46:06.09Z</time></trkpt><trkpt lat="46.0544017" lon="13.5858261"><ele>293.6</ele><time>2026-05-03T10:46:07.099Z</time></trkpt><trkpt lat="46.0544058" lon="13.5859637"><ele>301.0</ele><time>2026-05-03T10:46:08.106Z</time></trkpt><trkpt lat="46.0544021" lon="13.5861294"><ele>303.0</ele><time>2026-05-03T10:46:09.076Z</time></trkpt><trkpt lat="46.0544113" lon="13.5863034"><ele>305.0</ele><time>2026-05-03T10:46:10.097Z</time></trkpt><trkpt lat="46.0544179" lon="13.5864657"><ele>307.0</ele><time>2026-05-03T10:46:11.103Z</time></trkpt><trkpt lat="46.0544154" lon="13.5866295"><ele>309.0</ele><time>2026-05-03T10:46:12.099Z</time></trkpt><trkpt lat="46.054392" lon="13.5867879"><ele>309.0</ele><time>2026-05-03T10:46:13.1Z</time></trkpt><trkpt lat="46.0543392" lon="13.5869598"><ele>309.0</ele><time>2026-05-03T10:46:14.091Z</time></trkpt><trkpt lat="46.0542745" lon="13.5871414"><ele>309.0</ele><time>2026-05-03T10:46:15.093Z</time></trkpt><trkpt lat="46.0542102" lon="13.5873494"><ele>309.0</ele><time>2026-05-03T10:46:16.091Z</time></trkpt><trkpt lat="46.0541458" lon="13.5875565"><ele>306.75</ele><time>2026-05-03T10:46:17.093Z</time></trkpt><trkpt lat="46.05409" lon="13.5877345"><ele>304.5</ele><time>2026-05-03T10:46:18.081Z</time></trkpt><trkpt lat="46.0540441" lon="13.5878971"><ele>302.25</ele><time>2026-05-03T10:46:19.101Z</time></trkpt><trkpt lat="46.054001" lon="13.5880449"><ele>300.0</ele><time>2026-05-03T10:46:20.092Z</time></trkpt><trkpt lat="46.05397" lon="13.5881876"><ele>300.0</ele><time>2026-05-03T10:46:21.093Z</time></trkpt><trkpt lat="46.0539533" lon="13.5882787"><ele>300.0</ele><time>2026-05-03T10:46:22.09Z</time></trkpt><trkpt lat="46.0540034" lon="13.5883747"><ele>300.0</ele><time>2026-05-03T10:46:25.095Z</time></trkpt><trkpt lat="46.0540635" lon="13.5883013"><ele>300.0</ele><time>2026-05-03T10:46:27.09Z</time></trkpt><trkpt lat="46.0540834" lon="13.5882099"><ele>300.0</ele><time>2026-05-03T10:46:28.087Z</time></trkpt><trkpt lat="46.0541195" lon="13.5880903"><ele>300.0</ele><time>2026-05-03T10:46:29.098Z</time></trkpt><trkpt lat="46.0541755" lon="13.58795"><ele>306.25</ele><time>2026-05-03T10:46:30.093Z</time></trkpt><trkpt lat="46.0542519" lon="13.5878087"><ele>312.5</ele><time>2026-05-03T10:46:31.097Z</time></trkpt><trkpt lat="46.0543501" lon="13.5876571"><ele>318.75</ele><time>2026-05-03T10:46:32.102Z</time></trkpt><trkpt lat="46.0544653" lon="13.587506"><ele>325.0</ele><time>2026-05-03T10:46:33.097Z</time></trkpt><trkpt lat="46.0545828" lon="13.5873408"><ele>325.0</ele><time>2026-05-03T10:46:34.092Z</time></trkpt><trkpt lat="46.0546931" lon="13.5871784"><ele>325.0</ele><time>2026-05-03T10:46:35.101Z</time></trkpt><trkpt lat="46.0547969" lon="13.5870364"><ele>325.0</ele><time>2026-05-03T10:46:36.103Z</time></trkpt><trkpt lat="46.054902" lon="13.5869183"><ele>325.0</ele><time>2026-05-03T10:46:37.091Z</time></trkpt><trkpt lat="46.054998" lon="13.5868133"><ele>329.0</ele><time>2026-05-03T10:46:38.096Z</time></trkpt><trkpt lat="46.0550756" lon="13.5867254"><ele>333.0</ele><time>2026-05-03T10:46:39.093Z</time></trkpt><trkpt lat="46.0551212" lon="13.586632"><ele>337.0</ele><time>2026-05-03T10:46:40.089Z</time></trkpt><trkpt lat="46.0551459" lon="13.5865195"><ele>341.0</ele><time>2026-05-03T10:46:41.077Z</time></trkpt><trkpt lat="46.0551642" lon="13.5863906"><ele>345.0</ele><time>2026-05-03T10:46:42.093Z</time></trkpt><trkpt lat="46.0551987" lon="13.5862389"><ele>344.8</ele><time>2026-05-03T10:46:43.092Z</time></trkpt><trkpt lat="46.0552513" lon="13.5860948"><ele>344.6</ele><time>2026-05-03T10:46:44.094Z</time></trkpt><trkpt lat="46.0552917" lon="13.5859607"><ele>344.4</ele><time>2026-05-03T10:46:45.088Z</time></trkpt><trkpt lat="46.0553078" lon="13.5858362"><ele>344.2</ele><time>2026-05-03T10:46:46.09Z</time></trkpt><trkpt lat="46.0552924" lon="13.5857177"><ele>344.0</ele><time>2026-05-03T10:46:47.083Z</time></trkpt><trkpt lat="46.0552447" lon="13.5855891"><ele>344.0</ele><time>2026-05-03T10:46:48.078Z</time></trkpt><trkpt lat="46.0551962" lon="13.5854565"><ele>344.0</ele><time>2026-05-03T10:46:49.084Z</time></trkpt><trkpt lat="46.0551378" lon="13.5853131"><ele>344.0</ele><time>2026-05-03T10:46:50.091Z</time></trkpt><trkpt lat="46.0550907" lon="13.5851674"><ele>344.0</ele><time>2026-05-03T10:46:51.089Z</time></trkpt><trkpt lat="46.0550657" lon="13.5850002"><ele>344.4</ele><time>2026-05-03T10:46:52.089Z</time></trkpt><trkpt lat="46.0550573" lon="13.5848251"><ele>344.79999999999995</ele><time>2026-05-03T10:46:53.089Z</time></trkpt><trkpt lat="46.0550683" lon="13.5846791"><ele>345.20000000000005</ele><time>2026-05-03T10:46:54.092Z</time></trkpt><trkpt lat="46.0550818" lon="13.5845548"><ele>345.6</ele><time>2026-05-03T10:46:55.098Z</time></trkpt><trkpt lat="46.0551088" lon="13.5844604"><ele>346.0</ele><time>2026-05-03T10:46:56.094Z</time></trkpt><trkpt lat="46.055163" lon="13.5843837"><ele>346.0</ele><time>2026-05-03T10:46:57.084Z</time></trkpt><trkpt lat="46.0552438" lon="13.5843142"><ele>346.0</ele><time>2026-05-03T10:46:58.102Z</time></trkpt><trkpt lat="46.0553316" lon="13.5842384"><ele>346.0</ele><time>2026-05-03T10:46:59.083Z</time></trkpt><trkpt lat="46.0554068" lon="13.5841569"><ele>346.0</ele><time>2026-05-03T10:47:00.096Z</time></trkpt><trkpt lat="46.0554689" lon="13.5840778"><ele>346.0</ele><time>2026-05-03T10:47:01.094Z</time></trkpt><trkpt lat="46.0555117" lon="13.5839925"><ele>346.0</ele><time>2026-05-03T10:47:02.097Z</time></trkpt><trkpt lat="46.0555161" lon="13.5837989"><ele>345.5</ele><time>2026-05-03T10:47:04.116Z</time></trkpt><trkpt lat="46.0554912" lon="13.5836456"><ele>345.0</ele><time>2026-05-03T10:47:05.092Z</time></trkpt><trkpt lat="46.0554806" lon="13.5834847"><ele>344.5</ele><time>2026-05-03T10:47:06.086Z</time></trkpt><trkpt lat="46.0554809" lon="13.5833713"><ele>344.0</ele><time>2026-05-03T10:47:07.099Z</time></trkpt><trkpt lat="46.0555062" lon="13.5832813"><ele>343.5</ele><time>2026-05-03T10:47:08.103Z</time></trkpt><trkpt lat="46.0555448" lon="13.583203"><ele>343.0</ele><time>2026-05-03T10:47:09.1Z</time></trkpt><trkpt lat="46.0556173" lon="13.5831364"><ele>343.0</ele><time>2026-05-03T10:47:10.093Z</time></trkpt><trkpt lat="46.0557168" lon="13.5830643"><ele>343.0</ele><time>2026-05-03T10:47:11.088Z</time></trkpt><trkpt lat="46.0558266" lon="13.5829854"><ele>343.0</ele><time>2026-05-03T10:47:12.091Z</time></trkpt><trkpt lat="46.0559346" lon="13.582892"><ele>343.0</ele><time>2026-05-03T10:47:13.102Z</time></trkpt><trkpt lat="46.0560154" lon="13.5827972"><ele>351.0</ele><time>2026-05-03T10:47:14.11Z</time></trkpt><trkpt lat="46.0560632" lon="13.5827115"><ele>359.0</ele><time>2026-05-03T10:47:15.093Z</time></trkpt><trkpt lat="46.0561089" lon="13.5825899"><ele>367.0</ele><time>2026-05-03T10:47:17.096Z</time></trkpt><trkpt lat="46.056059" lon="13.5824798"><ele>375.0</ele><time>2026-05-03T10:47:19.084Z</time></trkpt><trkpt lat="46.0559969" lon="13.582399"><ele>383.0</ele><time>2026-05-03T10:47:20.078Z</time></trkpt><trkpt lat="46.0559286" lon="13.5822799"><ele>383.0</ele><time>2026-05-03T10:47:21.081Z</time></trkpt><trkpt lat="46.0558675" lon="13.5821639"><ele>383.0</ele><time>2026-05-03T10:47:22.089Z</time></trkpt><trkpt lat="46.0558047" lon="13.5820362"><ele>383.0</ele><time>2026-05-03T10:47:23.091Z</time></trkpt><trkpt lat="46.0557573" lon="13.5819013"><ele>383.0</ele><time>2026-05-03T10:47:24.092Z</time></trkpt><trkpt lat="46.0557274" lon="13.5817562"><ele>383.0</ele><time>2026-05-03T10:47:25.099Z</time></trkpt><trkpt lat="46.0557224" lon="13.581585"><ele>386.2</ele><time>2026-05-03T10:47:26.082Z</time></trkpt><trkpt lat="46.0557269" lon="13.5813973"><ele>389.4</ele><time>2026-05-03T10:47:27.1Z</time></trkpt><trkpt lat="46.0557192" lon="13.5812189"><ele>392.59999999999997</ele><time>2026-05-03T10:47:28.1Z</time></trkpt><trkpt lat="46.0557164" lon="13.5810678"><ele>395.79999999999995</ele><time>2026-05-03T10:47:29.105Z</time></trkpt><trkpt lat="46.0557361" lon="13.580964"><ele>399.0</ele><time>2026-05-03T10:47:30.093Z</time></trkpt><trkpt lat="46.0557882" lon="13.5808881"><ele>399.0</ele><time>2026-05-03T10:47:31.09Z</time></trkpt><trkpt lat="46.0558481" lon="13.580791"><ele>399.0</ele><time>2026-05-03T10:47:32.082Z</time></trkpt><trkpt lat="46.0559095" lon="13.5806716"><ele>399.0</ele><time>2026-05-03T10:47:33.095Z</time></trkpt><trkpt lat="46.0559382" lon="13.5805474"><ele>399.0</ele><time>2026-05-03T10:47:34.101Z</time></trkpt><trkpt lat="46.0559475" lon="13.5804011"><ele>399.0</ele><time>2026-05-03T10:47:35.091Z</time></trkpt><trkpt lat="46.0559533" lon="13.5801962"><ele>398.25</ele><time>2026-05-03T10:47:36.091Z</time></trkpt><trkpt lat="46.0559595" lon="13.5799836"><ele>397.5</ele><time>2026-05-03T10:47:37.095Z</time></trkpt><trkpt lat="46.0559655" lon="13.5797919"><ele>396.75</ele><time>2026-05-03T10:47:38.089Z</time></trkpt><trkpt lat="46.0559892" lon="13.5796186"><ele>396.0</ele><time>2026-05-03T10:47:39.105Z</time></trkpt><trkpt lat="46.05604" lon="13.5794804"><ele>393.0</ele><time>2026-05-03T10:47:40.097Z</time></trkpt><trkpt lat="46.0561108" lon="13.5793435"><ele>390.0</ele><time>2026-05-03T10:47:41.089Z</time></trkpt><trkpt lat="46.0561854" lon="13.5791911"><ele>387.0</ele><time>2026-05-03T10:47:42.091Z</time></trkpt><trkpt lat="46.0562529" lon="13.5790265"><ele>384.0</ele><time>2026-05-03T10:47:43.092Z</time></trkpt><trkpt lat="46.0563041" lon="13.5788686"><ele>384.0</ele><time>2026-05-03T10:47:44.098Z</time></trkpt><trkpt lat="46.0563423" lon="13.5787161"><ele>384.0</ele><time>2026-05-03T10:47:45.099Z</time></trkpt><trkpt lat="46.0563695" lon="13.5785467"><ele>384.0</ele><time>2026-05-03T10:47:46.085Z</time></trkpt><trkpt lat="46.0563951" lon="13.5783722"><ele>384.0</ele><time>2026-05-03T10:47:47.098Z</time></trkpt><trkpt lat="46.0564305" lon="13.5782053"><ele>381.6</ele><time>2026-05-03T10:47:48.097Z</time></trkpt><trkpt lat="46.0564641" lon="13.5780775"><ele>379.2</ele><time>2026-05-03T10:47:49.094Z</time></trkpt><trkpt lat="46.0564809" lon="13.5779594"><ele>376.8</ele><time>2026-05-03T10:47:50.101Z</time></trkpt><trkpt lat="46.0564875" lon="13.57783"><ele>374.40000000000003</ele><time>2026-05-03T10:47:51.1Z</time></trkpt><trkpt lat="46.0564985" lon="13.5776887"><ele>372.0</ele><time>2026-05-03T10:47:52.101Z</time></trkpt><trkpt lat="46.0565051" lon="13.5775413"><ele>370.1666666666667</ele><time>2026-05-03T10:47:53.1Z</time></trkpt><trkpt lat="46.0565373" lon="13.5774191"><ele>368.3333333333333</ele><time>2026-05-03T10:47:54.1Z</time></trkpt><trkpt lat="46.0565948" lon="13.577336"><ele>366.5</ele><time>2026-05-03T10:47:55.095Z</time></trkpt><trkpt lat="46.0566686" lon="13.5772704"><ele>364.66666666666663</ele><time>2026-05-03T10:47:56.099Z</time></trkpt><trkpt lat="46.0567467" lon="13.5772235"><ele>362.8333333333333</ele><time>2026-05-03T10:47:57.087Z</time></trkpt><trkpt lat="46.0568506" lon="13.5772025"><ele>361.0</ele><time>2026-05-03T10:47:58.09Z</time></trkpt><trkpt lat="46.0569559" lon="13.5771839"><ele>367.66666666666663</ele><time>2026-05-03T10:47:59.101Z</time></trkpt><trkpt lat="46.0570434" lon="13.5771741"><ele>374.3333333333333</ele><time>2026-05-03T10:48:00.097Z</time></trkpt><trkpt lat="46.0571082" lon="13.5771446"><ele>381.0</ele><time>2026-05-03T10:48:01.094Z</time></trkpt><trkpt lat="46.0571468" lon="13.5770162"><ele>387.66666666666663</ele><time>2026-05-03T10:48:03.108Z</time></trkpt><trkpt lat="46.0571354" lon="13.5769207"><ele>394.3333333333333</ele><time>2026-05-03T10:48:04.095Z</time></trkpt><trkpt lat="46.0571159" lon="13.5767766"><ele>401.0</ele><time>2026-05-03T10:48:05.089Z</time></trkpt><trkpt lat="46.0571102" lon="13.576639"><ele>401.0</ele><time>2026-05-03T10:48:06.083Z</time></trkpt><trkpt lat="46.0571363" lon="13.5765067"><ele>401.0</ele><time>2026-05-03T10:48:07.101Z</time></trkpt><trkpt lat="46.0571895" lon="13.5763893"><ele>401.0</ele><time>2026-05-03T10:48:08.089Z</time></trkpt><trkpt lat="46.0572673" lon="13.5762883"><ele>401.0</ele><time>2026-05-03T10:48:09.092Z</time></trkpt><trkpt lat="46.0573563" lon="13.5761949"><ele>401.0</ele><time>2026-05-03T10:48:10.091Z</time></trkpt><trkpt lat="46.0574505" lon="13.5760948"><ele>408.4</ele><time>2026-05-03T10:48:11.097Z</time></trkpt><trkpt lat="46.0575516" lon="13.5760207"><ele>415.8</ele><time>2026-05-03T10:48:12.096Z</time></trkpt><trkpt lat="46.0576567" lon="13.575963"><ele>423.19999999999993</ele><time>2026-05-03T10:48:13.1Z</time></trkpt><trkpt lat="46.0577609" lon="13.5759244"><ele>430.59999999999997</ele><time>2026-05-03T10:48:14.097Z</time></trkpt><trkpt lat="46.0578616" lon="13.5758987"><ele>438.0</ele><time>2026-05-03T10:48:15.098Z</time></trkpt><trkpt lat="46.0579522" lon="13.5758786"><ele>438.0</ele><time>2026-05-03T10:48:16.098Z</time></trkpt><trkpt lat="46.0580314" lon="13.5758671"><ele>437.99999999999994</ele><time>2026-05-03T10:48:17.103Z</time></trkpt><trkpt lat="46.0581114" lon="13.5757916"><ele>437.99999999999994</ele><time>2026-05-03T10:48:19.105Z</time></trkpt><trkpt lat="46.058112" lon="13.575678"><ele>438.0</ele><time>2026-05-03T10:48:21.083Z</time></trkpt><trkpt lat="46.0580477" lon="13.5754657"><ele>438.0</ele><time>2026-05-03T10:48:23.091Z</time></trkpt><trkpt lat="46.058021" lon="13.575345"><ele>436.0</ele><time>2026-05-03T10:48:24.095Z</time></trkpt><trkpt lat="46.0580042" lon="13.5752173"><ele>433.99999999999994</ele><time>2026-05-03T10:48:25.111Z</time></trkpt><trkpt lat="46.0579893" lon="13.5750824"><ele>431.99999999999994</ele><time>2026-05-03T10:48:26.112Z</time></trkpt><trkpt lat="46.0579729" lon="13.5749417"><ele>430.0</ele><time>2026-05-03T10:48:27.095Z</time></trkpt><trkpt lat="46.0579505" lon="13.5748005"><ele>428.0</ele><time>2026-05-03T10:48:28.108Z</time></trkpt><trkpt lat="46.0579314" lon="13.5746636"><ele>428.0</ele><time>2026-05-03T10:48:29.108Z</time></trkpt><trkpt lat="46.0579343" lon="13.5745252"><ele>427.99999999999994</ele><time>2026-05-03T10:48:30.113Z</time></trkpt><trkpt lat="46.0579416" lon="13.5743731"><ele>427.99999999999994</ele><time>2026-05-03T10:48:31.107Z</time></trkpt><trkpt lat="46.0579529" lon="13.5742208"><ele>428.0</ele><time>2026-05-03T10:48:32.101Z</time></trkpt><trkpt lat="46.0579732" lon="13.5740668"><ele>428.0</ele><time>2026-05-03T10:48:33.119Z</time></trkpt><trkpt lat="46.0580087" lon="13.5739185"><ele>427.79999999999995</ele><time>2026-05-03T10:48:34.093Z</time></trkpt><trkpt lat="46.0580596" lon="13.5737788"><ele>427.59999999999997</ele><time>2026-05-03T10:48:35.1Z</time></trkpt><trkpt lat="46.0581193" lon="13.573647"><ele>427.40000000000003</ele><time>2026-05-03T10:48:36.114Z</time></trkpt><trkpt lat="46.0581787" lon="13.5735122"><ele>427.20000000000005</ele><time>2026-05-03T10:48:37.108Z</time></trkpt><trkpt lat="46.0582372" lon="13.5733744"><ele>427.0</ele><time>2026-05-03T10:48:38.116Z</time></trkpt><trkpt lat="46.058302" lon="13.5732223"><ele>435.75</ele><time>2026-05-03T10:48:39.113Z</time></trkpt><trkpt lat="46.0583679" lon="13.5730589"><ele>444.5</ele><time>2026-05-03T10:48:40.108Z</time></trkpt><trkpt lat="46.0584324" lon="13.5728969"><ele>453.25</ele><time>2026-05-03T10:48:41.104Z</time></trkpt><trkpt lat="46.0584693" lon="13.5727324"><ele>462.0</ele><time>2026-05-03T10:48:42.102Z</time></trkpt><trkpt lat="46.0584887" lon="13.5725806"><ele>462.0</ele><time>2026-05-03T10:48:43.101Z</time></trkpt><trkpt lat="46.0585078" lon="13.5724455"><ele>462.0</ele><time>2026-05-03T10:48:44.108Z</time></trkpt><trkpt lat="46.0585232" lon="13.5723168"><ele>462.0</ele><time>2026-05-03T10:48:45.11Z</time></trkpt><trkpt lat="46.0585393" lon="13.5722046"><ele>462.0</ele><time>2026-05-03T10:48:46.104Z</time></trkpt><trkpt lat="46.0586013" lon="13.5720854"><ele>462.0</ele><time>2026-05-03T10:48:48.095Z</time></trkpt><trkpt lat="46.058662" lon="13.5721349"><ele>462.0</ele><time>2026-05-03T10:48:51.096Z</time></trkpt><trkpt lat="46.0586472" lon="13.5722675"><ele>462.0</ele><time>2026-05-03T10:48:53.095Z</time></trkpt><trkpt lat="46.0586183" lon="13.5723867"><ele>462.00000000000006</ele><time>2026-05-03T10:48:54.098Z</time></trkpt><trkpt lat="46.058602" lon="13.5725256"><ele>462.00000000000006</ele><time>2026-05-03T10:48:55.089Z</time></trkpt><trkpt lat="46.0585937" lon="13.5726617"><ele>462.0</ele><time>2026-05-03T10:48:56.101Z</time></trkpt><trkpt lat="46.0585923" lon="13.5728006"><ele>462.0</ele><time>2026-05-03T10:48:57.094Z</time></trkpt><trkpt lat="46.0585796" lon="13.5729441"><ele>463.8</ele><time>2026-05-03T10:48:58.097Z</time></trkpt><trkpt lat="46.0585681" lon="13.5730994"><ele>465.6</ele><time>2026-05-03T10:48:59.103Z</time></trkpt><trkpt lat="46.0585573" lon="13.5732505"><ele>467.40000000000003</ele><time>2026-05-03T10:49:00.092Z</time></trkpt><trkpt lat="46.0585397" lon="13.5733792"><ele>469.20000000000005</ele><time>2026-05-03T10:49:01.095Z</time></trkpt><trkpt lat="46.0585394" lon="13.5735051"><ele>471.0</ele><time>2026-05-03T10:49:02.106Z</time></trkpt><trkpt lat="46.0585618" lon="13.5736159"><ele>471.0</ele><time>2026-05-03T10:49:03.097Z</time></trkpt><trkpt lat="46.0585876" lon="13.5737458"><ele>471.0</ele><time>2026-05-03T10:49:04.088Z</time></trkpt><trkpt lat="46.0586078" lon="13.5738825"><ele>471.0</ele><time>2026-05-03T10:49:05.102Z</time></trkpt><trkpt lat="46.0586189" lon="13.5740321"><ele>471.0</ele><time>2026-05-03T10:49:06.105Z</time></trkpt><trkpt lat="46.0586189" lon="13.5741618"><ele>471.0</ele><time>2026-05-03T10:49:07.101Z</time></trkpt><trkpt lat="46.0586303" lon="13.5742667"><ele>471.0</ele><time>2026-05-03T10:49:08.104Z</time></trkpt><trkpt lat="46.0586875" lon="13.5743622"><ele>471.0</ele><time>2026-05-03T10:49:10.106Z</time></trkpt><trkpt lat="46.0587828" lon="13.5743538"><ele>471.0</ele><time>2026-05-03T10:49:12.099Z</time></trkpt><trkpt lat="46.0588406" lon="13.5742996"><ele>471.0</ele><time>2026-05-03T10:49:13.09Z</time></trkpt><trkpt lat="46.0588854" lon="13.5742322"><ele>471.0</ele><time>2026-05-03T10:49:14.096Z</time></trkpt><trkpt lat="46.0589102" lon="13.5740532"><ele>471.0</ele><time>2026-05-03T10:49:16.093Z</time></trkpt><trkpt lat="46.0589007" lon="13.5739426"><ele>471.0</ele><time>2026-05-03T10:49:17.091Z</time></trkpt><trkpt lat="46.0589029" lon="13.5738186"><ele>471.0</ele><time>2026-05-03T10:49:18.089Z</time></trkpt><trkpt lat="46.0589195" lon="13.5736998"><ele>471.0</ele><time>2026-05-03T10:49:19.109Z</time></trkpt><trkpt lat="46.0589355" lon="13.5735841"><ele>471.0</ele><time>2026-05-03T10:49:20.106Z</time></trkpt><trkpt lat="46.0589367" lon="13.5734625"><ele>471.0</ele><time>2026-05-03T10:49:21.111Z</time></trkpt><trkpt lat="46.0589414" lon="13.5733393"><ele>471.0</ele><time>2026-05-03T10:49:22.113Z</time></trkpt><trkpt lat="46.0589517" lon="13.5732167"><ele>471.0</ele><time>2026-05-03T10:49:23.111Z</time></trkpt><trkpt lat="46.0589683" lon="13.5730894"><ele>471.0</ele><time>2026-05-03T10:49:24.112Z</time></trkpt><trkpt lat="46.0589933" lon="13.5729612"><ele>471.0</ele><time>2026-05-03T10:49:25.105Z</time></trkpt><trkpt lat="46.0590256" lon="13.572831"><ele>471.0</ele><time>2026-05-03T10:49:26.094Z</time></trkpt><trkpt lat="46.059068" lon="13.5726958"><ele>471.0</ele><time>2026-05-03T10:49:27.094Z</time></trkpt><trkpt lat="46.0591179" lon="13.5725729"><ele>475.5</ele><time>2026-05-03T10:49:28.095Z</time></trkpt><trkpt lat="46.0591707" lon="13.5724632"><ele>480.0</ele><time>2026-05-03T10:49:29.099Z</time></trkpt><trkpt lat="46.0592167" lon="13.5723747"><ele>484.5</ele><time>2026-05-03T10:49:30.11Z</time></trkpt><trkpt lat="46.0592881" lon="13.5722731"><ele>489.0</ele><time>2026-05-03T10:49:32.106Z</time></trkpt><trkpt lat="46.0593544" lon="13.5723093"><ele>493.5</ele><time>2026-05-03T10:49:35.1Z</time></trkpt><trkpt lat="46.0593381" lon="13.5724498"><ele>498.0</ele><time>2026-05-03T10:49:37.092Z</time></trkpt><trkpt lat="46.0593214" lon="13.5725397"><ele>498.0</ele><time>2026-05-03T10:49:38.092Z</time></trkpt><trkpt lat="46.0592763" lon="13.5726757"><ele>498.0</ele><time>2026-05-03T10:49:39.095Z</time></trkpt><trkpt lat="46.0592587" lon="13.5727938"><ele>498.0</ele><time>2026-05-03T10:49:40.115Z</time></trkpt><trkpt lat="46.0592652" lon="13.5729058"><ele>498.0</ele><time>2026-05-03T10:49:41.103Z</time></trkpt><trkpt lat="46.0592957" lon="13.5729999"><ele>498.0</ele><time>2026-05-03T10:49:42.094Z</time></trkpt><trkpt lat="46.0593387" lon="13.5730773"><ele>498.0</ele><time>2026-05-03T10:49:43.095Z</time></trkpt><trkpt lat="46.0593952" lon="13.5731502"><ele>498.2</ele><time>2026-05-03T10:49:44.097Z</time></trkpt><trkpt lat="46.0594674" lon="13.5732394"><ele>498.4</ele><time>2026-05-03T10:49:45.091Z</time></trkpt><trkpt lat="46.0595478" lon="13.5733405"><ele>498.59999999999997</ele><time>2026-05-03T10:49:46.106Z</time></trkpt><trkpt lat="46.0596052" lon="13.5734567"><ele>498.79999999999995</ele><time>2026-05-03T10:49:47.106Z</time></trkpt><trkpt lat="46.0596324" lon="13.5735765"><ele>499.0</ele><time>2026-05-03T10:49:48.09Z</time></trkpt><trkpt lat="46.0596441" lon="13.5736915"><ele>499.0</ele><time>2026-05-03T10:49:49.106Z</time></trkpt><trkpt lat="46.0596463" lon="13.5738423"><ele>499.0</ele><time>2026-05-03T10:49:50.098Z</time></trkpt><trkpt lat="46.0596424" lon="13.5740008"><ele>499.0</ele><time>2026-05-03T10:49:51.088Z</time></trkpt><trkpt lat="46.0596387" lon="13.5741565"><ele>499.0</ele><time>2026-05-03T10:49:52.103Z</time></trkpt><trkpt lat="46.0596197" lon="13.5743064"><ele>499.0</ele><time>2026-05-03T10:49:53.102Z</time></trkpt><trkpt lat="46.0595902" lon="13.5744551"><ele>499.00000000000006</ele><time>2026-05-03T10:49:54.099Z</time></trkpt><trkpt lat="46.059569" lon="13.574565"><ele>499.0</ele><time>2026-05-03T10:49:55.113Z</time></trkpt><trkpt lat="46.0595652" lon="13.5746606"><ele>499.0</ele><time>2026-05-03T10:49:56.104Z</time></trkpt><trkpt lat="46.0595923" lon="13.574769"><ele>499.0</ele><time>2026-05-03T10:49:58.096Z</time></trkpt><trkpt lat="46.0596607" lon="13.5747491"><ele>499.00000000000006</ele><time>2026-05-03T10:50:00.086Z</time></trkpt><trkpt lat="46.0596958" lon="13.5746004"><ele>499.0</ele><time>2026-05-03T10:50:02.091Z</time></trkpt><trkpt lat="46.0597084" lon="13.5744983"><ele>499.0</ele><time>2026-05-03T10:50:03.094Z</time></trkpt><trkpt lat="46.0597289" lon="13.5743837"><ele>499.0</ele><time>2026-05-03T10:50:04.089Z</time></trkpt><trkpt lat="46.0597699" lon="13.5742475"><ele>499.0</ele><time>2026-05-03T10:50:05.106Z</time></trkpt><trkpt lat="46.0598311" lon="13.5740961"><ele>499.0</ele><time>2026-05-03T10:50:06.109Z</time></trkpt><trkpt lat="46.0598879" lon="13.5739462"><ele>499.0</ele><time>2026-05-03T10:50:07.109Z</time></trkpt><trkpt lat="46.0599444" lon="13.573803"><ele>504.4</ele><time>2026-05-03T10:50:08.114Z</time></trkpt><trkpt lat="46.0599945" lon="13.5736705"><ele>509.79999999999995</ele><time>2026-05-03T10:50:09.106Z</time></trkpt><trkpt lat="46.0600481" lon="13.5735632"><ele>515.2</ele><time>2026-05-03T10:50:10.112Z</time></trkpt><trkpt lat="46.0601087" lon="13.573476"><ele>520.6</ele><time>2026-05-03T10:50:11.11Z</time></trkpt><trkpt lat="46.0601813" lon="13.5734121"><ele>526.0</ele><time>2026-05-03T10:50:12.103Z</time></trkpt><trkpt lat="46.0602694" lon="13.5733636"><ele>526.0</ele><time>2026-05-03T10:50:13.094Z</time></trkpt><trkpt lat="46.0603734" lon="13.5733139"><ele>526.0</ele><time>2026-05-03T10:50:14.101Z</time></trkpt><trkpt lat="46.0604819" lon="13.5732503"><ele>526.0</ele><time>2026-05-03T10:50:15.108Z</time></trkpt><trkpt lat="46.0605741" lon="13.5731665"><ele>526.0</ele><time>2026-05-03T10:50:16.107Z</time></trkpt><trkpt lat="46.0606488" lon="13.5730478"><ele>526.0</ele><time>2026-05-03T10:50:17.101Z</time></trkpt><trkpt lat="46.0607109" lon="13.572937"><ele>524.8</ele><time>2026-05-03T10:50:18.116Z</time></trkpt><trkpt lat="46.0607741" lon="13.5728439"><ele>523.6</ele><time>2026-05-03T10:50:19.123Z</time></trkpt><trkpt lat="46.0608479" lon="13.5727874"><ele>522.4</ele><time>2026-05-03T10:50:20.108Z</time></trkpt><trkpt lat="46.0609355" lon="13.5727643"><ele>521.2</ele><time>2026-05-03T10:50:21.094Z</time></trkpt><trkpt lat="46.0610352" lon="13.5727485"><ele>520.0</ele><time>2026-05-03T10:50:22.088Z</time></trkpt><trkpt lat="46.0611288" lon="13.5727114"><ele>523.8</ele><time>2026-05-03T10:50:23.118Z</time></trkpt><trkpt lat="46.0612302" lon="13.5726402"><ele>527.6</ele><time>2026-05-03T10:50:24.102Z</time></trkpt><trkpt lat="46.0613152" lon="13.5725656"><ele>531.4</ele><time>2026-05-03T10:50:25.113Z</time></trkpt><trkpt lat="46.0614022" lon="13.572482"><ele>535.2</ele><time>2026-05-03T10:50:26.101Z</time></trkpt><trkpt lat="46.0614862" lon="13.5723884"><ele>539.0</ele><time>2026-05-03T10:50:27.106Z</time></trkpt><trkpt lat="46.0615619" lon="13.5722728"><ele>539.0</ele><time>2026-05-03T10:50:28.101Z</time></trkpt><trkpt lat="46.0616004" lon="13.5721392"><ele>539.0</ele><time>2026-05-03T10:50:29.106Z</time></trkpt><trkpt lat="46.0616095" lon="13.5719942"><ele>539.0</ele><time>2026-05-03T10:50:30.099Z</time></trkpt><trkpt lat="46.0615962" lon="13.5718365"><ele>539.0</ele><time>2026-05-03T10:50:31.102Z</time></trkpt><trkpt lat="46.0615828" lon="13.5717004"><ele>539.0</ele><time>2026-05-03T10:50:32.093Z</time></trkpt><trkpt lat="46.061586" lon="13.571562"><ele>538.8333333333333</ele><time>2026-05-03T10:50:33.104Z</time></trkpt><trkpt lat="46.0616126" lon="13.5714313"><ele>538.6666666666666</ele><time>2026-05-03T10:50:34.105Z</time></trkpt><trkpt lat="46.0616624" lon="13.5713257"><ele>538.5</ele><time>2026-05-03T10:50:35.107Z</time></trkpt><trkpt lat="46.0617262" lon="13.5712379"><ele>538.3333333333334</ele><time>2026-05-03T10:50:36.09Z</time></trkpt><trkpt lat="46.0617814" lon="13.571184"><ele>538.1666666666667</ele><time>2026-05-03T10:50:37.094Z</time></trkpt><trkpt lat="46.061842" lon="13.5711586"><ele>538.0</ele><time>2026-05-03T10:50:39.111Z</time></trkpt><trkpt lat="46.0618077" lon="13.571297"><ele>540.8333333333334</ele><time>2026-05-03T10:50:41.097Z</time></trkpt><trkpt lat="46.0617392" lon="13.5714533"><ele>543.6666666666667</ele><time>2026-05-03T10:50:43.094Z</time></trkpt><trkpt lat="46.0617246" lon="13.5715462"><ele>546.5</ele><time>2026-05-03T10:50:44.102Z</time></trkpt><trkpt lat="46.0617343" lon="13.5716475"><ele>549.3333333333334</ele><time>2026-05-03T10:50:45.102Z</time></trkpt><trkpt lat="46.0617664" lon="13.5717482"><ele>552.1666666666666</ele><time>2026-05-03T10:50:46.089Z</time></trkpt><trkpt lat="46.061787" lon="13.5718464"><ele>555.0</ele><time>2026-05-03T10:50:47.095Z</time></trkpt><trkpt lat="46.0618018" lon="13.5719375"><ele>555.0</ele><time>2026-05-03T10:50:48.103Z</time></trkpt><trkpt lat="46.0618782" lon="13.5719764"><ele>555.0</ele><time>2026-05-03T10:50:51.091Z</time></trkpt><trkpt lat="46.0619167" lon="13.5718679"><ele>555.0</ele><time>2026-05-03T10:50:53.101Z</time></trkpt><trkpt lat="46.0619205" lon="13.5717769"><ele>555.0</ele><time>2026-05-03T10:50:54.097Z</time></trkpt><trkpt lat="46.0619212" lon="13.5716772"><ele>555.0</ele><time>2026-05-03T10:50:55.101Z</time></trkpt><trkpt lat="46.0619268" lon="13.5715508"><ele>555.0</ele><time>2026-05-03T10:50:56.117Z</time></trkpt><trkpt lat="46.0619545" lon="13.5714198"><ele>555.0</ele><time>2026-05-03T10:50:57.108Z</time></trkpt><trkpt lat="46.0619966" lon="13.5713279"><ele>555.0</ele><time>2026-05-03T10:50:58.091Z</time></trkpt><trkpt lat="46.0620531" lon="13.5712621"><ele>555.0</ele><time>2026-05-03T10:50:59.098Z</time></trkpt><trkpt lat="46.062121" lon="13.5712103"><ele>555.0</ele><time>2026-05-03T10:51:00.103Z</time></trkpt><trkpt lat="46.0622062" lon="13.571178"><ele>555.0</ele><time>2026-05-03T10:51:01.099Z</time></trkpt><trkpt lat="46.0622992" lon="13.571156"><ele>555.0</ele><time>2026-05-03T10:51:02.097Z</time></trkpt><trkpt lat="46.0623898" lon="13.5711365"><ele>555.8333333333334</ele><time>2026-05-03T10:51:03.11Z</time></trkpt><trkpt lat="46.0624637" lon="13.5711212"><ele>556.6666666666666</ele><time>2026-05-03T10:51:04.098Z</time></trkpt><trkpt lat="46.0625254" lon="13.5710996"><ele>557.5</ele><time>2026-05-03T10:51:05.102Z</time></trkpt><trkpt lat="46.0625562" lon="13.5710019"><ele>558.3333333333333</ele><time>2026-05-03T10:51:07.091Z</time></trkpt><trkpt lat="46.0624719" lon="13.5708977"><ele>559.1666666666666</ele><time>2026-05-03T10:51:09.087Z</time></trkpt><trkpt lat="46.0623852" lon="13.5708304"><ele>560.0</ele><time>2026-05-03T10:51:10.087Z</time></trkpt><trkpt lat="46.0622998" lon="13.5707481"><ele>560.0</ele><time>2026-05-03T10:51:11.082Z</time></trkpt><trkpt lat="46.0622173" lon="13.5706428"><ele>560.0</ele><time>2026-05-03T10:51:12.104Z</time></trkpt><trkpt lat="46.0621379" lon="13.5705172"><ele>560.0</ele><time>2026-05-03T10:51:13.107Z</time></trkpt><trkpt lat="46.0620697" lon="13.5703869"><ele>560.0</ele><time>2026-05-03T10:51:14.11Z</time></trkpt><trkpt lat="46.0620283" lon="13.5702665"><ele>560.0</ele><time>2026-05-03T10:51:15.106Z</time></trkpt><trkpt lat="46.0620113" lon="13.5701517"><ele>561.2</ele><time>2026-05-03T10:51:16.089Z</time></trkpt><trkpt lat="46.0620073" lon="13.5700352"><ele>562.4</ele><time>2026-05-03T10:51:17.111Z</time></trkpt><trkpt lat="46.0620383" lon="13.5699338"><ele>563.6</ele><time>2026-05-03T10:51:18.102Z</time></trkpt><trkpt lat="46.0620932" lon="13.5698352"><ele>564.8</ele><time>2026-05-03T10:51:19.094Z</time></trkpt><trkpt lat="46.062161" lon="13.5697246"><ele>566.0</ele><time>2026-05-03T10:51:20.088Z</time></trkpt><trkpt lat="46.0622256" lon="13.5696078"><ele>563.75</ele><time>2026-05-03T10:51:21.105Z</time></trkpt><trkpt lat="46.0622895" lon="13.5694652"><ele>561.5</ele><time>2026-05-03T10:51:22.116Z</time></trkpt><trkpt lat="46.0623371" lon="13.5693071"><ele>559.25</ele><time>2026-05-03T10:51:23.094Z</time></trkpt><trkpt lat="46.0623768" lon="13.5691495"><ele>557.0</ele><time>2026-05-03T10:51:24.095Z</time></trkpt><trkpt lat="46.0624136" lon="13.568997"><ele>564.6</ele><time>2026-05-03T10:51:25.098Z</time></trkpt><trkpt lat="46.0624515" lon="13.5688568"><ele>572.2</ele><time>2026-05-03T10:51:26.105Z</time></trkpt><trkpt lat="46.0624972" lon="13.5687313"><ele>579.8</ele><time>2026-05-03T10:51:27.102Z</time></trkpt><trkpt lat="46.0625558" lon="13.568617"><ele>587.4</ele><time>2026-05-03T10:51:28.113Z</time></trkpt><trkpt lat="46.062622" lon="13.5684974"><ele>595.0</ele><time>2026-05-03T10:51:29.101Z</time></trkpt><trkpt lat="46.0626961" lon="13.56838"><ele>595.0</ele><time>2026-05-03T10:51:30.103Z</time></trkpt><trkpt lat="46.0627558" lon="13.5682645"><ele>595.0</ele><time>2026-05-03T10:51:31.084Z</time></trkpt><trkpt lat="46.0627956" lon="13.5681638"><ele>595.0</ele><time>2026-05-03T10:51:32.09Z</time></trkpt><trkpt lat="46.0628264" lon="13.5680588"><ele>595.0</ele><time>2026-05-03T10:51:33.091Z</time></trkpt><trkpt lat="46.0628806" lon="13.5679119"><ele>595.0</ele><time>2026-05-03T10:51:35.098Z</time></trkpt><trkpt lat="46.0629573" lon="13.5679854"><ele>595.0</ele><time>2026-05-03T10:51:38.084Z</time></trkpt><trkpt lat="46.06294" lon="13.5681368"><ele>595.0</ele><time>2026-05-03T10:51:40.083Z</time></trkpt><trkpt lat="46.0629198" lon="13.5682286"><ele>595.0</ele><time>2026-05-03T10:51:41.079Z</time></trkpt><trkpt lat="46.062878" lon="13.5683426"><ele>595.0</ele><time>2026-05-03T10:51:42.077Z</time></trkpt><trkpt lat="46.0628226" lon="13.5684711"><ele>595.0</ele><time>2026-05-03T10:51:43.083Z</time></trkpt><trkpt lat="46.0627698" lon="13.5685763"><ele>595.0</ele><time>2026-05-03T10:51:44.091Z</time></trkpt><trkpt lat="46.0627205" lon="13.568645"><ele>595.0</ele><time>2026-05-03T10:51:45.091Z</time></trkpt><trkpt lat="46.0626463" lon="13.5687682"><ele>595.0</ele><time>2026-05-03T10:51:47.1Z</time></trkpt><trkpt lat="46.06262" lon="13.568921"><ele>595.0</ele><time>2026-05-03T10:51:49.087Z</time></trkpt><trkpt lat="46.0626094" lon="13.5691123"><ele>595.0</ele><time>2026-05-03T10:51:51.105Z</time></trkpt><trkpt lat="46.0625961" lon="13.5692373"><ele>595.0</ele><time>2026-05-03T10:51:52.116Z</time></trkpt><trkpt lat="46.0625821" lon="13.5693641"><ele>595.0</ele><time>2026-05-03T10:51:53.107Z</time></trkpt><trkpt lat="46.0625648" lon="13.5694933"><ele>595.0</ele><time>2026-05-03T10:51:54.108Z</time></trkpt><trkpt lat="46.0625543" lon="13.5696212"><ele>595.0</ele><time>2026-05-03T10:51:55.095Z</time></trkpt><trkpt lat="46.0625518" lon="13.5697294"><ele>595.0</ele><time>2026-05-03T10:51:56.104Z</time></trkpt><trkpt lat="46.0625768" lon="13.5698194"><ele>595.0</ele><time>2026-05-03T10:51:57.114Z</time></trkpt><trkpt lat="46.062682" lon="13.5699332"><ele>595.0</ele><time>2026-05-03T10:51:59.112Z</time></trkpt><trkpt lat="46.0627585" lon="13.569979"><ele>595.0</ele><time>2026-05-03T10:52:00.102Z</time></trkpt><trkpt lat="46.0628371" lon="13.5700308"><ele>595.0</ele><time>2026-05-03T10:52:01.111Z</time></trkpt><trkpt lat="46.0629277" lon="13.5700863"><ele>595.0</ele><time>2026-05-03T10:52:02.114Z</time></trkpt><trkpt lat="46.0630271" lon="13.5701429"><ele>595.0</ele><time>2026-05-03T10:52:03.115Z</time></trkpt><trkpt lat="46.0631335" lon="13.5702019"><ele>595.0</ele><time>2026-05-03T10:52:04.111Z</time></trkpt><trkpt lat="46.0632479" lon="13.5702573"><ele>595.0</ele><time>2026-05-03T10:52:05.11Z</time></trkpt><trkpt lat="46.063366" lon="13.5703117"><ele>595.0</ele><time>2026-05-03T10:52:06.106Z</time></trkpt><trkpt lat="46.0634847" lon="13.5703612"><ele>595.0</ele><time>2026-05-03T10:52:07.101Z</time></trkpt><trkpt lat="46.0636003" lon="13.5704122"><ele>596.4</ele><time>2026-05-03T10:52:08.109Z</time></trkpt><trkpt lat="46.06371" lon="13.5704617"><ele>597.8</ele><time>2026-05-03T10:52:09.096Z</time></trkpt><trkpt lat="46.0638092" lon="13.5705057"><ele>599.2</ele><time>2026-05-03T10:52:10.098Z</time></trkpt><trkpt lat="46.0639003" lon="13.5705358"><ele>600.6</ele><time>2026-05-03T10:52:11.089Z</time></trkpt><trkpt lat="46.0639829" lon="13.5705537"><ele>602.0</ele><time>2026-05-03T10:52:12.104Z</time></trkpt><trkpt lat="46.0640443" lon="13.5705773"><ele>602.0</ele><time>2026-05-03T10:52:13.101Z</time></trkpt><trkpt lat="46.064086" lon="13.5706942"><ele>602.0</ele><time>2026-05-03T10:52:15.089Z</time></trkpt><trkpt lat="46.0640785" lon="13.5707849"><ele>602.0</ele><time>2026-05-03T10:52:16.09Z</time></trkpt><trkpt lat="46.0640355" lon="13.5708798"><ele>602.0</ele><time>2026-05-03T10:52:17.084Z</time></trkpt><trkpt lat="46.0639737" lon="13.5709839"><ele>602.0</ele><time>2026-05-03T10:52:18.078Z</time></trkpt><trkpt lat="46.0639068" lon="13.5711015"><ele>602.0</ele><time>2026-05-03T10:52:19.085Z</time></trkpt><trkpt lat="46.0638568" lon="13.5712288"><ele>603.8000000000001</ele><time>2026-05-03T10:52:20.097Z</time></trkpt><trkpt lat="46.0638179" lon="13.5713663"><ele>605.6</ele><time>2026-05-03T10:52:21.104Z</time></trkpt><trkpt lat="46.0637672" lon="13.5715035"><ele>607.4000000000001</ele><time>2026-05-03T10:52:22.108Z</time></trkpt><trkpt lat="46.0637143" lon="13.5716508"><ele>609.2</ele><time>2026-05-03T10:52:23.092Z</time></trkpt><trkpt lat="46.0636563" lon="13.5717946"><ele>611.0</ele><time>2026-05-03T10:52:24.099Z</time></trkpt><trkpt lat="46.0635832" lon="13.5719383"><ele>612.3333333333333</ele><time>2026-05-03T10:52:25.098Z</time></trkpt><trkpt lat="46.0635013" lon="13.5720653"><ele>613.6666666666666</ele><time>2026-05-03T10:52:26.103Z</time></trkpt><trkpt lat="46.0634498" lon="13.5721852"><ele>615.0</ele><time>2026-05-03T10:52:27.104Z</time></trkpt><trkpt lat="46.0634289" lon="13.5722805"><ele>616.3333333333334</ele><time>2026-05-03T10:52:28.097Z</time></trkpt><trkpt lat="46.0634295" lon="13.5723727"><ele>617.6666666666667</ele><time>2026-05-03T10:52:29.1Z</time></trkpt><trkpt lat="46.0634498" lon="13.5724707"><ele>619.0</ele><time>2026-05-03T10:52:30.105Z</time></trkpt><trkpt lat="46.0635293" lon="13.5725661"><ele>619.0</ele><time>2026-05-03T10:52:32.09Z</time></trkpt><trkpt lat="46.0635796" lon="13.5724554"><ele>619.0</ele><time>2026-05-03T10:52:35.1Z</time></trkpt><trkpt lat="46.063569" lon="13.5723607"><ele>619.0</ele><time>2026-05-03T10:52:36.095Z</time></trkpt><trkpt lat="46.0635607" lon="13.5722673"><ele>619.0</ele><time>2026-05-03T10:52:37.095Z</time></trkpt><trkpt lat="46.0635993" lon="13.5721796"><ele>619.0</ele><time>2026-05-03T10:52:39.104Z</time></trkpt><trkpt lat="46.0636805" lon="13.5722311"><ele>619.0</ele><time>2026-05-03T10:52:42.093Z</time></trkpt><trkpt lat="46.063684" lon="13.5723895"><ele>619.0</ele><time>2026-05-03T10:52:44.092Z</time></trkpt><trkpt lat="46.0637496" lon="13.5724355"><ele>619.0</ele><time>2026-05-03T10:52:47.112Z</time></trkpt><trkpt lat="46.0637631" lon="13.5722946"><ele>619.0</ele><time>2026-05-03T10:52:49.106Z</time></trkpt><trkpt lat="46.0637616" lon="13.5721987"><ele>619.0</ele><time>2026-05-03T10:52:50.099Z</time></trkpt><trkpt lat="46.0638273" lon="13.5720564"><ele>619.0</ele><time>2026-05-03T10:52:52.106Z</time></trkpt><trkpt lat="46.0638818" lon="13.5719858"><ele>619.0</ele><time>2026-05-03T10:52:53.116Z</time></trkpt><trkpt lat="46.0639456" lon="13.5719028"><ele>617.4</ele><time>2026-05-03T10:52:54.126Z</time></trkpt><trkpt lat="46.0640251" lon="13.5718095"><ele>615.8</ele><time>2026-05-03T10:52:55.111Z</time></trkpt><trkpt lat="46.0641059" lon="13.5717121"><ele>614.2</ele><time>2026-05-03T10:52:56.111Z</time></trkpt><trkpt lat="46.0641875" lon="13.5716076"><ele>612.6</ele><time>2026-05-03T10:52:57.11Z</time></trkpt><trkpt lat="46.0642668" lon="13.5715023"><ele>611.0</ele><time>2026-05-03T10:52:58.099Z</time></trkpt><trkpt lat="46.0643322" lon="13.571425"><ele>613.6666666666666</ele><time>2026-05-03T10:52:59.115Z</time></trkpt><trkpt lat="46.0644026" lon="13.5713832"><ele>616.3333333333333</ele><time>2026-05-03T10:53:00.114Z</time></trkpt><trkpt lat="46.0644816" lon="13.5713506"><ele>619.0</ele><time>2026-05-03T10:53:01.099Z</time></trkpt><trkpt lat="46.0645618" lon="13.57131"><ele>621.6666666666666</ele><time>2026-05-03T10:53:02.108Z</time></trkpt><trkpt lat="46.0646271" lon="13.5712617"><ele>624.3333333333334</ele><time>2026-05-03T10:53:03.104Z</time></trkpt><trkpt lat="46.064674" lon="13.571197"><ele>627.0</ele><time>2026-05-03T10:53:04.097Z</time></trkpt><trkpt lat="46.0647488" lon="13.5710863"><ele>627.0</ele><time>2026-05-03T10:53:06.108Z</time></trkpt><trkpt lat="46.0648136" lon="13.5711321"><ele>627.0</ele><time>2026-05-03T10:53:08.094Z</time></trkpt><trkpt lat="46.0647985" lon="13.5712507"><ele>627.0</ele><time>2026-05-03T10:53:10.098Z</time></trkpt><trkpt lat="46.06473" lon="13.5713806"><ele>627.0</ele><time>2026-05-03T10:53:12.095Z</time></trkpt><trkpt lat="46.0646638" lon="13.5714567"><ele>627.0</ele><time>2026-05-03T10:53:13.091Z</time></trkpt><trkpt lat="46.0645897" lon="13.5715178"><ele>627.0</ele><time>2026-05-03T10:53:14.118Z</time></trkpt><trkpt lat="46.0645035" lon="13.5715633"><ele>629.1666666666666</ele><time>2026-05-03T10:53:15.089Z</time></trkpt><trkpt lat="46.0644271" lon="13.5716181"><ele>631.3333333333334</ele><time>2026-05-03T10:53:16.099Z</time></trkpt><trkpt lat="46.0643777" lon="13.5717029"><ele>633.5</ele><time>2026-05-03T10:53:17.113Z</time></trkpt><trkpt lat="46.0643454" lon="13.5718059"><ele>635.6666666666667</ele><time>2026-05-03T10:53:18.094Z</time></trkpt><trkpt lat="46.0643261" lon="13.5719238"><ele>637.8333333333334</ele><time>2026-05-03T10:53:19.102Z</time></trkpt><trkpt lat="46.064344" lon="13.5720325"><ele>640.0</ele><time>2026-05-03T10:53:20.096Z</time></trkpt><trkpt lat="46.0644453" lon="13.5720605"><ele>640.0</ele><time>2026-05-03T10:53:22.109Z</time></trkpt><trkpt lat="46.0645017" lon="13.5719387"><ele>640.0</ele><time>2026-05-03T10:53:24.113Z</time></trkpt><trkpt lat="46.0645613" lon="13.5718443"><ele>640.0</ele><time>2026-05-03T10:53:26.12Z</time></trkpt><trkpt lat="46.0646007" lon="13.5719731"><ele>640.0</ele><time>2026-05-03T10:53:28.101Z</time></trkpt><trkpt lat="46.0646171" lon="13.5720677"><ele>640.0</ele><time>2026-05-03T10:53:29.104Z</time></trkpt><trkpt lat="46.0646415" lon="13.5721831"><ele>640.0</ele><time>2026-05-03T10:53:30.103Z</time></trkpt><trkpt lat="46.0646823" lon="13.5723029"><ele>640.8333333333334</ele><time>2026-05-03T10:53:31.109Z</time></trkpt><trkpt lat="46.0647269" lon="13.5724171"><ele>641.6666666666667</ele><time>2026-05-03T10:53:32.1Z</time></trkpt><trkpt lat="46.0647683" lon="13.5725134"><ele>642.5</ele><time>2026-05-03T10:53:33.113Z</time></trkpt><trkpt lat="46.0648271" lon="13.5725691"><ele>643.3333333333334</ele><time>2026-05-03T10:53:34.115Z</time></trkpt><trkpt lat="46.0648973" lon="13.5725706"><ele>644.1666666666666</ele><time>2026-05-03T10:53:35.099Z</time></trkpt><trkpt lat="46.0649703" lon="13.5725426"><ele>645.0</ele><time>2026-05-03T10:53:36.106Z</time></trkpt><trkpt lat="46.0650375" lon="13.5724939"><ele>647.0</ele><time>2026-05-03T10:53:37.099Z</time></trkpt><trkpt lat="46.0650904" lon="13.5724313"><ele>649.0</ele><time>2026-05-03T10:53:38.116Z</time></trkpt><trkpt lat="46.0651107" lon="13.5722756"><ele>651.0</ele><time>2026-05-03T10:53:40.111Z</time></trkpt><trkpt lat="46.0650921" lon="13.5721297"><ele>653.0</ele><time>2026-05-03T10:53:42.103Z</time></trkpt><trkpt lat="46.0650521" lon="13.5719592"><ele>655.0</ele><time>2026-05-03T10:53:44.111Z</time></trkpt><trkpt lat="46.0650337" lon="13.5718697"><ele>655.5</ele><time>2026-05-03T10:53:45.123Z</time></trkpt><trkpt lat="46.0650063" lon="13.5717199"><ele>656.0</ele><time>2026-05-03T10:53:47.114Z</time></trkpt><trkpt lat="46.0650252" lon="13.5716116"><ele>656.5</ele><time>2026-05-03T10:53:49.109Z</time></trkpt><trkpt lat="46.0651077" lon="13.571633"><ele>657.0</ele><time>2026-05-03T10:54:29.129Z</time></trkpt><trkpt lat="46.0651637" lon="13.5716969"><ele>657.5</ele><time>2026-05-03T10:54:30.119Z</time></trkpt><trkpt lat="46.0652262" lon="13.5717554"><ele>658.0</ele><time>2026-05-03T10:54:31.113Z</time></trkpt><trkpt lat="46.0653013" lon="13.5718194"><ele>658.0</ele><time>2026-05-03T10:54:32.122Z</time></trkpt><trkpt lat="46.0653923" lon="13.5718897"><ele>658.0</ele><time>2026-05-03T10:54:33.131Z</time></trkpt><trkpt lat="46.0654756" lon="13.5719412"><ele>658.0</ele><time>2026-05-03T10:54:34.123Z</time></trkpt><trkpt lat="46.06554" lon="13.5719531"><ele>658.0</ele><time>2026-05-03T10:54:35.143Z</time></trkpt><trkpt lat="46.0655764" lon="13.57185"><ele>658.0</ele><time>2026-05-03T10:54:37.123Z</time></trkpt><trkpt lat="46.0655242" lon="13.5717759"><ele>658.0</ele><time>2026-05-03T10:54:38.108Z</time></trkpt><trkpt lat="46.0654436" lon="13.5717279"><ele>658.0</ele><time>2026-05-03T10:54:39.119Z</time></trkpt><trkpt lat="46.0653611" lon="13.5716684"><ele>658.0</ele><time>2026-05-03T10:54:40.114Z</time></trkpt><trkpt lat="46.0653018" lon="13.5715964"><ele>658.0</ele><time>2026-05-03T10:54:41.125Z</time></trkpt><trkpt lat="46.0652893" lon="13.5714569"><ele>658.0</ele><time>2026-05-03T10:54:43.112Z</time></trkpt><trkpt lat="46.0653572" lon="13.5714485"><ele>658.0</ele><time>2026-05-03T10:54:44.109Z</time></trkpt><trkpt lat="46.0654347" lon="13.5714865"><ele>658.0</ele><time>2026-05-03T10:54:45.103Z</time></trkpt><trkpt lat="46.0655245" lon="13.5715426"><ele>658.0</ele><time>2026-05-03T10:54:46.096Z</time></trkpt><trkpt lat="46.0656273" lon="13.5716106"><ele>658.0</ele><time>2026-05-03T10:54:47.108Z</time></trkpt><trkpt lat="46.0657478" lon="13.5716845"><ele>658.0</ele><time>2026-05-03T10:54:48.116Z</time></trkpt><trkpt lat="46.0658755" lon="13.5717557"><ele>658.0</ele><time>2026-05-03T10:54:49.114Z</time></trkpt><trkpt lat="46.0660035" lon="13.5718324"><ele>663.5</ele><time>2026-05-03T10:54:50.117Z</time></trkpt><trkpt lat="46.0661236" lon="13.5718935"><ele>669.0</ele><time>2026-05-03T10:54:51.127Z</time></trkpt><trkpt lat="46.0662311" lon="13.5719267"><ele>674.5</ele><time>2026-05-03T10:54:52.119Z</time></trkpt><trkpt lat="46.0663427" lon="13.5719211"><ele>680.0</ele><time>2026-05-03T10:54:53.127Z</time></trkpt><trkpt lat="46.0664722" lon="13.5718938"><ele>680.0</ele><time>2026-05-03T10:54:54.112Z</time></trkpt><trkpt lat="46.0665906" lon="13.5718597"><ele>680.0</ele><time>2026-05-03T10:54:55.13Z</time></trkpt><trkpt lat="46.0666971" lon="13.571808"><ele>680.0</ele><time>2026-05-03T10:54:56.116Z</time></trkpt><trkpt lat="46.066788" lon="13.5717341"><ele>680.0</ele><time>2026-05-03T10:54:57.129Z</time></trkpt><trkpt lat="46.0668667" lon="13.5716549"><ele>680.0</ele><time>2026-05-03T10:54:58.115Z</time></trkpt><trkpt lat="46.0669379" lon="13.5715992"><ele>683.0</ele><time>2026-05-03T10:54:59.13Z</time></trkpt><trkpt lat="46.0670211" lon="13.5715977"><ele>686.0</ele><time>2026-05-03T10:55:00.13Z</time></trkpt><trkpt lat="46.067096" lon="13.5716705"><ele>689.0</ele><time>2026-05-03T10:55:01.139Z</time></trkpt><trkpt lat="46.0671836" lon="13.5717647"><ele>692.0</ele><time>2026-05-03T10:55:02.101Z</time></trkpt><trkpt lat="46.0672963" lon="13.5718661"><ele>695.0</ele><time>2026-05-03T10:55:03.102Z</time></trkpt><trkpt lat="46.0674272" lon="13.5719624"><ele>693.6666666666666</ele><time>2026-05-03T10:55:04.121Z</time></trkpt><trkpt lat="46.0675635" lon="13.572061"><ele>692.3333333333334</ele><time>2026-05-03T10:55:05.127Z</time></trkpt><trkpt lat="46.0676999" lon="13.5721571"><ele>691.0</ele><time>2026-05-03T10:55:06.122Z</time></trkpt><trkpt lat="46.0678343" lon="13.5722437"><ele>691.0</ele><time>2026-05-03T10:55:07.126Z</time></trkpt><trkpt lat="46.0679575" lon="13.5723273"><ele>691.0</ele><time>2026-05-03T10:55:08.113Z</time></trkpt><trkpt lat="46.0680625" lon="13.5724089"><ele>691.0</ele><time>2026-05-03T10:55:09.123Z</time></trkpt><trkpt lat="46.0681477" lon="13.5724951"><ele>691.0</ele><time>2026-05-03T10:55:10.118Z</time></trkpt><trkpt lat="46.0682088" lon="13.5725954"><ele>691.0</ele><time>2026-05-03T10:55:11.115Z</time></trkpt><trkpt lat="46.0682516" lon="13.5727208"><ele>691.0</ele><time>2026-05-03T10:55:12.131Z</time></trkpt><trkpt lat="46.0682732" lon="13.5728845"><ele>691.0</ele><time>2026-05-03T10:55:13.098Z</time></trkpt><trkpt lat="46.0682803" lon="13.5730512"><ele>691.0</ele><time>2026-05-03T10:55:14.1Z</time></trkpt><trkpt lat="46.0682689" lon="13.5732114"><ele>691.0</ele><time>2026-05-03T10:55:15.116Z</time></trkpt><trkpt lat="46.0682254" lon="13.5733743"><ele>692.0</ele><time>2026-05-03T10:55:16.089Z</time></trkpt><trkpt lat="46.0681708" lon="13.5735149"><ele>693.0</ele><time>2026-05-03T10:55:17.097Z</time></trkpt><trkpt lat="46.0681222" lon="13.57364"><ele>694.0</ele><time>2026-05-03T10:55:18.105Z</time></trkpt><trkpt lat="46.0681228" lon="13.5737738"><ele>695.0</ele><time>2026-05-03T10:55:19.121Z</time></trkpt><trkpt lat="46.0681492" lon="13.5739197"><ele>696.0</ele><time>2026-05-03T10:55:20.1Z</time></trkpt><trkpt lat="46.0681852" lon="13.5740495"><ele>698.1999999999999</ele><time>2026-05-03T10:55:21.109Z</time></trkpt><trkpt lat="46.0682567" lon="13.5741305"><ele>700.4</ele><time>2026-05-03T10:55:23.106Z</time></trkpt><trkpt lat="46.0682956" lon="13.5739954"><ele>702.6</ele><time>2026-05-03T10:55:25.104Z</time></trkpt><trkpt lat="46.0682819" lon="13.573872"><ele>704.8</ele><time>2026-05-03T10:55:26.107Z</time></trkpt><trkpt lat="46.0682989" lon="13.5737444"><ele>707.0</ele><time>2026-05-03T10:55:27.107Z</time></trkpt><trkpt lat="46.0683593" lon="13.5736479"><ele>709.4000000000001</ele><time>2026-05-03T10:55:28.13Z</time></trkpt><trkpt lat="46.0684246" lon="13.5736136"><ele>711.8000000000001</ele><time>2026-05-03T10:55:29.109Z</time></trkpt><trkpt lat="46.068509" lon="13.5737381"><ele>714.2</ele><time>2026-05-03T10:55:31.138Z</time></trkpt><trkpt lat="46.0685205" lon="13.5738664"><ele>716.6</ele><time>2026-05-03T10:55:32.112Z</time></trkpt><trkpt lat="46.0685406" lon="13.5739843"><ele>719.0</ele><time>2026-05-03T10:55:33.11Z</time></trkpt><trkpt lat="46.0686293" lon="13.5740641"><ele>719.0</ele><time>2026-05-03T10:55:35.131Z</time></trkpt><trkpt lat="46.06868" lon="13.5739583"><ele>719.0</ele><time>2026-05-03T10:55:37.111Z</time></trkpt><trkpt lat="46.0686743" lon="13.5738624"><ele>719.0</ele><time>2026-05-03T10:55:38.112Z</time></trkpt><trkpt lat="46.0686606" lon="13.5737394"><ele>719.0</ele><time>2026-05-03T10:55:39.111Z</time></trkpt><trkpt lat="46.0686574" lon="13.5736015"><ele>719.0</ele><time>2026-05-03T10:55:40.126Z</time></trkpt><trkpt lat="46.0686607" lon="13.5734269"><ele>719.0</ele><time>2026-05-03T10:55:41.128Z</time></trkpt><trkpt lat="46.0686751" lon="13.5732466"><ele>719.0</ele><time>2026-05-03T10:55:42.129Z</time></trkpt><trkpt lat="46.0686871" lon="13.5730513"><ele>719.0</ele><time>2026-05-03T10:55:43.126Z</time></trkpt><trkpt lat="46.0687006" lon="13.5728589"><ele>719.0</ele><time>2026-05-03T10:55:44.129Z</time></trkpt><trkpt lat="46.0687021" lon="13.5726646"><ele>718.0</ele><time>2026-05-03T10:55:45.12Z</time></trkpt><trkpt lat="46.0686915" lon="13.5724881"><ele>717.0</ele><time>2026-05-03T10:55:46.12Z</time></trkpt><trkpt lat="46.068667" lon="13.5723163"><ele>716.0</ele><time>2026-05-03T10:55:47.128Z</time></trkpt><trkpt lat="46.0686302" lon="13.5721598"><ele>715.0</ele><time>2026-05-03T10:55:48.142Z</time></trkpt><trkpt lat="46.0686033" lon="13.572012"><ele>717.0</ele><time>2026-05-03T10:55:49.13Z</time></trkpt><trkpt lat="46.0686087" lon="13.5718759"><ele>719.0</ele><time>2026-05-03T10:55:50.125Z</time></trkpt><trkpt lat="46.0686497" lon="13.5717577"><ele>721.0</ele><time>2026-05-03T10:55:51.117Z</time></trkpt><trkpt lat="46.0686963" lon="13.5716567"><ele>723.0</ele><time>2026-05-03T10:55:52.103Z</time></trkpt><trkpt lat="46.068733" lon="13.5715434"><ele>725.0</ele><time>2026-05-03T10:55:53.139Z</time></trkpt><trkpt lat="46.0687208" lon="13.5714175"><ele>727.0</ele><time>2026-05-03T10:55:54.137Z</time></trkpt><trkpt lat="46.068675" lon="13.5712802"><ele>729.25</ele><time>2026-05-03T10:55:55.115Z</time></trkpt><trkpt lat="46.0686166" lon="13.5711383"><ele>731.5</ele><time>2026-05-03T10:55:56.11Z</time></trkpt><trkpt lat="46.0685624" lon="13.5709724"><ele>733.75</ele><time>2026-05-03T10:55:57.106Z</time></trkpt><trkpt lat="46.0685408" lon="13.5707965"><ele>736.0</ele><time>2026-05-03T10:55:58.124Z</time></trkpt><trkpt lat="46.0685336" lon="13.5706315"><ele>736.0</ele><time>2026-05-03T10:55:59.105Z</time></trkpt><trkpt lat="46.0685371" lon="13.5704551"><ele>736.0</ele><time>2026-05-03T10:56:00.12Z</time></trkpt><trkpt lat="46.0685669" lon="13.5702763"><ele>736.0</ele><time>2026-05-03T10:56:01.123Z</time></trkpt><trkpt lat="46.0685931" lon="13.5701024"><ele>736.0</ele><time>2026-05-03T10:56:02.124Z</time></trkpt><trkpt lat="46.0686083" lon="13.5699385"><ele>735.75</ele><time>2026-05-03T10:56:03.132Z</time></trkpt><trkpt lat="46.0685947" lon="13.569768"><ele>735.5</ele><time>2026-05-03T10:56:04.131Z</time></trkpt><trkpt lat="46.0685646" lon="13.569585"><ele>735.25</ele><time>2026-05-03T10:56:05.132Z</time></trkpt><trkpt lat="46.0685042" lon="13.5694104"><ele>735.0</ele><time>2026-05-03T10:56:06.118Z</time></trkpt><trkpt lat="46.0684245" lon="13.5692306"><ele>734.5</ele><time>2026-05-03T10:56:07.103Z</time></trkpt><trkpt lat="46.0683499" lon="13.5690563"><ele>734.0</ele><time>2026-05-03T10:56:08.119Z</time></trkpt><trkpt lat="46.0682755" lon="13.5688887"><ele>733.5</ele><time>2026-05-03T10:56:09.118Z</time></trkpt><trkpt lat="46.0682132" lon="13.5687258"><ele>733.0</ele><time>2026-05-03T10:56:10.112Z</time></trkpt><trkpt lat="46.0681651" lon="13.5685783"><ele>732.5999999999999</ele><time>2026-05-03T10:56:11.125Z</time></trkpt><trkpt lat="46.0681514" lon="13.5684405"><ele>732.1999999999999</ele><time>2026-05-03T10:56:12.121Z</time></trkpt><trkpt lat="46.0681754" lon="13.5683246"><ele>731.8</ele><time>2026-05-03T10:56:13.106Z</time></trkpt><trkpt lat="46.0682264" lon="13.5682419"><ele>731.4</ele><time>2026-05-03T10:56:14.102Z</time></trkpt><trkpt lat="46.0683114" lon="13.5681826"><ele>731.0</ele><time>2026-05-03T10:56:15.107Z</time></trkpt><trkpt lat="46.0683998" lon="13.5681079"><ele>731.0</ele><time>2026-05-03T10:56:16.102Z</time></trkpt><trkpt lat="46.0684685" lon="13.5679735"><ele>731.0</ele><time>2026-05-03T10:56:17.128Z</time></trkpt><trkpt lat="46.0685018" lon="13.56783"><ele>731.0</ele><time>2026-05-03T10:56:18.101Z</time></trkpt><trkpt lat="46.0685259" lon="13.5676836"><ele>731.0</ele><time>2026-05-03T10:56:19.11Z</time></trkpt><trkpt lat="46.0685787" lon="13.5675672"><ele>731.0</ele><time>2026-05-03T10:56:20.131Z</time></trkpt><trkpt lat="46.0686504" lon="13.567495"><ele>731.8333333333333</ele><time>2026-05-03T10:56:21.117Z</time></trkpt><trkpt lat="46.0687369" lon="13.5674439"><ele>732.6666666666666</ele><time>2026-05-03T10:56:23.114Z</time></trkpt><trkpt lat="46.0687423" lon="13.5673487"><ele>733.5</ele><time>2026-05-03T10:56:37.12Z</time></trkpt><trkpt lat="46.0687813" lon="13.5672307"><ele>734.3333333333334</ele><time>2026-05-03T10:56:39.115Z</time></trkpt><trkpt lat="46.0688361" lon="13.5671587"><ele>735.1666666666667</ele><time>2026-05-03T10:56:40.116Z</time></trkpt><trkpt lat="46.0689023" lon="13.5670677"><ele>736.0</ele><time>2026-05-03T10:56:41.11Z</time></trkpt><trkpt lat="46.068968" lon="13.5669524"><ele>736.8</ele><time>2026-05-03T10:56:42.117Z</time></trkpt><trkpt lat="46.0690157" lon="13.5668148"><ele>737.5999999999999</ele><time>2026-05-03T10:56:43.122Z</time></trkpt><trkpt lat="46.069049" lon="13.5666973"><ele>738.4</ele><time>2026-05-03T10:56:44.111Z</time></trkpt><trkpt lat="46.0690816" lon="13.5665693"><ele>739.2</ele><time>2026-05-03T10:56:46.124Z</time></trkpt><trkpt lat="46.0690784" lon="13.5664699"><ele>740.0</ele><time>2026-05-03T10:56:48.12Z</time></trkpt><trkpt lat="46.0690659" lon="13.5663249"><ele>740.0</ele><time>2026-05-03T10:56:50.133Z</time></trkpt><trkpt lat="46.0690365" lon="13.5662321"><ele>740.0</ele><time>2026-05-03T10:56:51.127Z</time></trkpt><trkpt lat="46.0689974" lon="13.5661498"><ele>740.0</ele><time>2026-05-03T10:56:52.104Z</time></trkpt><trkpt lat="46.0689585" lon="13.5660657"><ele>740.0</ele><time>2026-05-03T10:56:53.139Z</time></trkpt><trkpt lat="46.0688888" lon="13.5659769"><ele>740.0</ele><time>2026-05-03T10:56:54.124Z</time></trkpt><trkpt lat="46.068806" lon="13.5658806"><ele>740.0</ele><time>2026-05-03T10:56:55.136Z</time></trkpt><trkpt lat="46.0687367" lon="13.5658069"><ele>740.6666666666666</ele><time>2026-05-03T10:56:56.132Z</time></trkpt><trkpt lat="46.0686302" lon="13.5657499"><ele>741.3333333333333</ele><time>2026-05-03T10:56:58.123Z</time></trkpt><trkpt lat="46.068568" lon="13.5657722"><ele>742.0</ele><time>2026-05-03T10:56:59.111Z</time></trkpt><trkpt lat="46.0685083" lon="13.5658195"><ele>742.6666666666666</ele><time>2026-05-03T10:57:00.11Z</time></trkpt><trkpt lat="46.0684337" lon="13.5658965"><ele>743.3333333333334</ele><time>2026-05-03T10:57:02.125Z</time></trkpt><trkpt lat="46.0683703" lon="13.5659388"><ele>744.0</ele><time>2026-05-03T10:57:18.119Z</time></trkpt><trkpt lat="46.0682596" lon="13.5659493"><ele>744.0</ele><time>2026-05-03T10:57:20.11Z</time></trkpt><trkpt lat="46.0681992" lon="13.5659821"><ele>744.0</ele><time>2026-05-03T10:57:21.133Z</time></trkpt><trkpt lat="46.068115" lon="13.5660499"><ele>744.0</ele><time>2026-05-03T10:57:22.118Z</time></trkpt><trkpt lat="46.0680256" lon="13.5661219"><ele>744.0</ele><time>2026-05-03T10:57:23.124Z</time></trkpt><trkpt lat="46.067933" lon="13.5661762"><ele>744.0</ele><time>2026-05-03T10:57:24.125Z</time></trkpt><trkpt lat="46.0678431" lon="13.5662121"><ele>744.0</ele><time>2026-05-03T10:57:25.127Z</time></trkpt><trkpt lat="46.0677613" lon="13.5662248"><ele>744.0</ele><time>2026-05-03T10:57:26.133Z</time></trkpt><trkpt lat="46.0676751" lon="13.5662085"><ele>744.0</ele><time>2026-05-03T10:57:27.124Z</time></trkpt><trkpt lat="46.0675899" lon="13.5661764"><ele>744.0</ele><time>2026-05-03T10:57:28.117Z</time></trkpt><trkpt lat="46.067516" lon="13.5661291"><ele>744.0</ele><time>2026-05-03T10:57:29.121Z</time></trkpt><trkpt lat="46.0674518" lon="13.5660546"><ele>744.0</ele><time>2026-05-03T10:57:30.115Z</time></trkpt><trkpt lat="46.0674083" lon="13.5659702"><ele>744.0</ele><time>2026-05-03T10:57:31.105Z</time></trkpt><trkpt lat="46.067401" lon="13.565855"><ele>744.0</ele><time>2026-05-03T10:57:32.117Z</time></trkpt><trkpt lat="46.0674388" lon="13.5657024"><ele>744.0</ele><time>2026-05-03T10:57:33.111Z</time></trkpt><trkpt lat="46.0674801" lon="13.5655209"><ele>744.0</ele><time>2026-05-03T10:57:34.111Z</time></trkpt><trkpt lat="46.0675152" lon="13.5653494"><ele>744.0</ele><time>2026-05-03T10:57:35.11Z</time></trkpt><trkpt lat="46.0675459" lon="13.5651863"><ele>745.0</ele><time>2026-05-03T10:57:36.129Z</time></trkpt><trkpt lat="46.0675665" lon="13.5650325"><ele>746.0</ele><time>2026-05-03T10:57:37.114Z</time></trkpt><trkpt lat="46.0675732" lon="13.5648891"><ele>747.0</ele><time>2026-05-03T10:57:38.121Z</time></trkpt><trkpt lat="46.067566" lon="13.564753"><ele>748.0</ele><time>2026-05-03T10:57:39.124Z</time></trkpt><trkpt lat="46.0675473" lon="13.5646309"><ele>749.0</ele><time>2026-05-03T10:57:40.12Z</time></trkpt><trkpt lat="46.0675363" lon="13.5645149"><ele>750.8000000000001</ele><time>2026-05-03T10:57:41.131Z</time></trkpt><trkpt lat="46.0675652" lon="13.5644134"><ele>752.6</ele><time>2026-05-03T10:57:42.117Z</time></trkpt><trkpt lat="46.0676311" lon="13.5643343"><ele>754.4</ele><time>2026-05-03T10:57:43.105Z</time></trkpt><trkpt lat="46.0677238" lon="13.5642498"><ele>756.2</ele><time>2026-05-03T10:57:44.102Z</time></trkpt><trkpt lat="46.0678197" lon="13.5641555"><ele>758.0</ele><time>2026-05-03T10:57:45.097Z</time></trkpt><trkpt lat="46.067911" lon="13.564032"><ele>758.0</ele><time>2026-05-03T10:57:46.112Z</time></trkpt><trkpt lat="46.0680008" lon="13.5638885"><ele>758.0</ele><time>2026-05-03T10:57:47.116Z</time></trkpt><trkpt lat="46.0680838" lon="13.5637418"><ele>758.0</ele><time>2026-05-03T10:57:48.113Z</time></trkpt><trkpt lat="46.0681532" lon="13.5635911"><ele>758.0</ele><time>2026-05-03T10:57:49.111Z</time></trkpt><trkpt lat="46.0682212" lon="13.5634148"><ele>755.75</ele><time>2026-05-03T10:57:50.123Z</time></trkpt><trkpt lat="46.0682794" lon="13.5632292"><ele>753.5</ele><time>2026-05-03T10:57:51.112Z</time></trkpt><trkpt lat="46.0683308" lon="13.5630451"><ele>751.25</ele><time>2026-05-03T10:57:52.107Z</time></trkpt><trkpt lat="46.0683759" lon="13.562853"><ele>749.0</ele><time>2026-05-03T10:57:53.113Z</time></trkpt><trkpt lat="46.0684166" lon="13.5626628"><ele>749.0</ele><time>2026-05-03T10:57:54.113Z</time></trkpt><trkpt lat="46.0684595" lon="13.5624767"><ele>749.0</ele><time>2026-05-03T10:57:55.111Z</time></trkpt><trkpt lat="46.0685081" lon="13.562286"><ele>749.0</ele><time>2026-05-03T10:57:56.123Z</time></trkpt><trkpt lat="46.0685524" lon="13.5620834"><ele>749.0</ele><time>2026-05-03T10:57:57.105Z</time></trkpt><trkpt lat="46.0685956" lon="13.5618825"><ele>750.5</ele><time>2026-05-03T10:57:58.103Z</time></trkpt><trkpt lat="46.0686375" lon="13.5616839"><ele>752.0</ele><time>2026-05-03T10:57:59.099Z</time></trkpt><trkpt lat="46.0686723" lon="13.5614869"><ele>753.5</ele><time>2026-05-03T10:58:00.114Z</time></trkpt><trkpt lat="46.0686986" lon="13.5612828"><ele>755.0</ele><time>2026-05-03T10:58:01.106Z</time></trkpt><trkpt lat="46.0687147" lon="13.5610676"><ele>755.6666666666666</ele><time>2026-05-03T10:58:02.105Z</time></trkpt><trkpt lat="46.0687318" lon="13.5608459"><ele>756.3333333333334</ele><time>2026-05-03T10:58:03.112Z</time></trkpt><trkpt lat="46.0687438" lon="13.5606161"><ele>757.0</ele><time>2026-05-03T10:58:04.116Z</time></trkpt><trkpt lat="46.068755" lon="13.5603944"><ele>756.3333333333334</ele><time>2026-05-03T10:58:05.11Z</time></trkpt><trkpt lat="46.0687717" lon="13.5601691"><ele>755.6666666666666</ele><time>2026-05-03T10:58:06.113Z</time></trkpt><trkpt lat="46.0687922" lon="13.5599498"><ele>755.0</ele><time>2026-05-03T10:58:07.122Z</time></trkpt><trkpt lat="46.0688149" lon="13.5597378"><ele>754.0</ele><time>2026-05-03T10:58:08.108Z</time></trkpt><trkpt lat="46.0688483" lon="13.559532"><ele>753.0</ele><time>2026-05-03T10:58:09.101Z</time></trkpt><trkpt lat="46.0688824" lon="13.5593364"><ele>752.0</ele><time>2026-05-03T10:58:10.096Z</time></trkpt><trkpt lat="46.0688978" lon="13.5591631"><ele>751.0</ele><time>2026-05-03T10:58:11.105Z</time></trkpt><trkpt lat="46.0688936" lon="13.5590155"><ele>751.0</ele><time>2026-05-03T10:58:12.107Z</time></trkpt><trkpt lat="46.0688705" lon="13.5588666"><ele>751.0</ele><time>2026-05-03T10:58:13.115Z</time></trkpt><trkpt lat="46.0688368" lon="13.5586998"><ele>751.0</ele><time>2026-05-03T10:58:14.101Z</time></trkpt><trkpt lat="46.0688028" lon="13.5585385"><ele>751.0</ele><time>2026-05-03T10:58:15.11Z</time></trkpt><trkpt lat="46.0687898" lon="13.5583849"><ele>750.5</ele><time>2026-05-03T10:58:16.107Z</time></trkpt><trkpt lat="46.0688001" lon="13.5582266"><ele>750.0</ele><time>2026-05-03T10:58:17.104Z</time></trkpt><trkpt lat="46.0688292" lon="13.5580647"><ele>749.5</ele><time>2026-05-03T10:58:18.114Z</time></trkpt><trkpt lat="46.0688727" lon="13.5578858"><ele>749.0</ele><time>2026-05-03T10:58:19.111Z</time></trkpt><trkpt lat="46.068927" lon="13.5576949"><ele>748.6666666666666</ele><time>2026-05-03T10:58:20.104Z</time></trkpt><trkpt lat="46.0689868" lon="13.5574872"><ele>748.3333333333334</ele><time>2026-05-03T10:58:21.105Z</time></trkpt><trkpt lat="46.0690474" lon="13.5572672"><ele>748.0</ele><time>2026-05-03T10:58:22.109Z</time></trkpt><trkpt lat="46.0691084" lon="13.5570469"><ele>734.6666666666667</ele><time>2026-05-03T10:58:23.114Z</time></trkpt><trkpt lat="46.069166" lon="13.5568322"><ele>721.3333333333334</ele><time>2026-05-03T10:58:24.111Z</time></trkpt><trkpt lat="46.0692158" lon="13.5566252"><ele>708.0</ele><time>2026-05-03T10:58:25.104Z</time></trkpt><trkpt lat="46.0692651" lon="13.5564123"><ele>708.6666666666666</ele><time>2026-05-03T10:58:26.106Z</time></trkpt><trkpt lat="46.0693133" lon="13.556203"><ele>709.3333333333333</ele><time>2026-05-03T10:58:27.108Z</time></trkpt><trkpt lat="46.0693545" lon="13.5559973"><ele>710.0</ele><time>2026-05-03T10:58:28.113Z</time></trkpt><trkpt lat="46.069396" lon="13.555792"><ele>710.0</ele><time>2026-05-03T10:58:29.109Z</time></trkpt><trkpt lat="46.0694361" lon="13.5555969"><ele>710.0</ele><time>2026-05-03T10:58:30.116Z</time></trkpt><trkpt lat="46.0694858" lon="13.555395"><ele>710.0</ele><time>2026-05-03T10:58:31.111Z</time></trkpt><trkpt lat="46.069543" lon="13.5551926"><ele>710.0</ele><time>2026-05-03T10:58:32.107Z</time></trkpt><trkpt lat="46.0696005" lon="13.5549976"><ele>710.0</ele><time>2026-05-03T10:58:33.107Z</time></trkpt><trkpt lat="46.069655" lon="13.5548095"><ele>710.0</ele><time>2026-05-03T10:58:34.116Z</time></trkpt><trkpt lat="46.0697088" lon="13.5546277"><ele>710.0</ele><time>2026-05-03T10:58:35.117Z</time></trkpt><trkpt lat="46.0697515" lon="13.5544501"><ele>710.0</ele><time>2026-05-03T10:58:36.109Z</time></trkpt><trkpt lat="46.0697863" lon="13.5542629"><ele>710.0</ele><time>2026-05-03T10:58:37.118Z</time></trkpt><trkpt lat="46.0698063" lon="13.5540714"><ele>710.0</ele><time>2026-05-03T10:58:38.107Z</time></trkpt><trkpt lat="46.0698209" lon="13.5538792"><ele>710.0</ele><time>2026-05-03T10:58:39.126Z</time></trkpt><trkpt lat="46.0698468" lon="13.5537002"><ele>710.0</ele><time>2026-05-03T10:58:40.114Z</time></trkpt><trkpt lat="46.0698837" lon="13.5535447"><ele>710.25</ele><time>2026-05-03T10:58:41.114Z</time></trkpt><trkpt lat="46.0699012" lon="13.5533892"><ele>710.5</ele><time>2026-05-03T10:58:42.103Z</time></trkpt><trkpt lat="46.0699051" lon="13.5532215"><ele>710.75</ele><time>2026-05-03T10:58:43.097Z</time></trkpt><trkpt lat="46.0699039" lon="13.5530397"><ele>711.0</ele><time>2026-05-03T10:58:44.093Z</time></trkpt><trkpt lat="46.0699125" lon="13.5528601"><ele>709.75</ele><time>2026-05-03T10:58:45.089Z</time></trkpt><trkpt lat="46.0699355" lon="13.5526775"><ele>708.5</ele><time>2026-05-03T10:58:46.111Z</time></trkpt><trkpt lat="46.0699804" lon="13.552485"><ele>707.25</ele><time>2026-05-03T10:58:47.094Z</time></trkpt><trkpt lat="46.0700234" lon="13.5522953"><ele>706.0</ele><time>2026-05-03T10:58:48.095Z</time></trkpt><trkpt lat="46.070071" lon="13.5521033"><ele>700.5</ele><time>2026-05-03T10:58:49.097Z</time></trkpt><trkpt lat="46.0701157" lon="13.5519325"><ele>695.0</ele><time>2026-05-03T10:58:50.106Z</time></trkpt><trkpt lat="46.0701479" lon="13.5517707"><ele>689.5</ele><time>2026-05-03T10:58:51.117Z</time></trkpt><trkpt lat="46.0701713" lon="13.5516145"><ele>684.0</ele><time>2026-05-03T10:58:52.113Z</time></trkpt><trkpt lat="46.0701835" lon="13.5514596"><ele>684.0</ele><time>2026-05-03T10:58:53.132Z</time></trkpt><trkpt lat="46.070179" lon="13.5512969"><ele>684.0</ele><time>2026-05-03T10:58:54.104Z</time></trkpt><trkpt lat="46.0701496" lon="13.5511343"><ele>684.0</ele><time>2026-05-03T10:58:55.109Z</time></trkpt><trkpt lat="46.0701115" lon="13.5509865"><ele>684.0</ele><time>2026-05-03T10:58:56.105Z</time></trkpt><trkpt lat="46.0700647" lon="13.550853"><ele>684.0</ele><time>2026-05-03T10:58:57.126Z</time></trkpt><trkpt lat="46.0700087" lon="13.5507338"><ele>683.25</ele><time>2026-05-03T10:58:58.113Z</time></trkpt><trkpt lat="46.0699233" lon="13.5506363"><ele>682.5</ele><time>2026-05-03T10:58:59.114Z</time></trkpt><trkpt lat="46.0698192" lon="13.550552"><ele>681.75</ele><time>2026-05-03T10:59:00.095Z</time></trkpt><trkpt lat="46.0697115" lon="13.5504701"><ele>681.0</ele><time>2026-05-03T10:59:01.092Z</time></trkpt><trkpt lat="46.0695984" lon="13.5503702"><ele>677.3333333333334</ele><time>2026-05-03T10:59:02.106Z</time></trkpt><trkpt lat="46.0694711" lon="13.5502644"><ele>673.6666666666667</ele><time>2026-05-03T10:59:03.106Z</time></trkpt><trkpt lat="46.0693438" lon="13.5501429"><ele>670.0</ele><time>2026-05-03T10:59:04.115Z</time></trkpt><trkpt lat="46.0692215" lon="13.5500163"><ele>667.3333333333334</ele><time>2026-05-03T10:59:05.112Z</time></trkpt><trkpt lat="46.0690975" lon="13.5498877"><ele>664.6666666666666</ele><time>2026-05-03T10:59:06.123Z</time></trkpt><trkpt lat="46.0689757" lon="13.5497553"><ele>662.0</ele><time>2026-05-03T10:59:07.119Z</time></trkpt><trkpt lat="46.0688566" lon="13.5496178"><ele>659.4000000000001</ele><time>2026-05-03T10:59:08.107Z</time></trkpt><trkpt lat="46.06874" lon="13.5494886"><ele>656.8000000000001</ele><time>2026-05-03T10:59:09.103Z</time></trkpt><trkpt lat="46.068645" lon="13.5493821"><ele>654.2</ele><time>2026-05-03T10:59:10.115Z</time></trkpt><trkpt lat="46.0685648" lon="13.5493039"><ele>651.6</ele><time>2026-05-03T10:59:11.109Z</time></trkpt><trkpt lat="46.0684899" lon="13.5492661"><ele>649.0</ele><time>2026-05-03T10:59:12.111Z</time></trkpt><trkpt lat="46.0684137" lon="13.5492759"><ele>649.0</ele><time>2026-05-03T10:59:13.093Z</time></trkpt><trkpt lat="46.0683255" lon="13.5493207"><ele>649.0</ele><time>2026-05-03T10:59:14.095Z</time></trkpt><trkpt lat="46.0682474" lon="13.549383"><ele>649.0</ele><time>2026-05-03T10:59:15.084Z</time></trkpt><trkpt lat="46.0681843" lon="13.5494958"><ele>649.0</ele><time>2026-05-03T10:59:16.098Z</time></trkpt><trkpt lat="46.0681247" lon="13.5496442"><ele>649.0</ele><time>2026-05-03T10:59:17.091Z</time></trkpt><trkpt lat="46.0680594" lon="13.5497956"><ele>647.75</ele><time>2026-05-03T10:59:18.096Z</time></trkpt><trkpt lat="46.0679895" lon="13.5499441"><ele>646.5</ele><time>2026-05-03T10:59:19.097Z</time></trkpt><trkpt lat="46.0679229" lon="13.5501039"><ele>645.25</ele><time>2026-05-03T10:59:20.111Z</time></trkpt><trkpt lat="46.0678654" lon="13.5502678"><ele>644.0</ele><time>2026-05-03T10:59:21.092Z</time></trkpt><trkpt lat="46.0678143" lon="13.550454"><ele>644.0</ele><time>2026-05-03T10:59:22.099Z</time></trkpt><trkpt lat="46.0677782" lon="13.5506455"><ele>644.0</ele><time>2026-05-03T10:59:23.098Z</time></trkpt><trkpt lat="46.0677405" lon="13.5508363"><ele>644.0</ele><time>2026-05-03T10:59:24.106Z</time></trkpt><trkpt lat="46.0677094" lon="13.55101"><ele>644.0</ele><time>2026-05-03T10:59:25.102Z</time></trkpt><trkpt lat="46.0676794" lon="13.5511588"><ele>642.8333333333333</ele><time>2026-05-03T10:59:26.102Z</time></trkpt><trkpt lat="46.0676633" lon="13.5512697"><ele>641.6666666666666</ele><time>2026-05-03T10:59:27.094Z</time></trkpt><trkpt lat="46.0676262" lon="13.5513843"><ele>640.5</ele><time>2026-05-03T10:59:29.096Z</time></trkpt><trkpt lat="46.0675402" lon="13.5513912"><ele>639.3333333333334</ele><time>2026-05-03T10:59:32.088Z</time></trkpt><trkpt lat="46.0674752" lon="13.5513598"><ele>638.1666666666667</ele><time>2026-05-03T10:59:34.082Z</time></trkpt><trkpt lat="46.0673734" lon="13.5512581"><ele>637.0</ele><time>2026-05-03T10:59:36.086Z</time></trkpt><trkpt lat="46.0672937" lon="13.5511715"><ele>637.0</ele><time>2026-05-03T10:59:38.087Z</time></trkpt><trkpt lat="46.067222" lon="13.5511409"><ele>637.0</ele><time>2026-05-03T10:59:42.103Z</time></trkpt><trkpt lat="46.0671759" lon="13.5510587"><ele>637.0</ele><time>2026-05-03T10:59:46.082Z</time></trkpt><trkpt lat="46.0671096" lon="13.5509705"><ele>637.0</ele><time>2026-05-03T10:59:48.092Z</time></trkpt><trkpt lat="46.0670573" lon="13.5509135"><ele>637.0</ele><time>2026-05-03T10:59:49.086Z</time></trkpt><trkpt lat="46.0669548" lon="13.5508209"><ele>637.0</ele><time>2026-05-03T10:59:51.097Z</time></trkpt><trkpt lat="46.0668608" lon="13.550778"><ele>637.0</ele><time>2026-05-03T10:59:53.078Z</time></trkpt><trkpt lat="46.0667723" lon="13.5507905"><ele>637.0</ele><time>2026-05-03T10:59:55.086Z</time></trkpt><trkpt lat="46.0667137" lon="13.5508388"><ele>637.0</ele><time>2026-05-03T10:59:56.079Z</time></trkpt><trkpt lat="46.0666565" lon="13.5508826"><ele>637.0</ele><time>2026-05-03T10:59:57.08Z</time></trkpt><trkpt lat="46.066595" lon="13.5509322"><ele>637.0</ele><time>2026-05-03T10:59:58.088Z</time></trkpt><trkpt lat="46.066529" lon="13.550983"><ele>637.0</ele><time>2026-05-03T10:59:59.088Z</time></trkpt><trkpt lat="46.06642" lon="13.5510304"><ele>642.5</ele><time>2026-05-03T11:00:01.081Z</time></trkpt><trkpt lat="46.0663475" lon="13.5509732"><ele>648.0</ele><time>2026-05-03T11:00:03.082Z</time></trkpt><trkpt lat="46.0662592" lon="13.5508244"><ele>653.5</ele><time>2026-05-03T11:00:05.077Z</time></trkpt><trkpt lat="46.066198" lon="13.5506952"><ele>659.0</ele><time>2026-05-03T11:00:06.079Z</time></trkpt><trkpt lat="46.0661269" lon="13.550506"><ele>653.75</ele><time>2026-05-03T11:00:07.084Z</time></trkpt><trkpt lat="46.0660626" lon="13.5503018"><ele>648.5</ele><time>2026-05-03T11:00:08.096Z</time></trkpt><trkpt lat="46.0660125" lon="13.5501357"><ele>643.25</ele><time>2026-05-03T11:00:09.072Z</time></trkpt><trkpt lat="46.0659666" lon="13.5499818"><ele>638.0</ele><time>2026-05-03T11:00:10.075Z</time></trkpt><trkpt lat="46.0659152" lon="13.5498296"><ele>638.0</ele><time>2026-05-03T11:00:11.082Z</time></trkpt><trkpt lat="46.0658589" lon="13.5496869"><ele>638.0</ele><time>2026-05-03T11:00:12.088Z</time></trkpt><trkpt lat="46.0657985" lon="13.5495589"><ele>638.0</ele><time>2026-05-03T11:00:13.095Z</time></trkpt><trkpt lat="46.0657356" lon="13.549443"><ele>638.0</ele><time>2026-05-03T11:00:14.078Z</time></trkpt><trkpt lat="46.0656645" lon="13.5493513"><ele>638.0</ele><time>2026-05-03T11:00:15.09Z</time></trkpt><trkpt lat="46.0655792" lon="13.5492756"><ele>635.8</ele><time>2026-05-03T11:00:16.092Z</time></trkpt><trkpt lat="46.0654839" lon="13.5492073"><ele>633.5999999999999</ele><time>2026-05-03T11:00:17.088Z</time></trkpt><trkpt lat="46.0653869" lon="13.549164"><ele>631.4000000000001</ele><time>2026-05-03T11:00:18.101Z</time></trkpt><trkpt lat="46.065286" lon="13.5491394"><ele>629.2</ele><time>2026-05-03T11:00:19.098Z</time></trkpt><trkpt lat="46.0651983" lon="13.5491347"><ele>627.0</ele><time>2026-05-03T11:00:20.093Z</time></trkpt><trkpt lat="46.0651184" lon="13.5491683"><ele>627.0</ele><time>2026-05-03T11:00:21.083Z</time></trkpt><trkpt lat="46.0650263" lon="13.5492276"><ele>627.0</ele><time>2026-05-03T11:00:22.086Z</time></trkpt><trkpt lat="46.0649322" lon="13.5492932"><ele>627.0</ele><time>2026-05-03T11:00:23.084Z</time></trkpt><trkpt lat="46.0648443" lon="13.5493403"><ele>627.0</ele><time>2026-05-03T11:00:24.083Z</time></trkpt><trkpt lat="46.0647757" lon="13.5493642"><ele>627.0</ele><time>2026-05-03T11:00:25.09Z</time></trkpt><trkpt lat="46.0646834" lon="13.5493269"><ele>629.4</ele><time>2026-05-03T11:00:27.079Z</time></trkpt><trkpt lat="46.0646463" lon="13.5492307"><ele>631.8000000000001</ele><time>2026-05-03T11:00:28.076Z</time></trkpt><trkpt lat="46.0645984" lon="13.5491182"><ele>634.2</ele><time>2026-05-03T11:00:29.074Z</time></trkpt><trkpt lat="46.0645477" lon="13.5489981"><ele>636.6</ele><time>2026-05-03T11:00:30.078Z</time></trkpt><trkpt lat="46.0644883" lon="13.5488938"><ele>639.0</ele><time>2026-05-03T11:00:31.093Z</time></trkpt><trkpt lat="46.0644126" lon="13.5488159"><ele>639.0</ele><time>2026-05-03T11:00:32.089Z</time></trkpt><trkpt lat="46.0643187" lon="13.5487598"><ele>639.0</ele><time>2026-05-03T11:00:33.087Z</time></trkpt><trkpt lat="46.0642006" lon="13.5487224"><ele>639.0</ele><time>2026-05-03T11:00:34.088Z</time></trkpt><trkpt lat="46.0640643" lon="13.548694"><ele>639.0</ele><time>2026-05-03T11:00:35.078Z</time></trkpt><trkpt lat="46.0639427" lon="13.5486591"><ele>637.3333333333334</ele><time>2026-05-03T11:00:36.092Z</time></trkpt><trkpt lat="46.0638413" lon="13.5486255"><ele>635.6666666666666</ele><time>2026-05-03T11:00:37.082Z</time></trkpt><trkpt lat="46.0637695" lon="13.5485956"><ele>634.0</ele><time>2026-05-03T11:00:38.087Z</time></trkpt><trkpt lat="46.0637063" lon="13.548559"><ele>632.3333333333333</ele><time>2026-05-03T11:00:39.085Z</time></trkpt><trkpt lat="46.0636516" lon="13.5485028"><ele>630.6666666666666</ele><time>2026-05-03T11:00:40.102Z</time></trkpt><trkpt lat="46.0635912" lon="13.5484108"><ele>629.0</ele><time>2026-05-03T11:00:41.072Z</time></trkpt><trkpt lat="46.0635193" lon="13.5483117"><ele>629.0</ele><time>2026-05-03T11:00:42.087Z</time></trkpt><trkpt lat="46.0634431" lon="13.5481983"><ele>629.0</ele><time>2026-05-03T11:00:43.079Z</time></trkpt><trkpt lat="46.0633705" lon="13.548097"><ele>629.0</ele><time>2026-05-03T11:00:44.091Z</time></trkpt><trkpt lat="46.0632941" lon="13.5480054"><ele>629.0</ele><time>2026-05-03T11:00:45.075Z</time></trkpt><trkpt lat="46.0632234" lon="13.5479116"><ele>629.0</ele><time>2026-05-03T11:00:46.087Z</time></trkpt><trkpt lat="46.0631431" lon="13.547834"><ele>632.2</ele><time>2026-05-03T11:00:47.084Z</time></trkpt><trkpt lat="46.0630687" lon="13.547782"><ele>635.4</ele><time>2026-05-03T11:00:48.085Z</time></trkpt><trkpt lat="46.0629913" lon="13.5477156"><ele>638.6</ele><time>2026-05-03T11:00:49.081Z</time></trkpt><trkpt lat="46.0629117" lon="13.5476298"><ele>641.8</ele><time>2026-05-03T11:00:50.099Z</time></trkpt><trkpt lat="46.0628611" lon="13.5475184"><ele>645.0</ele><time>2026-05-03T11:00:51.089Z</time></trkpt><trkpt lat="46.0628153" lon="13.5473802"><ele>645.0</ele><time>2026-05-03T11:00:52.085Z</time></trkpt><trkpt lat="46.062775" lon="13.5472469"><ele>645.0</ele><time>2026-05-03T11:00:53.074Z</time></trkpt><trkpt lat="46.0627341" lon="13.5471252"><ele>645.0</ele><time>2026-05-03T11:00:54.08Z</time></trkpt><trkpt lat="46.0626754" lon="13.5469973"><ele>645.0</ele><time>2026-05-03T11:00:55.085Z</time></trkpt><trkpt lat="46.0626022" lon="13.546865"><ele>645.0</ele><time>2026-05-03T11:00:56.086Z</time></trkpt><trkpt lat="46.0625327" lon="13.5467367"><ele>644.4</ele><time>2026-05-03T11:00:57.09Z</time></trkpt><trkpt lat="46.0624712" lon="13.5465909"><ele>643.8</ele><time>2026-05-03T11:00:58.093Z</time></trkpt><trkpt lat="46.0624118" lon="13.5464348"><ele>643.2</ele><time>2026-05-03T11:00:59.097Z</time></trkpt><trkpt lat="46.0623601" lon="13.5462844"><ele>642.6</ele><time>2026-05-03T11:01:00.088Z</time></trkpt><trkpt lat="46.0623265" lon="13.5461675"><ele>642.0</ele><time>2026-05-03T11:01:01.097Z</time></trkpt><trkpt lat="46.0622969" lon="13.5460824"><ele>638.0</ele><time>2026-05-03T11:01:02.092Z</time></trkpt><trkpt lat="46.0622495" lon="13.5460181"><ele>634.0</ele><time>2026-05-03T11:01:03.1Z</time></trkpt><trkpt lat="46.0621857" lon="13.5459681"><ele>630.0</ele><time>2026-05-03T11:01:04.089Z</time></trkpt><trkpt lat="46.062104" lon="13.5459249"><ele>626.0</ele><time>2026-05-03T11:01:05.086Z</time></trkpt><trkpt lat="46.0620014" lon="13.5459009"><ele>622.0</ele><time>2026-05-03T11:01:06.1Z</time></trkpt><trkpt lat="46.0619008" lon="13.545885"><ele>618.0</ele><time>2026-05-03T11:01:07.09Z</time></trkpt><trkpt lat="46.0618073" lon="13.5458565"><ele>618.0</ele><time>2026-05-03T11:01:08.096Z</time></trkpt><trkpt lat="46.0617141" lon="13.5458135"><ele>618.0</ele><time>2026-05-03T11:01:09.101Z</time></trkpt><trkpt lat="46.0616203" lon="13.5457553"><ele>618.0</ele><time>2026-05-03T11:01:10.095Z</time></trkpt><trkpt lat="46.0615247" lon="13.5456997"><ele>618.0</ele><time>2026-05-03T11:01:11.096Z</time></trkpt><trkpt lat="46.0614294" lon="13.545629"><ele>618.0</ele><time>2026-05-03T11:01:12.094Z</time></trkpt><trkpt lat="46.061346" lon="13.5455449"><ele>618.25</ele><time>2026-05-03T11:01:13.107Z</time></trkpt><trkpt lat="46.0612875" lon="13.5454124"><ele>618.5</ele><time>2026-05-03T11:01:14.094Z</time></trkpt><trkpt lat="46.0612512" lon="13.5452215"><ele>618.75</ele><time>2026-05-03T11:01:15.089Z</time></trkpt><trkpt lat="46.0612038" lon="13.5450479"><ele>619.0</ele><time>2026-05-03T11:01:16.078Z</time></trkpt><trkpt lat="46.0611539" lon="13.5448838"><ele>619.0</ele><time>2026-05-03T11:01:17.098Z</time></trkpt><trkpt lat="46.0611072" lon="13.5447115"><ele>619.0</ele><time>2026-05-03T11:01:18.089Z</time></trkpt><trkpt lat="46.0610599" lon="13.5445508"><ele>619.0</ele><time>2026-05-03T11:01:19.095Z</time></trkpt><trkpt lat="46.0610093" lon="13.5443971"><ele>619.0</ele><time>2026-05-03T11:01:20.097Z</time></trkpt><trkpt lat="46.0609552" lon="13.5442391"><ele>619.5</ele><time>2026-05-03T11:01:21.097Z</time></trkpt><trkpt lat="46.060895" lon="13.5440805"><ele>620.0</ele><time>2026-05-03T11:01:22.096Z</time></trkpt><trkpt lat="46.060828" lon="13.543931"><ele>620.5</ele><time>2026-05-03T11:01:23.092Z</time></trkpt><trkpt lat="46.060757" lon="13.5437681"><ele>621.0</ele><time>2026-05-03T11:01:24.094Z</time></trkpt><trkpt lat="46.0606941" lon="13.5436149"><ele>617.75</ele><time>2026-05-03T11:01:25.099Z</time></trkpt><trkpt lat="46.0606356" lon="13.5434603"><ele>614.5</ele><time>2026-05-03T11:01:26.101Z</time></trkpt><trkpt lat="46.0605705" lon="13.5433097"><ele>611.25</ele><time>2026-05-03T11:01:27.086Z</time></trkpt><trkpt lat="46.0605071" lon="13.5431605"><ele>608.0</ele><time>2026-05-03T11:01:28.093Z</time></trkpt><trkpt lat="46.0604438" lon="13.542998"><ele>604.0</ele><time>2026-05-03T11:01:29.091Z</time></trkpt><trkpt lat="46.06038" lon="13.5428334"><ele>600.0</ele><time>2026-05-03T11:01:30.095Z</time></trkpt><trkpt lat="46.0603168" lon="13.5426737"><ele>596.0</ele><time>2026-05-03T11:01:31.085Z</time></trkpt><trkpt lat="46.060253" lon="13.5425189"><ele>592.0</ele><time>2026-05-03T11:01:32.077Z</time></trkpt><trkpt lat="46.0601884" lon="13.5423716"><ele>592.0</ele><time>2026-05-03T11:01:33.081Z</time></trkpt><trkpt lat="46.0601179" lon="13.5422385"><ele>592.0</ele><time>2026-05-03T11:01:34.083Z</time></trkpt><trkpt lat="46.0600479" lon="13.5421111"><ele>592.0</ele><time>2026-05-03T11:01:35.092Z</time></trkpt><trkpt lat="46.0599691" lon="13.5419964"><ele>592.0</ele><time>2026-05-03T11:01:36.091Z</time></trkpt><trkpt lat="46.0598914" lon="13.5418956"><ele>592.0</ele><time>2026-05-03T11:01:37.085Z</time></trkpt><trkpt lat="46.0598104" lon="13.5418035"><ele>590.8000000000001</ele><time>2026-05-03T11:01:38.092Z</time></trkpt><trkpt lat="46.0597448" lon="13.541695"><ele>589.6</ele><time>2026-05-03T11:01:39.089Z</time></trkpt><trkpt lat="46.0596979" lon="13.541563"><ele>588.4000000000001</ele><time>2026-05-03T11:01:40.096Z</time></trkpt><trkpt lat="46.0596529" lon="13.5414205"><ele>587.2</ele><time>2026-05-03T11:01:41.099Z</time></trkpt><trkpt lat="46.0595865" lon="13.5412899"><ele>586.0</ele><time>2026-05-03T11:01:42.089Z</time></trkpt><trkpt lat="46.0595132" lon="13.5411481"><ele>581.75</ele><time>2026-05-03T11:01:43.091Z</time></trkpt><trkpt lat="46.059438" lon="13.5410076"><ele>577.5</ele><time>2026-05-03T11:01:44.083Z</time></trkpt><trkpt lat="46.0593539" lon="13.5408545"><ele>573.25</ele><time>2026-05-03T11:01:45.085Z</time></trkpt><trkpt lat="46.0592734" lon="13.5407075"><ele>569.0</ele><time>2026-05-03T11:01:46.099Z</time></trkpt><trkpt lat="46.059192" lon="13.5405653"><ele>569.0</ele><time>2026-05-03T11:01:47.089Z</time></trkpt><trkpt lat="46.0591167" lon="13.5404379"><ele>569.0</ele><time>2026-05-03T11:01:48.088Z</time></trkpt><trkpt lat="46.0590452" lon="13.5403106"><ele>569.0</ele><time>2026-05-03T11:01:49.092Z</time></trkpt><trkpt lat="46.0589621" lon="13.5401808"><ele>569.0</ele><time>2026-05-03T11:01:50.093Z</time></trkpt><trkpt lat="46.0588836" lon="13.5400521"><ele>566.0</ele><time>2026-05-03T11:01:51.108Z</time></trkpt><trkpt lat="46.0588126" lon="13.539922"><ele>563.0</ele><time>2026-05-03T11:01:52.091Z</time></trkpt><trkpt lat="46.0587458" lon="13.5398132"><ele>560.0</ele><time>2026-05-03T11:01:53.092Z</time></trkpt><trkpt lat="46.0586982" lon="13.5397318"><ele>557.0</ele><time>2026-05-03T11:01:54.099Z</time></trkpt><trkpt lat="46.0585963" lon="13.5396579"><ele>554.0</ele><time>2026-05-03T11:01:56.094Z</time></trkpt><trkpt lat="46.0585123" lon="13.5396587"><ele>554.0</ele><time>2026-05-03T11:01:57.095Z</time></trkpt><trkpt lat="46.0584228" lon="13.5396635"><ele>554.0</ele><time>2026-05-03T11:01:58.086Z</time></trkpt><trkpt lat="46.0583299" lon="13.5396732"><ele>554.0</ele><time>2026-05-03T11:01:59.096Z</time></trkpt><trkpt lat="46.0582234" lon="13.5396754"><ele>554.0</ele><time>2026-05-03T11:02:00.091Z</time></trkpt><trkpt lat="46.0581193" lon="13.5396785"><ele>554.0</ele><time>2026-05-03T11:02:01.103Z</time></trkpt><trkpt lat="46.0580185" lon="13.5396896"><ele>550.6</ele><time>2026-05-03T11:02:02.098Z</time></trkpt><trkpt lat="46.0579288" lon="13.539737"><ele>547.2</ele><time>2026-05-03T11:02:03.093Z</time></trkpt><trkpt lat="46.0578524" lon="13.5398092"><ele>543.8000000000001</ele><time>2026-05-03T11:02:04.08Z</time></trkpt><trkpt lat="46.0577796" lon="13.5398939"><ele>540.4</ele><time>2026-05-03T11:02:05.096Z</time></trkpt><trkpt lat="46.0577042" lon="13.5399953"><ele>537.0</ele><time>2026-05-03T11:02:06.098Z</time></trkpt><trkpt lat="46.0576248" lon="13.5401032"><ele>537.0</ele><time>2026-05-03T11:02:07.096Z</time></trkpt><trkpt lat="46.05755" lon="13.5402086"><ele>537.0</ele><time>2026-05-03T11:02:08.103Z</time></trkpt><trkpt lat="46.0574857" lon="13.5403455"><ele>537.0</ele><time>2026-05-03T11:02:09.106Z</time></trkpt><trkpt lat="46.0574261" lon="13.5404863"><ele>537.0</ele><time>2026-05-03T11:02:10.111Z</time></trkpt><trkpt lat="46.0573698" lon="13.5406258"><ele>537.0</ele><time>2026-05-03T11:02:11.096Z</time></trkpt><trkpt lat="46.0573045" lon="13.5407523"><ele>532.5</ele><time>2026-05-03T11:02:12.096Z</time></trkpt><trkpt lat="46.0572303" lon="13.5408633"><ele>528.0</ele><time>2026-05-03T11:02:13.095Z</time></trkpt><trkpt lat="46.0571365" lon="13.5409555"><ele>523.5</ele><time>2026-05-03T11:02:14.097Z</time></trkpt><trkpt lat="46.0570369" lon="13.5410487"><ele>519.0</ele><time>2026-05-03T11:02:15.108Z</time></trkpt><trkpt lat="46.0569303" lon="13.5411485"><ele>521.2</ele><time>2026-05-03T11:02:16.101Z</time></trkpt><trkpt lat="46.0568406" lon="13.5412556"><ele>523.4</ele><time>2026-05-03T11:02:17.087Z</time></trkpt><trkpt lat="46.0567609" lon="13.5413621"><ele>525.6</ele><time>2026-05-03T11:02:18.086Z</time></trkpt><trkpt lat="46.0566891" lon="13.5414679"><ele>527.8</ele><time>2026-05-03T11:02:19.09Z</time></trkpt><trkpt lat="46.0566353" lon="13.5415697"><ele>530.0</ele><time>2026-05-03T11:02:20.103Z</time></trkpt><trkpt lat="46.0565871" lon="13.5416822"><ele>525.9999999999999</ele><time>2026-05-03T11:02:21.098Z</time></trkpt><trkpt lat="46.0565479" lon="13.5417864"><ele>522.0</ele><time>2026-05-03T11:02:22.098Z</time></trkpt><trkpt lat="46.0565188" lon="13.5418672"><ele>518.0</ele><time>2026-05-03T11:02:23.09Z</time></trkpt><trkpt lat="46.0564703" lon="13.541938"><ele>514.0</ele><time>2026-05-03T11:02:25.087Z</time></trkpt><trkpt lat="46.0564082" lon="13.5418949"><ele>510.0</ele><time>2026-05-03T11:02:28.079Z</time></trkpt><trkpt lat="46.056392" lon="13.541806"><ele>505.99999999999994</ele><time>2026-05-03T11:02:45.092Z</time></trkpt><trkpt lat="46.0564158" lon="13.5416749"><ele>501.99999999999994</ele><time>2026-05-03T11:02:51.101Z</time></trkpt><trkpt lat="46.0564309" lon="13.5415782"><ele>502.0</ele><time>2026-05-03T11:02:52.101Z</time></trkpt><trkpt lat="46.0564522" lon="13.5414547"><ele>502.00000000000006</ele><time>2026-05-03T11:02:53.092Z</time></trkpt><trkpt lat="46.0564887" lon="13.5413164"><ele>502.00000000000006</ele><time>2026-05-03T11:02:54.101Z</time></trkpt><trkpt lat="46.0565406" lon="13.5411817"><ele>502.0</ele><time>2026-05-03T11:02:55.105Z</time></trkpt><trkpt lat="46.056598" lon="13.5410624"><ele>502.0</ele><time>2026-05-03T11:02:56.098Z</time></trkpt><trkpt lat="46.05665" lon="13.540953"><ele>500.40000000000003</ele><time>2026-05-03T11:02:57.087Z</time></trkpt><trkpt lat="46.0566813" lon="13.540858"><ele>498.80000000000007</ele><time>2026-05-03T11:02:58.09Z</time></trkpt><trkpt lat="46.0566811" lon="13.5407571"><ele>497.2</ele><time>2026-05-03T11:02:59.097Z</time></trkpt><trkpt lat="46.0566521" lon="13.540615"><ele>495.6</ele><time>2026-05-03T11:03:00.086Z</time></trkpt><trkpt lat="46.0565977" lon="13.5404648"><ele>494.0</ele><time>2026-05-03T11:03:01.093Z</time></trkpt><trkpt lat="46.056537" lon="13.5403196"><ele>493.75</ele><time>2026-05-03T11:03:02.096Z</time></trkpt><trkpt lat="46.0564797" lon="13.5401725"><ele>493.5</ele><time>2026-05-03T11:03:03.109Z</time></trkpt><trkpt lat="46.05641" lon="13.5400316"><ele>493.25</ele><time>2026-05-03T11:03:04.103Z</time></trkpt><trkpt lat="46.0563309" lon="13.539893"><ele>493.0</ele><time>2026-05-03T11:03:05.097Z</time></trkpt><trkpt lat="46.0562563" lon="13.539752"><ele>493.0</ele><time>2026-05-03T11:03:06.099Z</time></trkpt><trkpt lat="46.0561926" lon="13.5396111"><ele>493.0</ele><time>2026-05-03T11:03:07.105Z</time></trkpt><trkpt lat="46.0561265" lon="13.5394697"><ele>493.0</ele><time>2026-05-03T11:03:08.115Z</time></trkpt><trkpt lat="46.0560706" lon="13.5393222"><ele>493.0</ele><time>2026-05-03T11:03:09.108Z</time></trkpt><trkpt lat="46.0560282" lon="13.5391615"><ele>493.5</ele><time>2026-05-03T11:03:10.122Z</time></trkpt><trkpt lat="46.0560068" lon="13.5389935"><ele>494.0</ele><time>2026-05-03T11:03:11.115Z</time></trkpt><trkpt lat="46.0559903" lon="13.5388103"><ele>494.5</ele><time>2026-05-03T11:03:12.117Z</time></trkpt><trkpt lat="46.055987" lon="13.5386248"><ele>495.0</ele><time>2026-05-03T11:03:13.107Z</time></trkpt><trkpt lat="46.0559942" lon="13.5384407"><ele>495.0</ele><time>2026-05-03T11:03:14.109Z</time></trkpt><trkpt lat="46.0560192" lon="13.5382473"><ele>495.0</ele><time>2026-05-03T11:03:15.107Z</time></trkpt><trkpt lat="46.0560531" lon="13.5380597"><ele>495.0</ele><time>2026-05-03T11:03:16.091Z</time></trkpt><trkpt lat="46.0560924" lon="13.5378891"><ele>495.0</ele><time>2026-05-03T11:03:17.102Z</time></trkpt><trkpt lat="46.0561361" lon="13.5377326"><ele>494.5</ele><time>2026-05-03T11:03:18.089Z</time></trkpt><trkpt lat="46.056176" lon="13.5375991"><ele>494.0</ele><time>2026-05-03T11:03:19.096Z</time></trkpt><trkpt lat="46.0562018" lon="13.5375039"><ele>493.5</ele><time>2026-05-03T11:03:20.083Z</time></trkpt><trkpt lat="46.0562298" lon="13.5374188"><ele>493.0</ele><time>2026-05-03T11:03:22.089Z</time></trkpt><trkpt lat="46.0562581" lon="13.537303"><ele>492.5</ele><time>2026-05-03T11:43:54.121Z</time></trkpt><trkpt lat="46.0562963" lon="13.5372083"><ele>492.0</ele><time>2026-05-03T11:43:57.113Z</time></trkpt><trkpt lat="46.0563363" lon="13.537135"><ele>491.5</ele><time>2026-05-03T11:44:00.117Z</time></trkpt><trkpt lat="46.0563914" lon="13.5370454"><ele>491.0</ele><time>2026-05-03T11:44:05.127Z</time></trkpt><trkpt lat="46.0564581" lon="13.5369887"><ele>490.5</ele><time>2026-05-03T11:44:08.109Z</time></trkpt><trkpt lat="46.0565331" lon="13.536917"><ele>490.0</ele><time>2026-05-03T11:44:11.106Z</time></trkpt><trkpt lat="46.0565961" lon="13.5368699"><ele>489.5</ele><time>2026-05-03T11:44:13.108Z</time></trkpt><trkpt lat="46.056674" lon="13.5368444"><ele>489.0</ele><time>2026-05-03T11:44:15.119Z</time></trkpt><trkpt lat="46.0567601" lon="13.5368065"><ele>489.0</ele><time>2026-05-03T11:44:17.112Z</time></trkpt><trkpt lat="46.056844" lon="13.5367469"><ele>489.0</ele><time>2026-05-03T11:44:19.12Z</time></trkpt><trkpt lat="46.0569287" lon="13.5366308"><ele>489.0</ele><time>2026-05-03T11:44:21.105Z</time></trkpt><trkpt lat="46.0569676" lon="13.5365431"><ele>489.0</ele><time>2026-05-03T11:44:22.1Z</time></trkpt><trkpt lat="46.0569999" lon="13.5364362"><ele>489.0</ele><time>2026-05-03T11:44:23.1Z</time></trkpt><trkpt lat="46.0570408" lon="13.5363295"><ele>489.0</ele><time>2026-05-03T11:44:24.107Z</time></trkpt><trkpt lat="46.0570843" lon="13.5362225"><ele>488.1666666666667</ele><time>2026-05-03T11:44:25.112Z</time></trkpt><trkpt lat="46.0571318" lon="13.5361182"><ele>487.33333333333337</ele><time>2026-05-03T11:44:26.11Z</time></trkpt><trkpt lat="46.0571788" lon="13.5360094"><ele>486.5</ele><time>2026-05-03T11:44:27.101Z</time></trkpt><trkpt lat="46.0572346" lon="13.5359277"><ele>485.6666666666667</ele><time>2026-05-03T11:44:28.105Z</time></trkpt><trkpt lat="46.0572989" lon="13.5358457"><ele>484.83333333333337</ele><time>2026-05-03T11:44:29.1Z</time></trkpt><trkpt lat="46.0573823" lon="13.5357654"><ele>484.0</ele><time>2026-05-03T11:44:30.105Z</time></trkpt><trkpt lat="46.0574702" lon="13.5357065"><ele>484.0</ele><time>2026-05-03T11:44:31.098Z</time></trkpt><trkpt lat="46.0575609" lon="13.5356607"><ele>484.0</ele><time>2026-05-03T11:44:32.094Z</time></trkpt><trkpt lat="46.0576559" lon="13.5356261"><ele>484.0</ele><time>2026-05-03T11:44:33.107Z</time></trkpt><trkpt lat="46.0577485" lon="13.5356026"><ele>484.0</ele><time>2026-05-03T11:44:34.101Z</time></trkpt><trkpt lat="46.0578424" lon="13.5355873"><ele>484.0</ele><time>2026-05-03T11:44:35.112Z</time></trkpt><trkpt lat="46.0579388" lon="13.5355875"><ele>484.0</ele><time>2026-05-03T11:44:36.107Z</time></trkpt><trkpt lat="46.0580443" lon="13.5355941"><ele>484.0</ele><time>2026-05-03T11:44:37.109Z</time></trkpt><trkpt lat="46.0581512" lon="13.5355989"><ele>484.0</ele><time>2026-05-03T11:44:38.104Z</time></trkpt><trkpt lat="46.0582419" lon="13.5356036"><ele>484.0</ele><time>2026-05-03T11:44:39.108Z</time></trkpt><trkpt lat="46.0583392" lon="13.5355878"><ele>484.0</ele><time>2026-05-03T11:44:41.113Z</time></trkpt><trkpt lat="46.0584084" lon="13.5355234"><ele>482.79999999999995</ele><time>2026-05-03T11:44:43.094Z</time></trkpt><trkpt lat="46.0583972" lon="13.5354235"><ele>481.59999999999997</ele><time>2026-05-03T11:44:45.092Z</time></trkpt><trkpt lat="46.0583268" lon="13.5353657"><ele>480.4</ele><time>2026-05-03T11:44:47.097Z</time></trkpt><trkpt lat="46.0582383" lon="13.5353189"><ele>479.2</ele><time>2026-05-03T11:44:48.091Z</time></trkpt><trkpt lat="46.0581335" lon="13.5352657"><ele>478.0</ele><time>2026-05-03T11:44:49.094Z</time></trkpt><trkpt lat="46.0580355" lon="13.5351941"><ele>475.59999999999997</ele><time>2026-05-03T11:44:50.104Z</time></trkpt><trkpt lat="46.0579425" lon="13.5351051"><ele>473.19999999999993</ele><time>2026-05-03T11:44:51.103Z</time></trkpt><trkpt lat="46.057852" lon="13.5350154"><ele>470.8</ele><time>2026-05-03T11:44:52.093Z</time></trkpt><trkpt lat="46.0577668" lon="13.5349351"><ele>468.4</ele><time>2026-05-03T11:44:53.109Z</time></trkpt><trkpt lat="46.0576835" lon="13.5348606"><ele>466.0</ele><time>2026-05-03T11:44:54.103Z</time></trkpt><trkpt lat="46.0575903" lon="13.5348036"><ele>466.0</ele><time>2026-05-03T11:44:55.11Z</time></trkpt><trkpt lat="46.0574834" lon="13.5347659"><ele>466.0</ele><time>2026-05-03T11:44:56.103Z</time></trkpt><trkpt lat="46.0573706" lon="13.5347469"><ele>466.0</ele><time>2026-05-03T11:44:57.113Z</time></trkpt><trkpt lat="46.0572605" lon="13.5347412"><ele>466.0</ele><time>2026-05-03T11:44:58.096Z</time></trkpt><trkpt lat="46.0571527" lon="13.5347345"><ele>466.0</ele><time>2026-05-03T11:44:59.113Z</time></trkpt><trkpt lat="46.0570452" lon="13.5347253"><ele>465.4</ele><time>2026-05-03T11:45:00.098Z</time></trkpt><trkpt lat="46.0569447" lon="13.5347208"><ele>464.8</ele><time>2026-05-03T11:45:01.106Z</time></trkpt><trkpt lat="46.0568467" lon="13.5347104"><ele>464.19999999999993</ele><time>2026-05-03T11:45:02.097Z</time></trkpt><trkpt lat="46.0567525" lon="13.5346898"><ele>463.59999999999997</ele><time>2026-05-03T11:45:03.096Z</time></trkpt><trkpt lat="46.0566523" lon="13.5346721"><ele>463.0</ele><time>2026-05-03T11:45:04.094Z</time></trkpt><trkpt lat="46.0565453" lon="13.5346507"><ele>462.59999999999997</ele><time>2026-05-03T11:45:05.102Z</time></trkpt><trkpt lat="46.0564446" lon="13.5346335"><ele>462.19999999999993</ele><time>2026-05-03T11:45:06.104Z</time></trkpt><trkpt lat="46.0563408" lon="13.5346172"><ele>461.8</ele><time>2026-05-03T11:45:07.097Z</time></trkpt><trkpt lat="46.0562476" lon="13.5345771"><ele>461.4</ele><time>2026-05-03T11:45:08.115Z</time></trkpt><trkpt lat="46.0561578" lon="13.5345274"><ele>461.0</ele><time>2026-05-03T11:45:09.108Z</time></trkpt><trkpt lat="46.056075" lon="13.5344473"><ele>458.6</ele><time>2026-05-03T11:45:10.095Z</time></trkpt><trkpt lat="46.0559955" lon="13.534357"><ele>456.20000000000005</ele><time>2026-05-03T11:45:11.098Z</time></trkpt><trkpt lat="46.0559111" lon="13.534242"><ele>453.79999999999995</ele><time>2026-05-03T11:45:12.097Z</time></trkpt><trkpt lat="46.055834" lon="13.5341127"><ele>451.4</ele><time>2026-05-03T11:45:13.09Z</time></trkpt><trkpt lat="46.0557608" lon="13.533989"><ele>449.0</ele><time>2026-05-03T11:45:14.103Z</time></trkpt><trkpt lat="46.0556699" lon="13.5338758"><ele>449.0</ele><time>2026-05-03T11:45:15.103Z</time></trkpt><trkpt lat="46.0555781" lon="13.5337752"><ele>449.0</ele><time>2026-05-03T11:45:16.106Z</time></trkpt><trkpt lat="46.0554902" lon="13.5336843"><ele>449.0</ele><time>2026-05-03T11:45:17.113Z</time></trkpt><trkpt lat="46.0553943" lon="13.5336012"><ele>449.0</ele><time>2026-05-03T11:45:18.111Z</time></trkpt><trkpt lat="46.0552981" lon="13.5335197"><ele>449.0</ele><time>2026-05-03T11:45:19.113Z</time></trkpt><trkpt lat="46.0552164" lon="13.5334177"><ele>447.0</ele><time>2026-05-03T11:45:20.104Z</time></trkpt><trkpt lat="46.0551401" lon="13.5333183"><ele>445.0</ele><time>2026-05-03T11:45:21.104Z</time></trkpt><trkpt lat="46.0550548" lon="13.5332381"><ele>443.0</ele><time>2026-05-03T11:45:22.11Z</time></trkpt><trkpt lat="46.05495" lon="13.5331695"><ele>441.0</ele><time>2026-05-03T11:45:23.111Z</time></trkpt><trkpt lat="46.0548473" lon="13.533104"><ele>439.0</ele><time>2026-05-03T11:45:24.108Z</time></trkpt><trkpt lat="46.0547435" lon="13.5330367"><ele>439.0</ele><time>2026-05-03T11:45:25.113Z</time></trkpt><trkpt lat="46.0546396" lon="13.5329613"><ele>439.0</ele><time>2026-05-03T11:45:26.115Z</time></trkpt><trkpt lat="46.0545341" lon="13.5328873"><ele>439.0</ele><time>2026-05-03T11:45:27.109Z</time></trkpt><trkpt lat="46.0544352" lon="13.5328084"><ele>439.0</ele><time>2026-05-03T11:45:28.122Z</time></trkpt><trkpt lat="46.0543328" lon="13.532728"><ele>434.0</ele><time>2026-05-03T11:45:29.097Z</time></trkpt><trkpt lat="46.0542335" lon="13.5326478"><ele>429.0</ele><time>2026-05-03T11:45:30.104Z</time></trkpt><trkpt lat="46.0541308" lon="13.5325681"><ele>424.0</ele><time>2026-05-03T11:45:31.1Z</time></trkpt><trkpt lat="46.0540181" lon="13.532527"><ele>419.0</ele><time>2026-05-03T11:45:32.098Z</time></trkpt><trkpt lat="46.0539064" lon="13.5325118"><ele>418.66666666666663</ele><time>2026-05-03T11:45:33.097Z</time></trkpt><trkpt lat="46.0538135" lon="13.5325066"><ele>418.3333333333333</ele><time>2026-05-03T11:45:34.1Z</time></trkpt><trkpt lat="46.0537351" lon="13.5325157"><ele>418.0</ele><time>2026-05-03T11:45:35.098Z</time></trkpt><trkpt lat="46.0536672" lon="13.5325282"><ele>417.66666666666663</ele><time>2026-05-03T11:45:36.103Z</time></trkpt><trkpt lat="46.0535922" lon="13.5325054"><ele>417.3333333333333</ele><time>2026-05-03T11:45:38.092Z</time></trkpt><trkpt lat="46.0536082" lon="13.5323779"><ele>417.0</ele><time>2026-05-03T11:45:41.095Z</time></trkpt><trkpt lat="46.0536787" lon="13.5323297"><ele>417.0</ele><time>2026-05-03T11:45:44.084Z</time></trkpt><trkpt lat="46.0537453" lon="13.5323466"><ele>417.0</ele><time>2026-05-03T11:47:07.103Z</time></trkpt><trkpt lat="46.0538642" lon="13.5323528"><ele>417.0</ele><time>2026-05-03T11:47:09.095Z</time></trkpt><trkpt lat="46.0539443" lon="13.5323245"><ele>417.0</ele><time>2026-05-03T11:47:10.083Z</time></trkpt><trkpt lat="46.0540286" lon="13.532271"><ele>417.0</ele><time>2026-05-03T11:47:11.087Z</time></trkpt><trkpt lat="46.0541227" lon="13.5322095"><ele>417.40000000000003</ele><time>2026-05-03T11:47:12.082Z</time></trkpt><trkpt lat="46.0542174" lon="13.5321331"><ele>417.8</ele><time>2026-05-03T11:47:13.093Z</time></trkpt><trkpt lat="46.0543114" lon="13.5320533"><ele>418.2</ele><time>2026-05-03T11:47:14.093Z</time></trkpt><trkpt lat="46.0544194" lon="13.5319959"><ele>418.6</ele><time>2026-05-03T11:47:15.095Z</time></trkpt><trkpt lat="46.0545318" lon="13.5319614"><ele>419.0</ele><time>2026-05-03T11:47:16.104Z</time></trkpt><trkpt lat="46.0546543" lon="13.5319886"><ele>419.0</ele><time>2026-05-03T11:47:17.105Z</time></trkpt><trkpt lat="46.0547562" lon="13.5320528"><ele>419.0</ele><time>2026-05-03T11:47:18.117Z</time></trkpt><trkpt lat="46.0548468" lon="13.5321156"><ele>419.0</ele><time>2026-05-03T11:47:19.093Z</time></trkpt><trkpt lat="46.0549363" lon="13.5321818"><ele>419.0</ele><time>2026-05-03T11:47:20.095Z</time></trkpt><trkpt lat="46.0550294" lon="13.5322461"><ele>419.0</ele><time>2026-05-03T11:47:21.092Z</time></trkpt><trkpt lat="46.0551261" lon="13.5322882"><ele>417.5</ele><time>2026-05-03T11:47:22.089Z</time></trkpt><trkpt lat="46.0552437" lon="13.5323272"><ele>416.0</ele><time>2026-05-03T11:47:23.099Z</time></trkpt><trkpt lat="46.0553663" lon="13.53233"><ele>414.5</ele><time>2026-05-03T11:47:24.094Z</time></trkpt><trkpt lat="46.0554816" lon="13.5323064"><ele>413.0</ele><time>2026-05-03T11:47:25.091Z</time></trkpt><trkpt lat="46.055594" lon="13.532256"><ele>413.0</ele><time>2026-05-03T11:47:26.099Z</time></trkpt><trkpt lat="46.0556853" lon="13.5321729"><ele>413.0</ele><time>2026-05-03T11:47:27.091Z</time></trkpt><trkpt lat="46.0557789" lon="13.5320886"><ele>413.0</ele><time>2026-05-03T11:47:28.103Z</time></trkpt><trkpt lat="46.0558734" lon="13.5320098"><ele>413.0</ele><time>2026-05-03T11:47:29.093Z</time></trkpt><trkpt lat="46.0559662" lon="13.5319353"><ele>413.0</ele><time>2026-05-03T11:47:30.101Z</time></trkpt><trkpt lat="46.0560428" lon="13.5318752"><ele>408.3333333333333</ele><time>2026-05-03T11:47:31.114Z</time></trkpt><trkpt lat="46.0561007" lon="13.5318186"><ele>403.66666666666663</ele><time>2026-05-03T11:47:32.099Z</time></trkpt><trkpt lat="46.056152" lon="13.5317446"><ele>399.0</ele><time>2026-05-03T11:47:33.112Z</time></trkpt><trkpt lat="46.056149" lon="13.5316488"><ele>394.33333333333337</ele><time>2026-05-03T11:47:34.111Z</time></trkpt><trkpt lat="46.0561086" lon="13.5315727"><ele>389.6666666666667</ele><time>2026-05-03T11:47:35.094Z</time></trkpt><trkpt lat="46.0559867" lon="13.5315892"><ele>385.0</ele><time>2026-05-03T11:47:37.093Z</time></trkpt><trkpt lat="46.055894" lon="13.5316437"><ele>385.0</ele><time>2026-05-03T11:47:38.109Z</time></trkpt><trkpt lat="46.0557901" lon="13.5316833"><ele>385.0</ele><time>2026-05-03T11:47:39.094Z</time></trkpt><trkpt lat="46.0556807" lon="13.53172"><ele>385.0</ele><time>2026-05-03T11:47:40.09Z</time></trkpt><trkpt lat="46.0555802" lon="13.5317762"><ele>385.0</ele><time>2026-05-03T11:47:41.084Z</time></trkpt><trkpt lat="46.0554897" lon="13.5318514"><ele>385.0</ele><time>2026-05-03T11:47:42.088Z</time></trkpt><trkpt lat="46.0554082" lon="13.5319242"><ele>385.8</ele><time>2026-05-03T11:47:43.082Z</time></trkpt><trkpt lat="46.0553368" lon="13.5319407"><ele>386.6</ele><time>2026-05-03T11:47:44.09Z</time></trkpt><trkpt lat="46.0552589" lon="13.5319265"><ele>387.4</ele><time>2026-05-03T11:47:45.101Z</time></trkpt><trkpt lat="46.055183" lon="13.5318559"><ele>388.2</ele><time>2026-05-03T11:47:46.1Z</time></trkpt><trkpt lat="46.0550912" lon="13.5317235"><ele>389.0</ele><time>2026-05-03T11:47:47.092Z</time></trkpt><trkpt lat="46.0549905" lon="13.531587"><ele>389.75</ele><time>2026-05-03T11:47:48.089Z</time></trkpt><trkpt lat="46.0548794" lon="13.531479"><ele>390.5</ele><time>2026-05-03T11:47:49.1Z</time></trkpt><trkpt lat="46.0547623" lon="13.5314005"><ele>391.25</ele><time>2026-05-03T11:47:50.114Z</time></trkpt><trkpt lat="46.0546453" lon="13.5313412"><ele>392.0</ele><time>2026-05-03T11:47:51.096Z</time></trkpt><trkpt lat="46.0545309" lon="13.5313016"><ele>392.0</ele><time>2026-05-03T11:47:52.089Z</time></trkpt><trkpt lat="46.0544103" lon="13.5312847"><ele>392.0</ele><time>2026-05-03T11:47:53.088Z</time></trkpt><trkpt lat="46.0542906" lon="13.5313115"><ele>392.0</ele><time>2026-05-03T11:47:54.081Z</time></trkpt><trkpt lat="46.0541677" lon="13.5313492"><ele>392.0</ele><time>2026-05-03T11:47:55.094Z</time></trkpt><trkpt lat="46.0540423" lon="13.5313691"><ele>391.0</ele><time>2026-05-03T11:47:56.087Z</time></trkpt><trkpt lat="46.0539213" lon="13.5313599"><ele>390.0</ele><time>2026-05-03T11:47:57.068Z</time></trkpt><trkpt lat="46.0537988" lon="13.5313134"><ele>389.0</ele><time>2026-05-03T11:47:58.083Z</time></trkpt><trkpt lat="46.0536807" lon="13.5312524"><ele>388.0</ele><time>2026-05-03T11:47:59.077Z</time></trkpt><trkpt lat="46.0535544" lon="13.5312332"><ele>388.0</ele><time>2026-05-03T11:48:00.076Z</time></trkpt><trkpt lat="46.0534336" lon="13.5312541"><ele>388.0</ele><time>2026-05-03T11:48:01.082Z</time></trkpt><trkpt lat="46.0533262" lon="13.5312736"><ele>388.0</ele><time>2026-05-03T11:48:02.08Z</time></trkpt><trkpt lat="46.0532332" lon="13.5312577"><ele>388.0</ele><time>2026-05-03T11:48:03.08Z</time></trkpt><trkpt lat="46.0531645" lon="13.5312045"><ele>388.0</ele><time>2026-05-03T11:48:04.09Z</time></trkpt><trkpt lat="46.0531275" lon="13.5311012"><ele>392.25</ele><time>2026-05-03T11:48:05.076Z</time></trkpt><trkpt lat="46.0531358" lon="13.5309716"><ele>396.5</ele><time>2026-05-03T11:48:06.067Z</time></trkpt><trkpt lat="46.0531708" lon="13.5308125"><ele>400.75</ele><time>2026-05-03T11:48:07.092Z</time></trkpt><trkpt lat="46.0532399" lon="13.5306388"><ele>405.0</ele><time>2026-05-03T11:48:08.077Z</time></trkpt><trkpt lat="46.0533059" lon="13.530449"><ele>394.75</ele><time>2026-05-03T11:48:09.072Z</time></trkpt><trkpt lat="46.0533726" lon="13.5302514"><ele>384.5</ele><time>2026-05-03T11:48:10.069Z</time></trkpt><trkpt lat="46.0534266" lon="13.5300528"><ele>374.25</ele><time>2026-05-03T11:48:11.072Z</time></trkpt><trkpt lat="46.053461" lon="13.5298478"><ele>364.0</ele><time>2026-05-03T11:48:12.08Z</time></trkpt><trkpt lat="46.0535163" lon="13.5296662"><ele>364.5</ele><time>2026-05-03T11:48:13.074Z</time></trkpt><trkpt lat="46.0535919" lon="13.5295108"><ele>365.0</ele><time>2026-05-03T11:48:14.086Z</time></trkpt><trkpt lat="46.0536735" lon="13.5293719"><ele>365.5</ele><time>2026-05-03T11:48:15.078Z</time></trkpt><trkpt lat="46.0537583" lon="13.5292327"><ele>366.0</ele><time>2026-05-03T11:48:16.082Z</time></trkpt><trkpt lat="46.0538277" lon="13.529084"><ele>366.0</ele><time>2026-05-03T11:48:17.086Z</time></trkpt><trkpt lat="46.0538808" lon="13.5289334"><ele>366.0</ele><time>2026-05-03T11:48:18.072Z</time></trkpt><trkpt lat="46.0539028" lon="13.5287824"><ele>366.0</ele><time>2026-05-03T11:48:19.096Z</time></trkpt><trkpt lat="46.0538978" lon="13.5286292"><ele>366.0</ele><time>2026-05-03T11:48:20.086Z</time></trkpt><trkpt lat="46.0538624" lon="13.5284849"><ele>366.0</ele><time>2026-05-03T11:48:21.085Z</time></trkpt><trkpt lat="46.0538009" lon="13.5283719"><ele>365.0</ele><time>2026-05-03T11:48:22.101Z</time></trkpt><trkpt lat="46.0537221" lon="13.5282766"><ele>364.0</ele><time>2026-05-03T11:48:23.073Z</time></trkpt><trkpt lat="46.0536686" lon="13.5281634"><ele>363.0</ele><time>2026-05-03T11:48:24.078Z</time></trkpt><trkpt lat="46.0536561" lon="13.5280185"><ele>362.0</ele><time>2026-05-03T11:48:25.075Z</time></trkpt><trkpt lat="46.0536888" lon="13.5278592"><ele>361.0</ele><time>2026-05-03T11:48:26.082Z</time></trkpt><trkpt lat="46.053739" lon="13.5277018"><ele>361.0</ele><time>2026-05-03T11:48:27.069Z</time></trkpt><trkpt lat="46.0538021" lon="13.5275301"><ele>361.0</ele><time>2026-05-03T11:48:28.088Z</time></trkpt><trkpt lat="46.0538542" lon="13.52734"><ele>361.0</ele><time>2026-05-03T11:48:29.076Z</time></trkpt><trkpt lat="46.0538734" lon="13.5271172"><ele>361.0</ele><time>2026-05-03T11:48:30.079Z</time></trkpt><trkpt lat="46.0538741" lon="13.5268915"><ele>359.66666666666663</ele><time>2026-05-03T11:48:31.082Z</time></trkpt><trkpt lat="46.053874" lon="13.526662"><ele>358.3333333333333</ele><time>2026-05-03T11:48:32.081Z</time></trkpt><trkpt lat="46.053873" lon="13.526432"><ele>357.0</ele><time>2026-05-03T11:48:33.078Z</time></trkpt><trkpt lat="46.0538653" lon="13.5262028"><ele>356.3333333333333</ele><time>2026-05-03T11:48:34.08Z</time></trkpt><trkpt lat="46.0538601" lon="13.5259653"><ele>355.66666666666663</ele><time>2026-05-03T11:48:35.082Z</time></trkpt><trkpt lat="46.0538456" lon="13.5257307"><ele>355.0</ele><time>2026-05-03T11:48:36.097Z</time></trkpt><trkpt lat="46.0538258" lon="13.5254985"><ele>353.75</ele><time>2026-05-03T11:48:37.093Z</time></trkpt><trkpt lat="46.0538129" lon="13.5252648"><ele>352.5</ele><time>2026-05-03T11:48:38.079Z</time></trkpt><trkpt lat="46.0538298" lon="13.5250625"><ele>351.25</ele><time>2026-05-03T11:48:39.089Z</time></trkpt><trkpt lat="46.0538706" lon="13.5249045"><ele>350.0</ele><time>2026-05-03T11:48:40.081Z</time></trkpt><trkpt lat="46.0539307" lon="13.5247803"><ele>350.0</ele><time>2026-05-03T11:48:41.087Z</time></trkpt><trkpt lat="46.0540149" lon="13.5246904"><ele>350.0</ele><time>2026-05-03T11:48:42.083Z</time></trkpt><trkpt lat="46.0541113" lon="13.5246046"><ele>350.0</ele><time>2026-05-03T11:48:43.08Z</time></trkpt><trkpt lat="46.0541839" lon="13.5244755"><ele>350.0</ele><time>2026-05-03T11:48:44.096Z</time></trkpt><trkpt lat="46.0542343" lon="13.5243061"><ele>340.75</ele><time>2026-05-03T11:48:45.099Z</time></trkpt><trkpt lat="46.054275" lon="13.5241153"><ele>331.5</ele><time>2026-05-03T11:48:46.087Z</time></trkpt><trkpt lat="46.0542994" lon="13.5239207"><ele>322.25</ele><time>2026-05-03T11:48:47.102Z</time></trkpt><trkpt lat="46.0543255" lon="13.5237193"><ele>313.0</ele><time>2026-05-03T11:48:48.089Z</time></trkpt><trkpt lat="46.0543528" lon="13.5235165"><ele>312.5</ele><time>2026-05-03T11:48:49.083Z</time></trkpt><trkpt lat="46.0543868" lon="13.523315"><ele>312.0</ele><time>2026-05-03T11:48:50.085Z</time></trkpt><trkpt lat="46.0544323" lon="13.5231166"><ele>311.5</ele><time>2026-05-03T11:48:51.082Z</time></trkpt><trkpt lat="46.05448" lon="13.5229204"><ele>311.0</ele><time>2026-05-03T11:48:52.085Z</time></trkpt><trkpt lat="46.0545276" lon="13.5227116"><ele>309.6666666666667</ele><time>2026-05-03T11:48:53.091Z</time></trkpt><trkpt lat="46.0545614" lon="13.5224972"><ele>308.3333333333333</ele><time>2026-05-03T11:48:54.086Z</time></trkpt><trkpt lat="46.0545753" lon="13.5222817"><ele>307.0</ele><time>2026-05-03T11:48:55.083Z</time></trkpt><trkpt lat="46.0545757" lon="13.5220614"><ele>305.66666666666663</ele><time>2026-05-03T11:48:56.087Z</time></trkpt><trkpt lat="46.0545632" lon="13.5218404"><ele>304.3333333333333</ele><time>2026-05-03T11:48:57.088Z</time></trkpt><trkpt lat="46.0545377" lon="13.5216222"><ele>303.0</ele><time>2026-05-03T11:48:58.087Z</time></trkpt><trkpt lat="46.0545103" lon="13.5213988"><ele>299.75</ele><time>2026-05-03T11:48:59.086Z</time></trkpt><trkpt lat="46.0544773" lon="13.5211868"><ele>296.5</ele><time>2026-05-03T11:49:00.086Z</time></trkpt><trkpt lat="46.0544308" lon="13.5209886"><ele>293.25</ele><time>2026-05-03T11:49:01.088Z</time></trkpt><trkpt lat="46.0543682" lon="13.5208189"><ele>290.0</ele><time>2026-05-03T11:49:02.086Z</time></trkpt><trkpt lat="46.0542828" lon="13.5207055"><ele>290.0</ele><time>2026-05-03T11:49:03.094Z</time></trkpt><trkpt lat="46.0541985" lon="13.5206364"><ele>290.0</ele><time>2026-05-03T11:49:04.075Z</time></trkpt><trkpt lat="46.0541052" lon="13.5206005"><ele>290.0</ele><time>2026-05-03T11:49:05.089Z</time></trkpt><trkpt lat="46.0540211" lon="13.5205787"><ele>290.0</ele><time>2026-05-03T11:49:06.095Z</time></trkpt><trkpt lat="46.0539467" lon="13.5205562"><ele>290.0</ele><time>2026-05-03T11:49:07.091Z</time></trkpt><trkpt lat="46.0538661" lon="13.5204807"><ele>291.5</ele><time>2026-05-03T11:49:09.099Z</time></trkpt><trkpt lat="46.0538967" lon="13.520336"><ele>293.0</ele><time>2026-05-03T11:49:11.082Z</time></trkpt><trkpt lat="46.0539903" lon="13.5203015"><ele>294.5</ele><time>2026-05-03T11:49:12.076Z</time></trkpt><trkpt lat="46.0541157" lon="13.5202773"><ele>296.0</ele><time>2026-05-03T11:49:13.089Z</time></trkpt><trkpt lat="46.0542496" lon="13.5202641"><ele>292.75</ele><time>2026-05-03T11:49:14.07Z</time></trkpt><trkpt lat="46.0543788" lon="13.5202428"><ele>289.5</ele><time>2026-05-03T11:49:15.088Z</time></trkpt><trkpt lat="46.0545006" lon="13.520221"><ele>286.25</ele><time>2026-05-03T11:49:16.078Z</time></trkpt><trkpt lat="46.0546143" lon="13.5201878"><ele>283.0</ele><time>2026-05-03T11:49:17.084Z</time></trkpt><trkpt lat="46.0547112" lon="13.5201137"><ele>283.0</ele><time>2026-05-03T11:49:18.081Z</time></trkpt><trkpt lat="46.0547855" lon="13.5199817"><ele>283.0</ele><time>2026-05-03T11:49:19.078Z</time></trkpt><trkpt lat="46.0548341" lon="13.5198056"><ele>283.0</ele><time>2026-05-03T11:49:20.08Z</time></trkpt><trkpt lat="46.0548763" lon="13.51962"><ele>283.0</ele><time>2026-05-03T11:49:21.088Z</time></trkpt><trkpt lat="46.0549274" lon="13.51943"><ele>283.0</ele><time>2026-05-03T11:49:22.088Z</time></trkpt><trkpt lat="46.0549983" lon="13.5192535"><ele>283.0</ele><time>2026-05-03T11:49:23.088Z</time></trkpt><trkpt lat="46.0550803" lon="13.5190777"><ele>283.0</ele><time>2026-05-03T11:49:24.089Z</time></trkpt><trkpt lat="46.0551619" lon="13.5189019"><ele>283.0</ele><time>2026-05-03T11:49:25.094Z</time></trkpt><trkpt lat="46.0552359" lon="13.5187048"><ele>283.0</ele><time>2026-05-03T11:49:26.103Z</time></trkpt><trkpt lat="46.0553005" lon="13.5184916"><ele>283.0</ele><time>2026-05-03T11:49:27.095Z</time></trkpt><trkpt lat="46.0553642" lon="13.5182717"><ele>283.0</ele><time>2026-05-03T11:49:28.1Z</time></trkpt><trkpt lat="46.055434" lon="13.5180262"><ele>287.0</ele><time>2026-05-03T11:49:29.09Z</time></trkpt><trkpt lat="46.0555076" lon="13.5177769"><ele>291.0</ele><time>2026-05-03T11:49:30.087Z</time></trkpt><trkpt lat="46.0555886" lon="13.5175304"><ele>295.0</ele><time>2026-05-03T11:49:31.087Z</time></trkpt><trkpt lat="46.0556811" lon="13.5172941"><ele>297.3333333333333</ele><time>2026-05-03T11:49:32.108Z</time></trkpt><trkpt lat="46.0557779" lon="13.517066"><ele>299.6666666666667</ele><time>2026-05-03T11:49:33.101Z</time></trkpt><trkpt lat="46.0558794" lon="13.5168451"><ele>302.0</ele><time>2026-05-03T11:49:34.09Z</time></trkpt><trkpt lat="46.0559833" lon="13.5166325"><ele>295.0</ele><time>2026-05-03T11:49:35.082Z</time></trkpt><trkpt lat="46.0560928" lon="13.516415"><ele>288.0</ele><time>2026-05-03T11:49:36.085Z</time></trkpt><trkpt lat="46.0562016" lon="13.5162083"><ele>281.0</ele><time>2026-05-03T11:49:37.085Z</time></trkpt><trkpt lat="46.0563042" lon="13.5160051"><ele>281.0</ele><time>2026-05-03T11:49:38.088Z</time></trkpt><trkpt lat="46.0563969" lon="13.5158089"><ele>281.0</ele><time>2026-05-03T11:49:39.087Z</time></trkpt><trkpt lat="46.056485" lon="13.5156089"><ele>281.0</ele><time>2026-05-03T11:49:40.094Z</time></trkpt><trkpt lat="46.0565768" lon="13.5154039"><ele>277.33333333333337</ele><time>2026-05-03T11:49:41.108Z</time></trkpt><trkpt lat="46.0566566" lon="13.5151836"><ele>273.6666666666667</ele><time>2026-05-03T11:49:42.084Z</time></trkpt><trkpt lat="46.0567206" lon="13.5149581"><ele>270.0</ele><time>2026-05-03T11:49:43.094Z</time></trkpt><trkpt lat="46.0567885" lon="13.5147557"><ele>270.0</ele><time>2026-05-03T11:49:44.103Z</time></trkpt><trkpt lat="46.0568574" lon="13.5145966"><ele>270.0</ele><time>2026-05-03T11:49:45.106Z</time></trkpt><trkpt lat="46.0569268" lon="13.514442"><ele>270.0</ele><time>2026-05-03T11:49:46.102Z</time></trkpt><trkpt lat="46.0569722" lon="13.5142494"><ele>270.0</ele><time>2026-05-03T11:49:47.103Z</time></trkpt><trkpt lat="46.0570056" lon="13.5140374"><ele>268.3333333333333</ele><time>2026-05-03T11:49:48.102Z</time></trkpt><trkpt lat="46.0570667" lon="13.5138364"><ele>266.66666666666663</ele><time>2026-05-03T11:49:49.096Z</time></trkpt><trkpt lat="46.0571581" lon="13.5136568"><ele>265.0</ele><time>2026-05-03T11:49:50.131Z</time></trkpt><trkpt lat="46.0572648" lon="13.5134724"><ele>263.0</ele><time>2026-05-03T11:49:51.102Z</time></trkpt><trkpt lat="46.057381" lon="13.5132739"><ele>261.0</ele><time>2026-05-03T11:49:52.087Z</time></trkpt><trkpt lat="46.0574993" lon="13.5130731"><ele>259.0</ele><time>2026-05-03T11:49:53.086Z</time></trkpt><trkpt lat="46.0576161" lon="13.5128653"><ele>255.66666666666666</ele><time>2026-05-03T11:49:54.095Z</time></trkpt><trkpt lat="46.0577271" lon="13.5126611"><ele>252.33333333333331</ele><time>2026-05-03T11:49:55.092Z</time></trkpt><trkpt lat="46.0578347" lon="13.5124691"><ele>249.0</ele><time>2026-05-03T11:49:56.09Z</time></trkpt><trkpt lat="46.0579523" lon="13.5123011"><ele>249.0</ele><time>2026-05-03T11:49:57.083Z</time></trkpt><trkpt lat="46.0580726" lon="13.5121441"><ele>249.0</ele><time>2026-05-03T11:49:58.084Z</time></trkpt><trkpt lat="46.0581852" lon="13.5120003"><ele>249.0</ele><time>2026-05-03T11:49:59.091Z</time></trkpt><trkpt lat="46.058289" lon="13.5118661"><ele>249.5</ele><time>2026-05-03T11:50:00.09Z</time></trkpt><trkpt lat="46.0583744" lon="13.5117303"><ele>250.0</ele><time>2026-05-03T11:50:01.082Z</time></trkpt><trkpt lat="46.0584347" lon="13.5115801"><ele>250.5</ele><time>2026-05-03T11:50:02.085Z</time></trkpt><trkpt lat="46.0584701" lon="13.5114117"><ele>251.0</ele><time>2026-05-03T11:50:03.095Z</time></trkpt><trkpt lat="46.0584625" lon="13.5112045"><ele>248.0</ele><time>2026-05-03T11:50:04.088Z</time></trkpt><trkpt lat="46.0584309" lon="13.5109999"><ele>245.0</ele><time>2026-05-03T11:50:05.089Z</time></trkpt><trkpt lat="46.0583796" lon="13.5107885"><ele>242.0</ele><time>2026-05-03T11:50:06.092Z</time></trkpt><trkpt lat="46.0583054" lon="13.510587"><ele>234.33333333333334</ele><time>2026-05-03T11:50:07.082Z</time></trkpt><trkpt lat="46.0582313" lon="13.5103738"><ele>226.66666666666669</ele><time>2026-05-03T11:50:08.095Z</time></trkpt><trkpt lat="46.0581659" lon="13.5101571"><ele>219.0</ele><time>2026-05-03T11:50:09.098Z</time></trkpt><trkpt lat="46.0581056" lon="13.5099406"><ele>219.0</ele><time>2026-05-03T11:50:10.104Z</time></trkpt><trkpt lat="46.0580492" lon="13.5097337"><ele>219.0</ele><time>2026-05-03T11:50:11.095Z</time></trkpt><trkpt lat="46.0580169" lon="13.5095325"><ele>219.0</ele><time>2026-05-03T11:50:12.105Z</time></trkpt><trkpt lat="46.0580113" lon="13.5093564"><ele>219.0</ele><time>2026-05-03T11:50:13.096Z</time></trkpt><trkpt lat="46.0580207" lon="13.5091972"><ele>218.66666666666666</ele><time>2026-05-03T11:50:14.104Z</time></trkpt><trkpt lat="46.0580292" lon="13.5090686"><ele>218.33333333333331</ele><time>2026-05-03T11:50:15.105Z</time></trkpt><trkpt lat="46.0580231" lon="13.5089773"><ele>218.0</ele><time>2026-05-03T11:50:16.092Z</time></trkpt><trkpt lat="46.057949" lon="13.5089108"><ele>217.66666666666666</ele><time>2026-05-03T11:50:18.083Z</time></trkpt><trkpt lat="46.0579006" lon="13.5089801"><ele>217.33333333333331</ele><time>2026-05-03T11:50:19.11Z</time></trkpt><trkpt lat="46.0578641" lon="13.5090892"><ele>217.0</ele><time>2026-05-03T11:50:20.088Z</time></trkpt><trkpt lat="46.0578423" lon="13.5092406"><ele>217.0</ele><time>2026-05-03T11:50:21.096Z</time></trkpt><trkpt lat="46.0578158" lon="13.5094096"><ele>217.0</ele><time>2026-05-03T11:50:22.089Z</time></trkpt><trkpt lat="46.0577851" lon="13.5095684"><ele>217.0</ele><time>2026-05-03T11:50:23.095Z</time></trkpt><trkpt lat="46.057763" lon="13.5097292"><ele>217.0</ele><time>2026-05-03T11:50:24.095Z</time></trkpt><trkpt lat="46.0577527" lon="13.5098689"><ele>217.0</ele><time>2026-05-03T11:50:25.105Z</time></trkpt><trkpt lat="46.0577517" lon="13.5099877"><ele>217.5</ele><time>2026-05-03T11:50:26.103Z</time></trkpt><trkpt lat="46.0577123" lon="13.5101447"><ele>218.0</ele><time>2026-05-03T11:50:28.096Z</time></trkpt><trkpt lat="46.0575966" lon="13.5100671"><ele>218.5</ele><time>2026-05-03T11:50:30.084Z</time></trkpt><trkpt lat="46.0575653" lon="13.5099294"><ele>219.0</ele><time>2026-05-03T11:50:31.095Z</time></trkpt><trkpt lat="46.0575414" lon="13.5097519"><ele>218.33333333333331</ele><time>2026-05-03T11:50:32.098Z</time></trkpt><trkpt lat="46.0574993" lon="13.5095506"><ele>217.66666666666666</ele><time>2026-05-03T11:50:33.089Z</time></trkpt><trkpt lat="46.0574391" lon="13.5093363"><ele>217.0</ele><time>2026-05-03T11:50:34.088Z</time></trkpt><trkpt lat="46.0573643" lon="13.5091064"><ele>211.66666666666666</ele><time>2026-05-03T11:50:35.098Z</time></trkpt><trkpt lat="46.0572863" lon="13.5088661"><ele>206.33333333333331</ele><time>2026-05-03T11:50:36.094Z</time></trkpt><trkpt lat="46.0572024" lon="13.5086335"><ele>201.0</ele><time>2026-05-03T11:50:37.098Z</time></trkpt><trkpt lat="46.0571239" lon="13.5084155"><ele>198.33333333333331</ele><time>2026-05-03T11:50:38.098Z</time></trkpt><trkpt lat="46.0570563" lon="13.5082073"><ele>195.66666666666666</ele><time>2026-05-03T11:50:39.106Z</time></trkpt><trkpt lat="46.0570302" lon="13.5079871"><ele>193.0</ele><time>2026-05-03T11:50:40.098Z</time></trkpt><trkpt lat="46.0570223" lon="13.5077456"><ele>191.0</ele><time>2026-05-03T11:50:41.085Z</time></trkpt><trkpt lat="46.0569946" lon="13.5075086"><ele>189.0</ele><time>2026-05-03T11:50:42.101Z</time></trkpt><trkpt lat="46.056956" lon="13.5072769"><ele>187.0</ele><time>2026-05-03T11:50:43.093Z</time></trkpt><trkpt lat="46.0569259" lon="13.5070548"><ele>185.0</ele><time>2026-05-03T11:50:44.103Z</time></trkpt><trkpt lat="46.0569309" lon="13.5068469"><ele>183.0</ele><time>2026-05-03T11:50:45.101Z</time></trkpt><trkpt lat="46.0569642" lon="13.5066265"><ele>181.0</ele><time>2026-05-03T11:50:46.101Z</time></trkpt><trkpt lat="46.057006" lon="13.506402"><ele>177.0</ele><time>2026-05-03T11:50:47.103Z</time></trkpt><trkpt lat="46.0570534" lon="13.5061721"><ele>173.0</ele><time>2026-05-03T11:50:48.098Z</time></trkpt><trkpt lat="46.0571037" lon="13.5059375"><ele>169.0</ele><time>2026-05-03T11:50:49.099Z</time></trkpt><trkpt lat="46.0571624" lon="13.5057041"><ele>169.0</ele><time>2026-05-03T11:50:50.094Z</time></trkpt><trkpt lat="46.0572254" lon="13.5054684"><ele>169.0</ele><time>2026-05-03T11:50:51.091Z</time></trkpt><trkpt lat="46.0572866" lon="13.5052273"><ele>169.0</ele><time>2026-05-03T11:50:52.104Z</time></trkpt><trkpt lat="46.0573484" lon="13.5049861"><ele>169.33333333333334</ele><time>2026-05-03T11:50:53.087Z</time></trkpt><trkpt lat="46.0574145" lon="13.5047545"><ele>169.66666666666666</ele><time>2026-05-03T11:50:54.095Z</time></trkpt><trkpt lat="46.0574788" lon="13.5045252"><ele>170.0</ele><time>2026-05-03T11:50:55.098Z</time></trkpt><trkpt lat="46.0575234" lon="13.5042932"><ele>170.0</ele><time>2026-05-03T11:50:56.095Z</time></trkpt><trkpt lat="46.0575463" lon="13.5040313"><ele>170.0</ele><time>2026-05-03T11:50:57.093Z</time></trkpt><trkpt lat="46.0575678" lon="13.5037641"><ele>170.0</ele><time>2026-05-03T11:50:58.1Z</time></trkpt><trkpt lat="46.0575908" lon="13.5035079"><ele>166.66666666666666</ele><time>2026-05-03T11:50:59.089Z</time></trkpt><trkpt lat="46.0576181" lon="13.5032654"><ele>163.33333333333334</ele><time>2026-05-03T11:51:00.09Z</time></trkpt><trkpt lat="46.0576467" lon="13.5030206"><ele>160.0</ele><time>2026-05-03T11:51:01.091Z</time></trkpt><trkpt lat="46.0576699" lon="13.5027744"><ele>157.66666666666669</ele><time>2026-05-03T11:51:02.102Z</time></trkpt><trkpt lat="46.0576883" lon="13.5025349"><ele>155.33333333333334</ele><time>2026-05-03T11:51:03.097Z</time></trkpt><trkpt lat="46.0577017" lon="13.5022999"><ele>153.0</ele><time>2026-05-03T11:51:04.096Z</time></trkpt><trkpt lat="46.0576971" lon="13.5020727"><ele>153.0</ele><time>2026-05-03T11:51:05.092Z</time></trkpt><trkpt lat="46.0576666" lon="13.5018492"><ele>153.0</ele><time>2026-05-03T11:51:06.093Z</time></trkpt><trkpt lat="46.0576097" lon="13.5016431"><ele>153.0</ele><time>2026-05-03T11:51:07.092Z</time></trkpt><trkpt lat="46.0575303" lon="13.5014678"><ele>146.66666666666666</ele><time>2026-05-03T11:51:08.094Z</time></trkpt><trkpt lat="46.0574238" lon="13.5013011"><ele>140.33333333333331</ele><time>2026-05-03T11:51:09.091Z</time></trkpt><trkpt lat="46.0572933" lon="13.5011365"><ele>134.0</ele><time>2026-05-03T11:51:10.091Z</time></trkpt><trkpt lat="46.0571475" lon="13.5009843"><ele>134.0</ele><time>2026-05-03T11:51:11.089Z</time></trkpt><trkpt lat="46.057009" lon="13.5008242"><ele>134.0</ele><time>2026-05-03T11:51:12.099Z</time></trkpt><trkpt lat="46.0568799" lon="13.5006579"><ele>134.0</ele><time>2026-05-03T11:51:13.1Z</time></trkpt><trkpt lat="46.0567634" lon="13.5004868"><ele>136.0</ele><time>2026-05-03T11:51:14.098Z</time></trkpt><trkpt lat="46.0566643" lon="13.5003232"><ele>138.0</ele><time>2026-05-03T11:51:15.106Z</time></trkpt><trkpt lat="46.0565898" lon="13.5001624"><ele>140.0</ele><time>2026-05-03T11:51:16.097Z</time></trkpt><trkpt lat="46.0565407" lon="13.5000038"><ele>142.0</ele><time>2026-05-03T11:51:17.096Z</time></trkpt><trkpt lat="46.056515" lon="13.4998697"><ele>142.0</ele><time>2026-05-03T11:51:18.108Z</time></trkpt><trkpt lat="46.0564965" lon="13.4997544"><ele>142.0</ele><time>2026-05-03T11:51:19.096Z</time></trkpt><trkpt lat="46.0564306" lon="13.4996878"><ele>142.0</ele><time>2026-05-03T11:51:21.113Z</time></trkpt><trkpt lat="46.056385" lon="13.4998461"><ele>142.0</ele><time>2026-05-03T11:51:23.101Z</time></trkpt><trkpt lat="46.0564058" lon="13.4999582"><ele>142.0</ele><time>2026-05-03T11:51:24.09Z</time></trkpt><trkpt lat="46.0564611" lon="13.5000851"><ele>142.0</ele><time>2026-05-03T11:51:25.094Z</time></trkpt><trkpt lat="46.0565073" lon="13.5002113"><ele>142.0</ele><time>2026-05-03T11:51:26.09Z</time></trkpt><trkpt lat="46.0565306" lon="13.5003104"><ele>142.0</ele><time>2026-05-03T11:51:27.092Z</time></trkpt><trkpt lat="46.0564746" lon="13.5004363"><ele>142.0</ele><time>2026-05-03T11:51:29.112Z</time></trkpt><trkpt lat="46.0563748" lon="13.5003239"><ele>142.0</ele><time>2026-05-03T11:51:31.098Z</time></trkpt><trkpt lat="46.0563277" lon="13.5002036"><ele>142.0</ele><time>2026-05-03T11:51:32.096Z</time></trkpt><trkpt lat="46.0562766" lon="13.5000491"><ele>142.0</ele><time>2026-05-03T11:51:33.118Z</time></trkpt><trkpt lat="46.0562281" lon="13.4998853"><ele>142.0</ele><time>2026-05-03T11:51:34.099Z</time></trkpt><trkpt lat="46.0561902" lon="13.499687"><ele>142.0</ele><time>2026-05-03T11:51:35.096Z</time></trkpt><trkpt lat="46.0561521" lon="13.4994765"><ele>139.5</ele><time>2026-05-03T11:51:36.1Z</time></trkpt><trkpt lat="46.0561133" lon="13.4992648"><ele>137.0</ele><time>2026-05-03T11:51:37.111Z</time></trkpt><trkpt lat="46.0560696" lon="13.4990603"><ele>134.5</ele><time>2026-05-03T11:51:38.115Z</time></trkpt><trkpt lat="46.0560284" lon="13.4988606"><ele>132.0</ele><time>2026-05-03T11:51:39.094Z</time></trkpt><trkpt lat="46.05599" lon="13.4986778"><ele>129.4</ele><time>2026-05-03T11:51:40.096Z</time></trkpt><trkpt lat="46.0559528" lon="13.4985124"><ele>126.79999999999998</ele><time>2026-05-03T11:51:41.1Z</time></trkpt><trkpt lat="46.0559147" lon="13.4983617"><ele>124.2</ele><time>2026-05-03T11:51:42.105Z</time></trkpt><trkpt lat="46.0558742" lon="13.498226"><ele>121.6</ele><time>2026-05-03T11:51:43.099Z</time></trkpt><trkpt lat="46.0558284" lon="13.4981144"><ele>119.0</ele><time>2026-05-03T11:51:44.094Z</time></trkpt><trkpt lat="46.05579" lon="13.4980265"><ele>116.80000000000001</ele><time>2026-05-03T11:51:45.099Z</time></trkpt><trkpt lat="46.0557392" lon="13.4979174"><ele>114.60000000000001</ele><time>2026-05-03T11:51:47.117Z</time></trkpt><trkpt lat="46.0557863" lon="13.49783"><ele>112.4</ele><time>2026-05-03T11:51:49.094Z</time></trkpt><trkpt lat="46.0559033" lon="13.497774"><ele>110.2</ele><time>2026-05-03T11:51:51.108Z</time></trkpt><trkpt lat="46.0559858" lon="13.4977373"><ele>108.0</ele><time>2026-05-03T11:51:52.098Z</time></trkpt><trkpt lat="46.0560904" lon="13.4976876"><ele>107.75</ele><time>2026-05-03T11:51:53.092Z</time></trkpt><trkpt lat="46.0561961" lon="13.4976386"><ele>107.5</ele><time>2026-05-03T11:51:54.098Z</time></trkpt><trkpt lat="46.0563036" lon="13.4975899"><ele>107.25</ele><time>2026-05-03T11:51:55.089Z</time></trkpt><trkpt lat="46.0564219" lon="13.4975487"><ele>107.0</ele><time>2026-05-03T11:51:56.09Z</time></trkpt><trkpt lat="46.0565523" lon="13.4975185"><ele>108.5</ele><time>2026-05-03T11:51:57.081Z</time></trkpt><trkpt lat="46.0566932" lon="13.4975037"><ele>110.0</ele><time>2026-05-03T11:51:58.098Z</time></trkpt><trkpt lat="46.056835" lon="13.4974971"><ele>111.5</ele><time>2026-05-03T11:51:59.093Z</time></trkpt><trkpt lat="46.0569724" lon="13.4974988"><ele>113.0</ele><time>2026-05-03T11:52:00.092Z</time></trkpt><trkpt lat="46.0571098" lon="13.4975271"><ele>113.0</ele><time>2026-05-03T11:52:01.095Z</time></trkpt><trkpt lat="46.0572504" lon="13.4975927"><ele>113.0</ele><time>2026-05-03T11:52:02.096Z</time></trkpt><trkpt lat="46.0573825" lon="13.497687"><ele>113.0</ele><time>2026-05-03T11:52:03.08Z</time></trkpt><trkpt lat="46.05751" lon="13.497782"><ele>113.0</ele><time>2026-05-03T11:52:04.114Z</time></trkpt><trkpt lat="46.0576437" lon="13.4978606"><ele>111.75</ele><time>2026-05-03T11:52:05.083Z</time></trkpt><trkpt lat="46.0577871" lon="13.4979126"><ele>110.5</ele><time>2026-05-03T11:52:06.07Z</time></trkpt><trkpt lat="46.0579295" lon="13.4979598"><ele>109.25</ele><time>2026-05-03T11:52:07.081Z</time></trkpt><trkpt lat="46.0580684" lon="13.4980218"><ele>108.0</ele><time>2026-05-03T11:52:08.083Z</time></trkpt><trkpt lat="46.0582078" lon="13.4980907"><ele>111.75</ele><time>2026-05-03T11:52:09.098Z</time></trkpt><trkpt lat="46.0583362" lon="13.4981642"><ele>115.5</ele><time>2026-05-03T11:52:10.078Z</time></trkpt><trkpt lat="46.0584526" lon="13.4982416"><ele>119.25</ele><time>2026-05-03T11:52:11.08Z</time></trkpt><trkpt lat="46.058554" lon="13.4983252"><ele>123.0</ele><time>2026-05-03T11:52:12.094Z</time></trkpt><trkpt lat="46.0586337" lon="13.4984409"><ele>123.0</ele><time>2026-05-03T11:52:13.091Z</time></trkpt><trkpt lat="46.058704" lon="13.4985923"><ele>123.0</ele><time>2026-05-03T11:52:14.072Z</time></trkpt><trkpt lat="46.0587762" lon="13.4987723"><ele>123.0</ele><time>2026-05-03T11:52:15.075Z</time></trkpt><trkpt lat="46.0588504" lon="13.4989372"><ele>123.0</ele><time>2026-05-03T11:52:16.081Z</time></trkpt><trkpt lat="46.0589132" lon="13.4990923"><ele>132.5</ele><time>2026-05-03T11:52:17.08Z</time></trkpt><trkpt lat="46.0589606" lon="13.4992577"><ele>142.0</ele><time>2026-05-03T11:52:18.091Z</time></trkpt><trkpt lat="46.058988" lon="13.499446"><ele>151.5</ele><time>2026-05-03T11:52:19.077Z</time></trkpt><trkpt lat="46.0590177" lon="13.4996503"><ele>161.0</ele><time>2026-05-03T11:52:20.088Z</time></trkpt><trkpt lat="46.0590571" lon="13.4998715"><ele>167.66666666666666</ele><time>2026-05-03T11:52:21.076Z</time></trkpt><trkpt lat="46.0590906" lon="13.5001004"><ele>174.33333333333334</ele><time>2026-05-03T11:52:22.085Z</time></trkpt><trkpt lat="46.0591268" lon="13.5003371"><ele>181.0</ele><time>2026-05-03T11:52:23.081Z</time></trkpt><trkpt lat="46.0591633" lon="13.500573"><ele>166.0</ele><time>2026-05-03T11:52:24.08Z</time></trkpt><trkpt lat="46.0592064" lon="13.500803"><ele>151.0</ele><time>2026-05-03T11:52:25.08Z</time></trkpt><trkpt lat="46.0592617" lon="13.5010257"><ele>136.0</ele><time>2026-05-03T11:52:26.09Z</time></trkpt><trkpt lat="46.0593382" lon="13.5012304"><ele>144.0</ele><time>2026-05-03T11:52:27.08Z</time></trkpt><trkpt lat="46.0594279" lon="13.5014223"><ele>152.0</ele><time>2026-05-03T11:52:28.087Z</time></trkpt><trkpt lat="46.0595409" lon="13.5015889"><ele>160.0</ele><time>2026-05-03T11:52:29.075Z</time></trkpt><trkpt lat="46.0596693" lon="13.5017218"><ele>160.0</ele><time>2026-05-03T11:52:30.082Z</time></trkpt><trkpt lat="46.0598127" lon="13.5018431"><ele>160.0</ele><time>2026-05-03T11:52:31.084Z</time></trkpt><trkpt lat="46.0599707" lon="13.5019487"><ele>160.0</ele><time>2026-05-03T11:52:32.082Z</time></trkpt><trkpt lat="46.0601373" lon="13.5020459"><ele>153.66666666666669</ele><time>2026-05-03T11:52:33.075Z</time></trkpt><trkpt lat="46.0603117" lon="13.5021471"><ele>147.33333333333334</ele><time>2026-05-03T11:52:34.072Z</time></trkpt><trkpt lat="46.060485" lon="13.5022538"><ele>141.0</ele><time>2026-05-03T11:52:35.075Z</time></trkpt><trkpt lat="46.0606515" lon="13.5023679"><ele>133.66666666666666</ele><time>2026-05-03T11:52:36.086Z</time></trkpt><trkpt lat="46.0608157" lon="13.5024816"><ele>126.33333333333333</ele><time>2026-05-03T11:52:37.078Z</time></trkpt><trkpt lat="46.0609737" lon="13.5025966"><ele>119.0</ele><time>2026-05-03T11:52:38.087Z</time></trkpt><trkpt lat="46.0611173" lon="13.5027098"><ele>119.0</ele><time>2026-05-03T11:52:39.088Z</time></trkpt><trkpt lat="46.0612497" lon="13.5028349"><ele>119.0</ele><time>2026-05-03T11:52:40.087Z</time></trkpt><trkpt lat="46.0613726" lon="13.5029542"><ele>119.0</ele><time>2026-05-03T11:52:41.078Z</time></trkpt><trkpt lat="46.0614903" lon="13.5031025"><ele>119.0</ele><time>2026-05-03T11:52:42.08Z</time></trkpt><trkpt lat="46.0615871" lon="13.5032605"><ele>119.0</ele><time>2026-05-03T11:52:43.075Z</time></trkpt><trkpt lat="46.0616616" lon="13.503442"><ele>119.0</ele><time>2026-05-03T11:52:44.085Z</time></trkpt><trkpt lat="46.0617203" lon="13.5036349"><ele>119.0</ele><time>2026-05-03T11:52:45.084Z</time></trkpt><trkpt lat="46.0617742" lon="13.5038374"><ele>119.0</ele><time>2026-05-03T11:52:46.085Z</time></trkpt><trkpt lat="46.0617996" lon="13.5040374"><ele>119.0</ele><time>2026-05-03T11:52:47.1Z</time></trkpt><trkpt lat="46.061795" lon="13.5042312"><ele>119.0</ele><time>2026-05-03T11:52:48.091Z</time></trkpt><trkpt lat="46.0617592" lon="13.5044179"><ele>119.0</ele><time>2026-05-03T11:52:49.09Z</time></trkpt><trkpt lat="46.0617029" lon="13.5046056"><ele>119.0</ele><time>2026-05-03T11:52:50.09Z</time></trkpt><trkpt lat="46.0616268" lon="13.5047827"><ele>119.0</ele><time>2026-05-03T11:52:51.09Z</time></trkpt><trkpt lat="46.0615174" lon="13.5049434"><ele>119.0</ele><time>2026-05-03T11:52:52.091Z</time></trkpt><trkpt lat="46.0614052" lon="13.5050894"><ele>123.0</ele><time>2026-05-03T11:52:53.09Z</time></trkpt><trkpt lat="46.0613086" lon="13.5052303"><ele>127.0</ele><time>2026-05-03T11:52:54.089Z</time></trkpt><trkpt lat="46.0612155" lon="13.5053604"><ele>131.0</ele><time>2026-05-03T11:52:55.086Z</time></trkpt><trkpt lat="46.0611263" lon="13.5054838"><ele>135.0</ele><time>2026-05-03T11:52:56.085Z</time></trkpt><trkpt lat="46.061047" lon="13.5055945"><ele>135.0</ele><time>2026-05-03T11:52:57.089Z</time></trkpt><trkpt lat="46.0609713" lon="13.5056918"><ele>135.0</ele><time>2026-05-03T11:52:58.083Z</time></trkpt><trkpt lat="46.0608812" lon="13.50578"><ele>135.0</ele><time>2026-05-03T11:52:59.079Z</time></trkpt><trkpt lat="46.0607858" lon="13.5058768"><ele>135.0</ele><time>2026-05-03T11:53:00.087Z</time></trkpt><trkpt lat="46.0607008" lon="13.5059831"><ele>135.0</ele><time>2026-05-03T11:53:01.077Z</time></trkpt><trkpt lat="46.0606289" lon="13.506109"><ele>144.5</ele><time>2026-05-03T11:53:02.073Z</time></trkpt><trkpt lat="46.0605581" lon="13.5062635"><ele>154.0</ele><time>2026-05-03T11:53:03.078Z</time></trkpt><trkpt lat="46.0604874" lon="13.5064176"><ele>163.5</ele><time>2026-05-03T11:53:04.074Z</time></trkpt><trkpt lat="46.0604268" lon="13.5065578"><ele>173.0</ele><time>2026-05-03T11:53:05.074Z</time></trkpt><trkpt lat="46.0603733" lon="13.5066863"><ele>173.0</ele><time>2026-05-03T11:53:06.065Z</time></trkpt><trkpt lat="46.060336" lon="13.5068097"><ele>173.0</ele><time>2026-05-03T11:53:07.082Z</time></trkpt><trkpt lat="46.0603073" lon="13.5069344"><ele>173.0</ele><time>2026-05-03T11:53:08.081Z</time></trkpt><trkpt lat="46.0602868" lon="13.5070815"><ele>173.0</ele><time>2026-05-03T11:53:09.073Z</time></trkpt><trkpt lat="46.060285" lon="13.5072692"><ele>173.0</ele><time>2026-05-03T11:53:10.078Z</time></trkpt><trkpt lat="46.0602929" lon="13.50748"><ele>174.0</ele><time>2026-05-03T11:53:11.076Z</time></trkpt><trkpt lat="46.0603194" lon="13.507686"><ele>175.0</ele><time>2026-05-03T11:53:12.066Z</time></trkpt><trkpt lat="46.060367" lon="13.5078952"><ele>176.0</ele><time>2026-05-03T11:53:13.073Z</time></trkpt><trkpt lat="46.0604292" lon="13.5080963"><ele>176.0</ele><time>2026-05-03T11:53:14.064Z</time></trkpt><trkpt lat="46.0604888" lon="13.5082959"><ele>176.0</ele><time>2026-05-03T11:53:15.078Z</time></trkpt><trkpt lat="46.0605522" lon="13.5084974"><ele>176.0</ele><time>2026-05-03T11:53:16.079Z</time></trkpt><trkpt lat="46.0606164" lon="13.5087052"><ele>180.0</ele><time>2026-05-03T11:53:17.066Z</time></trkpt><trkpt lat="46.0606715" lon="13.508921"><ele>184.0</ele><time>2026-05-03T11:53:18.064Z</time></trkpt><trkpt lat="46.0607273" lon="13.5091521"><ele>188.0</ele><time>2026-05-03T11:53:19.071Z</time></trkpt><trkpt lat="46.0607825" lon="13.5093796"><ele>171.66666666666666</ele><time>2026-05-03T11:53:20.066Z</time></trkpt><trkpt lat="46.0608471" lon="13.5096064"><ele>155.33333333333334</ele><time>2026-05-03T11:53:21.079Z</time></trkpt><trkpt lat="46.0609254" lon="13.5098199"><ele>139.0</ele><time>2026-05-03T11:53:22.069Z</time></trkpt><trkpt lat="46.0610097" lon="13.5100133"><ele>139.0</ele><time>2026-05-03T11:53:23.072Z</time></trkpt><trkpt lat="46.0611111" lon="13.5101891"><ele>139.0</ele><time>2026-05-03T11:53:24.068Z</time></trkpt><trkpt lat="46.0612241" lon="13.5103577"><ele>139.0</ele><time>2026-05-03T11:53:25.085Z</time></trkpt><trkpt lat="46.0613481" lon="13.5105247"><ele>133.66666666666669</ele><time>2026-05-03T11:53:26.073Z</time></trkpt><trkpt lat="46.0614729" lon="13.510686"><ele>128.33333333333334</ele><time>2026-05-03T11:53:27.072Z</time></trkpt><trkpt lat="46.0615869" lon="13.5108444"><ele>123.0</ele><time>2026-05-03T11:53:28.075Z</time></trkpt><trkpt lat="46.0616955" lon="13.5110065"><ele>123.0</ele><time>2026-05-03T11:53:29.07Z</time></trkpt><trkpt lat="46.0618016" lon="13.5111742"><ele>123.0</ele><time>2026-05-03T11:53:30.071Z</time></trkpt><trkpt lat="46.0618997" lon="13.5113423"><ele>123.0</ele><time>2026-05-03T11:53:31.076Z</time></trkpt><trkpt lat="46.0619834" lon="13.5115036"><ele>127.2</ele><time>2026-05-03T11:53:32.077Z</time></trkpt><trkpt lat="46.0620488" lon="13.5116467"><ele>131.4</ele><time>2026-05-03T11:53:33.084Z</time></trkpt><trkpt lat="46.0620908" lon="13.5117886"><ele>135.60000000000002</ele><time>2026-05-03T11:53:34.071Z</time></trkpt><trkpt lat="46.0621173" lon="13.5119305"><ele>139.8</ele><time>2026-05-03T11:53:35.081Z</time></trkpt><trkpt lat="46.0621228" lon="13.5120862"><ele>144.0</ele><time>2026-05-03T11:53:36.079Z</time></trkpt><trkpt lat="46.0620954" lon="13.5122271"><ele>145.0</ele><time>2026-05-03T11:53:37.075Z</time></trkpt><trkpt lat="46.0620532" lon="13.5123698"><ele>146.0</ele><time>2026-05-03T11:53:38.089Z</time></trkpt><trkpt lat="46.0619888" lon="13.512532"><ele>147.0</ele><time>2026-05-03T11:53:39.084Z</time></trkpt><trkpt lat="46.0619166" lon="13.5127035"><ele>148.0</ele><time>2026-05-03T11:53:40.081Z</time></trkpt><trkpt lat="46.0618367" lon="13.5128903"><ele>144.66666666666669</ele><time>2026-05-03T11:53:41.077Z</time></trkpt><trkpt lat="46.0617639" lon="13.5130844"><ele>141.33333333333334</ele><time>2026-05-03T11:53:42.077Z</time></trkpt><trkpt lat="46.061697" lon="13.5132865"><ele>138.0</ele><time>2026-05-03T11:53:43.081Z</time></trkpt><trkpt lat="46.0616353" lon="13.5134924"><ele>149.0</ele><time>2026-05-03T11:53:44.089Z</time></trkpt><trkpt lat="46.0615874" lon="13.5137007"><ele>160.0</ele><time>2026-05-03T11:53:45.079Z</time></trkpt><trkpt lat="46.0615589" lon="13.5139042"><ele>171.0</ele><time>2026-05-03T11:53:46.081Z</time></trkpt><trkpt lat="46.0615374" lon="13.5141007"><ele>182.0</ele><time>2026-05-03T11:53:47.084Z</time></trkpt><trkpt lat="46.0615186" lon="13.5142838"><ele>182.0</ele><time>2026-05-03T11:53:48.085Z</time></trkpt><trkpt lat="46.0615467" lon="13.5144705"><ele>182.0</ele><time>2026-05-03T11:53:49.077Z</time></trkpt><trkpt lat="46.0616249" lon="13.5146721"><ele>182.0</ele><time>2026-05-03T11:53:50.085Z</time></trkpt><trkpt lat="46.0617046" lon="13.5148953"><ele>172.66666666666666</ele><time>2026-05-03T11:53:51.074Z</time></trkpt><trkpt lat="46.0617826" lon="13.5151274"><ele>163.33333333333334</ele><time>2026-05-03T11:53:52.087Z</time></trkpt><trkpt lat="46.0618562" lon="13.5153613"><ele>154.0</ele><time>2026-05-03T11:53:53.077Z</time></trkpt><trkpt lat="46.0619359" lon="13.5156129"><ele>154.0</ele><time>2026-05-03T11:53:54.087Z</time></trkpt><trkpt lat="46.0620158" lon="13.515865"><ele>154.0</ele><time>2026-05-03T11:53:55.079Z</time></trkpt><trkpt lat="46.0620937" lon="13.516115"><ele>154.0</ele><time>2026-05-03T11:53:56.088Z</time></trkpt><trkpt lat="46.0621671" lon="13.5163547"><ele>159.0</ele><time>2026-05-03T11:53:57.088Z</time></trkpt><trkpt lat="46.0622392" lon="13.5165923"><ele>164.0</ele><time>2026-05-03T11:53:58.077Z</time></trkpt><trkpt lat="46.0623104" lon="13.5168389"><ele>169.0</ele><time>2026-05-03T11:53:59.081Z</time></trkpt><trkpt lat="46.0623725" lon="13.5171012"><ele>173.0</ele><time>2026-05-03T11:54:00.074Z</time></trkpt><trkpt lat="46.0624198" lon="13.517386"><ele>177.0</ele><time>2026-05-03T11:54:01.077Z</time></trkpt><trkpt lat="46.0624644" lon="13.5176704"><ele>181.0</ele><time>2026-05-03T11:54:02.079Z</time></trkpt><trkpt lat="46.0625111" lon="13.5179448"><ele>169.0</ele><time>2026-05-03T11:54:03.083Z</time></trkpt><trkpt lat="46.0625645" lon="13.5182085"><ele>157.0</ele><time>2026-05-03T11:54:04.084Z</time></trkpt><trkpt lat="46.0626312" lon="13.5184696"><ele>145.0</ele><time>2026-05-03T11:54:05.092Z</time></trkpt><trkpt lat="46.062702" lon="13.5187254"><ele>150.33333333333334</ele><time>2026-05-03T11:54:06.081Z</time></trkpt><trkpt lat="46.0627732" lon="13.5189749"><ele>155.66666666666666</ele><time>2026-05-03T11:54:07.092Z</time></trkpt><trkpt lat="46.0628372" lon="13.5191966"><ele>161.0</ele><time>2026-05-03T11:54:08.079Z</time></trkpt><trkpt lat="46.0628975" lon="13.5194124"><ele>166.25</ele><time>2026-05-03T11:54:09.087Z</time></trkpt><trkpt lat="46.0629565" lon="13.5196129"><ele>171.5</ele><time>2026-05-03T11:54:10.079Z</time></trkpt><trkpt lat="46.0630232" lon="13.5198068"><ele>176.75</ele><time>2026-05-03T11:54:11.085Z</time></trkpt><trkpt lat="46.0630987" lon="13.5199872"><ele>182.0</ele><time>2026-05-03T11:54:12.074Z</time></trkpt><trkpt lat="46.0631842" lon="13.5201471"><ele>175.66666666666666</ele><time>2026-05-03T11:54:13.08Z</time></trkpt><trkpt lat="46.0632914" lon="13.520295"><ele>169.33333333333334</ele><time>2026-05-03T11:54:14.075Z</time></trkpt><trkpt lat="46.0634182" lon="13.5204317"><ele>163.0</ele><time>2026-05-03T11:54:15.084Z</time></trkpt><trkpt lat="46.0635584" lon="13.5205654"><ele>163.0</ele><time>2026-05-03T11:54:16.07Z</time></trkpt><trkpt lat="46.0637144" lon="13.5206917"><ele>163.0</ele><time>2026-05-03T11:54:17.074Z</time></trkpt><trkpt lat="46.0638708" lon="13.520812"><ele>163.0</ele><time>2026-05-03T11:54:18.074Z</time></trkpt><trkpt lat="46.0640199" lon="13.5209348"><ele>161.66666666666669</ele><time>2026-05-03T11:54:19.072Z</time></trkpt><trkpt lat="46.0641629" lon="13.5210628"><ele>160.33333333333334</ele><time>2026-05-03T11:54:20.078Z</time></trkpt><trkpt lat="46.0642993" lon="13.5212013"><ele>159.0</ele><time>2026-05-03T11:54:21.067Z</time></trkpt><trkpt lat="46.0644295" lon="13.5213478"><ele>159.0</ele><time>2026-05-03T11:54:22.082Z</time></trkpt><trkpt lat="46.0645514" lon="13.5215237"><ele>159.0</ele><time>2026-05-03T11:54:23.089Z</time></trkpt><trkpt lat="46.0646748" lon="13.5217046"><ele>159.0</ele><time>2026-05-03T11:54:24.078Z</time></trkpt><trkpt lat="46.0647926" lon="13.5218843"><ele>159.0</ele><time>2026-05-03T11:54:25.082Z</time></trkpt><trkpt lat="46.0649046" lon="13.5220635"><ele>159.0</ele><time>2026-05-03T11:54:26.077Z</time></trkpt><trkpt lat="46.0649934" lon="13.5222153"><ele>159.0</ele><time>2026-05-03T11:54:27.072Z</time></trkpt><trkpt lat="46.0650648" lon="13.5223697"><ele>159.0</ele><time>2026-05-03T11:54:28.088Z</time></trkpt><trkpt lat="46.0651405" lon="13.5225593"><ele>158.33333333333334</ele><time>2026-05-03T11:54:29.073Z</time></trkpt><trkpt lat="46.0652122" lon="13.5227779"><ele>157.66666666666669</ele><time>2026-05-03T11:54:30.074Z</time></trkpt><trkpt lat="46.0652746" lon="13.5230011"><ele>157.0</ele><time>2026-05-03T11:54:31.078Z</time></trkpt><trkpt lat="46.0653383" lon="13.5232382"><ele>157.0</ele><time>2026-05-03T11:54:32.069Z</time></trkpt><trkpt lat="46.0653958" lon="13.5234612"><ele>157.0</ele><time>2026-05-03T11:54:33.066Z</time></trkpt><trkpt lat="46.0654567" lon="13.5236633"><ele>157.0</ele><time>2026-05-03T11:54:34.073Z</time></trkpt><trkpt lat="46.0655169" lon="13.5238473"><ele>158.66666666666669</ele><time>2026-05-03T11:54:35.074Z</time></trkpt><trkpt lat="46.0655832" lon="13.5240235"><ele>160.33333333333334</ele><time>2026-05-03T11:54:36.086Z</time></trkpt><trkpt lat="46.0656741" lon="13.5241843"><ele>162.0</ele><time>2026-05-03T11:54:37.069Z</time></trkpt><trkpt lat="46.0657962" lon="13.52435"><ele>158.66666666666666</ele><time>2026-05-03T11:54:38.072Z</time></trkpt><trkpt lat="46.0659159" lon="13.5245194"><ele>155.33333333333331</ele><time>2026-05-03T11:54:39.078Z</time></trkpt><trkpt lat="46.0660268" lon="13.5246804"><ele>152.0</ele><time>2026-05-03T11:54:40.079Z</time></trkpt><trkpt lat="46.0661249" lon="13.5248432"><ele>152.0</ele><time>2026-05-03T11:54:41.08Z</time></trkpt><trkpt lat="46.0662093" lon="13.5250208"><ele>152.0</ele><time>2026-05-03T11:54:42.086Z</time></trkpt><trkpt lat="46.0662997" lon="13.5252121"><ele>152.0</ele><time>2026-05-03T11:54:43.083Z</time></trkpt><trkpt lat="46.0663935" lon="13.5254147"><ele>148.0</ele><time>2026-05-03T11:54:44.077Z</time></trkpt><trkpt lat="46.0664722" lon="13.5256103"><ele>144.0</ele><time>2026-05-03T11:54:45.076Z</time></trkpt><trkpt lat="46.0665409" lon="13.5257992"><ele>140.0</ele><time>2026-05-03T11:54:46.08Z</time></trkpt><trkpt lat="46.0665981" lon="13.5259847"><ele>136.0</ele><time>2026-05-03T11:54:47.08Z</time></trkpt><trkpt lat="46.066631" lon="13.5261812"><ele>136.25</ele><time>2026-05-03T11:54:48.077Z</time></trkpt><trkpt lat="46.0666535" lon="13.5263777"><ele>136.5</ele><time>2026-05-03T11:54:49.08Z</time></trkpt><trkpt lat="46.0666541" lon="13.5265962"><ele>136.75</ele><time>2026-05-03T11:54:50.084Z</time></trkpt><trkpt lat="46.0666467" lon="13.5268166"><ele>137.0</ele><time>2026-05-03T11:54:51.086Z</time></trkpt><trkpt lat="46.0666278" lon="13.5270381"><ele>155.66666666666666</ele><time>2026-05-03T11:54:52.08Z</time></trkpt><trkpt lat="46.0665973" lon="13.5272633"><ele>174.33333333333331</ele><time>2026-05-03T11:54:53.074Z</time></trkpt><trkpt lat="46.0665567" lon="13.5274917"><ele>193.0</ele><time>2026-05-03T11:54:54.077Z</time></trkpt><trkpt lat="46.0665093" lon="13.5277256"><ele>192.66666666666666</ele><time>2026-05-03T11:54:55.082Z</time></trkpt><trkpt lat="46.0664616" lon="13.5279575"><ele>192.33333333333331</ele><time>2026-05-03T11:54:56.08Z</time></trkpt><trkpt lat="46.0664176" lon="13.5281853"><ele>192.0</ele><time>2026-05-03T11:54:57.074Z</time></trkpt><trkpt lat="46.066377" lon="13.5284124"><ele>192.0</ele><time>2026-05-03T11:54:58.072Z</time></trkpt><trkpt lat="46.0663395" lon="13.5286313"><ele>192.0</ele><time>2026-05-03T11:54:59.078Z</time></trkpt><trkpt lat="46.0663104" lon="13.5288373"><ele>192.0</ele><time>2026-05-03T11:55:00.07Z</time></trkpt><trkpt lat="46.0662982" lon="13.5290393"><ele>192.0</ele><time>2026-05-03T11:55:01.069Z</time></trkpt><trkpt lat="46.066304" lon="13.5292424"><ele>192.0</ele><time>2026-05-03T11:55:02.071Z</time></trkpt><trkpt lat="46.0663082" lon="13.5294405"><ele>192.0</ele><time>2026-05-03T11:55:03.074Z</time></trkpt><trkpt lat="46.0663158" lon="13.529613"><ele>192.0</ele><time>2026-05-03T11:55:04.071Z</time></trkpt><trkpt lat="46.0663217" lon="13.5297548"><ele>192.0</ele><time>2026-05-03T11:55:05.074Z</time></trkpt><trkpt lat="46.0663308" lon="13.5298858"><ele>192.0</ele><time>2026-05-03T11:55:06.072Z</time></trkpt><trkpt lat="46.0663409" lon="13.5300069"><ele>193.8</ele><time>2026-05-03T11:55:07.077Z</time></trkpt><trkpt lat="46.0663717" lon="13.5301386"><ele>195.6</ele><time>2026-05-03T11:55:08.087Z</time></trkpt><trkpt lat="46.0664351" lon="13.5302761"><ele>197.4</ele><time>2026-05-03T11:55:09.067Z</time></trkpt><trkpt lat="46.0665145" lon="13.5303841"><ele>199.20000000000002</ele><time>2026-05-03T11:55:10.065Z</time></trkpt><trkpt lat="46.0665998" lon="13.5304694"><ele>201.0</ele><time>2026-05-03T11:55:11.071Z</time></trkpt><trkpt lat="46.0666912" lon="13.5305309"><ele>193.20000000000002</ele><time>2026-05-03T11:55:12.07Z</time></trkpt><trkpt lat="46.0667881" lon="13.530577"><ele>185.4</ele><time>2026-05-03T11:55:13.078Z</time></trkpt><trkpt lat="46.0668923" lon="13.5306055"><ele>177.6</ele><time>2026-05-03T11:55:14.071Z</time></trkpt><trkpt lat="46.066991" lon="13.5306232"><ele>169.8</ele><time>2026-05-03T11:55:15.075Z</time></trkpt><trkpt lat="46.0670861" lon="13.5306361"><ele>162.0</ele><time>2026-05-03T11:55:16.078Z</time></trkpt><trkpt lat="46.0671789" lon="13.5306407"><ele>162.0</ele><time>2026-05-03T11:55:17.072Z</time></trkpt><trkpt lat="46.0672789" lon="13.5306154"><ele>162.0</ele><time>2026-05-03T11:55:18.072Z</time></trkpt><trkpt lat="46.06739" lon="13.5305687"><ele>162.0</ele><time>2026-05-03T11:55:19.075Z</time></trkpt><trkpt lat="46.0675102" lon="13.5305159"><ele>162.0</ele><time>2026-05-03T11:55:20.07Z</time></trkpt><trkpt lat="46.0676254" lon="13.5304584"><ele>159.2</ele><time>2026-05-03T11:55:21.067Z</time></trkpt><trkpt lat="46.0677378" lon="13.530403"><ele>156.39999999999998</ele><time>2026-05-03T11:55:22.071Z</time></trkpt><trkpt lat="46.0678406" lon="13.5303557"><ele>153.60000000000002</ele><time>2026-05-03T11:55:23.07Z</time></trkpt><trkpt lat="46.0679416" lon="13.5303117"><ele>150.8</ele><time>2026-05-03T11:55:24.08Z</time></trkpt><trkpt lat="46.0680358" lon="13.5302706"><ele>148.0</ele><time>2026-05-03T11:55:25.072Z</time></trkpt><trkpt lat="46.0681289" lon="13.5302281"><ele>147.83333333333334</ele><time>2026-05-03T11:55:26.073Z</time></trkpt><trkpt lat="46.0682242" lon="13.5302055"><ele>147.66666666666669</ele><time>2026-05-03T11:55:27.08Z</time></trkpt><trkpt lat="46.0683092" lon="13.5302005"><ele>147.5</ele><time>2026-05-03T11:55:28.078Z</time></trkpt><trkpt lat="46.0683798" lon="13.5302181"><ele>147.33333333333334</ele><time>2026-05-03T11:55:29.086Z</time></trkpt><trkpt lat="46.0684406" lon="13.5302727"><ele>147.16666666666666</ele><time>2026-05-03T11:55:30.081Z</time></trkpt><trkpt lat="46.0685096" lon="13.5303615"><ele>147.0</ele><time>2026-05-03T11:55:31.083Z</time></trkpt><trkpt lat="46.0685981" lon="13.5304769"><ele>147.0</ele><time>2026-05-03T11:55:32.09Z</time></trkpt><trkpt lat="46.0686971" lon="13.5306123"><ele>147.0</ele><time>2026-05-03T11:55:33.093Z</time></trkpt><trkpt lat="46.068797" lon="13.5307441"><ele>147.0</ele><time>2026-05-03T11:55:34.073Z</time></trkpt><trkpt lat="46.0688978" lon="13.5308751"><ele>147.0</ele><time>2026-05-03T11:55:35.086Z</time></trkpt><trkpt lat="46.068998" lon="13.5310036"><ele>147.0</ele><time>2026-05-03T11:55:36.088Z</time></trkpt><trkpt lat="46.0690846" lon="13.5311234"><ele>147.0</ele><time>2026-05-03T11:55:37.085Z</time></trkpt><trkpt lat="46.0691601" lon="13.5312369"><ele>147.0</ele><time>2026-05-03T11:55:38.093Z</time></trkpt><trkpt lat="46.0692283" lon="13.5313443"><ele>147.0</ele><time>2026-05-03T11:55:39.073Z</time></trkpt><trkpt lat="46.0692758" lon="13.5314545"><ele>147.0</ele><time>2026-05-03T11:55:40.075Z</time></trkpt><trkpt lat="46.0693027" lon="13.531576"><ele>146.79999999999998</ele><time>2026-05-03T11:55:41.089Z</time></trkpt><trkpt lat="46.0693095" lon="13.531701"><ele>146.6</ele><time>2026-05-03T11:55:42.078Z</time></trkpt><trkpt lat="46.0693031" lon="13.5318204"><ele>146.39999999999998</ele><time>2026-05-03T11:55:43.078Z</time></trkpt><trkpt lat="46.0692794" lon="13.5319444"><ele>146.2</ele><time>2026-05-03T11:55:44.078Z</time></trkpt><trkpt lat="46.069239" lon="13.5320808"><ele>146.0</ele><time>2026-05-03T11:55:45.083Z</time></trkpt><trkpt lat="46.069193" lon="13.5322398"><ele>147.6</ele><time>2026-05-03T11:55:46.075Z</time></trkpt><trkpt lat="46.0691657" lon="13.5323915"><ele>149.2</ele><time>2026-05-03T11:55:47.096Z</time></trkpt><trkpt lat="46.0691584" lon="13.5325403"><ele>150.8</ele><time>2026-05-03T11:55:48.062Z</time></trkpt><trkpt lat="46.0691506" lon="13.5326952"><ele>152.4</ele><time>2026-05-03T11:55:49.069Z</time></trkpt><trkpt lat="46.0691499" lon="13.5328427"><ele>154.0</ele><time>2026-05-03T11:55:50.056Z</time></trkpt><trkpt lat="46.069157" lon="13.532992"><ele>156.75</ele><time>2026-05-03T11:55:51.067Z</time></trkpt><trkpt lat="46.0691762" lon="13.5331433"><ele>159.5</ele><time>2026-05-03T11:55:52.07Z</time></trkpt><trkpt lat="46.0692121" lon="13.5332979"><ele>162.25</ele><time>2026-05-03T11:55:53.066Z</time></trkpt><trkpt lat="46.0692527" lon="13.5334533"><ele>165.0</ele><time>2026-05-03T11:55:54.058Z</time></trkpt><trkpt lat="46.0692917" lon="13.5336106"><ele>169.5</ele><time>2026-05-03T11:55:55.061Z</time></trkpt><trkpt lat="46.0693347" lon="13.5337566"><ele>174.0</ele><time>2026-05-03T11:55:56.055Z</time></trkpt><trkpt lat="46.0693911" lon="13.5339029"><ele>178.5</ele><time>2026-05-03T11:55:57.067Z</time></trkpt><trkpt lat="46.0694537" lon="13.5340482"><ele>183.0</ele><time>2026-05-03T11:55:58.06Z</time></trkpt><trkpt lat="46.0695173" lon="13.5341955"><ele>183.0</ele><time>2026-05-03T11:55:59.063Z</time></trkpt><trkpt lat="46.0695857" lon="13.5343474"><ele>183.0</ele><time>2026-05-03T11:56:00.085Z</time></trkpt><trkpt lat="46.0696459" lon="13.5345029"><ele>183.0</ele><time>2026-05-03T11:56:01.067Z</time></trkpt><trkpt lat="46.0697018" lon="13.5346465"><ele>183.0</ele><time>2026-05-03T11:56:02.064Z</time></trkpt><trkpt lat="46.0697573" lon="13.5347864"><ele>188.25</ele><time>2026-05-03T11:56:03.081Z</time></trkpt><trkpt lat="46.0698208" lon="13.5349274"><ele>193.5</ele><time>2026-05-03T11:56:04.059Z</time></trkpt><trkpt lat="46.0698989" lon="13.5350513"><ele>198.75</ele><time>2026-05-03T11:56:05.065Z</time></trkpt><trkpt lat="46.0699807" lon="13.5351566"><ele>204.0</ele><time>2026-05-03T11:56:06.055Z</time></trkpt><trkpt lat="46.0700716" lon="13.535251"><ele>198.5</ele><time>2026-05-03T11:56:07.065Z</time></trkpt><trkpt lat="46.0701698" lon="13.5353291"><ele>193.0</ele><time>2026-05-03T11:56:08.073Z</time></trkpt><trkpt lat="46.0702753" lon="13.535374"><ele>187.5</ele><time>2026-05-03T11:56:09.064Z</time></trkpt><trkpt lat="46.0703906" lon="13.5354033"><ele>182.0</ele><time>2026-05-03T11:56:10.072Z</time></trkpt><trkpt lat="46.070505" lon="13.5354351"><ele>182.0</ele><time>2026-05-03T11:56:11.077Z</time></trkpt><trkpt lat="46.0706197" lon="13.5354544"><ele>182.0</ele><time>2026-05-03T11:56:12.079Z</time></trkpt><trkpt lat="46.0707279" lon="13.5354783"><ele>182.0</ele><time>2026-05-03T11:56:13.075Z</time></trkpt><trkpt lat="46.0708251" lon="13.53549"><ele>182.0</ele><time>2026-05-03T11:56:14.071Z</time></trkpt><trkpt lat="46.0709296" lon="13.5354945"><ele>182.0</ele><time>2026-05-03T11:56:15.083Z</time></trkpt><trkpt lat="46.0710398" lon="13.5354896"><ele>178.25</ele><time>2026-05-03T11:56:16.074Z</time></trkpt><trkpt lat="46.0711478" lon="13.5354771"><ele>174.5</ele><time>2026-05-03T11:56:17.069Z</time></trkpt><trkpt lat="46.0712595" lon="13.5354531"><ele>170.75</ele><time>2026-05-03T11:56:18.073Z</time></trkpt><trkpt lat="46.0713859" lon="13.535421"><ele>167.0</ele><time>2026-05-03T11:56:19.072Z</time></trkpt><trkpt lat="46.0715039" lon="13.5353867"><ele>160.25</ele><time>2026-05-03T11:56:20.082Z</time></trkpt><trkpt lat="46.0716207" lon="13.535355"><ele>153.5</ele><time>2026-05-03T11:56:21.078Z</time></trkpt><trkpt lat="46.0717367" lon="13.5353245"><ele>146.75</ele><time>2026-05-03T11:56:22.077Z</time></trkpt><trkpt lat="46.0718496" lon="13.5353099"><ele>140.0</ele><time>2026-05-03T11:56:23.083Z</time></trkpt><trkpt lat="46.0719559" lon="13.5352923"><ele>140.0</ele><time>2026-05-03T11:56:24.083Z</time></trkpt><trkpt lat="46.0720636" lon="13.5353008"><ele>140.0</ele><time>2026-05-03T11:56:25.088Z</time></trkpt><trkpt lat="46.0721596" lon="13.5353484"><ele>140.0</ele><time>2026-05-03T11:56:26.085Z</time></trkpt><trkpt lat="46.0722635" lon="13.5354174"><ele>140.0</ele><time>2026-05-03T11:56:27.073Z</time></trkpt><trkpt lat="46.0723646" lon="13.5354967"><ele>140.0</ele><time>2026-05-03T11:56:28.074Z</time></trkpt><trkpt lat="46.0724736" lon="13.535584"><ele>144.75</ele><time>2026-05-03T11:56:29.088Z</time></trkpt><trkpt lat="46.0725881" lon="13.5356846"><ele>149.5</ele><time>2026-05-03T11:56:30.078Z</time></trkpt><trkpt lat="46.0727054" lon="13.5357842"><ele>154.25</ele><time>2026-05-03T11:56:31.087Z</time></trkpt><trkpt lat="46.072828" lon="13.5358869"><ele>159.0</ele><time>2026-05-03T11:56:32.087Z</time></trkpt><trkpt lat="46.0729495" lon="13.5359998"><ele>159.0</ele><time>2026-05-03T11:56:33.087Z</time></trkpt><trkpt lat="46.0730639" lon="13.5361012"><ele>159.0</ele><time>2026-05-03T11:56:34.071Z</time></trkpt><trkpt lat="46.073177" lon="13.5362033"><ele>159.0</ele><time>2026-05-03T11:56:35.077Z</time></trkpt><trkpt lat="46.0732862" lon="13.5363079"><ele>159.0</ele><time>2026-05-03T11:56:36.081Z</time></trkpt><trkpt lat="46.0733922" lon="13.5364164"><ele>160.0</ele><time>2026-05-03T11:56:37.077Z</time></trkpt><trkpt lat="46.0735003" lon="13.5365343"><ele>161.0</ele><time>2026-05-03T11:56:38.084Z</time></trkpt><trkpt lat="46.0736044" lon="13.5366522"><ele>162.0</ele><time>2026-05-03T11:56:39.074Z</time></trkpt><trkpt lat="46.0737005" lon="13.536775"><ele>163.0</ele><time>2026-05-03T11:56:40.076Z</time></trkpt><trkpt lat="46.0737924" lon="13.5368992"><ele>163.0</ele><time>2026-05-03T11:56:41.074Z</time></trkpt><trkpt lat="46.0738794" lon="13.5370277"><ele>163.0</ele><time>2026-05-03T11:56:42.087Z</time></trkpt><trkpt lat="46.073955" lon="13.5371672"><ele>163.0</ele><time>2026-05-03T11:56:43.078Z</time></trkpt><trkpt lat="46.0740275" lon="13.5373056"><ele>163.0</ele><time>2026-05-03T11:56:44.075Z</time></trkpt><trkpt lat="46.0740989" lon="13.537447"><ele>161.25</ele><time>2026-05-03T11:56:45.075Z</time></trkpt><trkpt lat="46.0741678" lon="13.537582"><ele>159.5</ele><time>2026-05-03T11:56:46.08Z</time></trkpt><trkpt lat="46.0742388" lon="13.5377159"><ele>157.75</ele><time>2026-05-03T11:56:47.07Z</time></trkpt><trkpt lat="46.0743177" lon="13.5378417"><ele>156.0</ele><time>2026-05-03T11:56:48.075Z</time></trkpt><trkpt lat="46.0744059" lon="13.537969"><ele>161.0</ele><time>2026-05-03T11:56:49.076Z</time></trkpt><trkpt lat="46.0745036" lon="13.538098"><ele>166.0</ele><time>2026-05-03T11:56:50.077Z</time></trkpt><trkpt lat="46.0746154" lon="13.538226"><ele>171.0</ele><time>2026-05-03T11:56:51.074Z</time></trkpt><trkpt lat="46.0747331" lon="13.5383548"><ele>176.0</ele><time>2026-05-03T11:56:52.074Z</time></trkpt><trkpt lat="46.0748563" lon="13.5384905"><ele>172.33333333333331</ele><time>2026-05-03T11:56:53.083Z</time></trkpt><trkpt lat="46.0749832" lon="13.5386272"><ele>168.66666666666666</ele><time>2026-05-03T11:56:54.086Z</time></trkpt><trkpt lat="46.0751033" lon="13.5387606"><ele>165.0</ele><time>2026-05-03T11:56:55.079Z</time></trkpt><trkpt lat="46.0752126" lon="13.538887"><ele>165.0</ele><time>2026-05-03T11:56:56.078Z</time></trkpt><trkpt lat="46.0753233" lon="13.5390032"><ele>165.0</ele><time>2026-05-03T11:56:57.077Z</time></trkpt><trkpt lat="46.0754364" lon="13.5391121"><ele>165.0</ele><time>2026-05-03T11:56:58.08Z</time></trkpt><trkpt lat="46.0755502" lon="13.5392169"><ele>165.0</ele><time>2026-05-03T11:56:59.083Z</time></trkpt><trkpt lat="46.0756659" lon="13.5393257"><ele>165.5</ele><time>2026-05-03T11:57:00.086Z</time></trkpt><trkpt lat="46.0757809" lon="13.5394399"><ele>166.0</ele><time>2026-05-03T11:57:01.086Z</time></trkpt><trkpt lat="46.0758943" lon="13.5395518"><ele>166.5</ele><time>2026-05-03T11:57:02.076Z</time></trkpt><trkpt lat="46.0760005" lon="13.5396539"><ele>167.0</ele><time>2026-05-03T11:57:03.067Z</time></trkpt><trkpt lat="46.076102" lon="13.5397536"><ele>167.0</ele><time>2026-05-03T11:57:04.096Z</time></trkpt><trkpt lat="46.0761954" lon="13.5398608"><ele>167.0</ele><time>2026-05-03T11:57:05.075Z</time></trkpt><trkpt lat="46.0762743" lon="13.5399716"><ele>167.0</ele><time>2026-05-03T11:57:06.078Z</time></trkpt><trkpt lat="46.0763373" lon="13.5400851"><ele>167.0</ele><time>2026-05-03T11:57:07.087Z</time></trkpt><trkpt lat="46.076383" lon="13.5402081"><ele>167.0</ele><time>2026-05-03T11:57:08.079Z</time></trkpt><trkpt lat="46.0764162" lon="13.5403402"><ele>172.8</ele><time>2026-05-03T11:57:09.074Z</time></trkpt><trkpt lat="46.0764383" lon="13.5404924"><ele>178.6</ele><time>2026-05-03T11:57:10.088Z</time></trkpt><trkpt lat="46.0764539" lon="13.5406461"><ele>184.4</ele><time>2026-05-03T11:57:11.072Z</time></trkpt><trkpt lat="46.076468" lon="13.5407941"><ele>190.20000000000002</ele><time>2026-05-03T11:57:12.08Z</time></trkpt><trkpt lat="46.0764792" lon="13.5409252"><ele>196.0</ele><time>2026-05-03T11:57:13.075Z</time></trkpt><trkpt lat="46.0764748" lon="13.5410455"><ele>196.0</ele><time>2026-05-03T11:57:14.076Z</time></trkpt><trkpt lat="46.0764692" lon="13.5411749"><ele>196.0</ele><time>2026-05-03T11:57:15.081Z</time></trkpt><trkpt lat="46.0764645" lon="13.5413141"><ele>196.0</ele><time>2026-05-03T11:57:16.081Z</time></trkpt><trkpt lat="46.0764697" lon="13.5414635"><ele>196.0</ele><time>2026-05-03T11:57:17.077Z</time></trkpt><trkpt lat="46.0764892" lon="13.5416152"><ele>196.0</ele><time>2026-05-03T11:57:18.087Z</time></trkpt><trkpt lat="46.0765205" lon="13.5417619"><ele>190.75</ele><time>2026-05-03T11:57:19.079Z</time></trkpt><trkpt lat="46.0765548" lon="13.5419169"><ele>185.5</ele><time>2026-05-03T11:57:20.098Z</time></trkpt><trkpt lat="46.0765933" lon="13.5420729"><ele>180.25</ele><time>2026-05-03T11:57:21.072Z</time></trkpt><trkpt lat="46.0766475" lon="13.5422324"><ele>175.0</ele><time>2026-05-03T11:57:22.077Z</time></trkpt><trkpt lat="46.0767251" lon="13.5423813"><ele>175.0</ele><time>2026-05-03T11:57:23.071Z</time></trkpt><trkpt lat="46.0768047" lon="13.5425228"><ele>175.0</ele><time>2026-05-03T11:57:24.082Z</time></trkpt><trkpt lat="46.0768844" lon="13.5426452"><ele>175.0</ele><time>2026-05-03T11:57:25.08Z</time></trkpt><trkpt lat="46.0769666" lon="13.5427622"><ele>175.0</ele><time>2026-05-03T11:57:26.083Z</time></trkpt><trkpt lat="46.0770518" lon="13.5428684"><ele>173.75</ele><time>2026-05-03T11:57:27.086Z</time></trkpt><trkpt lat="46.0771435" lon="13.5429621"><ele>172.5</ele><time>2026-05-03T11:57:28.076Z</time></trkpt><trkpt lat="46.0772421" lon="13.5430461"><ele>171.25</ele><time>2026-05-03T11:57:29.078Z</time></trkpt><trkpt lat="46.0773515" lon="13.5431184"><ele>170.0</ele><time>2026-05-03T11:57:30.078Z</time></trkpt><trkpt lat="46.0774624" lon="13.5431806"><ele>170.0</ele><time>2026-05-03T11:57:31.068Z</time></trkpt><trkpt lat="46.0775721" lon="13.5432445"><ele>170.0</ele><time>2026-05-03T11:57:32.072Z</time></trkpt><trkpt lat="46.0776848" lon="13.5433109"><ele>170.0</ele><time>2026-05-03T11:57:33.079Z</time></trkpt><trkpt lat="46.077795" lon="13.5433743"><ele>170.0</ele><time>2026-05-03T11:57:34.078Z</time></trkpt><trkpt lat="46.0779058" lon="13.5434363"><ele>170.0</ele><time>2026-05-03T11:57:35.067Z</time></trkpt><trkpt lat="46.0780174" lon="13.5434889"><ele>170.0</ele><time>2026-05-03T11:57:36.083Z</time></trkpt><trkpt lat="46.0781343" lon="13.5435257"><ele>170.0</ele><time>2026-05-03T11:57:37.076Z</time></trkpt><trkpt lat="46.0782651" lon="13.543543"><ele>170.0</ele><time>2026-05-03T11:57:38.075Z</time></trkpt><trkpt lat="46.0783932" lon="13.5435607"><ele>167.5</ele><time>2026-05-03T11:57:39.069Z</time></trkpt><trkpt lat="46.0785248" lon="13.5435718"><ele>165.0</ele><time>2026-05-03T11:57:40.071Z</time></trkpt><trkpt lat="46.0786568" lon="13.5435884"><ele>162.5</ele><time>2026-05-03T11:57:41.073Z</time></trkpt><trkpt lat="46.0787811" lon="13.543611"><ele>160.0</ele><time>2026-05-03T11:57:42.076Z</time></trkpt><trkpt lat="46.0789039" lon="13.5436501"><ele>160.0</ele><time>2026-05-03T11:57:43.09Z</time></trkpt><trkpt lat="46.0790311" lon="13.5436848"><ele>160.0</ele><time>2026-05-03T11:57:44.08Z</time></trkpt><trkpt lat="46.0791601" lon="13.5437193"><ele>160.0</ele><time>2026-05-03T11:57:45.074Z</time></trkpt><trkpt lat="46.0792824" lon="13.5437586"><ele>160.0</ele><time>2026-05-03T11:57:46.076Z</time></trkpt><trkpt lat="46.0794016" lon="13.5437948"><ele>165.25</ele><time>2026-05-03T11:57:47.078Z</time></trkpt><trkpt lat="46.0795191" lon="13.5438288"><ele>170.5</ele><time>2026-05-03T11:57:48.07Z</time></trkpt><trkpt lat="46.0796395" lon="13.5438582"><ele>175.75</ele><time>2026-05-03T11:57:49.072Z</time></trkpt><trkpt lat="46.07976" lon="13.5438981"><ele>181.0</ele><time>2026-05-03T11:57:50.08Z</time></trkpt><trkpt lat="46.0798724" lon="13.5439333"><ele>179.0</ele><time>2026-05-03T11:57:51.074Z</time></trkpt><trkpt lat="46.079989" lon="13.5439661"><ele>177.0</ele><time>2026-05-03T11:57:52.082Z</time></trkpt><trkpt lat="46.080111" lon="13.5440063"><ele>175.0</ele><time>2026-05-03T11:57:53.071Z</time></trkpt><trkpt lat="46.0802297" lon="13.5440424"><ele>173.0</ele><time>2026-05-03T11:57:54.084Z</time></trkpt><trkpt lat="46.0803426" lon="13.544076"><ele>173.0</ele><time>2026-05-03T11:57:55.078Z</time></trkpt><trkpt lat="46.0804425" lon="13.5441074"><ele>173.0</ele><time>2026-05-03T11:57:56.065Z</time></trkpt><trkpt lat="46.0805311" lon="13.5441367"><ele>173.0</ele><time>2026-05-03T11:57:57.055Z</time></trkpt><trkpt lat="46.0806104" lon="13.5441782"><ele>173.0</ele><time>2026-05-03T11:57:58.07Z</time></trkpt><trkpt lat="46.0806966" lon="13.5442121"><ele>173.0</ele><time>2026-05-03T11:57:59.068Z</time></trkpt><trkpt lat="46.0807911" lon="13.5442549"><ele>171.0</ele><time>2026-05-03T11:58:00.08Z</time></trkpt><trkpt lat="46.0808872" lon="13.5442927"><ele>169.0</ele><time>2026-05-03T11:58:01.074Z</time></trkpt><trkpt lat="46.0809895" lon="13.5443289"><ele>167.0</ele><time>2026-05-03T11:58:02.072Z</time></trkpt><trkpt lat="46.0810838" lon="13.5443494"><ele>165.0</ele><time>2026-05-03T11:58:03.069Z</time></trkpt><trkpt lat="46.0811739" lon="13.5443602"><ele>163.0</ele><time>2026-05-03T11:58:04.077Z</time></trkpt><trkpt lat="46.0812618" lon="13.5443753"><ele>163.0</ele><time>2026-05-03T11:58:05.072Z</time></trkpt><trkpt lat="46.0813449" lon="13.5443841"><ele>163.0</ele><time>2026-05-03T11:58:06.071Z</time></trkpt><trkpt lat="46.08143" lon="13.5443811"><ele>163.0</ele><time>2026-05-03T11:58:07.068Z</time></trkpt><trkpt lat="46.0815155" lon="13.5443701"><ele>163.0</ele><time>2026-05-03T11:58:08.08Z</time></trkpt><trkpt lat="46.0816049" lon="13.5443628"><ele>163.0</ele><time>2026-05-03T11:58:09.069Z</time></trkpt><trkpt lat="46.0816934" lon="13.5443621"><ele>163.0</ele><time>2026-05-03T11:58:10.065Z</time></trkpt><trkpt lat="46.0817826" lon="13.5443703"><ele>162.5</ele><time>2026-05-03T11:58:11.079Z</time></trkpt><trkpt lat="46.0818775" lon="13.544374"><ele>162.0</ele><time>2026-05-03T11:58:12.08Z</time></trkpt><trkpt lat="46.0819654" lon="13.5443794"><ele>161.5</ele><time>2026-05-03T11:58:13.083Z</time></trkpt><trkpt lat="46.0820411" lon="13.5444004"><ele>161.0</ele><time>2026-05-03T11:58:14.095Z</time></trkpt><trkpt lat="46.0821049" lon="13.544448"><ele>160.5</ele><time>2026-05-03T11:58:15.078Z</time></trkpt><trkpt lat="46.0821582" lon="13.5445162"><ele>160.0</ele><time>2026-05-03T11:58:16.073Z</time></trkpt><trkpt lat="46.0821872" lon="13.5446224"><ele>164.8</ele><time>2026-05-03T11:58:17.074Z</time></trkpt><trkpt lat="46.0821963" lon="13.54475"><ele>169.6</ele><time>2026-05-03T11:58:18.077Z</time></trkpt><trkpt lat="46.0821973" lon="13.5448941"><ele>174.39999999999998</ele><time>2026-05-03T11:58:19.082Z</time></trkpt><trkpt lat="46.082188" lon="13.545057"><ele>179.2</ele><time>2026-05-03T11:58:20.083Z</time></trkpt><trkpt lat="46.0821795" lon="13.5452172"><ele>184.0</ele><time>2026-05-03T11:58:21.089Z</time></trkpt><trkpt lat="46.082205" lon="13.5453626"><ele>186.25</ele><time>2026-05-03T11:58:22.089Z</time></trkpt><trkpt lat="46.0822546" lon="13.5455029"><ele>188.5</ele><time>2026-05-03T11:58:23.09Z</time></trkpt><trkpt lat="46.0823198" lon="13.5456325"><ele>190.75</ele><time>2026-05-03T11:58:24.074Z</time></trkpt><trkpt lat="46.0823974" lon="13.5457646"><ele>193.0</ele><time>2026-05-03T11:58:25.082Z</time></trkpt><trkpt lat="46.0824637" lon="13.5458952"><ele>187.25</ele><time>2026-05-03T11:58:26.086Z</time></trkpt><trkpt lat="46.082507" lon="13.5460273"><ele>181.5</ele><time>2026-05-03T11:58:27.081Z</time></trkpt><trkpt lat="46.0825339" lon="13.5461774"><ele>175.75</ele><time>2026-05-03T11:58:28.092Z</time></trkpt><trkpt lat="46.0825511" lon="13.5463445"><ele>170.0</ele><time>2026-05-03T11:58:29.09Z</time></trkpt><trkpt lat="46.0825672" lon="13.5465361"><ele>170.0</ele><time>2026-05-03T11:58:30.092Z</time></trkpt><trkpt lat="46.0825779" lon="13.5467402"><ele>170.0</ele><time>2026-05-03T11:58:31.081Z</time></trkpt><trkpt lat="46.0825854" lon="13.5469366"><ele>170.0</ele><time>2026-05-03T11:58:32.089Z</time></trkpt><trkpt lat="46.0825919" lon="13.547128"><ele>170.0</ele><time>2026-05-03T11:58:33.083Z</time></trkpt><trkpt lat="46.0825914" lon="13.5473203"><ele>169.5</ele><time>2026-05-03T11:58:34.085Z</time></trkpt><trkpt lat="46.08258" lon="13.5475051"><ele>169.0</ele><time>2026-05-03T11:58:35.093Z</time></trkpt><trkpt lat="46.08255" lon="13.5476965"><ele>168.5</ele><time>2026-05-03T11:58:36.095Z</time></trkpt><trkpt lat="46.0825069" lon="13.5478847"><ele>168.0</ele><time>2026-05-03T11:58:37.08Z</time></trkpt><trkpt lat="46.0824669" lon="13.5480643"><ele>179.25</ele><time>2026-05-03T11:58:38.082Z</time></trkpt><trkpt lat="46.0824174" lon="13.5482411"><ele>190.5</ele><time>2026-05-03T11:58:39.086Z</time></trkpt><trkpt lat="46.0823519" lon="13.5484171"><ele>201.75</ele><time>2026-05-03T11:58:40.072Z</time></trkpt><trkpt lat="46.0822844" lon="13.5485811"><ele>213.0</ele><time>2026-05-03T11:58:41.077Z</time></trkpt><trkpt lat="46.0822093" lon="13.5487442"><ele>213.0</ele><time>2026-05-03T11:58:42.08Z</time></trkpt><trkpt lat="46.0821273" lon="13.5489015"><ele>213.0</ele><time>2026-05-03T11:58:43.076Z</time></trkpt><trkpt lat="46.0820485" lon="13.5490591"><ele>213.0</ele><time>2026-05-03T11:58:44.067Z</time></trkpt><trkpt lat="46.0819686" lon="13.5492225"><ele>213.0</ele><time>2026-05-03T11:58:45.065Z</time></trkpt><trkpt lat="46.0818909" lon="13.5493917"><ele>212.60000000000002</ele><time>2026-05-03T11:58:46.09Z</time></trkpt><trkpt lat="46.0818214" lon="13.5495574"><ele>212.20000000000002</ele><time>2026-05-03T11:58:47.068Z</time></trkpt><trkpt lat="46.0817663" lon="13.5497091"><ele>211.8</ele><time>2026-05-03T11:58:48.075Z</time></trkpt><trkpt lat="46.0817379" lon="13.5498285"><ele>211.4</ele><time>2026-05-03T11:58:49.066Z</time></trkpt><trkpt lat="46.0817103" lon="13.5499494"><ele>211.0</ele><time>2026-05-03T11:58:50.08Z</time></trkpt><trkpt lat="46.0817006" lon="13.5500939"><ele>211.0</ele><time>2026-05-03T11:58:51.073Z</time></trkpt><trkpt lat="46.0816963" lon="13.5502411"><ele>211.0</ele><time>2026-05-03T11:58:52.069Z</time></trkpt><trkpt lat="46.0817063" lon="13.5503828"><ele>211.0</ele><time>2026-05-03T11:58:53.062Z</time></trkpt><trkpt lat="46.0817351" lon="13.5505152"><ele>211.0</ele><time>2026-05-03T11:58:54.069Z</time></trkpt><trkpt lat="46.0817949" lon="13.5506486"><ele>211.0</ele><time>2026-05-03T11:58:55.078Z</time></trkpt><trkpt lat="46.08187" lon="13.5507839"><ele>217.20000000000002</ele><time>2026-05-03T11:58:56.07Z</time></trkpt><trkpt lat="46.0819341" lon="13.5509097"><ele>223.4</ele><time>2026-05-03T11:58:57.056Z</time></trkpt><trkpt lat="46.0820098" lon="13.5509939"><ele>229.6</ele><time>2026-05-03T11:58:58.068Z</time></trkpt><trkpt lat="46.0820886" lon="13.5510595"><ele>235.8</ele><time>2026-05-03T11:58:59.062Z</time></trkpt><trkpt lat="46.0821767" lon="13.5511434"><ele>242.0</ele><time>2026-05-03T11:59:00.06Z</time></trkpt><trkpt lat="46.0822697" lon="13.5512322"><ele>247.75</ele><time>2026-05-03T11:59:01.07Z</time></trkpt><trkpt lat="46.0823686" lon="13.551326"><ele>253.5</ele><time>2026-05-03T11:59:02.063Z</time></trkpt><trkpt lat="46.0824716" lon="13.5514404"><ele>259.25</ele><time>2026-05-03T11:59:03.063Z</time></trkpt><trkpt lat="46.0825752" lon="13.5515602"><ele>265.0</ele><time>2026-05-03T11:59:04.057Z</time></trkpt><trkpt lat="46.0826788" lon="13.5516676"><ele>245.0</ele><time>2026-05-03T11:59:05.068Z</time></trkpt><trkpt lat="46.0827863" lon="13.5517687"><ele>225.0</ele><time>2026-05-03T11:59:06.064Z</time></trkpt><trkpt lat="46.0829026" lon="13.5518478"><ele>205.0</ele><time>2026-05-03T11:59:07.077Z</time></trkpt><trkpt lat="46.0830164" lon="13.5519273"><ele>185.0</ele><time>2026-05-03T11:59:08.078Z</time></trkpt><trkpt lat="46.0831255" lon="13.5520138"><ele>183.75</ele><time>2026-05-03T11:59:09.07Z</time></trkpt><trkpt lat="46.0832368" lon="13.5521102"><ele>182.5</ele><time>2026-05-03T11:59:10.066Z</time></trkpt><trkpt lat="46.0833493" lon="13.5522196"><ele>181.25</ele><time>2026-05-03T11:59:11.068Z</time></trkpt><trkpt lat="46.0834409" lon="13.5523324"><ele>180.0</ele><time>2026-05-03T11:59:12.083Z</time></trkpt><trkpt lat="46.0835189" lon="13.5524412"><ele>180.0</ele><time>2026-05-03T11:59:13.069Z</time></trkpt><trkpt lat="46.0835654" lon="13.5525586"><ele>180.0</ele><time>2026-05-03T11:59:14.07Z</time></trkpt><trkpt lat="46.0835927" lon="13.5526691"><ele>180.0</ele><time>2026-05-03T11:59:15.083Z</time></trkpt><trkpt lat="46.0836056" lon="13.5527783"><ele>180.0</ele><time>2026-05-03T11:59:16.079Z</time></trkpt><trkpt lat="46.0835988" lon="13.5528877"><ele>180.0</ele><time>2026-05-03T11:59:17.077Z</time></trkpt><trkpt lat="46.0835583" lon="13.5529914"><ele>180.0</ele><time>2026-05-03T11:59:18.073Z</time></trkpt><trkpt lat="46.0835054" lon="13.5531059"><ele>184.25</ele><time>2026-05-03T11:59:19.068Z</time></trkpt><trkpt lat="46.0834545" lon="13.5532293"><ele>188.5</ele><time>2026-05-03T11:59:20.067Z</time></trkpt><trkpt lat="46.0834333" lon="13.5533791"><ele>192.75</ele><time>2026-05-03T11:59:21.066Z</time></trkpt><trkpt lat="46.0834275" lon="13.5535504"><ele>197.0</ele><time>2026-05-03T11:59:22.064Z</time></trkpt><trkpt lat="46.0834181" lon="13.5537393"><ele>197.33333333333334</ele><time>2026-05-03T11:59:23.063Z</time></trkpt><trkpt lat="46.0834207" lon="13.5539503"><ele>197.66666666666669</ele><time>2026-05-03T11:59:24.061Z</time></trkpt><trkpt lat="46.0834344" lon="13.5541753"><ele>198.0</ele><time>2026-05-03T11:59:25.069Z</time></trkpt><trkpt lat="46.0834561" lon="13.5543993"><ele>198.0</ele><time>2026-05-03T11:59:26.072Z</time></trkpt><trkpt lat="46.0834701" lon="13.5546294"><ele>198.0</ele><time>2026-05-03T11:59:27.075Z</time></trkpt><trkpt lat="46.083479" lon="13.5548535"><ele>198.0</ele><time>2026-05-03T11:59:28.073Z</time></trkpt><trkpt lat="46.0834803" lon="13.5550598"><ele>198.0</ele><time>2026-05-03T11:59:29.073Z</time></trkpt><trkpt lat="46.0834856" lon="13.5552577"><ele>198.0</ele><time>2026-05-03T11:59:30.072Z</time></trkpt><trkpt lat="46.0835053" lon="13.5554402"><ele>198.0</ele><time>2026-05-03T11:59:31.068Z</time></trkpt><trkpt lat="46.0835381" lon="13.5556026"><ele>198.0</ele><time>2026-05-03T11:59:32.078Z</time></trkpt><trkpt lat="46.0835836" lon="13.5557508"><ele>198.75</ele><time>2026-05-03T11:59:33.066Z</time></trkpt><trkpt lat="46.083654" lon="13.555877"><ele>199.5</ele><time>2026-05-03T11:59:34.077Z</time></trkpt><trkpt lat="46.0837283" lon="13.5560042"><ele>200.25</ele><time>2026-05-03T11:59:35.068Z</time></trkpt><trkpt lat="46.0838108" lon="13.5561286"><ele>201.0</ele><time>2026-05-03T11:59:36.072Z</time></trkpt><trkpt lat="46.0838947" lon="13.5562597"><ele>201.75</ele><time>2026-05-03T11:59:37.069Z</time></trkpt><trkpt lat="46.0839758" lon="13.556412"><ele>202.5</ele><time>2026-05-03T11:59:38.071Z</time></trkpt><trkpt lat="46.0840542" lon="13.5565807"><ele>203.25</ele><time>2026-05-03T11:59:39.072Z</time></trkpt><trkpt lat="46.0841175" lon="13.5567552"><ele>204.0</ele><time>2026-05-03T11:59:40.077Z</time></trkpt><trkpt lat="46.0841646" lon="13.5569214"><ele>199.5</ele><time>2026-05-03T11:59:41.066Z</time></trkpt><trkpt lat="46.0841965" lon="13.5570847"><ele>195.0</ele><time>2026-05-03T11:59:42.069Z</time></trkpt><trkpt lat="46.0842316" lon="13.5572552"><ele>190.5</ele><time>2026-05-03T11:59:43.069Z</time></trkpt><trkpt lat="46.084269" lon="13.5574179"><ele>186.0</ele><time>2026-05-03T11:59:44.072Z</time></trkpt><trkpt lat="46.0843199" lon="13.5575551"><ele>186.0</ele><time>2026-05-03T11:59:45.068Z</time></trkpt><trkpt lat="46.0843878" lon="13.5576701"><ele>186.0</ele><time>2026-05-03T11:59:46.074Z</time></trkpt><trkpt lat="46.0844687" lon="13.5577752"><ele>186.0</ele><time>2026-05-03T11:59:47.071Z</time></trkpt><trkpt lat="46.0845629" lon="13.5578821"><ele>186.0</ele><time>2026-05-03T11:59:48.081Z</time></trkpt><trkpt lat="46.0846552" lon="13.5580095"><ele>184.0</ele><time>2026-05-03T11:59:49.077Z</time></trkpt><trkpt lat="46.084749" lon="13.5581522"><ele>182.0</ele><time>2026-05-03T11:59:50.07Z</time></trkpt><trkpt lat="46.0848352" lon="13.5583006"><ele>180.0</ele><time>2026-05-03T11:59:51.076Z</time></trkpt><trkpt lat="46.0849144" lon="13.5584406"><ele>178.0</ele><time>2026-05-03T11:59:52.076Z</time></trkpt><trkpt lat="46.0849778" lon="13.5585693"><ele>178.0</ele><time>2026-05-03T11:59:53.074Z</time></trkpt><trkpt lat="46.0850254" lon="13.5586945"><ele>178.0</ele><time>2026-05-03T11:59:54.07Z</time></trkpt><trkpt lat="46.085062" lon="13.5588189"><ele>178.0</ele><time>2026-05-03T11:59:55.072Z</time></trkpt><trkpt lat="46.0850913" lon="13.5589583"><ele>178.0</ele><time>2026-05-03T11:59:56.066Z</time></trkpt><trkpt lat="46.0851132" lon="13.5591157"><ele>178.0</ele><time>2026-05-03T11:59:57.072Z</time></trkpt><trkpt lat="46.0851345" lon="13.5592733"><ele>181.5</ele><time>2026-05-03T11:59:58.08Z</time></trkpt><trkpt lat="46.085154" lon="13.559431"><ele>185.0</ele><time>2026-05-03T11:59:59.075Z</time></trkpt><trkpt lat="46.0851631" lon="13.5596003"><ele>188.5</ele><time>2026-05-03T12:00:00.072Z</time></trkpt><trkpt lat="46.0851783" lon="13.5597673"><ele>192.0</ele><time>2026-05-03T12:00:01.072Z</time></trkpt><trkpt lat="46.0852132" lon="13.5599188"><ele>198.5</ele><time>2026-05-03T12:00:02.074Z</time></trkpt><trkpt lat="46.0852495" lon="13.5600735"><ele>205.0</ele><time>2026-05-03T12:00:03.077Z</time></trkpt><trkpt lat="46.0852989" lon="13.5602259"><ele>211.5</ele><time>2026-05-03T12:00:04.066Z</time></trkpt><trkpt lat="46.0853686" lon="13.5603759"><ele>218.0</ele><time>2026-05-03T12:00:05.067Z</time></trkpt><trkpt lat="46.0854499" lon="13.5605258"><ele>225.0</ele><time>2026-05-03T12:00:06.077Z</time></trkpt><trkpt lat="46.0855373" lon="13.5606825"><ele>232.0</ele><time>2026-05-03T12:00:07.082Z</time></trkpt><trkpt lat="46.0856194" lon="13.5608356"><ele>239.0</ele><time>2026-05-03T12:00:08.074Z</time></trkpt><trkpt lat="46.0856917" lon="13.5609925"><ele>246.0</ele><time>2026-05-03T12:00:09.072Z</time></trkpt><trkpt lat="46.0857531" lon="13.5611392"><ele>237.25</ele><time>2026-05-03T12:00:10.072Z</time></trkpt><trkpt lat="46.0858106" lon="13.5612972"><ele>228.5</ele><time>2026-05-03T12:00:11.073Z</time></trkpt><trkpt lat="46.085874" lon="13.5614688"><ele>219.75</ele><time>2026-05-03T12:00:12.07Z</time></trkpt><trkpt lat="46.0859312" lon="13.5616496"><ele>211.0</ele><time>2026-05-03T12:00:13.073Z</time></trkpt><trkpt lat="46.0859937" lon="13.5618258"><ele>211.0</ele><time>2026-05-03T12:00:14.073Z</time></trkpt><trkpt lat="46.0860685" lon="13.5619926"><ele>211.0</ele><time>2026-05-03T12:00:15.079Z</time></trkpt><trkpt lat="46.086157" lon="13.5621439"><ele>211.0</ele><time>2026-05-03T12:00:16.065Z</time></trkpt><trkpt lat="46.0862549" lon="13.5622901"><ele>211.0</ele><time>2026-05-03T12:00:17.074Z</time></trkpt><trkpt lat="46.0863513" lon="13.562444"><ele>210.25</ele><time>2026-05-03T12:00:18.071Z</time></trkpt><trkpt lat="46.0864459" lon="13.5625994"><ele>209.5</ele><time>2026-05-03T12:00:19.074Z</time></trkpt><trkpt lat="46.0865337" lon="13.562765"><ele>208.75</ele><time>2026-05-03T12:00:20.068Z</time></trkpt><trkpt lat="46.0866225" lon="13.5629342"><ele>208.0</ele><time>2026-05-03T12:00:21.074Z</time></trkpt><trkpt lat="46.0867009" lon="13.5631127"><ele>208.0</ele><time>2026-05-03T12:00:22.068Z</time></trkpt><trkpt lat="46.0867568" lon="13.5632988"><ele>208.0</ele><time>2026-05-03T12:00:23.072Z</time></trkpt><trkpt lat="46.0867942" lon="13.5634971"><ele>208.0</ele><time>2026-05-03T12:00:24.081Z</time></trkpt><trkpt lat="46.0868182" lon="13.5636818"><ele>208.0</ele><time>2026-05-03T12:00:25.076Z</time></trkpt><trkpt lat="46.0868418" lon="13.5638727"><ele>209.25</ele><time>2026-05-03T12:00:26.069Z</time></trkpt><trkpt lat="46.086875" lon="13.5640462"><ele>210.5</ele><time>2026-05-03T12:00:27.073Z</time></trkpt><trkpt lat="46.086924" lon="13.5642064"><ele>211.75</ele><time>2026-05-03T12:00:28.068Z</time></trkpt><trkpt lat="46.0869882" lon="13.5643371"><ele>213.0</ele><time>2026-05-03T12:00:29.075Z</time></trkpt><trkpt lat="46.0870582" lon="13.564448"><ele>214.8</ele><time>2026-05-03T12:00:30.069Z</time></trkpt><trkpt lat="46.0871103" lon="13.5645624"><ele>216.60000000000002</ele><time>2026-05-03T12:00:31.068Z</time></trkpt><trkpt lat="46.0871382" lon="13.5646745"><ele>218.39999999999998</ele><time>2026-05-03T12:00:32.07Z</time></trkpt><trkpt lat="46.0871437" lon="13.5647875"><ele>220.2</ele><time>2026-05-03T12:00:33.077Z</time></trkpt><trkpt lat="46.0871232" lon="13.5649267"><ele>222.0</ele><time>2026-05-03T12:00:34.073Z</time></trkpt><trkpt lat="46.0871042" lon="13.5650961"><ele>222.0</ele><time>2026-05-03T12:00:35.089Z</time></trkpt><trkpt lat="46.0870922" lon="13.5652827"><ele>222.0</ele><time>2026-05-03T12:00:36.079Z</time></trkpt><trkpt lat="46.0870896" lon="13.5654826"><ele>222.0</ele><time>2026-05-03T12:00:37.075Z</time></trkpt><trkpt lat="46.0870836" lon="13.5656968"><ele>222.0</ele><time>2026-05-03T12:00:38.086Z</time></trkpt><trkpt lat="46.0870742" lon="13.5659115"><ele>222.25</ele><time>2026-05-03T12:00:39.081Z</time></trkpt><trkpt lat="46.0870642" lon="13.566125"><ele>222.5</ele><time>2026-05-03T12:00:40.087Z</time></trkpt><trkpt lat="46.0870652" lon="13.5663363"><ele>222.75</ele><time>2026-05-03T12:00:41.083Z</time></trkpt><trkpt lat="46.0870704" lon="13.5665435"><ele>223.0</ele><time>2026-05-03T12:00:42.086Z</time></trkpt><trkpt lat="46.0870857" lon="13.5667414"><ele>223.0</ele><time>2026-05-03T12:00:43.085Z</time></trkpt><trkpt lat="46.087121" lon="13.5669255"><ele>223.0</ele><time>2026-05-03T12:00:44.086Z</time></trkpt><trkpt lat="46.087163" lon="13.5671023"><ele>223.0</ele><time>2026-05-03T12:00:45.085Z</time></trkpt><trkpt lat="46.0871973" lon="13.5672763"><ele>223.0</ele><time>2026-05-03T12:00:46.084Z</time></trkpt><trkpt lat="46.0872273" lon="13.5674363"><ele>222.75</ele><time>2026-05-03T12:00:47.078Z</time></trkpt><trkpt lat="46.0872601" lon="13.5675925"><ele>222.5</ele><time>2026-05-03T12:00:48.08Z</time></trkpt><trkpt lat="46.0873132" lon="13.5677298"><ele>222.25</ele><time>2026-05-03T12:00:49.09Z</time></trkpt><trkpt lat="46.0873827" lon="13.5678598"><ele>222.0</ele><time>2026-05-03T12:00:50.074Z</time></trkpt><trkpt lat="46.0874604" lon="13.5680007"><ele>220.5</ele><time>2026-05-03T12:00:51.091Z</time></trkpt><trkpt lat="46.0875589" lon="13.5681325"><ele>219.0</ele><time>2026-05-03T12:00:52.078Z</time></trkpt><trkpt lat="46.087672" lon="13.5682607"><ele>217.5</ele><time>2026-05-03T12:00:53.088Z</time></trkpt><trkpt lat="46.087788" lon="13.5683717"><ele>216.0</ele><time>2026-05-03T12:00:54.079Z</time></trkpt><trkpt lat="46.0878984" lon="13.5684675"><ele>216.0</ele><time>2026-05-03T12:00:55.084Z</time></trkpt><trkpt lat="46.0879949" lon="13.5685785"><ele>216.0</ele><time>2026-05-03T12:00:56.076Z</time></trkpt><trkpt lat="46.0880796" lon="13.5687062"><ele>216.0</ele><time>2026-05-03T12:00:57.082Z</time></trkpt><trkpt lat="46.0881472" lon="13.5688708"><ele>216.0</ele><time>2026-05-03T12:00:58.071Z</time></trkpt><trkpt lat="46.0882079" lon="13.5690543"><ele>214.5</ele><time>2026-05-03T12:00:59.069Z</time></trkpt><trkpt lat="46.0882634" lon="13.5692366"><ele>213.0</ele><time>2026-05-03T12:01:00.067Z</time></trkpt><trkpt lat="46.0883121" lon="13.5694135"><ele>211.5</ele><time>2026-05-03T12:01:01.078Z</time></trkpt><trkpt lat="46.0883328" lon="13.569586"><ele>210.0</ele><time>2026-05-03T12:01:02.081Z</time></trkpt><trkpt lat="46.0883425" lon="13.5697413"><ele>210.0</ele><time>2026-05-03T12:01:03.076Z</time></trkpt><trkpt lat="46.0883351" lon="13.5699201"><ele>210.0</ele><time>2026-05-03T12:01:04.075Z</time></trkpt><trkpt lat="46.0883062" lon="13.5701117"><ele>210.0</ele><time>2026-05-03T12:01:05.08Z</time></trkpt><trkpt lat="46.0882836" lon="13.5703044"><ele>210.0</ele><time>2026-05-03T12:01:06.085Z</time></trkpt><trkpt lat="46.08826" lon="13.5705047"><ele>220.75</ele><time>2026-05-03T12:01:07.083Z</time></trkpt><trkpt lat="46.0882398" lon="13.5707081"><ele>231.5</ele><time>2026-05-03T12:01:08.087Z</time></trkpt><trkpt lat="46.0882195" lon="13.5709103"><ele>242.25</ele><time>2026-05-03T12:01:09.086Z</time></trkpt><trkpt lat="46.0881864" lon="13.5711276"><ele>253.0</ele><time>2026-05-03T12:01:10.076Z</time></trkpt><trkpt lat="46.0881415" lon="13.5713533"><ele>253.0</ele><time>2026-05-03T12:01:11.074Z</time></trkpt><trkpt lat="46.0880974" lon="13.57157"><ele>253.0</ele><time>2026-05-03T12:01:12.075Z</time></trkpt><trkpt lat="46.0880504" lon="13.5717774"><ele>253.0</ele><time>2026-05-03T12:01:13.078Z</time></trkpt><trkpt lat="46.0880077" lon="13.5719735"><ele>249.75</ele><time>2026-05-03T12:01:14.076Z</time></trkpt><trkpt lat="46.0879589" lon="13.5721587"><ele>246.5</ele><time>2026-05-03T12:01:15.082Z</time></trkpt><trkpt lat="46.0879098" lon="13.5723375"><ele>243.25</ele><time>2026-05-03T12:01:16.077Z</time></trkpt><trkpt lat="46.0878713" lon="13.5725003"><ele>240.0</ele><time>2026-05-03T12:01:17.078Z</time></trkpt><trkpt lat="46.0878359" lon="13.5726507"><ele>240.0</ele><time>2026-05-03T12:01:18.084Z</time></trkpt><trkpt lat="46.087799" lon="13.5727974"><ele>240.0</ele><time>2026-05-03T12:01:19.07Z</time></trkpt><trkpt lat="46.0877662" lon="13.5729462"><ele>240.0</ele><time>2026-05-03T12:01:20.069Z</time></trkpt><trkpt lat="46.087736" lon="13.5730841"><ele>240.0</ele><time>2026-05-03T12:01:21.078Z</time></trkpt><trkpt lat="46.0877174" lon="13.5731948"><ele>240.0</ele><time>2026-05-03T12:01:22.074Z</time></trkpt><trkpt lat="46.0877193" lon="13.5733558"><ele>237.0</ele><time>2026-05-03T12:01:24.073Z</time></trkpt><trkpt lat="46.0877609" lon="13.5734577"><ele>234.0</ele><time>2026-05-03T12:01:26.073Z</time></trkpt><trkpt lat="46.0878973" lon="13.5734826"><ele>231.0</ele><time>2026-05-03T12:01:28.078Z</time></trkpt><trkpt lat="46.087997" lon="13.5734603"><ele>228.0</ele><time>2026-05-03T12:01:29.075Z</time></trkpt><trkpt lat="46.0880989" lon="13.5734513"><ele>225.0</ele><time>2026-05-03T12:01:30.076Z</time></trkpt><trkpt lat="46.0881753" lon="13.5734559"><ele>225.0</ele><time>2026-05-03T12:01:31.085Z</time></trkpt><trkpt lat="46.0882539" lon="13.573504"><ele>225.0</ele><time>2026-05-03T12:01:32.078Z</time></trkpt><trkpt lat="46.0883083" lon="13.5735946"><ele>225.0</ele><time>2026-05-03T12:01:33.072Z</time></trkpt><trkpt lat="46.0883395" lon="13.5737164"><ele>225.0</ele><time>2026-05-03T12:01:34.073Z</time></trkpt><trkpt lat="46.0883627" lon="13.5738327"><ele>225.0</ele><time>2026-05-03T12:01:35.076Z</time></trkpt><trkpt lat="46.088398" lon="13.5739357"><ele>225.0</ele><time>2026-05-03T12:01:36.069Z</time></trkpt><trkpt lat="46.0884458" lon="13.5739961"><ele>224.6</ele><time>2026-05-03T12:01:37.083Z</time></trkpt><trkpt lat="46.0885597" lon="13.5740267"><ele>224.2</ele><time>2026-05-03T12:01:39.072Z</time></trkpt><trkpt lat="46.0886223" lon="13.5739972"><ele>223.8</ele><time>2026-05-03T12:01:40.072Z</time></trkpt><trkpt lat="46.0886834" lon="13.5739262"><ele>223.4</ele><time>2026-05-03T12:01:41.074Z</time></trkpt><trkpt lat="46.0887467" lon="13.5738299"><ele>223.0</ele><time>2026-05-03T12:01:42.07Z</time></trkpt><trkpt lat="46.0888158" lon="13.573719"><ele>222.33333333333331</ele><time>2026-05-03T12:01:43.07Z</time></trkpt><trkpt lat="46.0888828" lon="13.5736376"><ele>221.66666666666666</ele><time>2026-05-03T12:01:44.071Z</time></trkpt><trkpt lat="46.0889521" lon="13.5736066"><ele>221.0</ele><time>2026-05-03T12:01:45.067Z</time></trkpt><trkpt lat="46.0890316" lon="13.5736314"><ele>220.33333333333331</ele><time>2026-05-03T12:01:46.065Z</time></trkpt><trkpt lat="46.0891106" lon="13.5736829"><ele>219.66666666666666</ele><time>2026-05-03T12:01:47.072Z</time></trkpt><trkpt lat="46.0891983" lon="13.5737749"><ele>219.0</ele><time>2026-05-03T12:01:48.072Z</time></trkpt><trkpt lat="46.0892854" lon="13.5738863"><ele>219.0</ele><time>2026-05-03T12:01:49.073Z</time></trkpt><trkpt lat="46.0893832" lon="13.5740003"><ele>218.99999999999997</ele><time>2026-05-03T12:01:50.077Z</time></trkpt><trkpt lat="46.0894768" lon="13.5741088"><ele>218.99999999999997</ele><time>2026-05-03T12:01:51.084Z</time></trkpt><trkpt lat="46.089543" lon="13.5742137"><ele>219.0</ele><time>2026-05-03T12:01:52.068Z</time></trkpt><trkpt lat="46.0895684" lon="13.574314"><ele>219.0</ele><time>2026-05-03T12:01:53.082Z</time></trkpt><trkpt lat="46.0895771" lon="13.5744204"><ele>220.16666666666666</ele><time>2026-05-03T12:01:54.065Z</time></trkpt><trkpt lat="46.089587" lon="13.5745434"><ele>221.33333333333331</ele><time>2026-05-03T12:01:55.073Z</time></trkpt><trkpt lat="46.0896066" lon="13.5746524"><ele>222.5</ele><time>2026-05-03T12:01:56.069Z</time></trkpt><trkpt lat="46.0896642" lon="13.5747553"><ele>223.66666666666666</ele><time>2026-05-03T12:01:58.075Z</time></trkpt><trkpt lat="46.089732" lon="13.5747483"><ele>224.83333333333331</ele><time>2026-05-03T12:01:59.071Z</time></trkpt><trkpt lat="46.089806" lon="13.5747338"><ele>226.0</ele><time>2026-05-03T12:02:00.079Z</time></trkpt><trkpt lat="46.0898793" lon="13.5747146"><ele>224.16666666666666</ele><time>2026-05-03T12:02:01.08Z</time></trkpt><trkpt lat="46.0899514" lon="13.5747171"><ele>222.33333333333331</ele><time>2026-05-03T12:02:02.074Z</time></trkpt><trkpt lat="46.0900223" lon="13.574756"><ele>220.5</ele><time>2026-05-03T12:02:03.084Z</time></trkpt><trkpt lat="46.0901093" lon="13.5748311"><ele>218.66666666666669</ele><time>2026-05-03T12:02:05.082Z</time></trkpt><trkpt lat="46.0901626" lon="13.5749287"><ele>216.83333333333334</ele><time>2026-05-03T12:02:07.074Z</time></trkpt><trkpt lat="46.0901992" lon="13.5750137"><ele>215.0</ele><time>2026-05-03T12:02:09.076Z</time></trkpt><trkpt lat="46.0902458" lon="13.5751578"><ele>215.0</ele><time>2026-05-03T12:02:11.087Z</time></trkpt><trkpt lat="46.0902861" lon="13.5752647"><ele>215.0</ele><time>2026-05-03T12:02:12.081Z</time></trkpt><trkpt lat="46.0903494" lon="13.575389"><ele>215.0</ele><time>2026-05-03T12:02:13.08Z</time></trkpt><trkpt lat="46.0904183" lon="13.5755343"><ele>215.0</ele><time>2026-05-03T12:02:14.072Z</time></trkpt><trkpt lat="46.0904861" lon="13.5757027"><ele>215.0</ele><time>2026-05-03T12:02:15.071Z</time></trkpt><trkpt lat="46.0905547" lon="13.5758708"><ele>214.5</ele><time>2026-05-03T12:02:16.07Z</time></trkpt><trkpt lat="46.0906201" lon="13.576052"><ele>214.0</ele><time>2026-05-03T12:02:17.072Z</time></trkpt><trkpt lat="46.0906767" lon="13.5762211"><ele>213.5</ele><time>2026-05-03T12:02:18.072Z</time></trkpt><trkpt lat="46.0907292" lon="13.5763667"><ele>213.0</ele><time>2026-05-03T12:02:19.069Z</time></trkpt><trkpt lat="46.0907866" lon="13.5764922"><ele>213.0</ele><time>2026-05-03T12:02:20.076Z</time></trkpt><trkpt lat="46.0908434" lon="13.5765928"><ele>213.0</ele><time>2026-05-03T12:02:21.079Z</time></trkpt><trkpt lat="46.0909177" lon="13.5766691"><ele>213.0</ele><time>2026-05-03T12:02:22.078Z</time></trkpt><trkpt lat="46.0909872" lon="13.5767107"><ele>213.0</ele><time>2026-05-03T12:02:23.08Z</time></trkpt><trkpt lat="46.091064" lon="13.5767243"><ele>213.0</ele><time>2026-05-03T12:02:24.076Z</time></trkpt><trkpt lat="46.0911769" lon="13.5766334"><ele>213.0</ele><time>2026-05-03T12:02:26.079Z</time></trkpt><trkpt lat="46.0912336" lon="13.5765329"><ele>213.0</ele><time>2026-05-03T12:02:27.079Z</time></trkpt><trkpt lat="46.0913022" lon="13.5764235"><ele>213.0</ele><time>2026-05-03T12:02:28.08Z</time></trkpt><trkpt lat="46.0913721" lon="13.5763306"><ele>213.0</ele><time>2026-05-03T12:02:29.076Z</time></trkpt><trkpt lat="46.091445" lon="13.5762712"><ele>213.0</ele><time>2026-05-03T12:02:30.075Z</time></trkpt><trkpt lat="46.091515" lon="13.5762304"><ele>213.0</ele><time>2026-05-03T12:02:31.089Z</time></trkpt><trkpt lat="46.0916229" lon="13.5762659"><ele>213.8</ele><time>2026-05-03T12:02:33.086Z</time></trkpt><trkpt lat="46.0916773" lon="13.5763447"><ele>214.60000000000002</ele><time>2026-05-03T12:02:34.084Z</time></trkpt><trkpt lat="46.0917382" lon="13.5764644"><ele>215.39999999999998</ele><time>2026-05-03T12:02:35.073Z</time></trkpt><trkpt lat="46.0917893" lon="13.5766154"><ele>216.2</ele><time>2026-05-03T12:02:36.073Z</time></trkpt><trkpt lat="46.0918244" lon="13.5767528"><ele>217.0</ele><time>2026-05-03T12:02:37.078Z</time></trkpt><trkpt lat="46.091872" lon="13.5768544"><ele>217.0</ele><time>2026-05-03T12:02:38.09Z</time></trkpt><trkpt lat="46.0919188" lon="13.5769472"><ele>217.0</ele><time>2026-05-03T12:02:39.077Z</time></trkpt><trkpt lat="46.0919891" lon="13.5770333"><ele>217.0</ele><time>2026-05-03T12:02:40.075Z</time></trkpt><trkpt lat="46.0920676" lon="13.5771049"><ele>217.0</ele><time>2026-05-03T12:02:41.082Z</time></trkpt><trkpt lat="46.0921595" lon="13.5771745"><ele>217.0</ele><time>2026-05-03T12:02:42.082Z</time></trkpt><trkpt lat="46.0922526" lon="13.5772591"><ele>221.0</ele><time>2026-05-03T12:02:43.08Z</time></trkpt><trkpt lat="46.0923477" lon="13.5773413"><ele>225.0</ele><time>2026-05-03T12:02:44.069Z</time></trkpt><trkpt lat="46.0924437" lon="13.5774378"><ele>229.0</ele><time>2026-05-03T12:02:45.08Z</time></trkpt><trkpt lat="46.092537" lon="13.577545"><ele>233.0</ele><time>2026-05-03T12:02:46.083Z</time></trkpt><trkpt lat="46.0926298" lon="13.5776474"><ele>233.0</ele><time>2026-05-03T12:02:47.076Z</time></trkpt><trkpt lat="46.0927232" lon="13.5777307"><ele>233.0</ele><time>2026-05-03T12:02:48.089Z</time></trkpt><trkpt lat="46.0928188" lon="13.5777911"><ele>233.0</ele><time>2026-05-03T12:02:49.091Z</time></trkpt><trkpt lat="46.0929227" lon="13.5778404"><ele>233.0</ele><time>2026-05-03T12:02:50.074Z</time></trkpt><trkpt lat="46.0930347" lon="13.5778841"><ele>233.0</ele><time>2026-05-03T12:02:51.074Z</time></trkpt><trkpt lat="46.0931431" lon="13.5779335"><ele>235.8</ele><time>2026-05-03T12:02:52.072Z</time></trkpt><trkpt lat="46.0932484" lon="13.5779779"><ele>238.60000000000002</ele><time>2026-05-03T12:02:53.073Z</time></trkpt><trkpt lat="46.0933453" lon="13.578032"><ele>241.39999999999998</ele><time>2026-05-03T12:02:54.078Z</time></trkpt><trkpt lat="46.0934435" lon="13.578092"><ele>244.2</ele><time>2026-05-03T12:02:55.072Z</time></trkpt><trkpt lat="46.0935456" lon="13.5781515"><ele>247.0</ele><time>2026-05-03T12:02:56.072Z</time></trkpt><trkpt lat="46.0936491" lon="13.5781911"><ele>247.0</ele><time>2026-05-03T12:02:57.076Z</time></trkpt><trkpt lat="46.0937514" lon="13.5782249"><ele>247.0</ele><time>2026-05-03T12:02:58.068Z</time></trkpt><trkpt lat="46.0938581" lon="13.5782737"><ele>247.0</ele><time>2026-05-03T12:02:59.08Z</time></trkpt><trkpt lat="46.09396" lon="13.5783134"><ele>247.0</ele><time>2026-05-03T12:03:00.074Z</time></trkpt><trkpt lat="46.0940626" lon="13.5783471"><ele>247.0</ele><time>2026-05-03T12:03:01.077Z</time></trkpt><trkpt lat="46.0941604" lon="13.5783479"><ele>245.0</ele><time>2026-05-03T12:03:02.083Z</time></trkpt><trkpt lat="46.0942481" lon="13.5783269"><ele>243.0</ele><time>2026-05-03T12:03:03.078Z</time></trkpt><trkpt lat="46.0943485" lon="13.5782864"><ele>241.0</ele><time>2026-05-03T12:03:04.069Z</time></trkpt><trkpt lat="46.0944448" lon="13.5782443"><ele>239.0</ele><time>2026-05-03T12:03:05.078Z</time></trkpt><trkpt lat="46.0945201" lon="13.5782158"><ele>237.0</ele><time>2026-05-03T12:03:06.073Z</time></trkpt><trkpt lat="46.094638" lon="13.5782394"><ele>237.0</ele><time>2026-05-03T12:03:08.078Z</time></trkpt><trkpt lat="46.0946915" lon="13.5782902"><ele>237.0</ele><time>2026-05-03T12:03:09.074Z</time></trkpt><trkpt lat="46.0947491" lon="13.5783569"><ele>237.0</ele><time>2026-05-03T12:03:10.067Z</time></trkpt><trkpt lat="46.0948117" lon="13.5784342"><ele>237.0</ele><time>2026-05-03T12:03:11.079Z</time></trkpt><trkpt lat="46.0948963" lon="13.578508"><ele>237.0</ele><time>2026-05-03T12:03:12.073Z</time></trkpt><trkpt lat="46.0949868" lon="13.5785889"><ele>237.0</ele><time>2026-05-03T12:03:13.072Z</time></trkpt><trkpt lat="46.0950854" lon="13.5786655"><ele>239.83333333333334</ele><time>2026-05-03T12:03:14.071Z</time></trkpt><trkpt lat="46.0951801" lon="13.578753"><ele>242.66666666666669</ele><time>2026-05-03T12:03:15.081Z</time></trkpt><trkpt lat="46.0952542" lon="13.5788421"><ele>245.5</ele><time>2026-05-03T12:03:16.072Z</time></trkpt><trkpt lat="46.0952899" lon="13.5789348"><ele>248.33333333333334</ele><time>2026-05-03T12:03:17.09Z</time></trkpt><trkpt lat="46.0952952" lon="13.5790331"><ele>251.16666666666669</ele><time>2026-05-03T12:03:18.078Z</time></trkpt><trkpt lat="46.0952855" lon="13.5791295"><ele>254.0</ele><time>2026-05-03T12:03:19.083Z</time></trkpt><trkpt lat="46.0952594" lon="13.579235"><ele>254.0</ele><time>2026-05-03T12:03:20.086Z</time></trkpt><trkpt lat="46.0952182" lon="13.5793515"><ele>254.0</ele><time>2026-05-03T12:03:21.081Z</time></trkpt><trkpt lat="46.0951585" lon="13.5794905"><ele>254.0</ele><time>2026-05-03T12:03:22.09Z</time></trkpt><trkpt lat="46.0950824" lon="13.5796352"><ele>254.0</ele><time>2026-05-03T12:03:23.097Z</time></trkpt><trkpt lat="46.0950144" lon="13.5797786"><ele>252.5</ele><time>2026-05-03T12:03:24.083Z</time></trkpt><trkpt lat="46.0949402" lon="13.5799268"><ele>251.0</ele><time>2026-05-03T12:03:25.093Z</time></trkpt><trkpt lat="46.0948599" lon="13.5800737"><ele>249.5</ele><time>2026-05-03T12:03:26.085Z</time></trkpt><trkpt lat="46.0947781" lon="13.5802037"><ele>248.0</ele><time>2026-05-03T12:03:27.081Z</time></trkpt><trkpt lat="46.0947053" lon="13.5803018"><ele>251.66666666666669</ele><time>2026-05-03T12:03:28.078Z</time></trkpt><trkpt lat="46.0946499" lon="13.5803843"><ele>255.33333333333334</ele><time>2026-05-03T12:03:29.088Z</time></trkpt><trkpt lat="46.0946052" lon="13.5804671"><ele>259.0</ele><time>2026-05-03T12:03:30.087Z</time></trkpt><trkpt lat="46.0945759" lon="13.5805498"><ele>262.6666666666667</ele><time>2026-05-03T12:03:31.082Z</time></trkpt><trkpt lat="46.0945443" lon="13.5806361"><ele>266.3333333333333</ele><time>2026-05-03T12:03:32.105Z</time></trkpt><trkpt lat="46.0945727" lon="13.5807903"><ele>270.0</ele><time>2026-05-03T12:03:34.086Z</time></trkpt><trkpt lat="46.0946242" lon="13.5808437"><ele>270.0</ele><time>2026-05-03T12:03:35.075Z</time></trkpt><trkpt lat="46.0946946" lon="13.580852"><ele>270.0</ele><time>2026-05-03T12:03:36.069Z</time></trkpt><trkpt lat="46.0947602" lon="13.580805"><ele>270.0</ele><time>2026-05-03T12:03:37.073Z</time></trkpt><trkpt lat="46.0948405" lon="13.5807378"><ele>270.0</ele><time>2026-05-03T12:03:38.066Z</time></trkpt><trkpt lat="46.094945" lon="13.580667"><ele>270.0</ele><time>2026-05-03T12:03:39.075Z</time></trkpt><trkpt lat="46.0950513" lon="13.5805951"><ele>266.6666666666667</ele><time>2026-05-03T12:03:40.076Z</time></trkpt><trkpt lat="46.0951432" lon="13.5805422"><ele>263.3333333333333</ele><time>2026-05-03T12:03:41.077Z</time></trkpt><trkpt lat="46.0952168" lon="13.580505"><ele>260.0</ele><time>2026-05-03T12:03:42.078Z</time></trkpt><trkpt lat="46.0952869" lon="13.5805148"><ele>256.66666666666663</ele><time>2026-05-03T12:03:43.071Z</time></trkpt><trkpt lat="46.095357" lon="13.5805366"><ele>253.33333333333331</ele><time>2026-05-03T12:03:44.07Z</time></trkpt><trkpt lat="46.095451" lon="13.5806039"><ele>250.0</ele><time>2026-05-03T12:03:45.077Z</time></trkpt><trkpt lat="46.0955559" lon="13.5806811"><ele>249.99999999999997</ele><time>2026-05-03T12:03:46.063Z</time></trkpt><trkpt lat="46.0956583" lon="13.5807316"><ele>250.0</ele><time>2026-05-03T12:03:47.071Z</time></trkpt><trkpt lat="46.0957482" lon="13.5807763"><ele>250.0</ele><time>2026-05-03T12:03:48.092Z</time></trkpt><trkpt lat="46.0958228" lon="13.5808229"><ele>250.0</ele><time>2026-05-03T12:03:49.08Z</time></trkpt><trkpt lat="46.0958776" lon="13.5808866"><ele>249.99999999999997</ele><time>2026-05-03T12:03:50.079Z</time></trkpt><trkpt lat="46.0959074" lon="13.5809671"><ele>250.0</ele><time>2026-05-03T12:03:51.095Z</time></trkpt><trkpt lat="46.095915" lon="13.5810578"><ele>249.14285714285714</ele><time>2026-05-03T12:03:52.071Z</time></trkpt><trkpt lat="46.0959257" lon="13.5811561"><ele>248.28571428571428</ele><time>2026-05-03T12:03:53.074Z</time></trkpt><trkpt lat="46.095953" lon="13.581245"><ele>247.42857142857142</ele><time>2026-05-03T12:03:54.08Z</time></trkpt><trkpt lat="46.0959956" lon="13.5813284"><ele>246.57142857142856</ele><time>2026-05-03T12:03:55.092Z</time></trkpt><trkpt lat="46.0960524" lon="13.5813867"><ele>245.71428571428572</ele><time>2026-05-03T12:03:56.087Z</time></trkpt><trkpt lat="46.0961247" lon="13.5814112"><ele>244.85714285714283</ele><time>2026-05-03T12:03:57.087Z</time></trkpt><trkpt lat="46.0962029" lon="13.5813843"><ele>243.99999999999997</ele><time>2026-05-03T12:03:58.076Z</time></trkpt><trkpt lat="46.0962797" lon="13.5813263"><ele>243.99999999999997</ele><time>2026-05-03T12:03:59.085Z</time></trkpt><trkpt lat="46.0963472" lon="13.5812483"><ele>244.0</ele><time>2026-05-03T12:04:00.078Z</time></trkpt><trkpt lat="46.0964154" lon="13.5811603"><ele>244.0</ele><time>2026-05-03T12:04:01.085Z</time></trkpt><trkpt lat="46.0964799" lon="13.5810768"><ele>244.0</ele><time>2026-05-03T12:04:02.084Z</time></trkpt><trkpt lat="46.0965435" lon="13.5810032"><ele>243.99999999999997</ele><time>2026-05-03T12:04:03.084Z</time></trkpt><trkpt lat="46.0966062" lon="13.5809452"><ele>244.0</ele><time>2026-05-03T12:04:04.082Z</time></trkpt><trkpt lat="46.0966629" lon="13.5809008"><ele>244.2</ele><time>2026-05-03T12:04:05.085Z</time></trkpt><trkpt lat="46.0967857" lon="13.5808661"><ele>244.39999999999998</ele><time>2026-05-03T12:04:07.092Z</time></trkpt><trkpt lat="46.0968736" lon="13.5808924"><ele>244.6</ele><time>2026-05-03T12:04:08.086Z</time></trkpt><trkpt lat="46.0969675" lon="13.5809497"><ele>244.8</ele><time>2026-05-03T12:04:09.085Z</time></trkpt><trkpt lat="46.0970654" lon="13.5810015"><ele>245.0</ele><time>2026-05-03T12:04:10.093Z</time></trkpt><trkpt lat="46.0971745" lon="13.5810597"><ele>245.0</ele><time>2026-05-03T12:04:11.081Z</time></trkpt><trkpt lat="46.097282" lon="13.5811185"><ele>245.0</ele><time>2026-05-03T12:04:12.084Z</time></trkpt><trkpt lat="46.0973744" lon="13.5811763"><ele>245.0</ele><time>2026-05-03T12:04:13.083Z</time></trkpt><trkpt lat="46.0974473" lon="13.5812295"><ele>245.0</ele><time>2026-05-03T12:04:14.084Z</time></trkpt><trkpt lat="46.0975083" lon="13.5813826"><ele>245.0</ele><time>2026-05-03T12:04:16.077Z</time></trkpt><trkpt lat="46.0975132" lon="13.5814823"><ele>248.25</ele><time>2026-05-03T12:04:17.079Z</time></trkpt><trkpt lat="46.0975105" lon="13.5816247"><ele>251.5</ele><time>2026-05-03T12:04:18.077Z</time></trkpt><trkpt lat="46.0975055" lon="13.5818072"><ele>254.75</ele><time>2026-05-03T12:04:19.082Z</time></trkpt><trkpt lat="46.0975095" lon="13.5819828"><ele>258.0</ele><time>2026-05-03T12:04:20.082Z</time></trkpt><trkpt lat="46.0975174" lon="13.582134"><ele>258.8</ele><time>2026-05-03T12:04:21.095Z</time></trkpt><trkpt lat="46.0975273" lon="13.5822763"><ele>259.6</ele><time>2026-05-03T12:04:22.08Z</time></trkpt><trkpt lat="46.0975435" lon="13.5824106"><ele>260.4</ele><time>2026-05-03T12:04:23.082Z</time></trkpt><trkpt lat="46.0975627" lon="13.582533"><ele>261.2</ele><time>2026-05-03T12:04:24.078Z</time></trkpt><trkpt lat="46.0975645" lon="13.5826491"><ele>262.0</ele><time>2026-05-03T12:04:25.087Z</time></trkpt><trkpt lat="46.097543" lon="13.5827764"><ele>262.0</ele><time>2026-05-03T12:04:26.08Z</time></trkpt><trkpt lat="46.0975203" lon="13.5829157"><ele>262.0</ele><time>2026-05-03T12:04:27.086Z</time></trkpt><trkpt lat="46.0974839" lon="13.583055"><ele>262.0</ele><time>2026-05-03T12:04:28.084Z</time></trkpt><trkpt lat="46.0974592" lon="13.5832098"><ele>262.0</ele><time>2026-05-03T12:04:29.104Z</time></trkpt><trkpt lat="46.0974377" lon="13.5833809"><ele>262.0</ele><time>2026-05-03T12:04:30.083Z</time></trkpt><trkpt lat="46.0974315" lon="13.5835642"><ele>262.2</ele><time>2026-05-03T12:04:31.082Z</time></trkpt><trkpt lat="46.0974296" lon="13.5837378"><ele>262.4</ele><time>2026-05-03T12:04:32.085Z</time></trkpt><trkpt lat="46.0974296" lon="13.5838942"><ele>262.6</ele><time>2026-05-03T12:04:33.083Z</time></trkpt><trkpt lat="46.0974267" lon="13.5840238"><ele>262.8</ele><time>2026-05-03T12:04:34.083Z</time></trkpt><trkpt lat="46.0974173" lon="13.5841341"><ele>263.0</ele><time>2026-05-03T12:04:35.087Z</time></trkpt><trkpt lat="46.0974076" lon="13.5842301"><ele>263.0</ele><time>2026-05-03T12:04:36.1Z</time></trkpt><trkpt lat="46.0974211" lon="13.5843845"><ele>263.0</ele><time>2026-05-03T12:04:38.079Z</time></trkpt><trkpt lat="46.0974966" lon="13.5844607"><ele>263.0</ele><time>2026-05-03T12:04:40.078Z</time></trkpt><trkpt lat="46.0975792" lon="13.5844176"><ele>263.0</ele><time>2026-05-03T12:04:42.076Z</time></trkpt><trkpt lat="46.0976543" lon="13.5842739"><ele>263.0</ele><time>2026-05-03T12:04:44.077Z</time></trkpt><trkpt lat="46.0977185" lon="13.5841476"><ele>263.0</ele><time>2026-05-03T12:04:45.067Z</time></trkpt><trkpt lat="46.0978089" lon="13.5839935"><ele>263.0</ele><time>2026-05-03T12:04:46.083Z</time></trkpt><trkpt lat="46.0978951" lon="13.5838461"><ele>263.0</ele><time>2026-05-03T12:04:47.076Z</time></trkpt><trkpt lat="46.0979701" lon="13.583712"><ele>263.0</ele><time>2026-05-03T12:04:48.081Z</time></trkpt><trkpt lat="46.0980325" lon="13.5835932"><ele>262.8</ele><time>2026-05-03T12:04:49.092Z</time></trkpt><trkpt lat="46.0980861" lon="13.5834884"><ele>262.6</ele><time>2026-05-03T12:04:50.084Z</time></trkpt><trkpt lat="46.0981296" lon="13.5834173"><ele>262.4</ele><time>2026-05-03T12:04:51.083Z</time></trkpt><trkpt lat="46.0982304" lon="13.5833856"><ele>262.2</ele><time>2026-05-03T12:04:53.081Z</time></trkpt><trkpt lat="46.0983746" lon="13.5834659"><ele>262.0</ele><time>2026-05-03T12:04:55.066Z</time></trkpt><trkpt lat="46.0984834" lon="13.5835404"><ele>262.2</ele><time>2026-05-03T12:04:56.066Z</time></trkpt><trkpt lat="46.0985936" lon="13.5836221"><ele>262.4</ele><time>2026-05-03T12:04:57.084Z</time></trkpt><trkpt lat="46.0986986" lon="13.5836975"><ele>262.6</ele><time>2026-05-03T12:04:58.085Z</time></trkpt><trkpt lat="46.0987875" lon="13.5837661"><ele>262.8</ele><time>2026-05-03T12:04:59.083Z</time></trkpt><trkpt lat="46.098872" lon="13.5838587"><ele>263.0</ele><time>2026-05-03T12:05:00.088Z</time></trkpt><trkpt lat="46.0989421" lon="13.5839666"><ele>263.0</ele><time>2026-05-03T12:05:01.085Z</time></trkpt><trkpt lat="46.0990052" lon="13.5841121"><ele>263.0</ele><time>2026-05-03T12:05:02.086Z</time></trkpt><trkpt lat="46.0990481" lon="13.584248"><ele>263.0</ele><time>2026-05-03T12:05:03.085Z</time></trkpt><trkpt lat="46.0990841" lon="13.5843645"><ele>263.0</ele><time>2026-05-03T12:05:04.081Z</time></trkpt><trkpt lat="46.0991086" lon="13.5844785"><ele>263.0</ele><time>2026-05-03T12:05:05.081Z</time></trkpt><trkpt lat="46.0991185" lon="13.5845833"><ele>263.1666666666667</ele><time>2026-05-03T12:05:06.085Z</time></trkpt><trkpt lat="46.0991012" lon="13.5846847"><ele>263.33333333333337</ele><time>2026-05-03T12:05:07.081Z</time></trkpt><trkpt lat="46.0990645" lon="13.5847879"><ele>263.5</ele><time>2026-05-03T12:05:08.087Z</time></trkpt><trkpt lat="46.0990095" lon="13.5848828"><ele>263.6666666666667</ele><time>2026-05-03T12:05:09.08Z</time></trkpt><trkpt lat="46.098946" lon="13.584975"><ele>263.8333333333333</ele><time>2026-05-03T12:05:10.093Z</time></trkpt><trkpt lat="46.0988772" lon="13.5850524"><ele>264.0</ele><time>2026-05-03T12:05:11.082Z</time></trkpt><trkpt lat="46.0988122" lon="13.585111"><ele>264.0</ele><time>2026-05-03T12:05:12.092Z</time></trkpt><trkpt lat="46.0987431" lon="13.5851697"><ele>264.0</ele><time>2026-05-03T12:05:13.083Z</time></trkpt><trkpt lat="46.0986815" lon="13.5852506"><ele>264.0</ele><time>2026-05-03T12:05:14.083Z</time></trkpt><trkpt lat="46.0986391" lon="13.5853545"><ele>264.0</ele><time>2026-05-03T12:05:15.083Z</time></trkpt><trkpt lat="46.0986217" lon="13.585463"><ele>264.0</ele><time>2026-05-03T12:05:16.074Z</time></trkpt><trkpt lat="46.0986384" lon="13.5855712"><ele>264.0</ele><time>2026-05-03T12:05:17.083Z</time></trkpt><trkpt lat="46.0986796" lon="13.5856858"><ele>263.8</ele><time>2026-05-03T12:05:18.085Z</time></trkpt><trkpt lat="46.0987246" lon="13.5858035"><ele>263.59999999999997</ele><time>2026-05-03T12:05:19.075Z</time></trkpt><trkpt lat="46.0987617" lon="13.5859229"><ele>263.4</ele><time>2026-05-03T12:05:20.079Z</time></trkpt><trkpt lat="46.0987715" lon="13.5860507"><ele>263.2</ele><time>2026-05-03T12:05:21.088Z</time></trkpt><trkpt lat="46.0987344" lon="13.5861967"><ele>263.0</ele><time>2026-05-03T12:05:22.105Z</time></trkpt><trkpt lat="46.0986914" lon="13.5863445"><ele>263.6</ele><time>2026-05-03T12:05:23.091Z</time></trkpt><trkpt lat="46.0986583" lon="13.5864813"><ele>264.20000000000005</ele><time>2026-05-03T12:05:24.09Z</time></trkpt><trkpt lat="46.0986645" lon="13.586587"><ele>264.8</ele><time>2026-05-03T12:05:25.085Z</time></trkpt><trkpt lat="46.0987131" lon="13.586692"><ele>265.40000000000003</ele><time>2026-05-03T12:05:26.103Z</time></trkpt><trkpt lat="46.0987913" lon="13.586786"><ele>266.0</ele><time>2026-05-03T12:05:27.085Z</time></trkpt><trkpt lat="46.0988749" lon="13.5868754"><ele>266.0</ele><time>2026-05-03T12:05:28.073Z</time></trkpt><trkpt lat="46.0989412" lon="13.5869543"><ele>266.0</ele><time>2026-05-03T12:05:29.087Z</time></trkpt><trkpt lat="46.0990052" lon="13.5870034"><ele>266.0</ele><time>2026-05-03T12:05:30.084Z</time></trkpt><trkpt lat="46.0991196" lon="13.5869628"><ele>266.0</ele><time>2026-05-03T12:05:32.076Z</time></trkpt><trkpt lat="46.0991377" lon="13.586858"><ele>266.0</ele><time>2026-05-03T12:05:33.083Z</time></trkpt><trkpt lat="46.0991115" lon="13.5867501"><ele>266.0</ele><time>2026-05-03T12:05:34.088Z</time></trkpt><trkpt lat="46.0990591" lon="13.5866314"><ele>266.0</ele><time>2026-05-03T12:05:35.078Z</time></trkpt><trkpt lat="46.0989948" lon="13.5865046"><ele>266.0</ele><time>2026-05-03T12:05:36.075Z</time></trkpt><trkpt lat="46.0989579" lon="13.5863322"><ele>266.0</ele><time>2026-05-03T12:05:37.081Z</time></trkpt><trkpt lat="46.0989465" lon="13.5861477"><ele>266.0</ele><time>2026-05-03T12:05:38.077Z</time></trkpt><trkpt lat="46.0989499" lon="13.5859556"><ele>265.5</ele><time>2026-05-03T12:05:39.081Z</time></trkpt><trkpt lat="46.0989636" lon="13.5857735"><ele>265.0</ele><time>2026-05-03T12:05:40.08Z</time></trkpt><trkpt lat="46.0989776" lon="13.5856032"><ele>264.5</ele><time>2026-05-03T12:05:41.085Z</time></trkpt><trkpt lat="46.0989953" lon="13.5854534"><ele>264.0</ele><time>2026-05-03T12:05:42.08Z</time></trkpt><trkpt lat="46.0990195" lon="13.5852956"><ele>264.0</ele><time>2026-05-03T12:05:43.08Z</time></trkpt><trkpt lat="46.099073" lon="13.5851505"><ele>264.0</ele><time>2026-05-03T12:05:44.08Z</time></trkpt><trkpt lat="46.0991573" lon="13.5850484"><ele>264.0</ele><time>2026-05-03T12:05:45.068Z</time></trkpt><trkpt lat="46.0992494" lon="13.5849734"><ele>264.0</ele><time>2026-05-03T12:05:46.068Z</time></trkpt><trkpt lat="46.0993426" lon="13.5849226"><ele>264.0</ele><time>2026-05-03T12:05:47.074Z</time></trkpt><trkpt lat="46.099452" lon="13.5848932"><ele>261.8</ele><time>2026-05-03T12:05:48.062Z</time></trkpt><trkpt lat="46.0995634" lon="13.5848635"><ele>259.59999999999997</ele><time>2026-05-03T12:05:49.069Z</time></trkpt><trkpt lat="46.099672" lon="13.5848293"><ele>257.4</ele><time>2026-05-03T12:05:50.07Z</time></trkpt><trkpt lat="46.0997831" lon="13.5848535"><ele>255.2</ele><time>2026-05-03T12:05:51.088Z</time></trkpt><trkpt lat="46.0998854" lon="13.5849105"><ele>253.0</ele><time>2026-05-03T12:05:52.078Z</time></trkpt><trkpt lat="46.0999644" lon="13.5849929"><ele>249.2</ele><time>2026-05-03T12:05:53.064Z</time></trkpt><trkpt lat="46.1000377" lon="13.5850478"><ele>245.4</ele><time>2026-05-03T12:05:54.075Z</time></trkpt><trkpt lat="46.1001355" lon="13.585008"><ele>241.59999999999997</ele><time>2026-05-03T12:05:56.066Z</time></trkpt><trkpt lat="46.1001056" lon="13.5848324"><ele>237.79999999999998</ele><time>2026-05-03T12:05:58.074Z</time></trkpt><trkpt lat="46.1000315" lon="13.58472"><ele>234.0</ele><time>2026-05-03T12:05:59.078Z</time></trkpt><trkpt lat="46.0999307" lon="13.5845834"><ele>240.0</ele><time>2026-05-03T12:06:00.077Z</time></trkpt><trkpt lat="46.0998177" lon="13.5844435"><ele>246.0</ele><time>2026-05-03T12:06:01.078Z</time></trkpt><trkpt lat="46.0997148" lon="13.5842768"><ele>252.0</ele><time>2026-05-03T12:06:02.083Z</time></trkpt><trkpt lat="46.0996169" lon="13.5840906"><ele>252.0</ele><time>2026-05-03T12:06:03.089Z</time></trkpt><trkpt lat="46.0995298" lon="13.5838848"><ele>252.0</ele><time>2026-05-03T12:06:04.089Z</time></trkpt><trkpt lat="46.0994503" lon="13.5836821"><ele>252.0</ele><time>2026-05-03T12:06:05.081Z</time></trkpt><trkpt lat="46.0993858" lon="13.5834949"><ele>247.25</ele><time>2026-05-03T12:06:06.075Z</time></trkpt><trkpt lat="46.0993433" lon="13.5833167"><ele>242.5</ele><time>2026-05-03T12:06:07.078Z</time></trkpt><trkpt lat="46.0993315" lon="13.5831272"><ele>237.75</ele><time>2026-05-03T12:06:08.079Z</time></trkpt><trkpt lat="46.0993327" lon="13.582937"><ele>233.0</ele><time>2026-05-03T12:06:09.082Z</time></trkpt><trkpt lat="46.0993351" lon="13.5827389"><ele>229.75</ele><time>2026-05-03T12:06:10.088Z</time></trkpt><trkpt lat="46.0993309" lon="13.5825392"><ele>226.5</ele><time>2026-05-03T12:06:11.086Z</time></trkpt><trkpt lat="46.0993171" lon="13.5823323"><ele>223.25</ele><time>2026-05-03T12:06:12.083Z</time></trkpt><trkpt lat="46.0992915" lon="13.5821267"><ele>220.0</ele><time>2026-05-03T12:06:13.085Z</time></trkpt><trkpt lat="46.0992604" lon="13.5819163"><ele>220.0</ele><time>2026-05-03T12:06:14.079Z</time></trkpt><trkpt lat="46.0992172" lon="13.5817012"><ele>220.0</ele><time>2026-05-03T12:06:15.09Z</time></trkpt><trkpt lat="46.0991574" lon="13.5814952"><ele>220.0</ele><time>2026-05-03T12:06:16.095Z</time></trkpt><trkpt lat="46.0990831" lon="13.5813047"><ele>218.25</ele><time>2026-05-03T12:06:17.081Z</time></trkpt><trkpt lat="46.0990045" lon="13.5811317"><ele>216.5</ele><time>2026-05-03T12:06:18.097Z</time></trkpt><trkpt lat="46.0989281" lon="13.5809733"><ele>214.75</ele><time>2026-05-03T12:06:19.083Z</time></trkpt><trkpt lat="46.0988582" lon="13.5808333"><ele>213.0</ele><time>2026-05-03T12:06:20.084Z</time></trkpt><trkpt lat="46.0988057" lon="13.5807029"><ele>213.0</ele><time>2026-05-03T12:06:21.08Z</time></trkpt><trkpt lat="46.0987629" lon="13.5805697"><ele>213.0</ele><time>2026-05-03T12:06:22.083Z</time></trkpt><trkpt lat="46.0987341" lon="13.5804199"><ele>213.0</ele><time>2026-05-03T12:06:23.084Z</time></trkpt><trkpt lat="46.0987124" lon="13.5802418"><ele>213.0</ele><time>2026-05-03T12:06:24.078Z</time></trkpt><trkpt lat="46.0986828" lon="13.5800388"><ele>213.66666666666669</ele><time>2026-05-03T12:06:25.086Z</time></trkpt><trkpt lat="46.0986375" lon="13.5798309"><ele>214.33333333333334</ele><time>2026-05-03T12:06:26.088Z</time></trkpt><trkpt lat="46.0985676" lon="13.579636"><ele>215.0</ele><time>2026-05-03T12:06:27.083Z</time></trkpt><trkpt lat="46.098473" lon="13.5794622"><ele>213.5</ele><time>2026-05-03T12:06:28.091Z</time></trkpt><trkpt lat="46.0983596" lon="13.5793223"><ele>212.0</ele><time>2026-05-03T12:06:29.08Z</time></trkpt><trkpt lat="46.098236" lon="13.5792211"><ele>210.5</ele><time>2026-05-03T12:06:30.084Z</time></trkpt><trkpt lat="46.0981099" lon="13.5791389"><ele>209.0</ele><time>2026-05-03T12:06:31.086Z</time></trkpt><trkpt lat="46.0979869" lon="13.5790458"><ele>209.0</ele><time>2026-05-03T12:06:32.081Z</time></trkpt><trkpt lat="46.0978605" lon="13.5789626"><ele>209.0</ele><time>2026-05-03T12:06:33.087Z</time></trkpt><trkpt lat="46.0977186" lon="13.5789129"><ele>209.0</ele><time>2026-05-03T12:06:34.084Z</time></trkpt><trkpt lat="46.0975672" lon="13.578888"><ele>209.0</ele><time>2026-05-03T12:06:35.088Z</time></trkpt><trkpt lat="46.0974155" lon="13.5788637"><ele>209.0</ele><time>2026-05-03T12:06:36.083Z</time></trkpt><trkpt lat="46.0972643" lon="13.578842"><ele>209.0</ele><time>2026-05-03T12:06:37.085Z</time></trkpt><trkpt lat="46.0971096" lon="13.5788209"><ele>209.0</ele><time>2026-05-03T12:06:38.091Z</time></trkpt><trkpt lat="46.0969624" lon="13.5787987"><ele>209.0</ele><time>2026-05-03T12:06:39.087Z</time></trkpt><trkpt lat="46.0968279" lon="13.5787606"><ele>209.0</ele><time>2026-05-03T12:06:40.09Z</time></trkpt><trkpt lat="46.0966985" lon="13.5786972"><ele>209.0</ele><time>2026-05-03T12:06:41.086Z</time></trkpt><trkpt lat="46.0965785" lon="13.5786057"><ele>209.0</ele><time>2026-05-03T12:06:42.093Z</time></trkpt><trkpt lat="46.0964886" lon="13.5785191"><ele>208.50000000000003</ele><time>2026-05-03T12:06:43.088Z</time></trkpt><trkpt lat="46.0964377" lon="13.5784536"><ele>208.0</ele><time>2026-05-03T12:06:44.085Z</time></trkpt><trkpt lat="46.0963868" lon="13.5783935"><ele>207.5</ele><time>2026-05-03T12:06:46.086Z</time></trkpt><trkpt lat="46.0964871" lon="13.5784409"><ele>207.0</ele><time>2026-05-03T12:06:54.098Z</time></trkpt><trkpt lat="46.0965663" lon="13.5785395"><ele>206.50000000000003</ele><time>2026-05-03T12:06:56.089Z</time></trkpt><trkpt lat="46.0966238" lon="13.5786053"><ele>206.0</ele><time>2026-05-03T12:06:58.087Z</time></trkpt><trkpt lat="46.0966747" lon="13.5786727"><ele>208.0</ele><time>2026-05-03T12:07:00.087Z</time></trkpt><trkpt lat="46.0967577" lon="13.5786479"><ele>210.0</ele><time>2026-05-03T12:07:03.095Z</time></trkpt><trkpt lat="46.0967614" lon="13.578487"><ele>212.00000000000003</ele><time>2026-05-03T12:07:05.086Z</time></trkpt><trkpt lat="46.0967338" lon="13.578379"><ele>214.0</ele><time>2026-05-03T12:07:06.093Z</time></trkpt><trkpt lat="46.0966911" lon="13.5782774"><ele>216.0</ele><time>2026-05-03T12:07:07.083Z</time></trkpt><trkpt lat="46.0966176" lon="13.5781892"><ele>215.0</ele><time>2026-05-03T12:07:08.092Z</time></trkpt><trkpt lat="46.0965261" lon="13.5780981"><ele>214.0</ele><time>2026-05-03T12:07:09.089Z</time></trkpt><trkpt lat="46.0964295" lon="13.5779958"><ele>213.0</ele><time>2026-05-03T12:07:10.094Z</time></trkpt><trkpt lat="46.0963601" lon="13.5778829"><ele>212.0</ele><time>2026-05-03T12:07:11.092Z</time></trkpt><trkpt lat="46.0963188" lon="13.5777172"><ele>212.0</ele><time>2026-05-03T12:07:12.079Z</time></trkpt><trkpt lat="46.0962787" lon="13.5775543"><ele>212.0</ele><time>2026-05-03T12:07:13.085Z</time></trkpt><trkpt lat="46.0962321" lon="13.5773855"><ele>212.0</ele><time>2026-05-03T12:07:14.094Z</time></trkpt><trkpt lat="46.0961747" lon="13.5772253"><ele>212.0</ele><time>2026-05-03T12:07:15.09Z</time></trkpt><trkpt lat="46.0961091" lon="13.5770686"><ele>215.75</ele><time>2026-05-03T12:07:16.093Z</time></trkpt><trkpt lat="46.0960372" lon="13.576927"><ele>219.5</ele><time>2026-05-03T12:07:17.09Z</time></trkpt><trkpt lat="46.0959601" lon="13.5767837"><ele>223.25</ele><time>2026-05-03T12:07:18.087Z</time></trkpt><trkpt lat="46.0958632" lon="13.5766388"><ele>227.0</ele><time>2026-05-03T12:07:19.081Z</time></trkpt><trkpt lat="46.0957579" lon="13.576495"><ele>228.5</ele><time>2026-05-03T12:07:20.089Z</time></trkpt><trkpt lat="46.0956533" lon="13.5763635"><ele>230.0</ele><time>2026-05-03T12:07:21.089Z</time></trkpt><trkpt lat="46.0955399" lon="13.5762505"><ele>231.5</ele><time>2026-05-03T12:07:22.091Z</time></trkpt><trkpt lat="46.0954229" lon="13.5761415"><ele>233.0</ele><time>2026-05-03T12:07:23.089Z</time></trkpt><trkpt lat="46.0953205" lon="13.5760421"><ele>233.0</ele><time>2026-05-03T12:07:24.087Z</time></trkpt><trkpt lat="46.0952479" lon="13.5759371"><ele>233.0</ele><time>2026-05-03T12:07:25.093Z</time></trkpt><trkpt lat="46.09519" lon="13.5758079"><ele>233.0</ele><time>2026-05-03T12:07:26.093Z</time></trkpt><trkpt lat="46.095148" lon="13.5756599"><ele>233.0</ele><time>2026-05-03T12:07:27.086Z</time></trkpt><trkpt lat="46.0951109" lon="13.5755048"><ele>233.0</ele><time>2026-05-03T12:07:28.093Z</time></trkpt><trkpt lat="46.0950705" lon="13.5753534"><ele>234.8</ele><time>2026-05-03T12:07:29.096Z</time></trkpt><trkpt lat="46.0950021" lon="13.5752295"><ele>236.60000000000002</ele><time>2026-05-03T12:07:30.094Z</time></trkpt><trkpt lat="46.0949227" lon="13.5751138"><ele>238.39999999999998</ele><time>2026-05-03T12:07:31.096Z</time></trkpt><trkpt lat="46.094847" lon="13.5750006"><ele>240.2</ele><time>2026-05-03T12:07:32.094Z</time></trkpt><trkpt lat="46.0947601" lon="13.5749209"><ele>242.0</ele><time>2026-05-03T12:07:33.085Z</time></trkpt><trkpt lat="46.0946555" lon="13.5748954"><ele>242.0</ele><time>2026-05-03T12:07:34.097Z</time></trkpt><trkpt lat="46.0945525" lon="13.5748896"><ele>242.0</ele><time>2026-05-03T12:07:35.091Z</time></trkpt><trkpt lat="46.0944577" lon="13.5748556"><ele>242.0</ele><time>2026-05-03T12:07:36.078Z</time></trkpt><trkpt lat="46.0943847" lon="13.5747685"><ele>242.0</ele><time>2026-05-03T12:07:37.081Z</time></trkpt><trkpt lat="46.0943101" lon="13.5746866"><ele>242.0</ele><time>2026-05-03T12:07:38.074Z</time></trkpt><trkpt lat="46.0942305" lon="13.5746262"><ele>242.0</ele><time>2026-05-03T12:07:39.085Z</time></trkpt><trkpt lat="46.0941435" lon="13.5746191"><ele>242.0</ele><time>2026-05-03T12:07:40.081Z</time></trkpt><trkpt lat="46.0940504" lon="13.5746383"><ele>242.0</ele><time>2026-05-03T12:07:41.088Z</time></trkpt><trkpt lat="46.0939595" lon="13.5746788"><ele>242.0</ele><time>2026-05-03T12:07:42.075Z</time></trkpt><trkpt lat="46.0938733" lon="13.5747166"><ele>242.0</ele><time>2026-05-03T12:07:43.083Z</time></trkpt><trkpt lat="46.0937899" lon="13.5747382"><ele>242.50000000000003</ele><time>2026-05-03T12:07:44.087Z</time></trkpt><trkpt lat="46.0937054" lon="13.574663"><ele>243.0</ele><time>2026-05-03T12:07:46.093Z</time></trkpt><trkpt lat="46.0937201" lon="13.5745678"><ele>243.5</ele><time>2026-05-03T12:07:47.087Z</time></trkpt><trkpt lat="46.0937515" lon="13.5744743"><ele>244.0</ele><time>2026-05-03T12:07:48.091Z</time></trkpt><trkpt lat="46.0937793" lon="13.5743818"><ele>244.50000000000003</ele><time>2026-05-03T12:07:49.088Z</time></trkpt><trkpt lat="46.0937933" lon="13.5742641"><ele>245.0</ele><time>2026-05-03T12:07:50.099Z</time></trkpt><trkpt lat="46.0937813" lon="13.5741527"><ele>245.00000000000003</ele><time>2026-05-03T12:07:51.095Z</time></trkpt><trkpt lat="46.0937547" lon="13.5740481"><ele>245.0</ele><time>2026-05-03T12:07:52.097Z</time></trkpt><trkpt lat="46.0937505" lon="13.573956"><ele>245.0</ele><time>2026-05-03T12:07:53.085Z</time></trkpt><trkpt lat="46.0937849" lon="13.5738754"><ele>245.0</ele><time>2026-05-03T12:07:54.1Z</time></trkpt><trkpt lat="46.0938504" lon="13.5738173"><ele>245.00000000000003</ele><time>2026-05-03T12:07:55.102Z</time></trkpt><trkpt lat="46.0939353" lon="13.5737873"><ele>245.0</ele><time>2026-05-03T12:07:56.091Z</time></trkpt><trkpt lat="46.0940366" lon="13.5737581"><ele>250.0</ele><time>2026-05-03T12:07:57.094Z</time></trkpt><trkpt lat="46.0941324" lon="13.5736841"><ele>255.0</ele><time>2026-05-03T12:07:58.104Z</time></trkpt><trkpt lat="46.0942233" lon="13.5735461"><ele>260.0</ele><time>2026-05-03T12:07:59.09Z</time></trkpt><trkpt lat="46.0943054" lon="13.5734178"><ele>265.0</ele><time>2026-05-03T12:08:00.099Z</time></trkpt><trkpt lat="46.0944006" lon="13.5733236"><ele>265.0</ele><time>2026-05-03T12:08:01.093Z</time></trkpt><trkpt lat="46.094495" lon="13.5732793"><ele>265.0</ele><time>2026-05-03T12:08:02.104Z</time></trkpt><trkpt lat="46.0946042" lon="13.5732583"><ele>265.0</ele><time>2026-05-03T12:08:03.09Z</time></trkpt><trkpt lat="46.0947151" lon="13.5732048"><ele>265.0</ele><time>2026-05-03T12:08:04.103Z</time></trkpt><trkpt lat="46.0948239" lon="13.5731297"><ele>265.0</ele><time>2026-05-03T12:08:05.106Z</time></trkpt><trkpt lat="46.0949338" lon="13.5730183"><ele>268.25</ele><time>2026-05-03T12:08:06.116Z</time></trkpt><trkpt lat="46.0950407" lon="13.5729005"><ele>271.5</ele><time>2026-05-03T12:08:07.091Z</time></trkpt><trkpt lat="46.0951384" lon="13.5727684"><ele>274.75</ele><time>2026-05-03T12:08:08.09Z</time></trkpt><trkpt lat="46.0952288" lon="13.5726236"><ele>278.0</ele><time>2026-05-03T12:08:09.076Z</time></trkpt><trkpt lat="46.0953142" lon="13.572474"><ele>278.0</ele><time>2026-05-03T12:08:10.089Z</time></trkpt><trkpt lat="46.0953799" lon="13.572331"><ele>278.0</ele><time>2026-05-03T12:08:11.088Z</time></trkpt><trkpt lat="46.095406" lon="13.5721744"><ele>278.0</ele><time>2026-05-03T12:08:12.081Z</time></trkpt><trkpt lat="46.0954209" lon="13.5720233"><ele>278.0</ele><time>2026-05-03T12:08:13.085Z</time></trkpt><trkpt lat="46.0954354" lon="13.5718914"><ele>278.0</ele><time>2026-05-03T12:08:14.085Z</time></trkpt><trkpt lat="46.0955155" lon="13.5718392"><ele>278.0</ele><time>2026-05-03T12:08:16.09Z</time></trkpt><trkpt lat="46.0955496" lon="13.5720204"><ele>278.0</ele><time>2026-05-03T12:08:18.076Z</time></trkpt><trkpt lat="46.0955075" lon="13.5721648"><ele>278.0</ele><time>2026-05-03T12:08:19.08Z</time></trkpt><trkpt lat="46.0954492" lon="13.5723228"><ele>278.0</ele><time>2026-05-03T12:08:20.079Z</time></trkpt><trkpt lat="46.0953938" lon="13.5724979"><ele>278.0</ele><time>2026-05-03T12:08:21.086Z</time></trkpt><trkpt lat="46.0953469" lon="13.5726744"><ele>278.0</ele><time>2026-05-03T12:08:22.076Z</time></trkpt><trkpt lat="46.0953026" lon="13.5728581"><ele>278.0</ele><time>2026-05-03T12:08:23.08Z</time></trkpt><trkpt lat="46.0952494" lon="13.5730334"><ele>278.0</ele><time>2026-05-03T12:08:24.084Z</time></trkpt><trkpt lat="46.0952052" lon="13.5731642"><ele>277.83333333333337</ele><time>2026-05-03T12:08:25.088Z</time></trkpt><trkpt lat="46.0951754" lon="13.5732796"><ele>277.6666666666667</ele><time>2026-05-03T12:08:26.093Z</time></trkpt><trkpt lat="46.0951636" lon="13.5733871"><ele>277.5</ele><time>2026-05-03T12:08:27.103Z</time></trkpt><trkpt lat="46.0951873" lon="13.5735131"><ele>277.3333333333333</ele><time>2026-05-03T12:08:28.112Z</time></trkpt><trkpt lat="46.0952355" lon="13.5736395"><ele>277.16666666666663</ele><time>2026-05-03T12:08:29.091Z</time></trkpt><trkpt lat="46.0952985" lon="13.5737267"><ele>277.0</ele><time>2026-05-03T12:08:30.088Z</time></trkpt><trkpt lat="46.0953677" lon="13.5737562"><ele>277.0</ele><time>2026-05-03T12:08:31.09Z</time></trkpt><trkpt lat="46.0954497" lon="13.5737292"><ele>277.0</ele><time>2026-05-03T12:08:32.096Z</time></trkpt><trkpt lat="46.0955523" lon="13.573661"><ele>277.0</ele><time>2026-05-03T12:08:33.107Z</time></trkpt><trkpt lat="46.095652" lon="13.5735976"><ele>277.0</ele><time>2026-05-03T12:08:34.096Z</time></trkpt><trkpt lat="46.0957462" lon="13.5735347"><ele>277.0</ele><time>2026-05-03T12:08:35.096Z</time></trkpt><trkpt lat="46.0958471" lon="13.5734719"><ele>283.8</ele><time>2026-05-03T12:08:36.097Z</time></trkpt><trkpt lat="46.0959552" lon="13.5734289"><ele>290.6</ele><time>2026-05-03T12:08:37.095Z</time></trkpt><trkpt lat="46.0960629" lon="13.5734035"><ele>297.40000000000003</ele><time>2026-05-03T12:08:38.093Z</time></trkpt><trkpt lat="46.096159" lon="13.5734189"><ele>304.2</ele><time>2026-05-03T12:08:39.094Z</time></trkpt><trkpt lat="46.0962495" lon="13.5734629"><ele>311.0</ele><time>2026-05-03T12:08:40.094Z</time></trkpt><trkpt lat="46.0963259" lon="13.5735003"><ele>311.0</ele><time>2026-05-03T12:08:41.096Z</time></trkpt><trkpt lat="46.0963979" lon="13.5735011"><ele>311.0</ele><time>2026-05-03T12:08:42.092Z</time></trkpt><trkpt lat="46.096387" lon="13.5733401"><ele>311.0</ele><time>2026-05-03T12:08:44.084Z</time></trkpt><trkpt lat="46.0963044" lon="13.5732416"><ele>311.0</ele><time>2026-05-03T12:08:45.078Z</time></trkpt><trkpt lat="46.0961913" lon="13.5731641"><ele>311.0</ele><time>2026-05-03T12:08:46.083Z</time></trkpt><trkpt lat="46.0960673" lon="13.5731036"><ele>311.0</ele><time>2026-05-03T12:08:47.091Z</time></trkpt><trkpt lat="46.0959636" lon="13.5730596"><ele>311.0</ele><time>2026-05-03T12:08:48.086Z</time></trkpt><trkpt lat="46.09588" lon="13.5730201"><ele>311.0</ele><time>2026-05-03T12:08:49.096Z</time></trkpt><trkpt lat="46.0958618" lon="13.5728876"><ele>311.0</ele><time>2026-05-03T12:08:51.098Z</time></trkpt><trkpt lat="46.0959166" lon="13.57284"><ele>311.0</ele><time>2026-05-03T12:08:52.102Z</time></trkpt><trkpt lat="46.0959945" lon="13.5728265"><ele>311.0</ele><time>2026-05-03T12:08:53.093Z</time></trkpt><trkpt lat="46.0960881" lon="13.5728498"><ele>311.0</ele><time>2026-05-03T12:08:54.102Z</time></trkpt><trkpt lat="46.0961969" lon="13.5728863"><ele>311.0</ele><time>2026-05-03T12:08:55.096Z</time></trkpt><trkpt lat="46.0963266" lon="13.5729368"><ele>311.0</ele><time>2026-05-03T12:08:56.104Z</time></trkpt><trkpt lat="46.0964555" lon="13.5729821"><ele>311.0</ele><time>2026-05-03T12:08:57.098Z</time></trkpt><trkpt lat="46.0965781" lon="13.5730108"><ele>313.8</ele><time>2026-05-03T12:08:58.105Z</time></trkpt><trkpt lat="46.0966962" lon="13.5730193"><ele>316.6</ele><time>2026-05-03T12:08:59.096Z</time></trkpt><trkpt lat="46.0968036" lon="13.5730366"><ele>319.4</ele><time>2026-05-03T12:09:00.107Z</time></trkpt><trkpt lat="46.0968952" lon="13.5730935"><ele>322.2</ele><time>2026-05-03T12:09:01.104Z</time></trkpt><trkpt lat="46.0969831" lon="13.5731782"><ele>325.0</ele><time>2026-05-03T12:09:02.094Z</time></trkpt><trkpt lat="46.0970853" lon="13.5732916"><ele>325.0</ele><time>2026-05-03T12:09:03.093Z</time></trkpt><trkpt lat="46.0971905" lon="13.5734135"><ele>325.0</ele><time>2026-05-03T12:09:04.088Z</time></trkpt><trkpt lat="46.0972902" lon="13.5735386"><ele>325.0</ele><time>2026-05-03T12:09:05.096Z</time></trkpt><trkpt lat="46.097377" lon="13.5736625"><ele>325.0</ele><time>2026-05-03T12:09:06.094Z</time></trkpt><trkpt lat="46.0974478" lon="13.5737607"><ele>324.8</ele><time>2026-05-03T12:09:07.097Z</time></trkpt><trkpt lat="46.0975015" lon="13.5738112"><ele>324.6</ele><time>2026-05-03T12:09:08.086Z</time></trkpt><trkpt lat="46.0975603" lon="13.5737619"><ele>324.4</ele><time>2026-05-03T12:09:10.094Z</time></trkpt><trkpt lat="46.0975184" lon="13.5735881"><ele>324.2</ele><time>2026-05-03T12:09:12.089Z</time></trkpt><trkpt lat="46.0974815" lon="13.5734615"><ele>324.0</ele><time>2026-05-03T12:09:13.099Z</time></trkpt><trkpt lat="46.0974396" lon="13.57331"><ele>324.25</ele><time>2026-05-03T12:09:14.101Z</time></trkpt><trkpt lat="46.0973932" lon="13.5731234"><ele>324.5</ele><time>2026-05-03T12:09:15.097Z</time></trkpt><trkpt lat="46.0973458" lon="13.5729367"><ele>324.75</ele><time>2026-05-03T12:09:16.106Z</time></trkpt><trkpt lat="46.097299" lon="13.5727541"><ele>325.0</ele><time>2026-05-03T12:09:17.098Z</time></trkpt><trkpt lat="46.0972548" lon="13.5725723"><ele>329.0</ele><time>2026-05-03T12:09:18.099Z</time></trkpt><trkpt lat="46.0972014" lon="13.5724061"><ele>333.0</ele><time>2026-05-03T12:09:19.102Z</time></trkpt><trkpt lat="46.0971192" lon="13.5722691"><ele>337.0</ele><time>2026-05-03T12:09:20.099Z</time></trkpt><trkpt lat="46.0970159" lon="13.5721747"><ele>341.0</ele><time>2026-05-03T12:09:21.098Z</time></trkpt><trkpt lat="46.0968885" lon="13.5721101"><ele>341.0</ele><time>2026-05-03T12:09:22.085Z</time></trkpt><trkpt lat="46.0967499" lon="13.5720674"><ele>341.0</ele><time>2026-05-03T12:09:23.097Z</time></trkpt><trkpt lat="46.0966392" lon="13.5720405"><ele>341.0</ele><time>2026-05-03T12:09:24.115Z</time></trkpt><trkpt lat="46.0965536" lon="13.5720028"><ele>341.0</ele><time>2026-05-03T12:09:25.099Z</time></trkpt><trkpt lat="46.0964837" lon="13.571883"><ele>343.25</ele><time>2026-05-03T12:09:27.094Z</time></trkpt><trkpt lat="46.0965942" lon="13.5717703"><ele>345.5</ele><time>2026-05-03T12:09:29.09Z</time></trkpt><trkpt lat="46.0967054" lon="13.5717526"><ele>347.75</ele><time>2026-05-03T12:09:30.098Z</time></trkpt><trkpt lat="46.0968274" lon="13.5717508"><ele>350.0</ele><time>2026-05-03T12:09:31.093Z</time></trkpt><trkpt lat="46.0969496" lon="13.5717533"><ele>350.0</ele><time>2026-05-03T12:09:32.107Z</time></trkpt><trkpt lat="46.0970734" lon="13.5717575"><ele>350.0</ele><time>2026-05-03T12:09:33.096Z</time></trkpt><trkpt lat="46.0971946" lon="13.5717584"><ele>350.0</ele><time>2026-05-03T12:09:34.113Z</time></trkpt><trkpt lat="46.0972975" lon="13.5717687"><ele>350.0</ele><time>2026-05-03T12:09:35.11Z</time></trkpt><trkpt lat="46.097366" lon="13.5717831"><ele>350.0</ele><time>2026-05-03T12:09:36.111Z</time></trkpt><trkpt lat="46.0974112" lon="13.5717188"><ele>350.0</ele><time>2026-05-03T12:09:38.095Z</time></trkpt><trkpt lat="46.0973077" lon="13.5716211"><ele>350.0</ele><time>2026-05-03T12:09:40.093Z</time></trkpt><trkpt lat="46.0972246" lon="13.5715817"><ele>350.0</ele><time>2026-05-03T12:09:41.091Z</time></trkpt><trkpt lat="46.0971448" lon="13.5715467"><ele>350.0</ele><time>2026-05-03T12:09:42.088Z</time></trkpt><trkpt lat="46.0970799" lon="13.5715081"><ele>350.0</ele><time>2026-05-03T12:09:43.085Z</time></trkpt><trkpt lat="46.0970299" lon="13.5714436"><ele>350.0</ele><time>2026-05-03T12:09:44.123Z</time></trkpt><trkpt lat="46.0970263" lon="13.5712947"><ele>350.0</ele><time>2026-05-03T12:09:46.09Z</time></trkpt><trkpt lat="46.0971341" lon="13.5712077"><ele>350.0</ele><time>2026-05-03T12:09:48.099Z</time></trkpt><trkpt lat="46.0971905" lon="13.5711396"><ele>350.0</ele><time>2026-05-03T12:09:49.093Z</time></trkpt><trkpt lat="46.0972381" lon="13.5710645"><ele>350.0</ele><time>2026-05-03T12:09:50.102Z</time></trkpt><trkpt lat="46.0973052" lon="13.5710248"><ele>350.0</ele><time>2026-05-03T12:09:51.108Z</time></trkpt><trkpt lat="46.097375" lon="13.5709924"><ele>350.0</ele><time>2026-05-03T12:09:52.096Z</time></trkpt><trkpt lat="46.09748" lon="13.5709476"><ele>353.33333333333337</ele><time>2026-05-03T12:09:54.099Z</time></trkpt><trkpt lat="46.0975585" lon="13.5708724"><ele>356.6666666666667</ele><time>2026-05-03T12:09:56.102Z</time></trkpt><trkpt lat="46.097623" lon="13.5707259"><ele>360.0</ele><time>2026-05-03T12:09:58.083Z</time></trkpt><trkpt lat="46.097667" lon="13.5706518"><ele>363.3333333333333</ele><time>2026-05-03T12:09:59.087Z</time></trkpt><trkpt lat="46.0977238" lon="13.5705757"><ele>366.66666666666663</ele><time>2026-05-03T12:10:00.094Z</time></trkpt><trkpt lat="46.0977945" lon="13.5704988"><ele>370.0</ele><time>2026-05-03T12:10:01.101Z</time></trkpt><trkpt lat="46.0978684" lon="13.5704338"><ele>370.0</ele><time>2026-05-03T12:10:02.084Z</time></trkpt><trkpt lat="46.0979395" lon="13.5703752"><ele>370.0</ele><time>2026-05-03T12:10:03.081Z</time></trkpt><trkpt lat="46.0980133" lon="13.5703183"><ele>370.0</ele><time>2026-05-03T12:10:04.093Z</time></trkpt><trkpt lat="46.0980829" lon="13.570258"><ele>370.0</ele><time>2026-05-03T12:10:05.091Z</time></trkpt><trkpt lat="46.0981465" lon="13.5701958"><ele>370.0</ele><time>2026-05-03T12:10:06.1Z</time></trkpt><trkpt lat="46.0981947" lon="13.570128"><ele>370.0</ele><time>2026-05-03T12:10:07.08Z</time></trkpt><trkpt lat="46.0982135" lon="13.5699918"><ele>369.4</ele><time>2026-05-03T12:10:09.072Z</time></trkpt><trkpt lat="46.0981562" lon="13.5698676"><ele>368.8</ele><time>2026-05-03T12:10:11.071Z</time></trkpt><trkpt lat="46.0980866" lon="13.5697937"><ele>368.20000000000005</ele><time>2026-05-03T12:10:12.075Z</time></trkpt><trkpt lat="46.098012" lon="13.5697257"><ele>367.6</ele><time>2026-05-03T12:10:13.078Z</time></trkpt><trkpt lat="46.0979357" lon="13.56966"><ele>367.0</ele><time>2026-05-03T12:10:14.075Z</time></trkpt><trkpt lat="46.0978636" lon="13.5695904"><ele>367.0</ele><time>2026-05-03T12:10:15.084Z</time></trkpt><trkpt lat="46.0977888" lon="13.5695257"><ele>367.0</ele><time>2026-05-03T12:10:16.087Z</time></trkpt><trkpt lat="46.0977113" lon="13.5694658"><ele>367.0</ele><time>2026-05-03T12:10:17.087Z</time></trkpt><trkpt lat="46.0976352" lon="13.5693983"><ele>367.0</ele><time>2026-05-03T12:10:18.093Z</time></trkpt><trkpt lat="46.0975558" lon="13.5693304"><ele>367.0</ele><time>2026-05-03T12:10:19.084Z</time></trkpt><trkpt lat="46.0974777" lon="13.5692527"><ele>367.0</ele><time>2026-05-03T12:10:20.09Z</time></trkpt><trkpt lat="46.097397" lon="13.5691877"><ele>367.0</ele><time>2026-05-03T12:10:21.082Z</time></trkpt><trkpt lat="46.0973158" lon="13.5691308"><ele>367.0</ele><time>2026-05-03T12:10:22.092Z</time></trkpt><trkpt lat="46.0972164" lon="13.5690843"><ele>367.0</ele><time>2026-05-03T12:10:23.093Z</time></trkpt><trkpt lat="46.0971167" lon="13.5690336"><ele>367.0</ele><time>2026-05-03T12:10:24.091Z</time></trkpt><trkpt lat="46.0970172" lon="13.5689839"><ele>367.0</ele><time>2026-05-03T12:10:25.097Z</time></trkpt><trkpt lat="46.09692" lon="13.5689238"><ele>367.0</ele><time>2026-05-03T12:10:26.083Z</time></trkpt><trkpt lat="46.0968167" lon="13.5688664"><ele>367.0</ele><time>2026-05-03T12:10:27.096Z</time></trkpt><trkpt lat="46.0967137" lon="13.5687935"><ele>367.0</ele><time>2026-05-03T12:10:28.103Z</time></trkpt><trkpt lat="46.0966094" lon="13.5687205"><ele>367.0</ele><time>2026-05-03T12:10:29.095Z</time></trkpt><trkpt lat="46.0965052" lon="13.568644"><ele>365.0</ele><time>2026-05-03T12:10:30.09Z</time></trkpt><trkpt lat="46.0964063" lon="13.568557"><ele>363.0</ele><time>2026-05-03T12:10:31.096Z</time></trkpt><trkpt lat="46.0963219" lon="13.5684728"><ele>361.0</ele><time>2026-05-03T12:10:32.093Z</time></trkpt><trkpt lat="46.0962544" lon="13.5683875"><ele>359.0</ele><time>2026-05-03T12:10:33.097Z</time></trkpt><trkpt lat="46.0961952" lon="13.568298"><ele>357.0</ele><time>2026-05-03T12:10:34.096Z</time></trkpt><trkpt lat="46.0961478" lon="13.5682015"><ele>357.0</ele><time>2026-05-03T12:10:35.1Z</time></trkpt><trkpt lat="46.0961187" lon="13.5680979"><ele>357.0</ele><time>2026-05-03T12:10:36.102Z</time></trkpt><trkpt lat="46.0961131" lon="13.5679871"><ele>357.0</ele><time>2026-05-03T12:10:37.089Z</time></trkpt><trkpt lat="46.0961245" lon="13.5678738"><ele>357.0</ele><time>2026-05-03T12:10:38.093Z</time></trkpt><trkpt lat="46.0961401" lon="13.5677637"><ele>357.0</ele><time>2026-05-03T12:10:39.086Z</time></trkpt><trkpt lat="46.0961669" lon="13.5676474"><ele>357.0</ele><time>2026-05-03T12:10:40.098Z</time></trkpt><trkpt lat="46.0961978" lon="13.5675272"><ele>358.0</ele><time>2026-05-03T12:10:41.107Z</time></trkpt><trkpt lat="46.0962332" lon="13.5673968"><ele>359.0</ele><time>2026-05-03T12:10:42.091Z</time></trkpt><trkpt lat="46.0962674" lon="13.5672661"><ele>360.0</ele><time>2026-05-03T12:10:43.093Z</time></trkpt><trkpt lat="46.0962979" lon="13.5671382"><ele>361.0</ele><time>2026-05-03T12:10:44.097Z</time></trkpt><trkpt lat="46.0963312" lon="13.5670147"><ele>362.0</ele><time>2026-05-03T12:10:45.097Z</time></trkpt><trkpt lat="46.0963568" lon="13.5669085"><ele>365.0</ele><time>2026-05-03T12:10:46.088Z</time></trkpt><trkpt lat="46.0963792" lon="13.5667432"><ele>368.0</ele><time>2026-05-03T12:10:48.08Z</time></trkpt><trkpt lat="46.0963765" lon="13.5666502"><ele>371.0</ele><time>2026-05-03T12:10:49.085Z</time></trkpt><trkpt lat="46.0963828" lon="13.5665549"><ele>374.0</ele><time>2026-05-03T12:10:50.076Z</time></trkpt><trkpt lat="46.096387" lon="13.5664593"><ele>377.0</ele><time>2026-05-03T12:10:51.085Z</time></trkpt><trkpt lat="46.096352" lon="13.5663192"><ele>380.0</ele><time>2026-05-03T12:10:53.083Z</time></trkpt><trkpt lat="46.0962729" lon="13.566284"><ele>380.0</ele><time>2026-05-03T12:10:55.086Z</time></trkpt><trkpt lat="46.0961658" lon="13.566339"><ele>380.0</ele><time>2026-05-03T12:10:57.085Z</time></trkpt><trkpt lat="46.0961009" lon="13.566363"><ele>380.0</ele><time>2026-05-03T12:10:58.09Z</time></trkpt><trkpt lat="46.0960324" lon="13.5663797"><ele>380.0</ele><time>2026-05-03T12:10:59.094Z</time></trkpt><trkpt lat="46.0959526" lon="13.5663742"><ele>380.0</ele><time>2026-05-03T12:11:00.089Z</time></trkpt><trkpt lat="46.0958679" lon="13.5663594"><ele>380.0</ele><time>2026-05-03T12:11:01.092Z</time></trkpt><trkpt lat="46.0957836" lon="13.5663339"><ele>378.33333333333337</ele><time>2026-05-03T12:11:02.082Z</time></trkpt><trkpt lat="46.0957047" lon="13.5663025"><ele>376.6666666666667</ele><time>2026-05-03T12:11:03.088Z</time></trkpt><trkpt lat="46.095626" lon="13.566259"><ele>375.0</ele><time>2026-05-03T12:11:04.085Z</time></trkpt><trkpt lat="46.0955454" lon="13.5662132"><ele>373.3333333333333</ele><time>2026-05-03T12:11:05.088Z</time></trkpt><trkpt lat="46.0954668" lon="13.5661663"><ele>371.66666666666663</ele><time>2026-05-03T12:11:06.083Z</time></trkpt><trkpt lat="46.0953979" lon="13.5661156"><ele>370.0</ele><time>2026-05-03T12:11:07.087Z</time></trkpt><trkpt lat="46.0953387" lon="13.5660635"><ele>374.2</ele><time>2026-05-03T12:11:08.092Z</time></trkpt><trkpt lat="46.0952795" lon="13.5660138"><ele>378.4</ele><time>2026-05-03T12:11:09.089Z</time></trkpt><trkpt lat="46.0952075" lon="13.5659636"><ele>382.6</ele><time>2026-05-03T12:11:10.087Z</time></trkpt><trkpt lat="46.0951138" lon="13.5659022"><ele>386.8</ele><time>2026-05-03T12:11:11.103Z</time></trkpt><trkpt lat="46.0950179" lon="13.5658395"><ele>391.0</ele><time>2026-05-03T12:11:12.104Z</time></trkpt><trkpt lat="46.0949207" lon="13.565785"><ele>391.20000000000005</ele><time>2026-05-03T12:11:13.092Z</time></trkpt><trkpt lat="46.0948282" lon="13.5657257"><ele>391.40000000000003</ele><time>2026-05-03T12:11:14.086Z</time></trkpt><trkpt lat="46.0947353" lon="13.5656749"><ele>391.6</ele><time>2026-05-03T12:11:15.087Z</time></trkpt><trkpt lat="46.0946566" lon="13.5656311"><ele>391.8</ele><time>2026-05-03T12:11:16.092Z</time></trkpt><trkpt lat="46.0945908" lon="13.5656221"><ele>392.0</ele><time>2026-05-03T12:11:17.094Z</time></trkpt><trkpt lat="46.0944797" lon="13.5656468"><ele>391.99999999999994</ele><time>2026-05-03T12:11:19.091Z</time></trkpt><trkpt lat="46.0944067" lon="13.5656864"><ele>392.0</ele><time>2026-05-03T12:11:20.087Z</time></trkpt><trkpt lat="46.0943286" lon="13.5657244"><ele>392.0</ele><time>2026-05-03T12:11:21.095Z</time></trkpt><trkpt lat="46.0942456" lon="13.5657696"><ele>392.0</ele><time>2026-05-03T12:11:22.099Z</time></trkpt><trkpt lat="46.0941605" lon="13.5658181"><ele>391.99999999999994</ele><time>2026-05-03T12:11:23.09Z</time></trkpt><trkpt lat="46.0940774" lon="13.5658671"><ele>392.0</ele><time>2026-05-03T12:11:24.091Z</time></trkpt><trkpt lat="46.0939942" lon="13.5659092"><ele>393.49999999999994</ele><time>2026-05-03T12:11:25.101Z</time></trkpt><trkpt lat="46.0939101" lon="13.5659408"><ele>395.0</ele><time>2026-05-03T12:11:26.091Z</time></trkpt><trkpt lat="46.0938287" lon="13.5659673"><ele>396.5</ele><time>2026-05-03T12:11:27.09Z</time></trkpt><trkpt lat="46.0937513" lon="13.5659903"><ele>398.0</ele><time>2026-05-03T12:11:28.096Z</time></trkpt><trkpt lat="46.0936814" lon="13.5660027"><ele>399.49999999999994</ele><time>2026-05-03T12:11:29.095Z</time></trkpt><trkpt lat="46.0936171" lon="13.5660031"><ele>401.0</ele><time>2026-05-03T12:11:30.093Z</time></trkpt><trkpt lat="46.0935031" lon="13.5659965"><ele>401.0</ele><time>2026-05-03T12:11:32.088Z</time></trkpt><trkpt lat="46.0934024" lon="13.5658998"><ele>401.0</ele><time>2026-05-03T12:11:34.085Z</time></trkpt><trkpt lat="46.0933581" lon="13.5657624"><ele>401.0</ele><time>2026-05-03T12:11:36.095Z</time></trkpt><trkpt lat="46.0933871" lon="13.5656754"><ele>401.0</ele><time>2026-05-03T12:11:38.104Z</time></trkpt><trkpt lat="46.0934556" lon="13.5655818"><ele>401.0</ele><time>2026-05-03T12:11:40.091Z</time></trkpt><trkpt lat="46.0935059" lon="13.5655088"><ele>400.99999999999994</ele><time>2026-05-03T12:11:41.109Z</time></trkpt><trkpt lat="46.0935591" lon="13.5654486"><ele>401.0</ele><time>2026-05-03T12:11:42.093Z</time></trkpt><trkpt lat="46.0936099" lon="13.5653661"><ele>401.0</ele><time>2026-05-03T12:11:43.097Z</time></trkpt><trkpt lat="46.0936646" lon="13.5652879"><ele>401.0</ele><time>2026-05-03T12:11:44.091Z</time></trkpt><trkpt lat="46.0937272" lon="13.565207"><ele>400.99999999999994</ele><time>2026-05-03T12:11:45.1Z</time></trkpt><trkpt lat="46.0937948" lon="13.5651309"><ele>401.0</ele><time>2026-05-03T12:11:46.108Z</time></trkpt><trkpt lat="46.0938499" lon="13.5650475"><ele>401.8333333333333</ele><time>2026-05-03T12:11:47.106Z</time></trkpt><trkpt lat="46.0938898" lon="13.5649641"><ele>402.66666666666663</ele><time>2026-05-03T12:11:48.099Z</time></trkpt><trkpt lat="46.093897" lon="13.5648357"><ele>403.5</ele><time>2026-05-03T12:11:50.096Z</time></trkpt><trkpt lat="46.0938311" lon="13.5647725"><ele>404.33333333333337</ele><time>2026-05-03T12:11:53.092Z</time></trkpt><trkpt lat="46.0937413" lon="13.5647432"><ele>405.1666666666667</ele><time>2026-05-03T12:11:55.097Z</time></trkpt><trkpt lat="46.093685" lon="13.5646891"><ele>406.0</ele><time>2026-05-03T12:11:56.11Z</time></trkpt><trkpt lat="46.0936511" lon="13.5645159"><ele>406.0</ele><time>2026-05-03T12:11:58.096Z</time></trkpt><trkpt lat="46.0936548" lon="13.564418"><ele>406.0</ele><time>2026-05-03T12:11:59.088Z</time></trkpt><trkpt lat="46.093664" lon="13.5643156"><ele>406.0</ele><time>2026-05-03T12:12:00.109Z</time></trkpt><trkpt lat="46.0936813" lon="13.5642024"><ele>406.0</ele><time>2026-05-03T12:12:01.103Z</time></trkpt><trkpt lat="46.0936955" lon="13.5640935"><ele>406.0</ele><time>2026-05-03T12:12:02.117Z</time></trkpt><trkpt lat="46.0937136" lon="13.5640008"><ele>406.0</ele><time>2026-05-03T12:12:03.099Z</time></trkpt><trkpt lat="46.0937325" lon="13.5639053"><ele>406.0</ele><time>2026-05-03T12:12:04.091Z</time></trkpt><trkpt lat="46.0937568" lon="13.5638099"><ele>406.00000000000006</ele><time>2026-05-03T12:12:05.105Z</time></trkpt><trkpt lat="46.0937849" lon="13.5637181"><ele>406.0</ele><time>2026-05-03T12:12:06.098Z</time></trkpt><trkpt lat="46.0938284" lon="13.5636299"><ele>406.0</ele><time>2026-05-03T12:12:07.104Z</time></trkpt><trkpt lat="46.0938656" lon="13.5635375"><ele>406.0</ele><time>2026-05-03T12:12:08.095Z</time></trkpt><trkpt lat="46.0939034" lon="13.5634526"><ele>406.00000000000006</ele><time>2026-05-03T12:12:09.092Z</time></trkpt><trkpt lat="46.0939443" lon="13.5633607"><ele>406.0</ele><time>2026-05-03T12:12:10.091Z</time></trkpt><trkpt lat="46.0939921" lon="13.5632584"><ele>404.50000000000006</ele><time>2026-05-03T12:12:11.094Z</time></trkpt><trkpt lat="46.0940374" lon="13.5631602"><ele>403.0</ele><time>2026-05-03T12:12:12.09Z</time></trkpt><trkpt lat="46.0940721" lon="13.5630641"><ele>401.5</ele><time>2026-05-03T12:12:13.083Z</time></trkpt><trkpt lat="46.0940892" lon="13.5629693"><ele>400.0</ele><time>2026-05-03T12:12:14.09Z</time></trkpt><trkpt lat="46.0940935" lon="13.5628622"><ele>398.50000000000006</ele><time>2026-05-03T12:12:15.086Z</time></trkpt><trkpt lat="46.0940902" lon="13.5627489"><ele>397.0</ele><time>2026-05-03T12:12:16.08Z</time></trkpt><trkpt lat="46.0940963" lon="13.562617"><ele>396.8</ele><time>2026-05-03T12:12:17.094Z</time></trkpt><trkpt lat="46.0941045" lon="13.5624678"><ele>396.6</ele><time>2026-05-03T12:12:18.089Z</time></trkpt><trkpt lat="46.0941125" lon="13.5623319"><ele>396.40000000000003</ele><time>2026-05-03T12:12:19.098Z</time></trkpt><trkpt lat="46.0941037" lon="13.562208"><ele>396.20000000000005</ele><time>2026-05-03T12:12:20.098Z</time></trkpt><trkpt lat="46.0940905" lon="13.5620863"><ele>396.0</ele><time>2026-05-03T12:12:21.097Z</time></trkpt><trkpt lat="46.0940814" lon="13.561969"><ele>396.0</ele><time>2026-05-03T12:12:22.092Z</time></trkpt><trkpt lat="46.0940721" lon="13.5618667"><ele>396.0</ele><time>2026-05-03T12:12:23.104Z</time></trkpt><trkpt lat="46.0940601" lon="13.5617582"><ele>396.0</ele><time>2026-05-03T12:12:24.097Z</time></trkpt><trkpt lat="46.0940497" lon="13.561648"><ele>396.0</ele><time>2026-05-03T12:12:25.085Z</time></trkpt><trkpt lat="46.0940458" lon="13.5615475"><ele>396.0</ele><time>2026-05-03T12:12:26.092Z</time></trkpt><trkpt lat="46.0940505" lon="13.5614566"><ele>396.0</ele><time>2026-05-03T12:12:27.089Z</time></trkpt><trkpt lat="46.094074" lon="13.5613639"><ele>396.0</ele><time>2026-05-03T12:12:28.093Z</time></trkpt><trkpt lat="46.0941171" lon="13.5612816"><ele>405.0</ele><time>2026-05-03T12:12:29.085Z</time></trkpt><trkpt lat="46.0941615" lon="13.5611925"><ele>414.0</ele><time>2026-05-03T12:12:30.092Z</time></trkpt><trkpt lat="46.0942012" lon="13.561092"><ele>423.0</ele><time>2026-05-03T12:12:31.084Z</time></trkpt><trkpt lat="46.0942255" lon="13.5609716"><ele>432.0</ele><time>2026-05-03T12:12:32.083Z</time></trkpt><trkpt lat="46.0942464" lon="13.5608514"><ele>441.0</ele><time>2026-05-03T12:12:33.082Z</time></trkpt><trkpt lat="46.0942526" lon="13.5607206"><ele>450.0</ele><time>2026-05-03T12:12:34.093Z</time></trkpt><trkpt lat="46.0942518" lon="13.5605868"><ele>450.0</ele><time>2026-05-03T12:12:35.077Z</time></trkpt><trkpt lat="46.0942381" lon="13.5604481"><ele>450.0</ele><time>2026-05-03T12:12:36.082Z</time></trkpt><trkpt lat="46.0942065" lon="13.5603165"><ele>450.0</ele><time>2026-05-03T12:12:37.081Z</time></trkpt><trkpt lat="46.0941644" lon="13.5602028"><ele>450.0</ele><time>2026-05-03T12:12:38.083Z</time></trkpt><trkpt lat="46.0941097" lon="13.5601021"><ele>450.0</ele><time>2026-05-03T12:12:39.078Z</time></trkpt><trkpt lat="46.0940461" lon="13.5600196"><ele>453.28571428571433</ele><time>2026-05-03T12:12:40.1Z</time></trkpt><trkpt lat="46.0939878" lon="13.5599469"><ele>456.57142857142856</ele><time>2026-05-03T12:12:41.079Z</time></trkpt><trkpt lat="46.0939266" lon="13.5598986"><ele>459.8571428571429</ele><time>2026-05-03T12:12:42.095Z</time></trkpt><trkpt lat="46.0938692" lon="13.5598555"><ele>463.14285714285717</ele><time>2026-05-03T12:12:43.081Z</time></trkpt><trkpt lat="46.0938004" lon="13.5598288"><ele>466.42857142857144</ele><time>2026-05-03T12:12:44.089Z</time></trkpt><trkpt lat="46.0937287" lon="13.5598303"><ele>469.7142857142857</ele><time>2026-05-03T12:12:45.077Z</time></trkpt><trkpt lat="46.0936471" lon="13.5598544"><ele>473.0</ele><time>2026-05-03T12:12:46.081Z</time></trkpt><trkpt lat="46.0935593" lon="13.5598937"><ele>472.99999999999994</ele><time>2026-05-03T12:12:47.08Z</time></trkpt><trkpt lat="46.0934767" lon="13.5599379"><ele>473.0</ele><time>2026-05-03T12:12:48.085Z</time></trkpt><trkpt lat="46.0933961" lon="13.5599861"><ele>473.0</ele><time>2026-05-03T12:12:49.105Z</time></trkpt><trkpt lat="46.0933105" lon="13.5600259"><ele>473.0</ele><time>2026-05-03T12:12:50.085Z</time></trkpt><trkpt lat="46.0932172" lon="13.5600419"><ele>472.99999999999994</ele><time>2026-05-03T12:12:51.093Z</time></trkpt><trkpt lat="46.0931318" lon="13.5600538"><ele>473.0</ele><time>2026-05-03T12:12:52.1Z</time></trkpt><trkpt lat="46.0930465" lon="13.5600623"><ele>474.4</ele><time>2026-05-03T12:12:53.09Z</time></trkpt><trkpt lat="46.092958" lon="13.5600753"><ele>475.79999999999995</ele><time>2026-05-03T12:12:54.087Z</time></trkpt><trkpt lat="46.0928667" lon="13.5600867"><ele>477.2</ele><time>2026-05-03T12:12:55.087Z</time></trkpt><trkpt lat="46.0927771" lon="13.5601"><ele>478.6</ele><time>2026-05-03T12:12:56.081Z</time></trkpt><trkpt lat="46.0927011" lon="13.5601157"><ele>480.0</ele><time>2026-05-03T12:12:57.086Z</time></trkpt><trkpt lat="46.0925927" lon="13.5601422"><ele>480.0</ele><time>2026-05-03T12:12:59.089Z</time></trkpt><trkpt lat="46.0925207" lon="13.5601273"><ele>480.0</ele><time>2026-05-03T12:13:01.105Z</time></trkpt><trkpt lat="46.0924859" lon="13.5600467"><ele>480.0</ele><time>2026-05-03T12:13:27.107Z</time></trkpt><trkpt lat="46.0924761" lon="13.5598753"><ele>480.0</ele><time>2026-05-03T12:13:29.098Z</time></trkpt><trkpt lat="46.0924773" lon="13.5597609"><ele>480.0</ele><time>2026-05-03T12:13:30.097Z</time></trkpt><trkpt lat="46.0924838" lon="13.5596316"><ele>480.0</ele><time>2026-05-03T12:13:31.101Z</time></trkpt><trkpt lat="46.0924886" lon="13.5594979"><ele>480.4</ele><time>2026-05-03T12:13:32.101Z</time></trkpt><trkpt lat="46.0924968" lon="13.55937"><ele>480.8</ele><time>2026-05-03T12:13:33.11Z</time></trkpt><trkpt lat="46.0925156" lon="13.5592474"><ele>481.20000000000005</ele><time>2026-05-03T12:13:34.104Z</time></trkpt><trkpt lat="46.092544" lon="13.5591295"><ele>481.6</ele><time>2026-05-03T12:13:35.115Z</time></trkpt><trkpt lat="46.092588" lon="13.5590044"><ele>482.0</ele><time>2026-05-03T12:13:36.103Z</time></trkpt><trkpt lat="46.0926481" lon="13.5588772"><ele>482.0</ele><time>2026-05-03T12:13:37.099Z</time></trkpt><trkpt lat="46.0927079" lon="13.55874"><ele>482.0</ele><time>2026-05-03T12:13:38.092Z</time></trkpt><trkpt lat="46.0927746" lon="13.5585858"><ele>482.0</ele><time>2026-05-03T12:13:39.093Z</time></trkpt><trkpt lat="46.0928225" lon="13.5584449"><ele>482.0</ele><time>2026-05-03T12:13:40.094Z</time></trkpt><trkpt lat="46.092859" lon="13.5582953"><ele>479.75</ele><time>2026-05-03T12:13:41.081Z</time></trkpt><trkpt lat="46.0928841" lon="13.5581353"><ele>477.5</ele><time>2026-05-03T12:13:42.089Z</time></trkpt><trkpt lat="46.0928993" lon="13.5579675"><ele>475.25</ele><time>2026-05-03T12:13:43.085Z</time></trkpt><trkpt lat="46.0929143" lon="13.5577856"><ele>473.0</ele><time>2026-05-03T12:13:44.095Z</time></trkpt><trkpt lat="46.0929324" lon="13.5576135"><ele>473.2</ele><time>2026-05-03T12:13:45.096Z</time></trkpt><trkpt lat="46.0929641" lon="13.5574457"><ele>473.4</ele><time>2026-05-03T12:13:46.086Z</time></trkpt><trkpt lat="46.0930006" lon="13.5572922"><ele>473.59999999999997</ele><time>2026-05-03T12:13:47.082Z</time></trkpt><trkpt lat="46.0930192" lon="13.5571442"><ele>473.79999999999995</ele><time>2026-05-03T12:13:48.095Z</time></trkpt><trkpt lat="46.0930148" lon="13.5570023"><ele>474.0</ele><time>2026-05-03T12:13:49.092Z</time></trkpt><trkpt lat="46.0929936" lon="13.5568682"><ele>474.0</ele><time>2026-05-03T12:13:50.086Z</time></trkpt><trkpt lat="46.0929611" lon="13.5567691"><ele>474.0</ele><time>2026-05-03T12:13:51.078Z</time></trkpt><trkpt lat="46.0928995" lon="13.5566894"><ele>474.0</ele><time>2026-05-03T12:13:52.081Z</time></trkpt><trkpt lat="46.0928245" lon="13.5566247"><ele>474.0</ele><time>2026-05-03T12:13:53.074Z</time></trkpt><trkpt lat="46.0927482" lon="13.5565703"><ele>474.0</ele><time>2026-05-03T12:13:54.088Z</time></trkpt><trkpt lat="46.0926908" lon="13.5565129"><ele>474.0</ele><time>2026-05-03T12:13:55.087Z</time></trkpt><trkpt lat="46.0926461" lon="13.556418"><ele>474.0</ele><time>2026-05-03T12:13:56.082Z</time></trkpt><trkpt lat="46.0926033" lon="13.5562918"><ele>474.0</ele><time>2026-05-03T12:13:57.101Z</time></trkpt><trkpt lat="46.092544" lon="13.5561749"><ele>474.0</ele><time>2026-05-03T12:13:58.082Z</time></trkpt><trkpt lat="46.0924857" lon="13.5560674"><ele>474.0</ele><time>2026-05-03T12:13:59.085Z</time></trkpt><trkpt lat="46.0924477" lon="13.5559692"><ele>474.0</ele><time>2026-05-03T12:14:00.093Z</time></trkpt><trkpt lat="46.0924312" lon="13.555863"><ele>474.0</ele><time>2026-05-03T12:14:01.096Z</time></trkpt><trkpt lat="46.0924199" lon="13.555755"><ele>469.0</ele><time>2026-05-03T12:14:02.086Z</time></trkpt><trkpt lat="46.0924124" lon="13.5556329"><ele>464.0</ele><time>2026-05-03T12:14:03.092Z</time></trkpt><trkpt lat="46.0923972" lon="13.5554923"><ele>459.0</ele><time>2026-05-03T12:14:04.086Z</time></trkpt><trkpt lat="46.0923646" lon="13.5553538"><ele>454.0</ele><time>2026-05-03T12:14:05.099Z</time></trkpt><trkpt lat="46.0923463" lon="13.5552225"><ele>449.0</ele><time>2026-05-03T12:14:06.09Z</time></trkpt><trkpt lat="46.0923381" lon="13.5550841"><ele>449.0</ele><time>2026-05-03T12:14:07.094Z</time></trkpt><trkpt lat="46.0923224" lon="13.5549401"><ele>449.0</ele><time>2026-05-03T12:14:08.094Z</time></trkpt><trkpt lat="46.0922904" lon="13.5547836"><ele>449.0</ele><time>2026-05-03T12:14:09.088Z</time></trkpt><trkpt lat="46.0922559" lon="13.5546254"><ele>449.0</ele><time>2026-05-03T12:14:10.086Z</time></trkpt><trkpt lat="46.0922093" lon="13.5544808"><ele>449.0</ele><time>2026-05-03T12:14:11.085Z</time></trkpt><trkpt lat="46.0921414" lon="13.5543536"><ele>452.3333333333333</ele><time>2026-05-03T12:14:12.073Z</time></trkpt><trkpt lat="46.0920632" lon="13.5542325"><ele>455.66666666666663</ele><time>2026-05-03T12:14:13.09Z</time></trkpt><trkpt lat="46.0920125" lon="13.5541157"><ele>459.0</ele><time>2026-05-03T12:14:14.102Z</time></trkpt><trkpt lat="46.0919933" lon="13.5540109"><ele>462.33333333333337</ele><time>2026-05-03T12:14:15.099Z</time></trkpt><trkpt lat="46.0919938" lon="13.5539015"><ele>465.6666666666667</ele><time>2026-05-03T12:14:16.09Z</time></trkpt><trkpt lat="46.0920129" lon="13.5537787"><ele>469.0</ele><time>2026-05-03T12:14:17.08Z</time></trkpt><trkpt lat="46.0920037" lon="13.5536457"><ele>471.0</ele><time>2026-05-03T12:14:18.081Z</time></trkpt><trkpt lat="46.0919757" lon="13.5535096"><ele>473.0</ele><time>2026-05-03T12:14:19.097Z</time></trkpt><trkpt lat="46.0919327" lon="13.5533752"><ele>475.0</ele><time>2026-05-03T12:14:20.085Z</time></trkpt><trkpt lat="46.0918831" lon="13.5532391"><ele>477.0</ele><time>2026-05-03T12:14:21.096Z</time></trkpt><trkpt lat="46.0918491" lon="13.5531072"><ele>479.0</ele><time>2026-05-03T12:14:22.096Z</time></trkpt><trkpt lat="46.0918408" lon="13.5529737"><ele>478.6</ele><time>2026-05-03T12:14:23.099Z</time></trkpt><trkpt lat="46.0918458" lon="13.5528403"><ele>478.2</ele><time>2026-05-03T12:14:24.106Z</time></trkpt><trkpt lat="46.0918643" lon="13.5527021"><ele>477.80000000000007</ele><time>2026-05-03T12:14:25.105Z</time></trkpt><trkpt lat="46.0918801" lon="13.5525624"><ele>477.40000000000003</ele><time>2026-05-03T12:14:26.103Z</time></trkpt><trkpt lat="46.0918817" lon="13.5524138"><ele>477.0</ele><time>2026-05-03T12:14:27.095Z</time></trkpt><trkpt lat="46.0918744" lon="13.5522721"><ele>477.0</ele><time>2026-05-03T12:14:28.1Z</time></trkpt><trkpt lat="46.0918688" lon="13.5521437"><ele>477.00000000000006</ele><time>2026-05-03T12:14:29.104Z</time></trkpt><trkpt lat="46.0918786" lon="13.5520102"><ele>477.00000000000006</ele><time>2026-05-03T12:14:30.1Z</time></trkpt><trkpt lat="46.0919096" lon="13.5518837"><ele>477.0</ele><time>2026-05-03T12:14:31.101Z</time></trkpt><trkpt lat="46.0919553" lon="13.5517572"><ele>477.0</ele><time>2026-05-03T12:14:32.088Z</time></trkpt><trkpt lat="46.092007" lon="13.55164"><ele>475.5</ele><time>2026-05-03T12:14:33.095Z</time></trkpt><trkpt lat="46.0920574" lon="13.5515436"><ele>474.0</ele><time>2026-05-03T12:14:34.091Z</time></trkpt><trkpt lat="46.0921014" lon="13.5514297"><ele>472.5</ele><time>2026-05-03T12:14:36.098Z</time></trkpt><trkpt lat="46.0920084" lon="13.5513625"><ele>471.0</ele><time>2026-05-03T12:14:39.08Z</time></trkpt><trkpt lat="46.0919276" lon="13.5513857"><ele>469.5</ele><time>2026-05-03T12:14:41.085Z</time></trkpt><trkpt lat="46.0918516" lon="13.5514031"><ele>468.0</ele><time>2026-05-03T12:14:43.088Z</time></trkpt><trkpt lat="46.0917667" lon="13.551411"><ele>468.0</ele><time>2026-05-03T12:14:45.103Z</time></trkpt><trkpt lat="46.0916871" lon="13.5513536"><ele>468.0</ele><time>2026-05-03T12:14:47.087Z</time></trkpt><trkpt lat="46.0916418" lon="13.55126"><ele>468.0</ele><time>2026-05-03T12:14:49.086Z</time></trkpt><trkpt lat="46.0916841" lon="13.551164"><ele>468.0</ele><time>2026-05-03T12:14:51.093Z</time></trkpt><trkpt lat="46.0917391" lon="13.5510804"><ele>468.0</ele><time>2026-05-03T12:14:55.096Z</time></trkpt><trkpt lat="46.0917548" lon="13.5509918"><ele>468.0</ele><time>2026-05-03T12:14:56.112Z</time></trkpt><trkpt lat="46.0917972" lon="13.5508911"><ele>466.0</ele><time>2026-05-03T12:14:57.09Z</time></trkpt><trkpt lat="46.0918702" lon="13.5507657"><ele>463.99999999999994</ele><time>2026-05-03T12:14:58.095Z</time></trkpt><trkpt lat="46.0919313" lon="13.5506696"><ele>461.99999999999994</ele><time>2026-05-03T12:14:59.09Z</time></trkpt><trkpt lat="46.0919683" lon="13.5505828"><ele>460.0</ele><time>2026-05-03T12:15:00.096Z</time></trkpt><trkpt lat="46.0919207" lon="13.5504575"><ele>458.0</ele><time>2026-05-03T12:15:02.088Z</time></trkpt><trkpt lat="46.0918347" lon="13.5504119"><ele>455.59999999999997</ele><time>2026-05-03T12:15:04.081Z</time></trkpt><trkpt lat="46.091826" lon="13.5502609"><ele>453.19999999999993</ele><time>2026-05-03T12:15:06.105Z</time></trkpt><trkpt lat="46.091856" lon="13.550126"><ele>450.8</ele><time>2026-05-03T12:15:08.091Z</time></trkpt><trkpt lat="46.0917409" lon="13.5501616"><ele>448.4</ele><time>2026-05-03T12:15:12.083Z</time></trkpt><trkpt lat="46.091697" lon="13.5502275"><ele>446.0</ele><time>2026-05-03T12:15:13.078Z</time></trkpt><trkpt lat="46.0916018" lon="13.5503571"><ele>443.49999999999994</ele><time>2026-05-03T12:15:15.09Z</time></trkpt><trkpt lat="46.091544" lon="13.5504165"><ele>441.0</ele><time>2026-05-03T12:15:16.081Z</time></trkpt><trkpt lat="46.0914819" lon="13.550479"><ele>438.5</ele><time>2026-05-03T12:15:17.088Z</time></trkpt><trkpt lat="46.0914194" lon="13.5505303"><ele>436.0</ele><time>2026-05-03T12:15:18.081Z</time></trkpt><trkpt lat="46.0913492" lon="13.5505845"><ele>433.49999999999994</ele><time>2026-05-03T12:15:19.09Z</time></trkpt><trkpt lat="46.091279" lon="13.5506386"><ele>431.0</ele><time>2026-05-03T12:15:20.086Z</time></trkpt><trkpt lat="46.091203" lon="13.5507055"><ele>430.99999999999994</ele><time>2026-05-03T12:15:21.084Z</time></trkpt><trkpt lat="46.0911297" lon="13.5507815"><ele>431.0</ele><time>2026-05-03T12:15:22.099Z</time></trkpt><trkpt lat="46.0910648" lon="13.5508588"><ele>431.0</ele><time>2026-05-03T12:15:23.085Z</time></trkpt><trkpt lat="46.0910198" lon="13.5509332"><ele>431.0</ele><time>2026-05-03T12:15:24.097Z</time></trkpt><trkpt lat="46.0909734" lon="13.5510319"><ele>430.99999999999994</ele><time>2026-05-03T12:15:26.089Z</time></trkpt><trkpt lat="46.0909489" lon="13.5511192"><ele>431.0</ele><time>2026-05-03T12:15:28.097Z</time></trkpt><trkpt lat="46.0909032" lon="13.5511874"><ele>431.0</ele><time>2026-05-03T12:15:52.093Z</time></trkpt><trkpt lat="46.090823" lon="13.5511305"><ele>431.0</ele><time>2026-05-03T12:15:55.09Z</time></trkpt><trkpt lat="46.0908763" lon="13.550946"><ele>431.0</ele><time>2026-05-03T12:15:57.094Z</time></trkpt><trkpt lat="46.0909546" lon="13.5508684"><ele>431.0</ele><time>2026-05-03T12:15:58.083Z</time></trkpt><trkpt lat="46.0910251" lon="13.5507882"><ele>431.0</ele><time>2026-05-03T12:15:59.087Z</time></trkpt><trkpt lat="46.0910855" lon="13.5506876"><ele>431.0</ele><time>2026-05-03T12:16:00.093Z</time></trkpt><trkpt lat="46.0911457" lon="13.5505767"><ele>431.0</ele><time>2026-05-03T12:16:01.099Z</time></trkpt><trkpt lat="46.091216" lon="13.5504629"><ele>431.0</ele><time>2026-05-03T12:16:02.09Z</time></trkpt><trkpt lat="46.0912771" lon="13.550349"><ele>431.0</ele><time>2026-05-03T12:16:03.106Z</time></trkpt><trkpt lat="46.0913078" lon="13.5502408"><ele>431.0</ele><time>2026-05-03T12:16:04.087Z</time></trkpt><trkpt lat="46.0913004" lon="13.5501307"><ele>428.6</ele><time>2026-05-03T12:16:05.091Z</time></trkpt><trkpt lat="46.0912592" lon="13.5500353"><ele>426.20000000000005</ele><time>2026-05-03T12:16:06.105Z</time></trkpt><trkpt lat="46.0912069" lon="13.5499371"><ele>423.79999999999995</ele><time>2026-05-03T12:16:07.092Z</time></trkpt><trkpt lat="46.0911573" lon="13.5498229"><ele>421.4</ele><time>2026-05-03T12:16:08.087Z</time></trkpt><trkpt lat="46.0911215" lon="13.549689"><ele>419.0</ele><time>2026-05-03T12:16:09.095Z</time></trkpt><trkpt lat="46.0911031" lon="13.5495502"><ele>417.75</ele><time>2026-05-03T12:16:10.098Z</time></trkpt><trkpt lat="46.0911209" lon="13.5494026"><ele>416.5</ele><time>2026-05-03T12:16:11.111Z</time></trkpt><trkpt lat="46.0911572" lon="13.5492556"><ele>415.25</ele><time>2026-05-03T12:16:12.085Z</time></trkpt><trkpt lat="46.091207" lon="13.549102"><ele>414.0</ele><time>2026-05-03T12:16:13.093Z</time></trkpt><trkpt lat="46.0912581" lon="13.5489424"><ele>414.0</ele><time>2026-05-03T12:16:14.087Z</time></trkpt><trkpt lat="46.0913183" lon="13.5488079"><ele>414.0</ele><time>2026-05-03T12:16:15.087Z</time></trkpt><trkpt lat="46.091396" lon="13.5487045"><ele>414.0</ele><time>2026-05-03T12:16:16.102Z</time></trkpt><trkpt lat="46.0914779" lon="13.5486315"><ele>414.0</ele><time>2026-05-03T12:16:17.09Z</time></trkpt><trkpt lat="46.0915695" lon="13.5485851"><ele>414.0</ele><time>2026-05-03T12:16:18.095Z</time></trkpt><trkpt lat="46.0916725" lon="13.5485525"><ele>414.6</ele><time>2026-05-03T12:16:19.09Z</time></trkpt><trkpt lat="46.091784" lon="13.5485021"><ele>415.2</ele><time>2026-05-03T12:16:20.092Z</time></trkpt><trkpt lat="46.0918819" lon="13.5484335"><ele>415.8</ele><time>2026-05-03T12:16:21.099Z</time></trkpt><trkpt lat="46.0919647" lon="13.5483526"><ele>416.40000000000003</ele><time>2026-05-03T12:16:22.101Z</time></trkpt><trkpt lat="46.0920366" lon="13.5482812"><ele>417.0</ele><time>2026-05-03T12:16:23.093Z</time></trkpt><trkpt lat="46.092092" lon="13.5482116"><ele>417.0</ele><time>2026-05-03T12:16:24.094Z</time></trkpt><trkpt lat="46.0920707" lon="13.5480708"><ele>417.0</ele><time>2026-05-03T12:16:26.099Z</time></trkpt><trkpt lat="46.0920013" lon="13.5480408"><ele>417.0</ele><time>2026-05-03T12:16:27.092Z</time></trkpt><trkpt lat="46.0919164" lon="13.5481004"><ele>417.0</ele><time>2026-05-03T12:16:28.101Z</time></trkpt><trkpt lat="46.0918118" lon="13.5481616"><ele>417.0</ele><time>2026-05-03T12:16:29.093Z</time></trkpt><trkpt lat="46.09169" lon="13.5481981"><ele>415.0</ele><time>2026-05-03T12:16:30.095Z</time></trkpt><trkpt lat="46.0915671" lon="13.5481945"><ele>413.0</ele><time>2026-05-03T12:16:31.086Z</time></trkpt><trkpt lat="46.0914512" lon="13.5481599"><ele>411.0</ele><time>2026-05-03T12:16:32.098Z</time></trkpt><trkpt lat="46.0913396" lon="13.5481082"><ele>409.0</ele><time>2026-05-03T12:16:33.099Z</time></trkpt><trkpt lat="46.0912298" lon="13.5480645"><ele>409.0</ele><time>2026-05-03T12:16:34.09Z</time></trkpt><trkpt lat="46.0911276" lon="13.5480551"><ele>409.0</ele><time>2026-05-03T12:16:35.09Z</time></trkpt><trkpt lat="46.0910272" lon="13.5480884"><ele>409.0</ele><time>2026-05-03T12:16:36.095Z</time></trkpt><trkpt lat="46.0909226" lon="13.5481617"><ele>409.0</ele><time>2026-05-03T12:16:37.098Z</time></trkpt><trkpt lat="46.0908151" lon="13.5482453"><ele>409.0</ele><time>2026-05-03T12:16:38.097Z</time></trkpt><trkpt lat="46.0907062" lon="13.5483257"><ele>406.75</ele><time>2026-05-03T12:16:39.094Z</time></trkpt><trkpt lat="46.0905963" lon="13.5484005"><ele>404.5</ele><time>2026-05-03T12:16:40.11Z</time></trkpt><trkpt lat="46.0904847" lon="13.5484789"><ele>402.25</ele><time>2026-05-03T12:16:41.12Z</time></trkpt><trkpt lat="46.0903742" lon="13.5485594"><ele>400.0</ele><time>2026-05-03T12:16:42.099Z</time></trkpt><trkpt lat="46.0902619" lon="13.5486459"><ele>399.75</ele><time>2026-05-03T12:16:43.102Z</time></trkpt><trkpt lat="46.0901478" lon="13.5487323"><ele>399.5</ele><time>2026-05-03T12:16:44.095Z</time></trkpt><trkpt lat="46.0900306" lon="13.548799"><ele>399.25</ele><time>2026-05-03T12:16:45.108Z</time></trkpt><trkpt lat="46.0899184" lon="13.5488361"><ele>399.0</ele><time>2026-05-03T12:16:46.088Z</time></trkpt><trkpt lat="46.0898042" lon="13.5488287"><ele>397.0</ele><time>2026-05-03T12:16:47.107Z</time></trkpt><trkpt lat="46.0896819" lon="13.5487767"><ele>395.0</ele><time>2026-05-03T12:16:48.094Z</time></trkpt><trkpt lat="46.0895574" lon="13.5487052"><ele>393.0</ele><time>2026-05-03T12:16:49.105Z</time></trkpt><trkpt lat="46.0894379" lon="13.5486117"><ele>391.0</ele><time>2026-05-03T12:16:50.094Z</time></trkpt><trkpt lat="46.0893241" lon="13.5484993"><ele>391.0</ele><time>2026-05-03T12:16:51.102Z</time></trkpt><trkpt lat="46.0892092" lon="13.5483676"><ele>391.0</ele><time>2026-05-03T12:16:52.103Z</time></trkpt><trkpt lat="46.0890955" lon="13.5482355"><ele>391.0</ele><time>2026-05-03T12:16:53.099Z</time></trkpt><trkpt lat="46.0889856" lon="13.5481115"><ele>391.0</ele><time>2026-05-03T12:16:54.111Z</time></trkpt><trkpt lat="46.0888703" lon="13.5480063"><ele>387.75</ele><time>2026-05-03T12:16:55.095Z</time></trkpt><trkpt lat="46.0887521" lon="13.5479441"><ele>384.5</ele><time>2026-05-03T12:16:56.094Z</time></trkpt><trkpt lat="46.0886328" lon="13.5479382"><ele>381.25</ele><time>2026-05-03T12:16:57.105Z</time></trkpt><trkpt lat="46.0885157" lon="13.5479765"><ele>378.0</ele><time>2026-05-03T12:16:58.093Z</time></trkpt><trkpt lat="46.0884131" lon="13.548063"><ele>378.0</ele><time>2026-05-03T12:16:59.103Z</time></trkpt><trkpt lat="46.0883227" lon="13.5481741"><ele>378.0</ele><time>2026-05-03T12:17:00.098Z</time></trkpt><trkpt lat="46.0882456" lon="13.5483102"><ele>378.0</ele><time>2026-05-03T12:17:01.106Z</time></trkpt><trkpt lat="46.0881792" lon="13.5484727"><ele>378.0</ele><time>2026-05-03T12:17:02.1Z</time></trkpt><trkpt lat="46.088132" lon="13.5486476"><ele>374.0</ele><time>2026-05-03T12:17:03.112Z</time></trkpt><trkpt lat="46.0880896" lon="13.548822"><ele>370.0</ele><time>2026-05-03T12:17:04.11Z</time></trkpt><trkpt lat="46.0880605" lon="13.5489776"><ele>366.0</ele><time>2026-05-03T12:17:05.11Z</time></trkpt><trkpt lat="46.08806" lon="13.549116"><ele>362.0</ele><time>2026-05-03T12:17:06.11Z</time></trkpt><trkpt lat="46.0880922" lon="13.5492464"><ele>358.0</ele><time>2026-05-03T12:17:07.111Z</time></trkpt><trkpt lat="46.0881552" lon="13.5493435"><ele>358.0</ele><time>2026-05-03T12:17:08.102Z</time></trkpt><trkpt lat="46.0882454" lon="13.5493986"><ele>358.0</ele><time>2026-05-03T12:17:09.109Z</time></trkpt><trkpt lat="46.0883414" lon="13.5494337"><ele>358.0</ele><time>2026-05-03T12:17:10.1Z</time></trkpt><trkpt lat="46.0884378" lon="13.5494886"><ele>358.0</ele><time>2026-05-03T12:17:11.117Z</time></trkpt><trkpt lat="46.0884892" lon="13.5495937"><ele>358.0</ele><time>2026-05-03T12:17:12.093Z</time></trkpt><trkpt lat="46.0884842" lon="13.549713"><ele>356.2</ele><time>2026-05-03T12:17:13.089Z</time></trkpt><trkpt lat="46.0884361" lon="13.5497999"><ele>354.4</ele><time>2026-05-03T12:17:14.093Z</time></trkpt><trkpt lat="46.0883541" lon="13.5498587"><ele>352.59999999999997</ele><time>2026-05-03T12:17:15.088Z</time></trkpt><trkpt lat="46.0882511" lon="13.5499243"><ele>350.79999999999995</ele><time>2026-05-03T12:17:16.096Z</time></trkpt><trkpt lat="46.088141" lon="13.5499985"><ele>349.0</ele><time>2026-05-03T12:17:17.095Z</time></trkpt><trkpt lat="46.0880237" lon="13.5501029"><ele>349.0</ele><time>2026-05-03T12:17:18.094Z</time></trkpt><trkpt lat="46.0879103" lon="13.5502184"><ele>349.0</ele><time>2026-05-03T12:17:19.09Z</time></trkpt><trkpt lat="46.0878067" lon="13.5503422"><ele>349.0</ele><time>2026-05-03T12:17:20.106Z</time></trkpt><trkpt lat="46.0877217" lon="13.5504942"><ele>349.0</ele><time>2026-05-03T12:17:21.092Z</time></trkpt><trkpt lat="46.08765" lon="13.5506566"><ele>347.5</ele><time>2026-05-03T12:17:22.106Z</time></trkpt><trkpt lat="46.0875825" lon="13.5508185"><ele>346.0</ele><time>2026-05-03T12:17:23.086Z</time></trkpt><trkpt lat="46.0875462" lon="13.5509818"><ele>344.5</ele><time>2026-05-03T12:17:24.095Z</time></trkpt><trkpt lat="46.0875406" lon="13.5511416"><ele>343.0</ele><time>2026-05-03T12:17:25.084Z</time></trkpt><trkpt lat="46.0875979" lon="13.5513085"><ele>341.0</ele><time>2026-05-03T12:17:26.091Z</time></trkpt><trkpt lat="46.0876916" lon="13.5514401"><ele>339.0</ele><time>2026-05-03T12:17:27.087Z</time></trkpt><trkpt lat="46.0877866" lon="13.5515517"><ele>337.0</ele><time>2026-05-03T12:17:28.092Z</time></trkpt><trkpt lat="46.0878635" lon="13.5516751"><ele>335.0</ele><time>2026-05-03T12:17:29.084Z</time></trkpt><trkpt lat="46.0879135" lon="13.5518298"><ele>335.0</ele><time>2026-05-03T12:17:30.088Z</time></trkpt><trkpt lat="46.0879451" lon="13.5520061"><ele>335.0</ele><time>2026-05-03T12:17:31.09Z</time></trkpt><trkpt lat="46.0879808" lon="13.552191"><ele>335.0</ele><time>2026-05-03T12:17:32.096Z</time></trkpt><trkpt lat="46.0880408" lon="13.552384"><ele>335.0</ele><time>2026-05-03T12:17:33.097Z</time></trkpt><trkpt lat="46.088123" lon="13.5525712"><ele>331.6666666666667</ele><time>2026-05-03T12:17:34.112Z</time></trkpt><trkpt lat="46.0882127" lon="13.5527522"><ele>328.3333333333333</ele><time>2026-05-03T12:17:35.091Z</time></trkpt><trkpt lat="46.0883082" lon="13.5529249"><ele>325.0</ele><time>2026-05-03T12:17:36.082Z</time></trkpt><trkpt lat="46.0884178" lon="13.5530864"><ele>325.0</ele><time>2026-05-03T12:17:37.094Z</time></trkpt><trkpt lat="46.0885361" lon="13.5532344"><ele>325.0</ele><time>2026-05-03T12:17:38.081Z</time></trkpt><trkpt lat="46.0886294" lon="13.5533726"><ele>325.0</ele><time>2026-05-03T12:17:39.084Z</time></trkpt><trkpt lat="46.0886872" lon="13.5534943"><ele>325.0</ele><time>2026-05-03T12:17:40.082Z</time></trkpt><trkpt lat="46.0887112" lon="13.5536174"><ele>322.2</ele><time>2026-05-03T12:17:41.085Z</time></trkpt><trkpt lat="46.0886967" lon="13.5537527"><ele>319.4</ele><time>2026-05-03T12:17:42.079Z</time></trkpt><trkpt lat="46.0886635" lon="13.553878"><ele>316.6</ele><time>2026-05-03T12:17:43.084Z</time></trkpt><trkpt lat="46.088645" lon="13.5540298"><ele>313.8</ele><time>2026-05-03T12:17:44.082Z</time></trkpt><trkpt lat="46.0886509" lon="13.554221"><ele>311.0</ele><time>2026-05-03T12:17:45.085Z</time></trkpt><trkpt lat="46.088662" lon="13.5544248"><ele>309.6666666666667</ele><time>2026-05-03T12:17:46.076Z</time></trkpt><trkpt lat="46.0886806" lon="13.554631"><ele>308.3333333333333</ele><time>2026-05-03T12:17:47.083Z</time></trkpt><trkpt lat="46.0887075" lon="13.5548452"><ele>307.0</ele><time>2026-05-03T12:17:48.094Z</time></trkpt><trkpt lat="46.0887483" lon="13.555062"><ele>307.0</ele><time>2026-05-03T12:17:49.076Z</time></trkpt><trkpt lat="46.0887956" lon="13.5552623"><ele>307.0</ele><time>2026-05-03T12:17:50.09Z</time></trkpt><trkpt lat="46.0888533" lon="13.555429"><ele>307.0</ele><time>2026-05-03T12:17:51.077Z</time></trkpt><trkpt lat="46.0889229" lon="13.5555568"><ele>307.0</ele><time>2026-05-03T12:17:52.086Z</time></trkpt><trkpt lat="46.0889881" lon="13.5556659"><ele>305.5</ele><time>2026-05-03T12:17:53.073Z</time></trkpt><trkpt lat="46.0890474" lon="13.5557705"><ele>304.0</ele><time>2026-05-03T12:17:54.086Z</time></trkpt><trkpt lat="46.0890408" lon="13.5559196"><ele>302.5</ele><time>2026-05-03T12:17:55.078Z</time></trkpt><trkpt lat="46.0889959" lon="13.5561127"><ele>301.0</ele><time>2026-05-03T12:17:56.077Z</time></trkpt><trkpt lat="46.0889583" lon="13.5563219"><ele>299.6</ele><time>2026-05-03T12:17:57.077Z</time></trkpt><trkpt lat="46.0889313" lon="13.5565159"><ele>298.20000000000005</ele><time>2026-05-03T12:17:58.078Z</time></trkpt><trkpt lat="46.0889242" lon="13.556682"><ele>296.79999999999995</ele><time>2026-05-03T12:17:59.079Z</time></trkpt><trkpt lat="46.0889565" lon="13.5567899"><ele>295.4</ele><time>2026-05-03T12:18:00.084Z</time></trkpt><trkpt lat="46.0890105" lon="13.5568708"><ele>294.0</ele><time>2026-05-03T12:18:01.08Z</time></trkpt><trkpt lat="46.0890898" lon="13.5569183"><ele>294.8</ele><time>2026-05-03T12:18:02.087Z</time></trkpt><trkpt lat="46.0891574" lon="13.5569596"><ele>295.59999999999997</ele><time>2026-05-03T12:18:03.083Z</time></trkpt><trkpt lat="46.0891111" lon="13.5571318"><ele>296.4</ele><time>2026-05-03T12:18:05.077Z</time></trkpt><trkpt lat="46.0890209" lon="13.5571777"><ele>297.2</ele><time>2026-05-03T12:18:06.079Z</time></trkpt><trkpt lat="46.0889152" lon="13.5572186"><ele>298.0</ele><time>2026-05-03T12:18:07.079Z</time></trkpt><trkpt lat="46.088806" lon="13.5572702"><ele>298.0</ele><time>2026-05-03T12:18:08.093Z</time></trkpt><trkpt lat="46.088746" lon="13.5573724"><ele>298.0</ele><time>2026-05-03T12:18:09.09Z</time></trkpt><trkpt lat="46.0887125" lon="13.5574924"><ele>298.0</ele><time>2026-05-03T12:18:10.088Z</time></trkpt><trkpt lat="46.0886852" lon="13.5576249"><ele>298.0</ele><time>2026-05-03T12:18:11.084Z</time></trkpt><trkpt lat="46.088627" lon="13.557721"><ele>298.0</ele><time>2026-05-03T12:18:12.084Z</time></trkpt><trkpt lat="46.0885331" lon="13.5577776"><ele>298.0</ele><time>2026-05-03T12:18:13.08Z</time></trkpt><trkpt lat="46.0884135" lon="13.5577633"><ele>298.0</ele><time>2026-05-03T12:18:14.077Z</time></trkpt><trkpt lat="46.0882881" lon="13.5576904"><ele>298.0</ele><time>2026-05-03T12:18:15.081Z</time></trkpt><trkpt lat="46.0881603" lon="13.5576154"><ele>298.0</ele><time>2026-05-03T12:18:16.082Z</time></trkpt><trkpt lat="46.0880295" lon="13.5575742"><ele>291.75</ele><time>2026-05-03T12:18:17.087Z</time></trkpt><trkpt lat="46.0878926" lon="13.5575693"><ele>285.5</ele><time>2026-05-03T12:18:18.088Z</time></trkpt><trkpt lat="46.0877717" lon="13.5576041"><ele>279.25</ele><time>2026-05-03T12:18:19.082Z</time></trkpt><trkpt lat="46.0876651" lon="13.5576502"><ele>273.0</ele><time>2026-05-03T12:18:20.083Z</time></trkpt><trkpt lat="46.0875771" lon="13.5577089"><ele>273.0</ele><time>2026-05-03T12:18:21.08Z</time></trkpt><trkpt lat="46.0874813" lon="13.5576681"><ele>273.0</ele><time>2026-05-03T12:18:23.08Z</time></trkpt><trkpt lat="46.0875334" lon="13.5575243"><ele>273.0</ele><time>2026-05-03T12:18:25.089Z</time></trkpt><trkpt lat="46.0876143" lon="13.5574786"><ele>273.0</ele><time>2026-05-03T12:18:26.09Z</time></trkpt><trkpt lat="46.0877087" lon="13.5574373"><ele>273.0</ele><time>2026-05-03T12:18:27.077Z</time></trkpt><trkpt lat="46.0878082" lon="13.5573994"><ele>273.0</ele><time>2026-05-03T12:18:28.087Z</time></trkpt><trkpt lat="46.0879023" lon="13.5573535"><ele>273.0</ele><time>2026-05-03T12:18:29.087Z</time></trkpt><trkpt lat="46.0879992" lon="13.5573295"><ele>273.0</ele><time>2026-05-03T12:18:30.082Z</time></trkpt><trkpt lat="46.0880822" lon="13.5573316"><ele>273.0</ele><time>2026-05-03T12:18:31.086Z</time></trkpt><trkpt lat="46.0881478" lon="13.5573238"><ele>273.0</ele><time>2026-05-03T12:18:32.08Z</time></trkpt><trkpt lat="46.0881862" lon="13.5572235"><ele>273.0</ele><time>2026-05-03T12:18:34.083Z</time></trkpt><trkpt lat="46.0881378" lon="13.5571609"><ele>273.0</ele><time>2026-05-03T12:18:35.079Z</time></trkpt><trkpt lat="46.0880303" lon="13.5571509"><ele>273.0</ele><time>2026-05-03T12:18:36.092Z</time></trkpt><trkpt lat="46.0878855" lon="13.5571727"><ele>273.0</ele><time>2026-05-03T12:18:37.087Z</time></trkpt><trkpt lat="46.0877528" lon="13.5572073"><ele>273.0</ele><time>2026-05-03T12:18:38.08Z</time></trkpt><trkpt lat="46.087613" lon="13.557217"><ele>273.0</ele><time>2026-05-03T12:18:39.089Z</time></trkpt><trkpt lat="46.0874821" lon="13.5571944"><ele>273.0</ele><time>2026-05-03T12:18:40.071Z</time></trkpt><trkpt lat="46.087362" lon="13.557185"><ele>273.0</ele><time>2026-05-03T12:18:41.084Z</time></trkpt><trkpt lat="46.087255" lon="13.5572087"><ele>273.0</ele><time>2026-05-03T12:18:42.082Z</time></trkpt><trkpt lat="46.0871737" lon="13.5572587"><ele>273.0</ele><time>2026-05-03T12:18:43.093Z</time></trkpt><trkpt lat="46.0871294" lon="13.5573431"><ele>262.5</ele><time>2026-05-03T12:18:44.082Z</time></trkpt><trkpt lat="46.0871288" lon="13.5574602"><ele>252.0</ele><time>2026-05-03T12:18:45.089Z</time></trkpt><trkpt lat="46.0871619" lon="13.5576361"><ele>241.5</ele><time>2026-05-03T12:18:46.085Z</time></trkpt><trkpt lat="46.0872137" lon="13.5578304"><ele>231.0</ele><time>2026-05-03T12:18:47.079Z</time></trkpt><trkpt lat="46.0872671" lon="13.5580422"><ele>227.0</ele><time>2026-05-03T12:18:48.087Z</time></trkpt><trkpt lat="46.087321" lon="13.558267"><ele>223.0</ele><time>2026-05-03T12:18:49.09Z</time></trkpt><trkpt lat="46.0873807" lon="13.5585027"><ele>219.0</ele><time>2026-05-03T12:18:50.084Z</time></trkpt><trkpt lat="46.0874457" lon="13.5587496"><ele>231.33333333333331</ele><time>2026-05-03T12:18:51.08Z</time></trkpt><trkpt lat="46.0875067" lon="13.5589975"><ele>243.66666666666666</ele><time>2026-05-03T12:18:52.077Z</time></trkpt><trkpt lat="46.0875613" lon="13.5592401"><ele>256.0</ele><time>2026-05-03T12:18:53.087Z</time></trkpt><trkpt lat="46.0876301" lon="13.5594674"><ele>244.0</ele><time>2026-05-03T12:18:54.083Z</time></trkpt><trkpt lat="46.0877136" lon="13.5596731"><ele>232.0</ele><time>2026-05-03T12:18:55.085Z</time></trkpt><trkpt lat="46.0878024" lon="13.5598643"><ele>220.0</ele><time>2026-05-03T12:18:56.084Z</time></trkpt><trkpt lat="46.0878825" lon="13.5600577"><ele>220.0</ele><time>2026-05-03T12:18:57.084Z</time></trkpt><trkpt lat="46.0879509" lon="13.5602657"><ele>220.0</ele><time>2026-05-03T12:18:58.08Z</time></trkpt><trkpt lat="46.0880251" lon="13.5604498"><ele>220.0</ele><time>2026-05-03T12:18:59.08Z</time></trkpt><trkpt lat="46.0881201" lon="13.5606144"><ele>213.33333333333331</ele><time>2026-05-03T12:19:00.09Z</time></trkpt><trkpt lat="46.0882245" lon="13.5607788"><ele>206.66666666666669</ele><time>2026-05-03T12:19:01.093Z</time></trkpt><trkpt lat="46.0883364" lon="13.5609442"><ele>200.0</ele><time>2026-05-03T12:19:02.075Z</time></trkpt><trkpt lat="46.0884492" lon="13.56112"><ele>200.0</ele><time>2026-05-03T12:19:03.083Z</time></trkpt><trkpt lat="46.0885526" lon="13.5613158"><ele>200.0</ele><time>2026-05-03T12:19:04.087Z</time></trkpt><trkpt lat="46.0886505" lon="13.5615191"><ele>200.0</ele><time>2026-05-03T12:19:05.08Z</time></trkpt><trkpt lat="46.0887453" lon="13.5617265"><ele>200.33333333333334</ele><time>2026-05-03T12:19:06.091Z</time></trkpt><trkpt lat="46.0888417" lon="13.5619368"><ele>200.66666666666669</ele><time>2026-05-03T12:19:07.09Z</time></trkpt><trkpt lat="46.0889344" lon="13.562151"><ele>201.0</ele><time>2026-05-03T12:19:08.084Z</time></trkpt><trkpt lat="46.0890056" lon="13.5623711"><ele>201.0</ele><time>2026-05-03T12:19:09.087Z</time></trkpt><trkpt lat="46.0890594" lon="13.5626121"><ele>201.0</ele><time>2026-05-03T12:19:10.081Z</time></trkpt><trkpt lat="46.0891111" lon="13.5628528"><ele>201.0</ele><time>2026-05-03T12:19:11.085Z</time></trkpt><trkpt lat="46.0891489" lon="13.5631014"><ele>210.33333333333331</ele><time>2026-05-03T12:19:12.089Z</time></trkpt><trkpt lat="46.0891671" lon="13.5633521"><ele>219.66666666666666</ele><time>2026-05-03T12:19:13.087Z</time></trkpt><trkpt lat="46.0891818" lon="13.5635784"><ele>229.0</ele><time>2026-05-03T12:19:14.094Z</time></trkpt><trkpt lat="46.0891744" lon="13.5637958"><ele>229.0</ele><time>2026-05-03T12:19:15.09Z</time></trkpt><trkpt lat="46.0891339" lon="13.5639851"><ele>229.0</ele><time>2026-05-03T12:19:16.083Z</time></trkpt><trkpt lat="46.0890847" lon="13.5641714"><ele>229.0</ele><time>2026-05-03T12:19:17.08Z</time></trkpt><trkpt lat="46.0890364" lon="13.5643688"><ele>229.0</ele><time>2026-05-03T12:19:18.074Z</time></trkpt><trkpt lat="46.0890058" lon="13.5645668"><ele>220.0</ele><time>2026-05-03T12:19:19.089Z</time></trkpt><trkpt lat="46.0889866" lon="13.5647619"><ele>211.0</ele><time>2026-05-03T12:19:20.088Z</time></trkpt><trkpt lat="46.0889727" lon="13.5649577"><ele>202.0</ele><time>2026-05-03T12:19:21.084Z</time></trkpt><trkpt lat="46.088959" lon="13.5651498"><ele>193.0</ele><time>2026-05-03T12:19:22.087Z</time></trkpt><trkpt lat="46.088943" lon="13.5653339"><ele>193.0</ele><time>2026-05-03T12:19:23.082Z</time></trkpt><trkpt lat="46.0889401" lon="13.5654988"><ele>193.0</ele><time>2026-05-03T12:19:24.086Z</time></trkpt><trkpt lat="46.0889754" lon="13.5656422"><ele>193.0</ele><time>2026-05-03T12:19:25.092Z</time></trkpt><trkpt lat="46.089039" lon="13.565787"><ele>193.0</ele><time>2026-05-03T12:19:26.099Z</time></trkpt><trkpt lat="46.089124" lon="13.5659334"><ele>195.2</ele><time>2026-05-03T12:19:27.089Z</time></trkpt><trkpt lat="46.0892085" lon="13.5660782"><ele>197.4</ele><time>2026-05-03T12:19:28.091Z</time></trkpt><trkpt lat="46.0892801" lon="13.5662063"><ele>199.6</ele><time>2026-05-03T12:19:29.085Z</time></trkpt><trkpt lat="46.0893451" lon="13.5663245"><ele>201.79999999999998</ele><time>2026-05-03T12:19:30.088Z</time></trkpt><trkpt lat="46.0893952" lon="13.5664253"><ele>204.0</ele><time>2026-05-03T12:19:31.087Z</time></trkpt><trkpt lat="46.089418" lon="13.5665129"><ele>204.0</ele><time>2026-05-03T12:19:32.074Z</time></trkpt><trkpt lat="46.0893589" lon="13.5666061"><ele>204.0</ele><time>2026-05-03T12:19:34.08Z</time></trkpt><trkpt lat="46.0892507" lon="13.5665205"><ele>204.0</ele><time>2026-05-03T12:19:36.093Z</time></trkpt><trkpt lat="46.0891919" lon="13.5664317"><ele>204.0</ele><time>2026-05-03T12:19:37.077Z</time></trkpt><trkpt lat="46.0891214" lon="13.5663399"><ele>204.0</ele><time>2026-05-03T12:19:38.09Z</time></trkpt><trkpt lat="46.0890409" lon="13.5662365"><ele>201.79999999999998</ele><time>2026-05-03T12:19:39.1Z</time></trkpt><trkpt lat="46.0889582" lon="13.566118"><ele>199.6</ele><time>2026-05-03T12:19:40.094Z</time></trkpt><trkpt lat="46.0888777" lon="13.5660037"><ele>197.4</ele><time>2026-05-03T12:19:41.088Z</time></trkpt><trkpt lat="46.0888057" lon="13.5658969"><ele>195.2</ele><time>2026-05-03T12:19:42.086Z</time></trkpt><trkpt lat="46.088739" lon="13.565796"><ele>193.0</ele><time>2026-05-03T12:19:43.084Z</time></trkpt><trkpt lat="46.0886801" lon="13.5656998"><ele>192.99999999999997</ele><time>2026-05-03T12:19:44.088Z</time></trkpt><trkpt lat="46.0886363" lon="13.5655959"><ele>193.0</ele><time>2026-05-03T12:19:45.093Z</time></trkpt><trkpt lat="46.0886134" lon="13.5654961"><ele>193.0</ele><time>2026-05-03T12:19:46.085Z</time></trkpt><trkpt lat="46.0886143" lon="13.5653971"><ele>193.0</ele><time>2026-05-03T12:19:47.083Z</time></trkpt><trkpt lat="46.0886274" lon="13.5653065"><ele>192.99999999999997</ele><time>2026-05-03T12:19:48.093Z</time></trkpt><trkpt lat="46.0886626" lon="13.5651305"><ele>193.0</ele><time>2026-05-03T12:19:50.094Z</time></trkpt><trkpt lat="46.0886827" lon="13.5650406"><ele>192.99999999999997</ele><time>2026-05-03T12:19:51.097Z</time></trkpt><trkpt lat="46.0886934" lon="13.5649506"><ele>193.0</ele><time>2026-05-03T12:19:52.085Z</time></trkpt><trkpt lat="46.0887021" lon="13.5647643"><ele>193.0</ele><time>2026-05-03T12:19:54.082Z</time></trkpt><trkpt lat="46.0887054" lon="13.5646599"><ele>193.0</ele><time>2026-05-03T12:19:55.084Z</time></trkpt><trkpt lat="46.0886999" lon="13.5645559"><ele>192.99999999999997</ele><time>2026-05-03T12:19:56.084Z</time></trkpt><trkpt lat="46.0886894" lon="13.5644576"><ele>193.0</ele><time>2026-05-03T12:19:57.095Z</time></trkpt><trkpt lat="46.0886822" lon="13.5643636"><ele>193.16666666666666</ele><time>2026-05-03T12:19:58.089Z</time></trkpt><trkpt lat="46.0886765" lon="13.5642694"><ele>193.33333333333331</ele><time>2026-05-03T12:19:59.089Z</time></trkpt><trkpt lat="46.0886661" lon="13.5641631"><ele>193.5</ele><time>2026-05-03T12:20:00.083Z</time></trkpt><trkpt lat="46.0886545" lon="13.5640462"><ele>193.66666666666669</ele><time>2026-05-03T12:20:01.081Z</time></trkpt><trkpt lat="46.0886446" lon="13.563921"><ele>193.83333333333334</ele><time>2026-05-03T12:20:02.085Z</time></trkpt><trkpt lat="46.0886304" lon="13.5637942"><ele>194.0</ele><time>2026-05-03T12:20:03.084Z</time></trkpt><trkpt lat="46.0886085" lon="13.5636709"><ele>194.79999999999998</ele><time>2026-05-03T12:20:04.08Z</time></trkpt><trkpt lat="46.0885776" lon="13.563535"><ele>195.6</ele><time>2026-05-03T12:20:05.085Z</time></trkpt><trkpt lat="46.0885342" lon="13.5633878"><ele>196.4</ele><time>2026-05-03T12:20:06.083Z</time></trkpt><trkpt lat="46.0884845" lon="13.5632415"><ele>197.2</ele><time>2026-05-03T12:20:07.089Z</time></trkpt><trkpt lat="46.0884398" lon="13.5630988"><ele>198.0</ele><time>2026-05-03T12:20:08.082Z</time></trkpt><trkpt lat="46.088389" lon="13.5629227"><ele>199.0</ele><time>2026-05-03T12:20:09.075Z</time></trkpt><trkpt lat="46.0883354" lon="13.5627154"><ele>200.0</ele><time>2026-05-03T12:20:10.091Z</time></trkpt><trkpt lat="46.0882784" lon="13.5624999"><ele>201.0</ele><time>2026-05-03T12:20:11.085Z</time></trkpt><trkpt lat="46.0882283" lon="13.5622987"><ele>198.25</ele><time>2026-05-03T12:20:12.09Z</time></trkpt><trkpt lat="46.088177" lon="13.5621036"><ele>195.5</ele><time>2026-05-03T12:20:13.081Z</time></trkpt><trkpt lat="46.0881137" lon="13.5619218"><ele>192.75</ele><time>2026-05-03T12:20:14.089Z</time></trkpt><trkpt lat="46.0880279" lon="13.5617545"><ele>190.0</ele><time>2026-05-03T12:20:15.092Z</time></trkpt><trkpt lat="46.087928" lon="13.5615872"><ele>190.0</ele><time>2026-05-03T12:20:16.087Z</time></trkpt><trkpt lat="46.0878161" lon="13.5614317"><ele>190.0</ele><time>2026-05-03T12:20:17.086Z</time></trkpt><trkpt lat="46.0876915" lon="13.561279"><ele>190.0</ele><time>2026-05-03T12:20:18.079Z</time></trkpt><trkpt lat="46.0875644" lon="13.5611243"><ele>188.0</ele><time>2026-05-03T12:20:19.096Z</time></trkpt><trkpt lat="46.0874396" lon="13.5609687"><ele>186.0</ele><time>2026-05-03T12:20:20.08Z</time></trkpt><trkpt lat="46.0873202" lon="13.5608132"><ele>184.0</ele><time>2026-05-03T12:20:21.083Z</time></trkpt><trkpt lat="46.0872009" lon="13.5606643"><ele>184.0</ele><time>2026-05-03T12:20:22.081Z</time></trkpt><trkpt lat="46.0870797" lon="13.5605249"><ele>184.0</ele><time>2026-05-03T12:20:23.08Z</time></trkpt><trkpt lat="46.0869637" lon="13.5603725"><ele>184.0</ele><time>2026-05-03T12:20:24.089Z</time></trkpt><trkpt lat="46.0868502" lon="13.5602025"><ele>181.66666666666669</ele><time>2026-05-03T12:20:25.088Z</time></trkpt><trkpt lat="46.0867438" lon="13.5600202"><ele>179.33333333333334</ele><time>2026-05-03T12:20:26.077Z</time></trkpt><trkpt lat="46.0866452" lon="13.5598302"><ele>177.0</ele><time>2026-05-03T12:20:27.083Z</time></trkpt><trkpt lat="46.0865476" lon="13.5596413"><ele>177.0</ele><time>2026-05-03T12:20:28.087Z</time></trkpt><trkpt lat="46.0864651" lon="13.5594383"><ele>177.0</ele><time>2026-05-03T12:20:29.082Z</time></trkpt><trkpt lat="46.0863984" lon="13.5592137"><ele>177.0</ele><time>2026-05-03T12:20:30.078Z</time></trkpt><trkpt lat="46.0863315" lon="13.5589833"><ele>177.0</ele><time>2026-05-03T12:20:31.092Z</time></trkpt><trkpt lat="46.0862636" lon="13.5587394"><ele>177.0</ele><time>2026-05-03T12:20:32.093Z</time></trkpt><trkpt lat="46.0861985" lon="13.5585002"><ele>177.0</ele><time>2026-05-03T12:20:33.089Z</time></trkpt><trkpt lat="46.0861271" lon="13.5582721"><ele>178.66666666666666</ele><time>2026-05-03T12:20:34.088Z</time></trkpt><trkpt lat="46.086048" lon="13.5580537"><ele>180.33333333333331</ele><time>2026-05-03T12:20:35.091Z</time></trkpt><trkpt lat="46.0859722" lon="13.5578322"><ele>182.0</ele><time>2026-05-03T12:20:36.086Z</time></trkpt><trkpt lat="46.0858885" lon="13.5576165"><ele>184.66666666666666</ele><time>2026-05-03T12:20:37.087Z</time></trkpt><trkpt lat="46.0858057" lon="13.557405"><ele>187.33333333333334</ele><time>2026-05-03T12:20:38.09Z</time></trkpt><trkpt lat="46.0857203" lon="13.5571969"><ele>190.0</ele><time>2026-05-03T12:20:39.089Z</time></trkpt><trkpt lat="46.0856326" lon="13.5569899"><ele>184.0</ele><time>2026-05-03T12:20:40.094Z</time></trkpt><trkpt lat="46.0855442" lon="13.5567711"><ele>178.0</ele><time>2026-05-03T12:20:41.093Z</time></trkpt><trkpt lat="46.0854552" lon="13.5565639"><ele>172.0</ele><time>2026-05-03T12:20:42.084Z</time></trkpt><trkpt lat="46.0853509" lon="13.5563749"><ele>172.0</ele><time>2026-05-03T12:20:43.088Z</time></trkpt><trkpt lat="46.0852368" lon="13.5562082"><ele>172.0</ele><time>2026-05-03T12:20:44.088Z</time></trkpt><trkpt lat="46.0851207" lon="13.5560495"><ele>172.0</ele><time>2026-05-03T12:20:45.093Z</time></trkpt><trkpt lat="46.0849956" lon="13.5559033"><ele>173.0</ele><time>2026-05-03T12:20:46.083Z</time></trkpt><trkpt lat="46.0848615" lon="13.5557625"><ele>174.0</ele><time>2026-05-03T12:20:47.087Z</time></trkpt><trkpt lat="46.0847259" lon="13.5556241"><ele>175.0</ele><time>2026-05-03T12:20:48.08Z</time></trkpt><trkpt lat="46.0845931" lon="13.555487"><ele>174.66666666666669</ele><time>2026-05-03T12:20:49.078Z</time></trkpt><trkpt lat="46.0844689" lon="13.5553461"><ele>174.33333333333334</ele><time>2026-05-03T12:20:50.088Z</time></trkpt><trkpt lat="46.0843661" lon="13.5551935"><ele>174.0</ele><time>2026-05-03T12:20:51.09Z</time></trkpt><trkpt lat="46.0842873" lon="13.5550012"><ele>174.0</ele><time>2026-05-03T12:20:52.088Z</time></trkpt><trkpt lat="46.0842265" lon="13.5547987"><ele>174.0</ele><time>2026-05-03T12:20:53.095Z</time></trkpt><trkpt lat="46.0841827" lon="13.5545977"><ele>174.0</ele><time>2026-05-03T12:20:54.102Z</time></trkpt><trkpt lat="46.0841506" lon="13.5543937"><ele>174.0</ele><time>2026-05-03T12:20:55.093Z</time></trkpt><trkpt lat="46.0841382" lon="13.5541879"><ele>173.75</ele><time>2026-05-03T12:20:56.084Z</time></trkpt><trkpt lat="46.0841541" lon="13.5539894"><ele>173.5</ele><time>2026-05-03T12:20:57.098Z</time></trkpt><trkpt lat="46.0841939" lon="13.5537835"><ele>173.25</ele><time>2026-05-03T12:20:58.09Z</time></trkpt><trkpt lat="46.084248" lon="13.5535722"><ele>173.0</ele><time>2026-05-03T12:20:59.091Z</time></trkpt><trkpt lat="46.0843086" lon="13.5533518"><ele>172.0</ele><time>2026-05-03T12:21:00.082Z</time></trkpt><trkpt lat="46.0843775" lon="13.5531326"><ele>171.0</ele><time>2026-05-03T12:21:01.09Z</time></trkpt><trkpt lat="46.0844506" lon="13.552917"><ele>170.0</ele><time>2026-05-03T12:21:02.084Z</time></trkpt><trkpt lat="46.084518" lon="13.5527056"><ele>169.66666666666666</ele><time>2026-05-03T12:21:03.083Z</time></trkpt><trkpt lat="46.0845855" lon="13.5525003"><ele>169.33333333333334</ele><time>2026-05-03T12:21:04.087Z</time></trkpt><trkpt lat="46.0846475" lon="13.5523043"><ele>169.0</ele><time>2026-05-03T12:21:05.091Z</time></trkpt><trkpt lat="46.0847023" lon="13.5521066"><ele>169.75</ele><time>2026-05-03T12:21:06.08Z</time></trkpt><trkpt lat="46.0847325" lon="13.5519081"><ele>170.5</ele><time>2026-05-03T12:21:07.082Z</time></trkpt><trkpt lat="46.084735" lon="13.5517095"><ele>171.25</ele><time>2026-05-03T12:21:08.08Z</time></trkpt><trkpt lat="46.0847137" lon="13.5515159"><ele>172.0</ele><time>2026-05-03T12:21:09.087Z</time></trkpt><trkpt lat="46.0846621" lon="13.5513378"><ele>175.75</ele><time>2026-05-03T12:21:10.072Z</time></trkpt><trkpt lat="46.0845809" lon="13.5511839"><ele>179.5</ele><time>2026-05-03T12:21:11.081Z</time></trkpt><trkpt lat="46.0844885" lon="13.5510433"><ele>183.25</ele><time>2026-05-03T12:21:12.107Z</time></trkpt><trkpt lat="46.0843951" lon="13.5509144"><ele>187.0</ele><time>2026-05-03T12:21:13.093Z</time></trkpt><trkpt lat="46.0842975" lon="13.5508317"><ele>187.0</ele><time>2026-05-03T12:21:14.072Z</time></trkpt><trkpt lat="46.0841817" lon="13.5508026"><ele>187.0</ele><time>2026-05-03T12:21:15.08Z</time></trkpt><trkpt lat="46.0840414" lon="13.5507905"><ele>187.0</ele><time>2026-05-03T12:21:16.079Z</time></trkpt><trkpt lat="46.0838947" lon="13.5507685"><ele>187.0</ele><time>2026-05-03T12:21:17.083Z</time></trkpt><trkpt lat="46.0837407" lon="13.5507452"><ele>183.5</ele><time>2026-05-03T12:21:18.085Z</time></trkpt><trkpt lat="46.0835826" lon="13.55073"><ele>180.0</ele><time>2026-05-03T12:21:19.091Z</time></trkpt><trkpt lat="46.0834355" lon="13.5507111"><ele>176.5</ele><time>2026-05-03T12:21:20.077Z</time></trkpt><trkpt lat="46.083297" lon="13.5506977"><ele>173.0</ele><time>2026-05-03T12:21:21.081Z</time></trkpt><trkpt lat="46.0831681" lon="13.5506491"><ele>171.0</ele><time>2026-05-03T12:21:22.078Z</time></trkpt><trkpt lat="46.0830703" lon="13.550537"><ele>169.0</ele><time>2026-05-03T12:21:23.093Z</time></trkpt><trkpt lat="46.0830015" lon="13.5504011"><ele>167.0</ele><time>2026-05-03T12:21:24.086Z</time></trkpt><trkpt lat="46.0829699" lon="13.550248"><ele>165.0</ele><time>2026-05-03T12:21:25.089Z</time></trkpt><trkpt lat="46.0829707" lon="13.5500681"><ele>164.25</ele><time>2026-05-03T12:21:26.093Z</time></trkpt><trkpt lat="46.0829964" lon="13.5498832"><ele>163.5</ele><time>2026-05-03T12:21:27.09Z</time></trkpt><trkpt lat="46.0830343" lon="13.5496844"><ele>162.75</ele><time>2026-05-03T12:21:28.081Z</time></trkpt><trkpt lat="46.083069" lon="13.5494784"><ele>162.0</ele><time>2026-05-03T12:21:29.093Z</time></trkpt><trkpt lat="46.0830978" lon="13.5492675"><ele>161.75</ele><time>2026-05-03T12:21:30.088Z</time></trkpt><trkpt lat="46.0831253" lon="13.5490601"><ele>161.5</ele><time>2026-05-03T12:21:31.09Z</time></trkpt><trkpt lat="46.0831638" lon="13.5488601"><ele>161.25</ele><time>2026-05-03T12:21:32.092Z</time></trkpt><trkpt lat="46.0832102" lon="13.5486607"><ele>161.0</ele><time>2026-05-03T12:21:33.095Z</time></trkpt><trkpt lat="46.0832637" lon="13.5484561"><ele>163.33333333333331</ele><time>2026-05-03T12:21:34.095Z</time></trkpt><trkpt lat="46.0833153" lon="13.5482496"><ele>165.66666666666666</ele><time>2026-05-03T12:21:35.094Z</time></trkpt><trkpt lat="46.0833665" lon="13.5480326"><ele>168.0</ele><time>2026-05-03T12:21:36.087Z</time></trkpt><trkpt lat="46.0834149" lon="13.5478197"><ele>168.0</ele><time>2026-05-03T12:21:37.097Z</time></trkpt><trkpt lat="46.083463" lon="13.5476045"><ele>168.0</ele><time>2026-05-03T12:21:38.092Z</time></trkpt><trkpt lat="46.0835103" lon="13.5473905"><ele>168.0</ele><time>2026-05-03T12:21:39.085Z</time></trkpt><trkpt lat="46.083556" lon="13.5471875"><ele>167.0</ele><time>2026-05-03T12:21:40.087Z</time></trkpt><trkpt lat="46.0835953" lon="13.5469861"><ele>166.0</ele><time>2026-05-03T12:21:41.082Z</time></trkpt><trkpt lat="46.0836124" lon="13.5467726"><ele>165.0</ele><time>2026-05-03T12:21:42.081Z</time></trkpt><trkpt lat="46.0836061" lon="13.5465602"><ele>164.0</ele><time>2026-05-03T12:21:43.083Z</time></trkpt><trkpt lat="46.0835715" lon="13.5463433"><ele>164.0</ele><time>2026-05-03T12:21:44.077Z</time></trkpt><trkpt lat="46.0835235" lon="13.5461199"><ele>164.0</ele><time>2026-05-03T12:21:45.086Z</time></trkpt><trkpt lat="46.0834821" lon="13.5458946"><ele>164.0</ele><time>2026-05-03T12:21:46.078Z</time></trkpt><trkpt lat="46.0834463" lon="13.545664"><ele>164.0</ele><time>2026-05-03T12:21:47.078Z</time></trkpt><trkpt lat="46.0834111" lon="13.5454337"><ele>164.0</ele><time>2026-05-03T12:21:48.083Z</time></trkpt><trkpt lat="46.0833817" lon="13.5451974"><ele>164.0</ele><time>2026-05-03T12:21:49.072Z</time></trkpt><trkpt lat="46.0833433" lon="13.544967"><ele>162.66666666666666</ele><time>2026-05-03T12:21:50.083Z</time></trkpt><trkpt lat="46.0832988" lon="13.5447436"><ele>161.33333333333334</ele><time>2026-05-03T12:21:51.083Z</time></trkpt><trkpt lat="46.0832448" lon="13.544528"><ele>160.0</ele><time>2026-05-03T12:21:52.077Z</time></trkpt><trkpt lat="46.0831889" lon="13.54431"><ele>160.0</ele><time>2026-05-03T12:21:53.077Z</time></trkpt><trkpt lat="46.0831201" lon="13.5441018"><ele>160.0</ele><time>2026-05-03T12:21:54.076Z</time></trkpt><trkpt lat="46.0830475" lon="13.5438933"><ele>160.0</ele><time>2026-05-03T12:21:55.084Z</time></trkpt><trkpt lat="46.0829693" lon="13.5436853"><ele>159.0</ele><time>2026-05-03T12:21:56.078Z</time></trkpt><trkpt lat="46.0828963" lon="13.543477"><ele>158.0</ele><time>2026-05-03T12:21:57.089Z</time></trkpt><trkpt lat="46.0828266" lon="13.5432939"><ele>157.0</ele><time>2026-05-03T12:21:58.097Z</time></trkpt><trkpt lat="46.0827673" lon="13.5431427"><ele>156.0</ele><time>2026-05-03T12:21:59.089Z</time></trkpt><trkpt lat="46.0827178" lon="13.5430348"><ele>156.0</ele><time>2026-05-03T12:22:00.088Z</time></trkpt><trkpt lat="46.0826833" lon="13.5429477"><ele>156.0</ele><time>2026-05-03T12:22:01.089Z</time></trkpt><trkpt lat="46.0826689" lon="13.5427722"><ele>156.0</ele><time>2026-05-03T12:22:03.095Z</time></trkpt><trkpt lat="46.082701" lon="13.5426497"><ele>156.0</ele><time>2026-05-03T12:22:04.101Z</time></trkpt><trkpt lat="46.0827398" lon="13.5425046"><ele>156.0</ele><time>2026-05-03T12:22:05.078Z</time></trkpt><trkpt lat="46.0827787" lon="13.5423607"><ele>157.2</ele><time>2026-05-03T12:22:06.079Z</time></trkpt><trkpt lat="46.0828144" lon="13.5422272"><ele>158.39999999999998</ele><time>2026-05-03T12:22:07.083Z</time></trkpt><trkpt lat="46.0828513" lon="13.542107"><ele>159.6</ele><time>2026-05-03T12:22:08.076Z</time></trkpt><trkpt lat="46.0828907" lon="13.5419818"><ele>160.79999999999998</ele><time>2026-05-03T12:22:09.09Z</time></trkpt><trkpt lat="46.0829331" lon="13.5418529"><ele>162.0</ele><time>2026-05-03T12:22:10.079Z</time></trkpt><trkpt lat="46.0829807" lon="13.5417246"><ele>165.8</ele><time>2026-05-03T12:22:11.094Z</time></trkpt><trkpt lat="46.0830292" lon="13.5415898"><ele>169.6</ele><time>2026-05-03T12:22:12.086Z</time></trkpt><trkpt lat="46.0830757" lon="13.5414451"><ele>173.4</ele><time>2026-05-03T12:22:13.075Z</time></trkpt><trkpt lat="46.083125" lon="13.5412973"><ele>177.20000000000002</ele><time>2026-05-03T12:22:14.077Z</time></trkpt><trkpt lat="46.0831798" lon="13.5411467"><ele>181.0</ele><time>2026-05-03T12:22:15.083Z</time></trkpt><trkpt lat="46.0832413" lon="13.5409909"><ele>180.4</ele><time>2026-05-03T12:22:16.088Z</time></trkpt><trkpt lat="46.0833051" lon="13.5408389"><ele>179.8</ele><time>2026-05-03T12:22:17.075Z</time></trkpt><trkpt lat="46.0833649" lon="13.5406911"><ele>179.20000000000002</ele><time>2026-05-03T12:22:18.076Z</time></trkpt><trkpt lat="46.0834098" lon="13.5405524"><ele>178.60000000000002</ele><time>2026-05-03T12:22:19.078Z</time></trkpt><trkpt lat="46.0834516" lon="13.5404338"><ele>178.0</ele><time>2026-05-03T12:22:20.077Z</time></trkpt><trkpt lat="46.083506" lon="13.5403388"><ele>180.0</ele><time>2026-05-03T12:22:21.085Z</time></trkpt><trkpt lat="46.0835651" lon="13.540242"><ele>182.0</ele><time>2026-05-03T12:22:22.078Z</time></trkpt><trkpt lat="46.0836411" lon="13.5401643"><ele>184.0</ele><time>2026-05-03T12:22:23.082Z</time></trkpt><trkpt lat="46.0837303" lon="13.5400763"><ele>186.0</ele><time>2026-05-03T12:22:24.09Z</time></trkpt><trkpt lat="46.0838292" lon="13.5400031"><ele>188.0</ele><time>2026-05-03T12:22:25.089Z</time></trkpt><trkpt lat="46.0839314" lon="13.5399385"><ele>188.0</ele><time>2026-05-03T12:22:26.08Z</time></trkpt><trkpt lat="46.0840232" lon="13.5398857"><ele>188.0</ele><time>2026-05-03T12:22:27.085Z</time></trkpt><trkpt lat="46.0841063" lon="13.5398472"><ele>188.0</ele><time>2026-05-03T12:22:28.081Z</time></trkpt><trkpt lat="46.0841806" lon="13.5397911"><ele>188.0</ele><time>2026-05-03T12:22:29.075Z</time></trkpt><trkpt lat="46.0842398" lon="13.539717"><ele>188.0</ele><time>2026-05-03T12:22:30.092Z</time></trkpt><trkpt lat="46.0842983" lon="13.5396472"><ele>188.0</ele><time>2026-05-03T12:22:31.086Z</time></trkpt><trkpt lat="46.0843396" lon="13.5395677"><ele>187.28571428571428</ele><time>2026-05-03T12:22:32.088Z</time></trkpt><trkpt lat="46.0843728" lon="13.5394824"><ele>186.57142857142856</ele><time>2026-05-03T12:22:33.098Z</time></trkpt><trkpt lat="46.0844107" lon="13.5393914"><ele>185.85714285714286</ele><time>2026-05-03T12:22:34.084Z</time></trkpt><trkpt lat="46.0844556" lon="13.5392971"><ele>185.14285714285714</ele><time>2026-05-03T12:22:35.088Z</time></trkpt><trkpt lat="46.084508" lon="13.5392154"><ele>184.42857142857144</ele><time>2026-05-03T12:22:36.095Z</time></trkpt><trkpt lat="46.0845601" lon="13.5391501"><ele>183.71428571428572</ele><time>2026-05-03T12:22:37.095Z</time></trkpt><trkpt lat="46.0846195" lon="13.5391028"><ele>183.0</ele><time>2026-05-03T12:22:38.09Z</time></trkpt><trkpt lat="46.0846854" lon="13.5390755"><ele>183.0</ele><time>2026-05-03T12:22:39.083Z</time></trkpt><trkpt lat="46.0847588" lon="13.5390797"><ele>183.0</ele><time>2026-05-03T12:22:40.09Z</time></trkpt><trkpt lat="46.084844" lon="13.5391051"><ele>183.0</ele><time>2026-05-03T12:22:41.079Z</time></trkpt><trkpt lat="46.0849282" lon="13.5391204"><ele>183.0</ele><time>2026-05-03T12:22:42.091Z</time></trkpt><trkpt lat="46.0850138" lon="13.5391352"><ele>183.0</ele><time>2026-05-03T12:22:43.087Z</time></trkpt><trkpt lat="46.0850899" lon="13.5391255"><ele>183.0</ele><time>2026-05-03T12:22:44.077Z</time></trkpt><trkpt lat="46.0851552" lon="13.5390967"><ele>184.0</ele><time>2026-05-03T12:22:45.086Z</time></trkpt><trkpt lat="46.0852255" lon="13.5390294"><ele>185.0</ele><time>2026-05-03T12:22:46.079Z</time></trkpt><trkpt lat="46.0853026" lon="13.5389596"><ele>186.0</ele><time>2026-05-03T12:22:47.091Z</time></trkpt><trkpt lat="46.0853805" lon="13.5389048"><ele>187.0</ele><time>2026-05-03T12:22:48.082Z</time></trkpt><trkpt lat="46.0854594" lon="13.5388854"><ele>188.0</ele><time>2026-05-03T12:22:49.096Z</time></trkpt><trkpt lat="46.0855377" lon="13.5388788"><ele>189.0</ele><time>2026-05-03T12:22:50.085Z</time></trkpt><trkpt lat="46.0856215" lon="13.5388809"><ele>189.0</ele><time>2026-05-03T12:22:51.08Z</time></trkpt><trkpt lat="46.0857103" lon="13.5388668"><ele>189.0</ele><time>2026-05-03T12:22:52.082Z</time></trkpt><trkpt lat="46.0858043" lon="13.5388474"><ele>189.0</ele><time>2026-05-03T12:22:53.092Z</time></trkpt><trkpt lat="46.0858971" lon="13.5388277"><ele>189.0</ele><time>2026-05-03T12:22:54.087Z</time></trkpt><trkpt lat="46.0859875" lon="13.5388098"><ele>189.0</ele><time>2026-05-03T12:22:55.084Z</time></trkpt><trkpt lat="46.0860727" lon="13.5387915"><ele>189.16666666666666</ele><time>2026-05-03T12:22:56.076Z</time></trkpt><trkpt lat="46.0861407" lon="13.5387638"><ele>189.33333333333334</ele><time>2026-05-03T12:22:57.1Z</time></trkpt><trkpt lat="46.0862074" lon="13.5387268"><ele>189.5</ele><time>2026-05-03T12:22:58.072Z</time></trkpt><trkpt lat="46.0862789" lon="13.5386903"><ele>189.66666666666669</ele><time>2026-05-03T12:22:59.086Z</time></trkpt><trkpt lat="46.0863821" lon="13.5386777"><ele>189.83333333333334</ele><time>2026-05-03T12:23:01.086Z</time></trkpt><trkpt lat="46.086441" lon="13.5387701"><ele>190.0</ele><time>2026-05-03T12:23:03.073Z</time></trkpt><trkpt lat="46.0865073" lon="13.5389258"><ele>191.66666666666669</ele><time>2026-05-03T12:23:05.081Z</time></trkpt><trkpt lat="46.0865472" lon="13.5389994"><ele>193.33333333333334</ele><time>2026-05-03T12:23:06.089Z</time></trkpt><trkpt lat="46.0866355" lon="13.5390841"><ele>195.0</ele><time>2026-05-03T12:23:08.081Z</time></trkpt><trkpt lat="46.0867098" lon="13.5391355"><ele>196.66666666666669</ele><time>2026-05-03T12:23:10.079Z</time></trkpt><trkpt lat="46.0867922" lon="13.5391886"><ele>198.33333333333334</ele><time>2026-05-03T12:23:12.078Z</time></trkpt><trkpt lat="46.0868653" lon="13.5392102"><ele>200.0</ele><time>2026-05-03T12:23:14.081Z</time></trkpt><trkpt lat="46.0869285" lon="13.5392367"><ele>200.83333333333334</ele><time>2026-05-03T12:23:32.079Z</time></trkpt><trkpt lat="46.0869936" lon="13.5392174"><ele>201.66666666666669</ele><time>2026-05-03T12:23:35.072Z</time></trkpt><trkpt lat="46.08707" lon="13.5391866"><ele>202.5</ele><time>2026-05-03T12:23:41.073Z</time></trkpt><trkpt lat="46.0871463" lon="13.5391635"><ele>203.33333333333331</ele><time>2026-05-03T12:23:44.074Z</time></trkpt><trkpt lat="46.087256" lon="13.5391672"><ele>204.16666666666666</ele><time>2026-05-03T12:23:46.075Z</time></trkpt><trkpt lat="46.0873195" lon="13.5391298"><ele>205.0</ele><time>2026-05-03T12:23:47.087Z</time></trkpt><trkpt lat="46.0873837" lon="13.5390804"><ele>205.49999999999997</ele><time>2026-05-03T12:23:48.074Z</time></trkpt><trkpt lat="46.0874431" lon="13.5390257"><ele>206.0</ele><time>2026-05-03T12:23:49.085Z</time></trkpt><trkpt lat="46.0874873" lon="13.5389565"><ele>206.5</ele><time>2026-05-03T12:23:50.07Z</time></trkpt><trkpt lat="46.0875524" lon="13.5387877"><ele>207.0</ele><time>2026-05-03T12:23:52.071Z</time></trkpt><trkpt lat="46.0876019" lon="13.5386991"><ele>207.49999999999997</ele><time>2026-05-03T12:23:53.076Z</time></trkpt><trkpt lat="46.0876666" lon="13.5386304"><ele>208.0</ele><time>2026-05-03T12:23:54.079Z</time></trkpt><trkpt lat="46.0877325" lon="13.5385913"><ele>208.60000000000002</ele><time>2026-05-03T12:23:55.072Z</time></trkpt><trkpt lat="46.0878023" lon="13.5385613"><ele>209.20000000000002</ele><time>2026-05-03T12:23:56.089Z</time></trkpt><trkpt lat="46.0878835" lon="13.5385497"><ele>209.8</ele><time>2026-05-03T12:23:57.073Z</time></trkpt><trkpt lat="46.0879525" lon="13.5385462"><ele>210.4</ele><time>2026-05-03T12:23:58.077Z</time></trkpt><trkpt lat="46.0880738" lon="13.5385622"><ele>211.0</ele><time>2026-05-03T12:24:00.073Z</time></trkpt><trkpt lat="46.08818" lon="13.5386144"><ele>212.20000000000002</ele><time>2026-05-03T12:24:02.077Z</time></trkpt><trkpt lat="46.0882899" lon="13.5386744"><ele>213.4</ele><time>2026-05-03T12:24:04.085Z</time></trkpt><trkpt lat="46.0884057" lon="13.5386934"><ele>214.6</ele><time>2026-05-03T12:24:06.082Z</time></trkpt><trkpt lat="46.0884706" lon="13.5386849"><ele>215.8</ele><time>2026-05-03T12:24:08.076Z</time></trkpt><trkpt lat="46.0885453" lon="13.5386077"><ele>217.0</ele><time>2026-05-03T12:24:19.082Z</time></trkpt><trkpt lat="46.0886016" lon="13.5385427"><ele>217.0</ele><time>2026-05-03T12:24:20.096Z</time></trkpt><trkpt lat="46.0886571" lon="13.5384685"><ele>217.0</ele><time>2026-05-03T12:24:21.088Z</time></trkpt><trkpt lat="46.0887316" lon="13.5383757"><ele>217.0</ele><time>2026-05-03T12:24:22.098Z</time></trkpt><trkpt lat="46.0888161" lon="13.5382785"><ele>217.0</ele><time>2026-05-03T12:24:23.095Z</time></trkpt><trkpt lat="46.0889051" lon="13.5381799"><ele>217.0</ele><time>2026-05-03T12:24:24.094Z</time></trkpt><trkpt lat="46.0890023" lon="13.5380748"><ele>220.0</ele><time>2026-05-03T12:24:25.084Z</time></trkpt><trkpt lat="46.0890938" lon="13.5379747"><ele>223.0</ele><time>2026-05-03T12:24:26.088Z</time></trkpt><trkpt lat="46.0891743" lon="13.5378825"><ele>226.0</ele><time>2026-05-03T12:24:27.08Z</time></trkpt><trkpt lat="46.0892502" lon="13.5378026"><ele>229.0</ele><time>2026-05-03T12:24:28.092Z</time></trkpt><trkpt lat="46.0893091" lon="13.5377308"><ele>232.0</ele><time>2026-05-03T12:24:29.099Z</time></trkpt><trkpt lat="46.0894011" lon="13.5376414"><ele>232.0</ele><time>2026-05-03T12:24:31.086Z</time></trkpt><trkpt lat="46.0893768" lon="13.5377851"><ele>232.0</ele><time>2026-05-03T12:24:34.087Z</time></trkpt><trkpt lat="46.0893286" lon="13.5379044"><ele>232.0</ele><time>2026-05-03T12:24:35.078Z</time></trkpt><trkpt lat="46.0892789" lon="13.538024"><ele>232.0</ele><time>2026-05-03T12:24:36.085Z</time></trkpt><trkpt lat="46.0892305" lon="13.5381676"><ele>232.0</ele><time>2026-05-03T12:24:37.076Z</time></trkpt><trkpt lat="46.0891925" lon="13.5383104"><ele>232.83333333333331</ele><time>2026-05-03T12:24:38.09Z</time></trkpt><trkpt lat="46.08916" lon="13.5384566"><ele>233.66666666666666</ele><time>2026-05-03T12:24:39.082Z</time></trkpt><trkpt lat="46.089136" lon="13.5385827"><ele>234.5</ele><time>2026-05-03T12:24:40.085Z</time></trkpt><trkpt lat="46.0891264" lon="13.5386995"><ele>235.33333333333331</ele><time>2026-05-03T12:24:41.084Z</time></trkpt><trkpt lat="46.0891239" lon="13.5388043"><ele>236.16666666666666</ele><time>2026-05-03T12:24:42.091Z</time></trkpt><trkpt lat="46.0891343" lon="13.5388946"><ele>237.0</ele><time>2026-05-03T12:24:43.093Z</time></trkpt><trkpt lat="46.0892162" lon="13.5390056"><ele>236.99999999999997</ele><time>2026-05-03T12:24:45.086Z</time></trkpt><trkpt lat="46.0892781" lon="13.5390281"><ele>237.0</ele><time>2026-05-03T12:24:46.083Z</time></trkpt><trkpt lat="46.0893465" lon="13.5390398"><ele>236.99999999999997</ele><time>2026-05-03T12:24:47.088Z</time></trkpt><trkpt lat="46.0894249" lon="13.5390413"><ele>236.99999999999997</ele><time>2026-05-03T12:24:48.078Z</time></trkpt><trkpt lat="46.089505" lon="13.5390268"><ele>237.0</ele><time>2026-05-03T12:24:49.094Z</time></trkpt><trkpt lat="46.0895714" lon="13.5389876"><ele>236.99999999999997</ele><time>2026-05-03T12:24:50.092Z</time></trkpt><trkpt lat="46.0896373" lon="13.5389152"><ele>236.99999999999997</ele><time>2026-05-03T12:24:51.081Z</time></trkpt><trkpt lat="46.0897075" lon="13.5388352"><ele>237.0</ele><time>2026-05-03T12:24:52.083Z</time></trkpt><trkpt lat="46.0897826" lon="13.5387466"><ele>237.0</ele><time>2026-05-03T12:24:53.095Z</time></trkpt><trkpt lat="46.0898588" lon="13.5386466"><ele>237.0</ele><time>2026-05-03T12:24:54.088Z</time></trkpt><trkpt lat="46.0899242" lon="13.538526"><ele>237.0</ele><time>2026-05-03T12:24:55.089Z</time></trkpt><trkpt lat="46.0899834" lon="13.5384039"><ele>237.0</ele><time>2026-05-03T12:24:56.087Z</time></trkpt><trkpt lat="46.0900477" lon="13.5382823"><ele>240.16666666666666</ele><time>2026-05-03T12:24:57.084Z</time></trkpt><trkpt lat="46.0901156" lon="13.5381595"><ele>243.33333333333331</ele><time>2026-05-03T12:24:58.088Z</time></trkpt><trkpt lat="46.0901809" lon="13.5380425"><ele>246.5</ele><time>2026-05-03T12:24:59.084Z</time></trkpt><trkpt lat="46.0902453" lon="13.5379593"><ele>249.66666666666666</ele><time>2026-05-03T12:25:00.091Z</time></trkpt><trkpt lat="46.0903066" lon="13.5379084"><ele>252.83333333333331</ele><time>2026-05-03T12:25:01.086Z</time></trkpt><trkpt lat="46.0903794" lon="13.5378784"><ele>256.0</ele><time>2026-05-03T12:25:02.086Z</time></trkpt><trkpt lat="46.0904688" lon="13.5378658"><ele>256.40000000000003</ele><time>2026-05-03T12:25:03.084Z</time></trkpt><trkpt lat="46.0905711" lon="13.5378493"><ele>256.8</ele><time>2026-05-03T12:25:04.086Z</time></trkpt><trkpt lat="46.0906731" lon="13.5378398"><ele>257.20000000000005</ele><time>2026-05-03T12:25:05.083Z</time></trkpt><trkpt lat="46.0907506" lon="13.5378387"><ele>257.6</ele><time>2026-05-03T12:25:06.082Z</time></trkpt><trkpt lat="46.0908211" lon="13.5378939"><ele>258.0</ele><time>2026-05-03T12:25:08.075Z</time></trkpt><trkpt lat="46.0907951" lon="13.5380416"><ele>257.6</ele><time>2026-05-03T12:25:10.078Z</time></trkpt><trkpt lat="46.090764" lon="13.5381341"><ele>257.20000000000005</ele><time>2026-05-03T12:25:11.077Z</time></trkpt><trkpt lat="46.090734" lon="13.5382574"><ele>256.8</ele><time>2026-05-03T12:25:12.078Z</time></trkpt><trkpt lat="46.0907116" lon="13.5383917"><ele>256.40000000000003</ele><time>2026-05-03T12:25:13.086Z</time></trkpt><trkpt lat="46.0906765" lon="13.5385482"><ele>256.0</ele><time>2026-05-03T12:25:14.07Z</time></trkpt><trkpt lat="46.090637" lon="13.5387028"><ele>256.2</ele><time>2026-05-03T12:25:15.067Z</time></trkpt><trkpt lat="46.090595" lon="13.5388568"><ele>256.40000000000003</ele><time>2026-05-03T12:25:16.085Z</time></trkpt><trkpt lat="46.0905542" lon="13.5390128"><ele>256.6</ele><time>2026-05-03T12:25:17.082Z</time></trkpt><trkpt lat="46.0905098" lon="13.5391653"><ele>256.8</ele><time>2026-05-03T12:25:18.074Z</time></trkpt><trkpt lat="46.090474" lon="13.5392785"><ele>257.0</ele><time>2026-05-03T12:25:19.088Z</time></trkpt><trkpt lat="46.0904725" lon="13.5393987"><ele>257.0</ele><time>2026-05-03T12:25:21.088Z</time></trkpt><trkpt lat="46.0905401" lon="13.5393898"><ele>257.0</ele><time>2026-05-03T12:25:23.085Z</time></trkpt><trkpt lat="46.0906012" lon="13.5392159"><ele>257.0</ele><time>2026-05-03T12:25:25.087Z</time></trkpt><trkpt lat="46.090638" lon="13.5391052"><ele>257.0</ele><time>2026-05-03T12:25:26.08Z</time></trkpt><trkpt lat="46.0906839" lon="13.5389705"><ele>257.0</ele><time>2026-05-03T12:25:27.096Z</time></trkpt><trkpt lat="46.0907435" lon="13.538817"><ele>262.0</ele><time>2026-05-03T12:25:28.086Z</time></trkpt><trkpt lat="46.0908021" lon="13.5386644"><ele>267.0</ele><time>2026-05-03T12:25:29.083Z</time></trkpt><trkpt lat="46.0908524" lon="13.5385333"><ele>272.0</ele><time>2026-05-03T12:25:30.088Z</time></trkpt><trkpt lat="46.0908897" lon="13.5384216"><ele>277.0</ele><time>2026-05-03T12:25:31.087Z</time></trkpt><trkpt lat="46.0909258" lon="13.5383007"><ele>282.0</ele><time>2026-05-03T12:25:32.085Z</time></trkpt><trkpt lat="46.0909643" lon="13.5381903"><ele>282.0</ele><time>2026-05-03T12:25:33.084Z</time></trkpt><trkpt lat="46.0910225" lon="13.5380861"><ele>282.0</ele><time>2026-05-03T12:25:34.094Z</time></trkpt><trkpt lat="46.0910895" lon="13.5379767"><ele>282.0</ele><time>2026-05-03T12:25:35.095Z</time></trkpt><trkpt lat="46.0911569" lon="13.5378733"><ele>282.0</ele><time>2026-05-03T12:25:36.087Z</time></trkpt><trkpt lat="46.091224" lon="13.5377506"><ele>282.0</ele><time>2026-05-03T12:25:37.106Z</time></trkpt><trkpt lat="46.0912882" lon="13.5376271"><ele>280.6</ele><time>2026-05-03T12:25:38.08Z</time></trkpt><trkpt lat="46.0913459" lon="13.5375039"><ele>279.2</ele><time>2026-05-03T12:25:39.088Z</time></trkpt><trkpt lat="46.0913987" lon="13.5373759"><ele>277.8</ele><time>2026-05-03T12:25:40.098Z</time></trkpt><trkpt lat="46.091455" lon="13.5372478"><ele>276.4</ele><time>2026-05-03T12:25:41.098Z</time></trkpt><trkpt lat="46.0915133" lon="13.5371218"><ele>275.0</ele><time>2026-05-03T12:25:42.083Z</time></trkpt><trkpt lat="46.0915652" lon="13.537001"><ele>279.1666666666667</ele><time>2026-05-03T12:25:43.089Z</time></trkpt><trkpt lat="46.0916162" lon="13.5368931"><ele>283.33333333333337</ele><time>2026-05-03T12:25:44.08Z</time></trkpt><trkpt lat="46.0916677" lon="13.5368101"><ele>287.5</ele><time>2026-05-03T12:25:45.087Z</time></trkpt><trkpt lat="46.0917264" lon="13.536755"><ele>291.6666666666667</ele><time>2026-05-03T12:25:46.091Z</time></trkpt><trkpt lat="46.0917922" lon="13.5367377"><ele>295.8333333333333</ele><time>2026-05-03T12:25:47.079Z</time></trkpt><trkpt lat="46.091859" lon="13.5367579"><ele>300.0</ele><time>2026-05-03T12:25:48.086Z</time></trkpt><trkpt lat="46.0919522" lon="13.5367812"><ele>300.0</ele><time>2026-05-03T12:25:50.088Z</time></trkpt><trkpt lat="46.0920341" lon="13.5366603"><ele>300.0</ele><time>2026-05-03T12:26:40.095Z</time></trkpt><trkpt lat="46.0921024" lon="13.5365792"><ele>300.0</ele><time>2026-05-03T12:26:41.092Z</time></trkpt><trkpt lat="46.0921685" lon="13.5364765"><ele>300.0</ele><time>2026-05-03T12:26:42.078Z</time></trkpt><trkpt lat="46.0922124" lon="13.5363596"><ele>300.0</ele><time>2026-05-03T12:26:43.096Z</time></trkpt><trkpt lat="46.0922463" lon="13.5362385"><ele>299.4</ele><time>2026-05-03T12:26:44.091Z</time></trkpt><trkpt lat="46.0922688" lon="13.5361032"><ele>298.8</ele><time>2026-05-03T12:26:45.091Z</time></trkpt><trkpt lat="46.0922712" lon="13.5359556"><ele>298.2</ele><time>2026-05-03T12:26:46.091Z</time></trkpt><trkpt lat="46.092261" lon="13.5357947"><ele>297.6</ele><time>2026-05-03T12:26:47.078Z</time></trkpt><trkpt lat="46.0922373" lon="13.5356223"><ele>297.0</ele><time>2026-05-03T12:26:48.093Z</time></trkpt><trkpt lat="46.0922114" lon="13.5354709"><ele>296.0</ele><time>2026-05-03T12:26:49.084Z</time></trkpt><trkpt lat="46.0922052" lon="13.5353379"><ele>295.0</ele><time>2026-05-03T12:26:50.087Z</time></trkpt><trkpt lat="46.092209" lon="13.5352442"><ele>294.0</ele><time>2026-05-03T12:26:51.088Z</time></trkpt><trkpt lat="46.092249" lon="13.535147"><ele>293.0</ele><time>2026-05-03T12:26:53.1Z</time></trkpt><trkpt lat="46.0923143" lon="13.5351061"><ele>292.0</ele><time>2026-05-03T12:26:54.086Z</time></trkpt><trkpt lat="46.0924138" lon="13.5350627"><ele>291.0</ele><time>2026-05-03T12:26:55.088Z</time></trkpt><trkpt lat="46.0925117" lon="13.5350097"><ele>297.8</ele><time>2026-05-03T12:26:56.092Z</time></trkpt><trkpt lat="46.0926047" lon="13.5349444"><ele>304.6</ele><time>2026-05-03T12:26:57.092Z</time></trkpt><trkpt lat="46.0926974" lon="13.5348812"><ele>311.4</ele><time>2026-05-03T12:26:58.092Z</time></trkpt><trkpt lat="46.0927841" lon="13.5348059"><ele>318.2</ele><time>2026-05-03T12:26:59.096Z</time></trkpt><trkpt lat="46.0928634" lon="13.5347234"><ele>325.0</ele><time>2026-05-03T12:27:00.084Z</time></trkpt><trkpt lat="46.0929326" lon="13.5346595"><ele>325.0</ele><time>2026-05-03T12:27:01.091Z</time></trkpt><trkpt lat="46.0930055" lon="13.5346218"><ele>325.0</ele><time>2026-05-03T12:27:02.096Z</time></trkpt><trkpt lat="46.0930939" lon="13.5345855"><ele>325.0</ele><time>2026-05-03T12:27:03.083Z</time></trkpt><trkpt lat="46.0931861" lon="13.5345441"><ele>325.0</ele><time>2026-05-03T12:27:04.09Z</time></trkpt><trkpt lat="46.0932783" lon="13.534498"><ele>325.0</ele><time>2026-05-03T12:27:05.084Z</time></trkpt><trkpt lat="46.0933796" lon="13.5344552"><ele>323.6</ele><time>2026-05-03T12:27:06.083Z</time></trkpt><trkpt lat="46.0934811" lon="13.5344264"><ele>322.2</ele><time>2026-05-03T12:27:07.088Z</time></trkpt><trkpt lat="46.0935797" lon="13.5343982"><ele>320.8</ele><time>2026-05-03T12:27:08.092Z</time></trkpt><trkpt lat="46.0936782" lon="13.5343585"><ele>319.4</ele><time>2026-05-03T12:27:09.091Z</time></trkpt><trkpt lat="46.0937736" lon="13.5343057"><ele>318.0</ele><time>2026-05-03T12:27:10.085Z</time></trkpt><trkpt lat="46.0938715" lon="13.5342559"><ele>318.0</ele><time>2026-05-03T12:27:11.08Z</time></trkpt><trkpt lat="46.0939659" lon="13.5342104"><ele>318.0</ele><time>2026-05-03T12:27:12.091Z</time></trkpt><trkpt lat="46.0940555" lon="13.5341859"><ele>318.0</ele><time>2026-05-03T12:27:13.087Z</time></trkpt><trkpt lat="46.0941305" lon="13.5341547"><ele>318.0</ele><time>2026-05-03T12:27:14.076Z</time></trkpt><trkpt lat="46.0941908" lon="13.5340983"><ele>318.0</ele><time>2026-05-03T12:27:15.075Z</time></trkpt><trkpt lat="46.0942339" lon="13.5340197"><ele>318.0</ele><time>2026-05-03T12:27:16.074Z</time></trkpt><trkpt lat="46.0942657" lon="13.5339358"><ele>318.0</ele><time>2026-05-03T12:27:17.07Z</time></trkpt><trkpt lat="46.0942583" lon="13.5338312"><ele>318.0</ele><time>2026-05-03T12:27:19.075Z</time></trkpt><trkpt lat="46.0941917" lon="13.533797"><ele>318.0</ele><time>2026-05-03T12:27:22.071Z</time></trkpt><trkpt lat="46.0941157" lon="13.53383"><ele>318.0</ele><time>2026-05-03T12:27:33.07Z</time></trkpt><trkpt lat="46.0939964" lon="13.5337964"><ele>318.0</ele><time>2026-05-03T12:27:35.074Z</time></trkpt><trkpt lat="46.0939204" lon="13.5337603"><ele>318.0</ele><time>2026-05-03T12:27:36.077Z</time></trkpt><trkpt lat="46.0938397" lon="13.533712"><ele>319.6</ele><time>2026-05-03T12:27:37.067Z</time></trkpt><trkpt lat="46.0937516" lon="13.5336595"><ele>321.20000000000005</ele><time>2026-05-03T12:27:38.066Z</time></trkpt><trkpt lat="46.0936598" lon="13.5336117"><ele>322.8</ele><time>2026-05-03T12:27:39.069Z</time></trkpt><trkpt lat="46.0935591" lon="13.5335572"><ele>324.40000000000003</ele><time>2026-05-03T12:27:40.069Z</time></trkpt><trkpt lat="46.0934499" lon="13.5334969"><ele>326.0</ele><time>2026-05-03T12:27:41.076Z</time></trkpt><trkpt lat="46.0933392" lon="13.5334278"><ele>321.2</ele><time>2026-05-03T12:27:42.065Z</time></trkpt><trkpt lat="46.0932317" lon="13.5333667"><ele>316.40000000000003</ele><time>2026-05-03T12:27:43.07Z</time></trkpt><trkpt lat="46.0931343" lon="13.5333143"><ele>311.6</ele><time>2026-05-03T12:27:44.068Z</time></trkpt><trkpt lat="46.0930459" lon="13.5332715"><ele>306.8</ele><time>2026-05-03T12:27:45.073Z</time></trkpt><trkpt lat="46.0929622" lon="13.5332321"><ele>302.0</ele><time>2026-05-03T12:27:46.082Z</time></trkpt><trkpt lat="46.0928957" lon="13.5331826"><ele>302.0</ele><time>2026-05-03T12:27:47.073Z</time></trkpt><trkpt lat="46.0928417" lon="13.5331311"><ele>302.0</ele><time>2026-05-03T12:27:48.086Z</time></trkpt><trkpt lat="46.0927928" lon="13.5329625"><ele>302.0</ele><time>2026-05-03T12:27:50.074Z</time></trkpt><trkpt lat="46.0927872" lon="13.5328555"><ele>302.0</ele><time>2026-05-03T12:27:51.08Z</time></trkpt><trkpt lat="46.0927809" lon="13.53272"><ele>302.0</ele><time>2026-05-03T12:27:52.072Z</time></trkpt><trkpt lat="46.0927826" lon="13.5325672"><ele>303.0</ele><time>2026-05-03T12:27:53.088Z</time></trkpt><trkpt lat="46.0927953" lon="13.5324019"><ele>304.0</ele><time>2026-05-03T12:27:54.09Z</time></trkpt><trkpt lat="46.0928072" lon="13.5322523"><ele>305.0</ele><time>2026-05-03T12:27:55.082Z</time></trkpt><trkpt lat="46.092824" lon="13.5321035"><ele>306.0</ele><time>2026-05-03T12:27:56.075Z</time></trkpt><trkpt lat="46.0928347" lon="13.5319538"><ele>307.0</ele><time>2026-05-03T12:27:57.078Z</time></trkpt><trkpt lat="46.0928455" lon="13.5317898"><ele>308.0</ele><time>2026-05-03T12:27:58.084Z</time></trkpt><trkpt lat="46.0928432" lon="13.5316301"><ele>309.0</ele><time>2026-05-03T12:27:59.082Z</time></trkpt><trkpt lat="46.0928351" lon="13.5314782"><ele>310.0</ele><time>2026-05-03T12:28:00.079Z</time></trkpt><trkpt lat="46.0928262" lon="13.5313389"><ele>311.0</ele><time>2026-05-03T12:28:01.086Z</time></trkpt><trkpt lat="46.0928214" lon="13.5312067"><ele>312.0</ele><time>2026-05-03T12:28:02.08Z</time></trkpt><trkpt lat="46.0928207" lon="13.5310808"><ele>313.5</ele><time>2026-05-03T12:28:03.081Z</time></trkpt><trkpt lat="46.0928076" lon="13.5309573"><ele>315.0</ele><time>2026-05-03T12:28:04.087Z</time></trkpt><trkpt lat="46.0927805" lon="13.5308469"><ele>316.5</ele><time>2026-05-03T12:28:05.075Z</time></trkpt><trkpt lat="46.0927522" lon="13.5307515"><ele>318.0</ele><time>2026-05-03T12:28:06.082Z</time></trkpt><trkpt lat="46.0927348" lon="13.530658"><ele>319.5</ele><time>2026-05-03T12:28:07.076Z</time></trkpt><trkpt lat="46.0927266" lon="13.5305577"><ele>321.0</ele><time>2026-05-03T12:28:08.092Z</time></trkpt><trkpt lat="46.0927332" lon="13.530433"><ele>322.4</ele><time>2026-05-03T12:28:09.072Z</time></trkpt><trkpt lat="46.0927476" lon="13.5302856"><ele>323.8</ele><time>2026-05-03T12:28:10.091Z</time></trkpt><trkpt lat="46.092766" lon="13.5301447"><ele>325.2</ele><time>2026-05-03T12:28:11.076Z</time></trkpt><trkpt lat="46.0927805" lon="13.5300114"><ele>326.59999999999997</ele><time>2026-05-03T12:28:12.079Z</time></trkpt><trkpt lat="46.0927862" lon="13.5298917"><ele>328.0</ele><time>2026-05-03T12:28:13.085Z</time></trkpt><trkpt lat="46.0927952" lon="13.5297878"><ele>327.99999999999994</ele><time>2026-05-03T12:28:14.083Z</time></trkpt><trkpt lat="46.0928115" lon="13.5296944"><ele>328.0</ele><time>2026-05-03T12:28:15.083Z</time></trkpt><trkpt lat="46.0928334" lon="13.5296056"><ele>328.0</ele><time>2026-05-03T12:28:16.081Z</time></trkpt><trkpt lat="46.0928581" lon="13.529515"><ele>328.0</ele><time>2026-05-03T12:28:17.083Z</time></trkpt><trkpt lat="46.0928889" lon="13.5294233"><ele>328.0</ele><time>2026-05-03T12:28:18.072Z</time></trkpt><trkpt lat="46.0929303" lon="13.5293371"><ele>327.99999999999994</ele><time>2026-05-03T12:28:19.083Z</time></trkpt><trkpt lat="46.0929599" lon="13.5292499"><ele>328.0</ele><time>2026-05-03T12:28:20.072Z</time></trkpt><trkpt lat="46.0929738" lon="13.5291425"><ele>329.5</ele><time>2026-05-03T12:28:22.072Z</time></trkpt><trkpt lat="46.092899" lon="13.529104"><ele>331.0</ele><time>2026-05-03T12:28:24.077Z</time></trkpt><trkpt lat="46.0928004" lon="13.5290265"><ele>332.5</ele><time>2026-05-03T12:28:26.068Z</time></trkpt><trkpt lat="46.0927551" lon="13.5288968"><ele>334.0</ele><time>2026-05-03T12:28:28.071Z</time></trkpt><trkpt lat="46.0927357" lon="13.5288037"><ele>335.5</ele><time>2026-05-03T12:28:29.087Z</time></trkpt><trkpt lat="46.0927248" lon="13.5286923"><ele>337.0</ele><time>2026-05-03T12:28:30.076Z</time></trkpt><trkpt lat="46.0927061" lon="13.5285933"><ele>337.0</ele><time>2026-05-03T12:28:31.079Z</time></trkpt><trkpt lat="46.0926369" lon="13.5284702"><ele>337.0</ele><time>2026-05-03T12:28:33.082Z</time></trkpt><trkpt lat="46.0925398" lon="13.5284159"><ele>337.0</ele><time>2026-05-03T12:28:35.079Z</time></trkpt><trkpt lat="46.0924779" lon="13.5284532"><ele>337.0</ele><time>2026-05-03T12:28:37.074Z</time></trkpt><trkpt lat="46.0924537" lon="13.528629"><ele>337.0</ele><time>2026-05-03T12:28:39.08Z</time></trkpt><trkpt lat="46.0924634" lon="13.528753"><ele>337.0</ele><time>2026-05-03T12:28:40.064Z</time></trkpt><trkpt lat="46.0924711" lon="13.5288661"><ele>337.0</ele><time>2026-05-03T12:28:41.074Z</time></trkpt><trkpt lat="46.0924608" lon="13.5289668"><ele>337.0</ele><time>2026-05-03T12:28:42.067Z</time></trkpt><trkpt lat="46.0924123" lon="13.5291236"><ele>337.0</ele><time>2026-05-03T12:28:44.081Z</time></trkpt><trkpt lat="46.0923788" lon="13.5292049"><ele>337.0</ele><time>2026-05-03T12:28:45.074Z</time></trkpt><trkpt lat="46.0923344" lon="13.5293038"><ele>337.0</ele><time>2026-05-03T12:28:46.084Z</time></trkpt><trkpt lat="46.0922805" lon="13.529406"><ele>342.6</ele><time>2026-05-03T12:28:47.076Z</time></trkpt><trkpt lat="46.0922334" lon="13.529511"><ele>348.20000000000005</ele><time>2026-05-03T12:28:48.095Z</time></trkpt><trkpt lat="46.0921821" lon="13.5296227"><ele>353.8</ele><time>2026-05-03T12:28:49.082Z</time></trkpt><trkpt lat="46.0921277" lon="13.5297423"><ele>359.4</ele><time>2026-05-03T12:28:50.082Z</time></trkpt><trkpt lat="46.0920752" lon="13.5298611"><ele>365.0</ele><time>2026-05-03T12:28:51.076Z</time></trkpt><trkpt lat="46.0920293" lon="13.5299855"><ele>365.0</ele><time>2026-05-03T12:28:52.077Z</time></trkpt><trkpt lat="46.0919854" lon="13.53012"><ele>365.0</ele><time>2026-05-03T12:28:53.085Z</time></trkpt><trkpt lat="46.0919408" lon="13.5302688"><ele>365.0</ele><time>2026-05-03T12:28:54.073Z</time></trkpt><trkpt lat="46.0919015" lon="13.5304252"><ele>365.0</ele><time>2026-05-03T12:28:55.074Z</time></trkpt><trkpt lat="46.0918689" lon="13.5305604"><ele>365.0</ele><time>2026-05-03T12:28:56.079Z</time></trkpt><trkpt lat="46.0918316" lon="13.530686"><ele>362.5</ele><time>2026-05-03T12:28:57.089Z</time></trkpt><trkpt lat="46.0917887" lon="13.5307987"><ele>360.0</ele><time>2026-05-03T12:28:58.076Z</time></trkpt><trkpt lat="46.0917332" lon="13.530903"><ele>357.5</ele><time>2026-05-03T12:28:59.075Z</time></trkpt><trkpt lat="46.0916931" lon="13.531016"><ele>355.0</ele><time>2026-05-03T12:29:00.094Z</time></trkpt><trkpt lat="46.0916664" lon="13.5311285"><ele>352.5</ele><time>2026-05-03T12:29:01.082Z</time></trkpt><trkpt lat="46.0916491" lon="13.531238"><ele>350.0</ele><time>2026-05-03T12:29:02.086Z</time></trkpt><trkpt lat="46.0916231" lon="13.5313706"><ele>350.83333333333337</ele><time>2026-05-03T12:29:03.083Z</time></trkpt><trkpt lat="46.091587" lon="13.5314818"><ele>351.6666666666667</ele><time>2026-05-03T12:29:04.076Z</time></trkpt><trkpt lat="46.0915347" lon="13.531582"><ele>352.5</ele><time>2026-05-03T12:29:05.087Z</time></trkpt><trkpt lat="46.0914772" lon="13.5316565"><ele>353.3333333333333</ele><time>2026-05-03T12:29:06.085Z</time></trkpt><trkpt lat="46.0914192" lon="13.5317183"><ele>354.16666666666663</ele><time>2026-05-03T12:29:07.085Z</time></trkpt><trkpt lat="46.0913497" lon="13.531769"><ele>355.0</ele><time>2026-05-03T12:29:08.082Z</time></trkpt><trkpt lat="46.0912638" lon="13.5318167"><ele>355.0</ele><time>2026-05-03T12:29:09.085Z</time></trkpt><trkpt lat="46.0911686" lon="13.5318453"><ele>355.0</ele><time>2026-05-03T12:29:10.085Z</time></trkpt><trkpt lat="46.0910865" lon="13.5318654"><ele>355.0</ele><time>2026-05-03T12:29:11.089Z</time></trkpt><trkpt lat="46.0909984" lon="13.5318548"><ele>355.0</ele><time>2026-05-03T12:29:12.083Z</time></trkpt><trkpt lat="46.0909069" lon="13.5318282"><ele>355.0</ele><time>2026-05-03T12:29:13.081Z</time></trkpt><trkpt lat="46.0908157" lon="13.5317972"><ele>357.8333333333333</ele><time>2026-05-03T12:29:14.078Z</time></trkpt><trkpt lat="46.0907319" lon="13.5317664"><ele>360.66666666666663</ele><time>2026-05-03T12:29:15.077Z</time></trkpt><trkpt lat="46.0906549" lon="13.5317421"><ele>363.5</ele><time>2026-05-03T12:29:16.078Z</time></trkpt><trkpt lat="46.0905871" lon="13.5317441"><ele>366.3333333333333</ele><time>2026-05-03T12:29:17.083Z</time></trkpt><trkpt lat="46.0904756" lon="13.5318368"><ele>369.1666666666667</ele><time>2026-05-03T12:29:19.073Z</time></trkpt><trkpt lat="46.090425" lon="13.5319338"><ele>372.0</ele><time>2026-05-03T12:29:20.081Z</time></trkpt><trkpt lat="46.0903755" lon="13.5320417"><ele>367.8</ele><time>2026-05-03T12:29:21.082Z</time></trkpt><trkpt lat="46.0903214" lon="13.5321681"><ele>363.6</ele><time>2026-05-03T12:29:22.089Z</time></trkpt><trkpt lat="46.0902554" lon="13.532279"><ele>359.40000000000003</ele><time>2026-05-03T12:29:23.088Z</time></trkpt><trkpt lat="46.0901849" lon="13.5323804"><ele>355.20000000000005</ele><time>2026-05-03T12:29:24.091Z</time></trkpt><trkpt lat="46.0901102" lon="13.5324762"><ele>351.0</ele><time>2026-05-03T12:29:25.082Z</time></trkpt><trkpt lat="46.0900305" lon="13.5325823"><ele>351.0</ele><time>2026-05-03T12:29:26.088Z</time></trkpt><trkpt lat="46.0899528" lon="13.5326885"><ele>351.0</ele><time>2026-05-03T12:29:27.088Z</time></trkpt><trkpt lat="46.0898765" lon="13.5327952"><ele>351.0</ele><time>2026-05-03T12:29:28.085Z</time></trkpt><trkpt lat="46.0898016" lon="13.5329115"><ele>351.0</ele><time>2026-05-03T12:29:29.091Z</time></trkpt><trkpt lat="46.0897261" lon="13.5330234"><ele>351.0</ele><time>2026-05-03T12:29:30.092Z</time></trkpt><trkpt lat="46.0896757" lon="13.5331321"><ele>352.8333333333333</ele><time>2026-05-03T12:29:31.089Z</time></trkpt><trkpt lat="46.0896308" lon="13.5332484"><ele>354.6666666666667</ele><time>2026-05-03T12:29:32.093Z</time></trkpt><trkpt lat="46.089586" lon="13.5333558"><ele>356.5</ele><time>2026-05-03T12:29:33.089Z</time></trkpt><trkpt lat="46.089543" lon="13.533458"><ele>358.33333333333337</ele><time>2026-05-03T12:29:34.094Z</time></trkpt><trkpt lat="46.0894934" lon="13.5335503"><ele>360.1666666666667</ele><time>2026-05-03T12:29:35.085Z</time></trkpt><trkpt lat="46.0894351" lon="13.5336381"><ele>362.0</ele><time>2026-05-03T12:29:36.088Z</time></trkpt><trkpt lat="46.0893604" lon="13.5337204"><ele>361.8</ele><time>2026-05-03T12:29:37.092Z</time></trkpt><trkpt lat="46.0892752" lon="13.5338004"><ele>361.6</ele><time>2026-05-03T12:29:38.09Z</time></trkpt><trkpt lat="46.0891991" lon="13.5338782"><ele>361.40000000000003</ele><time>2026-05-03T12:29:39.091Z</time></trkpt><trkpt lat="46.0891188" lon="13.5339726"><ele>361.20000000000005</ele><time>2026-05-03T12:29:40.086Z</time></trkpt><trkpt lat="46.0890397" lon="13.5340662"><ele>361.0</ele><time>2026-05-03T12:29:41.08Z</time></trkpt><trkpt lat="46.0889627" lon="13.5341575"><ele>361.0</ele><time>2026-05-03T12:29:42.078Z</time></trkpt><trkpt lat="46.0888847" lon="13.5342471"><ele>361.0</ele><time>2026-05-03T12:29:43.074Z</time></trkpt><trkpt lat="46.0888127" lon="13.5343416"><ele>361.0</ele><time>2026-05-03T12:29:44.083Z</time></trkpt><trkpt lat="46.0887456" lon="13.5344318"><ele>361.0</ele><time>2026-05-03T12:29:45.076Z</time></trkpt><trkpt lat="46.0886787" lon="13.5345297"><ele>361.0</ele><time>2026-05-03T12:29:46.084Z</time></trkpt><trkpt lat="46.0886187" lon="13.5346227"><ele>357.7142857142857</ele><time>2026-05-03T12:29:47.078Z</time></trkpt><trkpt lat="46.0885649" lon="13.5347125"><ele>354.4285714285714</ele><time>2026-05-03T12:29:48.081Z</time></trkpt><trkpt lat="46.0885071" lon="13.5348052"><ele>351.1428571428571</ele><time>2026-05-03T12:29:49.09Z</time></trkpt><trkpt lat="46.0884451" lon="13.5348692"><ele>347.8571428571429</ele><time>2026-05-03T12:29:50.08Z</time></trkpt><trkpt lat="46.0883782" lon="13.5349143"><ele>344.57142857142856</ele><time>2026-05-03T12:29:51.085Z</time></trkpt><trkpt lat="46.0883136" lon="13.5349178"><ele>341.2857142857143</ele><time>2026-05-03T12:29:52.081Z</time></trkpt><trkpt lat="46.08825" lon="13.5348973"><ele>338.0</ele><time>2026-05-03T12:29:53.091Z</time></trkpt><trkpt lat="46.0881711" lon="13.5348615"><ele>337.5</ele><time>2026-05-03T12:29:54.079Z</time></trkpt><trkpt lat="46.0880805" lon="13.5347966"><ele>337.0</ele><time>2026-05-03T12:29:55.088Z</time></trkpt><trkpt lat="46.0879959" lon="13.5347138"><ele>336.5</ele><time>2026-05-03T12:29:56.079Z</time></trkpt><trkpt lat="46.0879181" lon="13.5346351"><ele>336.0</ele><time>2026-05-03T12:29:57.092Z</time></trkpt><trkpt lat="46.0878568" lon="13.5345584"><ele>335.5</ele><time>2026-05-03T12:29:58.087Z</time></trkpt><trkpt lat="46.087816" lon="13.5344849"><ele>335.0</ele><time>2026-05-03T12:29:59.086Z</time></trkpt><trkpt lat="46.0877818" lon="13.5342974"><ele>335.0</ele><time>2026-05-03T12:30:01.096Z</time></trkpt><trkpt lat="46.0877786" lon="13.5341731"><ele>335.0</ele><time>2026-05-03T12:30:02.09Z</time></trkpt><trkpt lat="46.0877651" lon="13.5340399"><ele>335.0</ele><time>2026-05-03T12:30:03.089Z</time></trkpt><trkpt lat="46.0877385" lon="13.5339233"><ele>335.0</ele><time>2026-05-03T12:30:04.096Z</time></trkpt><trkpt lat="46.0877057" lon="13.5338087"><ele>335.0</ele><time>2026-05-03T12:30:05.098Z</time></trkpt><trkpt lat="46.0876589" lon="13.5336978"><ele>335.0</ele><time>2026-05-03T12:30:06.093Z</time></trkpt><trkpt lat="46.0875921" lon="13.5335929"><ele>337.2</ele><time>2026-05-03T12:30:07.091Z</time></trkpt><trkpt lat="46.0875194" lon="13.5334911"><ele>339.4</ele><time>2026-05-03T12:30:08.081Z</time></trkpt><trkpt lat="46.0874494" lon="13.5333805"><ele>341.6</ele><time>2026-05-03T12:30:09.09Z</time></trkpt><trkpt lat="46.0873812" lon="13.5332639"><ele>343.8</ele><time>2026-05-03T12:30:10.084Z</time></trkpt><trkpt lat="46.0873171" lon="13.533144"><ele>346.0</ele><time>2026-05-03T12:30:11.086Z</time></trkpt><trkpt lat="46.0872562" lon="13.53303"><ele>346.0</ele><time>2026-05-03T12:30:12.091Z</time></trkpt><trkpt lat="46.0872027" lon="13.5329345"><ele>346.0</ele><time>2026-05-03T12:30:13.09Z</time></trkpt><trkpt lat="46.0871523" lon="13.5328506"><ele>346.0</ele><time>2026-05-03T12:30:14.096Z</time></trkpt><trkpt lat="46.0871144" lon="13.5327702"><ele>346.0</ele><time>2026-05-03T12:30:15.08Z</time></trkpt><trkpt lat="46.0870929" lon="13.53268"><ele>346.0</ele><time>2026-05-03T12:30:16.079Z</time></trkpt><trkpt lat="46.0870653" lon="13.5325702"><ele>346.0</ele><time>2026-05-03T12:30:17.067Z</time></trkpt><trkpt lat="46.0870289" lon="13.5324419"><ele>350.16666666666663</ele><time>2026-05-03T12:30:18.092Z</time></trkpt><trkpt lat="46.0869895" lon="13.5323463"><ele>354.3333333333333</ele><time>2026-05-03T12:30:19.075Z</time></trkpt><trkpt lat="46.0869012" lon="13.5322579"><ele>358.5</ele><time>2026-05-03T12:30:21.091Z</time></trkpt><trkpt lat="46.0868137" lon="13.532301"><ele>362.6666666666667</ele><time>2026-05-03T12:30:23.078Z</time></trkpt><trkpt lat="46.0867567" lon="13.5323823"><ele>366.83333333333337</ele><time>2026-05-03T12:30:24.074Z</time></trkpt><trkpt lat="46.0866956" lon="13.5324687"><ele>371.0</ele><time>2026-05-03T12:30:25.074Z</time></trkpt><trkpt lat="46.0866248" lon="13.5325739"><ele>373.1666666666667</ele><time>2026-05-03T12:30:26.073Z</time></trkpt><trkpt lat="46.0865577" lon="13.5326777"><ele>375.33333333333337</ele><time>2026-05-03T12:30:27.076Z</time></trkpt><trkpt lat="46.0864987" lon="13.5327886"><ele>377.5</ele><time>2026-05-03T12:30:28.079Z</time></trkpt><trkpt lat="46.0864449" lon="13.5328896"><ele>379.6666666666667</ele><time>2026-05-03T12:30:29.081Z</time></trkpt><trkpt lat="46.0863963" lon="13.5329693"><ele>381.8333333333333</ele><time>2026-05-03T12:30:30.083Z</time></trkpt><trkpt lat="46.086343" lon="13.5330205"><ele>384.0</ele><time>2026-05-03T12:30:31.08Z</time></trkpt><trkpt lat="46.0862737" lon="13.5330596"><ele>379.99999999999994</ele><time>2026-05-03T12:30:32.076Z</time></trkpt><trkpt lat="46.0862011" lon="13.533098"><ele>376.0</ele><time>2026-05-03T12:30:33.075Z</time></trkpt><trkpt lat="46.0861264" lon="13.5331313"><ele>372.0</ele><time>2026-05-03T12:30:34.081Z</time></trkpt><trkpt lat="46.0860527" lon="13.5331627"><ele>368.0</ele><time>2026-05-03T12:30:35.079Z</time></trkpt><trkpt lat="46.0859828" lon="13.5331759"><ele>364.0</ele><time>2026-05-03T12:30:36.08Z</time></trkpt><trkpt lat="46.0859109" lon="13.5331671"><ele>359.99999999999994</ele><time>2026-05-03T12:30:37.089Z</time></trkpt><trkpt lat="46.0858424" lon="13.5331448"><ele>356.0</ele><time>2026-05-03T12:30:38.088Z</time></trkpt><trkpt lat="46.0857732" lon="13.5331102"><ele>354.0</ele><time>2026-05-03T12:30:39.082Z</time></trkpt><trkpt lat="46.0857013" lon="13.5330474"><ele>352.0</ele><time>2026-05-03T12:30:40.082Z</time></trkpt><trkpt lat="46.0856313" lon="13.5329713"><ele>350.0</ele><time>2026-05-03T12:30:41.092Z</time></trkpt><trkpt lat="46.0855634" lon="13.5328921"><ele>348.0</ele><time>2026-05-03T12:30:42.09Z</time></trkpt><trkpt lat="46.0854966" lon="13.532816"><ele>346.0</ele><time>2026-05-03T12:30:43.079Z</time></trkpt><trkpt lat="46.0854347" lon="13.5327425"><ele>344.0</ele><time>2026-05-03T12:30:44.07Z</time></trkpt><trkpt lat="46.0853814" lon="13.5326825"><ele>349.0</ele><time>2026-05-03T12:30:45.082Z</time></trkpt><trkpt lat="46.0853262" lon="13.5326339"><ele>354.0</ele><time>2026-05-03T12:30:46.093Z</time></trkpt><trkpt lat="46.0852157" lon="13.5325757"><ele>359.0</ele><time>2026-05-03T12:30:48.081Z</time></trkpt><trkpt lat="46.0850916" lon="13.5325756"><ele>364.0</ele><time>2026-05-03T12:30:50.083Z</time></trkpt><trkpt lat="46.0850223" lon="13.5325918"><ele>369.0</ele><time>2026-05-03T12:30:51.084Z</time></trkpt><trkpt lat="46.0849597" lon="13.5326206"><ele>374.0</ele><time>2026-05-03T12:30:52.081Z</time></trkpt><trkpt lat="46.0848365" lon="13.5326456"><ele>375.5</ele><time>2026-05-03T12:30:54.09Z</time></trkpt><trkpt lat="46.0847601" lon="13.5326381"><ele>377.0</ele><time>2026-05-03T12:30:55.073Z</time></trkpt><trkpt lat="46.0846876" lon="13.5326337"><ele>378.5</ele><time>2026-05-03T12:30:56.088Z</time></trkpt><trkpt lat="46.0846186" lon="13.5326289"><ele>380.0</ele><time>2026-05-03T12:30:57.092Z</time></trkpt><trkpt lat="46.0845533" lon="13.5326242"><ele>381.5</ele><time>2026-05-03T12:30:58.102Z</time></trkpt><trkpt lat="46.0844438" lon="13.5325787"><ele>383.0</ele><time>2026-05-03T12:31:00.075Z</time></trkpt><trkpt lat="46.0843552" lon="13.5325553"><ele>383.0</ele><time>2026-05-03T12:31:02.084Z</time></trkpt><trkpt lat="46.0842879" lon="13.5326385"><ele>383.0</ele><time>2026-05-03T12:31:04.093Z</time></trkpt><trkpt lat="46.0841951" lon="13.5327371"><ele>383.0</ele><time>2026-05-03T12:31:06.077Z</time></trkpt><trkpt lat="46.0841275" lon="13.5328041"><ele>383.0</ele><time>2026-05-03T12:31:07.079Z</time></trkpt><trkpt lat="46.0840516" lon="13.5328985"><ele>383.0</ele><time>2026-05-03T12:31:08.083Z</time></trkpt><trkpt lat="46.0839906" lon="13.5330246"><ele>385.59999999999997</ele><time>2026-05-03T12:31:09.08Z</time></trkpt><trkpt lat="46.083934" lon="13.5331619"><ele>388.2</ele><time>2026-05-03T12:31:10.095Z</time></trkpt><trkpt lat="46.0838799" lon="13.533295"><ele>390.8</ele><time>2026-05-03T12:31:11.079Z</time></trkpt><trkpt lat="46.0838259" lon="13.5334184"><ele>393.4</ele><time>2026-05-03T12:31:12.076Z</time></trkpt><trkpt lat="46.0837644" lon="13.53354"><ele>396.0</ele><time>2026-05-03T12:31:13.081Z</time></trkpt><trkpt lat="46.0836983" lon="13.533636"><ele>396.0</ele><time>2026-05-03T12:31:14.072Z</time></trkpt><trkpt lat="46.0836294" lon="13.533713"><ele>396.0</ele><time>2026-05-03T12:31:15.077Z</time></trkpt><trkpt lat="46.0835582" lon="13.5337788"><ele>396.0</ele><time>2026-05-03T12:31:16.068Z</time></trkpt><trkpt lat="46.0834888" lon="13.5338441"><ele>396.0</ele><time>2026-05-03T12:31:17.077Z</time></trkpt><trkpt lat="46.0834216" lon="13.5339006"><ele>396.0</ele><time>2026-05-03T12:31:18.073Z</time></trkpt><trkpt lat="46.0833674" lon="13.5339512"><ele>396.0</ele><time>2026-05-03T12:31:19.075Z</time></trkpt><trkpt lat="46.0833118" lon="13.534022"><ele>394.5</ele><time>2026-05-03T12:31:20.085Z</time></trkpt><trkpt lat="46.0832618" lon="13.5340898"><ele>393.0</ele><time>2026-05-03T12:31:21.083Z</time></trkpt><trkpt lat="46.0832225" lon="13.5341806"><ele>391.5</ele><time>2026-05-03T12:31:22.075Z</time></trkpt><trkpt lat="46.0831921" lon="13.5342644"><ele>390.0</ele><time>2026-05-03T12:31:23.08Z</time></trkpt><trkpt lat="46.0831467" lon="13.5343438"><ele>388.5</ele><time>2026-05-03T12:31:24.077Z</time></trkpt><trkpt lat="46.0830755" lon="13.5344217"><ele>387.0</ele><time>2026-05-03T12:31:25.078Z</time></trkpt><trkpt lat="46.0829958" lon="13.5344871"><ele>387.0</ele><time>2026-05-03T12:31:26.08Z</time></trkpt><trkpt lat="46.0829092" lon="13.5345473"><ele>387.0</ele><time>2026-05-03T12:31:27.09Z</time></trkpt><trkpt lat="46.0828142" lon="13.5345969"><ele>387.0</ele><time>2026-05-03T12:31:28.088Z</time></trkpt><trkpt lat="46.0827232" lon="13.5346254"><ele>387.0</ele><time>2026-05-03T12:31:29.088Z</time></trkpt><trkpt lat="46.0826223" lon="13.5346221"><ele>387.0</ele><time>2026-05-03T12:31:30.08Z</time></trkpt><trkpt lat="46.0825251" lon="13.534579"><ele>387.0</ele><time>2026-05-03T12:31:31.091Z</time></trkpt><trkpt lat="46.0824352" lon="13.5345232"><ele>387.0</ele><time>2026-05-03T12:31:32.076Z</time></trkpt><trkpt lat="46.0823728" lon="13.5344621"><ele>387.0</ele><time>2026-05-03T12:31:33.101Z</time></trkpt><trkpt lat="46.0823484" lon="13.5343084"><ele>387.0</ele><time>2026-05-03T12:31:35.082Z</time></trkpt><trkpt lat="46.0824472" lon="13.5342034"><ele>387.0</ele><time>2026-05-03T12:31:37.086Z</time></trkpt><trkpt lat="46.0825317" lon="13.5341953"><ele>387.0</ele><time>2026-05-03T12:31:38.088Z</time></trkpt><trkpt lat="46.082617" lon="13.5341881"><ele>387.0</ele><time>2026-05-03T12:31:39.083Z</time></trkpt><trkpt lat="46.0826948" lon="13.5341505"><ele>387.0</ele><time>2026-05-03T12:31:40.101Z</time></trkpt><trkpt lat="46.0827572" lon="13.5340743"><ele>387.0</ele><time>2026-05-03T12:31:41.094Z</time></trkpt><trkpt lat="46.0827965" lon="13.5339693"><ele>387.0</ele><time>2026-05-03T12:31:42.085Z</time></trkpt><trkpt lat="46.082823" lon="13.5338494"><ele>387.0</ele><time>2026-05-03T12:31:43.094Z</time></trkpt><trkpt lat="46.08285" lon="13.5337286"><ele>388.3333333333333</ele><time>2026-05-03T12:31:44.081Z</time></trkpt><trkpt lat="46.0828776" lon="13.5336136"><ele>389.66666666666663</ele><time>2026-05-03T12:31:45.101Z</time></trkpt><trkpt lat="46.082916" lon="13.5335153"><ele>391.0</ele><time>2026-05-03T12:31:46.1Z</time></trkpt><trkpt lat="46.082957" lon="13.5334227"><ele>392.3333333333333</ele><time>2026-05-03T12:31:47.082Z</time></trkpt><trkpt lat="46.0830066" lon="13.5333303"><ele>393.66666666666663</ele><time>2026-05-03T12:31:48.089Z</time></trkpt><trkpt lat="46.0830724" lon="13.5332539"><ele>395.0</ele><time>2026-05-03T12:31:49.088Z</time></trkpt><trkpt lat="46.0831464" lon="13.5331757"><ele>395.0</ele><time>2026-05-03T12:31:50.097Z</time></trkpt><trkpt lat="46.0832216" lon="13.5330992"><ele>395.0</ele><time>2026-05-03T12:31:51.096Z</time></trkpt><trkpt lat="46.0833023" lon="13.5330136"><ele>395.0</ele><time>2026-05-03T12:31:52.101Z</time></trkpt><trkpt lat="46.0833806" lon="13.5329322"><ele>395.0</ele><time>2026-05-03T12:31:53.087Z</time></trkpt><trkpt lat="46.0834527" lon="13.532848"><ele>395.0</ele><time>2026-05-03T12:31:54.093Z</time></trkpt><trkpt lat="46.0835138" lon="13.5327593"><ele>397.2857142857143</ele><time>2026-05-03T12:31:55.087Z</time></trkpt><trkpt lat="46.0835567" lon="13.5326698"><ele>399.5714285714286</ele><time>2026-05-03T12:31:56.095Z</time></trkpt><trkpt lat="46.08359" lon="13.5325785"><ele>401.8571428571429</ele><time>2026-05-03T12:31:57.085Z</time></trkpt><trkpt lat="46.083621" lon="13.5324877"><ele>404.1428571428571</ele><time>2026-05-03T12:31:58.095Z</time></trkpt><trkpt lat="46.0836466" lon="13.5323879"><ele>406.42857142857144</ele><time>2026-05-03T12:31:59.097Z</time></trkpt><trkpt lat="46.083666" lon="13.5322986"><ele>408.7142857142857</ele><time>2026-05-03T12:32:00.092Z</time></trkpt><trkpt lat="46.0836836" lon="13.5322028"><ele>411.0</ele><time>2026-05-03T12:32:01.086Z</time></trkpt><trkpt lat="46.0836992" lon="13.5320975"><ele>412.3333333333333</ele><time>2026-05-03T12:32:02.097Z</time></trkpt><trkpt lat="46.0837208" lon="13.5319769"><ele>413.66666666666663</ele><time>2026-05-03T12:32:03.093Z</time></trkpt><trkpt lat="46.0837481" lon="13.5318545"><ele>415.0</ele><time>2026-05-03T12:32:04.111Z</time></trkpt><trkpt lat="46.0837789" lon="13.5317218"><ele>416.3333333333333</ele><time>2026-05-03T12:32:05.099Z</time></trkpt><trkpt lat="46.0838107" lon="13.5316046"><ele>417.66666666666663</ele><time>2026-05-03T12:32:06.088Z</time></trkpt><trkpt lat="46.0838482" lon="13.5315016"><ele>419.0</ele><time>2026-05-03T12:32:07.089Z</time></trkpt><trkpt lat="46.0838911" lon="13.531403"><ele>419.0</ele><time>2026-05-03T12:32:08.096Z</time></trkpt><trkpt lat="46.0839403" lon="13.5313058"><ele>419.0</ele><time>2026-05-03T12:32:09.1Z</time></trkpt><trkpt lat="46.0839964" lon="13.5312036"><ele>419.0</ele><time>2026-05-03T12:32:10.083Z</time></trkpt><trkpt lat="46.0840684" lon="13.5311014"><ele>419.0</ele><time>2026-05-03T12:32:11.091Z</time></trkpt><trkpt lat="46.0841393" lon="13.5309951"><ele>419.0</ele><time>2026-05-03T12:32:12.103Z</time></trkpt><trkpt lat="46.0842126" lon="13.5308846"><ele>419.79999999999995</ele><time>2026-05-03T12:32:13.088Z</time></trkpt><trkpt lat="46.0842801" lon="13.5307724"><ele>420.59999999999997</ele><time>2026-05-03T12:32:14.086Z</time></trkpt><trkpt lat="46.0843536" lon="13.5306536"><ele>421.4</ele><time>2026-05-03T12:32:15.078Z</time></trkpt><trkpt lat="46.0844311" lon="13.5305399"><ele>422.2</ele><time>2026-05-03T12:32:16.08Z</time></trkpt><trkpt lat="46.0845085" lon="13.530441"><ele>423.0</ele><time>2026-05-03T12:32:17.085Z</time></trkpt><trkpt lat="46.084576" lon="13.5303689"><ele>423.0</ele><time>2026-05-03T12:32:18.087Z</time></trkpt><trkpt lat="46.0846398" lon="13.5303229"><ele>423.0</ele><time>2026-05-03T12:32:19.073Z</time></trkpt><trkpt lat="46.0847502" lon="13.5302959"><ele>423.0</ele><time>2026-05-03T12:32:21.077Z</time></trkpt><trkpt lat="46.084826" lon="13.5303678"><ele>423.0</ele><time>2026-05-03T12:32:23.074Z</time></trkpt><trkpt lat="46.0848616" lon="13.5304531"><ele>423.0</ele><time>2026-05-03T12:32:24.078Z</time></trkpt><trkpt lat="46.0848955" lon="13.5305524"><ele>423.0</ele><time>2026-05-03T12:32:25.088Z</time></trkpt><trkpt lat="46.0849327" lon="13.5306558"><ele>422.5</ele><time>2026-05-03T12:32:26.079Z</time></trkpt><trkpt lat="46.0849933" lon="13.530757"><ele>422.0</ele><time>2026-05-03T12:32:27.077Z</time></trkpt><trkpt lat="46.0850591" lon="13.5308578"><ele>421.5</ele><time>2026-05-03T12:32:28.084Z</time></trkpt><trkpt lat="46.0851193" lon="13.5309421"><ele>421.0</ele><time>2026-05-03T12:32:29.087Z</time></trkpt><trkpt lat="46.0851801" lon="13.5310224"><ele>420.5</ele><time>2026-05-03T12:32:30.087Z</time></trkpt><trkpt lat="46.0852506" lon="13.5310887"><ele>420.0</ele><time>2026-05-03T12:32:31.078Z</time></trkpt><trkpt lat="46.0853247" lon="13.5311389"><ele>420.0</ele><time>2026-05-03T12:32:32.085Z</time></trkpt><trkpt lat="46.0853965" lon="13.5311696"><ele>420.0</ele><time>2026-05-03T12:32:33.077Z</time></trkpt><trkpt lat="46.0854666" lon="13.5311826"><ele>420.0</ele><time>2026-05-03T12:32:34.071Z</time></trkpt><trkpt lat="46.0855363" lon="13.5312018"><ele>420.0</ele><time>2026-05-03T12:32:35.091Z</time></trkpt><trkpt lat="46.0856065" lon="13.531223"><ele>420.0</ele><time>2026-05-03T12:32:36.078Z</time></trkpt><trkpt lat="46.0856822" lon="13.5312547"><ele>420.0</ele><time>2026-05-03T12:32:37.086Z</time></trkpt><trkpt lat="46.0857629" lon="13.5312762"><ele>420.0</ele><time>2026-05-03T12:32:38.085Z</time></trkpt><trkpt lat="46.0858472" lon="13.5312756"><ele>418.2</ele><time>2026-05-03T12:32:39.079Z</time></trkpt><trkpt lat="46.0859349" lon="13.5312494"><ele>416.4</ele><time>2026-05-03T12:32:40.09Z</time></trkpt><trkpt lat="46.0860261" lon="13.5312107"><ele>414.6</ele><time>2026-05-03T12:32:41.078Z</time></trkpt><trkpt lat="46.0861134" lon="13.5311605"><ele>412.8</ele><time>2026-05-03T12:32:42.078Z</time></trkpt><trkpt lat="46.0862019" lon="13.5311061"><ele>411.0</ele><time>2026-05-03T12:32:43.075Z</time></trkpt><trkpt lat="46.0862895" lon="13.5310494"><ele>415.0</ele><time>2026-05-03T12:32:44.087Z</time></trkpt><trkpt lat="46.0863827" lon="13.5309964"><ele>419.0</ele><time>2026-05-03T12:32:45.092Z</time></trkpt><trkpt lat="46.0864719" lon="13.5309426"><ele>423.0</ele><time>2026-05-03T12:32:46.071Z</time></trkpt><trkpt lat="46.0865526" lon="13.5308855"><ele>427.0</ele><time>2026-05-03T12:32:47.083Z</time></trkpt><trkpt lat="46.08663" lon="13.5308307"><ele>431.0</ele><time>2026-05-03T12:32:48.083Z</time></trkpt><trkpt lat="46.0867017" lon="13.5307797"><ele>430.99999999999994</ele><time>2026-05-03T12:32:49.079Z</time></trkpt><trkpt lat="46.0867654" lon="13.5307301"><ele>431.0</ele><time>2026-05-03T12:32:50.074Z</time></trkpt><trkpt lat="46.0868208" lon="13.5306723"><ele>431.0</ele><time>2026-05-03T12:32:51.075Z</time></trkpt><trkpt lat="46.086906" lon="13.5305451"><ele>431.0</ele><time>2026-05-03T12:32:53.074Z</time></trkpt><trkpt lat="46.0869539" lon="13.5304749"><ele>430.99999999999994</ele><time>2026-05-03T12:32:54.086Z</time></trkpt><trkpt lat="46.0870075" lon="13.5304139"><ele>431.0</ele><time>2026-05-03T12:32:55.09Z</time></trkpt><trkpt lat="46.0870729" lon="13.5303797"><ele>431.0</ele><time>2026-05-03T12:32:56.074Z</time></trkpt><trkpt lat="46.0871963" lon="13.5303683"><ele>431.0</ele><time>2026-05-03T12:32:58.083Z</time></trkpt><trkpt lat="46.0872592" lon="13.5304014"><ele>431.0</ele><time>2026-05-03T12:32:59.07Z</time></trkpt><trkpt lat="46.0873744" lon="13.5304813"><ele>431.0</ele><time>2026-05-03T12:33:01.087Z</time></trkpt><trkpt lat="46.0874275" lon="13.5305352"><ele>431.0</ele><time>2026-05-03T12:33:02.084Z</time></trkpt><trkpt lat="46.0875131" lon="13.5305867"><ele>432.20000000000005</ele><time>2026-05-03T12:33:03.083Z</time></trkpt><trkpt lat="46.0876081" lon="13.5306246"><ele>433.40000000000003</ele><time>2026-05-03T12:33:04.075Z</time></trkpt><trkpt lat="46.0877113" lon="13.5306448"><ele>434.6</ele><time>2026-05-03T12:33:05.077Z</time></trkpt><trkpt lat="46.0878174" lon="13.5306578"><ele>435.8</ele><time>2026-05-03T12:33:06.085Z</time></trkpt><trkpt lat="46.087915" lon="13.5306775"><ele>437.0</ele><time>2026-05-03T12:33:07.083Z</time></trkpt><trkpt lat="46.0880017" lon="13.5306819"><ele>437.0</ele><time>2026-05-03T12:33:08.082Z</time></trkpt><trkpt lat="46.0880796" lon="13.530674"><ele>437.00000000000006</ele><time>2026-05-03T12:33:09.095Z</time></trkpt><trkpt lat="46.0881492" lon="13.530662"><ele>437.00000000000006</ele><time>2026-05-03T12:33:10.091Z</time></trkpt><trkpt lat="46.0882514" lon="13.5305857"><ele>437.0</ele><time>2026-05-03T12:33:12.097Z</time></trkpt><trkpt lat="46.0883214" lon="13.5304424"><ele>437.0</ele><time>2026-05-03T12:33:14.096Z</time></trkpt><trkpt lat="46.088355" lon="13.530337"><ele>444.20000000000005</ele><time>2026-05-03T12:33:15.084Z</time></trkpt><trkpt lat="46.0883864" lon="13.5302216"><ele>451.40000000000003</ele><time>2026-05-03T12:33:16.087Z</time></trkpt><trkpt lat="46.0884151" lon="13.5300995"><ele>458.59999999999997</ele><time>2026-05-03T12:33:17.095Z</time></trkpt><trkpt lat="46.0884408" lon="13.5299727"><ele>465.79999999999995</ele><time>2026-05-03T12:33:18.092Z</time></trkpt><trkpt lat="46.0884677" lon="13.5298476"><ele>473.0</ele><time>2026-05-03T12:33:19.096Z</time></trkpt><trkpt lat="46.0885025" lon="13.5297213"><ele>473.0</ele><time>2026-05-03T12:33:20.104Z</time></trkpt><trkpt lat="46.0885335" lon="13.5296016"><ele>472.99999999999994</ele><time>2026-05-03T12:33:21.093Z</time></trkpt><trkpt lat="46.088565" lon="13.5294726"><ele>472.99999999999994</ele><time>2026-05-03T12:33:22.085Z</time></trkpt><trkpt lat="46.0885949" lon="13.5293477"><ele>473.0</ele><time>2026-05-03T12:33:23.103Z</time></trkpt><trkpt lat="46.0886254" lon="13.5292248"><ele>473.0</ele><time>2026-05-03T12:33:24.089Z</time></trkpt><trkpt lat="46.0886541" lon="13.5291011"><ele>478.0</ele><time>2026-05-03T12:33:25.098Z</time></trkpt><trkpt lat="46.0886795" lon="13.5289675"><ele>482.99999999999994</ele><time>2026-05-03T12:33:26.088Z</time></trkpt><trkpt lat="46.088707" lon="13.5288309"><ele>487.99999999999994</ele><time>2026-05-03T12:33:27.092Z</time></trkpt><trkpt lat="46.0887462" lon="13.5286912"><ele>493.0</ele><time>2026-05-03T12:33:28.087Z</time></trkpt><trkpt lat="46.0887972" lon="13.528543"><ele>498.0</ele><time>2026-05-03T12:33:29.078Z</time></trkpt><trkpt lat="46.0888506" lon="13.5284049"><ele>502.0</ele><time>2026-05-03T12:33:30.096Z</time></trkpt><trkpt lat="46.0889106" lon="13.5282626"><ele>506.0</ele><time>2026-05-03T12:33:31.084Z</time></trkpt><trkpt lat="46.0889708" lon="13.5281109"><ele>510.0</ele><time>2026-05-03T12:33:32.082Z</time></trkpt><trkpt lat="46.0890236" lon="13.5279589"><ele>514.0</ele><time>2026-05-03T12:33:33.085Z</time></trkpt><trkpt lat="46.0890655" lon="13.5278182"><ele>509.0</ele><time>2026-05-03T12:33:34.103Z</time></trkpt><trkpt lat="46.0890963" lon="13.5276894"><ele>504.0</ele><time>2026-05-03T12:33:35.086Z</time></trkpt><trkpt lat="46.0891099" lon="13.527557"><ele>499.0</ele><time>2026-05-03T12:33:36.087Z</time></trkpt><trkpt lat="46.0891206" lon="13.5274136"><ele>494.0</ele><time>2026-05-03T12:33:37.099Z</time></trkpt><trkpt lat="46.0891258" lon="13.5272697"><ele>489.0</ele><time>2026-05-03T12:33:38.094Z</time></trkpt><trkpt lat="46.0891297" lon="13.527114"><ele>491.6</ele><time>2026-05-03T12:33:39.088Z</time></trkpt><trkpt lat="46.0891403" lon="13.5269554"><ele>494.2</ele><time>2026-05-03T12:33:40.104Z</time></trkpt><trkpt lat="46.0891567" lon="13.526793"><ele>496.80000000000007</ele><time>2026-05-03T12:33:41.087Z</time></trkpt><trkpt lat="46.0891779" lon="13.5266334"><ele>499.40000000000003</ele><time>2026-05-03T12:33:42.09Z</time></trkpt><trkpt lat="46.0891971" lon="13.5264821"><ele>502.0</ele><time>2026-05-03T12:33:43.087Z</time></trkpt><trkpt lat="46.0892123" lon="13.5263197"><ele>504.6</ele><time>2026-05-03T12:33:44.096Z</time></trkpt><trkpt lat="46.0892277" lon="13.5261646"><ele>507.20000000000005</ele><time>2026-05-03T12:33:45.087Z</time></trkpt><trkpt lat="46.0892492" lon="13.5260108"><ele>509.8</ele><time>2026-05-03T12:33:46.087Z</time></trkpt><trkpt lat="46.0892675" lon="13.5258653"><ele>512.4</ele><time>2026-05-03T12:33:47.089Z</time></trkpt><trkpt lat="46.0892749" lon="13.5257054"><ele>515.0</ele><time>2026-05-03T12:33:48.093Z</time></trkpt><trkpt lat="46.0892781" lon="13.525559"><ele>515.0</ele><time>2026-05-03T12:33:49.091Z</time></trkpt><trkpt lat="46.0892945" lon="13.5254244"><ele>515.0</ele><time>2026-05-03T12:33:50.106Z</time></trkpt><trkpt lat="46.0893108" lon="13.5253044"><ele>515.0</ele><time>2026-05-03T12:33:51.098Z</time></trkpt><trkpt lat="46.0893115" lon="13.5251872"><ele>515.0</ele><time>2026-05-03T12:33:52.09Z</time></trkpt><trkpt lat="46.0893092" lon="13.5250539"><ele>515.0</ele><time>2026-05-03T12:33:53.091Z</time></trkpt><trkpt lat="46.0892945" lon="13.524919"><ele>515.0</ele><time>2026-05-03T12:33:54.083Z</time></trkpt><trkpt lat="46.0892665" lon="13.5247914"><ele>515.4285714285714</ele><time>2026-05-03T12:33:55.088Z</time></trkpt><trkpt lat="46.0892449" lon="13.5246821"><ele>515.8571428571429</ele><time>2026-05-03T12:33:56.094Z</time></trkpt><trkpt lat="46.0892248" lon="13.5245806"><ele>516.2857142857142</ele><time>2026-05-03T12:33:57.098Z</time></trkpt><trkpt lat="46.0891982" lon="13.524479"><ele>516.7142857142858</ele><time>2026-05-03T12:33:58.099Z</time></trkpt><trkpt lat="46.0891701" lon="13.524388"><ele>517.1428571428571</ele><time>2026-05-03T12:33:59.099Z</time></trkpt><trkpt lat="46.0891386" lon="13.5242997"><ele>517.5714285714286</ele><time>2026-05-03T12:34:00.101Z</time></trkpt><trkpt lat="46.0891004" lon="13.5242003"><ele>518.0</ele><time>2026-05-03T12:34:01.105Z</time></trkpt><trkpt lat="46.0890352" lon="13.5241142"><ele>522.6</ele><time>2026-05-03T12:34:02.089Z</time></trkpt><trkpt lat="46.088971" lon="13.5240164"><ele>527.1999999999999</ele><time>2026-05-03T12:34:03.092Z</time></trkpt><trkpt lat="46.0889124" lon="13.5239222"><ele>531.8</ele><time>2026-05-03T12:34:04.1Z</time></trkpt><trkpt lat="46.0888609" lon="13.5238294"><ele>536.4</ele><time>2026-05-03T12:34:05.092Z</time></trkpt><trkpt lat="46.0888199" lon="13.5237095"><ele>541.0</ele><time>2026-05-03T12:34:06.096Z</time></trkpt><trkpt lat="46.0887795" lon="13.523575"><ele>541.0</ele><time>2026-05-03T12:34:07.102Z</time></trkpt><trkpt lat="46.0887443" lon="13.523429"><ele>541.0</ele><time>2026-05-03T12:34:08.099Z</time></trkpt><trkpt lat="46.0887163" lon="13.5232693"><ele>541.0</ele><time>2026-05-03T12:34:09.091Z</time></trkpt><trkpt lat="46.088691" lon="13.5231044"><ele>541.0</ele><time>2026-05-03T12:34:10.103Z</time></trkpt><trkpt lat="46.0886728" lon="13.5229482"><ele>541.0</ele><time>2026-05-03T12:34:11.094Z</time></trkpt><trkpt lat="46.0886552" lon="13.5227997"><ele>542.2</ele><time>2026-05-03T12:34:12.108Z</time></trkpt><trkpt lat="46.0886391" lon="13.5226503"><ele>543.4000000000001</ele><time>2026-05-03T12:34:13.098Z</time></trkpt><trkpt lat="46.088642" lon="13.5224945"><ele>544.6</ele><time>2026-05-03T12:34:14.094Z</time></trkpt><trkpt lat="46.0886523" lon="13.5223468"><ele>545.8000000000001</ele><time>2026-05-03T12:34:15.101Z</time></trkpt><trkpt lat="46.0886544" lon="13.5222215"><ele>547.0</ele><time>2026-05-03T12:34:16.098Z</time></trkpt><trkpt lat="46.0886488" lon="13.5221033"><ele>547.6</ele><time>2026-05-03T12:34:17.102Z</time></trkpt><trkpt lat="46.0886254" lon="13.5219659"><ele>548.2</ele><time>2026-05-03T12:34:18.102Z</time></trkpt><trkpt lat="46.0885874" lon="13.5218225"><ele>548.8</ele><time>2026-05-03T12:34:19.091Z</time></trkpt><trkpt lat="46.0885581" lon="13.521673"><ele>549.4</ele><time>2026-05-03T12:34:20.095Z</time></trkpt><trkpt lat="46.088536" lon="13.5215474"><ele>550.0</ele><time>2026-05-03T12:34:21.107Z</time></trkpt><trkpt lat="46.0885256" lon="13.5214347"><ele>550.0</ele><time>2026-05-03T12:34:22.108Z</time></trkpt><trkpt lat="46.0885249" lon="13.5213223"><ele>550.0</ele><time>2026-05-03T12:34:23.092Z</time></trkpt><trkpt lat="46.0885196" lon="13.5212042"><ele>550.0</ele><time>2026-05-03T12:34:24.098Z</time></trkpt><trkpt lat="46.0885035" lon="13.5210915"><ele>550.0</ele><time>2026-05-03T12:34:25.091Z</time></trkpt><trkpt lat="46.088493" lon="13.5209855"><ele>550.0</ele><time>2026-05-03T12:34:26.098Z</time></trkpt><trkpt lat="46.0884862" lon="13.5208741"><ele>550.0</ele><time>2026-05-03T12:34:27.093Z</time></trkpt><trkpt lat="46.0884778" lon="13.5207452"><ele>550.0</ele><time>2026-05-03T12:34:28.087Z</time></trkpt><trkpt lat="46.0884739" lon="13.5206072"><ele>550.0</ele><time>2026-05-03T12:34:29.095Z</time></trkpt><trkpt lat="46.0884755" lon="13.5204773"><ele>550.0</ele><time>2026-05-03T12:34:30.082Z</time></trkpt><trkpt lat="46.088484" lon="13.520347"><ele>550.0</ele><time>2026-05-03T12:34:31.096Z</time></trkpt><trkpt lat="46.0884985" lon="13.5202246"><ele>550.0</ele><time>2026-05-03T12:34:32.087Z</time></trkpt><trkpt lat="46.0885199" lon="13.5201045"><ele>550.0</ele><time>2026-05-03T12:34:33.091Z</time></trkpt><trkpt lat="46.0885327" lon="13.5199734"><ele>550.0</ele><time>2026-05-03T12:34:34.081Z</time></trkpt><trkpt lat="46.0885461" lon="13.5198511"><ele>550.0</ele><time>2026-05-03T12:34:35.076Z</time></trkpt><trkpt lat="46.0885499" lon="13.5197345"><ele>550.0</ele><time>2026-05-03T12:34:36.085Z</time></trkpt><trkpt lat="46.0885546" lon="13.5196242"><ele>550.0</ele><time>2026-05-03T12:34:37.077Z</time></trkpt><trkpt lat="46.0885667" lon="13.5195183"><ele>550.0</ele><time>2026-05-03T12:34:38.097Z</time></trkpt><trkpt lat="46.0885876" lon="13.5194306"><ele>550.0</ele><time>2026-05-03T12:34:39.084Z</time></trkpt><trkpt lat="46.0886613" lon="13.5193105"><ele>548.0</ele><time>2026-05-03T12:34:41.076Z</time></trkpt><trkpt lat="46.0887237" lon="13.519275"><ele>546.0</ele><time>2026-05-03T12:34:42.08Z</time></trkpt><trkpt lat="46.0888066" lon="13.5192458"><ele>544.0</ele><time>2026-05-03T12:34:43.071Z</time></trkpt><trkpt lat="46.0888996" lon="13.5192326"><ele>542.0</ele><time>2026-05-03T12:34:44.07Z</time></trkpt><trkpt lat="46.0889973" lon="13.5192052"><ele>540.0</ele><time>2026-05-03T12:34:45.084Z</time></trkpt><trkpt lat="46.0890904" lon="13.5191595"><ele>538.0</ele><time>2026-05-03T12:34:46.086Z</time></trkpt><trkpt lat="46.0891692" lon="13.5190946"><ele>538.0</ele><time>2026-05-03T12:34:47.076Z</time></trkpt><trkpt lat="46.0892426" lon="13.5190188"><ele>538.0</ele><time>2026-05-03T12:34:48.097Z</time></trkpt><trkpt lat="46.0893124" lon="13.5189661"><ele>538.0</ele><time>2026-05-03T12:34:49.082Z</time></trkpt><trkpt lat="46.089375" lon="13.5189453"><ele>538.0</ele><time>2026-05-03T12:34:50.088Z</time></trkpt><trkpt lat="46.0894585" lon="13.5189473"><ele>538.0</ele><time>2026-05-03T12:34:51.085Z</time></trkpt><trkpt lat="46.0895467" lon="13.5189563"><ele>538.0</ele><time>2026-05-03T12:34:52.081Z</time></trkpt><trkpt lat="46.0896464" lon="13.5189562"><ele>538.0</ele><time>2026-05-03T12:34:53.087Z</time></trkpt><trkpt lat="46.0897524" lon="13.5189485"><ele>538.0</ele><time>2026-05-03T12:34:54.087Z</time></trkpt><trkpt lat="46.0898535" lon="13.5189408"><ele>538.0</ele><time>2026-05-03T12:34:55.083Z</time></trkpt><trkpt lat="46.0899382" lon="13.5189141"><ele>538.0</ele><time>2026-05-03T12:34:56.083Z</time></trkpt><trkpt lat="46.090008" lon="13.5188938"><ele>538.0</ele><time>2026-05-03T12:34:57.08Z</time></trkpt><trkpt lat="46.0901115" lon="13.5189772"><ele>537.4</ele><time>2026-05-03T12:34:59.075Z</time></trkpt><trkpt lat="46.0901536" lon="13.5190614"><ele>536.8</ele><time>2026-05-03T12:35:00.08Z</time></trkpt><trkpt lat="46.0902051" lon="13.5191546"><ele>536.2</ele><time>2026-05-03T12:35:01.079Z</time></trkpt><trkpt lat="46.0902585" lon="13.5192227"><ele>535.6</ele><time>2026-05-03T12:35:02.092Z</time></trkpt><trkpt lat="46.0903851" lon="13.5191714"><ele>535.0</ele><time>2026-05-03T12:35:04.079Z</time></trkpt><trkpt lat="46.0904566" lon="13.5190812"><ele>535.0</ele><time>2026-05-03T12:35:05.081Z</time></trkpt><trkpt lat="46.0905347" lon="13.5189548"><ele>535.0</ele><time>2026-05-03T12:35:06.086Z</time></trkpt><trkpt lat="46.0906072" lon="13.5188244"><ele>535.0</ele><time>2026-05-03T12:35:07.086Z</time></trkpt><trkpt lat="46.0906819" lon="13.5187177"><ele>535.0</ele><time>2026-05-03T12:35:08.097Z</time></trkpt><trkpt lat="46.0907671" lon="13.5186341"><ele>535.0</ele><time>2026-05-03T12:35:09.08Z</time></trkpt><trkpt lat="46.0908546" lon="13.5185568"><ele>540.0</ele><time>2026-05-03T12:35:10.095Z</time></trkpt><trkpt lat="46.0909421" lon="13.5184891"><ele>545.0</ele><time>2026-05-03T12:35:11.091Z</time></trkpt><trkpt lat="46.0910347" lon="13.5184169"><ele>550.0</ele><time>2026-05-03T12:35:12.083Z</time></trkpt><trkpt lat="46.0911227" lon="13.5183446"><ele>555.0</ele><time>2026-05-03T12:35:13.093Z</time></trkpt><trkpt lat="46.0912119" lon="13.5182616"><ele>560.0</ele><time>2026-05-03T12:35:14.098Z</time></trkpt><trkpt lat="46.0912971" lon="13.5181782"><ele>560.0</ele><time>2026-05-03T12:35:15.085Z</time></trkpt><trkpt lat="46.0913802" lon="13.5180935"><ele>560.0</ele><time>2026-05-03T12:35:16.081Z</time></trkpt><trkpt lat="46.0914639" lon="13.518006"><ele>560.0</ele><time>2026-05-03T12:35:17.095Z</time></trkpt><trkpt lat="46.091546" lon="13.5179217"><ele>560.0</ele><time>2026-05-03T12:35:18.098Z</time></trkpt><trkpt lat="46.0916246" lon="13.517835"><ele>560.0</ele><time>2026-05-03T12:35:19.088Z</time></trkpt><trkpt lat="46.0917117" lon="13.5177384"><ele>564.0</ele><time>2026-05-03T12:35:20.083Z</time></trkpt><trkpt lat="46.0918086" lon="13.5176305"><ele>568.0</ele><time>2026-05-03T12:35:21.083Z</time></trkpt><trkpt lat="46.0919056" lon="13.517526"><ele>572.0</ele><time>2026-05-03T12:35:22.093Z</time></trkpt><trkpt lat="46.0920077" lon="13.5174367"><ele>576.0</ele><time>2026-05-03T12:35:23.079Z</time></trkpt><trkpt lat="46.0921031" lon="13.5173578"><ele>576.0</ele><time>2026-05-03T12:35:24.098Z</time></trkpt><trkpt lat="46.0921956" lon="13.517283"><ele>576.0</ele><time>2026-05-03T12:35:25.088Z</time></trkpt><trkpt lat="46.0922753" lon="13.5172149"><ele>576.0</ele><time>2026-05-03T12:35:26.096Z</time></trkpt><trkpt lat="46.0923406" lon="13.5171467"><ele>576.0</ele><time>2026-05-03T12:35:27.084Z</time></trkpt><trkpt lat="46.0924004" lon="13.5170625"><ele>576.0</ele><time>2026-05-03T12:35:28.08Z</time></trkpt><trkpt lat="46.0924506" lon="13.5169872"><ele>576.0</ele><time>2026-05-03T12:35:29.094Z</time></trkpt><trkpt lat="46.0924911" lon="13.5169111"><ele>575.4</ele><time>2026-05-03T12:35:30.089Z</time></trkpt><trkpt lat="46.0925427" lon="13.5168389"><ele>574.8</ele><time>2026-05-03T12:35:32.106Z</time></trkpt><trkpt lat="46.0926212" lon="13.5169095"><ele>574.1999999999999</ele><time>2026-05-03T12:35:35.086Z</time></trkpt><trkpt lat="46.0926291" lon="13.5170879"><ele>573.6</ele><time>2026-05-03T12:35:37.092Z</time></trkpt><trkpt lat="46.0926339" lon="13.5171849"><ele>573.0</ele><time>2026-05-03T12:35:38.088Z</time></trkpt><trkpt lat="46.0926537" lon="13.5173235"><ele>573.0</ele><time>2026-05-03T12:35:40.103Z</time></trkpt><trkpt lat="46.0926692" lon="13.5174308"><ele>573.0</ele><time>2026-05-03T12:35:43.102Z</time></trkpt><trkpt lat="46.0926957" lon="13.517527"><ele>573.0</ele><time>2026-05-03T12:35:45.099Z</time></trkpt><trkpt lat="46.092715" lon="13.5176219"><ele>573.0</ele><time>2026-05-03T12:35:46.099Z</time></trkpt><trkpt lat="46.092736" lon="13.5177253"><ele>573.0</ele><time>2026-05-03T12:35:47.101Z</time></trkpt><trkpt lat="46.092746" lon="13.5178552"><ele>573.0</ele><time>2026-05-03T12:35:48.095Z</time></trkpt><trkpt lat="46.092755" lon="13.5180112"><ele>571.5</ele><time>2026-05-03T12:35:49.104Z</time></trkpt><trkpt lat="46.0927692" lon="13.5181899"><ele>570.0</ele><time>2026-05-03T12:35:50.096Z</time></trkpt><trkpt lat="46.0927842" lon="13.5183671"><ele>568.5</ele><time>2026-05-03T12:35:51.099Z</time></trkpt><trkpt lat="46.0928064" lon="13.5185414"><ele>567.0</ele><time>2026-05-03T12:35:52.103Z</time></trkpt><trkpt lat="46.0928315" lon="13.5187028"><ele>565.6</ele><time>2026-05-03T12:35:53.092Z</time></trkpt><trkpt lat="46.0928511" lon="13.5188671"><ele>564.2</ele><time>2026-05-03T12:35:54.098Z</time></trkpt><trkpt lat="46.0928736" lon="13.5190218"><ele>562.8</ele><time>2026-05-03T12:35:55.1Z</time></trkpt><trkpt lat="46.0929098" lon="13.5191585"><ele>561.4</ele><time>2026-05-03T12:35:56.094Z</time></trkpt><trkpt lat="46.0929645" lon="13.5192605"><ele>560.0</ele><time>2026-05-03T12:35:57.101Z</time></trkpt><trkpt lat="46.0930313" lon="13.5193417"><ele>560.0</ele><time>2026-05-03T12:35:58.08Z</time></trkpt><trkpt lat="46.0931034" lon="13.5193971"><ele>560.0</ele><time>2026-05-03T12:35:59.085Z</time></trkpt><trkpt lat="46.0931774" lon="13.5194507"><ele>560.0</ele><time>2026-05-03T12:36:00.085Z</time></trkpt><trkpt lat="46.0932581" lon="13.5195061"><ele>560.0</ele><time>2026-05-03T12:36:01.105Z</time></trkpt><trkpt lat="46.0933302" lon="13.5195683"><ele>560.0</ele><time>2026-05-03T12:36:02.102Z</time></trkpt><trkpt lat="46.0934017" lon="13.519616"><ele>560.0</ele><time>2026-05-03T12:36:03.098Z</time></trkpt><trkpt lat="46.0934716" lon="13.5196303"><ele>564.2</ele><time>2026-05-03T12:36:04.099Z</time></trkpt><trkpt lat="46.0935375" lon="13.5196104"><ele>568.4</ele><time>2026-05-03T12:36:05.093Z</time></trkpt><trkpt lat="46.0936471" lon="13.5195636"><ele>572.6</ele><time>2026-05-03T12:36:07.095Z</time></trkpt><trkpt lat="46.0937373" lon="13.5194979"><ele>576.8</ele><time>2026-05-03T12:36:09.101Z</time></trkpt><trkpt lat="46.0937644" lon="13.5194036"><ele>581.0</ele><time>2026-05-03T12:36:11.1Z</time></trkpt><trkpt lat="46.0937288" lon="13.5192735"><ele>582.2</ele><time>2026-05-03T12:36:13.093Z</time></trkpt><trkpt lat="46.0936945" lon="13.5191709"><ele>583.4000000000001</ele><time>2026-05-03T12:36:14.09Z</time></trkpt><trkpt lat="46.0936658" lon="13.519043"><ele>584.6</ele><time>2026-05-03T12:36:15.12Z</time></trkpt><trkpt lat="46.0936568" lon="13.5189005"><ele>585.8000000000001</ele><time>2026-05-03T12:36:16.103Z</time></trkpt><trkpt lat="46.0936684" lon="13.5187607"><ele>587.0</ele><time>2026-05-03T12:36:17.101Z</time></trkpt><trkpt lat="46.0936842" lon="13.5186246"><ele>589.2</ele><time>2026-05-03T12:36:18.116Z</time></trkpt><trkpt lat="46.0937067" lon="13.5184832"><ele>591.4000000000001</ele><time>2026-05-03T12:36:19.101Z</time></trkpt><trkpt lat="46.0937245" lon="13.5183308"><ele>593.5999999999999</ele><time>2026-05-03T12:36:20.1Z</time></trkpt><trkpt lat="46.0937419" lon="13.5181702"><ele>595.8</ele><time>2026-05-03T12:36:21.109Z</time></trkpt><trkpt lat="46.0937595" lon="13.5180157"><ele>598.0</ele><time>2026-05-03T12:36:22.107Z</time></trkpt><trkpt lat="46.0937805" lon="13.5178571"><ele>598.0</ele><time>2026-05-03T12:36:23.105Z</time></trkpt><trkpt lat="46.0938056" lon="13.517691"><ele>598.0</ele><time>2026-05-03T12:36:24.108Z</time></trkpt><trkpt lat="46.0938397" lon="13.5175315"><ele>598.0</ele><time>2026-05-03T12:36:25.104Z</time></trkpt><trkpt lat="46.0938789" lon="13.5173645"><ele>598.0</ele><time>2026-05-03T12:36:26.109Z</time></trkpt><trkpt lat="46.0939176" lon="13.5172048"><ele>594.3333333333334</ele><time>2026-05-03T12:36:27.11Z</time></trkpt><trkpt lat="46.0939521" lon="13.5170585"><ele>590.6666666666667</ele><time>2026-05-03T12:36:28.115Z</time></trkpt><trkpt lat="46.0939813" lon="13.5169291"><ele>587.0</ele><time>2026-05-03T12:36:29.104Z</time></trkpt><trkpt lat="46.0939949" lon="13.5168162"><ele>583.3333333333334</ele><time>2026-05-03T12:36:30.107Z</time></trkpt><trkpt lat="46.0939749" lon="13.5167192"><ele>579.6666666666666</ele><time>2026-05-03T12:36:31.121Z</time></trkpt><trkpt lat="46.0939247" lon="13.5166588"><ele>576.0</ele><time>2026-05-03T12:36:32.086Z</time></trkpt><trkpt lat="46.0938491" lon="13.5166457"><ele>576.0</ele><time>2026-05-03T12:36:33.085Z</time></trkpt><trkpt lat="46.0937643" lon="13.5166723"><ele>576.0</ele><time>2026-05-03T12:36:34.078Z</time></trkpt><trkpt lat="46.0936681" lon="13.5167026"><ele>576.0</ele><time>2026-05-03T12:36:35.087Z</time></trkpt><trkpt lat="46.0935522" lon="13.5167242"><ele>576.0</ele><time>2026-05-03T12:36:36.113Z</time></trkpt><trkpt lat="46.0934216" lon="13.5167268"><ele>576.0</ele><time>2026-05-03T12:36:37.105Z</time></trkpt><trkpt lat="46.0932866" lon="13.516719"><ele>577.0</ele><time>2026-05-03T12:36:38.102Z</time></trkpt><trkpt lat="46.0931403" lon="13.5167083"><ele>578.0</ele><time>2026-05-03T12:36:39.093Z</time></trkpt><trkpt lat="46.0930067" lon="13.5166913"><ele>579.0</ele><time>2026-05-03T12:36:40.091Z</time></trkpt><trkpt lat="46.0928944" lon="13.5166747"><ele>580.0</ele><time>2026-05-03T12:36:41.083Z</time></trkpt><trkpt lat="46.0928009" lon="13.5166326"><ele>580.0</ele><time>2026-05-03T12:36:42.094Z</time></trkpt><trkpt lat="46.092722" lon="13.516542"><ele>580.0</ele><time>2026-05-03T12:36:43.088Z</time></trkpt><trkpt lat="46.0926719" lon="13.5164213"><ele>580.0</ele><time>2026-05-03T12:36:44.09Z</time></trkpt><trkpt lat="46.0926501" lon="13.5162685"><ele>580.0</ele><time>2026-05-03T12:36:45.082Z</time></trkpt><trkpt lat="46.0926356" lon="13.5160848"><ele>580.0</ele><time>2026-05-03T12:36:46.086Z</time></trkpt><trkpt lat="46.0926182" lon="13.5158817"><ele>580.6666666666667</ele><time>2026-05-03T12:36:47.077Z</time></trkpt><trkpt lat="46.0926051" lon="13.5156644"><ele>581.3333333333334</ele><time>2026-05-03T12:36:48.11Z</time></trkpt><trkpt lat="46.0926035" lon="13.5154225"><ele>582.0</ele><time>2026-05-03T12:36:49.106Z</time></trkpt><trkpt lat="46.0925971" lon="13.5151898"><ele>582.0</ele><time>2026-05-03T12:36:50.091Z</time></trkpt><trkpt lat="46.0925962" lon="13.5149764"><ele>582.0</ele><time>2026-05-03T12:36:51.088Z</time></trkpt><trkpt lat="46.092597" lon="13.5147981"><ele>582.0</ele><time>2026-05-03T12:36:52.103Z</time></trkpt><trkpt lat="46.0925952" lon="13.5146154"><ele>582.0</ele><time>2026-05-03T12:36:53.088Z</time></trkpt><trkpt lat="46.0925987" lon="13.514421"><ele>582.25</ele><time>2026-05-03T12:36:54.088Z</time></trkpt><trkpt lat="46.0926202" lon="13.5142244"><ele>582.5</ele><time>2026-05-03T12:36:55.083Z</time></trkpt><trkpt lat="46.0926505" lon="13.5140232"><ele>582.75</ele><time>2026-05-03T12:36:56.092Z</time></trkpt><trkpt lat="46.0926761" lon="13.5138187"><ele>583.0</ele><time>2026-05-03T12:36:57.104Z</time></trkpt><trkpt lat="46.0927" lon="13.5136141"><ele>581.0</ele><time>2026-05-03T12:36:58.095Z</time></trkpt><trkpt lat="46.0927138" lon="13.513419"><ele>579.0</ele><time>2026-05-03T12:36:59.085Z</time></trkpt><trkpt lat="46.0927145" lon="13.5132351"><ele>577.0</ele><time>2026-05-03T12:37:00.088Z</time></trkpt><trkpt lat="46.0927066" lon="13.513057"><ele>575.0</ele><time>2026-05-03T12:37:01.09Z</time></trkpt><trkpt lat="46.0926896" lon="13.5128876"><ele>573.5</ele><time>2026-05-03T12:37:02.092Z</time></trkpt><trkpt lat="46.0926804" lon="13.5127147"><ele>572.0</ele><time>2026-05-03T12:37:03.086Z</time></trkpt><trkpt lat="46.0926753" lon="13.5125415"><ele>570.5</ele><time>2026-05-03T12:37:04.108Z</time></trkpt><trkpt lat="46.0926908" lon="13.5123652"><ele>569.0</ele><time>2026-05-03T12:37:05.112Z</time></trkpt><trkpt lat="46.0927352" lon="13.5121902"><ele>567.75</ele><time>2026-05-03T12:37:06.1Z</time></trkpt><trkpt lat="46.0927918" lon="13.5120199"><ele>566.5</ele><time>2026-05-03T12:37:07.113Z</time></trkpt><trkpt lat="46.0928569" lon="13.5118412"><ele>565.25</ele><time>2026-05-03T12:37:08.096Z</time></trkpt><trkpt lat="46.0929285" lon="13.5116673"><ele>564.0</ele><time>2026-05-03T12:37:09.1Z</time></trkpt><trkpt lat="46.0930081" lon="13.5114894"><ele>564.0</ele><time>2026-05-03T12:37:10.114Z</time></trkpt><trkpt lat="46.0930881" lon="13.5113108"><ele>564.0</ele><time>2026-05-03T12:37:11.111Z</time></trkpt><trkpt lat="46.0931715" lon="13.5111286"><ele>564.0</ele><time>2026-05-03T12:37:12.107Z</time></trkpt><trkpt lat="46.093259" lon="13.5109427"><ele>562.0</ele><time>2026-05-03T12:37:13.108Z</time></trkpt><trkpt lat="46.093342" lon="13.5107493"><ele>560.0</ele><time>2026-05-03T12:37:14.105Z</time></trkpt><trkpt lat="46.0934108" lon="13.510548"><ele>558.0</ele><time>2026-05-03T12:37:15.107Z</time></trkpt><trkpt lat="46.0934647" lon="13.5103479"><ele>556.0</ele><time>2026-05-03T12:37:16.1Z</time></trkpt><trkpt lat="46.0935014" lon="13.5101355"><ele>554.0</ele><time>2026-05-03T12:37:17.111Z</time></trkpt><trkpt lat="46.0935281" lon="13.5099166"><ele>552.0</ele><time>2026-05-03T12:37:18.095Z</time></trkpt><trkpt lat="46.0935542" lon="13.5096726"><ele>549.0</ele><time>2026-05-03T12:37:19.116Z</time></trkpt><trkpt lat="46.0935717" lon="13.5094156"><ele>546.0</ele><time>2026-05-03T12:37:20.109Z</time></trkpt><trkpt lat="46.0935656" lon="13.5091459"><ele>543.0</ele><time>2026-05-03T12:37:21.117Z</time></trkpt><trkpt lat="46.0935516" lon="13.5088786"><ele>539.3333333333334</ele><time>2026-05-03T12:37:22.1Z</time></trkpt><trkpt lat="46.0935362" lon="13.5086114"><ele>535.6666666666667</ele><time>2026-05-03T12:37:23.11Z</time></trkpt><trkpt lat="46.0935242" lon="13.508352"><ele>532.0</ele><time>2026-05-03T12:37:24.115Z</time></trkpt><trkpt lat="46.0935161" lon="13.5081005"><ele>529.0</ele><time>2026-05-03T12:37:25.118Z</time></trkpt><trkpt lat="46.0935063" lon="13.5078561"><ele>526.0</ele><time>2026-05-03T12:37:26.123Z</time></trkpt><trkpt lat="46.0934999" lon="13.5076125"><ele>523.0</ele><time>2026-05-03T12:37:27.11Z</time></trkpt><trkpt lat="46.0934997" lon="13.5073866"><ele>523.0</ele><time>2026-05-03T12:37:28.116Z</time></trkpt><trkpt lat="46.0935169" lon="13.5071807"><ele>523.0</ele><time>2026-05-03T12:37:29.121Z</time></trkpt><trkpt lat="46.0935497" lon="13.5070062"><ele>523.0</ele><time>2026-05-03T12:37:30.111Z</time></trkpt><trkpt lat="46.0935821" lon="13.5068594"><ele>523.0</ele><time>2026-05-03T12:37:31.12Z</time></trkpt><trkpt lat="46.093595" lon="13.506714"><ele>521.75</ele><time>2026-05-03T12:37:32.105Z</time></trkpt><trkpt lat="46.0935718" lon="13.5065678"><ele>520.5</ele><time>2026-05-03T12:37:33.111Z</time></trkpt><trkpt lat="46.0935059" lon="13.506417"><ele>519.25</ele><time>2026-05-03T12:37:34.095Z</time></trkpt><trkpt lat="46.0934318" lon="13.5062754"><ele>518.0</ele><time>2026-05-03T12:37:35.097Z</time></trkpt><trkpt lat="46.0933612" lon="13.5061408"><ele>516.5</ele><time>2026-05-03T12:37:36.118Z</time></trkpt><trkpt lat="46.0933064" lon="13.5060309"><ele>515.0</ele><time>2026-05-03T12:37:37.113Z</time></trkpt><trkpt lat="46.0932571" lon="13.5059729"><ele>513.5</ele><time>2026-05-03T12:37:38.116Z</time></trkpt><trkpt lat="46.093151" lon="13.5060266"><ele>512.0</ele><time>2026-05-03T12:37:40.109Z</time></trkpt><trkpt lat="46.0931242" lon="13.5061159"><ele>510.49999999999994</ele><time>2026-05-03T12:37:41.105Z</time></trkpt><trkpt lat="46.0931217" lon="13.5062346"><ele>509.0</ele><time>2026-05-03T12:37:42.119Z</time></trkpt><trkpt lat="46.0930662" lon="13.506335"><ele>505.25</ele><time>2026-05-03T12:37:44.13Z</time></trkpt><trkpt lat="46.0929757" lon="13.5062361"><ele>501.5</ele><time>2026-05-03T12:37:46.103Z</time></trkpt><trkpt lat="46.0929587" lon="13.5060835"><ele>497.75</ele><time>2026-05-03T12:37:47.089Z</time></trkpt><trkpt lat="46.0929599" lon="13.5059104"><ele>494.0</ele><time>2026-05-03T12:37:48.093Z</time></trkpt><trkpt lat="46.0929794" lon="13.5057039"><ele>494.0</ele><time>2026-05-03T12:37:49.098Z</time></trkpt><trkpt lat="46.0930226" lon="13.5055116"><ele>494.0</ele><time>2026-05-03T12:37:50.094Z</time></trkpt><trkpt lat="46.0930891" lon="13.505355"><ele>494.0</ele><time>2026-05-03T12:37:51.101Z</time></trkpt><trkpt lat="46.0931635" lon="13.5052511"><ele>494.0</ele><time>2026-05-03T12:37:52.098Z</time></trkpt><trkpt lat="46.0932106" lon="13.505176"><ele>494.0</ele><time>2026-05-03T12:37:53.098Z</time></trkpt><trkpt lat="46.0932274" lon="13.5050881"><ele>493.6</ele><time>2026-05-03T12:37:54.13Z</time></trkpt><trkpt lat="46.0931281" lon="13.505004"><ele>493.2</ele><time>2026-05-03T12:37:56.11Z</time></trkpt><trkpt lat="46.0930217" lon="13.5050295"><ele>492.80000000000007</ele><time>2026-05-03T12:37:57.11Z</time></trkpt><trkpt lat="46.0929174" lon="13.5050671"><ele>492.40000000000003</ele><time>2026-05-03T12:37:58.105Z</time></trkpt><trkpt lat="46.0928112" lon="13.505087"><ele>492.0</ele><time>2026-05-03T12:37:59.104Z</time></trkpt><trkpt lat="46.0927196" lon="13.5050858"><ele>492.0</ele><time>2026-05-03T12:38:00.126Z</time></trkpt><trkpt lat="46.0926425" lon="13.5050759"><ele>492.0</ele><time>2026-05-03T12:38:01.137Z</time></trkpt><trkpt lat="46.0925763" lon="13.5050524"><ele>492.0</ele><time>2026-05-03T12:38:02.103Z</time></trkpt><trkpt lat="46.0925143" lon="13.5049871"><ele>492.0</ele><time>2026-05-03T12:38:04.098Z</time></trkpt><trkpt lat="46.0925634" lon="13.5049219"><ele>492.0</ele><time>2026-05-03T12:38:16.104Z</time></trkpt><trkpt lat="46.0926273" lon="13.5048834"><ele>492.0</ele><time>2026-05-03T12:38:23.119Z</time></trkpt><trkpt lat="46.0927284" lon="13.5048341"><ele>492.0</ele><time>2026-05-03T12:38:25.122Z</time></trkpt><trkpt lat="46.092841" lon="13.5048076"><ele>492.00000000000006</ele><time>2026-05-03T12:38:27.116Z</time></trkpt><trkpt lat="46.0929586" lon="13.5047913"><ele>492.00000000000006</ele><time>2026-05-03T12:38:29.112Z</time></trkpt><trkpt lat="46.0930241" lon="13.5047835"><ele>492.0</ele><time>2026-05-03T12:38:30.103Z</time></trkpt><trkpt lat="46.0931395" lon="13.5047736"><ele>492.0</ele><time>2026-05-03T12:38:32.111Z</time></trkpt><trkpt lat="46.0932371" lon="13.5047853"><ele>493.0</ele><time>2026-05-03T12:38:34.136Z</time></trkpt><trkpt lat="46.0933013" lon="13.5048208"><ele>494.00000000000006</ele><time>2026-05-03T12:38:35.124Z</time></trkpt><trkpt lat="46.0933798" lon="13.5048864"><ele>495.00000000000006</ele><time>2026-05-03T12:38:36.091Z</time></trkpt><trkpt lat="46.0934674" lon="13.5049714"><ele>496.0</ele><time>2026-05-03T12:38:37.095Z</time></trkpt><trkpt lat="46.0935641" lon="13.5050621"><ele>497.0</ele><time>2026-05-03T12:38:38.11Z</time></trkpt><trkpt lat="46.0936729" lon="13.5051476"><ele>497.0</ele><time>2026-05-03T12:38:39.129Z</time></trkpt><trkpt lat="46.0937788" lon="13.5052341"><ele>497.0</ele><time>2026-05-03T12:38:40.114Z</time></trkpt><trkpt lat="46.0938886" lon="13.5053241"><ele>497.0</ele><time>2026-05-03T12:38:41.122Z</time></trkpt><trkpt lat="46.0939959" lon="13.5054111"><ele>497.0</ele><time>2026-05-03T12:38:42.112Z</time></trkpt><trkpt lat="46.0941042" lon="13.505484"><ele>497.0</ele><time>2026-05-03T12:38:43.118Z</time></trkpt><trkpt lat="46.0942127" lon="13.5055473"><ele>497.00000000000006</ele><time>2026-05-03T12:38:44.112Z</time></trkpt><trkpt lat="46.0943186" lon="13.5055892"><ele>497.00000000000006</ele><time>2026-05-03T12:38:45.119Z</time></trkpt><trkpt lat="46.0944134" lon="13.5056163"><ele>497.0</ele><time>2026-05-03T12:38:46.105Z</time></trkpt><trkpt lat="46.0944927" lon="13.505631"><ele>497.0</ele><time>2026-05-03T12:38:47.106Z</time></trkpt><trkpt lat="46.0945697" lon="13.5056197"><ele>497.0</ele><time>2026-05-03T12:38:48.121Z</time></trkpt><trkpt lat="46.0946546" lon="13.5055684"><ele>497.00000000000006</ele><time>2026-05-03T12:38:49.11Z</time></trkpt><trkpt lat="46.0947417" lon="13.505476"><ele>497.00000000000006</ele><time>2026-05-03T12:38:50.104Z</time></trkpt><trkpt lat="46.094836" lon="13.5053802"><ele>497.0</ele><time>2026-05-03T12:38:51.112Z</time></trkpt><trkpt lat="46.0949098" lon="13.5053134"><ele>497.0</ele><time>2026-05-03T12:38:52.118Z</time></trkpt><trkpt lat="46.0949835" lon="13.505264"><ele>491.20000000000005</ele><time>2026-05-03T12:38:53.119Z</time></trkpt><trkpt lat="46.0950531" lon="13.5052505"><ele>485.40000000000003</ele><time>2026-05-03T12:38:54.117Z</time></trkpt><trkpt lat="46.095141" lon="13.5052609"><ele>479.59999999999997</ele><time>2026-05-03T12:38:55.118Z</time></trkpt><trkpt lat="46.0952594" lon="13.5052778"><ele>473.79999999999995</ele><time>2026-05-03T12:38:56.101Z</time></trkpt><trkpt lat="46.0953708" lon="13.5052884"><ele>468.0</ele><time>2026-05-03T12:38:57.09Z</time></trkpt><trkpt lat="46.095458" lon="13.5052642"><ele>468.0</ele><time>2026-05-03T12:38:58.124Z</time></trkpt><trkpt lat="46.0955327" lon="13.5052239"><ele>467.99999999999994</ele><time>2026-05-03T12:38:59.117Z</time></trkpt><trkpt lat="46.0956096" lon="13.5051486"><ele>467.99999999999994</ele><time>2026-05-03T12:39:00.127Z</time></trkpt><trkpt lat="46.0956786" lon="13.5050292"><ele>468.0</ele><time>2026-05-03T12:39:01.113Z</time></trkpt><trkpt lat="46.095746" lon="13.5049017"><ele>468.0</ele><time>2026-05-03T12:39:02.104Z</time></trkpt><trkpt lat="46.0958185" lon="13.5047811"><ele>465.75</ele><time>2026-05-03T12:39:03.11Z</time></trkpt><trkpt lat="46.0958899" lon="13.5046555"><ele>463.5</ele><time>2026-05-03T12:39:04.136Z</time></trkpt><trkpt lat="46.095972" lon="13.5045309"><ele>461.25</ele><time>2026-05-03T12:39:05.13Z</time></trkpt><trkpt lat="46.0960645" lon="13.5044046"><ele>459.0</ele><time>2026-05-03T12:39:06.128Z</time></trkpt><trkpt lat="46.0961636" lon="13.5042851"><ele>457.75</ele><time>2026-05-03T12:39:07.116Z</time></trkpt><trkpt lat="46.0962716" lon="13.5041704"><ele>456.5</ele><time>2026-05-03T12:39:08.111Z</time></trkpt><trkpt lat="46.0963929" lon="13.5040515"><ele>455.25</ele><time>2026-05-03T12:39:09.125Z</time></trkpt><trkpt lat="46.0965176" lon="13.5039278"><ele>454.0</ele><time>2026-05-03T12:39:10.117Z</time></trkpt><trkpt lat="46.0966391" lon="13.5038086"><ele>452.5</ele><time>2026-05-03T12:39:11.111Z</time></trkpt><trkpt lat="46.096754" lon="13.5036927"><ele>451.0</ele><time>2026-05-03T12:39:12.107Z</time></trkpt><trkpt lat="46.0968598" lon="13.5035887"><ele>449.5</ele><time>2026-05-03T12:39:13.121Z</time></trkpt><trkpt lat="46.0969693" lon="13.5035011"><ele>448.0</ele><time>2026-05-03T12:39:14.102Z</time></trkpt><trkpt lat="46.097089" lon="13.5034255"><ele>448.0</ele><time>2026-05-03T12:39:15.107Z</time></trkpt><trkpt lat="46.0972146" lon="13.5033481"><ele>448.0</ele><time>2026-05-03T12:39:16.117Z</time></trkpt><trkpt lat="46.0973587" lon="13.5032741"><ele>448.0</ele><time>2026-05-03T12:39:17.111Z</time></trkpt><trkpt lat="46.0975137" lon="13.5031945"><ele>444.6666666666667</ele><time>2026-05-03T12:39:18.108Z</time></trkpt><trkpt lat="46.0976735" lon="13.5031065"><ele>441.33333333333337</ele><time>2026-05-03T12:39:19.105Z</time></trkpt><trkpt lat="46.0978349" lon="13.503021"><ele>438.0</ele><time>2026-05-03T12:39:20.094Z</time></trkpt><trkpt lat="46.097996" lon="13.5029363"><ele>437.0</ele><time>2026-05-03T12:39:21.093Z</time></trkpt><trkpt lat="46.0981356" lon="13.5028607"><ele>436.0</ele><time>2026-05-03T12:39:22.104Z</time></trkpt><trkpt lat="46.0982441" lon="13.5027871"><ele>435.0</ele><time>2026-05-03T12:39:23.095Z</time></trkpt><trkpt lat="46.0983311" lon="13.5027055"><ele>434.0</ele><time>2026-05-03T12:39:24.093Z</time></trkpt><trkpt lat="46.0984084" lon="13.5026081"><ele>434.0</ele><time>2026-05-03T12:39:25.11Z</time></trkpt><trkpt lat="46.0984909" lon="13.5024802"><ele>434.0</ele><time>2026-05-03T12:39:26.11Z</time></trkpt><trkpt lat="46.0985833" lon="13.5023258"><ele>434.0</ele><time>2026-05-03T12:39:27.124Z</time></trkpt><trkpt lat="46.0986883" lon="13.5021526"><ele>434.0</ele><time>2026-05-03T12:39:28.11Z</time></trkpt><trkpt lat="46.0987999" lon="13.5019728"><ele>431.66666666666663</ele><time>2026-05-03T12:39:29.12Z</time></trkpt><trkpt lat="46.0989186" lon="13.5017965"><ele>429.33333333333337</ele><time>2026-05-03T12:39:30.111Z</time></trkpt><trkpt lat="46.0990339" lon="13.5016431"><ele>427.0</ele><time>2026-05-03T12:39:31.136Z</time></trkpt><trkpt lat="46.0991389" lon="13.5015153"><ele>426.75</ele><time>2026-05-03T12:39:32.111Z</time></trkpt><trkpt lat="46.0992291" lon="13.501405"><ele>426.5</ele><time>2026-05-03T12:39:33.125Z</time></trkpt><trkpt lat="46.099292" lon="13.5012801"><ele>426.25</ele><time>2026-05-03T12:39:34.123Z</time></trkpt><trkpt lat="46.0993415" lon="13.5011243"><ele>426.0</ele><time>2026-05-03T12:39:35.121Z</time></trkpt><trkpt lat="46.0993782" lon="13.500931"><ele>424.0</ele><time>2026-05-03T12:39:36.116Z</time></trkpt><trkpt lat="46.0994161" lon="13.5007138"><ele>422.0</ele><time>2026-05-03T12:39:37.119Z</time></trkpt><trkpt lat="46.0994542" lon="13.5004726"><ele>420.0</ele><time>2026-05-03T12:39:38.11Z</time></trkpt><trkpt lat="46.099492" lon="13.500225"><ele>417.66666666666663</ele><time>2026-05-03T12:39:39.106Z</time></trkpt><trkpt lat="46.0995229" lon="13.4999854"><ele>415.3333333333333</ele><time>2026-05-03T12:39:40.114Z</time></trkpt><trkpt lat="46.0995428" lon="13.4997668"><ele>413.0</ele><time>2026-05-03T12:39:41.113Z</time></trkpt><trkpt lat="46.099564" lon="13.4995692"><ele>411.25</ele><time>2026-05-03T12:39:42.114Z</time></trkpt><trkpt lat="46.0995956" lon="13.4993965"><ele>409.5</ele><time>2026-05-03T12:39:43.097Z</time></trkpt><trkpt lat="46.0996395" lon="13.4992354"><ele>407.75</ele><time>2026-05-03T12:39:44.097Z</time></trkpt><trkpt lat="46.099709" lon="13.499057"><ele>406.0</ele><time>2026-05-03T12:39:45.104Z</time></trkpt><trkpt lat="46.0997924" lon="13.4988456"><ele>401.6666666666667</ele><time>2026-05-03T12:39:46.098Z</time></trkpt><trkpt lat="46.0998894" lon="13.4986077"><ele>397.33333333333337</ele><time>2026-05-03T12:39:47.102Z</time></trkpt><trkpt lat="46.099986" lon="13.4983434"><ele>393.0</ele><time>2026-05-03T12:39:48.091Z</time></trkpt><trkpt lat="46.1000733" lon="13.4980657"><ele>400.66666666666663</ele><time>2026-05-03T12:39:49.097Z</time></trkpt><trkpt lat="46.1001525" lon="13.4978181"><ele>408.3333333333333</ele><time>2026-05-03T12:39:50.093Z</time></trkpt><trkpt lat="46.100223" lon="13.4975821"><ele>416.0</ele><time>2026-05-03T12:39:51.087Z</time></trkpt><trkpt lat="46.1002793" lon="13.49734"><ele>416.0</ele><time>2026-05-03T12:39:52.106Z</time></trkpt><trkpt lat="46.1003339" lon="13.4970939"><ele>416.0</ele><time>2026-05-03T12:39:53.094Z</time></trkpt><trkpt lat="46.1003876" lon="13.4968561"><ele>416.0</ele><time>2026-05-03T12:39:54.099Z</time></trkpt><trkpt lat="46.1004376" lon="13.4966132"><ele>413.3333333333333</ele><time>2026-05-03T12:39:55.102Z</time></trkpt><trkpt lat="46.10048" lon="13.4963717"><ele>410.66666666666663</ele><time>2026-05-03T12:39:56.096Z</time></trkpt><trkpt lat="46.1005189" lon="13.4961638"><ele>408.0</ele><time>2026-05-03T12:39:57.098Z</time></trkpt><trkpt lat="46.1005531" lon="13.4959845"><ele>409.75</ele><time>2026-05-03T12:39:58.11Z</time></trkpt><trkpt lat="46.1005923" lon="13.4958125"><ele>411.5</ele><time>2026-05-03T12:39:59.114Z</time></trkpt><trkpt lat="46.1006476" lon="13.4956296"><ele>413.25</ele><time>2026-05-03T12:40:00.1Z</time></trkpt><trkpt lat="46.1007232" lon="13.4954448"><ele>415.0</ele><time>2026-05-03T12:40:01.093Z</time></trkpt><trkpt lat="46.1008259" lon="13.4952266"><ele>415.0</ele><time>2026-05-03T12:40:02.103Z</time></trkpt><trkpt lat="46.1009467" lon="13.4949858"><ele>415.0</ele><time>2026-05-03T12:40:03.094Z</time></trkpt><trkpt lat="46.1010548" lon="13.4947646"><ele>415.0</ele><time>2026-05-03T12:40:04.091Z</time></trkpt><trkpt lat="46.1011494" lon="13.4945696"><ele>411.75</ele><time>2026-05-03T12:40:05.09Z</time></trkpt><trkpt lat="46.101235" lon="13.4943888"><ele>408.5</ele><time>2026-05-03T12:40:06.085Z</time></trkpt><trkpt lat="46.1013131" lon="13.4942277"><ele>405.25</ele><time>2026-05-03T12:40:07.079Z</time></trkpt><trkpt lat="46.1013906" lon="13.4940785"><ele>402.0</ele><time>2026-05-03T12:40:08.1Z</time></trkpt><trkpt lat="46.1014653" lon="13.4939342"><ele>402.0</ele><time>2026-05-03T12:40:09.089Z</time></trkpt><trkpt lat="46.1015294" lon="13.4938022"><ele>402.0</ele><time>2026-05-03T12:40:10.08Z</time></trkpt><trkpt lat="46.1015973" lon="13.493678"><ele>402.0</ele><time>2026-05-03T12:40:11.09Z</time></trkpt><trkpt lat="46.1016634" lon="13.4935675"><ele>402.0</ele><time>2026-05-03T12:40:12.092Z</time></trkpt><trkpt lat="46.1017412" lon="13.4934751"><ele>402.0</ele><time>2026-05-03T12:40:13.083Z</time></trkpt><trkpt lat="46.1018298" lon="13.4933907"><ele>402.0</ele><time>2026-05-03T12:40:14.102Z</time></trkpt><trkpt lat="46.1019121" lon="13.4932989"><ele>402.0</ele><time>2026-05-03T12:40:15.105Z</time></trkpt><trkpt lat="46.1019829" lon="13.4931769"><ele>402.0</ele><time>2026-05-03T12:40:16.105Z</time></trkpt><trkpt lat="46.1020499" lon="13.4930244"><ele>402.0</ele><time>2026-05-03T12:40:17.095Z</time></trkpt><trkpt lat="46.1021291" lon="13.4928266"><ele>398.33333333333337</ele><time>2026-05-03T12:40:18.093Z</time></trkpt><trkpt lat="46.1022179" lon="13.4925943"><ele>394.6666666666667</ele><time>2026-05-03T12:40:19.105Z</time></trkpt><trkpt lat="46.10232" lon="13.4923414"><ele>391.0</ele><time>2026-05-03T12:40:20.106Z</time></trkpt><trkpt lat="46.102411" lon="13.4921138"><ele>394.25</ele><time>2026-05-03T12:40:21.11Z</time></trkpt><trkpt lat="46.1024886" lon="13.4919091"><ele>397.5</ele><time>2026-05-03T12:40:22.096Z</time></trkpt><trkpt lat="46.102555" lon="13.4917299"><ele>400.75</ele><time>2026-05-03T12:40:23.143Z</time></trkpt><trkpt lat="46.1026131" lon="13.4915694"><ele>404.0</ele><time>2026-05-03T12:40:24.107Z</time></trkpt><trkpt lat="46.1026591" lon="13.4914217"><ele>403.99999999999994</ele><time>2026-05-03T12:40:25.116Z</time></trkpt><trkpt lat="46.1027024" lon="13.491292"><ele>404.0</ele><time>2026-05-03T12:40:26.112Z</time></trkpt><trkpt lat="46.1027363" lon="13.491175"><ele>404.0</ele><time>2026-05-03T12:40:27.104Z</time></trkpt><trkpt lat="46.1027718" lon="13.4910724"><ele>404.0</ele><time>2026-05-03T12:40:28.102Z</time></trkpt><trkpt lat="46.1028172" lon="13.4910036"><ele>403.99999999999994</ele><time>2026-05-03T12:40:29.115Z</time></trkpt><trkpt lat="46.1028927" lon="13.4909855"><ele>404.0</ele><time>2026-05-03T12:40:30.102Z</time></trkpt><trkpt lat="46.102978" lon="13.49099"><ele>402.2</ele><time>2026-05-03T12:40:31.092Z</time></trkpt><trkpt lat="46.1030564" lon="13.4909907"><ele>400.4</ele><time>2026-05-03T12:40:32.093Z</time></trkpt><trkpt lat="46.1030813" lon="13.4908771"><ele>398.6</ele><time>2026-05-03T12:40:34.116Z</time></trkpt><trkpt lat="46.1030093" lon="13.4907771"><ele>396.8</ele><time>2026-05-03T12:40:35.104Z</time></trkpt><trkpt lat="46.1029269" lon="13.4906442"><ele>395.0</ele><time>2026-05-03T12:40:36.097Z</time></trkpt><trkpt lat="46.1028477" lon="13.4904995"><ele>392.3333333333333</ele><time>2026-05-03T12:40:37.114Z</time></trkpt><trkpt lat="46.1027762" lon="13.4903742"><ele>389.66666666666663</ele><time>2026-05-03T12:40:38.112Z</time></trkpt><trkpt lat="46.1027227" lon="13.4902903"><ele>387.0</ele><time>2026-05-03T12:40:39.124Z</time></trkpt><trkpt lat="46.1027149" lon="13.4901687"><ele>384.3333333333333</ele><time>2026-05-03T12:40:41.102Z</time></trkpt><trkpt lat="46.1027804" lon="13.4901274"><ele>381.66666666666663</ele><time>2026-05-03T12:40:42.094Z</time></trkpt><trkpt lat="46.1028617" lon="13.4901175"><ele>379.0</ele><time>2026-05-03T12:40:43.093Z</time></trkpt><trkpt lat="46.1029822" lon="13.4901039"><ele>379.0</ele><time>2026-05-03T12:40:44.093Z</time></trkpt><trkpt lat="46.103048" lon="13.4900173"><ele>379.0</ele><time>2026-05-03T12:40:45.09Z</time></trkpt><trkpt lat="46.1030825" lon="13.4898739"><ele>379.0</ele><time>2026-05-03T12:40:46.093Z</time></trkpt><trkpt lat="46.1031059" lon="13.4897228"><ele>379.0</ele><time>2026-05-03T12:40:47.089Z</time></trkpt><trkpt lat="46.1031177" lon="13.4895497"><ele>379.0</ele><time>2026-05-03T12:40:48.099Z</time></trkpt><trkpt lat="46.1031261" lon="13.4893474"><ele>372.66666666666663</ele><time>2026-05-03T12:40:49.118Z</time></trkpt><trkpt lat="46.1031147" lon="13.48912"><ele>366.3333333333333</ele><time>2026-05-03T12:40:50.104Z</time></trkpt><trkpt lat="46.1030997" lon="13.4888859"><ele>360.0</ele><time>2026-05-03T12:40:51.107Z</time></trkpt><trkpt lat="46.1030914" lon="13.4886693"><ele>358.0</ele><time>2026-05-03T12:40:52.106Z</time></trkpt><trkpt lat="46.1030906" lon="13.4884812"><ele>356.0</ele><time>2026-05-03T12:40:53.103Z</time></trkpt><trkpt lat="46.103102" lon="13.4883138"><ele>354.0</ele><time>2026-05-03T12:40:54.113Z</time></trkpt><trkpt lat="46.103119" lon="13.4881619"><ele>352.0</ele><time>2026-05-03T12:40:55.091Z</time></trkpt><trkpt lat="46.1031273" lon="13.488023"><ele>351.20000000000005</ele><time>2026-05-03T12:40:56.089Z</time></trkpt><trkpt lat="46.103112" lon="13.4878894"><ele>350.4</ele><time>2026-05-03T12:40:57.091Z</time></trkpt><trkpt lat="46.1030792" lon="13.4877468"><ele>349.6</ele><time>2026-05-03T12:40:58.094Z</time></trkpt><trkpt lat="46.1030435" lon="13.4876154"><ele>348.79999999999995</ele><time>2026-05-03T12:40:59.099Z</time></trkpt><trkpt lat="46.1030237" lon="13.4874882"><ele>348.0</ele><time>2026-05-03T12:41:00.09Z</time></trkpt><trkpt lat="46.1030269" lon="13.4873631"><ele>348.0</ele><time>2026-05-03T12:41:01.097Z</time></trkpt><trkpt lat="46.1030648" lon="13.4872306"><ele>348.0</ele><time>2026-05-03T12:41:02.093Z</time></trkpt><trkpt lat="46.1031063" lon="13.4870896"><ele>348.0</ele><time>2026-05-03T12:41:03.095Z</time></trkpt><trkpt lat="46.1031478" lon="13.4869421"><ele>348.0</ele><time>2026-05-03T12:41:04.095Z</time></trkpt><trkpt lat="46.1031895" lon="13.4867903"><ele>348.0</ele><time>2026-05-03T12:41:05.089Z</time></trkpt><trkpt lat="46.1032225" lon="13.4866249"><ele>345.75</ele><time>2026-05-03T12:41:06.093Z</time></trkpt><trkpt lat="46.103243" lon="13.4864504"><ele>343.5</ele><time>2026-05-03T12:41:07.091Z</time></trkpt><trkpt lat="46.1032477" lon="13.4862739"><ele>341.25</ele><time>2026-05-03T12:41:08.095Z</time></trkpt><trkpt lat="46.1032385" lon="13.486106"><ele>339.0</ele><time>2026-05-03T12:41:09.089Z</time></trkpt><trkpt lat="46.1032233" lon="13.485936"><ele>336.75</ele><time>2026-05-03T12:41:10.089Z</time></trkpt><trkpt lat="46.1032019" lon="13.4857504"><ele>334.5</ele><time>2026-05-03T12:41:11.093Z</time></trkpt><trkpt lat="46.1031852" lon="13.4855563"><ele>332.25</ele><time>2026-05-03T12:41:12.1Z</time></trkpt><trkpt lat="46.1031727" lon="13.485378"><ele>330.0</ele><time>2026-05-03T12:41:13.092Z</time></trkpt><trkpt lat="46.1031642" lon="13.4852017"><ele>329.0</ele><time>2026-05-03T12:41:14.095Z</time></trkpt><trkpt lat="46.1031652" lon="13.4850185"><ele>328.0</ele><time>2026-05-03T12:41:15.088Z</time></trkpt><trkpt lat="46.1031778" lon="13.4848268"><ele>327.0</ele><time>2026-05-03T12:41:16.097Z</time></trkpt><trkpt lat="46.1031881" lon="13.4846347"><ele>326.0</ele><time>2026-05-03T12:41:17.086Z</time></trkpt><trkpt lat="46.1032059" lon="13.484443"><ele>324.5</ele><time>2026-05-03T12:41:18.09Z</time></trkpt><trkpt lat="46.1032429" lon="13.4842328"><ele>323.0</ele><time>2026-05-03T12:41:19.089Z</time></trkpt><trkpt lat="46.1032843" lon="13.4840264"><ele>321.5</ele><time>2026-05-03T12:41:20.089Z</time></trkpt><trkpt lat="46.1033194" lon="13.4838347"><ele>320.0</ele><time>2026-05-03T12:41:21.097Z</time></trkpt><trkpt lat="46.1033459" lon="13.4836443"><ele>323.0</ele><time>2026-05-03T12:41:22.087Z</time></trkpt><trkpt lat="46.1033631" lon="13.4834795"><ele>326.0</ele><time>2026-05-03T12:41:23.096Z</time></trkpt><trkpt lat="46.1033797" lon="13.4833363"><ele>329.0</ele><time>2026-05-03T12:41:24.1Z</time></trkpt><trkpt lat="46.1034055" lon="13.4832118"><ele>332.0</ele><time>2026-05-03T12:41:25.097Z</time></trkpt><trkpt lat="46.1034386" lon="13.483095"><ele>335.0</ele><time>2026-05-03T12:41:26.094Z</time></trkpt><trkpt lat="46.1034875" lon="13.4829844"><ele>332.6666666666667</ele><time>2026-05-03T12:41:27.1Z</time></trkpt><trkpt lat="46.1035495" lon="13.4828872"><ele>330.33333333333337</ele><time>2026-05-03T12:41:28.102Z</time></trkpt><trkpt lat="46.1036089" lon="13.482828"><ele>328.0</ele><time>2026-05-03T12:41:29.087Z</time></trkpt><trkpt lat="46.1036743" lon="13.4827874"><ele>325.6666666666667</ele><time>2026-05-03T12:41:30.09Z</time></trkpt><trkpt lat="46.1037428" lon="13.4827663"><ele>323.3333333333333</ele><time>2026-05-03T12:41:31.094Z</time></trkpt><trkpt lat="46.103813" lon="13.4827494"><ele>321.0</ele><time>2026-05-03T12:41:32.098Z</time></trkpt><trkpt lat="46.103886" lon="13.4827393"><ele>321.0</ele><time>2026-05-03T12:41:33.111Z</time></trkpt><trkpt lat="46.1039617" lon="13.4827097"><ele>321.0</ele><time>2026-05-03T12:41:34.106Z</time></trkpt><trkpt lat="46.1040261" lon="13.4826642"><ele>321.0</ele><time>2026-05-03T12:41:35.1Z</time></trkpt><trkpt lat="46.1040703" lon="13.4825599"><ele>321.0</ele><time>2026-05-03T12:41:36.105Z</time></trkpt><trkpt lat="46.1041044" lon="13.4823975"><ele>321.0</ele><time>2026-05-03T12:41:37.093Z</time></trkpt><trkpt lat="46.1041567" lon="13.4822157"><ele>320.6</ele><time>2026-05-03T12:41:38.106Z</time></trkpt><trkpt lat="46.1042117" lon="13.4820531"><ele>320.20000000000005</ele><time>2026-05-03T12:41:39.107Z</time></trkpt><trkpt lat="46.1042716" lon="13.4819083"><ele>319.79999999999995</ele><time>2026-05-03T12:41:40.097Z</time></trkpt><trkpt lat="46.1043255" lon="13.4817876"><ele>319.4</ele><time>2026-05-03T12:41:41.092Z</time></trkpt><trkpt lat="46.1043815" lon="13.4816835"><ele>319.0</ele><time>2026-05-03T12:41:42.09Z</time></trkpt><trkpt lat="46.1044527" lon="13.4816035"><ele>319.0</ele><time>2026-05-03T12:41:43.103Z</time></trkpt><trkpt lat="46.1045497" lon="13.4815339"><ele>319.0</ele><time>2026-05-03T12:41:44.087Z</time></trkpt><trkpt lat="46.1046498" lon="13.4814799"><ele>319.0</ele><time>2026-05-03T12:41:45.082Z</time></trkpt><trkpt lat="46.1047361" lon="13.4814447"><ele>319.0</ele><time>2026-05-03T12:41:46.087Z</time></trkpt><trkpt lat="46.1048053" lon="13.4814293"><ele>319.0</ele><time>2026-05-03T12:41:47.097Z</time></trkpt><trkpt lat="46.1049074" lon="13.4814905"><ele>320.25</ele><time>2026-05-03T12:41:49.102Z</time></trkpt><trkpt lat="46.104966" lon="13.4816038"><ele>321.5</ele><time>2026-05-03T12:41:50.086Z</time></trkpt><trkpt lat="46.1050489" lon="13.481742"><ele>322.75</ele><time>2026-05-03T12:41:51.094Z</time></trkpt><trkpt lat="46.1051497" lon="13.481866"><ele>324.0</ele><time>2026-05-03T12:41:52.082Z</time></trkpt><trkpt lat="46.1052393" lon="13.4819741"><ele>324.0</ele><time>2026-05-03T12:41:53.082Z</time></trkpt><trkpt lat="46.1053117" lon="13.4820611"><ele>324.0</ele><time>2026-05-03T12:41:54.089Z</time></trkpt><trkpt lat="46.1053923" lon="13.4820875"><ele>324.0</ele><time>2026-05-03T12:41:56.102Z</time></trkpt><trkpt lat="46.1054724" lon="13.481956"><ele>324.0</ele><time>2026-05-03T12:41:59.095Z</time></trkpt><trkpt lat="46.105534" lon="13.4818338"><ele>324.0</ele><time>2026-05-03T12:42:00.085Z</time></trkpt><trkpt lat="46.1056122" lon="13.4816891"><ele>324.0</ele><time>2026-05-03T12:42:01.085Z</time></trkpt><trkpt lat="46.1057167" lon="13.4815277"><ele>324.0</ele><time>2026-05-03T12:42:02.088Z</time></trkpt><trkpt lat="46.1058488" lon="13.4813435"><ele>324.0</ele><time>2026-05-03T12:42:03.086Z</time></trkpt><trkpt lat="46.1059907" lon="13.4811543"><ele>315.3333333333333</ele><time>2026-05-03T12:42:04.083Z</time></trkpt><trkpt lat="46.1061197" lon="13.4809774"><ele>306.66666666666663</ele><time>2026-05-03T12:42:05.089Z</time></trkpt><trkpt lat="46.1062343" lon="13.4808132"><ele>298.0</ele><time>2026-05-03T12:42:06.082Z</time></trkpt><trkpt lat="46.1063344" lon="13.4806709"><ele>298.0</ele><time>2026-05-03T12:42:07.084Z</time></trkpt><trkpt lat="46.1064181" lon="13.4805456"><ele>298.0</ele><time>2026-05-03T12:42:08.082Z</time></trkpt><trkpt lat="46.1064941" lon="13.4804412"><ele>298.0</ele><time>2026-05-03T12:42:09.076Z</time></trkpt><trkpt lat="46.1065707" lon="13.4803513"><ele>298.0</ele><time>2026-05-03T12:42:10.095Z</time></trkpt><trkpt lat="46.1066618" lon="13.4802783"><ele>298.0</ele><time>2026-05-03T12:42:11.097Z</time></trkpt><trkpt lat="46.1067629" lon="13.4802053"><ele>296.0</ele><time>2026-05-03T12:42:12.084Z</time></trkpt><trkpt lat="46.1068631" lon="13.4801412"><ele>294.0</ele><time>2026-05-03T12:42:13.087Z</time></trkpt><trkpt lat="46.1069461" lon="13.480096"><ele>292.0</ele><time>2026-05-03T12:42:14.076Z</time></trkpt><trkpt lat="46.1070223" lon="13.4800749"><ele>290.0</ele><time>2026-05-03T12:42:15.09Z</time></trkpt><trkpt lat="46.1070922" lon="13.4800747"><ele>288.0</ele><time>2026-05-03T12:42:16.092Z</time></trkpt><trkpt lat="46.1071995" lon="13.480098"><ele>288.0</ele><time>2026-05-03T12:42:18.096Z</time></trkpt><trkpt lat="46.1072722" lon="13.4800748"><ele>288.0</ele><time>2026-05-03T12:42:21.109Z</time></trkpt><trkpt lat="46.1072401" lon="13.4799873"><ele>288.0</ele><time>2026-05-03T12:42:26.099Z</time></trkpt><trkpt lat="46.1071478" lon="13.4799629"><ele>288.0</ele><time>2026-05-03T12:42:39.117Z</time></trkpt><trkpt lat="46.1070719" lon="13.4799603"><ele>288.0</ele><time>2026-05-03T12:42:40.132Z</time></trkpt><trkpt lat="46.1069974" lon="13.4799654"><ele>288.0</ele><time>2026-05-03T12:42:41.12Z</time></trkpt><trkpt lat="46.10692" lon="13.4799813"><ele>288.0</ele><time>2026-05-03T12:42:42.11Z</time></trkpt><trkpt lat="46.1068363" lon="13.4799939"><ele>288.0</ele><time>2026-05-03T12:42:43.117Z</time></trkpt><trkpt lat="46.1067387" lon="13.4800107"><ele>288.0</ele><time>2026-05-03T12:42:44.106Z</time></trkpt><trkpt lat="46.1066487" lon="13.4800276"><ele>288.0</ele><time>2026-05-03T12:42:45.111Z</time></trkpt><trkpt lat="46.1065671" lon="13.4800502"><ele>288.0</ele><time>2026-05-03T12:42:46.107Z</time></trkpt><trkpt lat="46.1064802" lon="13.4800956"><ele>288.0</ele><time>2026-05-03T12:42:47.099Z</time></trkpt><trkpt lat="46.1063874" lon="13.4801683"><ele>290.5</ele><time>2026-05-03T12:42:48.107Z</time></trkpt><trkpt lat="46.1062978" lon="13.4802552"><ele>293.0</ele><time>2026-05-03T12:42:49.1Z</time></trkpt><trkpt lat="46.1062043" lon="13.4803418"><ele>295.5</ele><time>2026-05-03T12:42:50.1Z</time></trkpt><trkpt lat="46.1060962" lon="13.4804357"><ele>298.0</ele><time>2026-05-03T12:42:51.091Z</time></trkpt><trkpt lat="46.1059845" lon="13.4805315"><ele>298.0</ele><time>2026-05-03T12:42:52.101Z</time></trkpt><trkpt lat="46.10587" lon="13.4806275"><ele>298.0</ele><time>2026-05-03T12:42:53.094Z</time></trkpt><trkpt lat="46.1057646" lon="13.480726"><ele>298.0</ele><time>2026-05-03T12:42:54.091Z</time></trkpt><trkpt lat="46.1056726" lon="13.4808239"><ele>298.0</ele><time>2026-05-03T12:42:55.094Z</time></trkpt><trkpt lat="46.1055939" lon="13.4809139"><ele>300.2</ele><time>2026-05-03T12:42:56.094Z</time></trkpt><trkpt lat="46.1055211" lon="13.4809914"><ele>302.4</ele><time>2026-05-03T12:42:57.103Z</time></trkpt><trkpt lat="46.1054554" lon="13.4810512"><ele>304.59999999999997</ele><time>2026-05-03T12:42:58.086Z</time></trkpt><trkpt lat="46.1053653" lon="13.4810468"><ele>306.8</ele><time>2026-05-03T12:43:00.085Z</time></trkpt><trkpt lat="46.1053246" lon="13.4808782"><ele>309.0</ele><time>2026-05-03T12:43:02.087Z</time></trkpt><trkpt lat="46.1053257" lon="13.4807373"><ele>309.0</ele><time>2026-05-03T12:43:03.088Z</time></trkpt><trkpt lat="46.105336" lon="13.4805662"><ele>309.0</ele><time>2026-05-03T12:43:04.084Z</time></trkpt><trkpt lat="46.1053462" lon="13.480377"><ele>309.0</ele><time>2026-05-03T12:43:05.083Z</time></trkpt><trkpt lat="46.1053546" lon="13.4801908"><ele>309.0</ele><time>2026-05-03T12:43:06.087Z</time></trkpt><trkpt lat="46.1053581" lon="13.4800184"><ele>306.0</ele><time>2026-05-03T12:43:07.086Z</time></trkpt><trkpt lat="46.1053613" lon="13.4798672"><ele>303.0</ele><time>2026-05-03T12:43:08.089Z</time></trkpt><trkpt lat="46.1053528" lon="13.4797362"><ele>300.0</ele><time>2026-05-03T12:43:09.093Z</time></trkpt><trkpt lat="46.1053269" lon="13.4796234"><ele>297.0</ele><time>2026-05-03T12:43:10.089Z</time></trkpt><trkpt lat="46.1052784" lon="13.4795254"><ele>294.0</ele><time>2026-05-03T12:43:11.113Z</time></trkpt><trkpt lat="46.1052044" lon="13.4794624"><ele>291.0</ele><time>2026-05-03T12:43:12.098Z</time></trkpt><trkpt lat="46.105122" lon="13.4794146"><ele>286.25</ele><time>2026-05-03T12:43:13.101Z</time></trkpt><trkpt lat="46.1050188" lon="13.4793612"><ele>281.5</ele><time>2026-05-03T12:43:14.098Z</time></trkpt><trkpt lat="46.1049026" lon="13.4793112"><ele>276.75</ele><time>2026-05-03T12:43:15.108Z</time></trkpt><trkpt lat="46.1047889" lon="13.4792627"><ele>272.0</ele><time>2026-05-03T12:43:16.101Z</time></trkpt><trkpt lat="46.1046909" lon="13.4792238"><ele>272.0</ele><time>2026-05-03T12:43:17.096Z</time></trkpt><trkpt lat="46.1045995" lon="13.4791243"><ele>272.0</ele><time>2026-05-03T12:43:19.097Z</time></trkpt><trkpt lat="46.1045816" lon="13.4790157"><ele>272.0</ele><time>2026-05-03T12:43:20.105Z</time></trkpt><trkpt lat="46.1045655" lon="13.4788141"><ele>272.0</ele><time>2026-05-03T12:43:21.085Z</time></trkpt><trkpt lat="46.1045253" lon="13.4785988"><ele>269.25</ele><time>2026-05-03T12:43:22.086Z</time></trkpt><trkpt lat="46.104486" lon="13.4783971"><ele>266.5</ele><time>2026-05-03T12:43:23.103Z</time></trkpt><trkpt lat="46.1044421" lon="13.4782012"><ele>263.75</ele><time>2026-05-03T12:43:24.104Z</time></trkpt><trkpt lat="46.1044032" lon="13.4780194"><ele>261.0</ele><time>2026-05-03T12:43:25.112Z</time></trkpt><trkpt lat="46.1043704" lon="13.4778638"><ele>258.5</ele><time>2026-05-03T12:43:26.09Z</time></trkpt><trkpt lat="46.1043411" lon="13.4777217"><ele>256.0</ele><time>2026-05-03T12:43:27.104Z</time></trkpt><trkpt lat="46.1043235" lon="13.4776066"><ele>253.5</ele><time>2026-05-03T12:43:28.109Z</time></trkpt><trkpt lat="46.104289" lon="13.4775225"><ele>251.0</ele><time>2026-05-03T12:43:29.107Z</time></trkpt><trkpt lat="46.1042175" lon="13.4774927"><ele>248.5</ele><time>2026-05-03T12:43:30.117Z</time></trkpt><trkpt lat="46.10412" lon="13.477512"><ele>246.0</ele><time>2026-05-03T12:43:31.101Z</time></trkpt><trkpt lat="46.1040328" lon="13.4775525"><ele>243.4</ele><time>2026-05-03T12:43:32.101Z</time></trkpt><trkpt lat="46.1039421" lon="13.4775962"><ele>240.8</ele><time>2026-05-03T12:43:33.093Z</time></trkpt><trkpt lat="46.1038589" lon="13.4776523"><ele>238.20000000000002</ele><time>2026-05-03T12:43:34.107Z</time></trkpt><trkpt lat="46.1037775" lon="13.4777436"><ele>235.60000000000002</ele><time>2026-05-03T12:43:35.109Z</time></trkpt><trkpt lat="46.1037133" lon="13.4778746"><ele>233.0</ele><time>2026-05-03T12:43:36.09Z</time></trkpt><trkpt lat="46.1036503" lon="13.4780198"><ele>233.0</ele><time>2026-05-03T12:43:37.113Z</time></trkpt><trkpt lat="46.1035877" lon="13.4781771"><ele>233.0</ele><time>2026-05-03T12:43:38.096Z</time></trkpt><trkpt lat="46.103523" lon="13.4783435"><ele>233.0</ele><time>2026-05-03T12:43:39.111Z</time></trkpt><trkpt lat="46.1034546" lon="13.4785034"><ele>233.0</ele><time>2026-05-03T12:43:40.094Z</time></trkpt><trkpt lat="46.1033778" lon="13.4786657"><ele>235.75</ele><time>2026-05-03T12:43:41.093Z</time></trkpt><trkpt lat="46.1033082" lon="13.478831"><ele>238.5</ele><time>2026-05-03T12:43:42.101Z</time></trkpt><trkpt lat="46.1032459" lon="13.4790184"><ele>241.25</ele><time>2026-05-03T12:43:43.092Z</time></trkpt><trkpt lat="46.1031895" lon="13.4792094"><ele>244.0</ele><time>2026-05-03T12:43:44.091Z</time></trkpt><trkpt lat="46.1031349" lon="13.479393"><ele>239.25</ele><time>2026-05-03T12:43:45.085Z</time></trkpt><trkpt lat="46.1030779" lon="13.4795613"><ele>234.5</ele><time>2026-05-03T12:43:46.091Z</time></trkpt><trkpt lat="46.1030065" lon="13.4797125"><ele>229.75</ele><time>2026-05-03T12:43:47.088Z</time></trkpt><trkpt lat="46.1029101" lon="13.4798487"><ele>225.0</ele><time>2026-05-03T12:43:48.098Z</time></trkpt><trkpt lat="46.1028072" lon="13.4799728"><ele>225.0</ele><time>2026-05-03T12:43:49.087Z</time></trkpt><trkpt lat="46.1026991" lon="13.4800859"><ele>225.0</ele><time>2026-05-03T12:43:50.107Z</time></trkpt><trkpt lat="46.1025779" lon="13.4801847"><ele>225.0</ele><time>2026-05-03T12:43:51.082Z</time></trkpt><trkpt lat="46.1024494" lon="13.4802676"><ele>225.0</ele><time>2026-05-03T12:43:52.09Z</time></trkpt><trkpt lat="46.1023256" lon="13.4803637"><ele>220.75</ele><time>2026-05-03T12:43:53.104Z</time></trkpt><trkpt lat="46.1022089" lon="13.4804606"><ele>216.5</ele><time>2026-05-03T12:43:54.089Z</time></trkpt><trkpt lat="46.1021047" lon="13.4805694"><ele>212.25</ele><time>2026-05-03T12:43:55.098Z</time></trkpt><trkpt lat="46.1020131" lon="13.4806919"><ele>208.0</ele><time>2026-05-03T12:43:56.102Z</time></trkpt><trkpt lat="46.101933" lon="13.4808398"><ele>208.0</ele><time>2026-05-03T12:43:57.104Z</time></trkpt><trkpt lat="46.1018627" lon="13.4809983"><ele>208.0</ele><time>2026-05-03T12:43:58.106Z</time></trkpt><trkpt lat="46.1017979" lon="13.4811618"><ele>208.0</ele><time>2026-05-03T12:43:59.109Z</time></trkpt><trkpt lat="46.1017492" lon="13.4813266"><ele>208.0</ele><time>2026-05-03T12:44:00.091Z</time></trkpt><trkpt lat="46.1017065" lon="13.4814819"><ele>207.83333333333331</ele><time>2026-05-03T12:44:01.094Z</time></trkpt><trkpt lat="46.1016651" lon="13.4815778"><ele>207.66666666666666</ele><time>2026-05-03T12:44:02.099Z</time></trkpt><trkpt lat="46.1015967" lon="13.4816065"><ele>207.5</ele><time>2026-05-03T12:44:03.106Z</time></trkpt><trkpt lat="46.1015236" lon="13.4815774"><ele>207.33333333333331</ele><time>2026-05-03T12:44:04.09Z</time></trkpt><trkpt lat="46.1014402" lon="13.4815424"><ele>207.16666666666666</ele><time>2026-05-03T12:44:05.088Z</time></trkpt><trkpt lat="46.1013623" lon="13.4815323"><ele>207.0</ele><time>2026-05-03T12:44:06.083Z</time></trkpt><trkpt lat="46.1012895" lon="13.4815781"><ele>207.0</ele><time>2026-05-03T12:44:07.094Z</time></trkpt><trkpt lat="46.1012204" lon="13.4816619"><ele>207.0</ele><time>2026-05-03T12:44:08.098Z</time></trkpt><trkpt lat="46.1011559" lon="13.48175"><ele>207.0</ele><time>2026-05-03T12:44:09.106Z</time></trkpt><trkpt lat="46.1010791" lon="13.4818123"><ele>207.0</ele><time>2026-05-03T12:44:10.094Z</time></trkpt><trkpt lat="46.1009924" lon="13.4818398"><ele>207.0</ele><time>2026-05-03T12:44:11.107Z</time></trkpt><trkpt lat="46.1008928" lon="13.4818276"><ele>207.0</ele><time>2026-05-03T12:44:12.086Z</time></trkpt><trkpt lat="46.1007766" lon="13.4817746"><ele>207.0</ele><time>2026-05-03T12:44:13.1Z</time></trkpt><trkpt lat="46.100678" lon="13.481696"><ele>207.0</ele><time>2026-05-03T12:44:14.092Z</time></trkpt><trkpt lat="46.1005726" lon="13.4816093"><ele>207.0</ele><time>2026-05-03T12:44:15.095Z</time></trkpt><trkpt lat="46.1004718" lon="13.4815218"><ele>205.5</ele><time>2026-05-03T12:44:16.089Z</time></trkpt><trkpt lat="46.1003943" lon="13.4814109"><ele>204.0</ele><time>2026-05-03T12:44:17.089Z</time></trkpt><trkpt lat="46.1003239" lon="13.4812764"><ele>202.5</ele><time>2026-05-03T12:44:18.097Z</time></trkpt><trkpt lat="46.1002486" lon="13.4811448"><ele>201.0</ele><time>2026-05-03T12:44:19.101Z</time></trkpt><trkpt lat="46.1001738" lon="13.4810377"><ele>197.0</ele><time>2026-05-03T12:44:20.103Z</time></trkpt><trkpt lat="46.1001071" lon="13.4809752"><ele>193.0</ele><time>2026-05-03T12:44:21.106Z</time></trkpt><trkpt lat="46.1000282" lon="13.4809711"><ele>189.0</ele><time>2026-05-03T12:44:22.126Z</time></trkpt><trkpt lat="46.0999451" lon="13.481032"><ele>185.0</ele><time>2026-05-03T12:44:23.101Z</time></trkpt><trkpt lat="46.0998664" lon="13.4811493"><ele>181.0</ele><time>2026-05-03T12:44:24.09Z</time></trkpt><trkpt lat="46.0998079" lon="13.481291"><ele>180.0</ele><time>2026-05-03T12:44:25.091Z</time></trkpt><trkpt lat="46.0997536" lon="13.4813867"><ele>179.0</ele><time>2026-05-03T12:44:26.092Z</time></trkpt><trkpt lat="46.099674" lon="13.4814314"><ele>178.0</ele><time>2026-05-03T12:44:27.111Z</time></trkpt><trkpt lat="46.0995946" lon="13.4814339"><ele>177.0</ele><time>2026-05-03T12:44:28.089Z</time></trkpt><trkpt lat="46.0995378" lon="13.4813145"><ele>176.0</ele><time>2026-05-03T12:44:30.113Z</time></trkpt><trkpt lat="46.0995707" lon="13.4812176"><ele>175.0</ele><time>2026-05-03T12:44:31.1Z</time></trkpt><trkpt lat="46.0996388" lon="13.481125"><ele>174.0</ele><time>2026-05-03T12:44:32.118Z</time></trkpt><trkpt lat="46.0997293" lon="13.4810333"><ele>173.0</ele><time>2026-05-03T12:44:33.104Z</time></trkpt><trkpt lat="46.0997999" lon="13.4809146"><ele>172.0</ele><time>2026-05-03T12:44:34.111Z</time></trkpt><trkpt lat="46.0998425" lon="13.4807784"><ele>171.0</ele><time>2026-05-03T12:44:35.111Z</time></trkpt><trkpt lat="46.0998834" lon="13.4806455"><ele>170.0</ele><time>2026-05-03T12:44:36.097Z</time></trkpt><trkpt lat="46.0999425" lon="13.4805409"><ele>172.2</ele><time>2026-05-03T12:44:37.111Z</time></trkpt><trkpt lat="46.1000396" lon="13.4805083"><ele>174.4</ele><time>2026-05-03T12:44:38.1Z</time></trkpt><trkpt lat="46.100128" lon="13.4805223"><ele>176.60000000000002</ele><time>2026-05-03T12:44:39.097Z</time></trkpt><trkpt lat="46.1001959" lon="13.4805917"><ele>178.8</ele><time>2026-05-03T12:44:40.088Z</time></trkpt><trkpt lat="46.1002441" lon="13.4806984"><ele>181.0</ele><time>2026-05-03T12:44:41.089Z</time></trkpt><trkpt lat="46.1003115" lon="13.4808307"><ele>181.0</ele><time>2026-05-03T12:44:42.09Z</time></trkpt><trkpt lat="46.100392" lon="13.4809144"><ele>181.0</ele><time>2026-05-03T12:44:43.1Z</time></trkpt><trkpt lat="46.1004948" lon="13.4809715"><ele>181.0</ele><time>2026-05-03T12:44:44.097Z</time></trkpt><trkpt lat="46.1005912" lon="13.4810264"><ele>181.0</ele><time>2026-05-03T12:44:45.097Z</time></trkpt><trkpt lat="46.1006668" lon="13.4810555"><ele>181.0</ele><time>2026-05-03T12:44:46.084Z</time></trkpt><trkpt lat="46.1007682" lon="13.4810039"><ele>181.25</ele><time>2026-05-03T12:44:48.09Z</time></trkpt><trkpt lat="46.1008065" lon="13.4808968"><ele>181.5</ele><time>2026-05-03T12:44:49.099Z</time></trkpt><trkpt lat="46.1008484" lon="13.4807404"><ele>181.75</ele><time>2026-05-03T12:44:50.082Z</time></trkpt><trkpt lat="46.1008955" lon="13.480559"><ele>182.0</ele><time>2026-05-03T12:44:51.082Z</time></trkpt><trkpt lat="46.1009406" lon="13.48036"><ele>177.75</ele><time>2026-05-03T12:44:52.084Z</time></trkpt><trkpt lat="46.1009778" lon="13.4801716"><ele>173.5</ele><time>2026-05-03T12:44:53.097Z</time></trkpt><trkpt lat="46.1010143" lon="13.4799723"><ele>169.25</ele><time>2026-05-03T12:44:54.091Z</time></trkpt><trkpt lat="46.1010423" lon="13.4797803"><ele>165.0</ele><time>2026-05-03T12:44:55.086Z</time></trkpt><trkpt lat="46.1010774" lon="13.4795882"><ele>164.0</ele><time>2026-05-03T12:44:56.09Z</time></trkpt><trkpt lat="46.1011072" lon="13.479424"><ele>163.0</ele><time>2026-05-03T12:44:57.079Z</time></trkpt><trkpt lat="46.1011438" lon="13.4792906"><ele>162.0</ele><time>2026-05-03T12:44:58.102Z</time></trkpt><trkpt lat="46.1011916" lon="13.4791871"><ele>161.0</ele><time>2026-05-03T12:44:59.091Z</time></trkpt><trkpt lat="46.1012681" lon="13.479156"><ele>160.0</ele><time>2026-05-03T12:45:00.104Z</time></trkpt><trkpt lat="46.101353" lon="13.4791326"><ele>160.0</ele><time>2026-05-03T12:45:01.09Z</time></trkpt><trkpt lat="46.1014454" lon="13.479076"><ele>160.0</ele><time>2026-05-03T12:45:02.084Z</time></trkpt><trkpt lat="46.1015291" lon="13.4789963"><ele>160.0</ele><time>2026-05-03T12:45:03.09Z</time></trkpt><trkpt lat="46.1016017" lon="13.4789028"><ele>160.0</ele><time>2026-05-03T12:45:04.089Z</time></trkpt><trkpt lat="46.101665" lon="13.4787921"><ele>160.0</ele><time>2026-05-03T12:45:05.096Z</time></trkpt><trkpt lat="46.10172" lon="13.4786763"><ele>159.8</ele><time>2026-05-03T12:45:06.087Z</time></trkpt><trkpt lat="46.1017627" lon="13.4785537"><ele>159.6</ele><time>2026-05-03T12:45:07.094Z</time></trkpt><trkpt lat="46.1017963" lon="13.4783915"><ele>159.4</ele><time>2026-05-03T12:45:08.103Z</time></trkpt><trkpt lat="46.1018221" lon="13.4782202"><ele>159.2</ele><time>2026-05-03T12:45:09.076Z</time></trkpt><trkpt lat="46.101842" lon="13.4780599"><ele>159.0</ele><time>2026-05-03T12:45:10.09Z</time></trkpt><trkpt lat="46.1018539" lon="13.4779051"><ele>159.0</ele><time>2026-05-03T12:45:11.091Z</time></trkpt><trkpt lat="46.1018553" lon="13.4777413"><ele>159.0</ele><time>2026-05-03T12:45:12.091Z</time></trkpt><trkpt lat="46.1018527" lon="13.4775762"><ele>159.0</ele><time>2026-05-03T12:45:13.084Z</time></trkpt><trkpt lat="46.1018521" lon="13.4774157"><ele>159.0</ele><time>2026-05-03T12:45:14.102Z</time></trkpt><trkpt lat="46.1018592" lon="13.4772578"><ele>159.0</ele><time>2026-05-03T12:45:15.099Z</time></trkpt><trkpt lat="46.1018716" lon="13.4771011"><ele>158.8</ele><time>2026-05-03T12:45:16.095Z</time></trkpt><trkpt lat="46.1018783" lon="13.4769465"><ele>158.60000000000002</ele><time>2026-05-03T12:45:17.089Z</time></trkpt><trkpt lat="46.1018787" lon="13.476795"><ele>158.4</ele><time>2026-05-03T12:45:18.092Z</time></trkpt><trkpt lat="46.1018714" lon="13.4766487"><ele>158.20000000000002</ele><time>2026-05-03T12:45:19.088Z</time></trkpt><trkpt lat="46.1018639" lon="13.4765096"><ele>158.0</ele><time>2026-05-03T12:45:20.095Z</time></trkpt><trkpt lat="46.1018672" lon="13.4763728"><ele>158.20000000000002</ele><time>2026-05-03T12:45:21.09Z</time></trkpt><trkpt lat="46.1018811" lon="13.4762334"><ele>158.4</ele><time>2026-05-03T12:45:22.089Z</time></trkpt><trkpt lat="46.1018895" lon="13.4761069"><ele>158.60000000000002</ele><time>2026-05-03T12:45:23.093Z</time></trkpt><trkpt lat="46.1018904" lon="13.4759789"><ele>158.8</ele><time>2026-05-03T12:45:24.095Z</time></trkpt><trkpt lat="46.1018803" lon="13.4758537"><ele>159.0</ele><time>2026-05-03T12:45:25.087Z</time></trkpt><trkpt lat="46.1018671" lon="13.4757284"><ele>159.0</ele><time>2026-05-03T12:45:26.101Z</time></trkpt><trkpt lat="46.101852" lon="13.4756131"><ele>159.0</ele><time>2026-05-03T12:45:27.092Z</time></trkpt><trkpt lat="46.1018427" lon="13.4755177"><ele>159.0</ele><time>2026-05-03T12:45:28.095Z</time></trkpt><trkpt lat="46.1018506" lon="13.4753866"><ele>159.0</ele><time>2026-05-03T12:45:30.116Z</time></trkpt><trkpt lat="46.1018761" lon="13.475286"><ele>159.0</ele><time>2026-05-03T12:45:55.105Z</time></trkpt><trkpt lat="46.1019073" lon="13.4752054"><ele>159.0</ele><time>2026-05-03T12:45:57.107Z</time></trkpt><trkpt lat="46.1019597" lon="13.4751347"><ele>159.0</ele><time>2026-05-03T12:46:00.102Z</time></trkpt><trkpt lat="46.1019991" lon="13.4750602"><ele>158.83333333333334</ele><time>2026-05-03T12:46:04.103Z</time></trkpt><trkpt lat="46.1020575" lon="13.4749712"><ele>158.66666666666666</ele><time>2026-05-03T12:46:18.11Z</time></trkpt><trkpt lat="46.1021354" lon="13.4749125"><ele>158.5</ele><time>2026-05-03T12:46:20.117Z</time></trkpt><trkpt lat="46.1021921" lon="13.4748724"><ele>158.33333333333331</ele><time>2026-05-03T12:46:21.105Z</time></trkpt><trkpt lat="46.1022496" lon="13.4748304"><ele>158.16666666666666</ele><time>2026-05-03T12:46:22.11Z</time></trkpt><trkpt lat="46.1023032" lon="13.4747778"><ele>158.0</ele><time>2026-05-03T12:46:23.117Z</time></trkpt><trkpt lat="46.1023641" lon="13.4746931"><ele>157.6</ele><time>2026-05-03T12:46:24.103Z</time></trkpt><trkpt lat="46.1024237" lon="13.4745954"><ele>157.20000000000002</ele><time>2026-05-03T12:46:25.109Z</time></trkpt><trkpt lat="46.1024812" lon="13.4744815"><ele>156.8</ele><time>2026-05-03T12:46:26.098Z</time></trkpt><trkpt lat="46.1025274" lon="13.4743575"><ele>156.4</ele><time>2026-05-03T12:46:27.108Z</time></trkpt><trkpt lat="46.1025667" lon="13.474242"><ele>156.0</ele><time>2026-05-03T12:46:28.094Z</time></trkpt><trkpt lat="46.1025987" lon="13.4741388"><ele>156.0</ele><time>2026-05-03T12:46:29.105Z</time></trkpt><trkpt lat="46.1026238" lon="13.4740409"><ele>156.0</ele><time>2026-05-03T12:46:30.095Z</time></trkpt><trkpt lat="46.1026568" lon="13.4739404"><ele>156.0</ele><time>2026-05-03T12:46:31.116Z</time></trkpt><trkpt lat="46.1027109" lon="13.4738502"><ele>156.0</ele><time>2026-05-03T12:46:32.105Z</time></trkpt><trkpt lat="46.1027779" lon="13.4737705"><ele>156.0</ele><time>2026-05-03T12:46:33.098Z</time></trkpt><trkpt lat="46.1028487" lon="13.4736922"><ele>156.0</ele><time>2026-05-03T12:46:34.102Z</time></trkpt><trkpt lat="46.102912" lon="13.4736023"><ele>155.5</ele><time>2026-05-03T12:46:35.111Z</time></trkpt><trkpt lat="46.1029604" lon="13.4734976"><ele>155.0</ele><time>2026-05-03T12:46:36.108Z</time></trkpt><trkpt lat="46.1030054" lon="13.4733956"><ele>154.5</ele><time>2026-05-03T12:46:37.119Z</time></trkpt><trkpt lat="46.1030539" lon="13.4732987"><ele>154.0</ele><time>2026-05-03T12:46:38.098Z</time></trkpt><trkpt lat="46.1030997" lon="13.4731947"><ele>153.5</ele><time>2026-05-03T12:46:39.121Z</time></trkpt><trkpt lat="46.1031469" lon="13.4730795"><ele>153.0</ele><time>2026-05-03T12:46:40.109Z</time></trkpt><trkpt lat="46.1031953" lon="13.4729612"><ele>152.5</ele><time>2026-05-03T12:46:41.105Z</time></trkpt><trkpt lat="46.1032354" lon="13.4728195"><ele>152.0</ele><time>2026-05-03T12:46:42.108Z</time></trkpt><trkpt lat="46.1032789" lon="13.4726432"><ele>151.5</ele><time>2026-05-03T12:46:43.099Z</time></trkpt><trkpt lat="46.1033295" lon="13.4724397"><ele>151.0</ele><time>2026-05-03T12:46:44.098Z</time></trkpt><trkpt lat="46.1033847" lon="13.4722262"><ele>150.0</ele><time>2026-05-03T12:46:45.104Z</time></trkpt><trkpt lat="46.1034423" lon="13.4720089"><ele>149.0</ele><time>2026-05-03T12:46:46.103Z</time></trkpt><trkpt lat="46.1034981" lon="13.4718014"><ele>148.0</ele><time>2026-05-03T12:46:47.109Z</time></trkpt><trkpt lat="46.1035449" lon="13.4716028"><ele>148.0</ele><time>2026-05-03T12:46:48.105Z</time></trkpt><trkpt lat="46.1035868" lon="13.4714227"><ele>148.0</ele><time>2026-05-03T12:46:49.109Z</time></trkpt><trkpt lat="46.1036293" lon="13.4712575"><ele>148.0</ele><time>2026-05-03T12:46:50.115Z</time></trkpt><trkpt lat="46.1036728" lon="13.471119"><ele>148.0</ele><time>2026-05-03T12:46:51.117Z</time></trkpt><trkpt lat="46.1037373" lon="13.4710203"><ele>147.8</ele><time>2026-05-03T12:46:52.113Z</time></trkpt><trkpt lat="46.103819" lon="13.4709602"><ele>147.60000000000002</ele><time>2026-05-03T12:46:53.124Z</time></trkpt><trkpt lat="46.103918" lon="13.4709527"><ele>147.39999999999998</ele><time>2026-05-03T12:46:54.113Z</time></trkpt><trkpt lat="46.104025" lon="13.4709877"><ele>147.2</ele><time>2026-05-03T12:46:55.112Z</time></trkpt><trkpt lat="46.1041389" lon="13.4710583"><ele>147.0</ele><time>2026-05-03T12:46:56.106Z</time></trkpt><trkpt lat="46.1042598" lon="13.4711491"><ele>147.0</ele><time>2026-05-03T12:46:57.118Z</time></trkpt><trkpt lat="46.1043927" lon="13.4712483"><ele>147.0</ele><time>2026-05-03T12:46:58.11Z</time></trkpt><trkpt lat="46.1045336" lon="13.4713514"><ele>147.0</ele><time>2026-05-03T12:46:59.112Z</time></trkpt><trkpt lat="46.1046764" lon="13.4714601"><ele>147.0</ele><time>2026-05-03T12:47:00.105Z</time></trkpt><trkpt lat="46.104816" lon="13.471567"><ele>147.0</ele><time>2026-05-03T12:47:01.123Z</time></trkpt><trkpt lat="46.1049459" lon="13.4716985"><ele>147.0</ele><time>2026-05-03T12:47:02.125Z</time></trkpt><trkpt lat="46.1050606" lon="13.4718669"><ele>146.66666666666666</ele><time>2026-05-03T12:47:03.119Z</time></trkpt><trkpt lat="46.1051721" lon="13.4720755"><ele>146.33333333333331</ele><time>2026-05-03T12:47:04.115Z</time></trkpt><trkpt lat="46.1052783" lon="13.4723009"><ele>146.0</ele><time>2026-05-03T12:47:05.108Z</time></trkpt><trkpt lat="46.1053864" lon="13.4725269"><ele>146.0</ele><time>2026-05-03T12:47:06.116Z</time></trkpt><trkpt lat="46.1054909" lon="13.4727407"><ele>146.0</ele><time>2026-05-03T12:47:07.106Z</time></trkpt><trkpt lat="46.1055908" lon="13.4729448"><ele>146.0</ele><time>2026-05-03T12:47:08.102Z</time></trkpt><trkpt lat="46.105686" lon="13.473138"><ele>144.0</ele><time>2026-05-03T12:47:09.115Z</time></trkpt><trkpt lat="46.1057777" lon="13.4733226"><ele>142.0</ele><time>2026-05-03T12:47:10.1Z</time></trkpt><trkpt lat="46.105871" lon="13.4735009"><ele>140.0</ele><time>2026-05-03T12:47:11.107Z</time></trkpt><trkpt lat="46.1059654" lon="13.4736654"><ele>142.5</ele><time>2026-05-03T12:47:12.098Z</time></trkpt><trkpt lat="46.1060727" lon="13.4738166"><ele>145.0</ele><time>2026-05-03T12:47:13.104Z</time></trkpt><trkpt lat="46.1061904" lon="13.4739378"><ele>147.5</ele><time>2026-05-03T12:47:14.087Z</time></trkpt><trkpt lat="46.1063222" lon="13.474036"><ele>150.0</ele><time>2026-05-03T12:47:15.101Z</time></trkpt><trkpt lat="46.1064561" lon="13.4741081"><ele>147.0</ele><time>2026-05-03T12:47:16.099Z</time></trkpt><trkpt lat="46.1066001" lon="13.474156"><ele>144.0</ele><time>2026-05-03T12:47:17.106Z</time></trkpt><trkpt lat="46.1067467" lon="13.4741818"><ele>141.0</ele><time>2026-05-03T12:47:18.11Z</time></trkpt><trkpt lat="46.1068942" lon="13.4741942"><ele>138.0</ele><time>2026-05-03T12:47:19.096Z</time></trkpt><trkpt lat="46.1070391" lon="13.4742164"><ele>138.0</ele><time>2026-05-03T12:47:20.1Z</time></trkpt><trkpt lat="46.1071778" lon="13.4742387"><ele>138.0</ele><time>2026-05-03T12:47:21.118Z</time></trkpt><trkpt lat="46.1073153" lon="13.4742578"><ele>138.0</ele><time>2026-05-03T12:47:22.104Z</time></trkpt><trkpt lat="46.1074575" lon="13.4742733"><ele>138.0</ele><time>2026-05-03T12:47:23.11Z</time></trkpt><trkpt lat="46.1076007" lon="13.4742909"><ele>136.75</ele><time>2026-05-03T12:47:24.106Z</time></trkpt><trkpt lat="46.1077377" lon="13.474309"><ele>135.5</ele><time>2026-05-03T12:47:25.12Z</time></trkpt><trkpt lat="46.1078738" lon="13.4743259"><ele>134.25</ele><time>2026-05-03T12:47:26.107Z</time></trkpt><trkpt lat="46.1080072" lon="13.4743411"><ele>133.0</ele><time>2026-05-03T12:47:27.112Z</time></trkpt><trkpt lat="46.1081353" lon="13.4743588"><ele>132.75</ele><time>2026-05-03T12:47:28.108Z</time></trkpt><trkpt lat="46.1082604" lon="13.4743745"><ele>132.5</ele><time>2026-05-03T12:47:29.115Z</time></trkpt><trkpt lat="46.1083847" lon="13.4743951"><ele>132.25</ele><time>2026-05-03T12:47:30.106Z</time></trkpt><trkpt lat="46.1085103" lon="13.4744123"><ele>132.0</ele><time>2026-05-03T12:47:31.116Z</time></trkpt><trkpt lat="46.1086389" lon="13.4744311"><ele>132.0</ele><time>2026-05-03T12:47:32.106Z</time></trkpt><trkpt lat="46.1087658" lon="13.4744543"><ele>132.0</ele><time>2026-05-03T12:47:33.117Z</time></trkpt><trkpt lat="46.1088928" lon="13.474488"><ele>132.0</ele><time>2026-05-03T12:47:34.12Z</time></trkpt><trkpt lat="46.1090197" lon="13.4745481"><ele>132.0</ele><time>2026-05-03T12:47:35.115Z</time></trkpt><trkpt lat="46.1091379" lon="13.4746289"><ele>131.75</ele><time>2026-05-03T12:47:36.113Z</time></trkpt><trkpt lat="46.1092507" lon="13.4747223"><ele>131.5</ele><time>2026-05-03T12:47:37.115Z</time></trkpt><trkpt lat="46.1093546" lon="13.4748236"><ele>131.25</ele><time>2026-05-03T12:47:38.12Z</time></trkpt><trkpt lat="46.1094616" lon="13.4749292"><ele>131.0</ele><time>2026-05-03T12:47:39.121Z</time></trkpt><trkpt lat="46.1095715" lon="13.475043"><ele>131.0</ele><time>2026-05-03T12:47:40.108Z</time></trkpt><trkpt lat="46.1096799" lon="13.4751599"><ele>131.0</ele><time>2026-05-03T12:47:41.107Z</time></trkpt><trkpt lat="46.1097869" lon="13.4752696"><ele>131.0</ele><time>2026-05-03T12:47:42.11Z</time></trkpt><trkpt lat="46.1098912" lon="13.4753769"><ele>131.0</ele><time>2026-05-03T12:47:43.107Z</time></trkpt><trkpt lat="46.1099945" lon="13.4754867"><ele>132.5</ele><time>2026-05-03T12:47:44.121Z</time></trkpt><trkpt lat="46.1101037" lon="13.4755942"><ele>134.0</ele><time>2026-05-03T12:47:45.108Z</time></trkpt><trkpt lat="46.1102063" lon="13.4757032"><ele>135.5</ele><time>2026-05-03T12:47:46.103Z</time></trkpt><trkpt lat="46.1102964" lon="13.4758042"><ele>137.0</ele><time>2026-05-03T12:47:47.105Z</time></trkpt><trkpt lat="46.1103721" lon="13.4759059"><ele>137.0</ele><time>2026-05-03T12:47:48.119Z</time></trkpt><trkpt lat="46.1104283" lon="13.4760243"><ele>137.0</ele><time>2026-05-03T12:47:49.116Z</time></trkpt><trkpt lat="46.1104641" lon="13.4761623"><ele>137.0</ele><time>2026-05-03T12:47:50.113Z</time></trkpt><trkpt lat="46.1104904" lon="13.4763069"><ele>137.0</ele><time>2026-05-03T12:47:51.112Z</time></trkpt><trkpt lat="46.1105271" lon="13.4764487"><ele>137.0</ele><time>2026-05-03T12:47:52.111Z</time></trkpt><trkpt lat="46.1105792" lon="13.4765752"><ele>136.6</ele><time>2026-05-03T12:47:53.12Z</time></trkpt><trkpt lat="46.1106444" lon="13.4766776"><ele>136.2</ele><time>2026-05-03T12:47:54.113Z</time></trkpt><trkpt lat="46.1107275" lon="13.4767569"><ele>135.8</ele><time>2026-05-03T12:47:55.11Z</time></trkpt><trkpt lat="46.1108172" lon="13.4768336"><ele>135.4</ele><time>2026-05-03T12:47:56.106Z</time></trkpt><trkpt lat="46.1109114" lon="13.4769071"><ele>135.0</ele><time>2026-05-03T12:47:57.12Z</time></trkpt><trkpt lat="46.1110036" lon="13.4769826"><ele>135.8</ele><time>2026-05-03T12:47:58.115Z</time></trkpt><trkpt lat="46.1110978" lon="13.4770554"><ele>136.6</ele><time>2026-05-03T12:47:59.102Z</time></trkpt><trkpt lat="46.1111992" lon="13.4771237"><ele>137.4</ele><time>2026-05-03T12:48:00.099Z</time></trkpt><trkpt lat="46.1113004" lon="13.4771853"><ele>138.2</ele><time>2026-05-03T12:48:01.104Z</time></trkpt><trkpt lat="46.1113991" lon="13.477237"><ele>139.0</ele><time>2026-05-03T12:48:02.093Z</time></trkpt><trkpt lat="46.1114966" lon="13.4772809"><ele>140.5</ele><time>2026-05-03T12:48:03.105Z</time></trkpt><trkpt lat="46.1115818" lon="13.4773179"><ele>142.0</ele><time>2026-05-03T12:48:04.101Z</time></trkpt><trkpt lat="46.1116494" lon="13.477352"><ele>143.5</ele><time>2026-05-03T12:48:05.107Z</time></trkpt><trkpt lat="46.1117364" lon="13.4773936"><ele>145.0</ele><time>2026-05-03T12:48:07.112Z</time></trkpt><trkpt lat="46.1117959" lon="13.4774553"><ele>146.5</ele><time>2026-05-03T12:48:10.117Z</time></trkpt><trkpt lat="46.1117957" lon="13.477609"><ele>148.0</ele><time>2026-05-03T12:48:12.102Z</time></trkpt><trkpt lat="46.1117706" lon="13.4777249"><ele>148.0</ele><time>2026-05-03T12:48:13.111Z</time></trkpt><trkpt lat="46.1117409" lon="13.4778688"><ele>148.0</ele><time>2026-05-03T12:48:14.11Z</time></trkpt><trkpt lat="46.1117085" lon="13.4780209"><ele>148.0</ele><time>2026-05-03T12:48:15.127Z</time></trkpt><trkpt lat="46.111681" lon="13.4781709"><ele>148.0</ele><time>2026-05-03T12:48:16.102Z</time></trkpt><trkpt lat="46.1116517" lon="13.4783212"><ele>148.0</ele><time>2026-05-03T12:48:17.118Z</time></trkpt><trkpt lat="46.1116196" lon="13.4784808"><ele>147.5</ele><time>2026-05-03T12:48:18.11Z</time></trkpt><trkpt lat="46.1115852" lon="13.478645"><ele>147.0</ele><time>2026-05-03T12:48:19.117Z</time></trkpt><trkpt lat="46.1115508" lon="13.4788138"><ele>146.5</ele><time>2026-05-03T12:48:20.106Z</time></trkpt><trkpt lat="46.1115161" lon="13.4789884"><ele>146.0</ele><time>2026-05-03T12:48:21.099Z</time></trkpt><trkpt lat="46.111488" lon="13.4791684"><ele>143.66666666666666</ele><time>2026-05-03T12:48:22.116Z</time></trkpt><trkpt lat="46.1114842" lon="13.4793676"><ele>141.33333333333334</ele><time>2026-05-03T12:48:23.101Z</time></trkpt><trkpt lat="46.1114943" lon="13.479608"><ele>139.0</ele><time>2026-05-03T12:48:24.105Z</time></trkpt><trkpt lat="46.1115093" lon="13.4798847"><ele>139.0</ele><time>2026-05-03T12:48:25.105Z</time></trkpt><trkpt lat="46.1115125" lon="13.4801922"><ele>139.0</ele><time>2026-05-03T12:48:26.097Z</time></trkpt><trkpt lat="46.1115132" lon="13.4805341"><ele>138.0</ele><time>2026-05-03T12:48:27.109Z</time></trkpt><trkpt lat="46.1115157" lon="13.4808973"><ele>137.0</ele><time>2026-05-03T12:48:28.104Z</time></trkpt><trkpt lat="46.1115258" lon="13.4812603"><ele>136.0</ele><time>2026-05-03T12:48:29.098Z</time></trkpt><trkpt lat="46.1115389" lon="13.4816029"><ele>135.0</ele><time>2026-05-03T12:48:30.096Z</time></trkpt><trkpt lat="46.1115505" lon="13.4819166"><ele>135.66666666666666</ele><time>2026-05-03T12:48:31.109Z</time></trkpt><trkpt lat="46.1115626" lon="13.4822037"><ele>136.33333333333331</ele><time>2026-05-03T12:48:32.088Z</time></trkpt><trkpt lat="46.1115846" lon="13.4824793"><ele>137.0</ele><time>2026-05-03T12:48:33.106Z</time></trkpt><trkpt lat="46.1116304" lon="13.4827605"><ele>140.0</ele><time>2026-05-03T12:48:34.106Z</time></trkpt><trkpt lat="46.1117039" lon="13.4830527"><ele>143.0</ele><time>2026-05-03T12:48:35.09Z</time></trkpt><trkpt lat="46.1117909" lon="13.4833307"><ele>146.0</ele><time>2026-05-03T12:48:36.103Z</time></trkpt><trkpt lat="46.1118712" lon="13.483575"><ele>145.33333333333331</ele><time>2026-05-03T12:48:37.093Z</time></trkpt><trkpt lat="46.1119503" lon="13.4838064"><ele>144.66666666666666</ele><time>2026-05-03T12:48:38.102Z</time></trkpt><trkpt lat="46.1120344" lon="13.4840254"><ele>144.0</ele><time>2026-05-03T12:48:39.108Z</time></trkpt><trkpt lat="46.1121535" lon="13.4842188"><ele>144.0</ele><time>2026-05-03T12:48:40.106Z</time></trkpt><trkpt lat="46.1123117" lon="13.4843868"><ele>144.0</ele><time>2026-05-03T12:48:41.106Z</time></trkpt><trkpt lat="46.1124948" lon="13.4845565"><ele>144.0</ele><time>2026-05-03T12:48:42.1Z</time></trkpt><trkpt lat="46.1126875" lon="13.4847249"><ele>145.0</ele><time>2026-05-03T12:48:43.109Z</time></trkpt><trkpt lat="46.1128712" lon="13.4848839"><ele>146.0</ele><time>2026-05-03T12:48:44.089Z</time></trkpt><trkpt lat="46.1130315" lon="13.4850455"><ele>147.0</ele><time>2026-05-03T12:48:45.098Z</time></trkpt><trkpt lat="46.113175" lon="13.4852179"><ele>147.0</ele><time>2026-05-03T12:48:46.107Z</time></trkpt><trkpt lat="46.1132965" lon="13.4854185"><ele>147.0</ele><time>2026-05-03T12:48:47.098Z</time></trkpt><trkpt lat="46.113399" lon="13.4856408"><ele>147.0</ele><time>2026-05-03T12:48:48.105Z</time></trkpt><trkpt lat="46.1135024" lon="13.4859028"><ele>147.0</ele><time>2026-05-03T12:48:49.104Z</time></trkpt><trkpt lat="46.1135961" lon="13.4861767"><ele>147.0</ele><time>2026-05-03T12:48:50.107Z</time></trkpt><trkpt lat="46.1136894" lon="13.4864322"><ele>147.0</ele><time>2026-05-03T12:48:51.119Z</time></trkpt><trkpt lat="46.113781" lon="13.4866813"><ele>146.0</ele><time>2026-05-03T12:48:52.105Z</time></trkpt><trkpt lat="46.113867" lon="13.4869157"><ele>145.0</ele><time>2026-05-03T12:48:53.113Z</time></trkpt><trkpt lat="46.1139569" lon="13.4871445"><ele>144.0</ele><time>2026-05-03T12:48:54.108Z</time></trkpt><trkpt lat="46.1140341" lon="13.4873685"><ele>146.66666666666666</ele><time>2026-05-03T12:48:55.108Z</time></trkpt><trkpt lat="46.1141079" lon="13.4875946"><ele>149.33333333333331</ele><time>2026-05-03T12:48:56.112Z</time></trkpt><trkpt lat="46.1141645" lon="13.487832"><ele>152.0</ele><time>2026-05-03T12:48:57.119Z</time></trkpt><trkpt lat="46.1141939" lon="13.4880573"><ele>152.0</ele><time>2026-05-03T12:48:58.105Z</time></trkpt><trkpt lat="46.1142103" lon="13.4882581"><ele>152.0</ele><time>2026-05-03T12:48:59.12Z</time></trkpt><trkpt lat="46.1142173" lon="13.488448"><ele>152.0</ele><time>2026-05-03T12:49:00.113Z</time></trkpt><trkpt lat="46.1142291" lon="13.4886454"><ele>152.0</ele><time>2026-05-03T12:49:01.108Z</time></trkpt><trkpt lat="46.1142511" lon="13.4888626"><ele>150.66666666666666</ele><time>2026-05-03T12:49:02.103Z</time></trkpt><trkpt lat="46.1142915" lon="13.4890762"><ele>149.33333333333334</ele><time>2026-05-03T12:49:03.107Z</time></trkpt><trkpt lat="46.1143403" lon="13.4892908"><ele>148.0</ele><time>2026-05-03T12:49:04.115Z</time></trkpt><trkpt lat="46.1143889" lon="13.4895157"><ele>146.66666666666669</ele><time>2026-05-03T12:49:05.1Z</time></trkpt><trkpt lat="46.1144488" lon="13.4897439"><ele>145.33333333333334</ele><time>2026-05-03T12:49:06.103Z</time></trkpt><trkpt lat="46.1145195" lon="13.4899797"><ele>144.0</ele><time>2026-05-03T12:49:07.105Z</time></trkpt><trkpt lat="46.1145996" lon="13.4902149"><ele>143.33333333333334</ele><time>2026-05-03T12:49:08.1Z</time></trkpt><trkpt lat="46.1146864" lon="13.4904525"><ele>142.66666666666669</ele><time>2026-05-03T12:49:09.103Z</time></trkpt><trkpt lat="46.114783" lon="13.4906922"><ele>142.0</ele><time>2026-05-03T12:49:10.102Z</time></trkpt><trkpt lat="46.1148888" lon="13.4909301"><ele>143.66666666666669</ele><time>2026-05-03T12:49:11.102Z</time></trkpt><trkpt lat="46.1150024" lon="13.4911604"><ele>145.33333333333334</ele><time>2026-05-03T12:49:12.1Z</time></trkpt><trkpt lat="46.1151116" lon="13.4913811"><ele>147.0</ele><time>2026-05-03T12:49:13.101Z</time></trkpt><trkpt lat="46.1152218" lon="13.4915837"><ele>147.0</ele><time>2026-05-03T12:49:14.095Z</time></trkpt><trkpt lat="46.1153272" lon="13.4917643"><ele>147.0</ele><time>2026-05-03T12:49:15.093Z</time></trkpt><trkpt lat="46.1154392" lon="13.4919245"><ele>147.0</ele><time>2026-05-03T12:49:16.101Z</time></trkpt><trkpt lat="46.1155624" lon="13.4920551"><ele>147.0</ele><time>2026-05-03T12:49:17.094Z</time></trkpt><trkpt lat="46.115714" lon="13.492169"><ele>147.0</ele><time>2026-05-03T12:49:18.115Z</time></trkpt><trkpt lat="46.1158821" lon="13.4922797"><ele>147.0</ele><time>2026-05-03T12:49:19.085Z</time></trkpt><trkpt lat="46.1160569" lon="13.4923913"><ele>147.0</ele><time>2026-05-03T12:49:20.088Z</time></trkpt><trkpt lat="46.1162373" lon="13.4924985"><ele>147.0</ele><time>2026-05-03T12:49:21.086Z</time></trkpt><trkpt lat="46.1164176" lon="13.4925981"><ele>147.0</ele><time>2026-05-03T12:49:22.095Z</time></trkpt><trkpt lat="46.1166039" lon="13.4926829"><ele>148.33333333333334</ele><time>2026-05-03T12:49:23.093Z</time></trkpt><trkpt lat="46.11679" lon="13.492757"><ele>149.66666666666669</ele><time>2026-05-03T12:49:24.087Z</time></trkpt><trkpt lat="46.1169726" lon="13.4928229"><ele>151.0</ele><time>2026-05-03T12:49:25.084Z</time></trkpt><trkpt lat="46.1171519" lon="13.4928865"><ele>150.33333333333334</ele><time>2026-05-03T12:49:26.083Z</time></trkpt><trkpt lat="46.1173319" lon="13.4929534"><ele>149.66666666666666</ele><time>2026-05-03T12:49:27.088Z</time></trkpt><trkpt lat="46.1175189" lon="13.4930195"><ele>149.0</ele><time>2026-05-03T12:49:28.086Z</time></trkpt><trkpt lat="46.1177076" lon="13.4930898"><ele>149.0</ele><time>2026-05-03T12:49:29.081Z</time></trkpt><trkpt lat="46.1178923" lon="13.4931551"><ele>149.0</ele><time>2026-05-03T12:49:30.084Z</time></trkpt><trkpt lat="46.1180621" lon="13.4932188"><ele>149.0</ele><time>2026-05-03T12:49:31.091Z</time></trkpt><trkpt lat="46.1182266" lon="13.4932803"><ele>149.25</ele><time>2026-05-03T12:49:32.088Z</time></trkpt><trkpt lat="46.1183751" lon="13.4933426"><ele>149.5</ele><time>2026-05-03T12:49:33.087Z</time></trkpt><trkpt lat="46.1185048" lon="13.4933964"><ele>149.75</ele><time>2026-05-03T12:49:34.091Z</time></trkpt><trkpt lat="46.1186217" lon="13.4934447"><ele>150.0</ele><time>2026-05-03T12:49:35.106Z</time></trkpt><trkpt lat="46.1187253" lon="13.4935013"><ele>150.0</ele><time>2026-05-03T12:49:36.082Z</time></trkpt><trkpt lat="46.1188083" lon="13.4935933"><ele>150.0</ele><time>2026-05-03T12:49:37.085Z</time></trkpt><trkpt lat="46.1188572" lon="13.493732"><ele>150.0</ele><time>2026-05-03T12:49:38.089Z</time></trkpt><trkpt lat="46.1188676" lon="13.4938768"><ele>150.0</ele><time>2026-05-03T12:49:39.089Z</time></trkpt><trkpt lat="46.1188419" lon="13.4940295"><ele>150.0</ele><time>2026-05-03T12:49:40.092Z</time></trkpt><trkpt lat="46.1187771" lon="13.4941707"><ele>148.75</ele><time>2026-05-03T12:49:41.091Z</time></trkpt><trkpt lat="46.1186798" lon="13.4943011"><ele>147.5</ele><time>2026-05-03T12:49:42.093Z</time></trkpt><trkpt lat="46.1185783" lon="13.4944225"><ele>146.25</ele><time>2026-05-03T12:49:43.092Z</time></trkpt><trkpt lat="46.1184804" lon="13.4945458"><ele>145.0</ele><time>2026-05-03T12:49:44.093Z</time></trkpt><trkpt lat="46.1183924" lon="13.4946666"><ele>144.83333333333334</ele><time>2026-05-03T12:49:45.097Z</time></trkpt><trkpt lat="46.1183122" lon="13.4947701"><ele>144.66666666666669</ele><time>2026-05-03T12:49:46.084Z</time></trkpt><trkpt lat="46.1182506" lon="13.4948556"><ele>144.5</ele><time>2026-05-03T12:49:47.095Z</time></trkpt><trkpt lat="46.1181993" lon="13.4949161"><ele>144.33333333333334</ele><time>2026-05-03T12:49:48.089Z</time></trkpt><trkpt lat="46.1181196" lon="13.4949147"><ele>144.16666666666666</ele><time>2026-05-03T12:49:50.095Z</time></trkpt><trkpt lat="46.1180811" lon="13.4947674"><ele>144.0</ele><time>2026-05-03T12:49:52.096Z</time></trkpt><trkpt lat="46.1180278" lon="13.4946565"><ele>144.0</ele><time>2026-05-03T12:49:53.093Z</time></trkpt><trkpt lat="46.117954" lon="13.4945465"><ele>144.0</ele><time>2026-05-03T12:49:54.127Z</time></trkpt><trkpt lat="46.1178639" lon="13.4944336"><ele>144.0</ele><time>2026-05-03T12:49:55.115Z</time></trkpt><trkpt lat="46.1177666" lon="13.4943086"><ele>144.0</ele><time>2026-05-03T12:49:56.102Z</time></trkpt><trkpt lat="46.1176637" lon="13.4941822"><ele>144.0</ele><time>2026-05-03T12:49:57.107Z</time></trkpt><trkpt lat="46.1175536" lon="13.4940595"><ele>144.0</ele><time>2026-05-03T12:49:58.11Z</time></trkpt><trkpt lat="46.1174315" lon="13.4939432"><ele>144.0</ele><time>2026-05-03T12:49:59.096Z</time></trkpt><trkpt lat="46.1173058" lon="13.4938336"><ele>144.0</ele><time>2026-05-03T12:50:00.101Z</time></trkpt><trkpt lat="46.1171739" lon="13.4937398"><ele>144.25</ele><time>2026-05-03T12:50:01.077Z</time></trkpt><trkpt lat="46.1170357" lon="13.493659"><ele>144.5</ele><time>2026-05-03T12:50:02.093Z</time></trkpt><trkpt lat="46.1169042" lon="13.4935832"><ele>144.75</ele><time>2026-05-03T12:50:03.094Z</time></trkpt><trkpt lat="46.1167814" lon="13.493515"><ele>145.0</ele><time>2026-05-03T12:50:04.098Z</time></trkpt><trkpt lat="46.1166651" lon="13.4934577"><ele>145.0</ele><time>2026-05-03T12:50:05.103Z</time></trkpt><trkpt lat="46.1165703" lon="13.4934193"><ele>145.0</ele><time>2026-05-03T12:50:06.097Z</time></trkpt><trkpt lat="46.1164988" lon="13.4933901"><ele>145.0</ele><time>2026-05-03T12:50:07.104Z</time></trkpt><trkpt lat="46.1163902" lon="13.4933741"><ele>145.0</ele><time>2026-05-03T12:50:09.104Z</time></trkpt><trkpt lat="46.1163251" lon="13.4933677"><ele>145.0</ele><time>2026-05-03T12:50:10.104Z</time></trkpt><trkpt lat="46.1162412" lon="13.4933627"><ele>145.0</ele><time>2026-05-03T12:50:11.116Z</time></trkpt><trkpt lat="46.1161472" lon="13.4933534"><ele>144.4</ele><time>2026-05-03T12:50:12.091Z</time></trkpt><trkpt lat="46.1160553" lon="13.4933183"><ele>143.8</ele><time>2026-05-03T12:50:13.093Z</time></trkpt><trkpt lat="46.1159556" lon="13.4932704"><ele>143.2</ele><time>2026-05-03T12:50:14.095Z</time></trkpt><trkpt lat="46.115844" lon="13.4932114"><ele>142.6</ele><time>2026-05-03T12:50:15.105Z</time></trkpt><trkpt lat="46.1157349" lon="13.4931577"><ele>142.0</ele><time>2026-05-03T12:50:16.107Z</time></trkpt><trkpt lat="46.1156299" lon="13.4931011"><ele>141.66666666666669</ele><time>2026-05-03T12:50:17.096Z</time></trkpt><trkpt lat="46.1155315" lon="13.493054"><ele>141.33333333333334</ele><time>2026-05-03T12:50:18.092Z</time></trkpt><trkpt lat="46.1154485" lon="13.4930321"><ele>141.0</ele><time>2026-05-03T12:50:19.092Z</time></trkpt><trkpt lat="46.1153689" lon="13.4930502"><ele>140.66666666666666</ele><time>2026-05-03T12:50:20.096Z</time></trkpt><trkpt lat="46.115296" lon="13.4930872"><ele>140.33333333333331</ele><time>2026-05-03T12:50:21.094Z</time></trkpt><trkpt lat="46.1152436" lon="13.4931543"><ele>140.0</ele><time>2026-05-03T12:50:22.098Z</time></trkpt><trkpt lat="46.1152047" lon="13.4932342"><ele>140.0</ele><time>2026-05-03T12:50:23.101Z</time></trkpt><trkpt lat="46.1151753" lon="13.4933359"><ele>140.0</ele><time>2026-05-03T12:50:24.097Z</time></trkpt><trkpt lat="46.1151356" lon="13.4934543"><ele>140.0</ele><time>2026-05-03T12:50:25.096Z</time></trkpt><trkpt lat="46.1150872" lon="13.4935761"><ele>140.0</ele><time>2026-05-03T12:50:26.091Z</time></trkpt><trkpt lat="46.1150315" lon="13.4936913"><ele>140.0</ele><time>2026-05-03T12:50:27.12Z</time></trkpt><trkpt lat="46.1149547" lon="13.4937803"><ele>139.4</ele><time>2026-05-03T12:50:28.111Z</time></trkpt><trkpt lat="46.1148642" lon="13.4938456"><ele>138.8</ele><time>2026-05-03T12:50:29.096Z</time></trkpt><trkpt lat="46.1147769" lon="13.4938935"><ele>138.2</ele><time>2026-05-03T12:50:30.096Z</time></trkpt><trkpt lat="46.114709" lon="13.4939566"><ele>137.6</ele><time>2026-05-03T12:50:32.094Z</time></trkpt><trkpt lat="46.1147417" lon="13.4941232"><ele>137.0</ele><time>2026-05-03T12:50:34.088Z</time></trkpt><trkpt lat="46.1147653" lon="13.4942254"><ele>137.0</ele><time>2026-05-03T12:50:35.084Z</time></trkpt><trkpt lat="46.1147846" lon="13.4943415"><ele>137.0</ele><time>2026-05-03T12:50:36.106Z</time></trkpt><trkpt lat="46.1148077" lon="13.4944692"><ele>137.0</ele><time>2026-05-03T12:50:37.106Z</time></trkpt><trkpt lat="46.1148282" lon="13.4946048"><ele>137.0</ele><time>2026-05-03T12:50:38.091Z</time></trkpt><trkpt lat="46.1148375" lon="13.4947416"><ele>137.0</ele><time>2026-05-03T12:50:39.095Z</time></trkpt><trkpt lat="46.1148358" lon="13.4948873"><ele>137.33333333333331</ele><time>2026-05-03T12:50:40.089Z</time></trkpt><trkpt lat="46.1148381" lon="13.4950115"><ele>137.66666666666666</ele><time>2026-05-03T12:50:41.089Z</time></trkpt><trkpt lat="46.1148364" lon="13.4951115"><ele>138.0</ele><time>2026-05-03T12:50:42.096Z</time></trkpt><trkpt lat="46.1148548" lon="13.4952614"><ele>138.33333333333334</ele><time>2026-05-03T12:50:44.101Z</time></trkpt><trkpt lat="46.1149049" lon="13.4953731"><ele>138.66666666666669</ele><time>2026-05-03T12:50:46.097Z</time></trkpt><trkpt lat="46.1149111" lon="13.4954734"><ele>139.0</ele><time>2026-05-03T12:50:48.088Z</time></trkpt><trkpt lat="46.114871" lon="13.4955947"><ele>139.0</ele><time>2026-05-03T12:50:50.102Z</time></trkpt><trkpt lat="46.1148166" lon="13.495729"><ele>139.0</ele><time>2026-05-03T12:50:52.098Z</time></trkpt><trkpt lat="46.1147905" lon="13.4958919"><ele>139.0</ele><time>2026-05-03T12:50:54.101Z</time></trkpt><trkpt lat="46.1147954" lon="13.4959857"><ele>139.0</ele><time>2026-05-03T12:50:55.101Z</time></trkpt><trkpt lat="46.1147882" lon="13.496089"><ele>139.0</ele><time>2026-05-03T12:50:56.1Z</time></trkpt><trkpt lat="46.1147778" lon="13.4961949"><ele>139.0</ele><time>2026-05-03T12:50:57.115Z</time></trkpt><trkpt lat="46.1147655" lon="13.4962926"><ele>139.0</ele><time>2026-05-03T12:50:58.105Z</time></trkpt><trkpt lat="46.1147498" lon="13.4963816"><ele>139.0</ele><time>2026-05-03T12:50:59.112Z</time></trkpt><trkpt lat="46.1147234" lon="13.4965573"><ele>139.0</ele><time>2026-05-03T12:51:01.11Z</time></trkpt><trkpt lat="46.114714" lon="13.4966476"><ele>139.0</ele><time>2026-05-03T12:51:02.111Z</time></trkpt><trkpt lat="46.114688" lon="13.4968204"><ele>139.0</ele><time>2026-05-03T12:51:04.094Z</time></trkpt><trkpt lat="46.1146838" lon="13.4969819"><ele>139.0</ele><time>2026-05-03T12:51:06.089Z</time></trkpt><trkpt lat="46.1146386" lon="13.4970628"><ele>139.0</ele><time>2026-05-03T12:51:48.1Z</time></trkpt><trkpt lat="46.1146315" lon="13.4971688"><ele>139.0</ele><time>2026-05-03T12:51:51.105Z</time></trkpt><trkpt lat="46.1146142" lon="13.497291"><ele>139.0</ele><time>2026-05-03T12:51:53.104Z</time></trkpt><trkpt lat="46.1146112" lon="13.4973897"><ele>139.0</ele><time>2026-05-03T12:51:55.099Z</time></trkpt><trkpt lat="46.1146244" lon="13.497479"><ele>139.0</ele><time>2026-05-03T12:52:07.108Z</time></trkpt><trkpt lat="46.1146179" lon="13.4975733"><ele>139.0</ele><time>2026-05-03T12:52:09.094Z</time></trkpt><trkpt lat="46.1145804" lon="13.4977535"><ele>139.4</ele><time>2026-05-03T12:52:11.095Z</time></trkpt><trkpt lat="46.1145676" lon="13.4978564"><ele>139.8</ele><time>2026-05-03T12:52:12.103Z</time></trkpt><trkpt lat="46.1145905" lon="13.4980201"><ele>140.2</ele><time>2026-05-03T12:52:14.087Z</time></trkpt><trkpt lat="46.1145837" lon="13.4981285"><ele>140.6</ele><time>2026-05-03T12:52:15.097Z</time></trkpt><trkpt lat="46.1145624" lon="13.4982547"><ele>141.0</ele><time>2026-05-03T12:52:16.103Z</time></trkpt><trkpt lat="46.1145369" lon="13.498391"><ele>141.0</ele><time>2026-05-03T12:52:17.101Z</time></trkpt><trkpt lat="46.1145254" lon="13.4985275"><ele>141.0</ele><time>2026-05-03T12:52:18.096Z</time></trkpt><trkpt lat="46.1145145" lon="13.4986752"><ele>141.0</ele><time>2026-05-03T12:52:19.098Z</time></trkpt><trkpt lat="46.1145041" lon="13.4988209"><ele>141.0</ele><time>2026-05-03T12:52:20.095Z</time></trkpt><trkpt lat="46.1144969" lon="13.4989587"><ele>141.0</ele><time>2026-05-03T12:52:21.102Z</time></trkpt><trkpt lat="46.1144917" lon="13.4990743"><ele>141.0</ele><time>2026-05-03T12:52:22.092Z</time></trkpt><trkpt lat="46.1144966" lon="13.4991674"><ele>141.0</ele><time>2026-05-03T12:52:23.093Z</time></trkpt><trkpt lat="46.1145244" lon="13.4993139"><ele>141.0</ele><time>2026-05-03T12:52:25.119Z</time></trkpt><trkpt lat="46.1145097" lon="13.499488"><ele>141.0</ele><time>2026-05-03T12:52:27.103Z</time></trkpt><trkpt lat="46.1144654" lon="13.4996239"><ele>141.0</ele><time>2026-05-03T12:52:28.092Z</time></trkpt><trkpt lat="46.1144189" lon="13.4997834"><ele>141.4</ele><time>2026-05-03T12:52:29.092Z</time></trkpt><trkpt lat="46.1143908" lon="13.4999379"><ele>141.8</ele><time>2026-05-03T12:52:30.093Z</time></trkpt><trkpt lat="46.1143692" lon="13.5000874"><ele>142.20000000000002</ele><time>2026-05-03T12:52:31.106Z</time></trkpt><trkpt lat="46.1143521" lon="13.5002398"><ele>142.6</ele><time>2026-05-03T12:52:32.089Z</time></trkpt><trkpt lat="46.1143382" lon="13.5003957"><ele>143.0</ele><time>2026-05-03T12:52:33.095Z</time></trkpt><trkpt lat="46.114319" lon="13.5005551"><ele>143.75</ele><time>2026-05-03T12:52:34.09Z</time></trkpt><trkpt lat="46.1142979" lon="13.5007179"><ele>144.5</ele><time>2026-05-03T12:52:35.096Z</time></trkpt><trkpt lat="46.1142766" lon="13.5008955"><ele>145.25</ele><time>2026-05-03T12:52:36.089Z</time></trkpt><trkpt lat="46.1142521" lon="13.5010769"><ele>146.0</ele><time>2026-05-03T12:52:37.091Z</time></trkpt><trkpt lat="46.1142262" lon="13.5012578"><ele>146.25</ele><time>2026-05-03T12:52:38.091Z</time></trkpt><trkpt lat="46.1141971" lon="13.5014451"><ele>146.5</ele><time>2026-05-03T12:52:39.091Z</time></trkpt><trkpt lat="46.1141667" lon="13.5016402"><ele>146.75</ele><time>2026-05-03T12:52:40.096Z</time></trkpt><trkpt lat="46.1141338" lon="13.5018395"><ele>147.0</ele><time>2026-05-03T12:52:41.078Z</time></trkpt><trkpt lat="46.1140999" lon="13.5020424"><ele>147.66666666666666</ele><time>2026-05-03T12:52:42.095Z</time></trkpt><trkpt lat="46.1140618" lon="13.5022466"><ele>148.33333333333331</ele><time>2026-05-03T12:52:43.097Z</time></trkpt><trkpt lat="46.1140209" lon="13.5024579"><ele>149.0</ele><time>2026-05-03T12:52:44.084Z</time></trkpt><trkpt lat="46.1139786" lon="13.5026692"><ele>149.0</ele><time>2026-05-03T12:52:45.095Z</time></trkpt><trkpt lat="46.1139414" lon="13.5028755"><ele>149.0</ele><time>2026-05-03T12:52:46.1Z</time></trkpt><trkpt lat="46.1139036" lon="13.5030765"><ele>149.0</ele><time>2026-05-03T12:52:47.094Z</time></trkpt><trkpt lat="46.1138647" lon="13.5032742"><ele>149.0</ele><time>2026-05-03T12:52:48.097Z</time></trkpt><trkpt lat="46.1138271" lon="13.5034767"><ele>147.5</ele><time>2026-05-03T12:52:49.103Z</time></trkpt><trkpt lat="46.1137892" lon="13.5036779"><ele>146.0</ele><time>2026-05-03T12:52:50.09Z</time></trkpt><trkpt lat="46.1137515" lon="13.5038767"><ele>144.5</ele><time>2026-05-03T12:52:51.093Z</time></trkpt><trkpt lat="46.1137184" lon="13.5040724"><ele>143.0</ele><time>2026-05-03T12:52:52.105Z</time></trkpt><trkpt lat="46.113692" lon="13.5042668"><ele>143.0</ele><time>2026-05-03T12:52:53.095Z</time></trkpt><trkpt lat="46.1136751" lon="13.5044561"><ele>143.0</ele><time>2026-05-03T12:52:54.1Z</time></trkpt><trkpt lat="46.1136683" lon="13.5046375"><ele>143.0</ele><time>2026-05-03T12:52:55.097Z</time></trkpt><trkpt lat="46.1136662" lon="13.5048283"><ele>143.0</ele><time>2026-05-03T12:52:56.111Z</time></trkpt><trkpt lat="46.1136701" lon="13.5050288"><ele>143.0</ele><time>2026-05-03T12:52:57.099Z</time></trkpt><trkpt lat="46.1136772" lon="13.5052351"><ele>143.0</ele><time>2026-05-03T12:52:58.106Z</time></trkpt><trkpt lat="46.1136813" lon="13.5054391"><ele>143.0</ele><time>2026-05-03T12:52:59.099Z</time></trkpt><trkpt lat="46.1136909" lon="13.5056474"><ele>143.0</ele><time>2026-05-03T12:53:00.095Z</time></trkpt><trkpt lat="46.113703" lon="13.505855"><ele>143.5</ele><time>2026-05-03T12:53:01.103Z</time></trkpt><trkpt lat="46.1137171" lon="13.5060657"><ele>144.0</ele><time>2026-05-03T12:53:02.101Z</time></trkpt><trkpt lat="46.1137326" lon="13.5062809"><ele>144.5</ele><time>2026-05-03T12:53:03.098Z</time></trkpt><trkpt lat="46.1137515" lon="13.5064918"><ele>145.0</ele><time>2026-05-03T12:53:04.093Z</time></trkpt><trkpt lat="46.1137695" lon="13.5066959"><ele>146.25</ele><time>2026-05-03T12:53:05.091Z</time></trkpt><trkpt lat="46.1137862" lon="13.5068978"><ele>147.5</ele><time>2026-05-03T12:53:06.099Z</time></trkpt><trkpt lat="46.1138054" lon="13.5070887"><ele>148.75</ele><time>2026-05-03T12:53:07.104Z</time></trkpt><trkpt lat="46.1138356" lon="13.5072757"><ele>150.0</ele><time>2026-05-03T12:53:08.093Z</time></trkpt><trkpt lat="46.1138779" lon="13.507466"><ele>149.25</ele><time>2026-05-03T12:53:09.101Z</time></trkpt><trkpt lat="46.1139286" lon="13.5076461"><ele>148.5</ele><time>2026-05-03T12:53:10.104Z</time></trkpt><trkpt lat="46.1139892" lon="13.5078163"><ele>147.75</ele><time>2026-05-03T12:53:11.104Z</time></trkpt><trkpt lat="46.1140597" lon="13.5079745"><ele>147.0</ele><time>2026-05-03T12:53:12.105Z</time></trkpt><trkpt lat="46.1141252" lon="13.5081244"><ele>147.0</ele><time>2026-05-03T12:53:13.106Z</time></trkpt><trkpt lat="46.1141894" lon="13.5082526"><ele>147.0</ele><time>2026-05-03T12:53:14.112Z</time></trkpt><trkpt lat="46.1142443" lon="13.508377"><ele>147.0</ele><time>2026-05-03T12:53:15.112Z</time></trkpt><trkpt lat="46.1142986" lon="13.5084816"><ele>147.0</ele><time>2026-05-03T12:53:16.1Z</time></trkpt><trkpt lat="46.114346" lon="13.5085647"><ele>147.0</ele><time>2026-05-03T12:53:17.106Z</time></trkpt><trkpt lat="46.1143672" lon="13.5086712"><ele>146.6</ele><time>2026-05-03T12:53:19.107Z</time></trkpt><trkpt lat="46.1142942" lon="13.508802"><ele>146.2</ele><time>2026-05-03T12:53:21.096Z</time></trkpt><trkpt lat="46.1142128" lon="13.508904"><ele>145.8</ele><time>2026-05-03T12:53:22.093Z</time></trkpt><trkpt lat="46.1141337" lon="13.5089988"><ele>145.4</ele><time>2026-05-03T12:53:23.099Z</time></trkpt><trkpt lat="46.1140608" lon="13.5090926"><ele>145.0</ele><time>2026-05-03T12:53:24.088Z</time></trkpt><trkpt lat="46.1139889" lon="13.509176"><ele>147.16666666666669</ele><time>2026-05-03T12:53:25.091Z</time></trkpt><trkpt lat="46.1139177" lon="13.5092448"><ele>149.33333333333334</ele><time>2026-05-03T12:53:26.08Z</time></trkpt><trkpt lat="46.1138525" lon="13.5093069"><ele>151.5</ele><time>2026-05-03T12:53:27.102Z</time></trkpt><trkpt lat="46.1137978" lon="13.5093707"><ele>153.66666666666666</ele><time>2026-05-03T12:53:28.088Z</time></trkpt><trkpt lat="46.1137601" lon="13.5094471"><ele>155.83333333333331</ele><time>2026-05-03T12:53:29.089Z</time></trkpt><trkpt lat="46.1137473" lon="13.5096342"><ele>158.0</ele><time>2026-05-03T12:53:31.086Z</time></trkpt><trkpt lat="46.1137641" lon="13.5097603"><ele>158.8</ele><time>2026-05-03T12:53:32.092Z</time></trkpt><trkpt lat="46.1137818" lon="13.5099033"><ele>159.60000000000002</ele><time>2026-05-03T12:53:33.09Z</time></trkpt><trkpt lat="46.1137919" lon="13.5100581"><ele>160.39999999999998</ele><time>2026-05-03T12:53:34.099Z</time></trkpt><trkpt lat="46.1138004" lon="13.5102205"><ele>161.2</ele><time>2026-05-03T12:53:35.087Z</time></trkpt><trkpt lat="46.1138107" lon="13.5103914"><ele>162.0</ele><time>2026-05-03T12:53:36.091Z</time></trkpt><trkpt lat="46.1138252" lon="13.510578"><ele>162.0</ele><time>2026-05-03T12:53:37.086Z</time></trkpt><trkpt lat="46.1138441" lon="13.510778"><ele>162.0</ele><time>2026-05-03T12:53:38.094Z</time></trkpt><trkpt lat="46.1138603" lon="13.5109767"><ele>162.0</ele><time>2026-05-03T12:53:39.074Z</time></trkpt><trkpt lat="46.1138674" lon="13.5111683"><ele>162.0</ele><time>2026-05-03T12:53:40.081Z</time></trkpt><trkpt lat="46.1138666" lon="13.5113551"><ele>162.2</ele><time>2026-05-03T12:53:41.088Z</time></trkpt><trkpt lat="46.1138623" lon="13.5115313"><ele>162.39999999999998</ele><time>2026-05-03T12:53:42.096Z</time></trkpt><trkpt lat="46.1138598" lon="13.5116948"><ele>162.60000000000002</ele><time>2026-05-03T12:53:43.106Z</time></trkpt><trkpt lat="46.1138649" lon="13.5118388"><ele>162.8</ele><time>2026-05-03T12:53:44.089Z</time></trkpt><trkpt lat="46.113889" lon="13.5119774"><ele>163.0</ele><time>2026-05-03T12:53:45.092Z</time></trkpt><trkpt lat="46.1139192" lon="13.51212"><ele>165.60000000000002</ele><time>2026-05-03T12:53:46.082Z</time></trkpt><trkpt lat="46.1139538" lon="13.5122661"><ele>168.20000000000002</ele><time>2026-05-03T12:53:47.081Z</time></trkpt><trkpt lat="46.1139915" lon="13.5124241"><ele>170.8</ele><time>2026-05-03T12:53:48.084Z</time></trkpt><trkpt lat="46.1140204" lon="13.5125757"><ele>173.4</ele><time>2026-05-03T12:53:49.088Z</time></trkpt><trkpt lat="46.1140455" lon="13.512723"><ele>176.0</ele><time>2026-05-03T12:53:50.092Z</time></trkpt><trkpt lat="46.114068" lon="13.512876"><ele>172.5</ele><time>2026-05-03T12:53:51.088Z</time></trkpt><trkpt lat="46.1140864" lon="13.5130257"><ele>169.0</ele><time>2026-05-03T12:53:52.09Z</time></trkpt><trkpt lat="46.1141157" lon="13.5131938"><ele>165.5</ele><time>2026-05-03T12:53:53.102Z</time></trkpt><trkpt lat="46.1141498" lon="13.513369"><ele>162.0</ele><time>2026-05-03T12:53:54.088Z</time></trkpt><trkpt lat="46.1141911" lon="13.5135383"><ele>162.0</ele><time>2026-05-03T12:53:55.084Z</time></trkpt><trkpt lat="46.1142306" lon="13.5136886"><ele>162.0</ele><time>2026-05-03T12:53:56.091Z</time></trkpt><trkpt lat="46.1142702" lon="13.5138303"><ele>162.0</ele><time>2026-05-03T12:53:57.093Z</time></trkpt><trkpt lat="46.1143036" lon="13.5139709"><ele>162.0</ele><time>2026-05-03T12:53:58.088Z</time></trkpt><trkpt lat="46.1143266" lon="13.5141154"><ele>162.0</ele><time>2026-05-03T12:53:59.094Z</time></trkpt><trkpt lat="46.1143428" lon="13.5142635"><ele>162.75</ele><time>2026-05-03T12:54:00.079Z</time></trkpt><trkpt lat="46.1143677" lon="13.5144225"><ele>163.5</ele><time>2026-05-03T12:54:01.084Z</time></trkpt><trkpt lat="46.114406" lon="13.5145992"><ele>164.25</ele><time>2026-05-03T12:54:02.089Z</time></trkpt><trkpt lat="46.1144319" lon="13.5147894"><ele>165.0</ele><time>2026-05-03T12:54:03.081Z</time></trkpt><trkpt lat="46.1144441" lon="13.5149705"><ele>166.0</ele><time>2026-05-03T12:54:04.085Z</time></trkpt><trkpt lat="46.1144462" lon="13.5151369"><ele>167.0</ele><time>2026-05-03T12:54:05.078Z</time></trkpt><trkpt lat="46.1144471" lon="13.5152973"><ele>168.0</ele><time>2026-05-03T12:54:06.087Z</time></trkpt><trkpt lat="46.114454" lon="13.5154614"><ele>169.0</ele><time>2026-05-03T12:54:07.085Z</time></trkpt><trkpt lat="46.1144521" lon="13.5156189"><ele>169.5</ele><time>2026-05-03T12:54:08.076Z</time></trkpt><trkpt lat="46.1144453" lon="13.515748"><ele>170.0</ele><time>2026-05-03T12:54:09.083Z</time></trkpt><trkpt lat="46.1144519" lon="13.5158533"><ele>170.5</ele><time>2026-05-03T12:54:10.083Z</time></trkpt><trkpt lat="46.1144736" lon="13.515958"><ele>171.0</ele><time>2026-05-03T12:54:11.079Z</time></trkpt><trkpt lat="46.1145071" lon="13.5160743"><ele>171.5</ele><time>2026-05-03T12:54:12.077Z</time></trkpt><trkpt lat="46.1145433" lon="13.5162041"><ele>172.0</ele><time>2026-05-03T12:54:13.087Z</time></trkpt><trkpt lat="46.114585" lon="13.5163564"><ele>172.0</ele><time>2026-05-03T12:54:14.072Z</time></trkpt><trkpt lat="46.1146339" lon="13.5165025"><ele>172.0</ele><time>2026-05-03T12:54:15.084Z</time></trkpt><trkpt lat="46.1146925" lon="13.516655"><ele>172.0</ele><time>2026-05-03T12:54:16.09Z</time></trkpt><trkpt lat="46.1147684" lon="13.5167979"><ele>172.0</ele><time>2026-05-03T12:54:17.091Z</time></trkpt><trkpt lat="46.1148415" lon="13.5169334"><ele>167.0</ele><time>2026-05-03T12:54:18.077Z</time></trkpt><trkpt lat="46.114913" lon="13.5170725"><ele>162.0</ele><time>2026-05-03T12:54:19.087Z</time></trkpt><trkpt lat="46.114987" lon="13.5172113"><ele>157.0</ele><time>2026-05-03T12:54:20.09Z</time></trkpt><trkpt lat="46.1150644" lon="13.5173454"><ele>152.0</ele><time>2026-05-03T12:54:21.08Z</time></trkpt><trkpt lat="46.1151438" lon="13.5174766"><ele>152.0</ele><time>2026-05-03T12:54:22.091Z</time></trkpt><trkpt lat="46.1152261" lon="13.5175987"><ele>152.0</ele><time>2026-05-03T12:54:23.084Z</time></trkpt><trkpt lat="46.1153061" lon="13.5177221"><ele>152.0</ele><time>2026-05-03T12:54:24.081Z</time></trkpt><trkpt lat="46.1153865" lon="13.5178469"><ele>152.0</ele><time>2026-05-03T12:54:25.078Z</time></trkpt><trkpt lat="46.1154646" lon="13.5179656"><ele>151.79999999999998</ele><time>2026-05-03T12:54:26.086Z</time></trkpt><trkpt lat="46.1155429" lon="13.5180668"><ele>151.6</ele><time>2026-05-03T12:54:27.097Z</time></trkpt><trkpt lat="46.1156266" lon="13.5181542"><ele>151.39999999999998</ele><time>2026-05-03T12:54:28.088Z</time></trkpt><trkpt lat="46.115729" lon="13.5182345"><ele>151.2</ele><time>2026-05-03T12:54:29.088Z</time></trkpt><trkpt lat="46.1158396" lon="13.5183122"><ele>151.0</ele><time>2026-05-03T12:54:30.084Z</time></trkpt><trkpt lat="46.1159506" lon="13.5183963"><ele>151.0</ele><time>2026-05-03T12:54:31.089Z</time></trkpt><trkpt lat="46.1160581" lon="13.5184752"><ele>151.0</ele><time>2026-05-03T12:54:32.087Z</time></trkpt><trkpt lat="46.1161662" lon="13.5185532"><ele>151.0</ele><time>2026-05-03T12:54:33.089Z</time></trkpt><trkpt lat="46.116262" lon="13.5186509"><ele>151.0</ele><time>2026-05-03T12:54:34.097Z</time></trkpt><trkpt lat="46.1163512" lon="13.5187555"><ele>151.0</ele><time>2026-05-03T12:54:35.082Z</time></trkpt><trkpt lat="46.1164393" lon="13.5188633"><ele>151.0</ele><time>2026-05-03T12:54:36.082Z</time></trkpt><trkpt lat="46.1165382" lon="13.5189609"><ele>151.0</ele><time>2026-05-03T12:54:37.085Z</time></trkpt><trkpt lat="46.1166394" lon="13.5190413"><ele>151.0</ele><time>2026-05-03T12:54:38.098Z</time></trkpt><trkpt lat="46.1167394" lon="13.5191246"><ele>151.75</ele><time>2026-05-03T12:54:39.084Z</time></trkpt><trkpt lat="46.1168419" lon="13.5192074"><ele>152.5</ele><time>2026-05-03T12:54:40.094Z</time></trkpt><trkpt lat="46.1169425" lon="13.5193041"><ele>153.25</ele><time>2026-05-03T12:54:41.092Z</time></trkpt><trkpt lat="46.1170441" lon="13.5194107"><ele>154.0</ele><time>2026-05-03T12:54:42.092Z</time></trkpt><trkpt lat="46.1171312" lon="13.5195108"><ele>153.66666666666669</ele><time>2026-05-03T12:54:43.086Z</time></trkpt><trkpt lat="46.117213" lon="13.5196046"><ele>153.33333333333334</ele><time>2026-05-03T12:54:44.085Z</time></trkpt><trkpt lat="46.1172893" lon="13.5196937"><ele>153.0</ele><time>2026-05-03T12:54:45.105Z</time></trkpt><trkpt lat="46.1173522" lon="13.519778"><ele>152.66666666666666</ele><time>2026-05-03T12:54:46.095Z</time></trkpt><trkpt lat="46.1173913" lon="13.5198807"><ele>152.33333333333331</ele><time>2026-05-03T12:54:47.099Z</time></trkpt><trkpt lat="46.1174244" lon="13.5199851"><ele>152.0</ele><time>2026-05-03T12:54:48.089Z</time></trkpt><trkpt lat="46.1174584" lon="13.5201189"><ele>152.0</ele><time>2026-05-03T12:54:49.095Z</time></trkpt><trkpt lat="46.1174869" lon="13.5202654"><ele>152.0</ele><time>2026-05-03T12:54:50.083Z</time></trkpt><trkpt lat="46.1175227" lon="13.5203935"><ele>152.0</ele><time>2026-05-03T12:54:51.085Z</time></trkpt><trkpt lat="46.1175791" lon="13.520502"><ele>152.0</ele><time>2026-05-03T12:54:52.082Z</time></trkpt><trkpt lat="46.1176342" lon="13.5205891"><ele>152.0</ele><time>2026-05-03T12:54:53.087Z</time></trkpt><trkpt lat="46.1176982" lon="13.5206627"><ele>152.16666666666666</ele><time>2026-05-03T12:54:54.088Z</time></trkpt><trkpt lat="46.1177463" lon="13.5207333"><ele>152.33333333333331</ele><time>2026-05-03T12:54:55.091Z</time></trkpt><trkpt lat="46.1177977" lon="13.5207956"><ele>152.5</ele><time>2026-05-03T12:54:56.088Z</time></trkpt><trkpt lat="46.1178867" lon="13.5208891"><ele>152.66666666666666</ele><time>2026-05-03T12:54:58.078Z</time></trkpt><trkpt lat="46.1179711" lon="13.5209658"><ele>152.83333333333334</ele><time>2026-05-03T12:55:00.084Z</time></trkpt><trkpt lat="46.1180434" lon="13.5210321"><ele>153.0</ele><time>2026-05-03T12:55:02.094Z</time></trkpt><trkpt lat="46.1181045" lon="13.5210836"><ele>153.0</ele><time>2026-05-03T12:55:05.103Z</time></trkpt><trkpt lat="46.1181633" lon="13.5211699"><ele>153.0</ele><time>2026-05-03T12:55:19.086Z</time></trkpt><trkpt lat="46.1181711" lon="13.5213243"><ele>153.0</ele><time>2026-05-03T12:55:21.09Z</time></trkpt><trkpt lat="46.1181633" lon="13.5214167"><ele>153.0</ele><time>2026-05-03T12:55:22.088Z</time></trkpt><trkpt lat="46.1181405" lon="13.5215171"><ele>153.0</ele><time>2026-05-03T12:55:23.098Z</time></trkpt><trkpt lat="46.1181153" lon="13.5216189"><ele>153.0</ele><time>2026-05-03T12:55:24.091Z</time></trkpt><trkpt lat="46.1181023" lon="13.5217735"><ele>153.0</ele><time>2026-05-03T12:55:26.108Z</time></trkpt><trkpt lat="46.1181849" lon="13.5218735"><ele>153.0</ele><time>2026-05-03T12:55:28.092Z</time></trkpt><trkpt lat="46.1182693" lon="13.5218852"><ele>153.0</ele><time>2026-05-03T12:55:29.08Z</time></trkpt><trkpt lat="46.1183569" lon="13.5218846"><ele>153.0</ele><time>2026-05-03T12:55:30.086Z</time></trkpt><trkpt lat="46.1184569" lon="13.521916"><ele>153.0</ele><time>2026-05-03T12:55:31.099Z</time></trkpt><trkpt lat="46.118571" lon="13.5219774"><ele>153.0</ele><time>2026-05-03T12:55:32.092Z</time></trkpt><trkpt lat="46.1186914" lon="13.5220495"><ele>153.0</ele><time>2026-05-03T12:55:33.091Z</time></trkpt><trkpt lat="46.118813" lon="13.5221204"><ele>153.0</ele><time>2026-05-03T12:55:34.082Z</time></trkpt><trkpt lat="46.1189276" lon="13.522184"><ele>153.0</ele><time>2026-05-03T12:55:35.09Z</time></trkpt><trkpt lat="46.1190354" lon="13.5222342"><ele>153.4</ele><time>2026-05-03T12:55:36.086Z</time></trkpt><trkpt lat="46.1191423" lon="13.5222697"><ele>153.8</ele><time>2026-05-03T12:55:37.076Z</time></trkpt><trkpt lat="46.1192577" lon="13.5222811"><ele>154.2</ele><time>2026-05-03T12:55:38.08Z</time></trkpt><trkpt lat="46.1193711" lon="13.5222787"><ele>154.6</ele><time>2026-05-03T12:55:39.086Z</time></trkpt><trkpt lat="46.1194796" lon="13.5222729"><ele>155.0</ele><time>2026-05-03T12:55:40.087Z</time></trkpt><trkpt lat="46.1195684" lon="13.5223145"><ele>155.0</ele><time>2026-05-03T12:55:41.084Z</time></trkpt><trkpt lat="46.1196473" lon="13.5224058"><ele>155.0</ele><time>2026-05-03T12:55:42.09Z</time></trkpt><trkpt lat="46.1197245" lon="13.5225224"><ele>155.0</ele><time>2026-05-03T12:55:43.083Z</time></trkpt><trkpt lat="46.1198037" lon="13.522638"><ele>155.0</ele><time>2026-05-03T12:55:44.084Z</time></trkpt><trkpt lat="46.1198862" lon="13.5227606"><ele>155.0</ele><time>2026-05-03T12:55:45.076Z</time></trkpt><trkpt lat="46.1199575" lon="13.5228953"><ele>155.0</ele><time>2026-05-03T12:55:46.09Z</time></trkpt><trkpt lat="46.1200272" lon="13.5230219"><ele>155.0</ele><time>2026-05-03T12:55:47.082Z</time></trkpt><trkpt lat="46.1200908" lon="13.5231371"><ele>155.0</ele><time>2026-05-03T12:55:48.091Z</time></trkpt><trkpt lat="46.1201394" lon="13.5232418"><ele>155.0</ele><time>2026-05-03T12:55:49.088Z</time></trkpt><trkpt lat="46.120178" lon="13.5233349"><ele>155.0</ele><time>2026-05-03T12:55:50.092Z</time></trkpt><trkpt lat="46.1202145" lon="13.5234184"><ele>155.0</ele><time>2026-05-03T12:55:51.098Z</time></trkpt><trkpt lat="46.1202503" lon="13.5234951"><ele>155.0</ele><time>2026-05-03T12:55:52.085Z</time></trkpt><trkpt lat="46.1202928" lon="13.5236341"><ele>155.0</ele><time>2026-05-03T12:55:54.083Z</time></trkpt><trkpt lat="46.120287" lon="13.5237726"><ele>155.0</ele><time>2026-05-03T12:55:56.092Z</time></trkpt><trkpt lat="46.120254" lon="13.5239037"><ele>155.0</ele><time>2026-05-03T12:55:58.1Z</time></trkpt><trkpt lat="46.1202279" lon="13.5240278"><ele>155.0</ele><time>2026-05-03T12:56:00.085Z</time></trkpt><trkpt lat="46.120201" lon="13.5241458"><ele>155.0</ele><time>2026-05-03T12:56:02.084Z</time></trkpt><trkpt lat="46.1201908" lon="13.5242553"><ele>155.0</ele><time>2026-05-03T12:56:33.095Z</time></trkpt><trkpt lat="46.1202055" lon="13.5243732"><ele>155.0</ele><time>2026-05-03T12:56:47.097Z</time></trkpt><trkpt lat="46.1202212" lon="13.5244674"><ele>155.0</ele><time>2026-05-03T12:56:51.086Z</time></trkpt><trkpt lat="46.1202048" lon="13.5245604"><ele>155.0</ele><time>2026-05-03T12:56:53.088Z</time></trkpt><trkpt lat="46.1201378" lon="13.524616"><ele>155.0</ele><time>2026-05-03T12:56:56.077Z</time></trkpt><trkpt lat="46.1200796" lon="13.5245323"><ele>155.0</ele><time>2026-05-03T12:56:59.087Z</time></trkpt><trkpt lat="46.1200461" lon="13.5244417"><ele>155.0</ele><time>2026-05-03T12:57:02.085Z</time></trkpt><trkpt lat="46.1199969" lon="13.524351"><ele>155.0</ele><time>2026-05-03T12:57:05.085Z</time></trkpt><trkpt lat="46.1199508" lon="13.5242574"><ele>155.0</ele><time>2026-05-03T12:57:08.084Z</time></trkpt><trkpt lat="46.1199705" lon="13.5241446"><ele>155.0</ele><time>2026-05-03T12:57:11.092Z</time></trkpt><trkpt lat="46.1200236" lon="13.5240709"><ele>155.0</ele><time>2026-05-03T12:57:14.084Z</time></trkpt><trkpt lat="46.1200911" lon="13.5240956"><ele>155.0</ele><time>2026-05-03T12:57:17.083Z</time></trkpt><trkpt lat="46.1201426" lon="13.5241625"><ele>155.0</ele><time>2026-05-03T12:57:20.096Z</time></trkpt><trkpt lat="46.1200889" lon="13.5240946"><ele>155.0</ele><time>2026-05-03T13:47:40.079Z</time></trkpt><trkpt lat="46.1200763" lon="13.5239678"><ele>155.0</ele><time>2026-05-03T13:47:42.08Z</time></trkpt><trkpt lat="46.1201029" lon="13.5238678"><ele>155.0</ele><time>2026-05-03T13:47:44.089Z</time></trkpt><trkpt lat="46.1201789" lon="13.5238618"><ele>155.0</ele><time>2026-05-03T13:47:46.072Z</time></trkpt><trkpt lat="46.1202588" lon="13.5238237"><ele>155.0</ele><time>2026-05-03T13:47:48.091Z</time></trkpt><trkpt lat="46.1203062" lon="13.5236885"><ele>155.0</ele><time>2026-05-03T13:47:50.078Z</time></trkpt><trkpt lat="46.1202648" lon="13.5235321"><ele>155.0</ele><time>2026-05-03T13:47:52.079Z</time></trkpt><trkpt lat="46.1202248" lon="13.5234506"><ele>155.0</ele><time>2026-05-03T13:47:53.071Z</time></trkpt><trkpt lat="46.1201856" lon="13.5233668"><ele>155.0</ele><time>2026-05-03T13:47:54.084Z</time></trkpt><trkpt lat="46.1201438" lon="13.5232834"><ele>155.0</ele><time>2026-05-03T13:47:55.076Z</time></trkpt><trkpt lat="46.1201071" lon="13.5232043"><ele>155.0</ele><time>2026-05-03T13:47:56.081Z</time></trkpt><trkpt lat="46.1200704" lon="13.523118"><ele>155.0</ele><time>2026-05-03T13:47:57.083Z</time></trkpt><trkpt lat="46.120027" lon="13.52303"><ele>155.0</ele><time>2026-05-03T13:47:58.08Z</time></trkpt><trkpt lat="46.1199841" lon="13.5229396"><ele>155.0</ele><time>2026-05-03T13:47:59.077Z</time></trkpt><trkpt lat="46.1199428" lon="13.5228482"><ele>155.0</ele><time>2026-05-03T13:48:00.073Z</time></trkpt><trkpt lat="46.1198918" lon="13.5227562"><ele>155.0</ele><time>2026-05-03T13:48:01.082Z</time></trkpt><trkpt lat="46.1198395" lon="13.5226707"><ele>155.0</ele><time>2026-05-03T13:48:02.068Z</time></trkpt><trkpt lat="46.1197867" lon="13.5225945"><ele>155.0</ele><time>2026-05-03T13:48:03.105Z</time></trkpt><trkpt lat="46.1197335" lon="13.5225279"><ele>155.0</ele><time>2026-05-03T13:48:04.087Z</time></trkpt><trkpt lat="46.1196852" lon="13.5224666"><ele>155.0</ele><time>2026-05-03T13:48:05.083Z</time></trkpt><trkpt lat="46.1196852" lon="13.5224666"><ele>155.0</ele><time>2026-05-03T13:48:05.083Z</time></trkpt><trkpt lat="46.1196852" lon="13.5224666"><ele>155.0</ele><time>2026-05-03T13:48:05.083Z</time></trkpt><trkpt lat="46.1196852" lon="13.5224666"><ele>155.0</ele><time>2026-05-03T13:48:05.083Z</time></trkpt><trkpt lat="46.1196852" lon="13.5224666"><ele>155.0</ele><time>2026-05-03T13:48:05.083Z</time></trkpt><trkpt lat="46.1196852" lon="13.5224666"><ele>155.0</ele><time>2026-05-03T13:48:05.083Z</time></trkpt><trkpt lat="46.1196852" lon="13.5224666"><ele>155.0</ele><time>2026-05-03T13:48:05.083Z</time></trkpt><trkpt lat="46.1196852" lon="13.5224666"><ele>155.0</ele><time>2026-05-03T13:48:05.083Z</time></trkpt><trkpt lat="46.1196852" lon="13.5224666"><ele>155.0</ele><time>2026-05-03T13:48:05.083Z</time></trkpt><trkpt lat="46.1196852" lon="13.5224666"><ele>155.0</ele><time>2026-05-03T13:48:05.083Z</time></trkpt><trkpt lat="46.1196852" lon="13.5224666"><ele>155.0</ele><time>2026-05-03T13:48:05.083Z</time></trkpt><trkpt lat="46.1196852" lon="13.5224666"><ele>155.0</ele><time>2026-05-03T13:48:05.083Z</time></trkpt></trkseg></trk></gpx>